<?xml version="1.0" encoding="UTF-8" standalone="no" ?>
<gpx xmlns="http://www.topografix.com/GPX/1/1" xmlns:xsi="http://www.w3.org/2001/XMLSchema-instance" xsi:schemaLocation="http://www.topografix.com/GPX/1/1 http://www.topografix.com/GPX/1/1/gpx.xsd" version="1.1" creator="VisuGPX - https://www.visugpx.com">
  <metadata>
    <name>Lac de Paladru depuis Meyrie</name>
  </metadata>
  <trk>
    <name><![CDATA[Lac de Paladru depuis Mozas]]></name>
    <extensions>
      <line xmlns="http://www.topografix.com/GPX/gpx_style/0/2">
        <color>0000FF</color>
        <width>4</width>
      </line>
    </extensions>
    <trkseg>
      <trkpt lat="45.61501" lon="5.27472">
        <ele>226</ele>
        <time>2021-10-02T15:24:15.474Z</time>
        <extensions>
          <visugpx:TrkExtension xmlns:visugpx="https://www.visugpx.com/editgpx/">
            <visugpx:node>5</visugpx:node>
            </visugpx:TrkExtension>
        </extensions>
      </trkpt>
      <trkpt lat="45.61502" lon="5.27472">
        <ele>226</ele>
        <time>2021-10-02T15:24:14.475Z</time>
      </trkpt>
      <trkpt lat="45.61501" lon="5.27471">
        <ele>226</ele>
        <time>2021-10-02T15:24:12.474Z</time>
      </trkpt>
      <trkpt lat="45.61499" lon="5.27469">
        <ele>225</ele>
        <time>2021-10-02T15:24:11.475Z</time>
      </trkpt>
      <trkpt lat="45.61498" lon="5.27468">
        <ele>225</ele>
        <time>2021-10-02T15:24:10.474Z</time>
      </trkpt>
      <trkpt lat="45.61495" lon="5.27467">
        <ele>225</ele>
        <time>2021-10-02T15:24:09.475Z</time>
      </trkpt>
      <trkpt lat="45.61491" lon="5.27466">
        <ele>224</ele>
        <time>2021-10-02T15:24:08.475Z</time>
      </trkpt>
      <trkpt lat="45.61488" lon="5.27465">
        <ele>224</ele>
        <time>2021-10-02T15:24:07.475Z</time>
      </trkpt>
      <trkpt lat="45.61484" lon="5.27463">
        <ele>224</ele>
        <time>2021-10-02T15:24:06.475Z</time>
      </trkpt>
      <trkpt lat="45.61481" lon="5.27462">
        <ele>224</ele>
        <time>2021-10-02T15:24:05.475Z</time>
      </trkpt>
      <trkpt lat="45.61476" lon="5.27459">
        <ele>223</ele>
        <time>2021-10-02T15:24:04.475Z</time>
      </trkpt>
      <trkpt lat="45.61473" lon="5.27458">
        <ele>223</ele>
        <time>2021-10-02T15:24:03.475Z</time>
      </trkpt>
      <trkpt lat="45.61468" lon="5.27456">
        <ele>222</ele>
        <time>2021-10-02T15:24:02.475Z</time>
      </trkpt>
      <trkpt lat="45.61465" lon="5.27455">
        <ele>222</ele>
        <time>2021-10-02T15:24:01.475Z</time>
      </trkpt>
      <trkpt lat="45.61461" lon="5.27453">
        <ele>223</ele>
        <time>2021-10-02T15:24:00.474Z</time>
      </trkpt>
      <trkpt lat="45.61456" lon="5.27451">
        <ele>223</ele>
        <time>2021-10-02T15:23:59.475Z</time>
      </trkpt>
      <trkpt lat="45.61452" lon="5.2745">
        <ele>223</ele>
        <time>2021-10-02T15:23:58.475Z</time>
      </trkpt>
      <trkpt lat="45.61448" lon="5.27448">
        <ele>224</ele>
        <time>2021-10-02T15:23:57.474Z</time>
      </trkpt>
      <trkpt lat="45.61445" lon="5.27447">
        <ele>224</ele>
        <time>2021-10-02T15:23:56.475Z</time>
      </trkpt>
      <trkpt lat="45.61441" lon="5.27445">
        <ele>224</ele>
        <time>2021-10-02T15:23:55.474Z</time>
      </trkpt>
      <trkpt lat="45.61438" lon="5.27444">
        <ele>223</ele>
        <time>2021-10-02T15:23:54.475Z</time>
      </trkpt>
      <trkpt lat="45.61433" lon="5.27443">
        <ele>223</ele>
        <time>2021-10-02T15:23:53.475Z</time>
      </trkpt>
      <trkpt lat="45.6143" lon="5.27443">
        <ele>223</ele>
        <time>2021-10-02T15:23:52.475Z</time>
      </trkpt>
      <trkpt lat="45.61427" lon="5.27443">
        <ele>223</ele>
        <time>2021-10-02T15:23:51.474Z</time>
      </trkpt>
      <trkpt lat="45.61424" lon="5.27445">
        <ele>223</ele>
        <time>2021-10-02T15:23:50.475Z</time>
      </trkpt>
      <trkpt lat="45.61422" lon="5.2745">
        <ele>222</ele>
        <time>2021-10-02T15:23:49.475Z</time>
      </trkpt>
      <trkpt lat="45.61421" lon="5.27455">
        <ele>222</ele>
        <time>2021-10-02T15:23:48.475Z</time>
      </trkpt>
      <trkpt lat="45.6142" lon="5.27462">
        <ele>222</ele>
        <time>2021-10-02T15:23:47.475Z</time>
      </trkpt>
      <trkpt lat="45.61419" lon="5.27469">
        <ele>223</ele>
        <time>2021-10-02T15:23:46.475Z</time>
      </trkpt>
      <trkpt lat="45.61418" lon="5.27477">
        <ele>223</ele>
        <time>2021-10-02T15:23:45.474Z</time>
      </trkpt>
      <trkpt lat="45.61416" lon="5.27484">
        <ele>223</ele>
        <time>2021-10-02T15:23:44.475Z</time>
      </trkpt>
      <trkpt lat="45.61415" lon="5.27491">
        <ele>223</ele>
        <time>2021-10-02T15:23:43.475Z</time>
      </trkpt>
      <trkpt lat="45.61413" lon="5.27498">
        <ele>224</ele>
        <time>2021-10-02T15:23:42.475Z</time>
      </trkpt>
      <trkpt lat="45.61411" lon="5.27504">
        <ele>225</ele>
        <time>2021-10-02T15:23:41.474Z</time>
      </trkpt>
      <trkpt lat="45.61408" lon="5.27509">
        <ele>225</ele>
        <time>2021-10-02T15:23:40.475Z</time>
      </trkpt>
      <trkpt lat="45.61405" lon="5.27513">
        <ele>226</ele>
        <time>2021-10-02T15:23:39.475Z</time>
      </trkpt>
      <trkpt lat="45.614" lon="5.27514">
        <ele>226</ele>
        <time>2021-10-02T15:23:38.475Z</time>
      </trkpt>
      <trkpt lat="45.61395" lon="5.27512">
        <ele>226</ele>
        <time>2021-10-02T15:23:37.474Z</time>
      </trkpt>
      <trkpt lat="45.6139" lon="5.27509">
        <ele>226</ele>
        <time>2021-10-02T15:23:36.475Z</time>
      </trkpt>
      <trkpt lat="45.61385" lon="5.27506">
        <ele>225</ele>
        <time>2021-10-02T15:23:35.475Z</time>
      </trkpt>
      <trkpt lat="45.6138" lon="5.27503">
        <ele>225</ele>
        <time>2021-10-02T15:23:34.474Z</time>
      </trkpt>
      <trkpt lat="45.61374" lon="5.275">
        <ele>225</ele>
        <time>2021-10-02T15:23:33.475Z</time>
      </trkpt>
      <trkpt lat="45.61368" lon="5.27497">
        <ele>225</ele>
        <time>2021-10-02T15:23:32.475Z</time>
      </trkpt>
      <trkpt lat="45.61363" lon="5.27494">
        <ele>226</ele>
        <time>2021-10-02T15:23:31.475Z</time>
      </trkpt>
      <trkpt lat="45.61356" lon="5.2749">
        <ele>226</ele>
        <time>2021-10-02T15:23:30.474Z</time>
      </trkpt>
      <trkpt lat="45.61351" lon="5.27487">
        <ele>227</ele>
        <time>2021-10-02T15:23:29.475Z</time>
      </trkpt>
      <trkpt lat="45.61343" lon="5.27483">
        <ele>227</ele>
        <time>2021-10-02T15:23:28.475Z</time>
      </trkpt>
      <trkpt lat="45.61337" lon="5.2748">
        <ele>226</ele>
        <time>2021-10-02T15:23:27.475Z</time>
      </trkpt>
      <trkpt lat="45.6133" lon="5.27476">
        <ele>226</ele>
        <time>2021-10-02T15:23:26.474Z</time>
      </trkpt>
      <trkpt lat="45.61322" lon="5.27473">
        <ele>226</ele>
        <time>2021-10-02T15:23:25.475Z</time>
      </trkpt>
      <trkpt lat="45.61315" lon="5.27469">
        <ele>226</ele>
        <time>2021-10-02T15:23:24.475Z</time>
      </trkpt>
      <trkpt lat="45.61308" lon="5.27465">
        <ele>226</ele>
        <time>2021-10-02T15:23:23.474Z</time>
      </trkpt>
      <trkpt lat="45.613" lon="5.27462">
        <ele>226</ele>
        <time>2021-10-02T15:23:22.475Z</time>
      </trkpt>
      <trkpt lat="45.61294" lon="5.27459">
        <ele>225</ele>
        <time>2021-10-02T15:23:21.475Z</time>
      </trkpt>
      <trkpt lat="45.61285" lon="5.27456">
        <ele>225</ele>
        <time>2021-10-02T15:23:20.475Z</time>
      </trkpt>
      <trkpt lat="45.61278" lon="5.27454">
        <ele>225</ele>
        <time>2021-10-02T15:23:19.475Z</time>
      </trkpt>
      <trkpt lat="45.61269" lon="5.2745">
        <ele>225</ele>
        <time>2021-10-02T15:23:18.475Z</time>
      </trkpt>
      <trkpt lat="45.61262" lon="5.27446">
        <ele>225</ele>
        <time>2021-10-02T15:23:17.475Z</time>
      </trkpt>
      <trkpt lat="45.61254" lon="5.27441">
        <ele>225</ele>
        <time>2021-10-02T15:23:16.474Z</time>
      </trkpt>
      <trkpt lat="45.61249" lon="5.27437">
        <ele>225</ele>
        <time>2021-10-02T15:23:15.474Z</time>
      </trkpt>
      <trkpt lat="45.61242" lon="5.27432">
        <ele>225</ele>
        <time>2021-10-02T15:23:14.475Z</time>
      </trkpt>
      <trkpt lat="45.61235" lon="5.27428">
        <ele>226</ele>
        <time>2021-10-02T15:23:13.474Z</time>
      </trkpt>
      <trkpt lat="45.6123" lon="5.27425">
        <ele>226</ele>
        <time>2021-10-02T15:23:12.475Z</time>
      </trkpt>
      <trkpt lat="45.61222" lon="5.27424">
        <ele>226</ele>
        <time>2021-10-02T15:23:11.475Z</time>
      </trkpt>
      <trkpt lat="45.61217" lon="5.27424">
        <ele>226</ele>
        <time>2021-10-02T15:23:10.474Z</time>
      </trkpt>
      <trkpt lat="45.61208" lon="5.27423">
        <ele>226</ele>
        <time>2021-10-02T15:23:09.475Z</time>
      </trkpt>
      <trkpt lat="45.61203" lon="5.27421">
        <ele>226</ele>
        <time>2021-10-02T15:23:08.474Z</time>
      </trkpt>
      <trkpt lat="45.61196" lon="5.27418">
        <ele>226</ele>
        <time>2021-10-02T15:23:07.474Z</time>
      </trkpt>
      <trkpt lat="45.61187" lon="5.27414">
        <ele>226</ele>
        <time>2021-10-02T15:23:06.475Z</time>
      </trkpt>
      <trkpt lat="45.61179" lon="5.2741">
        <ele>226</ele>
        <time>2021-10-02T15:23:05.475Z</time>
      </trkpt>
      <trkpt lat="45.61172" lon="5.27406">
        <ele>226</ele>
        <time>2021-10-02T15:23:04.475Z</time>
      </trkpt>
      <trkpt lat="45.61164" lon="5.27402">
        <ele>226</ele>
        <time>2021-10-02T15:23:03.475Z</time>
      </trkpt>
      <trkpt lat="45.61156" lon="5.27398">
        <ele>226</ele>
        <time>2021-10-02T15:23:02.475Z</time>
      </trkpt>
      <trkpt lat="45.61148" lon="5.27394">
        <ele>227</ele>
        <time>2021-10-02T15:23:01.474Z</time>
      </trkpt>
      <trkpt lat="45.6114" lon="5.2739">
        <ele>227</ele>
        <time>2021-10-02T15:23:00.475Z</time>
      </trkpt>
      <trkpt lat="45.61132" lon="5.27386">
        <ele>227</ele>
        <time>2021-10-02T15:22:59.475Z</time>
      </trkpt>
      <trkpt lat="45.61123" lon="5.27382">
        <ele>227</ele>
        <time>2021-10-02T15:22:58.474Z</time>
      </trkpt>
      <trkpt lat="45.61116" lon="5.27378">
        <ele>228</ele>
        <time>2021-10-02T15:22:57.475Z</time>
      </trkpt>
      <trkpt lat="45.61108" lon="5.27374">
        <ele>228</ele>
        <time>2021-10-02T15:22:56.475Z</time>
      </trkpt>
      <trkpt lat="45.61098" lon="5.27369">
        <ele>228</ele>
        <time>2021-10-02T15:22:55.475Z</time>
      </trkpt>
      <trkpt lat="45.61092" lon="5.27365">
        <ele>229</ele>
        <time>2021-10-02T15:22:54.475Z</time>
      </trkpt>
      <trkpt lat="45.61083" lon="5.27361">
        <ele>229</ele>
        <time>2021-10-02T15:22:53.474Z</time>
      </trkpt>
      <trkpt lat="45.61075" lon="5.27356">
        <ele>230</ele>
        <time>2021-10-02T15:22:52.475Z</time>
      </trkpt>
      <trkpt lat="45.61065" lon="5.27351">
        <ele>230</ele>
        <time>2021-10-02T15:22:51.475Z</time>
      </trkpt>
      <trkpt lat="45.61056" lon="5.27347">
        <ele>230</ele>
        <time>2021-10-02T15:22:50.475Z</time>
      </trkpt>
      <trkpt lat="45.61048" lon="5.27343">
        <ele>229</ele>
        <time>2021-10-02T15:22:49.475Z</time>
      </trkpt>
      <trkpt lat="45.6104" lon="5.27339">
        <ele>229</ele>
        <time>2021-10-02T15:22:48.475Z</time>
      </trkpt>
      <trkpt lat="45.61031" lon="5.27335">
        <ele>229</ele>
        <time>2021-10-02T15:22:47.474Z</time>
      </trkpt>
      <trkpt lat="45.61023" lon="5.27331">
        <ele>230</ele>
        <time>2021-10-02T15:22:46.475Z</time>
      </trkpt>
      <trkpt lat="45.61014" lon="5.27327">
        <ele>230</ele>
        <time>2021-10-02T15:22:45.475Z</time>
      </trkpt>
      <trkpt lat="45.61006" lon="5.27323">
        <ele>230</ele>
        <time>2021-10-02T15:22:44.475Z</time>
      </trkpt>
      <trkpt lat="45.60997" lon="5.27319">
        <ele>230</ele>
        <time>2021-10-02T15:22:43.475Z</time>
      </trkpt>
      <trkpt lat="45.60989" lon="5.27314">
        <ele>230</ele>
        <time>2021-10-02T15:22:42.474Z</time>
      </trkpt>
      <trkpt lat="45.6098" lon="5.2731">
        <ele>231</ele>
        <time>2021-10-02T15:22:41.475Z</time>
      </trkpt>
      <trkpt lat="45.60972" lon="5.27306">
        <ele>231</ele>
        <time>2021-10-02T15:22:40.475Z</time>
      </trkpt>
      <trkpt lat="45.60963" lon="5.27302">
        <ele>232</ele>
        <time>2021-10-02T15:22:39.475Z</time>
      </trkpt>
      <trkpt lat="45.60955" lon="5.27297">
        <ele>232</ele>
        <time>2021-10-02T15:22:38.475Z</time>
      </trkpt>
      <trkpt lat="45.60946" lon="5.27293">
        <ele>232</ele>
        <time>2021-10-02T15:22:37.475Z</time>
      </trkpt>
      <trkpt lat="45.60937" lon="5.2729">
        <ele>232</ele>
        <time>2021-10-02T15:22:36.475Z</time>
      </trkpt>
      <trkpt lat="45.60929" lon="5.27286">
        <ele>232</ele>
        <time>2021-10-02T15:22:35.475Z</time>
      </trkpt>
      <trkpt lat="45.6092" lon="5.27282">
        <ele>232</ele>
        <time>2021-10-02T15:22:34.475Z</time>
      </trkpt>
      <trkpt lat="45.60912" lon="5.27278">
        <ele>232</ele>
        <time>2021-10-02T15:22:33.474Z</time>
      </trkpt>
      <trkpt lat="45.60904" lon="5.27274">
        <ele>233</ele>
        <time>2021-10-02T15:22:32.475Z</time>
      </trkpt>
      <trkpt lat="45.60896" lon="5.2727">
        <ele>234</ele>
        <time>2021-10-02T15:22:31.475Z</time>
      </trkpt>
      <trkpt lat="45.60888" lon="5.27266">
        <ele>234</ele>
        <time>2021-10-02T15:22:30.474Z</time>
      </trkpt>
      <trkpt lat="45.6088" lon="5.27261">
        <ele>235</ele>
        <time>2021-10-02T15:22:29.474Z</time>
      </trkpt>
      <trkpt lat="45.60872" lon="5.27257">
        <ele>235</ele>
        <time>2021-10-02T15:22:28.474Z</time>
      </trkpt>
      <trkpt lat="45.60865" lon="5.27254">
        <ele>235</ele>
        <time>2021-10-02T15:22:27.475Z</time>
      </trkpt>
      <trkpt lat="45.60857" lon="5.2725">
        <ele>235</ele>
        <time>2021-10-02T15:22:26.475Z</time>
      </trkpt>
      <trkpt lat="45.6085" lon="5.27246">
        <ele>235</ele>
        <time>2021-10-02T15:22:25.474Z</time>
      </trkpt>
      <trkpt lat="45.60843" lon="5.27243">
        <ele>235</ele>
        <time>2021-10-02T15:22:24.475Z</time>
      </trkpt>
      <trkpt lat="45.60836" lon="5.2724">
        <ele>235</ele>
        <time>2021-10-02T15:22:23.475Z</time>
      </trkpt>
      <trkpt lat="45.6083" lon="5.27237">
        <ele>235</ele>
        <time>2021-10-02T15:22:22.475Z</time>
      </trkpt>
      <trkpt lat="45.60824" lon="5.27235">
        <ele>236</ele>
        <time>2021-10-02T15:22:21.474Z</time>
      </trkpt>
      <trkpt lat="45.60817" lon="5.27233">
        <ele>236</ele>
        <time>2021-10-02T15:22:20.474Z</time>
      </trkpt>
      <trkpt lat="45.6081" lon="5.27231">
        <ele>236</ele>
        <time>2021-10-02T15:22:19.475Z</time>
      </trkpt>
      <trkpt lat="45.60803" lon="5.2723">
        <ele>236</ele>
        <time>2021-10-02T15:22:18.474Z</time>
      </trkpt>
      <trkpt lat="45.60797" lon="5.27229">
        <ele>236</ele>
        <time>2021-10-02T15:22:17.475Z</time>
      </trkpt>
      <trkpt lat="45.60791" lon="5.27229">
        <ele>236</ele>
        <time>2021-10-02T15:22:16.474Z</time>
      </trkpt>
      <trkpt lat="45.60784" lon="5.27228">
        <ele>236</ele>
        <time>2021-10-02T15:22:15.475Z</time>
      </trkpt>
      <trkpt lat="45.60778" lon="5.27228">
        <ele>236</ele>
        <time>2021-10-02T15:22:14.475Z</time>
      </trkpt>
      <trkpt lat="45.60772" lon="5.27229">
        <ele>236</ele>
        <time>2021-10-02T15:22:13.474Z</time>
      </trkpt>
      <trkpt lat="45.60765" lon="5.27229">
        <ele>236</ele>
        <time>2021-10-02T15:22:12.474Z</time>
      </trkpt>
      <trkpt lat="45.60759" lon="5.27229">
        <ele>236</ele>
        <time>2021-10-02T15:22:11.475Z</time>
      </trkpt>
      <trkpt lat="45.60753" lon="5.27229">
        <ele>236</ele>
        <time>2021-10-02T15:22:10.475Z</time>
      </trkpt>
      <trkpt lat="45.60747" lon="5.27229">
        <ele>236</ele>
        <time>2021-10-02T15:22:09.475Z</time>
      </trkpt>
      <trkpt lat="45.60741" lon="5.27229">
        <ele>236</ele>
        <time>2021-10-02T15:22:08.474Z</time>
      </trkpt>
      <trkpt lat="45.60735" lon="5.27229">
        <ele>236</ele>
        <time>2021-10-02T15:22:07.475Z</time>
      </trkpt>
      <trkpt lat="45.60728" lon="5.27229">
        <ele>236</ele>
        <time>2021-10-02T15:22:06.475Z</time>
      </trkpt>
      <trkpt lat="45.60722" lon="5.27229">
        <ele>236</ele>
        <time>2021-10-02T15:22:05.474Z</time>
      </trkpt>
      <trkpt lat="45.60716" lon="5.2723">
        <ele>235</ele>
        <time>2021-10-02T15:22:04.475Z</time>
      </trkpt>
      <trkpt lat="45.6071" lon="5.2723">
        <ele>235</ele>
        <time>2021-10-02T15:22:03.474Z</time>
      </trkpt>
      <trkpt lat="45.60704" lon="5.2723">
        <ele>234</ele>
        <time>2021-10-02T15:22:02.475Z</time>
      </trkpt>
      <trkpt lat="45.60699" lon="5.27231">
        <ele>234</ele>
        <time>2021-10-02T15:22:01.475Z</time>
      </trkpt>
      <trkpt lat="45.60693" lon="5.27231">
        <ele>234</ele>
        <time>2021-10-02T15:22:00.474Z</time>
      </trkpt>
      <trkpt lat="45.60688" lon="5.2723">
        <ele>234</ele>
        <time>2021-10-02T15:21:59.475Z</time>
      </trkpt>
      <trkpt lat="45.60682" lon="5.2723">
        <ele>234</ele>
        <time>2021-10-02T15:21:58.474Z</time>
      </trkpt>
      <trkpt lat="45.60677" lon="5.2723">
        <ele>233</ele>
        <time>2021-10-02T15:21:57.475Z</time>
      </trkpt>
      <trkpt lat="45.60672" lon="5.27231">
        <ele>233</ele>
        <time>2021-10-02T15:21:56.474Z</time>
      </trkpt>
      <trkpt lat="45.60666" lon="5.2723">
        <ele>233</ele>
        <time>2021-10-02T15:21:55.475Z</time>
      </trkpt>
      <trkpt lat="45.6066" lon="5.2723">
        <ele>233</ele>
        <time>2021-10-02T15:21:54.475Z</time>
      </trkpt>
      <trkpt lat="45.60653" lon="5.2723">
        <ele>233</ele>
        <time>2021-10-02T15:21:53.474Z</time>
      </trkpt>
      <trkpt lat="45.60646" lon="5.2723">
        <ele>233</ele>
        <time>2021-10-02T15:21:52.474Z</time>
      </trkpt>
      <trkpt lat="45.60638" lon="5.2723">
        <ele>232</ele>
        <time>2021-10-02T15:21:51.475Z</time>
      </trkpt>
      <trkpt lat="45.6063" lon="5.2723">
        <ele>232</ele>
        <time>2021-10-02T15:21:50.475Z</time>
      </trkpt>
      <trkpt lat="45.60622" lon="5.27231">
        <ele>232</ele>
        <time>2021-10-02T15:21:49.475Z</time>
      </trkpt>
      <trkpt lat="45.60615" lon="5.2723">
        <ele>232</ele>
        <time>2021-10-02T15:21:48.474Z</time>
      </trkpt>
      <trkpt lat="45.60607" lon="5.2723">
        <ele>232</ele>
        <time>2021-10-02T15:21:47.474Z</time>
      </trkpt>
      <trkpt lat="45.606" lon="5.2723">
        <ele>231</ele>
        <time>2021-10-02T15:21:46.475Z</time>
      </trkpt>
      <trkpt lat="45.60593" lon="5.2723">
        <ele>231</ele>
        <time>2021-10-02T15:21:45.475Z</time>
      </trkpt>
      <trkpt lat="45.60586" lon="5.2723">
        <ele>231</ele>
        <time>2021-10-02T15:21:44.474Z</time>
      </trkpt>
      <trkpt lat="45.60579" lon="5.27229">
        <ele>231</ele>
        <time>2021-10-02T15:21:43.475Z</time>
      </trkpt>
      <trkpt lat="45.60571" lon="5.27228">
        <ele>231</ele>
        <time>2021-10-02T15:21:42.474Z</time>
      </trkpt>
      <trkpt lat="45.60564" lon="5.27227">
        <ele>232</ele>
        <time>2021-10-02T15:21:41.475Z</time>
      </trkpt>
      <trkpt lat="45.60557" lon="5.27226">
        <ele>232</ele>
        <time>2021-10-02T15:21:40.475Z</time>
      </trkpt>
      <trkpt lat="45.60549" lon="5.27225">
        <ele>232</ele>
        <time>2021-10-02T15:21:39.475Z</time>
      </trkpt>
      <trkpt lat="45.60542" lon="5.27225">
        <ele>231</ele>
        <time>2021-10-02T15:21:38.474Z</time>
      </trkpt>
      <trkpt lat="45.60534" lon="5.27225">
        <ele>231</ele>
        <time>2021-10-02T15:21:37.475Z</time>
      </trkpt>
      <trkpt lat="45.60526" lon="5.27225">
        <ele>231</ele>
        <time>2021-10-02T15:21:36.474Z</time>
      </trkpt>
      <trkpt lat="45.60519" lon="5.27225">
        <ele>231</ele>
        <time>2021-10-02T15:21:35.474Z</time>
      </trkpt>
      <trkpt lat="45.60511" lon="5.27225">
        <ele>231</ele>
        <time>2021-10-02T15:21:34.475Z</time>
      </trkpt>
      <trkpt lat="45.60503" lon="5.27225">
        <ele>230</ele>
        <time>2021-10-02T15:21:33.474Z</time>
      </trkpt>
      <trkpt lat="45.60496" lon="5.27225">
        <ele>230</ele>
        <time>2021-10-02T15:21:32.475Z</time>
      </trkpt>
      <trkpt lat="45.60488" lon="5.27225">
        <ele>230</ele>
        <time>2021-10-02T15:21:31.475Z</time>
      </trkpt>
      <trkpt lat="45.6048" lon="5.27225">
        <ele>230</ele>
        <time>2021-10-02T15:21:30.475Z</time>
      </trkpt>
      <trkpt lat="45.60473" lon="5.27225">
        <ele>230</ele>
        <time>2021-10-02T15:21:29.475Z</time>
      </trkpt>
      <trkpt lat="45.60465" lon="5.27225">
        <ele>230</ele>
        <time>2021-10-02T15:21:28.475Z</time>
      </trkpt>
      <trkpt lat="45.60457" lon="5.27226">
        <ele>230</ele>
        <time>2021-10-02T15:21:27.474Z</time>
      </trkpt>
      <trkpt lat="45.6045" lon="5.27226">
        <ele>230</ele>
        <time>2021-10-02T15:21:26.475Z</time>
      </trkpt>
      <trkpt lat="45.60442" lon="5.27226">
        <ele>230</ele>
        <time>2021-10-02T15:21:25.475Z</time>
      </trkpt>
      <trkpt lat="45.60434" lon="5.27226">
        <ele>230</ele>
        <time>2021-10-02T15:21:24.474Z</time>
      </trkpt>
      <trkpt lat="45.60427" lon="5.27227">
        <ele>229</ele>
        <time>2021-10-02T15:21:23.475Z</time>
      </trkpt>
      <trkpt lat="45.60419" lon="5.27227">
        <ele>229</ele>
        <time>2021-10-02T15:21:22.474Z</time>
      </trkpt>
      <trkpt lat="45.60411" lon="5.27228">
        <ele>229</ele>
        <time>2021-10-02T15:21:21.474Z</time>
      </trkpt>
      <trkpt lat="45.60403" lon="5.27229">
        <ele>229</ele>
        <time>2021-10-02T15:21:20.474Z</time>
      </trkpt>
      <trkpt lat="45.60395" lon="5.2723">
        <ele>229</ele>
        <time>2021-10-02T15:21:19.474Z</time>
      </trkpt>
      <trkpt lat="45.60387" lon="5.27232">
        <ele>229</ele>
        <time>2021-10-02T15:21:18.474Z</time>
      </trkpt>
      <trkpt lat="45.60379" lon="5.27234">
        <ele>230</ele>
        <time>2021-10-02T15:21:17.474Z</time>
      </trkpt>
      <trkpt lat="45.60371" lon="5.27237">
        <ele>230</ele>
        <time>2021-10-02T15:21:16.475Z</time>
      </trkpt>
      <trkpt lat="45.60363" lon="5.2724">
        <ele>230</ele>
        <time>2021-10-02T15:21:15.474Z</time>
      </trkpt>
      <trkpt lat="45.60355" lon="5.27243">
        <ele>230</ele>
        <time>2021-10-02T15:21:14.474Z</time>
      </trkpt>
      <trkpt lat="45.60347" lon="5.27246">
        <ele>230</ele>
        <time>2021-10-02T15:21:13.475Z</time>
      </trkpt>
      <trkpt lat="45.6034" lon="5.2725">
        <ele>231</ele>
        <time>2021-10-02T15:21:12.475Z</time>
      </trkpt>
      <trkpt lat="45.60332" lon="5.27253">
        <ele>231</ele>
        <time>2021-10-02T15:21:11.475Z</time>
      </trkpt>
      <trkpt lat="45.60325" lon="5.27257">
        <ele>231</ele>
        <time>2021-10-02T15:21:10.475Z</time>
      </trkpt>
      <trkpt lat="45.60317" lon="5.2726">
        <ele>231</ele>
        <time>2021-10-02T15:21:09.474Z</time>
      </trkpt>
      <trkpt lat="45.60308" lon="5.27263">
        <ele>231</ele>
        <time>2021-10-02T15:21:08.475Z</time>
      </trkpt>
      <trkpt lat="45.603" lon="5.27267">
        <ele>232</ele>
        <time>2021-10-02T15:21:07.474Z</time>
      </trkpt>
      <trkpt lat="45.60292" lon="5.2727">
        <ele>232</ele>
        <time>2021-10-02T15:21:06.475Z</time>
      </trkpt>
      <trkpt lat="45.60285" lon="5.27274">
        <ele>232</ele>
        <time>2021-10-02T15:21:05.474Z</time>
      </trkpt>
      <trkpt lat="45.60277" lon="5.27278">
        <ele>233</ele>
        <time>2021-10-02T15:21:04.475Z</time>
      </trkpt>
      <trkpt lat="45.6027" lon="5.27281">
        <ele>233</ele>
        <time>2021-10-02T15:21:03.475Z</time>
      </trkpt>
      <trkpt lat="45.60263" lon="5.27285">
        <ele>233</ele>
        <time>2021-10-02T15:21:02.475Z</time>
      </trkpt>
      <trkpt lat="45.60255" lon="5.27288">
        <ele>233</ele>
        <time>2021-10-02T15:21:01.475Z</time>
      </trkpt>
      <trkpt lat="45.60247" lon="5.27291">
        <ele>232</ele>
        <time>2021-10-02T15:21:00.474Z</time>
      </trkpt>
      <trkpt lat="45.60238" lon="5.27292">
        <ele>232</ele>
        <time>2021-10-02T15:20:59.475Z</time>
      </trkpt>
      <trkpt lat="45.60231" lon="5.27294">
        <ele>232</ele>
        <time>2021-10-02T15:20:58.474Z</time>
      </trkpt>
      <trkpt lat="45.60223" lon="5.27294">
        <ele>232</ele>
        <time>2021-10-02T15:20:57.474Z</time>
      </trkpt>
      <trkpt lat="45.60216" lon="5.27295">
        <ele>232</ele>
        <time>2021-10-02T15:20:56.475Z</time>
      </trkpt>
      <trkpt lat="45.60208" lon="5.27295">
        <ele>232</ele>
        <time>2021-10-02T15:20:55.475Z</time>
      </trkpt>
      <trkpt lat="45.60201" lon="5.27296">
        <ele>232</ele>
        <time>2021-10-02T15:20:54.475Z</time>
      </trkpt>
      <trkpt lat="45.60194" lon="5.27297">
        <ele>232</ele>
        <time>2021-10-02T15:20:53.475Z</time>
      </trkpt>
      <trkpt lat="45.60187" lon="5.27298">
        <ele>232</ele>
        <time>2021-10-02T15:20:52.475Z</time>
      </trkpt>
      <trkpt lat="45.6018" lon="5.27299">
        <ele>232</ele>
        <time>2021-10-02T15:20:51.475Z</time>
      </trkpt>
      <trkpt lat="45.60173" lon="5.273">
        <ele>231</ele>
        <time>2021-10-02T15:20:50.475Z</time>
      </trkpt>
      <trkpt lat="45.60166" lon="5.27301">
        <ele>231</ele>
        <time>2021-10-02T15:20:49.475Z</time>
      </trkpt>
      <trkpt lat="45.60157" lon="5.27301">
        <ele>230</ele>
        <time>2021-10-02T15:20:48.475Z</time>
      </trkpt>
      <trkpt lat="45.60148" lon="5.27303">
        <ele>230</ele>
        <time>2021-10-02T15:20:47.474Z</time>
      </trkpt>
      <trkpt lat="45.6014" lon="5.27304">
        <ele>230</ele>
        <time>2021-10-02T15:20:46.475Z</time>
      </trkpt>
      <trkpt lat="45.60134" lon="5.27305">
        <ele>230</ele>
        <time>2021-10-02T15:20:45.474Z</time>
      </trkpt>
      <trkpt lat="45.60126" lon="5.27306">
        <ele>230</ele>
        <time>2021-10-02T15:20:44.475Z</time>
      </trkpt>
      <trkpt lat="45.60118" lon="5.27306">
        <ele>230</ele>
        <time>2021-10-02T15:20:43.475Z</time>
      </trkpt>
      <trkpt lat="45.6011" lon="5.27306">
        <ele>230</ele>
        <time>2021-10-02T15:20:42.475Z</time>
      </trkpt>
      <trkpt lat="45.60103" lon="5.27306">
        <ele>230</ele>
        <time>2021-10-02T15:20:41.475Z</time>
      </trkpt>
      <trkpt lat="45.60096" lon="5.27305">
        <ele>230</ele>
        <time>2021-10-02T15:20:40.475Z</time>
      </trkpt>
      <trkpt lat="45.60089" lon="5.27305">
        <ele>230</ele>
        <time>2021-10-02T15:20:39.475Z</time>
      </trkpt>
      <trkpt lat="45.60082" lon="5.27305">
        <ele>230</ele>
        <time>2021-10-02T15:20:38.474Z</time>
      </trkpt>
      <trkpt lat="45.60076" lon="5.27306">
        <ele>230</ele>
        <time>2021-10-02T15:20:37.474Z</time>
      </trkpt>
      <trkpt lat="45.6007" lon="5.27306">
        <ele>230</ele>
        <time>2021-10-02T15:20:36.474Z</time>
      </trkpt>
      <trkpt lat="45.60063" lon="5.27306">
        <ele>231</ele>
        <time>2021-10-02T15:20:35.475Z</time>
      </trkpt>
      <trkpt lat="45.60057" lon="5.27307">
        <ele>231</ele>
        <time>2021-10-02T15:20:34.475Z</time>
      </trkpt>
      <trkpt lat="45.6005" lon="5.27306">
        <ele>231</ele>
        <time>2021-10-02T15:20:33.475Z</time>
      </trkpt>
      <trkpt lat="45.60044" lon="5.27305">
        <ele>231</ele>
        <time>2021-10-02T15:20:32.475Z</time>
      </trkpt>
      <trkpt lat="45.60037" lon="5.27303">
        <ele>231</ele>
        <time>2021-10-02T15:20:31.475Z</time>
      </trkpt>
      <trkpt lat="45.60031" lon="5.27302">
        <ele>230</ele>
        <time>2021-10-02T15:20:30.475Z</time>
      </trkpt>
      <trkpt lat="45.60024" lon="5.27302">
        <ele>230</ele>
        <time>2021-10-02T15:20:29.475Z</time>
      </trkpt>
      <trkpt lat="45.60018" lon="5.27304">
        <ele>231</ele>
        <time>2021-10-02T15:20:28.475Z</time>
      </trkpt>
      <trkpt lat="45.6001" lon="5.27308">
        <ele>230</ele>
        <time>2021-10-02T15:20:27.474Z</time>
      </trkpt>
      <trkpt lat="45.60003" lon="5.27312">
        <ele>231</ele>
        <time>2021-10-02T15:20:26.474Z</time>
      </trkpt>
      <trkpt lat="45.59996" lon="5.27316">
        <ele>231</ele>
        <time>2021-10-02T15:20:25.474Z</time>
      </trkpt>
      <trkpt lat="45.59988" lon="5.27321">
        <ele>232</ele>
        <time>2021-10-02T15:20:24.475Z</time>
      </trkpt>
      <trkpt lat="45.59981" lon="5.27326">
        <ele>232</ele>
        <time>2021-10-02T15:20:23.474Z</time>
      </trkpt>
      <trkpt lat="45.59974" lon="5.27332">
        <ele>233</ele>
        <time>2021-10-02T15:20:22.475Z</time>
      </trkpt>
      <trkpt lat="45.59966" lon="5.27338">
        <ele>234</ele>
        <time>2021-10-02T15:20:21.475Z</time>
      </trkpt>
      <trkpt lat="45.59959" lon="5.27344">
        <ele>234</ele>
        <time>2021-10-02T15:20:20.475Z</time>
      </trkpt>
      <trkpt lat="45.59952" lon="5.27351">
        <ele>234</ele>
        <time>2021-10-02T15:20:19.474Z</time>
      </trkpt>
      <trkpt lat="45.59945" lon="5.27357">
        <ele>234</ele>
        <time>2021-10-02T15:20:18.475Z</time>
      </trkpt>
      <trkpt lat="45.5994" lon="5.27363">
        <ele>234</ele>
        <time>2021-10-02T15:20:17.475Z</time>
      </trkpt>
      <trkpt lat="45.59935" lon="5.2737">
        <ele>234</ele>
        <time>2021-10-02T15:20:16.475Z</time>
      </trkpt>
      <trkpt lat="45.59931" lon="5.27378">
        <ele>234</ele>
        <time>2021-10-02T15:20:15.474Z</time>
      </trkpt>
      <trkpt lat="45.59928" lon="5.27387">
        <ele>233</ele>
        <time>2021-10-02T15:20:14.475Z</time>
      </trkpt>
      <trkpt lat="45.59927" lon="5.27396">
        <ele>233</ele>
        <time>2021-10-02T15:20:13.475Z</time>
      </trkpt>
      <trkpt lat="45.59927" lon="5.27403">
        <ele>233</ele>
        <time>2021-10-02T15:20:12.475Z</time>
      </trkpt>
      <trkpt lat="45.59926" lon="5.2741">
        <ele>234</ele>
        <time>2021-10-02T15:20:11.475Z</time>
      </trkpt>
      <trkpt lat="45.59925" lon="5.27415">
        <ele>234</ele>
        <time>2021-10-02T15:20:10.475Z</time>
      </trkpt>
      <trkpt lat="45.59922" lon="5.2742">
        <ele>234</ele>
        <time>2021-10-02T15:20:09.475Z</time>
      </trkpt>
      <trkpt lat="45.59918" lon="5.27422">
        <ele>234</ele>
        <time>2021-10-02T15:20:08.475Z</time>
      </trkpt>
      <trkpt lat="45.59913" lon="5.27421">
        <ele>235</ele>
        <time>2021-10-02T15:20:07.475Z</time>
      </trkpt>
      <trkpt lat="45.5991" lon="5.27417">
        <ele>235</ele>
        <time>2021-10-02T15:20:06.475Z</time>
      </trkpt>
      <trkpt lat="45.59905" lon="5.27412">
        <ele>235</ele>
        <time>2021-10-02T15:20:05.475Z</time>
      </trkpt>
      <trkpt lat="45.599" lon="5.27409">
        <ele>235</ele>
        <time>2021-10-02T15:20:04.475Z</time>
      </trkpt>
      <trkpt lat="45.59895" lon="5.27404">
        <ele>235</ele>
        <time>2021-10-02T15:20:03.475Z</time>
      </trkpt>
      <trkpt lat="45.5989" lon="5.274">
        <ele>235</ele>
        <time>2021-10-02T15:20:02.475Z</time>
      </trkpt>
      <trkpt lat="45.59884" lon="5.27398">
        <ele>235</ele>
        <time>2021-10-02T15:20:01.475Z</time>
      </trkpt>
      <trkpt lat="45.59879" lon="5.27395">
        <ele>235</ele>
        <time>2021-10-02T15:20:00.475Z</time>
      </trkpt>
      <trkpt lat="45.59874" lon="5.27392">
        <ele>235</ele>
        <time>2021-10-02T15:19:59.475Z</time>
      </trkpt>
      <trkpt lat="45.59868" lon="5.27388">
        <ele>235</ele>
        <time>2021-10-02T15:19:58.474Z</time>
      </trkpt>
      <trkpt lat="45.59862" lon="5.27384">
        <ele>235</ele>
        <time>2021-10-02T15:19:57.475Z</time>
      </trkpt>
      <trkpt lat="45.59857" lon="5.27382">
        <ele>235</ele>
        <time>2021-10-02T15:19:56.474Z</time>
      </trkpt>
      <trkpt lat="45.59851" lon="5.27381">
        <ele>235</ele>
        <time>2021-10-02T15:19:55.474Z</time>
      </trkpt>
      <trkpt lat="45.59846" lon="5.27382">
        <ele>235</ele>
        <time>2021-10-02T15:19:54.475Z</time>
      </trkpt>
      <trkpt lat="45.59842" lon="5.27385">
        <ele>235</ele>
        <time>2021-10-02T15:19:53.474Z</time>
      </trkpt>
      <trkpt lat="45.59838" lon="5.2739">
        <ele>235</ele>
        <time>2021-10-02T15:19:52.475Z</time>
      </trkpt>
      <trkpt lat="45.59835" lon="5.27396">
        <ele>236</ele>
        <time>2021-10-02T15:19:51.474Z</time>
      </trkpt>
      <trkpt lat="45.59833" lon="5.27402">
        <ele>236</ele>
        <time>2021-10-02T15:19:50.474Z</time>
      </trkpt>
      <trkpt lat="45.59831" lon="5.27408">
        <ele>236</ele>
        <time>2021-10-02T15:19:49.475Z</time>
      </trkpt>
      <trkpt lat="45.59829" lon="5.27414">
        <ele>237</ele>
        <time>2021-10-02T15:19:48.475Z</time>
      </trkpt>
      <trkpt lat="45.59826" lon="5.2742">
        <ele>237</ele>
        <time>2021-10-02T15:19:47.475Z</time>
      </trkpt>
      <trkpt lat="45.59823" lon="5.27427">
        <ele>236</ele>
        <time>2021-10-02T15:19:46.474Z</time>
      </trkpt>
      <trkpt lat="45.59819" lon="5.27434">
        <ele>236</ele>
        <time>2021-10-02T15:19:45.475Z</time>
      </trkpt>
      <trkpt lat="45.59816" lon="5.27441">
        <ele>236</ele>
        <time>2021-10-02T15:19:44.475Z</time>
      </trkpt>
      <trkpt lat="45.59813" lon="5.27448">
        <ele>236</ele>
        <time>2021-10-02T15:19:43.475Z</time>
      </trkpt>
      <trkpt lat="45.59809" lon="5.27456">
        <ele>235</ele>
        <time>2021-10-02T15:19:42.475Z</time>
      </trkpt>
      <trkpt lat="45.59806" lon="5.27464">
        <ele>235</ele>
        <time>2021-10-02T15:19:41.475Z</time>
      </trkpt>
      <trkpt lat="45.59803" lon="5.27471">
        <ele>234</ele>
        <time>2021-10-02T15:19:40.475Z</time>
      </trkpt>
      <trkpt lat="45.598" lon="5.27479">
        <ele>234</ele>
        <time>2021-10-02T15:19:39.474Z</time>
      </trkpt>
      <trkpt lat="45.59796" lon="5.27488">
        <ele>234</ele>
        <time>2021-10-02T15:19:38.475Z</time>
      </trkpt>
      <trkpt lat="45.59793" lon="5.27497">
        <ele>233</ele>
        <time>2021-10-02T15:19:37.475Z</time>
      </trkpt>
      <trkpt lat="45.5979" lon="5.27505">
        <ele>233</ele>
        <time>2021-10-02T15:19:36.474Z</time>
      </trkpt>
      <trkpt lat="45.59787" lon="5.27514">
        <ele>234</ele>
        <time>2021-10-02T15:19:35.475Z</time>
      </trkpt>
      <trkpt lat="45.59784" lon="5.27523">
        <ele>234</ele>
        <time>2021-10-02T15:19:34.475Z</time>
      </trkpt>
      <trkpt lat="45.59781" lon="5.27533">
        <ele>234</ele>
        <time>2021-10-02T15:19:33.475Z</time>
      </trkpt>
      <trkpt lat="45.59778" lon="5.27542">
        <ele>234</ele>
        <time>2021-10-02T15:19:32.475Z</time>
      </trkpt>
      <trkpt lat="45.59774" lon="5.27551">
        <ele>234</ele>
        <time>2021-10-02T15:19:31.475Z</time>
      </trkpt>
      <trkpt lat="45.59771" lon="5.27561">
        <ele>234</ele>
        <time>2021-10-02T15:19:30.475Z</time>
      </trkpt>
      <trkpt lat="45.59768" lon="5.27571">
        <ele>234</ele>
        <time>2021-10-02T15:19:29.475Z</time>
      </trkpt>
      <trkpt lat="45.59764" lon="5.27581">
        <ele>234</ele>
        <time>2021-10-02T15:19:28.475Z</time>
      </trkpt>
      <trkpt lat="45.59761" lon="5.2759">
        <ele>234</ele>
        <time>2021-10-02T15:19:27.474Z</time>
      </trkpt>
      <trkpt lat="45.59757" lon="5.276">
        <ele>234</ele>
        <time>2021-10-02T15:19:26.475Z</time>
      </trkpt>
      <trkpt lat="45.59753" lon="5.27609">
        <ele>234</ele>
        <time>2021-10-02T15:19:25.475Z</time>
      </trkpt>
      <trkpt lat="45.59748" lon="5.27618">
        <ele>234</ele>
        <time>2021-10-02T15:19:24.475Z</time>
      </trkpt>
      <trkpt lat="45.59743" lon="5.27625">
        <ele>235</ele>
        <time>2021-10-02T15:19:23.475Z</time>
      </trkpt>
      <trkpt lat="45.59738" lon="5.27631">
        <ele>235</ele>
        <time>2021-10-02T15:19:22.474Z</time>
      </trkpt>
      <trkpt lat="45.59734" lon="5.27636">
        <ele>235</ele>
        <time>2021-10-02T15:19:21.474Z</time>
      </trkpt>
      <trkpt lat="45.59729" lon="5.2764">
        <ele>235</ele>
        <time>2021-10-02T15:19:20.475Z</time>
      </trkpt>
      <trkpt lat="45.59723" lon="5.27645">
        <ele>235</ele>
        <time>2021-10-02T15:19:19.475Z</time>
      </trkpt>
      <trkpt lat="45.59718" lon="5.27649">
        <ele>235</ele>
        <time>2021-10-02T15:19:18.474Z</time>
      </trkpt>
      <trkpt lat="45.59711" lon="5.27653">
        <ele>235</ele>
        <time>2021-10-02T15:19:17.475Z</time>
      </trkpt>
      <trkpt lat="45.59705" lon="5.27656">
        <ele>235</ele>
        <time>2021-10-02T15:19:16.474Z</time>
      </trkpt>
      <trkpt lat="45.59699" lon="5.2766">
        <ele>236</ele>
        <time>2021-10-02T15:19:15.475Z</time>
      </trkpt>
      <trkpt lat="45.59692" lon="5.27663">
        <ele>236</ele>
        <time>2021-10-02T15:19:14.474Z</time>
      </trkpt>
      <trkpt lat="45.59686" lon="5.27667">
        <ele>236</ele>
        <time>2021-10-02T15:19:13.475Z</time>
      </trkpt>
      <trkpt lat="45.59679" lon="5.2767">
        <ele>236</ele>
        <time>2021-10-02T15:19:12.475Z</time>
      </trkpt>
      <trkpt lat="45.59672" lon="5.27674">
        <ele>236</ele>
        <time>2021-10-02T15:19:11.475Z</time>
      </trkpt>
      <trkpt lat="45.59665" lon="5.27678">
        <ele>236</ele>
        <time>2021-10-02T15:19:10.474Z</time>
      </trkpt>
      <trkpt lat="45.59658" lon="5.27682">
        <ele>236</ele>
        <time>2021-10-02T15:19:09.474Z</time>
      </trkpt>
      <trkpt lat="45.5965" lon="5.27687">
        <ele>236</ele>
        <time>2021-10-02T15:19:08.475Z</time>
      </trkpt>
      <trkpt lat="45.59643" lon="5.27691">
        <ele>236</ele>
        <time>2021-10-02T15:19:07.474Z</time>
      </trkpt>
      <trkpt lat="45.59635" lon="5.27695">
        <ele>235</ele>
        <time>2021-10-02T15:19:06.475Z</time>
      </trkpt>
      <trkpt lat="45.59626" lon="5.277">
        <ele>235</ele>
        <time>2021-10-02T15:19:05.475Z</time>
      </trkpt>
      <trkpt lat="45.59618" lon="5.27704">
        <ele>235</ele>
        <time>2021-10-02T15:19:04.475Z</time>
      </trkpt>
      <trkpt lat="45.5961" lon="5.27708">
        <ele>235</ele>
        <time>2021-10-02T15:19:03.474Z</time>
      </trkpt>
      <trkpt lat="45.59602" lon="5.27713">
        <ele>235</ele>
        <time>2021-10-02T15:19:02.475Z</time>
      </trkpt>
      <trkpt lat="45.59594" lon="5.27717">
        <ele>235</ele>
        <time>2021-10-02T15:19:01.474Z</time>
      </trkpt>
      <trkpt lat="45.59587" lon="5.27721">
        <ele>235</ele>
        <time>2021-10-02T15:19:00.475Z</time>
      </trkpt>
      <trkpt lat="45.59579" lon="5.27725">
        <ele>235</ele>
        <time>2021-10-02T15:18:59.474Z</time>
      </trkpt>
      <trkpt lat="45.59571" lon="5.27729">
        <ele>235</ele>
        <time>2021-10-02T15:18:58.475Z</time>
      </trkpt>
      <trkpt lat="45.59564" lon="5.27733">
        <ele>235</ele>
        <time>2021-10-02T15:18:57.475Z</time>
      </trkpt>
      <trkpt lat="45.59556" lon="5.27737">
        <ele>234</ele>
        <time>2021-10-02T15:18:56.475Z</time>
      </trkpt>
      <trkpt lat="45.59548" lon="5.27742">
        <ele>234</ele>
        <time>2021-10-02T15:18:55.474Z</time>
      </trkpt>
      <trkpt lat="45.59541" lon="5.27746">
        <ele>234</ele>
        <time>2021-10-02T15:18:54.475Z</time>
      </trkpt>
      <trkpt lat="45.59534" lon="5.2775">
        <ele>234</ele>
        <time>2021-10-02T15:18:53.474Z</time>
      </trkpt>
      <trkpt lat="45.59526" lon="5.27754">
        <ele>235</ele>
        <time>2021-10-02T15:18:52.475Z</time>
      </trkpt>
      <trkpt lat="45.59519" lon="5.27758">
        <ele>235</ele>
        <time>2021-10-02T15:18:51.475Z</time>
      </trkpt>
      <trkpt lat="45.59512" lon="5.27762">
        <ele>235</ele>
        <time>2021-10-02T15:18:50.475Z</time>
      </trkpt>
      <trkpt lat="45.59504" lon="5.27766">
        <ele>235</ele>
        <time>2021-10-02T15:18:49.474Z</time>
      </trkpt>
      <trkpt lat="45.59497" lon="5.2777">
        <ele>235</ele>
        <time>2021-10-02T15:18:48.475Z</time>
      </trkpt>
      <trkpt lat="45.5949" lon="5.27774">
        <ele>235</ele>
        <time>2021-10-02T15:18:47.475Z</time>
      </trkpt>
      <trkpt lat="45.59483" lon="5.27778">
        <ele>235</ele>
        <time>2021-10-02T15:18:46.474Z</time>
      </trkpt>
      <trkpt lat="45.59476" lon="5.27782">
        <ele>236</ele>
        <time>2021-10-02T15:18:45.475Z</time>
      </trkpt>
      <trkpt lat="45.5947" lon="5.27786">
        <ele>236</ele>
        <time>2021-10-02T15:18:44.475Z</time>
      </trkpt>
      <trkpt lat="45.59464" lon="5.27791">
        <ele>236</ele>
        <time>2021-10-02T15:18:43.475Z</time>
      </trkpt>
      <trkpt lat="45.59459" lon="5.27795">
        <ele>236</ele>
        <time>2021-10-02T15:18:42.475Z</time>
      </trkpt>
      <trkpt lat="45.59454" lon="5.27799">
        <ele>236</ele>
        <time>2021-10-02T15:18:41.474Z</time>
      </trkpt>
      <trkpt lat="45.59449" lon="5.27804">
        <ele>236</ele>
        <time>2021-10-02T15:18:40.475Z</time>
      </trkpt>
      <trkpt lat="45.59444" lon="5.27809">
        <ele>236</ele>
        <time>2021-10-02T15:18:39.474Z</time>
      </trkpt>
      <trkpt lat="45.5944" lon="5.27814">
        <ele>236</ele>
        <time>2021-10-02T15:18:38.475Z</time>
      </trkpt>
      <trkpt lat="45.59435" lon="5.2782">
        <ele>236</ele>
        <time>2021-10-02T15:18:37.475Z</time>
      </trkpt>
      <trkpt lat="45.5943" lon="5.27825">
        <ele>236</ele>
        <time>2021-10-02T15:18:36.475Z</time>
      </trkpt>
      <trkpt lat="45.59425" lon="5.27831">
        <ele>236</ele>
        <time>2021-10-02T15:18:35.475Z</time>
      </trkpt>
      <trkpt lat="45.5942" lon="5.27838">
        <ele>236</ele>
        <time>2021-10-02T15:18:34.475Z</time>
      </trkpt>
      <trkpt lat="45.59415" lon="5.27844">
        <ele>236</ele>
        <time>2021-10-02T15:18:33.475Z</time>
      </trkpt>
      <trkpt lat="45.5941" lon="5.27851">
        <ele>236</ele>
        <time>2021-10-02T15:18:32.475Z</time>
      </trkpt>
      <trkpt lat="45.59405" lon="5.27859">
        <ele>236</ele>
        <time>2021-10-02T15:18:31.475Z</time>
      </trkpt>
      <trkpt lat="45.594" lon="5.27867">
        <ele>236</ele>
        <time>2021-10-02T15:18:30.474Z</time>
      </trkpt>
      <trkpt lat="45.59397" lon="5.27873">
        <ele>237</ele>
        <time>2021-10-02T15:18:29.474Z</time>
      </trkpt>
      <trkpt lat="45.59393" lon="5.2788">
        <ele>237</ele>
        <time>2021-10-02T15:18:28.475Z</time>
      </trkpt>
      <trkpt lat="45.59389" lon="5.27887">
        <ele>237</ele>
        <time>2021-10-02T15:18:27.475Z</time>
      </trkpt>
      <trkpt lat="45.59386" lon="5.27894">
        <ele>237</ele>
        <time>2021-10-02T15:18:26.475Z</time>
      </trkpt>
      <trkpt lat="45.59383" lon="5.27901">
        <ele>237</ele>
        <time>2021-10-02T15:18:25.475Z</time>
      </trkpt>
      <trkpt lat="45.5938" lon="5.27908">
        <ele>237</ele>
        <time>2021-10-02T15:18:24.475Z</time>
      </trkpt>
      <trkpt lat="45.59378" lon="5.27914">
        <ele>237</ele>
        <time>2021-10-02T15:18:23.474Z</time>
      </trkpt>
      <trkpt lat="45.59375" lon="5.27921">
        <ele>238</ele>
        <time>2021-10-02T15:18:22.475Z</time>
      </trkpt>
      <trkpt lat="45.59373" lon="5.27927">
        <ele>238</ele>
        <time>2021-10-02T15:18:21.475Z</time>
      </trkpt>
      <trkpt lat="45.59371" lon="5.27934">
        <ele>238</ele>
        <time>2021-10-02T15:18:20.475Z</time>
      </trkpt>
      <trkpt lat="45.59369" lon="5.27941">
        <ele>239</ele>
        <time>2021-10-02T15:18:19.474Z</time>
      </trkpt>
      <trkpt lat="45.59368" lon="5.27948">
        <ele>239</ele>
        <time>2021-10-02T15:18:18.475Z</time>
      </trkpt>
      <trkpt lat="45.59366" lon="5.27956">
        <ele>239</ele>
        <time>2021-10-02T15:18:17.474Z</time>
      </trkpt>
      <trkpt lat="45.59365" lon="5.27964">
        <ele>239</ele>
        <time>2021-10-02T15:18:16.475Z</time>
      </trkpt>
      <trkpt lat="45.59365" lon="5.27971">
        <ele>239</ele>
        <time>2021-10-02T15:18:15.474Z</time>
      </trkpt>
      <trkpt lat="45.59364" lon="5.27979">
        <ele>239</ele>
        <time>2021-10-02T15:18:14.475Z</time>
      </trkpt>
      <trkpt lat="45.59363" lon="5.27986">
        <ele>240</ele>
        <time>2021-10-02T15:18:13.474Z</time>
      </trkpt>
      <trkpt lat="45.59363" lon="5.27992">
        <ele>240</ele>
        <time>2021-10-02T15:18:12.475Z</time>
        <extensions>
          <visugpx:TrkExtension xmlns:visugpx="https://www.visugpx.com/editgpx/">
            <visugpx:node>1</visugpx:node>
            </visugpx:TrkExtension>
        </extensions>
      </trkpt>
      <trkpt lat="45.59357" lon="5.28011">
        <ele>237.9</ele>
      </trkpt>
      <trkpt lat="45.59356" lon="5.28016">
        <ele>237.9</ele>
      </trkpt>
      <trkpt lat="45.59298" lon="5.27988">
        <ele>237.3</ele>
      </trkpt>
      <trkpt lat="45.59292" lon="5.27985">
        <ele>237.5</ele>
      </trkpt>
      <trkpt lat="45.59283" lon="5.27983">
        <ele>237.8</ele>
      </trkpt>
      <trkpt lat="45.59189" lon="5.27979">
        <ele>238.2</ele>
      </trkpt>
      <trkpt lat="45.59176" lon="5.27978">
        <ele>238.2</ele>
      </trkpt>
      <trkpt lat="45.5917" lon="5.27978">
        <ele>238.2</ele>
      </trkpt>
      <trkpt lat="45.59136" lon="5.27977">
        <ele>239</ele>
      </trkpt>
      <trkpt lat="45.59066" lon="5.27955">
        <ele>239.1</ele>
      </trkpt>
      <trkpt lat="45.59063" lon="5.27954">
        <ele>239.1</ele>
      </trkpt>
      <trkpt lat="45.59063" lon="5.27952">
        <ele>239.1</ele>
      </trkpt>
      <trkpt lat="45.5906" lon="5.27944">
        <ele>239</ele>
      </trkpt>
      <trkpt lat="45.59059" lon="5.27942">
        <ele>239</ele>
      </trkpt>
      <trkpt lat="45.59056" lon="5.27941">
        <ele>239</ele>
      </trkpt>
      <trkpt lat="45.59053" lon="5.27941">
        <ele>239</ele>
      </trkpt>
      <trkpt lat="45.59051" lon="5.27943">
        <ele>239</ele>
      </trkpt>
      <trkpt lat="45.59049" lon="5.27945">
        <ele>239</ele>
      </trkpt>
      <trkpt lat="45.59047" lon="5.27949">
        <ele>239.1</ele>
      </trkpt>
      <trkpt lat="45.59047" lon="5.27953">
        <ele>239.1</ele>
      </trkpt>
      <trkpt lat="45.59047" lon="5.27956">
        <ele>239.1</ele>
      </trkpt>
      <trkpt lat="45.59049" lon="5.2796">
        <ele>239.1</ele>
      </trkpt>
      <trkpt lat="45.59045" lon="5.27967">
        <ele>239.3</ele>
        <extensions>
          <visugpx:TrkExtension xmlns:visugpx="https://www.visugpx.com/editgpx/">
            <visugpx:node>2</visugpx:node>
            </visugpx:TrkExtension>
        </extensions>
      </trkpt>
      <trkpt lat="45.59044" lon="5.27967">
        <ele>239.3</ele>
      </trkpt>
      <trkpt lat="45.59038" lon="5.27978">
        <ele>239.7</ele>
      </trkpt>
      <trkpt lat="45.59021" lon="5.28061">
        <ele>240.2</ele>
      </trkpt>
      <trkpt lat="45.59019" lon="5.28069">
        <ele>240.5</ele>
      </trkpt>
      <trkpt lat="45.58999" lon="5.28164">
        <ele>241</ele>
      </trkpt>
      <trkpt lat="45.58994" lon="5.28159">
        <ele>241</ele>
      </trkpt>
      <trkpt lat="45.58938" lon="5.28156">
        <ele>241.1</ele>
      </trkpt>
      <trkpt lat="45.58929" lon="5.28153">
        <ele>241.3</ele>
      </trkpt>
      <trkpt lat="45.58927" lon="5.28147">
        <ele>241.2</ele>
      </trkpt>
      <trkpt lat="45.58923" lon="5.28144">
        <ele>241.1</ele>
      </trkpt>
      <trkpt lat="45.58918" lon="5.28143">
        <ele>241.1</ele>
      </trkpt>
      <trkpt lat="45.58916" lon="5.28144">
        <ele>241.2</ele>
      </trkpt>
      <trkpt lat="45.58914" lon="5.28146">
        <ele>241.3</ele>
      </trkpt>
      <trkpt lat="45.58912" lon="5.28148">
        <ele>241.3</ele>
      </trkpt>
      <trkpt lat="45.58901" lon="5.28147">
        <ele>241.3</ele>
      </trkpt>
      <trkpt lat="45.58871" lon="5.28143">
        <ele>241.7</ele>
      </trkpt>
      <trkpt lat="45.58815" lon="5.28136">
        <ele>242</ele>
      </trkpt>
      <trkpt lat="45.58811" lon="5.28135">
        <ele>242</ele>
      </trkpt>
      <trkpt lat="45.58786" lon="5.28132">
        <ele>242</ele>
      </trkpt>
      <trkpt lat="45.58765" lon="5.28129">
        <ele>242</ele>
      </trkpt>
      <trkpt lat="45.58755" lon="5.28128">
        <ele>242</ele>
      </trkpt>
      <trkpt lat="45.58744" lon="5.28126">
        <ele>242.1</ele>
      </trkpt>
      <trkpt lat="45.58653" lon="5.28115">
        <ele>243</ele>
      </trkpt>
      <trkpt lat="45.5864" lon="5.28114">
        <ele>243</ele>
      </trkpt>
      <trkpt lat="45.58633" lon="5.28114">
        <ele>243</ele>
      </trkpt>
      <trkpt lat="45.58577" lon="5.28109">
        <ele>243.9</ele>
      </trkpt>
      <trkpt lat="45.58567" lon="5.28108">
        <ele>244</ele>
      </trkpt>
      <trkpt lat="45.58509" lon="5.28103">
        <ele>246</ele>
      </trkpt>
      <trkpt lat="45.58502" lon="5.28103">
        <ele>246</ele>
      </trkpt>
      <trkpt lat="45.58501" lon="5.28112">
        <ele>246</ele>
      </trkpt>
      <trkpt lat="45.585" lon="5.28127">
        <ele>246.6</ele>
      </trkpt>
      <trkpt lat="45.58495" lon="5.28184">
        <ele>246.9</ele>
      </trkpt>
      <trkpt lat="45.58494" lon="5.28192">
        <ele>247</ele>
      </trkpt>
      <trkpt lat="45.58491" lon="5.28232">
        <ele>246.8</ele>
      </trkpt>
      <trkpt lat="45.58484" lon="5.28321">
        <ele>247</ele>
      </trkpt>
      <trkpt lat="45.58484" lon="5.28328">
        <ele>247</ele>
      </trkpt>
      <trkpt lat="45.58481" lon="5.28356">
        <ele>247.3</ele>
      </trkpt>
      <trkpt lat="45.58472" lon="5.28485">
        <ele>250</ele>
      </trkpt>
      <trkpt lat="45.58471" lon="5.28492">
        <ele>250.1</ele>
      </trkpt>
      <trkpt lat="45.58469" lon="5.28517">
        <ele>250.8</ele>
      </trkpt>
      <trkpt lat="45.58463" lon="5.28529">
        <ele>251.3</ele>
      </trkpt>
      <trkpt lat="45.58452" lon="5.28542">
        <ele>251.4</ele>
      </trkpt>
      <trkpt lat="45.58447" lon="5.28544">
        <ele>251.4</ele>
      </trkpt>
      <trkpt lat="45.58437" lon="5.28549">
        <ele>252.6</ele>
      </trkpt>
      <trkpt lat="45.58438" lon="5.28578">
        <ele>252</ele>
      </trkpt>
      <trkpt lat="45.58439" lon="5.28615">
        <ele>251.6</ele>
      </trkpt>
      <trkpt lat="45.58436" lon="5.28692">
        <ele>251</ele>
      </trkpt>
      <trkpt lat="45.58433" lon="5.28714">
        <ele>251</ele>
      </trkpt>
      <trkpt lat="45.5843" lon="5.28745">
        <ele>250.2</ele>
      </trkpt>
      <trkpt lat="45.58427" lon="5.28761">
        <ele>249.9</ele>
      </trkpt>
      <trkpt lat="45.5842" lon="5.28806">
        <ele>249.8</ele>
      </trkpt>
      <trkpt lat="45.58417" lon="5.28805">
        <ele>250</ele>
      </trkpt>
      <trkpt lat="45.58414" lon="5.28805">
        <ele>250.1</ele>
      </trkpt>
      <trkpt lat="45.58373" lon="5.28796">
        <ele>255</ele>
      </trkpt>
      <trkpt lat="45.58359" lon="5.28792">
        <ele>257.6</ele>
      </trkpt>
      <trkpt lat="45.58351" lon="5.2879">
        <ele>258</ele>
      </trkpt>
      <trkpt lat="45.58342" lon="5.28905">
        <ele>257.5</ele>
      </trkpt>
      <trkpt lat="45.58326" lon="5.2904">
        <ele>260.7</ele>
      </trkpt>
      <trkpt lat="45.58322" lon="5.29066">
        <ele>261.8</ele>
      </trkpt>
      <trkpt lat="45.58307" lon="5.29189">
        <ele>261.2</ele>
      </trkpt>
      <trkpt lat="45.58293" lon="5.2923">
        <ele>262.3</ele>
      </trkpt>
      <trkpt lat="45.58292" lon="5.2923">
        <ele>262.4</ele>
      </trkpt>
      <trkpt lat="45.58286" lon="5.29234">
        <ele>263.5</ele>
      </trkpt>
      <trkpt lat="45.58276" lon="5.29263">
        <ele>265.8</ele>
      </trkpt>
      <trkpt lat="45.58265" lon="5.29306">
        <ele>269.8</ele>
      </trkpt>
      <trkpt lat="45.58249" lon="5.29322">
        <ele>274.9</ele>
      </trkpt>
      <trkpt lat="45.58223" lon="5.29361">
        <ele>281.8</ele>
      </trkpt>
      <trkpt lat="45.58171" lon="5.29397">
        <ele>293.5</ele>
      </trkpt>
      <trkpt lat="45.58147" lon="5.29421">
        <ele>301.2</ele>
      </trkpt>
      <trkpt lat="45.58134" lon="5.29449">
        <ele>306.3</ele>
      </trkpt>
      <trkpt lat="45.58123" lon="5.29463">
        <ele>308.6</ele>
      </trkpt>
      <trkpt lat="45.58102" lon="5.29462">
        <ele>312.1</ele>
      </trkpt>
      <trkpt lat="45.5805" lon="5.29464">
        <ele>321.6</ele>
      </trkpt>
      <trkpt lat="45.57993" lon="5.29457">
        <ele>329.4</ele>
      </trkpt>
      <trkpt lat="45.57911" lon="5.29476">
        <ele>340</ele>
      </trkpt>
      <trkpt lat="45.57891" lon="5.29473">
        <ele>343.6</ele>
      </trkpt>
      <trkpt lat="45.57862" lon="5.29458">
        <ele>346.4</ele>
      </trkpt>
      <trkpt lat="45.57829" lon="5.29448">
        <ele>346.1</ele>
      </trkpt>
      <trkpt lat="45.57796" lon="5.29432">
        <ele>345.7</ele>
      </trkpt>
      <trkpt lat="45.57719" lon="5.29397">
        <ele>346.9</ele>
      </trkpt>
      <trkpt lat="45.57702" lon="5.2939">
        <ele>348.4</ele>
      </trkpt>
      <trkpt lat="45.57628" lon="5.29347">
        <ele>355.9</ele>
      </trkpt>
      <trkpt lat="45.57579" lon="5.29293">
        <ele>361</ele>
      </trkpt>
      <trkpt lat="45.57565" lon="5.29276">
        <ele>361.1</ele>
      </trkpt>
      <trkpt lat="45.57555" lon="5.29251">
        <ele>362</ele>
      </trkpt>
      <trkpt lat="45.57544" lon="5.29244">
        <ele>362.2</ele>
      </trkpt>
      <trkpt lat="45.57524" lon="5.29234">
        <ele>362.5</ele>
      </trkpt>
      <trkpt lat="45.57367" lon="5.29302">
        <ele>349.4</ele>
      </trkpt>
      <trkpt lat="45.57357" lon="5.29305">
        <ele>348.9</ele>
      </trkpt>
      <trkpt lat="45.5731" lon="5.29306">
        <ele>346.3</ele>
      </trkpt>
      <trkpt lat="45.57153" lon="5.29303">
        <ele>337.6</ele>
      </trkpt>
      <trkpt lat="45.57088" lon="5.29355">
        <ele>334.9</ele>
      </trkpt>
      <trkpt lat="45.57065" lon="5.29389">
        <ele>332.7</ele>
      </trkpt>
      <trkpt lat="45.56992" lon="5.29571">
        <ele>317.4</ele>
      </trkpt>
      <trkpt lat="45.56979" lon="5.29584">
        <ele>315.5</ele>
      </trkpt>
      <trkpt lat="45.56949" lon="5.29616">
        <ele>312</ele>
      </trkpt>
      <trkpt lat="45.56934" lon="5.29633">
        <ele>311</ele>
      </trkpt>
      <trkpt lat="45.5691" lon="5.29659">
        <ele>309</ele>
      </trkpt>
      <trkpt lat="45.56881" lon="5.29691">
        <ele>309.3</ele>
      </trkpt>
      <trkpt lat="45.56827" lon="5.29752">
        <ele>318.8</ele>
      </trkpt>
      <trkpt lat="45.56812" lon="5.29771">
        <ele>321</ele>
      </trkpt>
      <trkpt lat="45.56764" lon="5.29836">
        <ele>325.9</ele>
      </trkpt>
      <trkpt lat="45.56748" lon="5.29844">
        <ele>327.8</ele>
      </trkpt>
      <trkpt lat="45.56729" lon="5.29846">
        <ele>328</ele>
      </trkpt>
      <trkpt lat="45.56719" lon="5.29845">
        <ele>328.5</ele>
      </trkpt>
      <trkpt lat="45.56654" lon="5.2983">
        <ele>330.3</ele>
      </trkpt>
      <trkpt lat="45.56641" lon="5.29828">
        <ele>331.4</ele>
      </trkpt>
      <trkpt lat="45.56627" lon="5.29829">
        <ele>334.2</ele>
      </trkpt>
      <trkpt lat="45.56561" lon="5.29844">
        <ele>343.5</ele>
      </trkpt>
      <trkpt lat="45.56532" lon="5.2984">
        <ele>345.7</ele>
      </trkpt>
      <trkpt lat="45.56496" lon="5.29831">
        <ele>347.4</ele>
      </trkpt>
      <trkpt lat="45.56485" lon="5.29826">
        <ele>348.2</ele>
      </trkpt>
      <trkpt lat="45.56457" lon="5.29794">
        <ele>350.7</ele>
      </trkpt>
      <trkpt lat="45.56407" lon="5.29695">
        <ele>350.4</ele>
      </trkpt>
      <trkpt lat="45.56238" lon="5.29522">
        <ele>348.3</ele>
      </trkpt>
      <trkpt lat="45.56086" lon="5.29413">
        <ele>345.9</ele>
      </trkpt>
      <trkpt lat="45.55953" lon="5.29372">
        <ele>346.3</ele>
      </trkpt>
      <trkpt lat="45.55953" lon="5.29369">
        <ele>346.2</ele>
      </trkpt>
      <trkpt lat="45.55952" lon="5.29366">
        <ele>346.1</ele>
      </trkpt>
      <trkpt lat="45.55951" lon="5.29364">
        <ele>346.1</ele>
      </trkpt>
      <trkpt lat="45.55949" lon="5.29363">
        <ele>346.1</ele>
      </trkpt>
      <trkpt lat="45.55947" lon="5.29362">
        <ele>346</ele>
      </trkpt>
      <trkpt lat="45.55946" lon="5.29349">
        <ele>346</ele>
      </trkpt>
      <trkpt lat="45.55943" lon="5.2933">
        <ele>346.2</ele>
      </trkpt>
      <trkpt lat="45.55938" lon="5.29301">
        <ele>347.4</ele>
      </trkpt>
      <trkpt lat="45.55917" lon="5.29177">
        <ele>354.3</ele>
      </trkpt>
      <trkpt lat="45.55908" lon="5.29126">
        <ele>356.5</ele>
      </trkpt>
      <trkpt lat="45.55899" lon="5.29104">
        <ele>357</ele>
      </trkpt>
      <trkpt lat="45.55889" lon="5.2908">
        <ele>357.1</ele>
      </trkpt>
      <trkpt lat="45.55885" lon="5.2907">
        <ele>357.3</ele>
      </trkpt>
      <trkpt lat="45.55885" lon="5.29047">
        <ele>358</ele>
      </trkpt>
      <trkpt lat="45.55882" lon="5.29004">
        <ele>359.4</ele>
      </trkpt>
      <trkpt lat="45.55866" lon="5.28861">
        <ele>364.2</ele>
      </trkpt>
      <trkpt lat="45.55856" lon="5.28802">
        <ele>365.7</ele>
      </trkpt>
      <trkpt lat="45.55855" lon="5.28774">
        <ele>366.3</ele>
      </trkpt>
      <trkpt lat="45.55856" lon="5.28753">
        <ele>366.4</ele>
      </trkpt>
      <trkpt lat="45.55857" lon="5.28727">
        <ele>366.6</ele>
      </trkpt>
      <trkpt lat="45.55858" lon="5.28689">
        <ele>366.9</ele>
      </trkpt>
      <trkpt lat="45.55856" lon="5.28623">
        <ele>368.6</ele>
      </trkpt>
      <trkpt lat="45.55855" lon="5.286">
        <ele>369</ele>
      </trkpt>
      <trkpt lat="45.55855" lon="5.28595">
        <ele>369.1</ele>
      </trkpt>
      <trkpt lat="45.55841" lon="5.28564">
        <ele>368.6</ele>
      </trkpt>
      <trkpt lat="45.5583" lon="5.28538">
        <ele>367.5</ele>
      </trkpt>
      <trkpt lat="45.55847" lon="5.28537">
        <ele>369</ele>
      </trkpt>
      <trkpt lat="45.55859" lon="5.28535">
        <ele>369.8</ele>
      </trkpt>
      <trkpt lat="45.55886" lon="5.28525">
        <ele>370</ele>
      </trkpt>
      <trkpt lat="45.55921" lon="5.28511">
        <ele>369.3</ele>
      </trkpt>
      <trkpt lat="45.5592" lon="5.28486">
        <ele>369</ele>
      </trkpt>
      <trkpt lat="45.55921" lon="5.28468">
        <ele>369</ele>
      </trkpt>
      <trkpt lat="45.55918" lon="5.28423">
        <ele>369.8</ele>
      </trkpt>
      <trkpt lat="45.55919" lon="5.2841">
        <ele>370.2</ele>
      </trkpt>
      <trkpt lat="45.55925" lon="5.28407">
        <ele>370.2</ele>
      </trkpt>
      <trkpt lat="45.55939" lon="5.28403">
        <ele>370.1</ele>
      </trkpt>
      <trkpt lat="45.55952" lon="5.284">
        <ele>370</ele>
      </trkpt>
      <trkpt lat="45.55961" lon="5.28398">
        <ele>370</ele>
      </trkpt>
      <trkpt lat="45.55979" lon="5.28392">
        <ele>370</ele>
      </trkpt>
      <trkpt lat="45.55991" lon="5.28383">
        <ele>370</ele>
      </trkpt>
      <trkpt lat="45.56" lon="5.2831">
        <ele>370.8</ele>
        <extensions>
          <visugpx:TrkExtension xmlns:visugpx="https://www.visugpx.com/editgpx/">
            <visugpx:node>3</visugpx:node>
            </visugpx:TrkExtension>
        </extensions>
      </trkpt>
      <trkpt lat="45.55991" lon="5.28383">
        <ele>370</ele>
      </trkpt>
      <trkpt lat="45.55979" lon="5.28392">
        <ele>370</ele>
      </trkpt>
      <trkpt lat="45.55961" lon="5.28398">
        <ele>370</ele>
      </trkpt>
      <trkpt lat="45.55952" lon="5.284">
        <ele>370</ele>
      </trkpt>
      <trkpt lat="45.55939" lon="5.28403">
        <ele>370.1</ele>
      </trkpt>
      <trkpt lat="45.55925" lon="5.28407">
        <ele>370.2</ele>
      </trkpt>
      <trkpt lat="45.55919" lon="5.2841">
        <ele>370.2</ele>
      </trkpt>
      <trkpt lat="45.55918" lon="5.28423">
        <ele>369.8</ele>
      </trkpt>
      <trkpt lat="45.55921" lon="5.28468">
        <ele>369</ele>
      </trkpt>
      <trkpt lat="45.5592" lon="5.28486">
        <ele>369</ele>
      </trkpt>
      <trkpt lat="45.55921" lon="5.28511">
        <ele>369.3</ele>
      </trkpt>
      <trkpt lat="45.55886" lon="5.28525">
        <ele>370</ele>
      </trkpt>
      <trkpt lat="45.55859" lon="5.28535">
        <ele>369.8</ele>
      </trkpt>
      <trkpt lat="45.55847" lon="5.28537">
        <ele>369</ele>
      </trkpt>
      <trkpt lat="45.5583" lon="5.28538">
        <ele>367.5</ele>
      </trkpt>
      <trkpt lat="45.55841" lon="5.28564">
        <ele>368.6</ele>
      </trkpt>
      <trkpt lat="45.55855" lon="5.28595">
        <ele>369.1</ele>
      </trkpt>
      <trkpt lat="45.55855" lon="5.286">
        <ele>369</ele>
      </trkpt>
      <trkpt lat="45.55856" lon="5.28623">
        <ele>368.6</ele>
      </trkpt>
      <trkpt lat="45.55858" lon="5.28689">
        <ele>366.9</ele>
      </trkpt>
      <trkpt lat="45.55857" lon="5.28727">
        <ele>366.6</ele>
      </trkpt>
      <trkpt lat="45.55856" lon="5.28753">
        <ele>366.4</ele>
      </trkpt>
      <trkpt lat="45.55855" lon="5.28774">
        <ele>366.3</ele>
      </trkpt>
      <trkpt lat="45.55856" lon="5.28802">
        <ele>365.7</ele>
      </trkpt>
      <trkpt lat="45.55866" lon="5.28861">
        <ele>364.2</ele>
      </trkpt>
      <trkpt lat="45.55882" lon="5.29004">
        <ele>359.4</ele>
      </trkpt>
      <trkpt lat="45.55885" lon="5.29047">
        <ele>358</ele>
      </trkpt>
      <trkpt lat="45.55885" lon="5.2907">
        <ele>357.3</ele>
      </trkpt>
      <trkpt lat="45.55889" lon="5.2908">
        <ele>357.1</ele>
      </trkpt>
      <trkpt lat="45.55899" lon="5.29104">
        <ele>357</ele>
      </trkpt>
      <trkpt lat="45.55908" lon="5.29126">
        <ele>356.5</ele>
      </trkpt>
      <trkpt lat="45.55917" lon="5.29177">
        <ele>354.3</ele>
      </trkpt>
      <trkpt lat="45.55938" lon="5.29301">
        <ele>347.4</ele>
      </trkpt>
      <trkpt lat="45.55943" lon="5.2933">
        <ele>346.2</ele>
      </trkpt>
      <trkpt lat="45.55946" lon="5.29349">
        <ele>346</ele>
      </trkpt>
      <trkpt lat="45.55947" lon="5.29362">
        <ele>346</ele>
      </trkpt>
      <trkpt lat="45.55945" lon="5.29362">
        <ele>346</ele>
      </trkpt>
      <trkpt lat="45.55942" lon="5.29364">
        <ele>346.1</ele>
      </trkpt>
      <trkpt lat="45.5594" lon="5.29369">
        <ele>346.3</ele>
      </trkpt>
      <trkpt lat="45.5594" lon="5.29372">
        <ele>346.4</ele>
      </trkpt>
      <trkpt lat="45.5594" lon="5.29375">
        <ele>346.5</ele>
      </trkpt>
      <trkpt lat="45.55945" lon="5.2938">
        <ele>346.7</ele>
      </trkpt>
      <trkpt lat="45.55947" lon="5.29381">
        <ele>346.7</ele>
      </trkpt>
      <trkpt lat="45.55952" lon="5.29417">
        <ele>346.7</ele>
      </trkpt>
      <trkpt lat="45.55959" lon="5.29501">
        <ele>350.6</ele>
      </trkpt>
      <trkpt lat="45.55972" lon="5.29541">
        <ele>353</ele>
      </trkpt>
      <trkpt lat="45.55973" lon="5.29551">
        <ele>353.1</ele>
      </trkpt>
      <trkpt lat="45.55972" lon="5.29643">
        <ele>345.7</ele>
      </trkpt>
      <trkpt lat="45.55965" lon="5.29718">
        <ele>339.9</ele>
      </trkpt>
      <trkpt lat="45.55956" lon="5.2976">
        <ele>337.1</ele>
      </trkpt>
      <trkpt lat="45.5596" lon="5.29798">
        <ele>332.6</ele>
      </trkpt>
      <trkpt lat="45.55948" lon="5.2986">
        <ele>326.8</ele>
      </trkpt>
      <trkpt lat="45.55941" lon="5.29902">
        <ele>322.3</ele>
      </trkpt>
      <trkpt lat="45.55947" lon="5.2995">
        <ele>316.3</ele>
      </trkpt>
      <trkpt lat="45.55976" lon="5.30021">
        <ele>307.2</ele>
      </trkpt>
      <trkpt lat="45.55985" lon="5.30065">
        <ele>303.8</ele>
      </trkpt>
      <trkpt lat="45.55985" lon="5.30096">
        <ele>301.4</ele>
      </trkpt>
      <trkpt lat="45.55973" lon="5.30128">
        <ele>299.8</ele>
      </trkpt>
      <trkpt lat="45.55945" lon="5.30155">
        <ele>299.4</ele>
      </trkpt>
      <trkpt lat="45.55946" lon="5.3018">
        <ele>299</ele>
      </trkpt>
      <trkpt lat="45.55943" lon="5.30207">
        <ele>298.6</ele>
      </trkpt>
      <trkpt lat="45.55938" lon="5.30225">
        <ele>297.6</ele>
      </trkpt>
      <trkpt lat="45.55919" lon="5.30252">
        <ele>293.5</ele>
      </trkpt>
      <trkpt lat="45.5591" lon="5.30269">
        <ele>292.3</ele>
      </trkpt>
      <trkpt lat="45.55907" lon="5.30284">
        <ele>291</ele>
      </trkpt>
      <trkpt lat="45.559" lon="5.30326">
        <ele>291.4</ele>
      </trkpt>
      <trkpt lat="45.55898" lon="5.30336">
        <ele>291.6</ele>
      </trkpt>
      <trkpt lat="45.55902" lon="5.30352">
        <ele>290.9</ele>
      </trkpt>
      <trkpt lat="45.55906" lon="5.30371">
        <ele>291.1</ele>
      </trkpt>
      <trkpt lat="45.55921" lon="5.3044">
        <ele>293.8</ele>
      </trkpt>
      <trkpt lat="45.55922" lon="5.30448">
        <ele>294</ele>
      </trkpt>
      <trkpt lat="45.55923" lon="5.30459">
        <ele>294.1</ele>
      </trkpt>
      <trkpt lat="45.55919" lon="5.30506">
        <ele>295.3</ele>
      </trkpt>
      <trkpt lat="45.55917" lon="5.30528">
        <ele>296</ele>
      </trkpt>
      <trkpt lat="45.55912" lon="5.30565">
        <ele>297.5</ele>
        <extensions>
          <visugpx:TrkExtension xmlns:visugpx="https://www.visugpx.com/editgpx/">
            <visugpx:node>4</visugpx:node>
            </visugpx:TrkExtension>
        </extensions>
      </trkpt>
      <trkpt lat="45.5591" lon="5.30647">
        <ele>296</ele>
        <time>2021-10-02T14:55:08.582Z</time>
        <extensions>
          <visugpx:TrkExtension xmlns:visugpx="https://www.visugpx.com/editgpx/">
            <visugpx:node>2</visugpx:node>
            </visugpx:TrkExtension>
        </extensions>
      </trkpt>
      <trkpt lat="45.55909" lon="5.30648">
        <ele>296</ele>
        <time>2021-10-02T14:55:07.582Z</time>
      </trkpt>
      <trkpt lat="45.55907" lon="5.30649">
        <ele>296</ele>
        <time>2021-10-02T14:55:06.582Z</time>
      </trkpt>
      <trkpt lat="45.55905" lon="5.30649">
        <ele>296</ele>
        <time>2021-10-02T14:55:05.582Z</time>
      </trkpt>
      <trkpt lat="45.55902" lon="5.30649">
        <ele>297</ele>
        <time>2021-10-02T14:55:04.581Z</time>
      </trkpt>
      <trkpt lat="45.559" lon="5.30649">
        <ele>297</ele>
        <time>2021-10-02T14:55:03.582Z</time>
      </trkpt>
      <trkpt lat="45.55897" lon="5.3065">
        <ele>298</ele>
        <time>2021-10-02T14:55:02.582Z</time>
      </trkpt>
      <trkpt lat="45.55894" lon="5.3065">
        <ele>298</ele>
        <time>2021-10-02T14:55:01.581Z</time>
      </trkpt>
      <trkpt lat="45.55891" lon="5.30652">
        <ele>299</ele>
        <time>2021-10-02T14:55:00.582Z</time>
      </trkpt>
      <trkpt lat="45.55887" lon="5.30653">
        <ele>299</ele>
        <time>2021-10-02T14:54:59.581Z</time>
      </trkpt>
      <trkpt lat="45.55882" lon="5.30654">
        <ele>299</ele>
        <time>2021-10-02T14:54:58.581Z</time>
      </trkpt>
      <trkpt lat="45.55875" lon="5.30655">
        <ele>299</ele>
        <time>2021-10-02T14:54:57.582Z</time>
      </trkpt>
      <trkpt lat="45.55868" lon="5.30657">
        <ele>299</ele>
        <time>2021-10-02T14:54:56.581Z</time>
      </trkpt>
      <trkpt lat="45.5586" lon="5.30658">
        <ele>299</ele>
        <time>2021-10-02T14:54:55.582Z</time>
      </trkpt>
      <trkpt lat="45.55853" lon="5.30659">
        <ele>299</ele>
        <time>2021-10-02T14:54:54.582Z</time>
      </trkpt>
      <trkpt lat="45.55845" lon="5.30661">
        <ele>299</ele>
        <time>2021-10-02T14:54:53.582Z</time>
      </trkpt>
      <trkpt lat="45.55836" lon="5.30661">
        <ele>299</ele>
        <time>2021-10-02T14:54:52.582Z</time>
      </trkpt>
      <trkpt lat="45.55829" lon="5.30661">
        <ele>300</ele>
        <time>2021-10-02T14:54:51.581Z</time>
      </trkpt>
      <trkpt lat="45.55821" lon="5.30661">
        <ele>300</ele>
        <time>2021-10-02T14:54:50.582Z</time>
      </trkpt>
      <trkpt lat="45.55814" lon="5.30661">
        <ele>300</ele>
        <time>2021-10-02T14:54:49.581Z</time>
      </trkpt>
      <trkpt lat="45.55806" lon="5.30661">
        <ele>300</ele>
        <time>2021-10-02T14:54:48.582Z</time>
      </trkpt>
      <trkpt lat="45.55798" lon="5.30662">
        <ele>301</ele>
        <time>2021-10-02T14:54:47.582Z</time>
      </trkpt>
      <trkpt lat="45.55791" lon="5.30663">
        <ele>301</ele>
        <time>2021-10-02T14:54:46.582Z</time>
      </trkpt>
      <trkpt lat="45.55783" lon="5.30664">
        <ele>301</ele>
        <time>2021-10-02T14:54:45.582Z</time>
      </trkpt>
      <trkpt lat="45.55775" lon="5.30666">
        <ele>301</ele>
        <time>2021-10-02T14:54:44.582Z</time>
      </trkpt>
      <trkpt lat="45.55768" lon="5.30667">
        <ele>302</ele>
        <time>2021-10-02T14:54:43.581Z</time>
      </trkpt>
      <trkpt lat="45.55761" lon="5.30669">
        <ele>302</ele>
        <time>2021-10-02T14:54:42.581Z</time>
      </trkpt>
      <trkpt lat="45.55753" lon="5.30671">
        <ele>302</ele>
        <time>2021-10-02T14:54:41.582Z</time>
      </trkpt>
      <trkpt lat="45.55746" lon="5.30672">
        <ele>302</ele>
        <time>2021-10-02T14:54:40.582Z</time>
      </trkpt>
      <trkpt lat="45.55739" lon="5.30673">
        <ele>302</ele>
        <time>2021-10-02T14:54:39.582Z</time>
      </trkpt>
      <trkpt lat="45.55731" lon="5.30675">
        <ele>302</ele>
        <time>2021-10-02T14:54:38.582Z</time>
      </trkpt>
      <trkpt lat="45.55726" lon="5.30676">
        <ele>302</ele>
        <time>2021-10-02T14:54:37.581Z</time>
      </trkpt>
      <trkpt lat="45.55719" lon="5.30678">
        <ele>303</ele>
        <time>2021-10-02T14:54:36.582Z</time>
      </trkpt>
      <trkpt lat="45.55712" lon="5.3068">
        <ele>303</ele>
        <time>2021-10-02T14:54:35.582Z</time>
      </trkpt>
      <trkpt lat="45.55705" lon="5.30682">
        <ele>303</ele>
        <time>2021-10-02T14:54:34.582Z</time>
      </trkpt>
      <trkpt lat="45.55699" lon="5.30685">
        <ele>304</ele>
        <time>2021-10-02T14:54:33.581Z</time>
      </trkpt>
      <trkpt lat="45.55692" lon="5.30687">
        <ele>304</ele>
        <time>2021-10-02T14:54:32.581Z</time>
      </trkpt>
      <trkpt lat="45.55686" lon="5.30688">
        <ele>305</ele>
        <time>2021-10-02T14:54:31.582Z</time>
      </trkpt>
      <trkpt lat="45.55679" lon="5.30687">
        <ele>305</ele>
        <time>2021-10-02T14:54:30.582Z</time>
      </trkpt>
      <trkpt lat="45.55673" lon="5.30686">
        <ele>305</ele>
        <time>2021-10-02T14:54:29.581Z</time>
      </trkpt>
      <trkpt lat="45.55666" lon="5.30686">
        <ele>305</ele>
        <time>2021-10-02T14:54:28.582Z</time>
      </trkpt>
      <trkpt lat="45.55658" lon="5.30686">
        <ele>305</ele>
        <time>2021-10-02T14:54:27.581Z</time>
      </trkpt>
      <trkpt lat="45.55651" lon="5.30687">
        <ele>305</ele>
        <time>2021-10-02T14:54:26.582Z</time>
      </trkpt>
      <trkpt lat="45.55643" lon="5.30687">
        <ele>305</ele>
        <time>2021-10-02T14:54:25.582Z</time>
      </trkpt>
      <trkpt lat="45.55636" lon="5.30687">
        <ele>306</ele>
        <time>2021-10-02T14:54:24.582Z</time>
      </trkpt>
      <trkpt lat="45.55629" lon="5.30687">
        <ele>306</ele>
        <time>2021-10-02T14:54:23.581Z</time>
      </trkpt>
      <trkpt lat="45.55622" lon="5.30687">
        <ele>306</ele>
        <time>2021-10-02T14:54:22.581Z</time>
      </trkpt>
      <trkpt lat="45.55614" lon="5.30688">
        <ele>307</ele>
        <time>2021-10-02T14:54:21.581Z</time>
      </trkpt>
      <trkpt lat="45.55608" lon="5.30688">
        <ele>307</ele>
        <time>2021-10-02T14:54:20.582Z</time>
      </trkpt>
      <trkpt lat="45.55601" lon="5.30689">
        <ele>307</ele>
        <time>2021-10-02T14:54:19.582Z</time>
      </trkpt>
      <trkpt lat="45.55594" lon="5.30689">
        <ele>308</ele>
        <time>2021-10-02T14:54:18.582Z</time>
      </trkpt>
      <trkpt lat="45.55587" lon="5.30689">
        <ele>308</ele>
        <time>2021-10-02T14:54:17.582Z</time>
      </trkpt>
      <trkpt lat="45.55581" lon="5.30688">
        <ele>309</ele>
        <time>2021-10-02T14:54:16.581Z</time>
      </trkpt>
      <trkpt lat="45.55574" lon="5.30687">
        <ele>309</ele>
        <time>2021-10-02T14:54:15.581Z</time>
      </trkpt>
      <trkpt lat="45.55568" lon="5.30685">
        <ele>309</ele>
        <time>2021-10-02T14:54:14.582Z</time>
      </trkpt>
      <trkpt lat="45.55562" lon="5.30683">
        <ele>309</ele>
        <time>2021-10-02T14:54:13.581Z</time>
      </trkpt>
      <trkpt lat="45.55556" lon="5.30679">
        <ele>309</ele>
        <time>2021-10-02T14:54:12.581Z</time>
      </trkpt>
      <trkpt lat="45.5555" lon="5.30675">
        <ele>309</ele>
        <time>2021-10-02T14:54:11.581Z</time>
      </trkpt>
      <trkpt lat="45.55546" lon="5.30672">
        <ele>309</ele>
        <time>2021-10-02T14:54:10.582Z</time>
      </trkpt>
      <trkpt lat="45.55541" lon="5.30666">
        <ele>309</ele>
        <time>2021-10-02T14:54:09.582Z</time>
      </trkpt>
      <trkpt lat="45.55539" lon="5.30662">
        <ele>308</ele>
        <time>2021-10-02T14:54:08.581Z</time>
      </trkpt>
      <trkpt lat="45.55536" lon="5.30656">
        <ele>308</ele>
        <time>2021-10-02T14:54:07.581Z</time>
      </trkpt>
      <trkpt lat="45.55535" lon="5.3065">
        <ele>308</ele>
        <time>2021-10-02T14:54:06.581Z</time>
      </trkpt>
      <trkpt lat="45.55534" lon="5.30642">
        <ele>308</ele>
        <time>2021-10-02T14:54:05.581Z</time>
      </trkpt>
      <trkpt lat="45.55535" lon="5.30636">
        <ele>308</ele>
        <time>2021-10-02T14:54:04.582Z</time>
      </trkpt>
      <trkpt lat="45.55535" lon="5.30629">
        <ele>308</ele>
        <time>2021-10-02T14:54:03.582Z</time>
      </trkpt>
      <trkpt lat="45.55536" lon="5.30621">
        <ele>308</ele>
        <time>2021-10-02T14:54:02.581Z</time>
      </trkpt>
      <trkpt lat="45.55537" lon="5.30613">
        <ele>308</ele>
        <time>2021-10-02T14:54:01.582Z</time>
      </trkpt>
      <trkpt lat="45.55537" lon="5.30605">
        <ele>308</ele>
        <time>2021-10-02T14:54:00.581Z</time>
      </trkpt>
      <trkpt lat="45.55538" lon="5.30598">
        <ele>308</ele>
        <time>2021-10-02T14:53:59.581Z</time>
      </trkpt>
      <trkpt lat="45.55538" lon="5.3059">
        <ele>308</ele>
        <time>2021-10-02T14:53:58.582Z</time>
      </trkpt>
      <trkpt lat="45.55539" lon="5.30584">
        <ele>308</ele>
        <time>2021-10-02T14:53:57.582Z</time>
      </trkpt>
      <trkpt lat="45.5554" lon="5.30577">
        <ele>308</ele>
        <time>2021-10-02T14:53:56.582Z</time>
      </trkpt>
      <trkpt lat="45.5554" lon="5.3057">
        <ele>308</ele>
        <time>2021-10-02T14:53:55.582Z</time>
      </trkpt>
      <trkpt lat="45.5554" lon="5.30565">
        <ele>308</ele>
        <time>2021-10-02T14:53:54.581Z</time>
      </trkpt>
      <trkpt lat="45.55539" lon="5.3056">
        <ele>308</ele>
        <time>2021-10-02T14:53:53.582Z</time>
      </trkpt>
      <trkpt lat="45.55537" lon="5.30557">
        <ele>308</ele>
        <time>2021-10-02T14:53:52.581Z</time>
      </trkpt>
      <trkpt lat="45.55533" lon="5.30556">
        <ele>308</ele>
        <time>2021-10-02T14:53:51.582Z</time>
      </trkpt>
      <trkpt lat="45.5553" lon="5.30556">
        <ele>308</ele>
        <time>2021-10-02T14:53:50.582Z</time>
      </trkpt>
      <trkpt lat="45.55527" lon="5.30558">
        <ele>308</ele>
        <time>2021-10-02T14:53:49.581Z</time>
      </trkpt>
      <trkpt lat="45.55525" lon="5.30559">
        <ele>308</ele>
        <time>2021-10-02T14:53:48.582Z</time>
      </trkpt>
      <trkpt lat="45.55523" lon="5.3056">
        <ele>307</ele>
        <time>2021-10-02T14:53:47.582Z</time>
      </trkpt>
      <trkpt lat="45.55522" lon="5.30562">
        <ele>306</ele>
        <time>2021-10-02T14:53:45.581Z</time>
      </trkpt>
      <trkpt lat="45.55521" lon="5.30562">
        <ele>307</ele>
        <time>2021-10-02T14:53:43.581Z</time>
      </trkpt>
      <trkpt lat="45.55521" lon="5.30561">
        <ele>307</ele>
        <time>2021-10-02T14:53:42.580Z</time>
      </trkpt>
      <trkpt lat="45.5552" lon="5.30562">
        <ele>307</ele>
        <time>2021-10-02T14:53:41.580Z</time>
      </trkpt>
      <trkpt lat="45.55519" lon="5.30562">
        <ele>307</ele>
        <time>2021-10-02T14:53:40.580Z</time>
      </trkpt>
      <trkpt lat="45.55518" lon="5.30562">
        <ele>307</ele>
        <time>2021-10-02T14:53:39.580Z</time>
      </trkpt>
      <trkpt lat="45.55517" lon="5.30563">
        <ele>307</ele>
        <time>2021-10-02T14:53:38.581Z</time>
      </trkpt>
      <trkpt lat="45.55516" lon="5.30563">
        <ele>308</ele>
        <time>2021-10-02T14:53:37.581Z</time>
      </trkpt>
      <trkpt lat="45.55514" lon="5.30563">
        <ele>308</ele>
        <time>2021-10-02T14:53:36.581Z</time>
      </trkpt>
      <trkpt lat="45.55512" lon="5.30563">
        <ele>308</ele>
        <time>2021-10-02T14:53:35.581Z</time>
      </trkpt>
      <trkpt lat="45.5551" lon="5.30564">
        <ele>309</ele>
        <time>2021-10-02T14:53:34.581Z</time>
      </trkpt>
      <trkpt lat="45.55507" lon="5.30564">
        <ele>309</ele>
        <time>2021-10-02T14:53:33.581Z</time>
      </trkpt>
      <trkpt lat="45.55503" lon="5.30564">
        <ele>310</ele>
        <time>2021-10-02T14:53:32.581Z</time>
      </trkpt>
      <trkpt lat="45.555" lon="5.30565">
        <ele>310</ele>
        <time>2021-10-02T14:53:31.580Z</time>
      </trkpt>
      <trkpt lat="45.55497" lon="5.30565">
        <ele>311</ele>
        <time>2021-10-02T14:53:30.580Z</time>
      </trkpt>
      <trkpt lat="45.55493" lon="5.30566">
        <ele>311</ele>
        <time>2021-10-02T14:53:29.581Z</time>
      </trkpt>
      <trkpt lat="45.5549" lon="5.30567">
        <ele>312</ele>
        <time>2021-10-02T14:53:28.581Z</time>
      </trkpt>
      <trkpt lat="45.55484" lon="5.30569">
        <ele>312</ele>
        <time>2021-10-02T14:53:27.580Z</time>
      </trkpt>
      <trkpt lat="45.55478" lon="5.30571">
        <ele>311</ele>
        <time>2021-10-02T14:53:26.581Z</time>
      </trkpt>
      <trkpt lat="45.55472" lon="5.30573">
        <ele>311</ele>
        <time>2021-10-02T14:53:25.580Z</time>
      </trkpt>
      <trkpt lat="45.55466" lon="5.30576">
        <ele>311</ele>
        <time>2021-10-02T14:53:24.581Z</time>
      </trkpt>
      <trkpt lat="45.55458" lon="5.30578">
        <ele>311</ele>
        <time>2021-10-02T14:53:23.581Z</time>
      </trkpt>
      <trkpt lat="45.55449" lon="5.30581">
        <ele>311</ele>
        <time>2021-10-02T14:53:22.581Z</time>
      </trkpt>
      <trkpt lat="45.55441" lon="5.30583">
        <ele>311</ele>
        <time>2021-10-02T14:53:21.581Z</time>
      </trkpt>
      <trkpt lat="45.55432" lon="5.30586">
        <ele>311</ele>
        <time>2021-10-02T14:53:20.581Z</time>
      </trkpt>
      <trkpt lat="45.55423" lon="5.30589">
        <ele>311</ele>
        <time>2021-10-02T14:53:19.581Z</time>
      </trkpt>
      <trkpt lat="45.55414" lon="5.30592">
        <ele>311</ele>
        <time>2021-10-02T14:53:18.581Z</time>
      </trkpt>
      <trkpt lat="45.55406" lon="5.30595">
        <ele>311</ele>
        <time>2021-10-02T14:53:17.580Z</time>
      </trkpt>
      <trkpt lat="45.55397" lon="5.30599">
        <ele>312</ele>
        <time>2021-10-02T14:53:16.581Z</time>
      </trkpt>
      <trkpt lat="45.55389" lon="5.30601">
        <ele>312</ele>
        <time>2021-10-02T14:53:15.580Z</time>
      </trkpt>
      <trkpt lat="45.5538" lon="5.30604">
        <ele>313</ele>
        <time>2021-10-02T14:53:14.580Z</time>
      </trkpt>
      <trkpt lat="45.55372" lon="5.30607">
        <ele>313</ele>
        <time>2021-10-02T14:53:13.580Z</time>
      </trkpt>
      <trkpt lat="45.55363" lon="5.3061">
        <ele>313</ele>
        <time>2021-10-02T14:53:12.580Z</time>
      </trkpt>
      <trkpt lat="45.55355" lon="5.30613">
        <ele>314</ele>
        <time>2021-10-02T14:53:11.581Z</time>
      </trkpt>
      <trkpt lat="45.55346" lon="5.30615">
        <ele>314</ele>
        <time>2021-10-02T14:53:10.581Z</time>
      </trkpt>
      <trkpt lat="45.55337" lon="5.30618">
        <ele>315</ele>
        <time>2021-10-02T14:53:09.581Z</time>
      </trkpt>
      <trkpt lat="45.55329" lon="5.30621">
        <ele>315</ele>
        <time>2021-10-02T14:53:08.580Z</time>
      </trkpt>
      <trkpt lat="45.5532" lon="5.30624">
        <ele>315</ele>
        <time>2021-10-02T14:53:07.581Z</time>
      </trkpt>
      <trkpt lat="45.55311" lon="5.30627">
        <ele>315</ele>
        <time>2021-10-02T14:53:06.581Z</time>
      </trkpt>
      <trkpt lat="45.55302" lon="5.3063">
        <ele>315</ele>
        <time>2021-10-02T14:53:05.581Z</time>
      </trkpt>
      <trkpt lat="45.55294" lon="5.30633">
        <ele>314</ele>
        <time>2021-10-02T14:53:04.580Z</time>
      </trkpt>
      <trkpt lat="45.55285" lon="5.30636">
        <ele>314</ele>
        <time>2021-10-02T14:53:03.581Z</time>
      </trkpt>
      <trkpt lat="45.55277" lon="5.30639">
        <ele>313</ele>
        <time>2021-10-02T14:53:02.580Z</time>
      </trkpt>
      <trkpt lat="45.55269" lon="5.30643">
        <ele>313</ele>
        <time>2021-10-02T14:53:01.581Z</time>
      </trkpt>
      <trkpt lat="45.5526" lon="5.30646">
        <ele>313</ele>
        <time>2021-10-02T14:53:00.581Z</time>
      </trkpt>
      <trkpt lat="45.55252" lon="5.3065">
        <ele>313</ele>
        <time>2021-10-02T14:52:59.581Z</time>
      </trkpt>
      <trkpt lat="45.55245" lon="5.30654">
        <ele>314</ele>
        <time>2021-10-02T14:52:58.581Z</time>
      </trkpt>
      <trkpt lat="45.55237" lon="5.30658">
        <ele>315</ele>
        <time>2021-10-02T14:52:57.581Z</time>
      </trkpt>
      <trkpt lat="45.5523" lon="5.30663">
        <ele>315</ele>
        <time>2021-10-02T14:52:56.581Z</time>
      </trkpt>
      <trkpt lat="45.55223" lon="5.30668">
        <ele>316</ele>
        <time>2021-10-02T14:52:55.581Z</time>
      </trkpt>
      <trkpt lat="45.55216" lon="5.30675">
        <ele>316</ele>
        <time>2021-10-02T14:52:54.581Z</time>
      </trkpt>
      <trkpt lat="45.55209" lon="5.30681">
        <ele>317</ele>
        <time>2021-10-02T14:52:53.581Z</time>
      </trkpt>
      <trkpt lat="45.55203" lon="5.30688">
        <ele>317</ele>
        <time>2021-10-02T14:52:52.580Z</time>
      </trkpt>
      <trkpt lat="45.55196" lon="5.30694">
        <ele>317</ele>
        <time>2021-10-02T14:52:51.580Z</time>
      </trkpt>
      <trkpt lat="45.55188" lon="5.30703">
        <ele>318</ele>
        <time>2021-10-02T14:52:50.581Z</time>
      </trkpt>
      <trkpt lat="45.55182" lon="5.30709">
        <ele>319</ele>
        <time>2021-10-02T14:52:49.581Z</time>
      </trkpt>
      <trkpt lat="45.55175" lon="5.30716">
        <ele>319</ele>
        <time>2021-10-02T14:52:48.581Z</time>
      </trkpt>
      <trkpt lat="45.55168" lon="5.30723">
        <ele>319</ele>
        <time>2021-10-02T14:52:47.581Z</time>
      </trkpt>
      <trkpt lat="45.55161" lon="5.3073">
        <ele>319</ele>
        <time>2021-10-02T14:52:46.581Z</time>
      </trkpt>
      <trkpt lat="45.55154" lon="5.30737">
        <ele>320</ele>
        <time>2021-10-02T14:52:45.580Z</time>
      </trkpt>
      <trkpt lat="45.55145" lon="5.30746">
        <ele>320</ele>
        <time>2021-10-02T14:52:44.581Z</time>
      </trkpt>
      <trkpt lat="45.55139" lon="5.30752">
        <ele>320</ele>
        <time>2021-10-02T14:52:43.581Z</time>
      </trkpt>
      <trkpt lat="45.55132" lon="5.3076">
        <ele>320</ele>
        <time>2021-10-02T14:52:42.580Z</time>
      </trkpt>
      <trkpt lat="45.55124" lon="5.30768">
        <ele>320</ele>
        <time>2021-10-02T14:52:41.581Z</time>
      </trkpt>
      <trkpt lat="45.55117" lon="5.30776">
        <ele>320</ele>
        <time>2021-10-02T14:52:40.581Z</time>
      </trkpt>
      <trkpt lat="45.55107" lon="5.30786">
        <ele>320</ele>
        <time>2021-10-02T14:52:39.581Z</time>
      </trkpt>
      <trkpt lat="45.55101" lon="5.30792">
        <ele>320</ele>
        <time>2021-10-02T14:52:38.580Z</time>
      </trkpt>
      <trkpt lat="45.55093" lon="5.308">
        <ele>321</ele>
        <time>2021-10-02T14:52:37.580Z</time>
      </trkpt>
      <trkpt lat="45.55086" lon="5.30808">
        <ele>322</ele>
        <time>2021-10-02T14:52:36.580Z</time>
      </trkpt>
      <trkpt lat="45.55078" lon="5.30816">
        <ele>322</ele>
        <time>2021-10-02T14:52:35.581Z</time>
      </trkpt>
      <trkpt lat="45.5507" lon="5.30825">
        <ele>323</ele>
        <time>2021-10-02T14:52:34.580Z</time>
      </trkpt>
      <trkpt lat="45.55061" lon="5.30833">
        <ele>323</ele>
        <time>2021-10-02T14:52:33.580Z</time>
      </trkpt>
      <trkpt lat="45.55052" lon="5.3084">
        <ele>324</ele>
        <time>2021-10-02T14:52:32.581Z</time>
      </trkpt>
      <trkpt lat="45.55043" lon="5.30848">
        <ele>324</ele>
        <time>2021-10-02T14:52:31.580Z</time>
      </trkpt>
      <trkpt lat="45.55034" lon="5.30855">
        <ele>324</ele>
        <time>2021-10-02T14:52:30.580Z</time>
      </trkpt>
      <trkpt lat="45.55024" lon="5.30861">
        <ele>325</ele>
        <time>2021-10-02T14:52:29.581Z</time>
      </trkpt>
      <trkpt lat="45.55014" lon="5.30867">
        <ele>325</ele>
        <time>2021-10-02T14:52:28.581Z</time>
      </trkpt>
      <trkpt lat="45.55003" lon="5.30873">
        <ele>326</ele>
        <time>2021-10-02T14:52:27.581Z</time>
      </trkpt>
      <trkpt lat="45.54992" lon="5.30879">
        <ele>326</ele>
        <time>2021-10-02T14:52:26.580Z</time>
      </trkpt>
      <trkpt lat="45.54981" lon="5.30884">
        <ele>327</ele>
        <time>2021-10-02T14:52:25.581Z</time>
      </trkpt>
      <trkpt lat="45.5497" lon="5.3089">
        <ele>327</ele>
        <time>2021-10-02T14:52:24.581Z</time>
      </trkpt>
      <trkpt lat="45.54959" lon="5.30895">
        <ele>327</ele>
        <time>2021-10-02T14:52:23.580Z</time>
      </trkpt>
      <trkpt lat="45.54949" lon="5.30899">
        <ele>328</ele>
        <time>2021-10-02T14:52:22.580Z</time>
      </trkpt>
      <trkpt lat="45.54938" lon="5.30904">
        <ele>328</ele>
        <time>2021-10-02T14:52:21.580Z</time>
      </trkpt>
      <trkpt lat="45.54927" lon="5.30908">
        <ele>329</ele>
        <time>2021-10-02T14:52:20.581Z</time>
      </trkpt>
      <trkpt lat="45.54914" lon="5.30913">
        <ele>329</ele>
        <time>2021-10-02T14:52:19.581Z</time>
      </trkpt>
      <trkpt lat="45.54904" lon="5.30918">
        <ele>330</ele>
        <time>2021-10-02T14:52:18.581Z</time>
      </trkpt>
      <trkpt lat="45.54895" lon="5.30922">
        <ele>330</ele>
        <time>2021-10-02T14:52:17.580Z</time>
      </trkpt>
      <trkpt lat="45.54884" lon="5.30927">
        <ele>330</ele>
        <time>2021-10-02T14:52:16.580Z</time>
      </trkpt>
      <trkpt lat="45.54874" lon="5.30931">
        <ele>331</ele>
        <time>2021-10-02T14:52:15.581Z</time>
      </trkpt>
      <trkpt lat="45.54863" lon="5.30935">
        <ele>331</ele>
        <time>2021-10-02T14:52:14.581Z</time>
      </trkpt>
      <trkpt lat="45.54851" lon="5.3094">
        <ele>331</ele>
        <time>2021-10-02T14:52:13.580Z</time>
      </trkpt>
      <trkpt lat="45.54842" lon="5.30943">
        <ele>331</ele>
        <time>2021-10-02T14:52:12.581Z</time>
      </trkpt>
      <trkpt lat="45.54832" lon="5.30947">
        <ele>331</ele>
        <time>2021-10-02T14:52:11.581Z</time>
      </trkpt>
      <trkpt lat="45.54821" lon="5.30952">
        <ele>331</ele>
        <time>2021-10-02T14:52:10.581Z</time>
      </trkpt>
      <trkpt lat="45.54811" lon="5.30957">
        <ele>331</ele>
        <time>2021-10-02T14:52:09.581Z</time>
      </trkpt>
      <trkpt lat="45.54798" lon="5.30962">
        <ele>331</ele>
        <time>2021-10-02T14:52:08.580Z</time>
      </trkpt>
      <trkpt lat="45.54788" lon="5.30967">
        <ele>331</ele>
        <time>2021-10-02T14:52:07.581Z</time>
      </trkpt>
      <trkpt lat="45.54779" lon="5.3097">
        <ele>331</ele>
        <time>2021-10-02T14:52:06.581Z</time>
      </trkpt>
      <trkpt lat="45.54768" lon="5.30975">
        <ele>332</ele>
        <time>2021-10-02T14:52:05.581Z</time>
      </trkpt>
      <trkpt lat="45.54757" lon="5.3098">
        <ele>332</ele>
        <time>2021-10-02T14:52:04.580Z</time>
      </trkpt>
      <trkpt lat="45.54746" lon="5.30984">
        <ele>332</ele>
        <time>2021-10-02T14:52:03.581Z</time>
      </trkpt>
      <trkpt lat="45.54736" lon="5.30988">
        <ele>333</ele>
        <time>2021-10-02T14:52:02.580Z</time>
      </trkpt>
      <trkpt lat="45.54726" lon="5.30993">
        <ele>334</ele>
        <time>2021-10-02T14:52:01.580Z</time>
      </trkpt>
      <trkpt lat="45.54715" lon="5.30997">
        <ele>334</ele>
        <time>2021-10-02T14:52:00.581Z</time>
      </trkpt>
      <trkpt lat="45.54705" lon="5.31002">
        <ele>334</ele>
        <time>2021-10-02T14:51:59.581Z</time>
      </trkpt>
      <trkpt lat="45.54695" lon="5.31006">
        <ele>335</ele>
        <time>2021-10-02T14:51:58.581Z</time>
      </trkpt>
      <trkpt lat="45.54684" lon="5.31011">
        <ele>335</ele>
        <time>2021-10-02T14:51:57.581Z</time>
      </trkpt>
      <trkpt lat="45.54673" lon="5.31014">
        <ele>336</ele>
        <time>2021-10-02T14:51:56.581Z</time>
      </trkpt>
      <trkpt lat="45.54662" lon="5.31018">
        <ele>337</ele>
        <time>2021-10-02T14:51:55.581Z</time>
      </trkpt>
      <trkpt lat="45.54651" lon="5.3102">
        <ele>337</ele>
        <time>2021-10-02T14:51:54.581Z</time>
      </trkpt>
      <trkpt lat="45.5464" lon="5.31023">
        <ele>338</ele>
        <time>2021-10-02T14:51:53.581Z</time>
      </trkpt>
      <trkpt lat="45.54629" lon="5.31025">
        <ele>338</ele>
        <time>2021-10-02T14:51:52.580Z</time>
      </trkpt>
      <trkpt lat="45.54618" lon="5.31027">
        <ele>339</ele>
        <time>2021-10-02T14:51:51.581Z</time>
      </trkpt>
      <trkpt lat="45.54607" lon="5.31029">
        <ele>339</ele>
        <time>2021-10-02T14:51:50.581Z</time>
      </trkpt>
      <trkpt lat="45.54596" lon="5.31031">
        <ele>339</ele>
        <time>2021-10-02T14:51:49.580Z</time>
      </trkpt>
      <trkpt lat="45.54585" lon="5.31033">
        <ele>339</ele>
        <time>2021-10-02T14:51:48.581Z</time>
      </trkpt>
      <trkpt lat="45.54574" lon="5.31034">
        <ele>340</ele>
        <time>2021-10-02T14:51:47.581Z</time>
      </trkpt>
      <trkpt lat="45.54563" lon="5.31036">
        <ele>340</ele>
        <time>2021-10-02T14:51:46.581Z</time>
      </trkpt>
      <trkpt lat="45.54552" lon="5.31038">
        <ele>340</ele>
        <time>2021-10-02T14:51:45.580Z</time>
      </trkpt>
      <trkpt lat="45.54541" lon="5.3104">
        <ele>340</ele>
        <time>2021-10-02T14:51:44.581Z</time>
      </trkpt>
      <trkpt lat="45.54531" lon="5.31043">
        <ele>339</ele>
        <time>2021-10-02T14:51:43.581Z</time>
      </trkpt>
      <trkpt lat="45.5452" lon="5.31045">
        <ele>339</ele>
        <time>2021-10-02T14:51:42.581Z</time>
      </trkpt>
      <trkpt lat="45.5451" lon="5.31047">
        <ele>339</ele>
        <time>2021-10-02T14:51:41.581Z</time>
      </trkpt>
      <trkpt lat="45.545" lon="5.3105">
        <ele>339</ele>
        <time>2021-10-02T14:51:40.581Z</time>
      </trkpt>
      <trkpt lat="45.5449" lon="5.31052">
        <ele>340</ele>
        <time>2021-10-02T14:51:39.581Z</time>
      </trkpt>
      <trkpt lat="45.5448" lon="5.31054">
        <ele>340</ele>
        <time>2021-10-02T14:51:38.580Z</time>
      </trkpt>
      <trkpt lat="45.54469" lon="5.31057">
        <ele>341</ele>
        <time>2021-10-02T14:51:37.581Z</time>
      </trkpt>
      <trkpt lat="45.54459" lon="5.31059">
        <ele>341</ele>
        <time>2021-10-02T14:51:36.581Z</time>
      </trkpt>
      <trkpt lat="45.54449" lon="5.31061">
        <ele>341</ele>
        <time>2021-10-02T14:51:35.581Z</time>
      </trkpt>
      <trkpt lat="45.54439" lon="5.31063">
        <ele>342</ele>
        <time>2021-10-02T14:51:34.581Z</time>
      </trkpt>
      <trkpt lat="45.54429" lon="5.31064">
        <ele>342</ele>
        <time>2021-10-02T14:51:33.581Z</time>
      </trkpt>
      <trkpt lat="45.54419" lon="5.31066">
        <ele>342</ele>
        <time>2021-10-02T14:51:32.581Z</time>
      </trkpt>
      <trkpt lat="45.54408" lon="5.31068">
        <ele>342</ele>
        <time>2021-10-02T14:51:31.581Z</time>
      </trkpt>
      <trkpt lat="45.54398" lon="5.31069">
        <ele>343</ele>
        <time>2021-10-02T14:51:30.581Z</time>
      </trkpt>
      <trkpt lat="45.54388" lon="5.3107">
        <ele>343</ele>
        <time>2021-10-02T14:51:29.580Z</time>
      </trkpt>
      <trkpt lat="45.54377" lon="5.31072">
        <ele>343</ele>
        <time>2021-10-02T14:51:28.580Z</time>
      </trkpt>
      <trkpt lat="45.54367" lon="5.31073">
        <ele>343</ele>
        <time>2021-10-02T14:51:27.581Z</time>
      </trkpt>
      <trkpt lat="45.54356" lon="5.31073">
        <ele>344</ele>
        <time>2021-10-02T14:51:26.581Z</time>
      </trkpt>
      <trkpt lat="45.54346" lon="5.31074">
        <ele>344</ele>
        <time>2021-10-02T14:51:25.580Z</time>
      </trkpt>
      <trkpt lat="45.54336" lon="5.31075">
        <ele>344</ele>
        <time>2021-10-02T14:51:24.581Z</time>
      </trkpt>
      <trkpt lat="45.54326" lon="5.31075">
        <ele>344</ele>
        <time>2021-10-02T14:51:23.580Z</time>
      </trkpt>
      <trkpt lat="45.54316" lon="5.31075">
        <ele>345</ele>
        <time>2021-10-02T14:51:22.580Z</time>
      </trkpt>
      <trkpt lat="45.54306" lon="5.31076">
        <ele>345</ele>
        <time>2021-10-02T14:51:21.581Z</time>
      </trkpt>
      <trkpt lat="45.54297" lon="5.31076">
        <ele>345</ele>
        <time>2021-10-02T14:51:20.580Z</time>
      </trkpt>
      <trkpt lat="45.54288" lon="5.31076">
        <ele>345</ele>
        <time>2021-10-02T14:51:19.581Z</time>
      </trkpt>
      <trkpt lat="45.54279" lon="5.31075">
        <ele>345</ele>
        <time>2021-10-02T14:51:18.581Z</time>
      </trkpt>
      <trkpt lat="45.54268" lon="5.31075">
        <ele>345</ele>
        <time>2021-10-02T14:51:17.581Z</time>
      </trkpt>
      <trkpt lat="45.5426" lon="5.31074">
        <ele>345</ele>
        <time>2021-10-02T14:51:16.581Z</time>
      </trkpt>
      <trkpt lat="45.54253" lon="5.31074">
        <ele>345</ele>
        <time>2021-10-02T14:51:15.581Z</time>
      </trkpt>
      <trkpt lat="45.54245" lon="5.31073">
        <ele>345</ele>
        <time>2021-10-02T14:51:14.581Z</time>
      </trkpt>
      <trkpt lat="45.54237" lon="5.31072">
        <ele>345</ele>
        <time>2021-10-02T14:51:13.580Z</time>
      </trkpt>
      <trkpt lat="45.54229" lon="5.3107">
        <ele>345</ele>
        <time>2021-10-02T14:51:12.580Z</time>
      </trkpt>
      <trkpt lat="45.54221" lon="5.31069">
        <ele>346</ele>
        <time>2021-10-02T14:51:11.581Z</time>
      </trkpt>
      <trkpt lat="45.54212" lon="5.31068">
        <ele>346</ele>
        <time>2021-10-02T14:51:10.581Z</time>
      </trkpt>
      <trkpt lat="45.54205" lon="5.31066">
        <ele>346</ele>
        <time>2021-10-02T14:51:09.580Z</time>
      </trkpt>
      <trkpt lat="45.54198" lon="5.31065">
        <ele>346</ele>
        <time>2021-10-02T14:51:08.580Z</time>
      </trkpt>
      <trkpt lat="45.5419" lon="5.31064">
        <ele>346</ele>
        <time>2021-10-02T14:51:07.580Z</time>
      </trkpt>
      <trkpt lat="45.54183" lon="5.31063">
        <ele>345</ele>
        <time>2021-10-02T14:51:06.580Z</time>
      </trkpt>
      <trkpt lat="45.54175" lon="5.31062">
        <ele>345</ele>
        <time>2021-10-02T14:51:05.581Z</time>
      </trkpt>
      <trkpt lat="45.54169" lon="5.31061">
        <ele>345</ele>
        <time>2021-10-02T14:51:04.581Z</time>
      </trkpt>
      <trkpt lat="45.54162" lon="5.3106">
        <ele>345</ele>
        <time>2021-10-02T14:51:03.580Z</time>
      </trkpt>
      <trkpt lat="45.54155" lon="5.31058">
        <ele>345</ele>
        <time>2021-10-02T14:51:02.581Z</time>
      </trkpt>
      <trkpt lat="45.54148" lon="5.31057">
        <ele>345</ele>
        <time>2021-10-02T14:51:01.581Z</time>
      </trkpt>
      <trkpt lat="45.54141" lon="5.31056">
        <ele>345</ele>
        <time>2021-10-02T14:51:00.581Z</time>
      </trkpt>
      <trkpt lat="45.54134" lon="5.31055">
        <ele>345</ele>
        <time>2021-10-02T14:50:59.581Z</time>
      </trkpt>
      <trkpt lat="45.54127" lon="5.31053">
        <ele>345</ele>
        <time>2021-10-02T14:50:58.581Z</time>
      </trkpt>
      <trkpt lat="45.5412" lon="5.31052">
        <ele>345</ele>
        <time>2021-10-02T14:50:57.580Z</time>
      </trkpt>
      <trkpt lat="45.54113" lon="5.31051">
        <ele>345</ele>
        <time>2021-10-02T14:50:56.580Z</time>
      </trkpt>
      <trkpt lat="45.54106" lon="5.3105">
        <ele>344</ele>
        <time>2021-10-02T14:50:55.580Z</time>
      </trkpt>
      <trkpt lat="45.54098" lon="5.31048">
        <ele>344</ele>
        <time>2021-10-02T14:50:54.581Z</time>
      </trkpt>
      <trkpt lat="45.54091" lon="5.31047">
        <ele>344</ele>
        <time>2021-10-02T14:50:53.581Z</time>
      </trkpt>
      <trkpt lat="45.54084" lon="5.31046">
        <ele>344</ele>
        <time>2021-10-02T14:50:52.581Z</time>
      </trkpt>
      <trkpt lat="45.54077" lon="5.31044">
        <ele>344</ele>
        <time>2021-10-02T14:50:51.580Z</time>
      </trkpt>
      <trkpt lat="45.5407" lon="5.31042">
        <ele>345</ele>
        <time>2021-10-02T14:50:50.580Z</time>
      </trkpt>
      <trkpt lat="45.54063" lon="5.31041">
        <ele>345</ele>
        <time>2021-10-02T14:50:49.581Z</time>
      </trkpt>
      <trkpt lat="45.54056" lon="5.31039">
        <ele>345</ele>
        <time>2021-10-02T14:50:48.581Z</time>
      </trkpt>
      <trkpt lat="45.54048" lon="5.31038">
        <ele>346</ele>
        <time>2021-10-02T14:50:47.581Z</time>
      </trkpt>
      <trkpt lat="45.54041" lon="5.31036">
        <ele>346</ele>
        <time>2021-10-02T14:50:46.580Z</time>
      </trkpt>
      <trkpt lat="45.54034" lon="5.31035">
        <ele>346</ele>
        <time>2021-10-02T14:50:45.580Z</time>
      </trkpt>
      <trkpt lat="45.54026" lon="5.31033">
        <ele>346</ele>
        <time>2021-10-02T14:50:44.581Z</time>
      </trkpt>
      <trkpt lat="45.54019" lon="5.31031">
        <ele>346</ele>
        <time>2021-10-02T14:50:43.581Z</time>
      </trkpt>
      <trkpt lat="45.54012" lon="5.3103">
        <ele>346</ele>
        <time>2021-10-02T14:50:42.581Z</time>
      </trkpt>
      <trkpt lat="45.54005" lon="5.31028">
        <ele>346</ele>
        <time>2021-10-02T14:50:41.580Z</time>
      </trkpt>
      <trkpt lat="45.53996" lon="5.31026">
        <ele>347</ele>
        <time>2021-10-02T14:50:40.580Z</time>
      </trkpt>
      <trkpt lat="45.53991" lon="5.31025">
        <ele>347</ele>
        <time>2021-10-02T14:50:39.581Z</time>
      </trkpt>
      <trkpt lat="45.53984" lon="5.31023">
        <ele>347</ele>
        <time>2021-10-02T14:50:38.580Z</time>
      </trkpt>
      <trkpt lat="45.53978" lon="5.31022">
        <ele>348</ele>
        <time>2021-10-02T14:50:37.581Z</time>
      </trkpt>
      <trkpt lat="45.53971" lon="5.31021">
        <ele>348</ele>
        <time>2021-10-02T14:50:36.580Z</time>
      </trkpt>
      <trkpt lat="45.53965" lon="5.3102">
        <ele>349</ele>
        <time>2021-10-02T14:50:35.581Z</time>
      </trkpt>
      <trkpt lat="45.53958" lon="5.31019">
        <ele>349</ele>
        <time>2021-10-02T14:50:34.581Z</time>
      </trkpt>
      <trkpt lat="45.53952" lon="5.31017">
        <ele>349</ele>
        <time>2021-10-02T14:50:33.580Z</time>
      </trkpt>
      <trkpt lat="45.53946" lon="5.31016">
        <ele>350</ele>
        <time>2021-10-02T14:50:32.581Z</time>
      </trkpt>
      <trkpt lat="45.53939" lon="5.31014">
        <ele>350</ele>
        <time>2021-10-02T14:50:31.581Z</time>
      </trkpt>
      <trkpt lat="45.53933" lon="5.31013">
        <ele>350</ele>
        <time>2021-10-02T14:50:30.581Z</time>
      </trkpt>
      <trkpt lat="45.53926" lon="5.31012">
        <ele>351</ele>
        <time>2021-10-02T14:50:29.580Z</time>
      </trkpt>
      <trkpt lat="45.53922" lon="5.31011">
        <ele>351</ele>
        <time>2021-10-02T14:50:28.581Z</time>
      </trkpt>
      <trkpt lat="45.53917" lon="5.31011">
        <ele>351</ele>
        <time>2021-10-02T14:50:27.581Z</time>
        <extensions>
          <visugpx:TrkExtension xmlns:visugpx="https://www.visugpx.com/editgpx/">
            <visugpx:node>9</visugpx:node>
            </visugpx:TrkExtension>
        </extensions>
      </trkpt>
      <trkpt lat="45.53897" lon="5.3101">
        <ele>349.7</ele>
      </trkpt>
      <trkpt lat="45.53833" lon="5.31001">
        <ele>351.9</ele>
      </trkpt>
      <trkpt lat="45.53809" lon="5.30997">
        <ele>353</ele>
      </trkpt>
      <trkpt lat="45.53797" lon="5.30998">
        <ele>353.1</ele>
      </trkpt>
      <trkpt lat="45.5373" lon="5.31">
        <ele>355.4</ele>
      </trkpt>
      <trkpt lat="45.5368" lon="5.31006">
        <ele>357.9</ele>
      </trkpt>
      <trkpt lat="45.53611" lon="5.31015">
        <ele>361.9</ele>
      </trkpt>
      <trkpt lat="45.53552" lon="5.31018">
        <ele>365.2</ele>
      </trkpt>
      <trkpt lat="45.53512" lon="5.31015">
        <ele>366.4</ele>
      </trkpt>
      <trkpt lat="45.53471" lon="5.31006">
        <ele>367.6</ele>
      </trkpt>
      <trkpt lat="45.53444" lon="5.30995">
        <ele>369.7</ele>
      </trkpt>
      <trkpt lat="45.53407" lon="5.30968">
        <ele>369.4</ele>
      </trkpt>
      <trkpt lat="45.53359" lon="5.30925">
        <ele>370.3</ele>
      </trkpt>
      <trkpt lat="45.5329" lon="5.30868">
        <ele>371.4</ele>
      </trkpt>
      <trkpt lat="45.53276" lon="5.30854">
        <ele>371.1</ele>
      </trkpt>
      <trkpt lat="45.53272" lon="5.30851">
        <ele>370.9</ele>
      </trkpt>
      <trkpt lat="45.53238" lon="5.3083">
        <ele>369.9</ele>
      </trkpt>
      <trkpt lat="45.53176" lon="5.30803">
        <ele>367.4</ele>
      </trkpt>
      <trkpt lat="45.53141" lon="5.30787">
        <ele>364.8</ele>
      </trkpt>
      <trkpt lat="45.53124" lon="5.30779">
        <ele>366.5</ele>
      </trkpt>
      <trkpt lat="45.53115" lon="5.30775">
        <ele>366.5</ele>
      </trkpt>
      <trkpt lat="45.53099" lon="5.30767">
        <ele>365.4</ele>
      </trkpt>
      <trkpt lat="45.53097" lon="5.30771">
        <ele>366</ele>
      </trkpt>
      <trkpt lat="45.53084" lon="5.30782">
        <ele>367.1</ele>
      </trkpt>
      <trkpt lat="45.53032" lon="5.30817">
        <ele>370.5</ele>
      </trkpt>
      <trkpt lat="45.53002" lon="5.30845">
        <ele>377.1</ele>
      </trkpt>
      <trkpt lat="45.52927" lon="5.30919">
        <ele>387.8</ele>
      </trkpt>
      <trkpt lat="45.52905" lon="5.30949">
        <ele>391.6</ele>
      </trkpt>
      <trkpt lat="45.52851" lon="5.30953">
        <ele>394.7</ele>
      </trkpt>
      <trkpt lat="45.52837" lon="5.31008">
        <ele>405.8</ele>
      </trkpt>
      <trkpt lat="45.52808" lon="5.31063">
        <ele>411.4</ele>
      </trkpt>
      <trkpt lat="45.52782" lon="5.31063">
        <ele>412.5</ele>
      </trkpt>
      <trkpt lat="45.52748" lon="5.31075">
        <ele>419.8</ele>
      </trkpt>
      <trkpt lat="45.52666" lon="5.31095">
        <ele>434.9</ele>
      </trkpt>
      <trkpt lat="45.52635" lon="5.31116">
        <ele>440.1</ele>
      </trkpt>
      <trkpt lat="45.52628" lon="5.31121">
        <ele>442.3</ele>
      </trkpt>
      <trkpt lat="45.52623" lon="5.31133">
        <ele>443.6</ele>
      </trkpt>
      <trkpt lat="45.5262" lon="5.31154">
        <ele>444.8</ele>
      </trkpt>
      <trkpt lat="45.52623" lon="5.31246">
        <ele>451.9</ele>
      </trkpt>
      <trkpt lat="45.52614" lon="5.31272">
        <ele>457</ele>
      </trkpt>
      <trkpt lat="45.52599" lon="5.31291">
        <ele>460.9</ele>
      </trkpt>
      <trkpt lat="45.52548" lon="5.31303">
        <ele>466</ele>
      </trkpt>
      <trkpt lat="45.5258" lon="5.31248">
        <ele>464.4</ele>
      </trkpt>
      <trkpt lat="45.52582" lon="5.31244">
        <ele>463.8</ele>
      </trkpt>
      <trkpt lat="45.52581" lon="5.31238">
        <ele>463.5</ele>
        <extensions>
          <visugpx:TrkExtension xmlns:visugpx="https://www.visugpx.com/editgpx/">
            <visugpx:node>10</visugpx:node>
            </visugpx:TrkExtension>
        </extensions>
      </trkpt>
      <trkpt lat="45.52582" lon="5.31244">
        <ele>463.8</ele>
      </trkpt>
      <trkpt lat="45.5258" lon="5.31248">
        <ele>464.4</ele>
      </trkpt>
      <trkpt lat="45.52548" lon="5.31303">
        <ele>466</ele>
      </trkpt>
      <trkpt lat="45.52513" lon="5.31357">
        <ele>468.5</ele>
      </trkpt>
      <trkpt lat="45.52514" lon="5.31374">
        <ele>469.4</ele>
      </trkpt>
      <trkpt lat="45.52561" lon="5.31437">
        <ele>471.5</ele>
      </trkpt>
      <trkpt lat="45.52508" lon="5.31494">
        <ele>473.7</ele>
      </trkpt>
      <trkpt lat="45.52495" lon="5.31546">
        <ele>474.5</ele>
      </trkpt>
      <trkpt lat="45.52423" lon="5.31597">
        <ele>475.5</ele>
      </trkpt>
      <trkpt lat="45.52371" lon="5.31651">
        <ele>481.1</ele>
      </trkpt>
      <trkpt lat="45.52356" lon="5.31702">
        <ele>483.5</ele>
      </trkpt>
      <trkpt lat="45.52323" lon="5.31776">
        <ele>487.3</ele>
      </trkpt>
      <trkpt lat="45.52299" lon="5.31817">
        <ele>487.1</ele>
      </trkpt>
      <trkpt lat="45.52266" lon="5.31847">
        <ele>488.8</ele>
      </trkpt>
      <trkpt lat="45.52247" lon="5.31886">
        <ele>490.2</ele>
      </trkpt>
      <trkpt lat="45.52163" lon="5.31927">
        <ele>496.2</ele>
      </trkpt>
      <trkpt lat="45.52048" lon="5.32035">
        <ele>499.6</ele>
      </trkpt>
      <trkpt lat="45.5197" lon="5.32081">
        <ele>501.1</ele>
      </trkpt>
      <trkpt lat="45.51913" lon="5.32124">
        <ele>497.7</ele>
      </trkpt>
      <trkpt lat="45.5191" lon="5.32131">
        <ele>497.6</ele>
      </trkpt>
      <trkpt lat="45.51914" lon="5.32221">
        <ele>502</ele>
      </trkpt>
      <trkpt lat="45.51908" lon="5.32283">
        <ele>502</ele>
      </trkpt>
      <trkpt lat="45.51898" lon="5.3235">
        <ele>501.5</ele>
      </trkpt>
      <trkpt lat="45.51878" lon="5.3246">
        <ele>502</ele>
      </trkpt>
      <trkpt lat="45.51866" lon="5.32485">
        <ele>502.5</ele>
      </trkpt>
      <trkpt lat="45.51863" lon="5.32509">
        <ele>503.3</ele>
      </trkpt>
      <trkpt lat="45.51859" lon="5.326">
        <ele>503.9</ele>
      </trkpt>
      <trkpt lat="45.51853" lon="5.32641">
        <ele>504</ele>
      </trkpt>
      <trkpt lat="45.51846" lon="5.32664">
        <ele>504</ele>
      </trkpt>
      <trkpt lat="45.51828" lon="5.32704">
        <ele>504.3</ele>
      </trkpt>
      <trkpt lat="45.51767" lon="5.32817">
        <ele>505.3</ele>
      </trkpt>
      <trkpt lat="45.51751" lon="5.3287">
        <ele>506</ele>
      </trkpt>
      <trkpt lat="45.5174" lon="5.32916">
        <ele>507</ele>
      </trkpt>
      <trkpt lat="45.51719" lon="5.32972">
        <ele>508.1</ele>
      </trkpt>
      <trkpt lat="45.51669" lon="5.32964">
        <ele>509.6</ele>
      </trkpt>
      <trkpt lat="45.51641" lon="5.32965">
        <ele>509.1</ele>
      </trkpt>
      <trkpt lat="45.51593" lon="5.32966">
        <ele>508</ele>
      </trkpt>
      <trkpt lat="45.51566" lon="5.32956">
        <ele>507</ele>
      </trkpt>
      <trkpt lat="45.51558" lon="5.32957">
        <ele>506.6</ele>
      </trkpt>
      <trkpt lat="45.51551" lon="5.3296">
        <ele>506.5</ele>
      </trkpt>
      <trkpt lat="45.51531" lon="5.32968">
        <ele>506.1</ele>
      </trkpt>
      <trkpt lat="45.51508" lon="5.3297">
        <ele>506</ele>
      </trkpt>
      <trkpt lat="45.51491" lon="5.32971">
        <ele>506</ele>
      </trkpt>
      <trkpt lat="45.51478" lon="5.3297">
        <ele>506</ele>
      </trkpt>
      <trkpt lat="45.5146" lon="5.32967">
        <ele>506.8</ele>
      </trkpt>
      <trkpt lat="45.514" lon="5.32956">
        <ele>508</ele>
      </trkpt>
      <trkpt lat="45.5138" lon="5.32953">
        <ele>507.8</ele>
      </trkpt>
      <trkpt lat="45.51339" lon="5.32949">
        <ele>507.2</ele>
      </trkpt>
      <trkpt lat="45.51251" lon="5.32925">
        <ele>504.3</ele>
      </trkpt>
      <trkpt lat="45.51247" lon="5.32925">
        <ele>504.2</ele>
      </trkpt>
      <trkpt lat="45.51192" lon="5.3291">
        <ele>501.5</ele>
      </trkpt>
      <trkpt lat="45.51178" lon="5.32901">
        <ele>501.2</ele>
      </trkpt>
      <trkpt lat="45.51166" lon="5.32892">
        <ele>501.1</ele>
      </trkpt>
      <trkpt lat="45.51141" lon="5.32873">
        <ele>501.9</ele>
      </trkpt>
      <trkpt lat="45.51132" lon="5.32866">
        <ele>501.3</ele>
      </trkpt>
      <trkpt lat="45.51123" lon="5.32861">
        <ele>500.3</ele>
      </trkpt>
      <trkpt lat="45.51114" lon="5.32862">
        <ele>499.4</ele>
      </trkpt>
      <trkpt lat="45.51102" lon="5.32872">
        <ele>498.5</ele>
      </trkpt>
      <trkpt lat="45.51069" lon="5.32925">
        <ele>496.5</ele>
        <extensions>
          <visugpx:TrkExtension xmlns:visugpx="https://www.visugpx.com/editgpx/">
            <visugpx:node>11</visugpx:node>
            </visugpx:TrkExtension>
        </extensions>
      </trkpt>
      <trkpt lat="45.51102" lon="5.32872">
        <ele>498.5</ele>
      </trkpt>
      <trkpt lat="45.51114" lon="5.32862">
        <ele>499.4</ele>
      </trkpt>
      <trkpt lat="45.51123" lon="5.32861">
        <ele>500.3</ele>
      </trkpt>
      <trkpt lat="45.51132" lon="5.32866">
        <ele>501.3</ele>
      </trkpt>
      <trkpt lat="45.51097" lon="5.33004">
        <ele>504.6</ele>
      </trkpt>
      <trkpt lat="45.51081" lon="5.33067">
        <ele>506.2</ele>
      </trkpt>
      <trkpt lat="45.51071" lon="5.33138">
        <ele>509</ele>
      </trkpt>
      <trkpt lat="45.51075" lon="5.33216">
        <ele>511.5</ele>
      </trkpt>
      <trkpt lat="45.51066" lon="5.33648">
        <ele>513.1</ele>
      </trkpt>
      <trkpt lat="45.51078" lon="5.33899">
        <ele>515</ele>
      </trkpt>
      <trkpt lat="45.51079" lon="5.33919">
        <ele>515.1</ele>
      </trkpt>
      <trkpt lat="45.51082" lon="5.3397">
        <ele>516</ele>
      </trkpt>
      <trkpt lat="45.51083" lon="5.34021">
        <ele>517</ele>
      </trkpt>
      <trkpt lat="45.51079" lon="5.3405">
        <ele>517.6</ele>
      </trkpt>
      <trkpt lat="45.51053" lon="5.34136">
        <ele>518</ele>
      </trkpt>
      <trkpt lat="45.51047" lon="5.34185">
        <ele>518</ele>
      </trkpt>
      <trkpt lat="45.51045" lon="5.34325">
        <ele>520.1</ele>
      </trkpt>
      <trkpt lat="45.51043" lon="5.34382">
        <ele>522.2</ele>
        <extensions>
          <visugpx:TrkExtension xmlns:visugpx="https://www.visugpx.com/editgpx/">
            <visugpx:node>12</visugpx:node>
            </visugpx:TrkExtension>
        </extensions>
      </trkpt>
      <trkpt lat="45.51067" lon="5.3551">
        <ele>570</ele>
        <time>2021-10-02T14:43:36.580Z</time>
        <extensions>
          <visugpx:TrkExtension xmlns:visugpx="https://www.visugpx.com/editgpx/">
            <visugpx:node>9</visugpx:node>
            </visugpx:TrkExtension>
        </extensions>
      </trkpt>
      <trkpt lat="45.51066" lon="5.35522">
        <ele>570</ele>
        <time>2021-10-02T14:43:35.581Z</time>
      </trkpt>
      <trkpt lat="45.51065" lon="5.35534">
        <ele>570</ele>
        <time>2021-10-02T14:43:34.581Z</time>
      </trkpt>
      <trkpt lat="45.51063" lon="5.35545">
        <ele>570</ele>
        <time>2021-10-02T14:43:33.580Z</time>
      </trkpt>
      <trkpt lat="45.51062" lon="5.35557">
        <ele>570</ele>
        <time>2021-10-02T14:43:32.580Z</time>
      </trkpt>
      <trkpt lat="45.51061" lon="5.35569">
        <ele>569</ele>
        <time>2021-10-02T14:43:31.581Z</time>
      </trkpt>
      <trkpt lat="45.51059" lon="5.3558">
        <ele>569</ele>
        <time>2021-10-02T14:43:30.581Z</time>
      </trkpt>
      <trkpt lat="45.51058" lon="5.35592">
        <ele>569</ele>
        <time>2021-10-02T14:43:29.580Z</time>
      </trkpt>
      <trkpt lat="45.51057" lon="5.35603">
        <ele>569</ele>
        <time>2021-10-02T14:43:28.581Z</time>
      </trkpt>
      <trkpt lat="45.51055" lon="5.35615">
        <ele>569</ele>
        <time>2021-10-02T14:43:27.581Z</time>
      </trkpt>
      <trkpt lat="45.51054" lon="5.35626">
        <ele>569</ele>
        <time>2021-10-02T14:43:26.580Z</time>
      </trkpt>
      <trkpt lat="45.51052" lon="5.35638">
        <ele>569</ele>
        <time>2021-10-02T14:43:25.581Z</time>
      </trkpt>
      <trkpt lat="45.51051" lon="5.3565">
        <ele>569</ele>
        <time>2021-10-02T14:43:24.581Z</time>
      </trkpt>
      <trkpt lat="45.5105" lon="5.35662">
        <ele>568</ele>
        <time>2021-10-02T14:43:23.581Z</time>
      </trkpt>
      <trkpt lat="45.51048" lon="5.35674">
        <ele>568</ele>
        <time>2021-10-02T14:43:22.581Z</time>
      </trkpt>
      <trkpt lat="45.51047" lon="5.35685">
        <ele>569</ele>
        <time>2021-10-02T14:43:21.581Z</time>
      </trkpt>
      <trkpt lat="45.51045" lon="5.35697">
        <ele>569</ele>
        <time>2021-10-02T14:43:20.581Z</time>
      </trkpt>
      <trkpt lat="45.51044" lon="5.35709">
        <ele>569</ele>
        <time>2021-10-02T14:43:19.581Z</time>
      </trkpt>
      <trkpt lat="45.51043" lon="5.3572">
        <ele>569</ele>
        <time>2021-10-02T14:43:18.580Z</time>
      </trkpt>
      <trkpt lat="45.51041" lon="5.35732">
        <ele>569</ele>
        <time>2021-10-02T14:43:17.581Z</time>
      </trkpt>
      <trkpt lat="45.5104" lon="5.35744">
        <ele>569</ele>
        <time>2021-10-02T14:43:16.581Z</time>
      </trkpt>
      <trkpt lat="45.51038" lon="5.35755">
        <ele>570</ele>
        <time>2021-10-02T14:43:15.581Z</time>
      </trkpt>
      <trkpt lat="45.51037" lon="5.35767">
        <ele>570</ele>
        <time>2021-10-02T14:43:14.581Z</time>
      </trkpt>
      <trkpt lat="45.51035" lon="5.35779">
        <ele>570</ele>
        <time>2021-10-02T14:43:13.580Z</time>
      </trkpt>
      <trkpt lat="45.51034" lon="5.35791">
        <ele>570</ele>
        <time>2021-10-02T14:43:12.580Z</time>
      </trkpt>
      <trkpt lat="45.51033" lon="5.35803">
        <ele>570</ele>
        <time>2021-10-02T14:43:11.580Z</time>
      </trkpt>
      <trkpt lat="45.51031" lon="5.35815">
        <ele>570</ele>
        <time>2021-10-02T14:43:10.581Z</time>
      </trkpt>
      <trkpt lat="45.5103" lon="5.35827">
        <ele>569</ele>
        <time>2021-10-02T14:43:09.581Z</time>
      </trkpt>
      <trkpt lat="45.51029" lon="5.35839">
        <ele>569</ele>
        <time>2021-10-02T14:43:08.581Z</time>
      </trkpt>
      <trkpt lat="45.51027" lon="5.35851">
        <ele>568</ele>
        <time>2021-10-02T14:43:07.581Z</time>
      </trkpt>
      <trkpt lat="45.51026" lon="5.35863">
        <ele>568</ele>
        <time>2021-10-02T14:43:06.581Z</time>
      </trkpt>
      <trkpt lat="45.51024" lon="5.35878">
        <ele>568</ele>
        <time>2021-10-02T14:43:05.581Z</time>
      </trkpt>
      <trkpt lat="45.51023" lon="5.35889">
        <ele>569</ele>
        <time>2021-10-02T14:43:04.580Z</time>
      </trkpt>
      <trkpt lat="45.51022" lon="5.35899">
        <ele>569</ele>
        <time>2021-10-02T14:43:03.581Z</time>
      </trkpt>
      <trkpt lat="45.5102" lon="5.35911">
        <ele>569</ele>
        <time>2021-10-02T14:43:02.580Z</time>
      </trkpt>
      <trkpt lat="45.51019" lon="5.35924">
        <ele>569</ele>
        <time>2021-10-02T14:43:01.581Z</time>
      </trkpt>
      <trkpt lat="45.51017" lon="5.35939">
        <ele>569</ele>
        <time>2021-10-02T14:43:00.581Z</time>
      </trkpt>
      <trkpt lat="45.51016" lon="5.35951">
        <ele>569</ele>
        <time>2021-10-02T14:42:59.581Z</time>
      </trkpt>
      <trkpt lat="45.51014" lon="5.35963">
        <ele>569</ele>
        <time>2021-10-02T14:42:58.581Z</time>
      </trkpt>
      <trkpt lat="45.51013" lon="5.35973">
        <ele>569</ele>
        <time>2021-10-02T14:42:57.580Z</time>
      </trkpt>
      <trkpt lat="45.51011" lon="5.35985">
        <ele>570</ele>
        <time>2021-10-02T14:42:56.580Z</time>
      </trkpt>
      <trkpt lat="45.5101" lon="5.35997">
        <ele>570</ele>
        <time>2021-10-02T14:42:55.581Z</time>
      </trkpt>
      <trkpt lat="45.51008" lon="5.36009">
        <ele>570</ele>
        <time>2021-10-02T14:42:54.581Z</time>
      </trkpt>
      <trkpt lat="45.51007" lon="5.36021">
        <ele>571</ele>
        <time>2021-10-02T14:42:53.580Z</time>
      </trkpt>
      <trkpt lat="45.51005" lon="5.36033">
        <ele>571</ele>
        <time>2021-10-02T14:42:52.581Z</time>
      </trkpt>
      <trkpt lat="45.51004" lon="5.36045">
        <ele>571</ele>
        <time>2021-10-02T14:42:51.581Z</time>
      </trkpt>
      <trkpt lat="45.51003" lon="5.36057">
        <ele>571</ele>
        <time>2021-10-02T14:42:50.581Z</time>
      </trkpt>
      <trkpt lat="45.51001" lon="5.36069">
        <ele>572</ele>
        <time>2021-10-02T14:42:49.580Z</time>
      </trkpt>
      <trkpt lat="45.50999" lon="5.36082">
        <ele>572</ele>
        <time>2021-10-02T14:42:48.581Z</time>
      </trkpt>
      <trkpt lat="45.50998" lon="5.36094">
        <ele>573</ele>
        <time>2021-10-02T14:42:47.580Z</time>
      </trkpt>
      <trkpt lat="45.50996" lon="5.36106">
        <ele>573</ele>
        <time>2021-10-02T14:42:46.581Z</time>
      </trkpt>
      <trkpt lat="45.50995" lon="5.36118">
        <ele>573</ele>
        <time>2021-10-02T14:42:45.581Z</time>
      </trkpt>
      <trkpt lat="45.50993" lon="5.3613">
        <ele>573</ele>
        <time>2021-10-02T14:42:44.581Z</time>
      </trkpt>
      <trkpt lat="45.50992" lon="5.36142">
        <ele>573</ele>
        <time>2021-10-02T14:42:43.581Z</time>
      </trkpt>
      <trkpt lat="45.5099" lon="5.36154">
        <ele>573</ele>
        <time>2021-10-02T14:42:42.581Z</time>
      </trkpt>
      <trkpt lat="45.50989" lon="5.36167">
        <ele>573</ele>
        <time>2021-10-02T14:42:41.580Z</time>
      </trkpt>
      <trkpt lat="45.50987" lon="5.36181">
        <ele>573</ele>
        <time>2021-10-02T14:42:40.581Z</time>
      </trkpt>
      <trkpt lat="45.50986" lon="5.3619">
        <ele>573</ele>
        <time>2021-10-02T14:42:39.580Z</time>
      </trkpt>
      <trkpt lat="45.50985" lon="5.36202">
        <ele>573</ele>
        <time>2021-10-02T14:42:38.581Z</time>
      </trkpt>
      <trkpt lat="45.50983" lon="5.36214">
        <ele>574</ele>
        <time>2021-10-02T14:42:37.580Z</time>
      </trkpt>
      <trkpt lat="45.50982" lon="5.36225">
        <ele>575</ele>
        <time>2021-10-02T14:42:36.581Z</time>
      </trkpt>
      <trkpt lat="45.5098" lon="5.36239">
        <ele>575</ele>
        <time>2021-10-02T14:42:35.581Z</time>
      </trkpt>
      <trkpt lat="45.50979" lon="5.36248">
        <ele>575</ele>
        <time>2021-10-02T14:42:34.581Z</time>
      </trkpt>
      <trkpt lat="45.50977" lon="5.36259">
        <ele>575</ele>
        <time>2021-10-02T14:42:33.580Z</time>
      </trkpt>
      <trkpt lat="45.50976" lon="5.36271">
        <ele>575</ele>
        <time>2021-10-02T14:42:32.580Z</time>
      </trkpt>
      <trkpt lat="45.50974" lon="5.36283">
        <ele>575</ele>
        <time>2021-10-02T14:42:31.580Z</time>
      </trkpt>
      <trkpt lat="45.50973" lon="5.36294">
        <ele>575</ele>
        <time>2021-10-02T14:42:30.581Z</time>
      </trkpt>
      <trkpt lat="45.50971" lon="5.36308">
        <ele>575</ele>
        <time>2021-10-02T14:42:29.581Z</time>
      </trkpt>
      <trkpt lat="45.5097" lon="5.36317">
        <ele>574</ele>
        <time>2021-10-02T14:42:28.581Z</time>
      </trkpt>
      <trkpt lat="45.50969" lon="5.36329">
        <ele>574</ele>
        <time>2021-10-02T14:42:27.580Z</time>
      </trkpt>
      <trkpt lat="45.50967" lon="5.3634">
        <ele>574</ele>
        <time>2021-10-02T14:42:26.580Z</time>
      </trkpt>
      <trkpt lat="45.50966" lon="5.36352">
        <ele>574</ele>
        <time>2021-10-02T14:42:25.580Z</time>
      </trkpt>
      <trkpt lat="45.50964" lon="5.36363">
        <ele>574</ele>
        <time>2021-10-02T14:42:24.581Z</time>
      </trkpt>
      <trkpt lat="45.50963" lon="5.36376">
        <ele>575</ele>
        <time>2021-10-02T14:42:23.581Z</time>
      </trkpt>
      <trkpt lat="45.50962" lon="5.36385">
        <ele>575</ele>
        <time>2021-10-02T14:42:22.581Z</time>
      </trkpt>
      <trkpt lat="45.5096" lon="5.36397">
        <ele>575</ele>
        <time>2021-10-02T14:42:21.580Z</time>
      </trkpt>
      <trkpt lat="45.50959" lon="5.36409">
        <ele>575</ele>
        <time>2021-10-02T14:42:20.581Z</time>
      </trkpt>
      <trkpt lat="45.50957" lon="5.36422">
        <ele>575</ele>
        <time>2021-10-02T14:42:19.580Z</time>
      </trkpt>
      <trkpt lat="45.50956" lon="5.36431">
        <ele>576</ele>
        <time>2021-10-02T14:42:18.580Z</time>
      </trkpt>
      <trkpt lat="45.50955" lon="5.36443">
        <ele>576</ele>
        <time>2021-10-02T14:42:17.581Z</time>
      </trkpt>
      <trkpt lat="45.50953" lon="5.36455">
        <ele>576</ele>
        <time>2021-10-02T14:42:16.581Z</time>
      </trkpt>
      <trkpt lat="45.50952" lon="5.36467">
        <ele>576</ele>
        <time>2021-10-02T14:42:15.581Z</time>
      </trkpt>
      <trkpt lat="45.50951" lon="5.36479">
        <ele>576</ele>
        <time>2021-10-02T14:42:14.580Z</time>
      </trkpt>
      <trkpt lat="45.5095" lon="5.3649">
        <ele>576</ele>
        <time>2021-10-02T14:42:13.581Z</time>
      </trkpt>
      <trkpt lat="45.50949" lon="5.36502">
        <ele>576</ele>
        <time>2021-10-02T14:42:12.581Z</time>
      </trkpt>
      <trkpt lat="45.50948" lon="5.36513">
        <ele>576</ele>
        <time>2021-10-02T14:42:11.581Z</time>
      </trkpt>
      <trkpt lat="45.50947" lon="5.36525">
        <ele>576</ele>
        <time>2021-10-02T14:42:10.581Z</time>
      </trkpt>
      <trkpt lat="45.50945" lon="5.36537">
        <ele>575</ele>
        <time>2021-10-02T14:42:09.580Z</time>
      </trkpt>
      <trkpt lat="45.50944" lon="5.36548">
        <ele>576</ele>
        <time>2021-10-02T14:42:08.581Z</time>
      </trkpt>
      <trkpt lat="45.50943" lon="5.36559">
        <ele>576</ele>
        <time>2021-10-02T14:42:07.580Z</time>
      </trkpt>
      <trkpt lat="45.50941" lon="5.36571">
        <ele>577</ele>
        <time>2021-10-02T14:42:06.581Z</time>
      </trkpt>
      <trkpt lat="45.5094" lon="5.36582">
        <ele>577</ele>
        <time>2021-10-02T14:42:05.581Z</time>
      </trkpt>
      <trkpt lat="45.50939" lon="5.36593">
        <ele>577</ele>
        <time>2021-10-02T14:42:04.580Z</time>
      </trkpt>
      <trkpt lat="45.50937" lon="5.36604">
        <ele>577</ele>
        <time>2021-10-02T14:42:03.580Z</time>
      </trkpt>
      <trkpt lat="45.50936" lon="5.36615">
        <ele>577</ele>
        <time>2021-10-02T14:42:02.581Z</time>
      </trkpt>
      <trkpt lat="45.50935" lon="5.36627">
        <ele>577</ele>
        <time>2021-10-02T14:42:01.581Z</time>
      </trkpt>
      <trkpt lat="45.50934" lon="5.36638">
        <ele>577</ele>
        <time>2021-10-02T14:42:00.580Z</time>
      </trkpt>
      <trkpt lat="45.50932" lon="5.3665">
        <ele>578</ele>
        <time>2021-10-02T14:41:59.580Z</time>
      </trkpt>
      <trkpt lat="45.50931" lon="5.36664">
        <ele>578</ele>
        <time>2021-10-02T14:41:58.581Z</time>
      </trkpt>
      <trkpt lat="45.5093" lon="5.36674">
        <ele>579</ele>
        <time>2021-10-02T14:41:57.581Z</time>
      </trkpt>
      <trkpt lat="45.50928" lon="5.36685">
        <ele>580</ele>
        <time>2021-10-02T14:41:56.581Z</time>
      </trkpt>
      <trkpt lat="45.50927" lon="5.36697">
        <ele>580</ele>
        <time>2021-10-02T14:41:55.581Z</time>
      </trkpt>
      <trkpt lat="45.50925" lon="5.36709">
        <ele>580</ele>
        <time>2021-10-02T14:41:54.580Z</time>
      </trkpt>
      <trkpt lat="45.50924" lon="5.36723">
        <ele>580</ele>
        <time>2021-10-02T14:41:53.581Z</time>
      </trkpt>
      <trkpt lat="45.50923" lon="5.36732">
        <ele>581</ele>
        <time>2021-10-02T14:41:52.580Z</time>
      </trkpt>
      <trkpt lat="45.50922" lon="5.36744">
        <ele>581</ele>
        <time>2021-10-02T14:41:51.581Z</time>
      </trkpt>
      <trkpt lat="45.5092" lon="5.36755">
        <ele>581</ele>
        <time>2021-10-02T14:41:50.580Z</time>
      </trkpt>
      <trkpt lat="45.50919" lon="5.36767">
        <ele>581</ele>
        <time>2021-10-02T14:41:49.581Z</time>
      </trkpt>
      <trkpt lat="45.50918" lon="5.36778">
        <ele>581</ele>
        <time>2021-10-02T14:41:48.581Z</time>
      </trkpt>
      <trkpt lat="45.50917" lon="5.3679">
        <ele>581</ele>
        <time>2021-10-02T14:41:47.581Z</time>
      </trkpt>
      <trkpt lat="45.50916" lon="5.36801">
        <ele>581</ele>
        <time>2021-10-02T14:41:46.581Z</time>
      </trkpt>
      <trkpt lat="45.50915" lon="5.36812">
        <ele>581</ele>
        <time>2021-10-02T14:41:45.580Z</time>
      </trkpt>
      <trkpt lat="45.50914" lon="5.36823">
        <ele>581</ele>
        <time>2021-10-02T14:41:44.581Z</time>
      </trkpt>
      <trkpt lat="45.50913" lon="5.36833">
        <ele>581</ele>
        <time>2021-10-02T14:41:43.580Z</time>
      </trkpt>
      <trkpt lat="45.50911" lon="5.36845">
        <ele>581</ele>
        <time>2021-10-02T14:41:42.581Z</time>
      </trkpt>
      <trkpt lat="45.50911" lon="5.36853">
        <ele>580</ele>
        <time>2021-10-02T14:41:41.581Z</time>
      </trkpt>
      <trkpt lat="45.5091" lon="5.36863">
        <ele>580</ele>
        <time>2021-10-02T14:41:40.581Z</time>
      </trkpt>
      <trkpt lat="45.50909" lon="5.36872">
        <ele>580</ele>
        <time>2021-10-02T14:41:39.580Z</time>
      </trkpt>
      <trkpt lat="45.50907" lon="5.36883">
        <ele>580</ele>
        <time>2021-10-02T14:41:38.581Z</time>
      </trkpt>
      <trkpt lat="45.50906" lon="5.36892">
        <ele>579</ele>
        <time>2021-10-02T14:41:37.581Z</time>
      </trkpt>
      <trkpt lat="45.50905" lon="5.369">
        <ele>579</ele>
        <time>2021-10-02T14:41:36.580Z</time>
      </trkpt>
      <trkpt lat="45.50905" lon="5.36907">
        <ele>580</ele>
        <time>2021-10-02T14:41:35.580Z</time>
      </trkpt>
      <trkpt lat="45.50903" lon="5.36915">
        <ele>580</ele>
        <time>2021-10-02T14:41:34.581Z</time>
      </trkpt>
      <trkpt lat="45.50902" lon="5.36923">
        <ele>580</ele>
        <time>2021-10-02T14:41:33.580Z</time>
      </trkpt>
      <trkpt lat="45.509" lon="5.36931">
        <ele>580</ele>
        <time>2021-10-02T14:41:32.581Z</time>
      </trkpt>
      <trkpt lat="45.50898" lon="5.36938">
        <ele>580</ele>
        <time>2021-10-02T14:41:31.581Z</time>
      </trkpt>
      <trkpt lat="45.50896" lon="5.36945">
        <ele>580</ele>
        <time>2021-10-02T14:41:30.580Z</time>
      </trkpt>
      <trkpt lat="45.50893" lon="5.36952">
        <ele>580</ele>
        <time>2021-10-02T14:41:29.581Z</time>
      </trkpt>
      <trkpt lat="45.5089" lon="5.36958">
        <ele>580</ele>
        <time>2021-10-02T14:41:28.581Z</time>
      </trkpt>
      <trkpt lat="45.50887" lon="5.36964">
        <ele>580</ele>
        <time>2021-10-02T14:41:27.581Z</time>
      </trkpt>
      <trkpt lat="45.50884" lon="5.3697">
        <ele>580</ele>
        <time>2021-10-02T14:41:26.581Z</time>
      </trkpt>
      <trkpt lat="45.5088" lon="5.36976">
        <ele>580</ele>
        <time>2021-10-02T14:41:25.581Z</time>
      </trkpt>
      <trkpt lat="45.50876" lon="5.3698">
        <ele>581</ele>
        <time>2021-10-02T14:41:24.581Z</time>
      </trkpt>
      <trkpt lat="45.50872" lon="5.36985">
        <ele>581</ele>
        <time>2021-10-02T14:41:23.581Z</time>
      </trkpt>
      <trkpt lat="45.50869" lon="5.36988">
        <ele>582</ele>
        <time>2021-10-02T14:41:22.580Z</time>
      </trkpt>
      <trkpt lat="45.50866" lon="5.36991">
        <ele>582</ele>
        <time>2021-10-02T14:41:21.581Z</time>
      </trkpt>
      <trkpt lat="45.50863" lon="5.36992">
        <ele>582</ele>
        <time>2021-10-02T14:41:20.581Z</time>
      </trkpt>
      <trkpt lat="45.50861" lon="5.36992">
        <ele>582</ele>
        <time>2021-10-02T14:41:19.580Z</time>
      </trkpt>
      <trkpt lat="45.50859" lon="5.36991">
        <ele>583</ele>
        <time>2021-10-02T14:41:18.581Z</time>
      </trkpt>
      <trkpt lat="45.50857" lon="5.3699">
        <ele>583</ele>
        <time>2021-10-02T14:41:17.580Z</time>
      </trkpt>
      <trkpt lat="45.50855" lon="5.36989">
        <ele>583</ele>
        <time>2021-10-02T14:41:16.580Z</time>
      </trkpt>
      <trkpt lat="45.50853" lon="5.36987">
        <ele>583</ele>
        <time>2021-10-02T14:41:15.580Z</time>
      </trkpt>
      <trkpt lat="45.50851" lon="5.36984">
        <ele>583</ele>
        <time>2021-10-02T14:41:14.580Z</time>
      </trkpt>
      <trkpt lat="45.50849" lon="5.36981">
        <ele>583</ele>
        <time>2021-10-02T14:41:13.581Z</time>
      </trkpt>
      <trkpt lat="45.50848" lon="5.36979">
        <ele>583</ele>
        <time>2021-10-02T14:41:12.581Z</time>
      </trkpt>
      <trkpt lat="45.50845" lon="5.36975">
        <ele>583</ele>
        <time>2021-10-02T14:41:11.580Z</time>
      </trkpt>
      <trkpt lat="45.50843" lon="5.36973">
        <ele>584</ele>
        <time>2021-10-02T14:41:10.581Z</time>
      </trkpt>
      <trkpt lat="45.50841" lon="5.3697">
        <ele>584</ele>
        <time>2021-10-02T14:41:09.580Z</time>
      </trkpt>
      <trkpt lat="45.50836" lon="5.36967">
        <ele>584</ele>
        <time>2021-10-02T14:41:08.581Z</time>
      </trkpt>
      <trkpt lat="45.50832" lon="5.36964">
        <ele>584</ele>
        <time>2021-10-02T14:41:07.581Z</time>
      </trkpt>
      <trkpt lat="45.50828" lon="5.36961">
        <ele>584</ele>
        <time>2021-10-02T14:41:06.581Z</time>
      </trkpt>
      <trkpt lat="45.50824" lon="5.36959">
        <ele>584</ele>
        <time>2021-10-02T14:41:05.581Z</time>
      </trkpt>
      <trkpt lat="45.50818" lon="5.36956">
        <ele>585</ele>
        <time>2021-10-02T14:41:04.581Z</time>
      </trkpt>
      <trkpt lat="45.5081" lon="5.36952">
        <ele>584</ele>
        <time>2021-10-02T14:41:03.580Z</time>
      </trkpt>
      <trkpt lat="45.508" lon="5.36948">
        <ele>584</ele>
        <time>2021-10-02T14:41:02.580Z</time>
      </trkpt>
      <trkpt lat="45.50792" lon="5.36945">
        <ele>584</ele>
        <time>2021-10-02T14:41:01.581Z</time>
      </trkpt>
      <trkpt lat="45.50783" lon="5.36942">
        <ele>584</ele>
        <time>2021-10-02T14:41:00.581Z</time>
      </trkpt>
      <trkpt lat="45.50774" lon="5.36938">
        <ele>584</ele>
        <time>2021-10-02T14:40:59.580Z</time>
      </trkpt>
      <trkpt lat="45.50762" lon="5.36934">
        <ele>585</ele>
        <time>2021-10-02T14:40:58.580Z</time>
      </trkpt>
      <trkpt lat="45.50753" lon="5.36931">
        <ele>586</ele>
        <time>2021-10-02T14:40:57.581Z</time>
      </trkpt>
      <trkpt lat="45.50745" lon="5.36929">
        <ele>586</ele>
        <time>2021-10-02T14:40:56.581Z</time>
      </trkpt>
      <trkpt lat="45.50735" lon="5.36926">
        <ele>586</ele>
        <time>2021-10-02T14:40:55.581Z</time>
      </trkpt>
      <trkpt lat="45.50726" lon="5.36923">
        <ele>586</ele>
        <time>2021-10-02T14:40:54.581Z</time>
      </trkpt>
      <trkpt lat="45.50716" lon="5.36921">
        <ele>586</ele>
        <time>2021-10-02T14:40:53.581Z</time>
      </trkpt>
      <trkpt lat="45.50707" lon="5.36919">
        <ele>586</ele>
        <time>2021-10-02T14:40:52.581Z</time>
      </trkpt>
      <trkpt lat="45.50698" lon="5.36916">
        <ele>586</ele>
        <time>2021-10-02T14:40:51.581Z</time>
      </trkpt>
      <trkpt lat="45.50688" lon="5.36914">
        <ele>586</ele>
        <time>2021-10-02T14:40:50.581Z</time>
      </trkpt>
      <trkpt lat="45.50679" lon="5.36912">
        <ele>586</ele>
        <time>2021-10-02T14:40:49.581Z</time>
      </trkpt>
      <trkpt lat="45.50669" lon="5.36911">
        <ele>586</ele>
        <time>2021-10-02T14:40:48.580Z</time>
      </trkpt>
      <trkpt lat="45.5066" lon="5.3691">
        <ele>586</ele>
        <time>2021-10-02T14:40:47.581Z</time>
      </trkpt>
      <trkpt lat="45.5065" lon="5.36909">
        <ele>586</ele>
        <time>2021-10-02T14:40:46.581Z</time>
      </trkpt>
      <trkpt lat="45.50641" lon="5.36908">
        <ele>586</ele>
        <time>2021-10-02T14:40:45.581Z</time>
      </trkpt>
      <trkpt lat="45.50631" lon="5.36908">
        <ele>586</ele>
        <time>2021-10-02T14:40:44.581Z</time>
      </trkpt>
      <trkpt lat="45.50622" lon="5.36907">
        <ele>586</ele>
        <time>2021-10-02T14:40:43.581Z</time>
      </trkpt>
      <trkpt lat="45.50613" lon="5.36906">
        <ele>586</ele>
        <time>2021-10-02T14:40:42.580Z</time>
      </trkpt>
      <trkpt lat="45.50603" lon="5.36906">
        <ele>587</ele>
        <time>2021-10-02T14:40:41.581Z</time>
      </trkpt>
      <trkpt lat="45.50594" lon="5.36905">
        <ele>587</ele>
        <time>2021-10-02T14:40:40.581Z</time>
      </trkpt>
      <trkpt lat="45.50584" lon="5.36904">
        <ele>587</ele>
        <time>2021-10-02T14:40:39.581Z</time>
      </trkpt>
      <trkpt lat="45.50572" lon="5.36903">
        <ele>587</ele>
        <time>2021-10-02T14:40:38.581Z</time>
      </trkpt>
      <trkpt lat="45.50562" lon="5.36901">
        <ele>587</ele>
        <time>2021-10-02T14:40:37.580Z</time>
      </trkpt>
      <trkpt lat="45.50555" lon="5.369">
        <ele>587</ele>
        <time>2021-10-02T14:40:36.581Z</time>
      </trkpt>
      <trkpt lat="45.50545" lon="5.36898">
        <ele>588</ele>
        <time>2021-10-02T14:40:35.581Z</time>
      </trkpt>
      <trkpt lat="45.50535" lon="5.36896">
        <ele>589</ele>
        <time>2021-10-02T14:40:34.581Z</time>
      </trkpt>
      <trkpt lat="45.50525" lon="5.36894">
        <ele>589</ele>
        <time>2021-10-02T14:40:33.581Z</time>
      </trkpt>
      <trkpt lat="45.50515" lon="5.36892">
        <ele>590</ele>
        <time>2021-10-02T14:40:32.581Z</time>
      </trkpt>
      <trkpt lat="45.50505" lon="5.3689">
        <ele>591</ele>
        <time>2021-10-02T14:40:31.581Z</time>
      </trkpt>
      <trkpt lat="45.50496" lon="5.36887">
        <ele>592</ele>
        <time>2021-10-02T14:40:30.580Z</time>
      </trkpt>
      <trkpt lat="45.50484" lon="5.36884">
        <ele>592</ele>
        <time>2021-10-02T14:40:29.580Z</time>
      </trkpt>
      <trkpt lat="45.50475" lon="5.36881">
        <ele>592</ele>
        <time>2021-10-02T14:40:28.581Z</time>
      </trkpt>
      <trkpt lat="45.50468" lon="5.36879">
        <ele>593</ele>
        <time>2021-10-02T14:40:27.581Z</time>
      </trkpt>
      <trkpt lat="45.50459" lon="5.36876">
        <ele>593</ele>
        <time>2021-10-02T14:40:26.581Z</time>
      </trkpt>
      <trkpt lat="45.5045" lon="5.36872">
        <ele>593</ele>
        <time>2021-10-02T14:40:25.580Z</time>
      </trkpt>
      <trkpt lat="45.50441" lon="5.36868">
        <ele>593</ele>
        <time>2021-10-02T14:40:24.581Z</time>
      </trkpt>
      <trkpt lat="45.50434" lon="5.36865">
        <ele>593</ele>
        <time>2021-10-02T14:40:23.580Z</time>
      </trkpt>
      <trkpt lat="45.50426" lon="5.36862">
        <ele>593</ele>
        <time>2021-10-02T14:40:22.580Z</time>
      </trkpt>
      <trkpt lat="45.50419" lon="5.36858">
        <ele>593</ele>
        <time>2021-10-02T14:40:21.581Z</time>
      </trkpt>
      <trkpt lat="45.50411" lon="5.36854">
        <ele>593</ele>
        <time>2021-10-02T14:40:20.581Z</time>
      </trkpt>
      <trkpt lat="45.50404" lon="5.36851">
        <ele>593</ele>
        <time>2021-10-02T14:40:19.580Z</time>
      </trkpt>
      <trkpt lat="45.50397" lon="5.36846">
        <ele>593</ele>
        <time>2021-10-02T14:40:18.581Z</time>
      </trkpt>
      <trkpt lat="45.5039" lon="5.36843">
        <ele>593</ele>
        <time>2021-10-02T14:40:17.581Z</time>
      </trkpt>
      <trkpt lat="45.50382" lon="5.36839">
        <ele>593</ele>
        <time>2021-10-02T14:40:16.581Z</time>
      </trkpt>
      <trkpt lat="45.50375" lon="5.36835">
        <ele>593</ele>
        <time>2021-10-02T14:40:15.581Z</time>
      </trkpt>
      <trkpt lat="45.50368" lon="5.36831">
        <ele>593</ele>
        <time>2021-10-02T14:40:14.581Z</time>
      </trkpt>
      <trkpt lat="45.50361" lon="5.36828">
        <ele>593</ele>
        <time>2021-10-02T14:40:13.581Z</time>
      </trkpt>
      <trkpt lat="45.50354" lon="5.36824">
        <ele>593</ele>
        <time>2021-10-02T14:40:12.581Z</time>
      </trkpt>
      <trkpt lat="45.50348" lon="5.3682">
        <ele>592</ele>
        <time>2021-10-02T14:40:11.581Z</time>
      </trkpt>
      <trkpt lat="45.50342" lon="5.36816">
        <ele>592</ele>
        <time>2021-10-02T14:40:10.581Z</time>
      </trkpt>
      <trkpt lat="45.50336" lon="5.36812">
        <ele>592</ele>
        <time>2021-10-02T14:40:09.581Z</time>
      </trkpt>
      <trkpt lat="45.50329" lon="5.36809">
        <ele>592</ele>
        <time>2021-10-02T14:40:08.581Z</time>
      </trkpt>
      <trkpt lat="45.50323" lon="5.36806">
        <ele>592</ele>
        <time>2021-10-02T14:40:07.581Z</time>
      </trkpt>
      <trkpt lat="45.50317" lon="5.36803">
        <ele>592</ele>
        <time>2021-10-02T14:40:06.581Z</time>
      </trkpt>
      <trkpt lat="45.5031" lon="5.36799">
        <ele>592</ele>
        <time>2021-10-02T14:40:05.581Z</time>
      </trkpt>
      <trkpt lat="45.50303" lon="5.36796">
        <ele>592</ele>
        <time>2021-10-02T14:40:04.581Z</time>
      </trkpt>
      <trkpt lat="45.50296" lon="5.36793">
        <ele>592</ele>
        <time>2021-10-02T14:40:03.581Z</time>
      </trkpt>
      <trkpt lat="45.50289" lon="5.36789">
        <ele>592</ele>
        <time>2021-10-02T14:40:02.581Z</time>
      </trkpt>
      <trkpt lat="45.50282" lon="5.36786">
        <ele>592</ele>
        <time>2021-10-02T14:40:01.581Z</time>
      </trkpt>
      <trkpt lat="45.50275" lon="5.36783">
        <ele>592</ele>
        <time>2021-10-02T14:40:00.580Z</time>
      </trkpt>
      <trkpt lat="45.50268" lon="5.36779">
        <ele>592</ele>
        <time>2021-10-02T14:39:59.581Z</time>
      </trkpt>
      <trkpt lat="45.50261" lon="5.36776">
        <ele>592</ele>
        <time>2021-10-02T14:39:58.580Z</time>
      </trkpt>
      <trkpt lat="45.50254" lon="5.36773">
        <ele>592</ele>
        <time>2021-10-02T14:39:57.580Z</time>
      </trkpt>
      <trkpt lat="45.50247" lon="5.36769">
        <ele>592</ele>
        <time>2021-10-02T14:39:56.581Z</time>
      </trkpt>
      <trkpt lat="45.50239" lon="5.36766">
        <ele>591</ele>
        <time>2021-10-02T14:39:55.580Z</time>
      </trkpt>
      <trkpt lat="45.50232" lon="5.36762">
        <ele>590</ele>
        <time>2021-10-02T14:39:54.581Z</time>
      </trkpt>
      <trkpt lat="45.50224" lon="5.36759">
        <ele>590</ele>
        <time>2021-10-02T14:39:53.581Z</time>
      </trkpt>
      <trkpt lat="45.50217" lon="5.36756">
        <ele>590</ele>
        <time>2021-10-02T14:39:52.581Z</time>
      </trkpt>
      <trkpt lat="45.5021" lon="5.36752">
        <ele>590</ele>
        <time>2021-10-02T14:39:51.580Z</time>
      </trkpt>
      <trkpt lat="45.50201" lon="5.36747">
        <ele>590</ele>
        <time>2021-10-02T14:39:50.580Z</time>
      </trkpt>
      <trkpt lat="45.50196" lon="5.36744">
        <ele>590</ele>
        <time>2021-10-02T14:39:49.581Z</time>
      </trkpt>
      <trkpt lat="45.50188" lon="5.36741">
        <ele>590</ele>
        <time>2021-10-02T14:39:48.580Z</time>
      </trkpt>
      <trkpt lat="45.50181" lon="5.36737">
        <ele>590</ele>
        <time>2021-10-02T14:39:47.581Z</time>
      </trkpt>
      <trkpt lat="45.50173" lon="5.36734">
        <ele>590</ele>
        <time>2021-10-02T14:39:46.581Z</time>
      </trkpt>
      <trkpt lat="45.50166" lon="5.36731">
        <ele>589</ele>
        <time>2021-10-02T14:39:45.581Z</time>
      </trkpt>
      <trkpt lat="45.50158" lon="5.36728">
        <ele>589</ele>
        <time>2021-10-02T14:39:44.580Z</time>
      </trkpt>
      <trkpt lat="45.50151" lon="5.36725">
        <ele>589</ele>
        <time>2021-10-02T14:39:43.581Z</time>
      </trkpt>
      <trkpt lat="45.50143" lon="5.36721">
        <ele>589</ele>
        <time>2021-10-02T14:39:42.581Z</time>
      </trkpt>
      <trkpt lat="45.50136" lon="5.36717">
        <ele>589</ele>
        <time>2021-10-02T14:39:41.581Z</time>
      </trkpt>
      <trkpt lat="45.50129" lon="5.36713">
        <ele>589</ele>
        <time>2021-10-02T14:39:40.580Z</time>
      </trkpt>
      <trkpt lat="45.50121" lon="5.36709">
        <ele>588</ele>
        <time>2021-10-02T14:39:39.581Z</time>
      </trkpt>
      <trkpt lat="45.50114" lon="5.36705">
        <ele>588</ele>
        <time>2021-10-02T14:39:38.581Z</time>
      </trkpt>
      <trkpt lat="45.50107" lon="5.36701">
        <ele>588</ele>
        <time>2021-10-02T14:39:37.580Z</time>
      </trkpt>
      <trkpt lat="45.501" lon="5.36697">
        <ele>588</ele>
        <time>2021-10-02T14:39:36.581Z</time>
      </trkpt>
      <trkpt lat="45.50092" lon="5.36694">
        <ele>588</ele>
        <time>2021-10-02T14:39:35.581Z</time>
      </trkpt>
      <trkpt lat="45.50085" lon="5.36691">
        <ele>588</ele>
        <time>2021-10-02T14:39:34.580Z</time>
      </trkpt>
      <trkpt lat="45.50078" lon="5.36687">
        <ele>589</ele>
        <time>2021-10-02T14:39:33.581Z</time>
      </trkpt>
      <trkpt lat="45.50072" lon="5.36684">
        <ele>589</ele>
        <time>2021-10-02T14:39:32.581Z</time>
      </trkpt>
      <trkpt lat="45.50065" lon="5.36681">
        <ele>589</ele>
        <time>2021-10-02T14:39:31.581Z</time>
      </trkpt>
      <trkpt lat="45.50058" lon="5.36677">
        <ele>589</ele>
        <time>2021-10-02T14:39:30.581Z</time>
      </trkpt>
      <trkpt lat="45.50051" lon="5.36674">
        <ele>589</ele>
        <time>2021-10-02T14:39:29.581Z</time>
      </trkpt>
      <trkpt lat="45.50044" lon="5.36672">
        <ele>588</ele>
        <time>2021-10-02T14:39:28.580Z</time>
      </trkpt>
      <trkpt lat="45.50037" lon="5.3667">
        <ele>588</ele>
        <time>2021-10-02T14:39:27.581Z</time>
      </trkpt>
      <trkpt lat="45.5003" lon="5.36668">
        <ele>588</ele>
        <time>2021-10-02T14:39:26.581Z</time>
      </trkpt>
      <trkpt lat="45.50023" lon="5.36667">
        <ele>588</ele>
        <time>2021-10-02T14:39:25.581Z</time>
      </trkpt>
      <trkpt lat="45.50016" lon="5.36667">
        <ele>588</ele>
        <time>2021-10-02T14:39:24.580Z</time>
      </trkpt>
      <trkpt lat="45.50009" lon="5.36666">
        <ele>588</ele>
        <time>2021-10-02T14:39:23.581Z</time>
      </trkpt>
      <trkpt lat="45.50002" lon="5.36665">
        <ele>588</ele>
        <time>2021-10-02T14:39:22.580Z</time>
      </trkpt>
      <trkpt lat="45.49995" lon="5.36664">
        <ele>587</ele>
        <time>2021-10-02T14:39:21.581Z</time>
      </trkpt>
      <trkpt lat="45.49988" lon="5.36663">
        <ele>587</ele>
        <time>2021-10-02T14:39:20.581Z</time>
      </trkpt>
      <trkpt lat="45.4998" lon="5.36662">
        <ele>587</ele>
        <time>2021-10-02T14:39:19.580Z</time>
      </trkpt>
      <trkpt lat="45.49973" lon="5.36662">
        <ele>587</ele>
        <time>2021-10-02T14:39:18.581Z</time>
      </trkpt>
      <trkpt lat="45.49965" lon="5.36661">
        <ele>587</ele>
        <time>2021-10-02T14:39:17.580Z</time>
      </trkpt>
      <trkpt lat="45.49958" lon="5.3666">
        <ele>587</ele>
        <time>2021-10-02T14:39:16.581Z</time>
      </trkpt>
      <trkpt lat="45.4995" lon="5.36659">
        <ele>588</ele>
        <time>2021-10-02T14:39:15.581Z</time>
      </trkpt>
      <trkpt lat="45.49942" lon="5.36659">
        <ele>588</ele>
        <time>2021-10-02T14:39:14.581Z</time>
      </trkpt>
      <trkpt lat="45.49934" lon="5.36658">
        <ele>588</ele>
        <time>2021-10-02T14:39:13.581Z</time>
      </trkpt>
      <trkpt lat="45.49925" lon="5.36657">
        <ele>588</ele>
        <time>2021-10-02T14:39:12.581Z</time>
      </trkpt>
      <trkpt lat="45.49917" lon="5.36657">
        <ele>588</ele>
        <time>2021-10-02T14:39:11.580Z</time>
      </trkpt>
      <trkpt lat="45.49908" lon="5.36657">
        <ele>588</ele>
        <time>2021-10-02T14:39:10.581Z</time>
      </trkpt>
      <trkpt lat="45.499" lon="5.36657">
        <ele>587</ele>
        <time>2021-10-02T14:39:09.581Z</time>
      </trkpt>
      <trkpt lat="45.49891" lon="5.36658">
        <ele>587</ele>
        <time>2021-10-02T14:39:08.581Z</time>
      </trkpt>
      <trkpt lat="45.49882" lon="5.36658">
        <ele>587</ele>
        <time>2021-10-02T14:39:07.581Z</time>
      </trkpt>
      <trkpt lat="45.49873" lon="5.36659">
        <ele>588</ele>
        <time>2021-10-02T14:39:06.581Z</time>
      </trkpt>
      <trkpt lat="45.49863" lon="5.3666">
        <ele>588</ele>
        <time>2021-10-02T14:39:05.580Z</time>
      </trkpt>
      <trkpt lat="45.49854" lon="5.36662">
        <ele>588</ele>
        <time>2021-10-02T14:39:04.580Z</time>
      </trkpt>
      <trkpt lat="45.49845" lon="5.36664">
        <ele>587</ele>
        <time>2021-10-02T14:39:03.580Z</time>
      </trkpt>
      <trkpt lat="45.49836" lon="5.36665">
        <ele>588</ele>
        <time>2021-10-02T14:39:02.580Z</time>
      </trkpt>
      <trkpt lat="45.49828" lon="5.36667">
        <ele>588</ele>
        <time>2021-10-02T14:39:01.580Z</time>
      </trkpt>
      <trkpt lat="45.49821" lon="5.36667">
        <ele>588</ele>
        <time>2021-10-02T14:39:00.580Z</time>
      </trkpt>
      <trkpt lat="45.49814" lon="5.36667">
        <ele>589</ele>
        <time>2021-10-02T14:38:59.580Z</time>
      </trkpt>
      <trkpt lat="45.49807" lon="5.36666">
        <ele>589</ele>
        <time>2021-10-02T14:38:58.581Z</time>
      </trkpt>
      <trkpt lat="45.49801" lon="5.36666">
        <ele>589</ele>
        <time>2021-10-02T14:38:57.580Z</time>
      </trkpt>
      <trkpt lat="45.49794" lon="5.36665">
        <ele>589</ele>
        <time>2021-10-02T14:38:56.580Z</time>
      </trkpt>
      <trkpt lat="45.49788" lon="5.36665">
        <ele>588</ele>
        <time>2021-10-02T14:38:55.581Z</time>
      </trkpt>
      <trkpt lat="45.49781" lon="5.36666">
        <ele>588</ele>
        <time>2021-10-02T14:38:54.580Z</time>
      </trkpt>
      <trkpt lat="45.49775" lon="5.36666">
        <ele>588</ele>
        <time>2021-10-02T14:38:53.581Z</time>
      </trkpt>
      <trkpt lat="45.49769" lon="5.36666">
        <ele>589</ele>
        <time>2021-10-02T14:38:52.581Z</time>
      </trkpt>
      <trkpt lat="45.49764" lon="5.36666">
        <ele>589</ele>
        <time>2021-10-02T14:38:51.580Z</time>
      </trkpt>
      <trkpt lat="45.4976" lon="5.36667">
        <ele>589</ele>
        <time>2021-10-02T14:38:50.580Z</time>
      </trkpt>
      <trkpt lat="45.49753" lon="5.3667">
        <ele>587</ele>
        <time>2021-10-02T14:38:49.579Z</time>
      </trkpt>
      <trkpt lat="45.49754" lon="5.3667">
        <ele>587</ele>
        <time>2021-10-02T14:38:48.580Z</time>
      </trkpt>
      <trkpt lat="45.49753" lon="5.36669">
        <ele>588</ele>
        <time>2021-10-02T14:38:46.580Z</time>
      </trkpt>
      <trkpt lat="45.49753" lon="5.36668">
        <ele>588</ele>
        <time>2021-10-02T14:38:43.579Z</time>
      </trkpt>
      <trkpt lat="45.49754" lon="5.36668">
        <ele>588</ele>
        <time>2021-10-02T14:38:42.578Z</time>
      </trkpt>
      <trkpt lat="45.49755" lon="5.36668">
        <ele>588</ele>
        <time>2021-10-02T14:38:41.579Z</time>
      </trkpt>
      <trkpt lat="45.49757" lon="5.36668">
        <ele>588</ele>
        <time>2021-10-02T14:38:40.579Z</time>
      </trkpt>
      <trkpt lat="45.49759" lon="5.36668">
        <ele>588</ele>
        <time>2021-10-02T14:38:39.579Z</time>
      </trkpt>
      <trkpt lat="45.4976" lon="5.36668">
        <ele>588</ele>
        <time>2021-10-02T14:38:38.578Z</time>
      </trkpt>
      <trkpt lat="45.49762" lon="5.36669">
        <ele>588</ele>
        <time>2021-10-02T14:38:37.578Z</time>
      </trkpt>
      <trkpt lat="45.49764" lon="5.36669">
        <ele>588</ele>
        <time>2021-10-02T14:38:36.578Z</time>
      </trkpt>
      <trkpt lat="45.49766" lon="5.3667">
        <ele>588</ele>
        <time>2021-10-02T14:38:35.578Z</time>
      </trkpt>
      <trkpt lat="45.49767" lon="5.36672">
        <ele>588</ele>
        <time>2021-10-02T14:38:34.579Z</time>
      </trkpt>
      <trkpt lat="45.49769" lon="5.36673">
        <ele>588</ele>
        <time>2021-10-02T14:38:33.578Z</time>
      </trkpt>
      <trkpt lat="45.49771" lon="5.36674">
        <ele>588</ele>
        <time>2021-10-02T14:38:32.579Z</time>
      </trkpt>
      <trkpt lat="45.49773" lon="5.36673">
        <ele>588</ele>
        <time>2021-10-02T14:38:31.578Z</time>
      </trkpt>
      <trkpt lat="45.49775" lon="5.36672">
        <ele>588</ele>
        <time>2021-10-02T14:38:30.579Z</time>
      </trkpt>
      <trkpt lat="45.49776" lon="5.36671">
        <ele>588</ele>
        <time>2021-10-02T14:38:29.578Z</time>
      </trkpt>
      <trkpt lat="45.49777" lon="5.36667">
        <ele>590</ele>
        <time>2021-10-02T14:38:26.579Z</time>
      </trkpt>
      <trkpt lat="45.49776" lon="5.36667">
        <ele>590</ele>
        <time>2021-10-02T14:38:25.579Z</time>
      </trkpt>
      <trkpt lat="45.49775" lon="5.36667">
        <ele>590</ele>
        <time>2021-10-02T14:38:24.579Z</time>
      </trkpt>
      <trkpt lat="45.49773" lon="5.36666">
        <ele>590</ele>
        <time>2021-10-02T14:38:23.579Z</time>
      </trkpt>
      <trkpt lat="45.4977" lon="5.36666">
        <ele>590</ele>
        <time>2021-10-02T14:38:22.578Z</time>
      </trkpt>
      <trkpt lat="45.49767" lon="5.36666">
        <ele>589</ele>
        <time>2021-10-02T14:38:21.579Z</time>
      </trkpt>
      <trkpt lat="45.49763" lon="5.36666">
        <ele>589</ele>
        <time>2021-10-02T14:38:20.579Z</time>
      </trkpt>
      <trkpt lat="45.49759" lon="5.36666">
        <ele>589</ele>
        <time>2021-10-02T14:38:19.579Z</time>
      </trkpt>
      <trkpt lat="45.49754" lon="5.36666">
        <ele>589</ele>
        <time>2021-10-02T14:38:18.579Z</time>
      </trkpt>
      <trkpt lat="45.49749" lon="5.36666">
        <ele>589</ele>
        <time>2021-10-02T14:38:17.579Z</time>
      </trkpt>
      <trkpt lat="45.49743" lon="5.36666">
        <ele>589</ele>
        <time>2021-10-02T14:38:16.578Z</time>
      </trkpt>
      <trkpt lat="45.49737" lon="5.36666">
        <ele>588</ele>
        <time>2021-10-02T14:38:15.579Z</time>
      </trkpt>
      <trkpt lat="45.49731" lon="5.36666">
        <ele>588</ele>
        <time>2021-10-02T14:38:14.578Z</time>
      </trkpt>
      <trkpt lat="45.49724" lon="5.36666">
        <ele>588</ele>
        <time>2021-10-02T14:38:13.579Z</time>
      </trkpt>
      <trkpt lat="45.49717" lon="5.36665">
        <ele>588</ele>
        <time>2021-10-02T14:38:12.579Z</time>
      </trkpt>
      <trkpt lat="45.4971" lon="5.36665">
        <ele>588</ele>
        <time>2021-10-02T14:38:11.579Z</time>
      </trkpt>
      <trkpt lat="45.49703" lon="5.36664">
        <ele>588</ele>
        <time>2021-10-02T14:38:10.579Z</time>
      </trkpt>
      <trkpt lat="45.49696" lon="5.36663">
        <ele>588</ele>
        <time>2021-10-02T14:38:09.579Z</time>
      </trkpt>
      <trkpt lat="45.49689" lon="5.36662">
        <ele>589</ele>
        <time>2021-10-02T14:38:08.579Z</time>
      </trkpt>
      <trkpt lat="45.49681" lon="5.3666">
        <ele>589</ele>
        <time>2021-10-02T14:38:07.579Z</time>
      </trkpt>
      <trkpt lat="45.49674" lon="5.36657">
        <ele>590</ele>
        <time>2021-10-02T14:38:06.579Z</time>
      </trkpt>
      <trkpt lat="45.49668" lon="5.36654">
        <ele>590</ele>
        <time>2021-10-02T14:38:05.579Z</time>
      </trkpt>
      <trkpt lat="45.49662" lon="5.36648">
        <ele>590</ele>
        <time>2021-10-02T14:38:04.578Z</time>
      </trkpt>
      <trkpt lat="45.49657" lon="5.36642">
        <ele>591</ele>
        <time>2021-10-02T14:38:03.579Z</time>
      </trkpt>
      <trkpt lat="45.49652" lon="5.36636">
        <ele>591</ele>
        <time>2021-10-02T14:38:02.579Z</time>
      </trkpt>
      <trkpt lat="45.49648" lon="5.36629">
        <ele>591</ele>
        <time>2021-10-02T14:38:01.579Z</time>
      </trkpt>
      <trkpt lat="45.49643" lon="5.36621">
        <ele>592</ele>
        <time>2021-10-02T14:38:00.578Z</time>
      </trkpt>
      <trkpt lat="45.49638" lon="5.36614">
        <ele>592</ele>
        <time>2021-10-02T14:37:59.579Z</time>
      </trkpt>
      <trkpt lat="45.49632" lon="5.36607">
        <ele>592</ele>
        <time>2021-10-02T14:37:58.579Z</time>
      </trkpt>
      <trkpt lat="45.49626" lon="5.366">
        <ele>593</ele>
        <time>2021-10-02T14:37:57.579Z</time>
      </trkpt>
      <trkpt lat="45.4962" lon="5.36595">
        <ele>593</ele>
        <time>2021-10-02T14:37:56.579Z</time>
      </trkpt>
      <trkpt lat="45.49614" lon="5.3659">
        <ele>593</ele>
        <time>2021-10-02T14:37:55.579Z</time>
      </trkpt>
      <trkpt lat="45.49608" lon="5.36587">
        <ele>594</ele>
        <time>2021-10-02T14:37:54.579Z</time>
      </trkpt>
      <trkpt lat="45.49603" lon="5.36584">
        <ele>594</ele>
        <time>2021-10-02T14:37:53.578Z</time>
      </trkpt>
      <trkpt lat="45.49597" lon="5.36583">
        <ele>594</ele>
        <time>2021-10-02T14:37:52.579Z</time>
      </trkpt>
      <trkpt lat="45.49591" lon="5.36582">
        <ele>594</ele>
        <time>2021-10-02T14:37:51.578Z</time>
      </trkpt>
      <trkpt lat="45.49585" lon="5.36582">
        <ele>593</ele>
        <time>2021-10-02T14:37:50.579Z</time>
      </trkpt>
      <trkpt lat="45.4958" lon="5.36581">
        <ele>593</ele>
        <time>2021-10-02T14:37:49.578Z</time>
      </trkpt>
      <trkpt lat="45.49574" lon="5.36581">
        <ele>593</ele>
        <time>2021-10-02T14:37:48.578Z</time>
      </trkpt>
      <trkpt lat="45.49569" lon="5.3658">
        <ele>593</ele>
        <time>2021-10-02T14:37:47.578Z</time>
      </trkpt>
      <trkpt lat="45.49563" lon="5.3658">
        <ele>593</ele>
        <time>2021-10-02T14:37:46.578Z</time>
      </trkpt>
      <trkpt lat="45.49557" lon="5.3658">
        <ele>593</ele>
        <time>2021-10-02T14:37:45.579Z</time>
      </trkpt>
      <trkpt lat="45.49552" lon="5.3658">
        <ele>593</ele>
        <time>2021-10-02T14:37:44.579Z</time>
      </trkpt>
      <trkpt lat="45.49546" lon="5.3658">
        <ele>593</ele>
        <time>2021-10-02T14:37:43.578Z</time>
      </trkpt>
      <trkpt lat="45.49541" lon="5.3658">
        <ele>592</ele>
        <time>2021-10-02T14:37:42.579Z</time>
      </trkpt>
      <trkpt lat="45.49535" lon="5.3658">
        <ele>591</ele>
        <time>2021-10-02T14:37:41.579Z</time>
      </trkpt>
      <trkpt lat="45.4953" lon="5.3658">
        <ele>591</ele>
        <time>2021-10-02T14:37:40.578Z</time>
      </trkpt>
      <trkpt lat="45.49524" lon="5.3658">
        <ele>591</ele>
        <time>2021-10-02T14:37:39.578Z</time>
      </trkpt>
      <trkpt lat="45.49519" lon="5.36581">
        <ele>591</ele>
        <time>2021-10-02T14:37:38.578Z</time>
      </trkpt>
      <trkpt lat="45.49513" lon="5.36581">
        <ele>591</ele>
        <time>2021-10-02T14:37:37.579Z</time>
      </trkpt>
      <trkpt lat="45.49508" lon="5.36581">
        <ele>591</ele>
        <time>2021-10-02T14:37:36.579Z</time>
      </trkpt>
      <trkpt lat="45.49503" lon="5.36581">
        <ele>591</ele>
        <time>2021-10-02T14:37:35.579Z</time>
      </trkpt>
      <trkpt lat="45.49497" lon="5.36581">
        <ele>591</ele>
        <time>2021-10-02T14:37:34.579Z</time>
      </trkpt>
      <trkpt lat="45.49492" lon="5.36582">
        <ele>591</ele>
        <time>2021-10-02T14:37:33.579Z</time>
      </trkpt>
      <trkpt lat="45.49487" lon="5.36582">
        <ele>591</ele>
        <time>2021-10-02T14:37:32.579Z</time>
      </trkpt>
      <trkpt lat="45.49482" lon="5.36582">
        <ele>591</ele>
        <time>2021-10-02T14:37:31.579Z</time>
      </trkpt>
      <trkpt lat="45.49477" lon="5.36581">
        <ele>591</ele>
        <time>2021-10-02T14:37:30.579Z</time>
      </trkpt>
      <trkpt lat="45.49471" lon="5.36581">
        <ele>591</ele>
        <time>2021-10-02T14:37:29.579Z</time>
      </trkpt>
      <trkpt lat="45.49466" lon="5.36582">
        <ele>591</ele>
        <time>2021-10-02T14:37:28.579Z</time>
      </trkpt>
      <trkpt lat="45.4946" lon="5.36582">
        <ele>591</ele>
        <time>2021-10-02T14:37:27.579Z</time>
      </trkpt>
      <trkpt lat="45.49454" lon="5.36582">
        <ele>591</ele>
        <time>2021-10-02T14:37:26.579Z</time>
      </trkpt>
      <trkpt lat="45.49448" lon="5.36581">
        <ele>592</ele>
        <time>2021-10-02T14:37:25.579Z</time>
      </trkpt>
      <trkpt lat="45.49442" lon="5.36581">
        <ele>592</ele>
        <time>2021-10-02T14:37:24.578Z</time>
      </trkpt>
      <trkpt lat="45.49436" lon="5.3658">
        <ele>592</ele>
        <time>2021-10-02T14:37:23.578Z</time>
      </trkpt>
      <trkpt lat="45.49431" lon="5.36578">
        <ele>591</ele>
        <time>2021-10-02T14:37:22.578Z</time>
      </trkpt>
      <trkpt lat="45.49425" lon="5.36576">
        <ele>591</ele>
        <time>2021-10-02T14:37:21.579Z</time>
      </trkpt>
      <trkpt lat="45.4942" lon="5.36573">
        <ele>590</ele>
        <time>2021-10-02T14:37:20.578Z</time>
      </trkpt>
      <trkpt lat="45.49416" lon="5.36569">
        <ele>590</ele>
        <time>2021-10-02T14:37:19.578Z</time>
      </trkpt>
      <trkpt lat="45.49412" lon="5.36565">
        <ele>590</ele>
        <time>2021-10-02T14:37:18.579Z</time>
      </trkpt>
      <trkpt lat="45.49408" lon="5.36561">
        <ele>590</ele>
        <time>2021-10-02T14:37:17.579Z</time>
      </trkpt>
      <trkpt lat="45.49404" lon="5.36557">
        <ele>590</ele>
        <time>2021-10-02T14:37:16.579Z</time>
      </trkpt>
      <trkpt lat="45.49401" lon="5.36552">
        <ele>590</ele>
        <time>2021-10-02T14:37:15.579Z</time>
      </trkpt>
      <trkpt lat="45.49398" lon="5.36547">
        <ele>590</ele>
        <time>2021-10-02T14:37:14.578Z</time>
      </trkpt>
      <trkpt lat="45.49395" lon="5.36541">
        <ele>590</ele>
        <time>2021-10-02T14:37:13.579Z</time>
      </trkpt>
      <trkpt lat="45.49392" lon="5.36535">
        <ele>590</ele>
        <time>2021-10-02T14:37:12.579Z</time>
      </trkpt>
      <trkpt lat="45.4939" lon="5.36529">
        <ele>590</ele>
        <time>2021-10-02T14:37:11.579Z</time>
      </trkpt>
      <trkpt lat="45.49387" lon="5.36523">
        <ele>590</ele>
        <time>2021-10-02T14:37:10.579Z</time>
      </trkpt>
      <trkpt lat="45.49384" lon="5.36517">
        <ele>589</ele>
        <time>2021-10-02T14:37:09.578Z</time>
      </trkpt>
      <trkpt lat="45.49381" lon="5.3651">
        <ele>589</ele>
        <time>2021-10-02T14:37:08.579Z</time>
      </trkpt>
      <trkpt lat="45.49378" lon="5.36504">
        <ele>589</ele>
        <time>2021-10-02T14:37:07.579Z</time>
      </trkpt>
      <trkpt lat="45.49374" lon="5.36498">
        <ele>589</ele>
        <time>2021-10-02T14:37:06.579Z</time>
      </trkpt>
      <trkpt lat="45.49369" lon="5.36492">
        <ele>589</ele>
        <time>2021-10-02T14:37:05.579Z</time>
      </trkpt>
      <trkpt lat="45.49364" lon="5.36487">
        <ele>588</ele>
        <time>2021-10-02T14:37:04.579Z</time>
      </trkpt>
      <trkpt lat="45.49358" lon="5.36483">
        <ele>588</ele>
        <time>2021-10-02T14:37:03.579Z</time>
      </trkpt>
      <trkpt lat="45.49353" lon="5.3648">
        <ele>588</ele>
        <time>2021-10-02T14:37:02.578Z</time>
      </trkpt>
      <trkpt lat="45.49347" lon="5.36478">
        <ele>588</ele>
        <time>2021-10-02T14:37:01.578Z</time>
      </trkpt>
      <trkpt lat="45.49342" lon="5.36476">
        <ele>588</ele>
        <time>2021-10-02T14:37:00.578Z</time>
      </trkpt>
      <trkpt lat="45.49336" lon="5.36474">
        <ele>589</ele>
        <time>2021-10-02T14:36:59.579Z</time>
      </trkpt>
      <trkpt lat="45.49331" lon="5.36473">
        <ele>589</ele>
        <time>2021-10-02T14:36:58.578Z</time>
      </trkpt>
      <trkpt lat="45.49326" lon="5.36471">
        <ele>588</ele>
        <time>2021-10-02T14:36:57.578Z</time>
      </trkpt>
      <trkpt lat="45.49321" lon="5.3647">
        <ele>588</ele>
        <time>2021-10-02T14:36:56.579Z</time>
      </trkpt>
      <trkpt lat="45.49316" lon="5.36468">
        <ele>588</ele>
        <time>2021-10-02T14:36:55.579Z</time>
      </trkpt>
      <trkpt lat="45.49312" lon="5.36465">
        <ele>588</ele>
        <time>2021-10-02T14:36:54.579Z</time>
      </trkpt>
      <trkpt lat="45.49308" lon="5.36462">
        <ele>588</ele>
        <time>2021-10-02T14:36:53.579Z</time>
      </trkpt>
      <trkpt lat="45.49303" lon="5.36459">
        <ele>588</ele>
        <time>2021-10-02T14:36:52.579Z</time>
      </trkpt>
      <trkpt lat="45.49298" lon="5.36456">
        <ele>587</ele>
        <time>2021-10-02T14:36:51.579Z</time>
      </trkpt>
      <trkpt lat="45.49293" lon="5.36453">
        <ele>587</ele>
        <time>2021-10-02T14:36:50.579Z</time>
      </trkpt>
      <trkpt lat="45.49288" lon="5.3645">
        <ele>587</ele>
        <time>2021-10-02T14:36:49.578Z</time>
      </trkpt>
      <trkpt lat="45.49284" lon="5.36446">
        <ele>586</ele>
        <time>2021-10-02T14:36:48.579Z</time>
      </trkpt>
      <trkpt lat="45.4928" lon="5.36443">
        <ele>586</ele>
        <time>2021-10-02T14:36:47.578Z</time>
      </trkpt>
      <trkpt lat="45.49275" lon="5.3644">
        <ele>586</ele>
        <time>2021-10-02T14:36:46.578Z</time>
      </trkpt>
      <trkpt lat="45.49271" lon="5.36436">
        <ele>585</ele>
        <time>2021-10-02T14:36:45.579Z</time>
      </trkpt>
      <trkpt lat="45.49267" lon="5.36433">
        <ele>585</ele>
        <time>2021-10-02T14:36:44.579Z</time>
      </trkpt>
      <trkpt lat="45.49263" lon="5.3643">
        <ele>584</ele>
        <time>2021-10-02T14:36:43.579Z</time>
      </trkpt>
      <trkpt lat="45.49259" lon="5.36426">
        <ele>583</ele>
        <time>2021-10-02T14:36:42.579Z</time>
      </trkpt>
      <trkpt lat="45.49255" lon="5.36422">
        <ele>583</ele>
        <time>2021-10-02T14:36:41.579Z</time>
      </trkpt>
      <trkpt lat="45.49251" lon="5.36419">
        <ele>583</ele>
        <time>2021-10-02T14:36:40.579Z</time>
      </trkpt>
      <trkpt lat="45.49246" lon="5.36415">
        <ele>583</ele>
        <time>2021-10-02T14:36:39.578Z</time>
      </trkpt>
      <trkpt lat="45.49242" lon="5.36412">
        <ele>583</ele>
        <time>2021-10-02T14:36:38.578Z</time>
      </trkpt>
      <trkpt lat="45.49238" lon="5.36408">
        <ele>583</ele>
        <time>2021-10-02T14:36:37.579Z</time>
      </trkpt>
      <trkpt lat="45.49234" lon="5.36405">
        <ele>583</ele>
        <time>2021-10-02T14:36:36.579Z</time>
      </trkpt>
      <trkpt lat="45.49229" lon="5.36401">
        <ele>583</ele>
        <time>2021-10-02T14:36:35.579Z</time>
      </trkpt>
      <trkpt lat="45.49225" lon="5.36397">
        <ele>583</ele>
        <time>2021-10-02T14:36:34.579Z</time>
      </trkpt>
      <trkpt lat="45.49221" lon="5.36394">
        <ele>583</ele>
        <time>2021-10-02T14:36:33.579Z</time>
      </trkpt>
      <trkpt lat="45.49217" lon="5.3639">
        <ele>583</ele>
        <time>2021-10-02T14:36:32.579Z</time>
      </trkpt>
      <trkpt lat="45.49212" lon="5.36387">
        <ele>583</ele>
        <time>2021-10-02T14:36:31.579Z</time>
      </trkpt>
      <trkpt lat="45.49208" lon="5.36383">
        <ele>583</ele>
        <time>2021-10-02T14:36:30.579Z</time>
      </trkpt>
      <trkpt lat="45.49204" lon="5.3638">
        <ele>583</ele>
        <time>2021-10-02T14:36:29.579Z</time>
      </trkpt>
      <trkpt lat="45.492" lon="5.36377">
        <ele>583</ele>
        <time>2021-10-02T14:36:28.578Z</time>
      </trkpt>
      <trkpt lat="45.49195" lon="5.36373">
        <ele>583</ele>
        <time>2021-10-02T14:36:27.578Z</time>
      </trkpt>
      <trkpt lat="45.4919" lon="5.36371">
        <ele>583</ele>
        <time>2021-10-02T14:36:26.578Z</time>
      </trkpt>
      <trkpt lat="45.49185" lon="5.36368">
        <ele>583</ele>
        <time>2021-10-02T14:36:25.579Z</time>
      </trkpt>
      <trkpt lat="45.49181" lon="5.36366">
        <ele>583</ele>
        <time>2021-10-02T14:36:24.578Z</time>
      </trkpt>
      <trkpt lat="45.49176" lon="5.36364">
        <ele>583</ele>
        <time>2021-10-02T14:36:23.579Z</time>
      </trkpt>
      <trkpt lat="45.49171" lon="5.36362">
        <ele>583</ele>
        <time>2021-10-02T14:36:22.579Z</time>
      </trkpt>
      <trkpt lat="45.49167" lon="5.36361">
        <ele>583</ele>
        <time>2021-10-02T14:36:21.578Z</time>
      </trkpt>
      <trkpt lat="45.49162" lon="5.3636">
        <ele>583</ele>
        <time>2021-10-02T14:36:20.578Z</time>
      </trkpt>
      <trkpt lat="45.49158" lon="5.36359">
        <ele>582</ele>
        <time>2021-10-02T14:36:19.579Z</time>
      </trkpt>
      <trkpt lat="45.49153" lon="5.36359">
        <ele>582</ele>
        <time>2021-10-02T14:36:18.579Z</time>
      </trkpt>
      <trkpt lat="45.4915" lon="5.36359">
        <ele>582</ele>
        <time>2021-10-02T14:36:17.578Z</time>
      </trkpt>
      <trkpt lat="45.49145" lon="5.36359">
        <ele>581</ele>
        <time>2021-10-02T14:36:16.579Z</time>
      </trkpt>
      <trkpt lat="45.49141" lon="5.36359">
        <ele>581</ele>
        <time>2021-10-02T14:36:15.579Z</time>
      </trkpt>
      <trkpt lat="45.49137" lon="5.36359">
        <ele>581</ele>
        <time>2021-10-02T14:36:14.578Z</time>
      </trkpt>
      <trkpt lat="45.49133" lon="5.36359">
        <ele>581</ele>
        <time>2021-10-02T14:36:13.578Z</time>
      </trkpt>
      <trkpt lat="45.49129" lon="5.36359">
        <ele>581</ele>
        <time>2021-10-02T14:36:12.578Z</time>
      </trkpt>
      <trkpt lat="45.49126" lon="5.36359">
        <ele>581</ele>
        <time>2021-10-02T14:36:11.579Z</time>
      </trkpt>
      <trkpt lat="45.49122" lon="5.36359">
        <ele>581</ele>
        <time>2021-10-02T14:36:10.579Z</time>
      </trkpt>
      <trkpt lat="45.49118" lon="5.36359">
        <ele>581</ele>
        <time>2021-10-02T14:36:09.578Z</time>
      </trkpt>
      <trkpt lat="45.49114" lon="5.36359">
        <ele>581</ele>
        <time>2021-10-02T14:36:08.578Z</time>
      </trkpt>
      <trkpt lat="45.4911" lon="5.36359">
        <ele>581</ele>
        <time>2021-10-02T14:36:07.579Z</time>
      </trkpt>
      <trkpt lat="45.49106" lon="5.36359">
        <ele>580</ele>
        <time>2021-10-02T14:36:06.578Z</time>
      </trkpt>
      <trkpt lat="45.49101" lon="5.3636">
        <ele>580</ele>
        <time>2021-10-02T14:36:05.579Z</time>
      </trkpt>
      <trkpt lat="45.49097" lon="5.3636">
        <ele>580</ele>
        <time>2021-10-02T14:36:04.579Z</time>
      </trkpt>
      <trkpt lat="45.49093" lon="5.3636">
        <ele>579</ele>
        <time>2021-10-02T14:36:03.578Z</time>
      </trkpt>
      <trkpt lat="45.49088" lon="5.36359">
        <ele>579</ele>
        <time>2021-10-02T14:36:02.579Z</time>
      </trkpt>
      <trkpt lat="45.49084" lon="5.36359">
        <ele>579</ele>
        <time>2021-10-02T14:36:01.579Z</time>
      </trkpt>
      <trkpt lat="45.4908" lon="5.3636">
        <ele>578</ele>
        <time>2021-10-02T14:36:00.578Z</time>
      </trkpt>
      <trkpt lat="45.49075" lon="5.3636">
        <ele>578</ele>
        <time>2021-10-02T14:35:59.579Z</time>
      </trkpt>
      <trkpt lat="45.4907" lon="5.3636">
        <ele>578</ele>
        <time>2021-10-02T14:35:58.579Z</time>
      </trkpt>
      <trkpt lat="45.49065" lon="5.3636">
        <ele>578</ele>
        <time>2021-10-02T14:35:57.579Z</time>
      </trkpt>
      <trkpt lat="45.4906" lon="5.3636">
        <ele>578</ele>
        <time>2021-10-02T14:35:56.579Z</time>
      </trkpt>
      <trkpt lat="45.49055" lon="5.36361">
        <ele>578</ele>
        <time>2021-10-02T14:35:55.578Z</time>
      </trkpt>
      <trkpt lat="45.4905" lon="5.36362">
        <ele>579</ele>
        <time>2021-10-02T14:35:54.579Z</time>
      </trkpt>
      <trkpt lat="45.49044" lon="5.36364">
        <ele>579</ele>
        <time>2021-10-02T14:35:53.578Z</time>
      </trkpt>
      <trkpt lat="45.49039" lon="5.36366">
        <ele>579</ele>
        <time>2021-10-02T14:35:52.579Z</time>
      </trkpt>
      <trkpt lat="45.49033" lon="5.36369">
        <ele>579</ele>
        <time>2021-10-02T14:35:51.578Z</time>
      </trkpt>
      <trkpt lat="45.49028" lon="5.36372">
        <ele>578</ele>
        <time>2021-10-02T14:35:50.578Z</time>
      </trkpt>
      <trkpt lat="45.49023" lon="5.36376">
        <ele>578</ele>
        <time>2021-10-02T14:35:49.579Z</time>
      </trkpt>
      <trkpt lat="45.49019" lon="5.3638">
        <ele>578</ele>
        <time>2021-10-02T14:35:48.579Z</time>
      </trkpt>
      <trkpt lat="45.49014" lon="5.36384">
        <ele>577</ele>
        <time>2021-10-02T14:35:47.579Z</time>
      </trkpt>
      <trkpt lat="45.4901" lon="5.36387">
        <ele>577</ele>
        <time>2021-10-02T14:35:46.579Z</time>
      </trkpt>
      <trkpt lat="45.49006" lon="5.36391">
        <ele>576</ele>
        <time>2021-10-02T14:35:45.579Z</time>
      </trkpt>
      <trkpt lat="45.49002" lon="5.36394">
        <ele>577</ele>
        <time>2021-10-02T14:35:44.579Z</time>
      </trkpt>
      <trkpt lat="45.48997" lon="5.36399">
        <ele>576</ele>
        <time>2021-10-02T14:35:43.579Z</time>
      </trkpt>
      <trkpt lat="45.48993" lon="5.36402">
        <ele>576</ele>
        <time>2021-10-02T14:35:42.579Z</time>
      </trkpt>
      <trkpt lat="45.48989" lon="5.36405">
        <ele>576</ele>
        <time>2021-10-02T14:35:41.579Z</time>
      </trkpt>
      <trkpt lat="45.48984" lon="5.36408">
        <ele>576</ele>
        <time>2021-10-02T14:35:40.579Z</time>
      </trkpt>
      <trkpt lat="45.48979" lon="5.36411">
        <ele>576</ele>
        <time>2021-10-02T14:35:39.579Z</time>
      </trkpt>
      <trkpt lat="45.48974" lon="5.36413">
        <ele>577</ele>
        <time>2021-10-02T14:35:38.579Z</time>
      </trkpt>
      <trkpt lat="45.48969" lon="5.36414">
        <ele>576</ele>
        <time>2021-10-02T14:35:37.579Z</time>
      </trkpt>
      <trkpt lat="45.48964" lon="5.36414">
        <ele>576</ele>
        <time>2021-10-02T14:35:36.578Z</time>
      </trkpt>
      <trkpt lat="45.48959" lon="5.36414">
        <ele>575</ele>
        <time>2021-10-02T14:35:35.578Z</time>
      </trkpt>
      <trkpt lat="45.48955" lon="5.36414">
        <ele>574</ele>
        <time>2021-10-02T14:35:34.579Z</time>
      </trkpt>
      <trkpt lat="45.4895" lon="5.36413">
        <ele>574</ele>
        <time>2021-10-02T14:35:33.579Z</time>
      </trkpt>
      <trkpt lat="45.48945" lon="5.36411">
        <ele>573</ele>
        <time>2021-10-02T14:35:32.578Z</time>
      </trkpt>
      <trkpt lat="45.48939" lon="5.3641">
        <ele>573</ele>
        <time>2021-10-02T14:35:31.579Z</time>
      </trkpt>
      <trkpt lat="45.48934" lon="5.36408">
        <ele>573</ele>
        <time>2021-10-02T14:35:30.579Z</time>
      </trkpt>
      <trkpt lat="45.48929" lon="5.36406">
        <ele>572</ele>
        <time>2021-10-02T14:35:29.579Z</time>
      </trkpt>
      <trkpt lat="45.48924" lon="5.36405">
        <ele>572</ele>
        <time>2021-10-02T14:35:28.578Z</time>
      </trkpt>
      <trkpt lat="45.48918" lon="5.36402">
        <ele>571</ele>
        <time>2021-10-02T14:35:27.578Z</time>
      </trkpt>
      <trkpt lat="45.48914" lon="5.36401">
        <ele>571</ele>
        <time>2021-10-02T14:35:26.578Z</time>
      </trkpt>
      <trkpt lat="45.48909" lon="5.36399">
        <ele>571</ele>
        <time>2021-10-02T14:35:25.578Z</time>
      </trkpt>
      <trkpt lat="45.48904" lon="5.36397">
        <ele>570</ele>
        <time>2021-10-02T14:35:24.579Z</time>
      </trkpt>
      <trkpt lat="45.48899" lon="5.36396">
        <ele>570</ele>
        <time>2021-10-02T14:35:23.579Z</time>
      </trkpt>
      <trkpt lat="45.48893" lon="5.36394">
        <ele>569</ele>
        <time>2021-10-02T14:35:22.579Z</time>
      </trkpt>
      <trkpt lat="45.48887" lon="5.36392">
        <ele>569</ele>
        <time>2021-10-02T14:35:21.579Z</time>
      </trkpt>
      <trkpt lat="45.48883" lon="5.36391">
        <ele>568</ele>
        <time>2021-10-02T14:35:20.579Z</time>
      </trkpt>
      <trkpt lat="45.48877" lon="5.3639">
        <ele>568</ele>
        <time>2021-10-02T14:35:19.579Z</time>
      </trkpt>
      <trkpt lat="45.48872" lon="5.36389">
        <ele>568</ele>
        <time>2021-10-02T14:35:18.579Z</time>
      </trkpt>
      <trkpt lat="45.48865" lon="5.36387">
        <ele>568</ele>
        <time>2021-10-02T14:35:17.579Z</time>
      </trkpt>
      <trkpt lat="45.48859" lon="5.36385">
        <ele>568</ele>
        <time>2021-10-02T14:35:16.578Z</time>
      </trkpt>
      <trkpt lat="45.48853" lon="5.36383">
        <ele>568</ele>
        <time>2021-10-02T14:35:15.579Z</time>
      </trkpt>
      <trkpt lat="45.48848" lon="5.36382">
        <ele>568</ele>
        <time>2021-10-02T14:35:14.578Z</time>
      </trkpt>
      <trkpt lat="45.48842" lon="5.3638">
        <ele>568</ele>
        <time>2021-10-02T14:35:13.579Z</time>
      </trkpt>
      <trkpt lat="45.48835" lon="5.36379">
        <ele>568</ele>
        <time>2021-10-02T14:35:12.579Z</time>
      </trkpt>
      <trkpt lat="45.48829" lon="5.36377">
        <ele>568</ele>
        <time>2021-10-02T14:35:11.579Z</time>
      </trkpt>
      <trkpt lat="45.48823" lon="5.36375">
        <ele>567</ele>
        <time>2021-10-02T14:35:10.578Z</time>
      </trkpt>
      <trkpt lat="45.48817" lon="5.36373">
        <ele>567</ele>
        <time>2021-10-02T14:35:09.579Z</time>
      </trkpt>
      <trkpt lat="45.48811" lon="5.36372">
        <ele>567</ele>
        <time>2021-10-02T14:35:08.578Z</time>
      </trkpt>
      <trkpt lat="45.48805" lon="5.3637">
        <ele>567</ele>
        <time>2021-10-02T14:35:07.579Z</time>
      </trkpt>
      <trkpt lat="45.48798" lon="5.36367">
        <ele>567</ele>
        <time>2021-10-02T14:35:06.579Z</time>
      </trkpt>
      <trkpt lat="45.48792" lon="5.36366">
        <ele>567</ele>
        <time>2021-10-02T14:35:05.579Z</time>
      </trkpt>
      <trkpt lat="45.48786" lon="5.36363">
        <ele>567</ele>
        <time>2021-10-02T14:35:04.578Z</time>
      </trkpt>
      <trkpt lat="45.48779" lon="5.36361">
        <ele>567</ele>
        <time>2021-10-02T14:35:03.579Z</time>
      </trkpt>
      <trkpt lat="45.48773" lon="5.36359">
        <ele>568</ele>
        <time>2021-10-02T14:35:02.579Z</time>
      </trkpt>
      <trkpt lat="45.48766" lon="5.36357">
        <ele>568</ele>
        <time>2021-10-02T14:35:01.579Z</time>
      </trkpt>
      <trkpt lat="45.4876" lon="5.36355">
        <ele>569</ele>
        <time>2021-10-02T14:35:00.579Z</time>
      </trkpt>
      <trkpt lat="45.48754" lon="5.36353">
        <ele>569</ele>
        <time>2021-10-02T14:34:59.579Z</time>
      </trkpt>
      <trkpt lat="45.48747" lon="5.36351">
        <ele>569</ele>
        <time>2021-10-02T14:34:58.579Z</time>
      </trkpt>
      <trkpt lat="45.48741" lon="5.36348">
        <ele>570</ele>
        <time>2021-10-02T14:34:57.578Z</time>
      </trkpt>
      <trkpt lat="45.48734" lon="5.36346">
        <ele>570</ele>
        <time>2021-10-02T14:34:56.579Z</time>
      </trkpt>
      <trkpt lat="45.48729" lon="5.36345">
        <ele>570</ele>
        <time>2021-10-02T14:34:55.578Z</time>
      </trkpt>
      <trkpt lat="45.48723" lon="5.36345">
        <ele>570</ele>
        <time>2021-10-02T14:34:54.578Z</time>
      </trkpt>
      <trkpt lat="45.48717" lon="5.36345">
        <ele>570</ele>
        <time>2021-10-02T14:34:53.579Z</time>
      </trkpt>
      <trkpt lat="45.4871" lon="5.36347">
        <ele>570</ele>
        <time>2021-10-02T14:34:52.579Z</time>
      </trkpt>
      <trkpt lat="45.48704" lon="5.36351">
        <ele>570</ele>
        <time>2021-10-02T14:34:51.579Z</time>
      </trkpt>
      <trkpt lat="45.48698" lon="5.36356">
        <ele>571</ele>
        <time>2021-10-02T14:34:50.579Z</time>
      </trkpt>
      <trkpt lat="45.48694" lon="5.3636">
        <ele>571</ele>
        <time>2021-10-02T14:34:49.578Z</time>
      </trkpt>
      <trkpt lat="45.48689" lon="5.36366">
        <ele>571</ele>
        <time>2021-10-02T14:34:48.579Z</time>
      </trkpt>
      <trkpt lat="45.48683" lon="5.36371">
        <ele>571</ele>
        <time>2021-10-02T14:34:47.579Z</time>
      </trkpt>
      <trkpt lat="45.48677" lon="5.36378">
        <ele>571</ele>
        <time>2021-10-02T14:34:46.579Z</time>
      </trkpt>
      <trkpt lat="45.48671" lon="5.36383">
        <ele>570</ele>
        <time>2021-10-02T14:34:45.578Z</time>
      </trkpt>
      <trkpt lat="45.48667" lon="5.36387">
        <ele>570</ele>
        <time>2021-10-02T14:34:44.579Z</time>
      </trkpt>
      <trkpt lat="45.48662" lon="5.36391">
        <ele>569</ele>
        <time>2021-10-02T14:34:43.579Z</time>
      </trkpt>
      <trkpt lat="45.48656" lon="5.36396">
        <ele>569</ele>
        <time>2021-10-02T14:34:42.579Z</time>
      </trkpt>
      <trkpt lat="45.4865" lon="5.364">
        <ele>568</ele>
        <time>2021-10-02T14:34:41.579Z</time>
      </trkpt>
      <trkpt lat="45.48644" lon="5.36403">
        <ele>568</ele>
        <time>2021-10-02T14:34:40.579Z</time>
      </trkpt>
      <trkpt lat="45.48639" lon="5.36405">
        <ele>568</ele>
        <time>2021-10-02T14:34:39.578Z</time>
      </trkpt>
      <trkpt lat="45.48634" lon="5.36408">
        <ele>567</ele>
        <time>2021-10-02T14:34:38.579Z</time>
      </trkpt>
      <trkpt lat="45.48628" lon="5.3641">
        <ele>567</ele>
        <time>2021-10-02T14:34:37.579Z</time>
      </trkpt>
      <trkpt lat="45.4862" lon="5.36412">
        <ele>567</ele>
        <time>2021-10-02T14:34:36.579Z</time>
      </trkpt>
      <trkpt lat="45.48614" lon="5.36415">
        <ele>566</ele>
        <time>2021-10-02T14:34:35.579Z</time>
      </trkpt>
      <trkpt lat="45.48609" lon="5.36416">
        <ele>566</ele>
        <time>2021-10-02T14:34:34.579Z</time>
      </trkpt>
      <trkpt lat="45.48603" lon="5.36418">
        <ele>566</ele>
        <time>2021-10-02T14:34:33.579Z</time>
      </trkpt>
      <trkpt lat="45.48598" lon="5.3642">
        <ele>566</ele>
        <time>2021-10-02T14:34:32.578Z</time>
      </trkpt>
      <trkpt lat="45.48591" lon="5.36422">
        <ele>566</ele>
        <time>2021-10-02T14:34:31.579Z</time>
      </trkpt>
      <trkpt lat="45.48585" lon="5.36425">
        <ele>566</ele>
        <time>2021-10-02T14:34:30.579Z</time>
      </trkpt>
      <trkpt lat="45.4858" lon="5.36426">
        <ele>566</ele>
        <time>2021-10-02T14:34:29.579Z</time>
      </trkpt>
      <trkpt lat="45.48575" lon="5.36427">
        <ele>566</ele>
        <time>2021-10-02T14:34:28.579Z</time>
      </trkpt>
      <trkpt lat="45.48569" lon="5.36429">
        <ele>566</ele>
        <time>2021-10-02T14:34:27.579Z</time>
      </trkpt>
      <trkpt lat="45.48562" lon="5.3643">
        <ele>565</ele>
        <time>2021-10-02T14:34:26.579Z</time>
      </trkpt>
      <trkpt lat="45.48556" lon="5.36431">
        <ele>565</ele>
        <time>2021-10-02T14:34:25.579Z</time>
      </trkpt>
      <trkpt lat="45.4855" lon="5.36432">
        <ele>565</ele>
        <time>2021-10-02T14:34:24.579Z</time>
      </trkpt>
      <trkpt lat="45.48545" lon="5.36432">
        <ele>565</ele>
        <time>2021-10-02T14:34:23.579Z</time>
      </trkpt>
      <trkpt lat="45.48538" lon="5.36432">
        <ele>565</ele>
        <time>2021-10-02T14:34:22.579Z</time>
      </trkpt>
      <trkpt lat="45.48532" lon="5.36433">
        <ele>564</ele>
        <time>2021-10-02T14:34:21.579Z</time>
      </trkpt>
      <trkpt lat="45.48526" lon="5.36434">
        <ele>564</ele>
        <time>2021-10-02T14:34:20.579Z</time>
      </trkpt>
      <trkpt lat="45.4852" lon="5.36435">
        <ele>564</ele>
        <time>2021-10-02T14:34:19.579Z</time>
      </trkpt>
      <trkpt lat="45.48516" lon="5.36436">
        <ele>564</ele>
        <time>2021-10-02T14:34:18.579Z</time>
      </trkpt>
      <trkpt lat="45.48511" lon="5.36438">
        <ele>564</ele>
        <time>2021-10-02T14:34:17.579Z</time>
      </trkpt>
      <trkpt lat="45.48505" lon="5.36439">
        <ele>564</ele>
        <time>2021-10-02T14:34:16.579Z</time>
      </trkpt>
      <trkpt lat="45.48499" lon="5.3644">
        <ele>564</ele>
        <time>2021-10-02T14:34:15.579Z</time>
      </trkpt>
      <trkpt lat="45.48494" lon="5.36442">
        <ele>564</ele>
        <time>2021-10-02T14:34:14.579Z</time>
      </trkpt>
      <trkpt lat="45.4849" lon="5.36443">
        <ele>564</ele>
        <time>2021-10-02T14:34:13.579Z</time>
      </trkpt>
      <trkpt lat="45.48484" lon="5.36443">
        <ele>564</ele>
        <time>2021-10-02T14:34:12.579Z</time>
      </trkpt>
      <trkpt lat="45.48478" lon="5.36444">
        <ele>563</ele>
        <time>2021-10-02T14:34:11.579Z</time>
      </trkpt>
      <trkpt lat="45.48472" lon="5.36445">
        <ele>563</ele>
        <time>2021-10-02T14:34:10.579Z</time>
      </trkpt>
      <trkpt lat="45.48466" lon="5.36446">
        <ele>562</ele>
        <time>2021-10-02T14:34:09.579Z</time>
      </trkpt>
      <trkpt lat="45.48461" lon="5.36447">
        <ele>562</ele>
        <time>2021-10-02T14:34:08.579Z</time>
      </trkpt>
      <trkpt lat="45.48455" lon="5.36448">
        <ele>562</ele>
        <time>2021-10-02T14:34:07.579Z</time>
      </trkpt>
      <trkpt lat="45.4845" lon="5.36449">
        <ele>562</ele>
        <time>2021-10-02T14:34:06.578Z</time>
      </trkpt>
      <trkpt lat="45.48443" lon="5.3645">
        <ele>562</ele>
        <time>2021-10-02T14:34:05.578Z</time>
      </trkpt>
      <trkpt lat="45.48438" lon="5.36451">
        <ele>561</ele>
        <time>2021-10-02T14:34:04.579Z</time>
      </trkpt>
      <trkpt lat="45.48431" lon="5.36452">
        <ele>561</ele>
        <time>2021-10-02T14:34:03.578Z</time>
      </trkpt>
      <trkpt lat="45.48427" lon="5.36454">
        <ele>561</ele>
        <time>2021-10-02T14:34:02.579Z</time>
      </trkpt>
      <trkpt lat="45.48421" lon="5.36457">
        <ele>561</ele>
        <time>2021-10-02T14:34:01.578Z</time>
      </trkpt>
      <trkpt lat="45.48414" lon="5.36461">
        <ele>562</ele>
        <time>2021-10-02T14:34:00.578Z</time>
      </trkpt>
      <trkpt lat="45.48408" lon="5.36464">
        <ele>562</ele>
        <time>2021-10-02T14:33:59.579Z</time>
      </trkpt>
      <trkpt lat="45.48402" lon="5.36468">
        <ele>562</ele>
        <time>2021-10-02T14:33:58.578Z</time>
      </trkpt>
      <trkpt lat="45.48397" lon="5.36471">
        <ele>562</ele>
        <time>2021-10-02T14:33:57.579Z</time>
      </trkpt>
      <trkpt lat="45.48391" lon="5.36475">
        <ele>562</ele>
        <time>2021-10-02T14:33:56.579Z</time>
      </trkpt>
      <trkpt lat="45.48384" lon="5.36479">
        <ele>562</ele>
        <time>2021-10-02T14:33:55.579Z</time>
      </trkpt>
      <trkpt lat="45.48378" lon="5.36483">
        <ele>562</ele>
        <time>2021-10-02T14:33:54.579Z</time>
      </trkpt>
      <trkpt lat="45.48373" lon="5.36486">
        <ele>562</ele>
        <time>2021-10-02T14:33:53.579Z</time>
      </trkpt>
      <trkpt lat="45.48367" lon="5.3649">
        <ele>561</ele>
        <time>2021-10-02T14:33:52.579Z</time>
      </trkpt>
      <trkpt lat="45.48362" lon="5.36494">
        <ele>561</ele>
        <time>2021-10-02T14:33:51.578Z</time>
      </trkpt>
      <trkpt lat="45.48355" lon="5.36499">
        <ele>561</ele>
        <time>2021-10-02T14:33:50.579Z</time>
      </trkpt>
      <trkpt lat="45.48349" lon="5.36503">
        <ele>561</ele>
        <time>2021-10-02T14:33:49.579Z</time>
      </trkpt>
      <trkpt lat="45.48343" lon="5.36506">
        <ele>561</ele>
        <time>2021-10-02T14:33:48.578Z</time>
      </trkpt>
      <trkpt lat="45.48339" lon="5.36509">
        <ele>561</ele>
        <time>2021-10-02T14:33:47.578Z</time>
      </trkpt>
      <trkpt lat="45.48333" lon="5.36513">
        <ele>560</ele>
        <time>2021-10-02T14:33:46.578Z</time>
      </trkpt>
      <trkpt lat="45.48326" lon="5.36518">
        <ele>560</ele>
        <time>2021-10-02T14:33:45.578Z</time>
      </trkpt>
      <trkpt lat="45.48321" lon="5.36521">
        <ele>560</ele>
        <time>2021-10-02T14:33:44.579Z</time>
      </trkpt>
      <trkpt lat="45.48315" lon="5.36525">
        <ele>560</ele>
        <time>2021-10-02T14:33:43.579Z</time>
      </trkpt>
      <trkpt lat="45.48309" lon="5.3653">
        <ele>561</ele>
        <time>2021-10-02T14:33:42.579Z</time>
      </trkpt>
      <trkpt lat="45.48302" lon="5.36535">
        <ele>561</ele>
        <time>2021-10-02T14:33:41.579Z</time>
      </trkpt>
      <trkpt lat="45.48295" lon="5.3654">
        <ele>561</ele>
        <time>2021-10-02T14:33:40.578Z</time>
      </trkpt>
      <trkpt lat="45.48289" lon="5.36545">
        <ele>561</ele>
        <time>2021-10-02T14:33:39.579Z</time>
      </trkpt>
      <trkpt lat="45.48284" lon="5.3655">
        <ele>560</ele>
        <time>2021-10-02T14:33:38.579Z</time>
      </trkpt>
      <trkpt lat="45.48278" lon="5.36556">
        <ele>561</ele>
        <time>2021-10-02T14:33:37.579Z</time>
      </trkpt>
      <trkpt lat="45.48272" lon="5.36562">
        <ele>561</ele>
        <time>2021-10-02T14:33:36.579Z</time>
      </trkpt>
      <trkpt lat="45.48267" lon="5.36569">
        <ele>560</ele>
        <time>2021-10-02T14:33:35.579Z</time>
      </trkpt>
      <trkpt lat="45.4826" lon="5.36577">
        <ele>560</ele>
        <time>2021-10-02T14:33:34.579Z</time>
      </trkpt>
      <trkpt lat="45.48256" lon="5.36582">
        <ele>560</ele>
        <time>2021-10-02T14:33:33.579Z</time>
      </trkpt>
      <trkpt lat="45.48251" lon="5.36589">
        <ele>560</ele>
        <time>2021-10-02T14:33:32.579Z</time>
      </trkpt>
      <trkpt lat="45.48245" lon="5.36596">
        <ele>560</ele>
        <time>2021-10-02T14:33:31.579Z</time>
      </trkpt>
      <trkpt lat="45.4824" lon="5.36602">
        <ele>560</ele>
        <time>2021-10-02T14:33:30.579Z</time>
      </trkpt>
      <trkpt lat="45.48234" lon="5.36607">
        <ele>560</ele>
        <time>2021-10-02T14:33:29.579Z</time>
      </trkpt>
      <trkpt lat="45.48227" lon="5.36614">
        <ele>560</ele>
        <time>2021-10-02T14:33:28.579Z</time>
      </trkpt>
      <trkpt lat="45.48222" lon="5.36617">
        <ele>560</ele>
        <time>2021-10-02T14:33:27.579Z</time>
      </trkpt>
      <trkpt lat="45.48216" lon="5.36622">
        <ele>560</ele>
        <time>2021-10-02T14:33:26.579Z</time>
      </trkpt>
      <trkpt lat="45.4821" lon="5.36626">
        <ele>560</ele>
        <time>2021-10-02T14:33:25.579Z</time>
      </trkpt>
      <trkpt lat="45.48202" lon="5.3663">
        <ele>561</ele>
        <time>2021-10-02T14:33:24.579Z</time>
      </trkpt>
      <trkpt lat="45.48197" lon="5.36633">
        <ele>560</ele>
        <time>2021-10-02T14:33:23.579Z</time>
      </trkpt>
      <trkpt lat="45.48191" lon="5.36637">
        <ele>560</ele>
        <time>2021-10-02T14:33:22.578Z</time>
      </trkpt>
      <trkpt lat="45.48185" lon="5.3664">
        <ele>560</ele>
        <time>2021-10-02T14:33:21.579Z</time>
      </trkpt>
      <trkpt lat="45.48179" lon="5.36644">
        <ele>560</ele>
        <time>2021-10-02T14:33:20.579Z</time>
      </trkpt>
      <trkpt lat="45.48172" lon="5.36649">
        <ele>560</ele>
        <time>2021-10-02T14:33:19.578Z</time>
      </trkpt>
      <trkpt lat="45.48166" lon="5.36652">
        <ele>560</ele>
        <time>2021-10-02T14:33:18.579Z</time>
      </trkpt>
      <trkpt lat="45.48162" lon="5.36655">
        <ele>560</ele>
        <time>2021-10-02T14:33:17.579Z</time>
      </trkpt>
      <trkpt lat="45.48156" lon="5.36659">
        <ele>561</ele>
        <time>2021-10-02T14:33:16.579Z</time>
      </trkpt>
      <trkpt lat="45.48151" lon="5.36662">
        <ele>561</ele>
        <time>2021-10-02T14:33:15.579Z</time>
      </trkpt>
      <trkpt lat="45.48144" lon="5.36667">
        <ele>561</ele>
        <time>2021-10-02T14:33:14.578Z</time>
      </trkpt>
      <trkpt lat="45.48138" lon="5.3667">
        <ele>560</ele>
        <time>2021-10-02T14:33:13.579Z</time>
      </trkpt>
      <trkpt lat="45.48133" lon="5.36674">
        <ele>560</ele>
        <time>2021-10-02T14:33:12.578Z</time>
      </trkpt>
      <trkpt lat="45.48128" lon="5.36677">
        <ele>560</ele>
        <time>2021-10-02T14:33:11.579Z</time>
      </trkpt>
      <trkpt lat="45.48122" lon="5.3668">
        <ele>560</ele>
        <time>2021-10-02T14:33:10.579Z</time>
      </trkpt>
      <trkpt lat="45.48117" lon="5.36683">
        <ele>560</ele>
        <time>2021-10-02T14:33:09.579Z</time>
      </trkpt>
      <trkpt lat="45.48111" lon="5.36686">
        <ele>559</ele>
        <time>2021-10-02T14:33:08.579Z</time>
      </trkpt>
      <trkpt lat="45.48105" lon="5.36689">
        <ele>560</ele>
        <time>2021-10-02T14:33:07.578Z</time>
      </trkpt>
      <trkpt lat="45.48099" lon="5.36692">
        <ele>560</ele>
        <time>2021-10-02T14:33:06.579Z</time>
      </trkpt>
      <trkpt lat="45.48093" lon="5.36695">
        <ele>560</ele>
        <time>2021-10-02T14:33:05.579Z</time>
      </trkpt>
      <trkpt lat="45.48087" lon="5.36698">
        <ele>560</ele>
        <time>2021-10-02T14:33:04.579Z</time>
      </trkpt>
      <trkpt lat="45.4808" lon="5.36701">
        <ele>560</ele>
        <time>2021-10-02T14:33:03.579Z</time>
      </trkpt>
      <trkpt lat="45.48074" lon="5.36704">
        <ele>559</ele>
        <time>2021-10-02T14:33:02.579Z</time>
      </trkpt>
      <trkpt lat="45.48069" lon="5.36706">
        <ele>559</ele>
        <time>2021-10-02T14:33:01.579Z</time>
      </trkpt>
      <trkpt lat="45.48063" lon="5.36708">
        <ele>559</ele>
        <time>2021-10-02T14:33:00.579Z</time>
      </trkpt>
      <trkpt lat="45.48057" lon="5.36711">
        <ele>559</ele>
        <time>2021-10-02T14:32:59.579Z</time>
      </trkpt>
      <trkpt lat="45.48051" lon="5.36714">
        <ele>559</ele>
        <time>2021-10-02T14:32:58.579Z</time>
      </trkpt>
      <trkpt lat="45.48045" lon="5.36716">
        <ele>559</ele>
        <time>2021-10-02T14:32:57.579Z</time>
      </trkpt>
      <trkpt lat="45.48039" lon="5.36719">
        <ele>559</ele>
        <time>2021-10-02T14:32:56.579Z</time>
      </trkpt>
      <trkpt lat="45.48033" lon="5.36722">
        <ele>559</ele>
        <time>2021-10-02T14:32:55.579Z</time>
      </trkpt>
      <trkpt lat="45.48026" lon="5.36724">
        <ele>558</ele>
        <time>2021-10-02T14:32:54.579Z</time>
      </trkpt>
      <trkpt lat="45.48019" lon="5.36727">
        <ele>558</ele>
        <time>2021-10-02T14:32:53.579Z</time>
      </trkpt>
      <trkpt lat="45.48014" lon="5.36729">
        <ele>558</ele>
        <time>2021-10-02T14:32:52.579Z</time>
      </trkpt>
      <trkpt lat="45.48007" lon="5.36731">
        <ele>558</ele>
        <time>2021-10-02T14:32:51.579Z</time>
      </trkpt>
      <trkpt lat="45.48001" lon="5.36733">
        <ele>558</ele>
        <time>2021-10-02T14:32:50.579Z</time>
      </trkpt>
      <trkpt lat="45.47994" lon="5.36736">
        <ele>557</ele>
        <time>2021-10-02T14:32:49.578Z</time>
      </trkpt>
      <trkpt lat="45.47987" lon="5.36737">
        <ele>557</ele>
        <time>2021-10-02T14:32:48.579Z</time>
      </trkpt>
      <trkpt lat="45.4798" lon="5.36739">
        <ele>556</ele>
        <time>2021-10-02T14:32:47.579Z</time>
      </trkpt>
      <trkpt lat="45.47975" lon="5.36739">
        <ele>556</ele>
        <time>2021-10-02T14:32:46.579Z</time>
      </trkpt>
      <trkpt lat="45.47968" lon="5.3674">
        <ele>555</ele>
        <time>2021-10-02T14:32:45.578Z</time>
      </trkpt>
      <trkpt lat="45.47962" lon="5.3674">
        <ele>555</ele>
        <time>2021-10-02T14:32:44.578Z</time>
      </trkpt>
      <trkpt lat="45.47955" lon="5.3674">
        <ele>555</ele>
        <time>2021-10-02T14:32:43.579Z</time>
      </trkpt>
      <trkpt lat="45.47948" lon="5.36739">
        <ele>555</ele>
        <time>2021-10-02T14:32:42.578Z</time>
      </trkpt>
      <trkpt lat="45.47942" lon="5.36738">
        <ele>555</ele>
        <time>2021-10-02T14:32:41.579Z</time>
      </trkpt>
      <trkpt lat="45.47935" lon="5.36737">
        <ele>555</ele>
        <time>2021-10-02T14:32:40.578Z</time>
      </trkpt>
      <trkpt lat="45.47929" lon="5.36736">
        <ele>554</ele>
        <time>2021-10-02T14:32:39.579Z</time>
      </trkpt>
      <trkpt lat="45.47921" lon="5.36735">
        <ele>554</ele>
        <time>2021-10-02T14:32:38.578Z</time>
      </trkpt>
      <trkpt lat="45.47916" lon="5.36734">
        <ele>553</ele>
        <time>2021-10-02T14:32:37.578Z</time>
      </trkpt>
      <trkpt lat="45.47909" lon="5.36732">
        <ele>552</ele>
        <time>2021-10-02T14:32:36.579Z</time>
      </trkpt>
      <trkpt lat="45.47903" lon="5.36731">
        <ele>552</ele>
        <time>2021-10-02T14:32:35.579Z</time>
      </trkpt>
      <trkpt lat="45.47895" lon="5.36728">
        <ele>551</ele>
        <time>2021-10-02T14:32:34.579Z</time>
      </trkpt>
      <trkpt lat="45.47888" lon="5.36726">
        <ele>551</ele>
        <time>2021-10-02T14:32:33.579Z</time>
      </trkpt>
      <trkpt lat="45.47882" lon="5.36723">
        <ele>552</ele>
        <time>2021-10-02T14:32:32.579Z</time>
      </trkpt>
      <trkpt lat="45.47877" lon="5.36721">
        <ele>552</ele>
        <time>2021-10-02T14:32:31.579Z</time>
      </trkpt>
      <trkpt lat="45.4787" lon="5.36718">
        <ele>552</ele>
        <time>2021-10-02T14:32:30.579Z</time>
      </trkpt>
      <trkpt lat="45.47864" lon="5.36716">
        <ele>552</ele>
        <time>2021-10-02T14:32:29.579Z</time>
      </trkpt>
      <trkpt lat="45.47856" lon="5.36712">
        <ele>552</ele>
        <time>2021-10-02T14:32:28.579Z</time>
      </trkpt>
      <trkpt lat="45.4785" lon="5.3671">
        <ele>552</ele>
        <time>2021-10-02T14:32:27.579Z</time>
      </trkpt>
      <trkpt lat="45.47844" lon="5.36708">
        <ele>552</ele>
        <time>2021-10-02T14:32:26.579Z</time>
      </trkpt>
      <trkpt lat="45.47837" lon="5.36705">
        <ele>552</ele>
        <time>2021-10-02T14:32:25.579Z</time>
      </trkpt>
      <trkpt lat="45.47831" lon="5.36702">
        <ele>551</ele>
        <time>2021-10-02T14:32:24.578Z</time>
      </trkpt>
      <trkpt lat="45.47823" lon="5.36698">
        <ele>551</ele>
        <time>2021-10-02T14:32:23.579Z</time>
      </trkpt>
      <trkpt lat="45.47816" lon="5.36695">
        <ele>551</ele>
        <time>2021-10-02T14:32:22.579Z</time>
      </trkpt>
      <trkpt lat="45.4781" lon="5.36692">
        <ele>551</ele>
        <time>2021-10-02T14:32:21.579Z</time>
      </trkpt>
      <trkpt lat="45.47803" lon="5.36688">
        <ele>551</ele>
        <time>2021-10-02T14:32:20.578Z</time>
      </trkpt>
      <trkpt lat="45.47796" lon="5.36684">
        <ele>551</ele>
        <time>2021-10-02T14:32:19.579Z</time>
      </trkpt>
      <trkpt lat="45.47788" lon="5.36678">
        <ele>551</ele>
        <time>2021-10-02T14:32:18.579Z</time>
      </trkpt>
      <trkpt lat="45.47782" lon="5.36674">
        <ele>551</ele>
        <time>2021-10-02T14:32:17.579Z</time>
      </trkpt>
      <trkpt lat="45.47775" lon="5.3667">
        <ele>552</ele>
        <time>2021-10-02T14:32:16.578Z</time>
      </trkpt>
      <trkpt lat="45.47768" lon="5.36665">
        <ele>551</ele>
        <time>2021-10-02T14:32:15.579Z</time>
      </trkpt>
      <trkpt lat="45.47761" lon="5.3666">
        <ele>551</ele>
        <time>2021-10-02T14:32:14.579Z</time>
      </trkpt>
      <trkpt lat="45.47752" lon="5.36654">
        <ele>550</ele>
        <time>2021-10-02T14:32:13.579Z</time>
      </trkpt>
      <trkpt lat="45.47745" lon="5.36649">
        <ele>550</ele>
        <time>2021-10-02T14:32:12.579Z</time>
      </trkpt>
      <trkpt lat="45.4774" lon="5.36645">
        <ele>550</ele>
        <time>2021-10-02T14:32:11.579Z</time>
      </trkpt>
      <trkpt lat="45.47733" lon="5.3664">
        <ele>550</ele>
        <time>2021-10-02T14:32:10.578Z</time>
      </trkpt>
      <trkpt lat="45.47726" lon="5.36635">
        <ele>550</ele>
        <time>2021-10-02T14:32:09.579Z</time>
      </trkpt>
      <trkpt lat="45.47719" lon="5.3663">
        <ele>551</ele>
        <time>2021-10-02T14:32:08.579Z</time>
      </trkpt>
      <trkpt lat="45.47711" lon="5.36624">
        <ele>551</ele>
        <time>2021-10-02T14:32:07.579Z</time>
      </trkpt>
      <trkpt lat="45.47703" lon="5.3662">
        <ele>551</ele>
        <time>2021-10-02T14:32:06.579Z</time>
      </trkpt>
      <trkpt lat="45.47698" lon="5.36616">
        <ele>551</ele>
        <time>2021-10-02T14:32:05.579Z</time>
      </trkpt>
      <trkpt lat="45.47691" lon="5.36612">
        <ele>550</ele>
        <time>2021-10-02T14:32:04.579Z</time>
      </trkpt>
      <trkpt lat="45.47684" lon="5.36607">
        <ele>550</ele>
        <time>2021-10-02T14:32:03.578Z</time>
      </trkpt>
      <trkpt lat="45.47676" lon="5.36602">
        <ele>550</ele>
        <time>2021-10-02T14:32:02.578Z</time>
      </trkpt>
      <trkpt lat="45.4767" lon="5.36598">
        <ele>550</ele>
        <time>2021-10-02T14:32:01.579Z</time>
      </trkpt>
      <trkpt lat="45.47664" lon="5.36595">
        <ele>550</ele>
        <time>2021-10-02T14:32:00.579Z</time>
      </trkpt>
      <trkpt lat="45.47658" lon="5.3659">
        <ele>551</ele>
        <time>2021-10-02T14:31:59.579Z</time>
      </trkpt>
      <trkpt lat="45.47651" lon="5.36585">
        <ele>551</ele>
        <time>2021-10-02T14:31:58.579Z</time>
      </trkpt>
      <trkpt lat="45.47645" lon="5.3658">
        <ele>551</ele>
        <time>2021-10-02T14:31:57.579Z</time>
      </trkpt>
      <trkpt lat="45.47638" lon="5.36575">
        <ele>551</ele>
        <time>2021-10-02T14:31:56.578Z</time>
      </trkpt>
      <trkpt lat="45.47632" lon="5.3657">
        <ele>552</ele>
        <time>2021-10-02T14:31:55.579Z</time>
      </trkpt>
      <trkpt lat="45.47625" lon="5.36566">
        <ele>552</ele>
        <time>2021-10-02T14:31:54.579Z</time>
      </trkpt>
      <trkpt lat="45.47617" lon="5.36561">
        <ele>552</ele>
        <time>2021-10-02T14:31:53.579Z</time>
      </trkpt>
      <trkpt lat="45.4761" lon="5.36557">
        <ele>552</ele>
        <time>2021-10-02T14:31:52.578Z</time>
      </trkpt>
      <trkpt lat="45.47604" lon="5.36554">
        <ele>552</ele>
        <time>2021-10-02T14:31:51.579Z</time>
      </trkpt>
      <trkpt lat="45.47599" lon="5.36551">
        <ele>553</ele>
        <time>2021-10-02T14:31:50.579Z</time>
      </trkpt>
      <trkpt lat="45.47592" lon="5.36548">
        <ele>553</ele>
        <time>2021-10-02T14:31:49.579Z</time>
      </trkpt>
      <trkpt lat="45.47586" lon="5.36544">
        <ele>553</ele>
        <time>2021-10-02T14:31:48.579Z</time>
      </trkpt>
      <trkpt lat="45.47578" lon="5.3654">
        <ele>553</ele>
        <time>2021-10-02T14:31:47.578Z</time>
      </trkpt>
      <trkpt lat="45.47572" lon="5.36536">
        <ele>553</ele>
        <time>2021-10-02T14:31:46.579Z</time>
      </trkpt>
      <trkpt lat="45.47566" lon="5.36533">
        <ele>553</ele>
        <time>2021-10-02T14:31:45.579Z</time>
      </trkpt>
      <trkpt lat="45.4756" lon="5.36529">
        <ele>553</ele>
        <time>2021-10-02T14:31:44.579Z</time>
      </trkpt>
      <trkpt lat="45.47552" lon="5.36525">
        <ele>553</ele>
        <time>2021-10-02T14:31:43.579Z</time>
      </trkpt>
      <trkpt lat="45.47545" lon="5.36521">
        <ele>553</ele>
        <time>2021-10-02T14:31:42.579Z</time>
      </trkpt>
      <trkpt lat="45.47538" lon="5.36518">
        <ele>553</ele>
        <time>2021-10-02T14:31:41.579Z</time>
      </trkpt>
      <trkpt lat="45.47532" lon="5.36515">
        <ele>553</ele>
        <time>2021-10-02T14:31:40.578Z</time>
      </trkpt>
      <trkpt lat="45.47525" lon="5.36511">
        <ele>553</ele>
        <time>2021-10-02T14:31:39.578Z</time>
      </trkpt>
      <trkpt lat="45.47517" lon="5.36507">
        <ele>553</ele>
        <time>2021-10-02T14:31:38.579Z</time>
      </trkpt>
      <trkpt lat="45.4751" lon="5.36503">
        <ele>554</ele>
        <time>2021-10-02T14:31:37.579Z</time>
      </trkpt>
      <trkpt lat="45.47503" lon="5.365">
        <ele>554</ele>
        <time>2021-10-02T14:31:36.579Z</time>
      </trkpt>
      <trkpt lat="45.47496" lon="5.36496">
        <ele>554</ele>
        <time>2021-10-02T14:31:35.579Z</time>
      </trkpt>
      <trkpt lat="45.47491" lon="5.36493">
        <ele>553</ele>
        <time>2021-10-02T14:31:34.578Z</time>
      </trkpt>
      <trkpt lat="45.47484" lon="5.3649">
        <ele>553</ele>
        <time>2021-10-02T14:31:33.579Z</time>
      </trkpt>
      <trkpt lat="45.47477" lon="5.36486">
        <ele>552</ele>
        <time>2021-10-02T14:31:32.579Z</time>
      </trkpt>
      <trkpt lat="45.47468" lon="5.36483">
        <ele>552</ele>
        <time>2021-10-02T14:31:31.579Z</time>
      </trkpt>
      <trkpt lat="45.47463" lon="5.3648">
        <ele>552</ele>
        <time>2021-10-02T14:31:30.579Z</time>
      </trkpt>
      <trkpt lat="45.47456" lon="5.36477">
        <ele>552</ele>
        <time>2021-10-02T14:31:29.579Z</time>
      </trkpt>
      <trkpt lat="45.4745" lon="5.36474">
        <ele>552</ele>
        <time>2021-10-02T14:31:28.579Z</time>
      </trkpt>
      <trkpt lat="45.47443" lon="5.36471">
        <ele>552</ele>
        <time>2021-10-02T14:31:27.579Z</time>
      </trkpt>
      <trkpt lat="45.47437" lon="5.36469">
        <ele>552</ele>
        <time>2021-10-02T14:31:26.579Z</time>
      </trkpt>
      <trkpt lat="45.47432" lon="5.36467">
        <ele>552</ele>
        <time>2021-10-02T14:31:25.579Z</time>
      </trkpt>
      <trkpt lat="45.47426" lon="5.36465">
        <ele>553</ele>
        <time>2021-10-02T14:31:24.579Z</time>
      </trkpt>
      <trkpt lat="45.4742" lon="5.36463">
        <ele>553</ele>
        <time>2021-10-02T14:31:23.579Z</time>
      </trkpt>
      <trkpt lat="45.47414" lon="5.36461">
        <ele>553</ele>
        <time>2021-10-02T14:31:22.579Z</time>
      </trkpt>
      <trkpt lat="45.47408" lon="5.36458">
        <ele>553</ele>
        <time>2021-10-02T14:31:21.579Z</time>
      </trkpt>
      <trkpt lat="45.47403" lon="5.36457">
        <ele>553</ele>
        <time>2021-10-02T14:31:20.579Z</time>
      </trkpt>
      <trkpt lat="45.47398" lon="5.36454">
        <ele>553</ele>
        <time>2021-10-02T14:31:19.578Z</time>
      </trkpt>
      <trkpt lat="45.47393" lon="5.36452">
        <ele>552</ele>
        <time>2021-10-02T14:31:18.579Z</time>
      </trkpt>
      <trkpt lat="45.47387" lon="5.36449">
        <ele>551</ele>
        <time>2021-10-02T14:31:17.579Z</time>
      </trkpt>
      <trkpt lat="45.47382" lon="5.36447">
        <ele>551</ele>
        <time>2021-10-02T14:31:16.579Z</time>
      </trkpt>
      <trkpt lat="45.47378" lon="5.36445">
        <ele>551</ele>
        <time>2021-10-02T14:31:15.579Z</time>
      </trkpt>
      <trkpt lat="45.47373" lon="5.36444">
        <ele>551</ele>
        <time>2021-10-02T14:31:14.579Z</time>
      </trkpt>
      <trkpt lat="45.47368" lon="5.36443">
        <ele>551</ele>
        <time>2021-10-02T14:31:13.579Z</time>
      </trkpt>
      <trkpt lat="45.47363" lon="5.36441">
        <ele>551</ele>
        <time>2021-10-02T14:31:12.578Z</time>
      </trkpt>
      <trkpt lat="45.47357" lon="5.36439">
        <ele>551</ele>
        <time>2021-10-02T14:31:11.579Z</time>
      </trkpt>
      <trkpt lat="45.47351" lon="5.36438">
        <ele>552</ele>
        <time>2021-10-02T14:31:10.579Z</time>
      </trkpt>
      <trkpt lat="45.47345" lon="5.36436">
        <ele>551</ele>
        <time>2021-10-02T14:31:09.579Z</time>
      </trkpt>
      <trkpt lat="45.47338" lon="5.36434">
        <ele>551</ele>
        <time>2021-10-02T14:31:08.579Z</time>
      </trkpt>
      <trkpt lat="45.47332" lon="5.36431">
        <ele>552</ele>
        <time>2021-10-02T14:31:07.579Z</time>
      </trkpt>
      <trkpt lat="45.47325" lon="5.36427">
        <ele>552</ele>
        <time>2021-10-02T14:31:06.579Z</time>
      </trkpt>
      <trkpt lat="45.47319" lon="5.36423">
        <ele>552</ele>
        <time>2021-10-02T14:31:05.579Z</time>
      </trkpt>
      <trkpt lat="45.47313" lon="5.36416">
        <ele>552</ele>
        <time>2021-10-02T14:31:04.579Z</time>
      </trkpt>
      <trkpt lat="45.47308" lon="5.36409">
        <ele>552</ele>
        <time>2021-10-02T14:31:03.579Z</time>
      </trkpt>
      <trkpt lat="45.47303" lon="5.36402">
        <ele>552</ele>
        <time>2021-10-02T14:31:02.579Z</time>
      </trkpt>
      <trkpt lat="45.47298" lon="5.36393">
        <ele>552</ele>
        <time>2021-10-02T14:31:01.579Z</time>
      </trkpt>
      <trkpt lat="45.47293" lon="5.36385">
        <ele>552</ele>
        <time>2021-10-02T14:31:00.579Z</time>
      </trkpt>
      <trkpt lat="45.47288" lon="5.36377">
        <ele>552</ele>
        <time>2021-10-02T14:30:59.579Z</time>
      </trkpt>
      <trkpt lat="45.47282" lon="5.36369">
        <ele>551</ele>
        <time>2021-10-02T14:30:58.579Z</time>
      </trkpt>
      <trkpt lat="45.47276" lon="5.36361">
        <ele>551</ele>
        <time>2021-10-02T14:30:57.579Z</time>
      </trkpt>
      <trkpt lat="45.47269" lon="5.36354">
        <ele>551</ele>
        <time>2021-10-02T14:30:56.579Z</time>
      </trkpt>
      <trkpt lat="45.47263" lon="5.36346">
        <ele>550</ele>
        <time>2021-10-02T14:30:55.579Z</time>
      </trkpt>
      <trkpt lat="45.47256" lon="5.36338">
        <ele>550</ele>
        <time>2021-10-02T14:30:54.579Z</time>
      </trkpt>
      <trkpt lat="45.4725" lon="5.3633">
        <ele>550</ele>
        <time>2021-10-02T14:30:53.579Z</time>
      </trkpt>
      <trkpt lat="45.47245" lon="5.36322">
        <ele>550</ele>
        <time>2021-10-02T14:30:52.579Z</time>
      </trkpt>
      <trkpt lat="45.47239" lon="5.36313">
        <ele>550</ele>
        <time>2021-10-02T14:30:51.579Z</time>
      </trkpt>
      <trkpt lat="45.47233" lon="5.36305">
        <ele>551</ele>
        <time>2021-10-02T14:30:50.579Z</time>
      </trkpt>
      <trkpt lat="45.47227" lon="5.36296">
        <ele>552</ele>
        <time>2021-10-02T14:30:49.578Z</time>
      </trkpt>
      <trkpt lat="45.47221" lon="5.36285">
        <ele>552</ele>
        <time>2021-10-02T14:30:48.579Z</time>
      </trkpt>
      <trkpt lat="45.47216" lon="5.36277">
        <ele>553</ele>
        <time>2021-10-02T14:30:47.579Z</time>
      </trkpt>
      <trkpt lat="45.47211" lon="5.36268">
        <ele>553</ele>
        <time>2021-10-02T14:30:46.579Z</time>
      </trkpt>
      <trkpt lat="45.47205" lon="5.36259">
        <ele>553</ele>
        <time>2021-10-02T14:30:45.578Z</time>
      </trkpt>
      <trkpt lat="45.472" lon="5.36249">
        <ele>553</ele>
        <time>2021-10-02T14:30:44.579Z</time>
      </trkpt>
      <trkpt lat="45.47195" lon="5.36241">
        <ele>553</ele>
        <time>2021-10-02T14:30:43.579Z</time>
      </trkpt>
      <trkpt lat="45.4719" lon="5.36232">
        <ele>553</ele>
        <time>2021-10-02T14:30:42.579Z</time>
      </trkpt>
      <trkpt lat="45.47186" lon="5.36225">
        <ele>554</ele>
        <time>2021-10-02T14:30:41.578Z</time>
      </trkpt>
      <trkpt lat="45.47182" lon="5.36217">
        <ele>554</ele>
        <time>2021-10-02T14:30:40.579Z</time>
      </trkpt>
      <trkpt lat="45.47178" lon="5.36211">
        <ele>555</ele>
        <time>2021-10-02T14:30:39.579Z</time>
      </trkpt>
      <trkpt lat="45.47175" lon="5.36204">
        <ele>556</ele>
        <time>2021-10-02T14:30:38.579Z</time>
      </trkpt>
      <trkpt lat="45.47171" lon="5.36198">
        <ele>556</ele>
        <time>2021-10-02T14:30:37.578Z</time>
      </trkpt>
      <trkpt lat="45.47168" lon="5.36191">
        <ele>557</ele>
        <time>2021-10-02T14:30:36.579Z</time>
      </trkpt>
      <trkpt lat="45.47165" lon="5.36185">
        <ele>557</ele>
        <time>2021-10-02T14:30:35.578Z</time>
      </trkpt>
      <trkpt lat="45.47162" lon="5.36179">
        <ele>557</ele>
        <time>2021-10-02T14:30:34.578Z</time>
      </trkpt>
      <trkpt lat="45.47159" lon="5.36173">
        <ele>557</ele>
        <time>2021-10-02T14:30:33.579Z</time>
      </trkpt>
      <trkpt lat="45.47156" lon="5.36166">
        <ele>557</ele>
        <time>2021-10-02T14:30:32.579Z</time>
      </trkpt>
      <trkpt lat="45.47153" lon="5.36159">
        <ele>557</ele>
        <time>2021-10-02T14:30:31.579Z</time>
      </trkpt>
      <trkpt lat="45.47149" lon="5.36152">
        <ele>557</ele>
        <time>2021-10-02T14:30:30.579Z</time>
      </trkpt>
      <trkpt lat="45.47146" lon="5.36145">
        <ele>557</ele>
        <time>2021-10-02T14:30:29.579Z</time>
      </trkpt>
      <trkpt lat="45.47142" lon="5.36136">
        <ele>557</ele>
        <time>2021-10-02T14:30:28.579Z</time>
      </trkpt>
      <trkpt lat="45.47138" lon="5.36129">
        <ele>557</ele>
        <time>2021-10-02T14:30:27.578Z</time>
      </trkpt>
      <trkpt lat="45.47135" lon="5.36123">
        <ele>557</ele>
        <time>2021-10-02T14:30:26.579Z</time>
      </trkpt>
      <trkpt lat="45.47131" lon="5.36114">
        <ele>558</ele>
        <time>2021-10-02T14:30:25.578Z</time>
      </trkpt>
      <trkpt lat="45.47127" lon="5.36106">
        <ele>558</ele>
        <time>2021-10-02T14:30:24.579Z</time>
      </trkpt>
      <trkpt lat="45.47122" lon="5.36095">
        <ele>558</ele>
        <time>2021-10-02T14:30:23.578Z</time>
      </trkpt>
      <trkpt lat="45.47118" lon="5.36087">
        <ele>557</ele>
        <time>2021-10-02T14:30:22.579Z</time>
      </trkpt>
      <trkpt lat="45.47114" lon="5.36078">
        <ele>557</ele>
        <time>2021-10-02T14:30:21.579Z</time>
      </trkpt>
      <trkpt lat="45.4711" lon="5.36071">
        <ele>557</ele>
        <time>2021-10-02T14:30:20.579Z</time>
      </trkpt>
      <trkpt lat="45.47105" lon="5.36063">
        <ele>557</ele>
        <time>2021-10-02T14:30:19.578Z</time>
      </trkpt>
      <trkpt lat="45.471" lon="5.36053">
        <ele>557</ele>
        <time>2021-10-02T14:30:18.579Z</time>
      </trkpt>
      <trkpt lat="45.47095" lon="5.36044">
        <ele>557</ele>
        <time>2021-10-02T14:30:17.578Z</time>
      </trkpt>
      <trkpt lat="45.4709" lon="5.36035">
        <ele>557</ele>
        <time>2021-10-02T14:30:16.579Z</time>
      </trkpt>
      <trkpt lat="45.47086" lon="5.36027">
        <ele>557</ele>
        <time>2021-10-02T14:30:15.579Z</time>
      </trkpt>
      <trkpt lat="45.47081" lon="5.36018">
        <ele>557</ele>
        <time>2021-10-02T14:30:14.578Z</time>
      </trkpt>
      <trkpt lat="45.47076" lon="5.36007">
        <ele>557</ele>
        <time>2021-10-02T14:30:13.578Z</time>
      </trkpt>
      <trkpt lat="45.47073" lon="5.35999">
        <ele>558</ele>
        <time>2021-10-02T14:30:12.579Z</time>
      </trkpt>
      <trkpt lat="45.4707" lon="5.35987">
        <ele>558</ele>
        <time>2021-10-02T14:30:11.578Z</time>
      </trkpt>
      <trkpt lat="45.47068" lon="5.35979">
        <ele>559</ele>
        <time>2021-10-02T14:30:10.578Z</time>
      </trkpt>
      <trkpt lat="45.47066" lon="5.35968">
        <ele>559</ele>
        <time>2021-10-02T14:30:09.578Z</time>
      </trkpt>
      <trkpt lat="45.47065" lon="5.35958">
        <ele>560</ele>
        <time>2021-10-02T14:30:08.579Z</time>
      </trkpt>
      <trkpt lat="45.47063" lon="5.35947">
        <ele>560</ele>
        <time>2021-10-02T14:30:07.579Z</time>
      </trkpt>
      <trkpt lat="45.47063" lon="5.35939">
        <ele>560</ele>
        <time>2021-10-02T14:30:06.579Z</time>
      </trkpt>
      <trkpt lat="45.47063" lon="5.35931">
        <ele>560</ele>
        <time>2021-10-02T14:30:05.579Z</time>
      </trkpt>
      <trkpt lat="45.47062" lon="5.35922">
        <ele>560</ele>
        <time>2021-10-02T14:30:04.579Z</time>
      </trkpt>
      <trkpt lat="45.47062" lon="5.35914">
        <ele>560</ele>
        <time>2021-10-02T14:30:03.579Z</time>
      </trkpt>
      <trkpt lat="45.47062" lon="5.35906">
        <ele>560</ele>
        <time>2021-10-02T14:30:02.578Z</time>
      </trkpt>
      <trkpt lat="45.47062" lon="5.35899">
        <ele>559</ele>
        <time>2021-10-02T14:30:01.578Z</time>
      </trkpt>
      <trkpt lat="45.47062" lon="5.35892">
        <ele>559</ele>
        <time>2021-10-02T14:30:00.579Z</time>
      </trkpt>
      <trkpt lat="45.47062" lon="5.35885">
        <ele>559</ele>
        <time>2021-10-02T14:29:59.579Z</time>
      </trkpt>
      <trkpt lat="45.47063" lon="5.35879">
        <ele>559</ele>
        <time>2021-10-02T14:29:58.579Z</time>
      </trkpt>
      <trkpt lat="45.47064" lon="5.35873">
        <ele>559</ele>
        <time>2021-10-02T14:29:57.579Z</time>
      </trkpt>
      <trkpt lat="45.47064" lon="5.35866">
        <ele>559</ele>
        <time>2021-10-02T14:29:56.579Z</time>
      </trkpt>
      <trkpt lat="45.47065" lon="5.3586">
        <ele>559</ele>
        <time>2021-10-02T14:29:55.578Z</time>
      </trkpt>
      <trkpt lat="45.47065" lon="5.35855">
        <ele>559</ele>
        <time>2021-10-02T14:29:54.579Z</time>
      </trkpt>
      <trkpt lat="45.47066" lon="5.35849">
        <ele>559</ele>
        <time>2021-10-02T14:29:53.579Z</time>
      </trkpt>
      <trkpt lat="45.47067" lon="5.35842">
        <ele>558</ele>
        <time>2021-10-02T14:29:52.579Z</time>
      </trkpt>
      <trkpt lat="45.47067" lon="5.35837">
        <ele>559</ele>
        <time>2021-10-02T14:29:51.579Z</time>
      </trkpt>
      <trkpt lat="45.47068" lon="5.35831">
        <ele>559</ele>
        <time>2021-10-02T14:29:50.579Z</time>
      </trkpt>
      <trkpt lat="45.4707" lon="5.35825">
        <ele>559</ele>
        <time>2021-10-02T14:29:49.578Z</time>
      </trkpt>
      <trkpt lat="45.47071" lon="5.3582">
        <ele>559</ele>
        <time>2021-10-02T14:29:48.579Z</time>
      </trkpt>
      <trkpt lat="45.47072" lon="5.35813">
        <ele>558</ele>
        <time>2021-10-02T14:29:47.579Z</time>
      </trkpt>
      <trkpt lat="45.47073" lon="5.35808">
        <ele>558</ele>
        <time>2021-10-02T14:29:46.579Z</time>
      </trkpt>
      <trkpt lat="45.47074" lon="5.35804">
        <ele>558</ele>
        <time>2021-10-02T14:29:45.579Z</time>
      </trkpt>
      <trkpt lat="45.47075" lon="5.358">
        <ele>558</ele>
        <time>2021-10-02T14:29:44.579Z</time>
      </trkpt>
      <trkpt lat="45.47076" lon="5.35796">
        <ele>558</ele>
        <time>2021-10-02T14:29:43.579Z</time>
      </trkpt>
      <trkpt lat="45.47076" lon="5.35792">
        <ele>558</ele>
        <time>2021-10-02T14:29:42.579Z</time>
      </trkpt>
      <trkpt lat="45.47076" lon="5.35789">
        <ele>557</ele>
        <time>2021-10-02T14:29:41.579Z</time>
      </trkpt>
      <trkpt lat="45.47074" lon="5.35788">
        <ele>557</ele>
        <time>2021-10-02T14:29:40.579Z</time>
      </trkpt>
      <trkpt lat="45.47072" lon="5.35788">
        <ele>556</ele>
        <time>2021-10-02T14:29:39.578Z</time>
      </trkpt>
      <trkpt lat="45.4707" lon="5.35789">
        <ele>556</ele>
        <time>2021-10-02T14:29:38.579Z</time>
      </trkpt>
      <trkpt lat="45.47067" lon="5.35792">
        <ele>556</ele>
        <time>2021-10-02T14:29:37.579Z</time>
      </trkpt>
      <trkpt lat="45.47065" lon="5.35795">
        <ele>555</ele>
        <time>2021-10-02T14:29:36.579Z</time>
      </trkpt>
      <trkpt lat="45.47063" lon="5.35799">
        <ele>555</ele>
        <time>2021-10-02T14:29:35.578Z</time>
      </trkpt>
      <trkpt lat="45.47061" lon="5.35803">
        <ele>555</ele>
        <time>2021-10-02T14:29:34.579Z</time>
      </trkpt>
      <trkpt lat="45.47059" lon="5.35806">
        <ele>555</ele>
        <time>2021-10-02T14:29:33.579Z</time>
      </trkpt>
      <trkpt lat="45.47057" lon="5.35811">
        <ele>555</ele>
        <time>2021-10-02T14:29:32.578Z</time>
      </trkpt>
      <trkpt lat="45.47056" lon="5.35813">
        <ele>554</ele>
        <time>2021-10-02T14:29:31.579Z</time>
      </trkpt>
      <trkpt lat="45.47054" lon="5.35817">
        <ele>554</ele>
        <time>2021-10-02T14:29:30.578Z</time>
      </trkpt>
      <trkpt lat="45.47053" lon="5.35821">
        <ele>554</ele>
        <time>2021-10-02T14:29:29.579Z</time>
      </trkpt>
      <trkpt lat="45.47051" lon="5.35825">
        <ele>553</ele>
        <time>2021-10-02T14:29:28.579Z</time>
      </trkpt>
      <trkpt lat="45.47049" lon="5.35829">
        <ele>553</ele>
        <time>2021-10-02T14:29:27.579Z</time>
      </trkpt>
      <trkpt lat="45.47048" lon="5.35833">
        <ele>553</ele>
        <time>2021-10-02T14:29:26.578Z</time>
      </trkpt>
      <trkpt lat="45.47047" lon="5.35836">
        <ele>553</ele>
        <time>2021-10-02T14:29:25.579Z</time>
      </trkpt>
      <trkpt lat="45.47045" lon="5.3584">
        <ele>552</ele>
        <time>2021-10-02T14:29:24.579Z</time>
      </trkpt>
      <trkpt lat="45.47044" lon="5.35843">
        <ele>552</ele>
        <time>2021-10-02T14:29:23.579Z</time>
      </trkpt>
      <trkpt lat="45.47042" lon="5.35847">
        <ele>552</ele>
        <time>2021-10-02T14:29:22.579Z</time>
      </trkpt>
      <trkpt lat="45.4704" lon="5.35852">
        <ele>552</ele>
        <time>2021-10-02T14:29:21.579Z</time>
      </trkpt>
      <trkpt lat="45.47039" lon="5.35855">
        <ele>551</ele>
        <time>2021-10-02T14:29:20.579Z</time>
      </trkpt>
      <trkpt lat="45.47038" lon="5.35859">
        <ele>550</ele>
        <time>2021-10-02T14:29:19.579Z</time>
      </trkpt>
      <trkpt lat="45.47036" lon="5.35863">
        <ele>550</ele>
        <time>2021-10-02T14:29:18.579Z</time>
      </trkpt>
      <trkpt lat="45.47034" lon="5.35867">
        <ele>550</ele>
        <time>2021-10-02T14:29:17.579Z</time>
      </trkpt>
      <trkpt lat="45.47032" lon="5.35871">
        <ele>550</ele>
        <time>2021-10-02T14:29:16.579Z</time>
      </trkpt>
      <trkpt lat="45.4703" lon="5.35874">
        <ele>549</ele>
        <time>2021-10-02T14:29:15.578Z</time>
      </trkpt>
      <trkpt lat="45.47029" lon="5.35878">
        <ele>549</ele>
        <time>2021-10-02T14:29:14.579Z</time>
      </trkpt>
      <trkpt lat="45.47027" lon="5.35882">
        <ele>549</ele>
        <time>2021-10-02T14:29:13.578Z</time>
      </trkpt>
      <trkpt lat="45.47025" lon="5.35886">
        <ele>548</ele>
        <time>2021-10-02T14:29:12.579Z</time>
      </trkpt>
      <trkpt lat="45.47023" lon="5.3589">
        <ele>548</ele>
        <time>2021-10-02T14:29:11.578Z</time>
      </trkpt>
      <trkpt lat="45.47021" lon="5.35893">
        <ele>548</ele>
        <time>2021-10-02T14:29:10.578Z</time>
      </trkpt>
      <trkpt lat="45.47019" lon="5.35896">
        <ele>548</ele>
        <time>2021-10-02T14:29:09.579Z</time>
      </trkpt>
      <trkpt lat="45.47016" lon="5.359">
        <ele>547</ele>
        <time>2021-10-02T14:29:08.579Z</time>
      </trkpt>
      <trkpt lat="45.47014" lon="5.35903">
        <ele>547</ele>
        <time>2021-10-02T14:29:07.579Z</time>
      </trkpt>
      <trkpt lat="45.47011" lon="5.35907">
        <ele>547</ele>
        <time>2021-10-02T14:29:06.579Z</time>
      </trkpt>
      <trkpt lat="45.47009" lon="5.3591">
        <ele>547</ele>
        <time>2021-10-02T14:29:05.579Z</time>
      </trkpt>
      <trkpt lat="45.47007" lon="5.35913">
        <ele>547</ele>
        <time>2021-10-02T14:29:04.579Z</time>
      </trkpt>
      <trkpt lat="45.47005" lon="5.35917">
        <ele>547</ele>
        <time>2021-10-02T14:29:03.578Z</time>
      </trkpt>
      <trkpt lat="45.47003" lon="5.35921">
        <ele>546</ele>
        <time>2021-10-02T14:29:02.579Z</time>
      </trkpt>
      <trkpt lat="45.47001" lon="5.35925">
        <ele>545</ele>
        <time>2021-10-02T14:29:01.578Z</time>
      </trkpt>
      <trkpt lat="45.46999" lon="5.35929">
        <ele>545</ele>
        <time>2021-10-02T14:29:00.579Z</time>
      </trkpt>
      <trkpt lat="45.46997" lon="5.35933">
        <ele>544</ele>
        <time>2021-10-02T14:28:59.579Z</time>
      </trkpt>
      <trkpt lat="45.46994" lon="5.35937">
        <ele>544</ele>
        <time>2021-10-02T14:28:58.579Z</time>
      </trkpt>
      <trkpt lat="45.46992" lon="5.35941">
        <ele>543</ele>
        <time>2021-10-02T14:28:57.579Z</time>
      </trkpt>
      <trkpt lat="45.46988" lon="5.35946">
        <ele>543</ele>
        <time>2021-10-02T14:28:56.579Z</time>
      </trkpt>
      <trkpt lat="45.46986" lon="5.3595">
        <ele>542</ele>
        <time>2021-10-02T14:28:55.579Z</time>
      </trkpt>
      <trkpt lat="45.46983" lon="5.35955">
        <ele>542</ele>
        <time>2021-10-02T14:28:54.578Z</time>
      </trkpt>
      <trkpt lat="45.4698" lon="5.3596">
        <ele>542</ele>
        <time>2021-10-02T14:28:53.579Z</time>
      </trkpt>
      <trkpt lat="45.46977" lon="5.35965">
        <ele>541</ele>
        <time>2021-10-02T14:28:52.578Z</time>
      </trkpt>
      <trkpt lat="45.46974" lon="5.3597">
        <ele>541</ele>
        <time>2021-10-02T14:28:51.579Z</time>
      </trkpt>
      <trkpt lat="45.4697" lon="5.35975">
        <ele>541</ele>
        <time>2021-10-02T14:28:50.579Z</time>
      </trkpt>
      <trkpt lat="45.46968" lon="5.35979">
        <ele>541</ele>
        <time>2021-10-02T14:28:49.578Z</time>
      </trkpt>
      <trkpt lat="45.46964" lon="5.35983">
        <ele>541</ele>
        <time>2021-10-02T14:28:48.579Z</time>
      </trkpt>
      <trkpt lat="45.4696" lon="5.35989">
        <ele>541</ele>
        <time>2021-10-02T14:28:47.579Z</time>
      </trkpt>
      <trkpt lat="45.46957" lon="5.35993">
        <ele>541</ele>
        <time>2021-10-02T14:28:46.579Z</time>
      </trkpt>
      <trkpt lat="45.46954" lon="5.35997">
        <ele>542</ele>
        <time>2021-10-02T14:28:45.579Z</time>
      </trkpt>
      <trkpt lat="45.46951" lon="5.36">
        <ele>542</ele>
        <time>2021-10-02T14:28:44.579Z</time>
      </trkpt>
      <trkpt lat="45.46947" lon="5.36004">
        <ele>542</ele>
        <time>2021-10-02T14:28:43.579Z</time>
      </trkpt>
      <trkpt lat="45.46943" lon="5.36006">
        <ele>542</ele>
        <time>2021-10-02T14:28:42.579Z</time>
      </trkpt>
      <trkpt lat="45.46937" lon="5.36008">
        <ele>542</ele>
        <time>2021-10-02T14:28:41.579Z</time>
      </trkpt>
      <trkpt lat="45.46932" lon="5.36008">
        <ele>542</ele>
        <time>2021-10-02T14:28:40.579Z</time>
      </trkpt>
      <trkpt lat="45.46927" lon="5.36008">
        <ele>542</ele>
        <time>2021-10-02T14:28:39.579Z</time>
      </trkpt>
      <trkpt lat="45.46921" lon="5.36007">
        <ele>542</ele>
        <time>2021-10-02T14:28:38.579Z</time>
      </trkpt>
      <trkpt lat="45.46914" lon="5.36005">
        <ele>542</ele>
        <time>2021-10-02T14:28:37.579Z</time>
      </trkpt>
      <trkpt lat="45.46907" lon="5.36003">
        <ele>542</ele>
        <time>2021-10-02T14:28:36.579Z</time>
      </trkpt>
      <trkpt lat="45.469" lon="5.36001">
        <ele>541</ele>
        <time>2021-10-02T14:28:35.579Z</time>
      </trkpt>
      <trkpt lat="45.46894" lon="5.35999">
        <ele>542</ele>
        <time>2021-10-02T14:28:34.579Z</time>
      </trkpt>
      <trkpt lat="45.46887" lon="5.35997">
        <ele>542</ele>
        <time>2021-10-02T14:28:33.579Z</time>
      </trkpt>
      <trkpt lat="45.4688" lon="5.35995">
        <ele>542</ele>
        <time>2021-10-02T14:28:32.579Z</time>
      </trkpt>
      <trkpt lat="45.46872" lon="5.35995">
        <ele>541</ele>
        <time>2021-10-02T14:28:31.579Z</time>
      </trkpt>
      <trkpt lat="45.46865" lon="5.35995">
        <ele>541</ele>
        <time>2021-10-02T14:28:30.578Z</time>
      </trkpt>
      <trkpt lat="45.46859" lon="5.35995">
        <ele>541</ele>
        <time>2021-10-02T14:28:29.578Z</time>
      </trkpt>
      <trkpt lat="45.46853" lon="5.35998">
        <ele>541</ele>
        <time>2021-10-02T14:28:28.579Z</time>
      </trkpt>
      <trkpt lat="45.46846" lon="5.36003">
        <ele>541</ele>
        <time>2021-10-02T14:28:27.579Z</time>
      </trkpt>
      <trkpt lat="45.4684" lon="5.36008">
        <ele>541</ele>
        <time>2021-10-02T14:28:26.579Z</time>
      </trkpt>
      <trkpt lat="45.46833" lon="5.36016">
        <ele>541</ele>
        <time>2021-10-02T14:28:25.579Z</time>
      </trkpt>
      <trkpt lat="45.46829" lon="5.36021">
        <ele>540</ele>
        <time>2021-10-02T14:28:24.578Z</time>
      </trkpt>
      <trkpt lat="45.46823" lon="5.36028">
        <ele>540</ele>
        <time>2021-10-02T14:28:23.578Z</time>
      </trkpt>
      <trkpt lat="45.46818" lon="5.36034">
        <ele>540</ele>
        <time>2021-10-02T14:28:22.578Z</time>
      </trkpt>
      <trkpt lat="45.4681" lon="5.3604">
        <ele>540</ele>
        <time>2021-10-02T14:28:21.578Z</time>
      </trkpt>
      <trkpt lat="45.46805" lon="5.36044">
        <ele>540</ele>
        <time>2021-10-02T14:28:20.579Z</time>
      </trkpt>
      <trkpt lat="45.46799" lon="5.36049">
        <ele>540</ele>
        <time>2021-10-02T14:28:19.579Z</time>
      </trkpt>
      <trkpt lat="45.46792" lon="5.36054">
        <ele>541</ele>
        <time>2021-10-02T14:28:18.579Z</time>
      </trkpt>
      <trkpt lat="45.46785" lon="5.36059">
        <ele>541</ele>
        <time>2021-10-02T14:28:17.578Z</time>
      </trkpt>
      <trkpt lat="45.46776" lon="5.36065">
        <ele>541</ele>
        <time>2021-10-02T14:28:16.578Z</time>
      </trkpt>
      <trkpt lat="45.46768" lon="5.3607">
        <ele>541</ele>
        <time>2021-10-02T14:28:15.579Z</time>
      </trkpt>
      <trkpt lat="45.46761" lon="5.36074">
        <ele>542</ele>
        <time>2021-10-02T14:28:14.578Z</time>
      </trkpt>
      <trkpt lat="45.46753" lon="5.36079">
        <ele>543</ele>
        <time>2021-10-02T14:28:13.579Z</time>
      </trkpt>
      <trkpt lat="45.46744" lon="5.36084">
        <ele>543</ele>
        <time>2021-10-02T14:28:12.578Z</time>
      </trkpt>
      <trkpt lat="45.46733" lon="5.36089">
        <ele>544</ele>
        <time>2021-10-02T14:28:11.579Z</time>
      </trkpt>
      <trkpt lat="45.46724" lon="5.36094">
        <ele>544</ele>
        <time>2021-10-02T14:28:10.579Z</time>
      </trkpt>
      <trkpt lat="45.46717" lon="5.36098">
        <ele>545</ele>
        <time>2021-10-02T14:28:09.579Z</time>
      </trkpt>
      <trkpt lat="45.46707" lon="5.36103">
        <ele>545</ele>
        <time>2021-10-02T14:28:08.579Z</time>
      </trkpt>
      <trkpt lat="45.46698" lon="5.36107">
        <ele>546</ele>
        <time>2021-10-02T14:28:07.579Z</time>
      </trkpt>
      <trkpt lat="45.46686" lon="5.36112">
        <ele>547</ele>
        <time>2021-10-02T14:28:06.579Z</time>
      </trkpt>
      <trkpt lat="45.46677" lon="5.36116">
        <ele>547</ele>
        <time>2021-10-02T14:28:05.579Z</time>
      </trkpt>
      <trkpt lat="45.46667" lon="5.36121">
        <ele>548</ele>
        <time>2021-10-02T14:28:04.579Z</time>
      </trkpt>
      <trkpt lat="45.46659" lon="5.36124">
        <ele>548</ele>
        <time>2021-10-02T14:28:03.579Z</time>
      </trkpt>
      <trkpt lat="45.46648" lon="5.3613">
        <ele>549</ele>
        <time>2021-10-02T14:28:02.579Z</time>
      </trkpt>
      <trkpt lat="45.4664" lon="5.36134">
        <ele>549</ele>
        <time>2021-10-02T14:28:01.579Z</time>
      </trkpt>
      <trkpt lat="45.46631" lon="5.3614">
        <ele>549</ele>
        <time>2021-10-02T14:28:00.579Z</time>
      </trkpt>
      <trkpt lat="45.46623" lon="5.36146">
        <ele>549</ele>
        <time>2021-10-02T14:27:59.579Z</time>
      </trkpt>
      <trkpt lat="45.46618" lon="5.36151">
        <ele>550</ele>
        <time>2021-10-02T14:27:58.578Z</time>
      </trkpt>
      <trkpt lat="45.46612" lon="5.36157">
        <ele>550</ele>
        <time>2021-10-02T14:27:57.578Z</time>
      </trkpt>
      <trkpt lat="45.46606" lon="5.36163">
        <ele>550</ele>
        <time>2021-10-02T14:27:56.578Z</time>
      </trkpt>
      <trkpt lat="45.46601" lon="5.3617">
        <ele>550</ele>
        <time>2021-10-02T14:27:55.579Z</time>
      </trkpt>
      <trkpt lat="45.46597" lon="5.36174">
        <ele>550</ele>
        <time>2021-10-02T14:27:54.579Z</time>
      </trkpt>
      <trkpt lat="45.46594" lon="5.3618">
        <ele>550</ele>
        <time>2021-10-02T14:27:53.578Z</time>
      </trkpt>
      <trkpt lat="45.4659" lon="5.36186">
        <ele>550</ele>
        <time>2021-10-02T14:27:52.578Z</time>
      </trkpt>
      <trkpt lat="45.46586" lon="5.36191">
        <ele>551</ele>
        <time>2021-10-02T14:27:51.579Z</time>
      </trkpt>
      <trkpt lat="45.46582" lon="5.36196">
        <ele>551</ele>
        <time>2021-10-02T14:27:50.578Z</time>
      </trkpt>
      <trkpt lat="45.46577" lon="5.36201">
        <ele>550</ele>
        <time>2021-10-02T14:27:49.579Z</time>
      </trkpt>
      <trkpt lat="45.46573" lon="5.36206">
        <ele>550</ele>
        <time>2021-10-02T14:27:48.578Z</time>
      </trkpt>
      <trkpt lat="45.46568" lon="5.3621">
        <ele>550</ele>
        <time>2021-10-02T14:27:47.579Z</time>
      </trkpt>
      <trkpt lat="45.46562" lon="5.36214">
        <ele>551</ele>
        <time>2021-10-02T14:27:46.578Z</time>
      </trkpt>
      <trkpt lat="45.46556" lon="5.36218">
        <ele>551</ele>
        <time>2021-10-02T14:27:45.579Z</time>
      </trkpt>
      <trkpt lat="45.46552" lon="5.36221">
        <ele>552</ele>
        <time>2021-10-02T14:27:44.578Z</time>
      </trkpt>
      <trkpt lat="45.46547" lon="5.36225">
        <ele>552</ele>
        <time>2021-10-02T14:27:43.579Z</time>
      </trkpt>
      <trkpt lat="45.46541" lon="5.36228">
        <ele>552</ele>
        <time>2021-10-02T14:27:42.579Z</time>
      </trkpt>
      <trkpt lat="45.46535" lon="5.36232">
        <ele>552</ele>
        <time>2021-10-02T14:27:41.578Z</time>
      </trkpt>
      <trkpt lat="45.4653" lon="5.36235">
        <ele>551</ele>
        <time>2021-10-02T14:27:40.579Z</time>
      </trkpt>
      <trkpt lat="45.46525" lon="5.36238">
        <ele>551</ele>
        <time>2021-10-02T14:27:39.578Z</time>
      </trkpt>
      <trkpt lat="45.46521" lon="5.3624">
        <ele>551</ele>
        <time>2021-10-02T14:27:38.579Z</time>
      </trkpt>
      <trkpt lat="45.46517" lon="5.36243">
        <ele>551</ele>
        <time>2021-10-02T14:27:37.579Z</time>
      </trkpt>
      <trkpt lat="45.46512" lon="5.36245">
        <ele>551</ele>
        <time>2021-10-02T14:27:36.579Z</time>
      </trkpt>
      <trkpt lat="45.46507" lon="5.36248">
        <ele>551</ele>
        <time>2021-10-02T14:27:35.579Z</time>
      </trkpt>
      <trkpt lat="45.46503" lon="5.36251">
        <ele>551</ele>
        <time>2021-10-02T14:27:34.579Z</time>
      </trkpt>
      <trkpt lat="45.46499" lon="5.36253">
        <ele>551</ele>
        <time>2021-10-02T14:27:33.578Z</time>
      </trkpt>
      <trkpt lat="45.46495" lon="5.36256">
        <ele>551</ele>
        <time>2021-10-02T14:27:32.579Z</time>
      </trkpt>
      <trkpt lat="45.4649" lon="5.36258">
        <ele>551</ele>
        <time>2021-10-02T14:27:31.579Z</time>
      </trkpt>
      <trkpt lat="45.46485" lon="5.36262">
        <ele>551</ele>
        <time>2021-10-02T14:27:30.579Z</time>
      </trkpt>
      <trkpt lat="45.46481" lon="5.36264">
        <ele>551</ele>
        <time>2021-10-02T14:27:29.578Z</time>
      </trkpt>
      <trkpt lat="45.46476" lon="5.36267">
        <ele>551</ele>
        <time>2021-10-02T14:27:28.579Z</time>
      </trkpt>
      <trkpt lat="45.46473" lon="5.3627">
        <ele>550</ele>
        <time>2021-10-02T14:27:27.579Z</time>
      </trkpt>
      <trkpt lat="45.46468" lon="5.36273">
        <ele>550</ele>
        <time>2021-10-02T14:27:26.579Z</time>
      </trkpt>
      <trkpt lat="45.46464" lon="5.36276">
        <ele>550</ele>
        <time>2021-10-02T14:27:25.578Z</time>
      </trkpt>
      <trkpt lat="45.4646" lon="5.36278">
        <ele>550</ele>
        <time>2021-10-02T14:27:24.578Z</time>
      </trkpt>
      <trkpt lat="45.46457" lon="5.3628">
        <ele>550</ele>
        <time>2021-10-02T14:27:23.578Z</time>
      </trkpt>
      <trkpt lat="45.46453" lon="5.36282">
        <ele>549</ele>
        <time>2021-10-02T14:27:22.578Z</time>
      </trkpt>
      <trkpt lat="45.46449" lon="5.36285">
        <ele>549</ele>
        <time>2021-10-02T14:27:21.578Z</time>
      </trkpt>
      <trkpt lat="45.46445" lon="5.36289">
        <ele>549</ele>
        <time>2021-10-02T14:27:20.578Z</time>
      </trkpt>
      <trkpt lat="45.46442" lon="5.36292">
        <ele>549</ele>
        <time>2021-10-02T14:27:19.579Z</time>
      </trkpt>
      <trkpt lat="45.46439" lon="5.36295">
        <ele>548</ele>
        <time>2021-10-02T14:27:18.578Z</time>
      </trkpt>
      <trkpt lat="45.46436" lon="5.36298">
        <ele>548</ele>
        <time>2021-10-02T14:27:17.579Z</time>
      </trkpt>
      <trkpt lat="45.46432" lon="5.36302">
        <ele>547</ele>
        <time>2021-10-02T14:27:16.579Z</time>
      </trkpt>
      <trkpt lat="45.46429" lon="5.36307">
        <ele>547</ele>
        <time>2021-10-02T14:27:15.579Z</time>
      </trkpt>
      <trkpt lat="45.46426" lon="5.36311">
        <ele>546</ele>
        <time>2021-10-02T14:27:14.579Z</time>
      </trkpt>
      <trkpt lat="45.46423" lon="5.36314">
        <ele>546</ele>
        <time>2021-10-02T14:27:13.579Z</time>
      </trkpt>
      <trkpt lat="45.4642" lon="5.36317">
        <ele>546</ele>
        <time>2021-10-02T14:27:12.578Z</time>
      </trkpt>
      <trkpt lat="45.46417" lon="5.36321">
        <ele>545</ele>
        <time>2021-10-02T14:27:11.579Z</time>
      </trkpt>
      <trkpt lat="45.46414" lon="5.36327">
        <ele>545</ele>
        <time>2021-10-02T14:27:10.578Z</time>
      </trkpt>
      <trkpt lat="45.46412" lon="5.36332">
        <ele>545</ele>
        <time>2021-10-02T14:27:09.578Z</time>
      </trkpt>
      <trkpt lat="45.46411" lon="5.36338">
        <ele>545</ele>
        <time>2021-10-02T14:27:08.579Z</time>
      </trkpt>
      <trkpt lat="45.46409" lon="5.36342">
        <ele>545</ele>
        <time>2021-10-02T14:27:07.579Z</time>
      </trkpt>
      <trkpt lat="45.46408" lon="5.36348">
        <ele>545</ele>
        <time>2021-10-02T14:27:06.578Z</time>
      </trkpt>
      <trkpt lat="45.46407" lon="5.36355">
        <ele>545</ele>
        <time>2021-10-02T14:27:05.579Z</time>
      </trkpt>
      <trkpt lat="45.46406" lon="5.36361">
        <ele>545</ele>
        <time>2021-10-02T14:27:04.579Z</time>
      </trkpt>
      <trkpt lat="45.46405" lon="5.36367">
        <ele>545</ele>
        <time>2021-10-02T14:27:03.578Z</time>
      </trkpt>
      <trkpt lat="45.46404" lon="5.36371">
        <ele>545</ele>
        <time>2021-10-02T14:27:02.578Z</time>
      </trkpt>
      <trkpt lat="45.46402" lon="5.36377">
        <ele>545</ele>
        <time>2021-10-02T14:27:01.579Z</time>
      </trkpt>
      <trkpt lat="45.464" lon="5.36383">
        <ele>544</ele>
        <time>2021-10-02T14:27:00.579Z</time>
      </trkpt>
      <trkpt lat="45.46397" lon="5.36389">
        <ele>543</ele>
        <time>2021-10-02T14:26:59.579Z</time>
      </trkpt>
      <trkpt lat="45.46395" lon="5.36395">
        <ele>543</ele>
        <time>2021-10-02T14:26:58.578Z</time>
      </trkpt>
      <trkpt lat="45.46392" lon="5.36399">
        <ele>543</ele>
        <time>2021-10-02T14:26:57.579Z</time>
      </trkpt>
      <trkpt lat="45.46389" lon="5.36404">
        <ele>543</ele>
        <time>2021-10-02T14:26:56.579Z</time>
      </trkpt>
      <trkpt lat="45.46385" lon="5.36408">
        <ele>543</ele>
        <time>2021-10-02T14:26:55.578Z</time>
      </trkpt>
      <trkpt lat="45.46382" lon="5.36413">
        <ele>542</ele>
        <time>2021-10-02T14:26:54.578Z</time>
      </trkpt>
      <trkpt lat="45.46378" lon="5.36417">
        <ele>542</ele>
        <time>2021-10-02T14:26:53.579Z</time>
      </trkpt>
      <trkpt lat="45.46374" lon="5.36422">
        <ele>541</ele>
        <time>2021-10-02T14:26:52.578Z</time>
      </trkpt>
      <trkpt lat="45.4637" lon="5.36426">
        <ele>541</ele>
        <time>2021-10-02T14:26:51.578Z</time>
      </trkpt>
      <trkpt lat="45.46365" lon="5.36431">
        <ele>541</ele>
        <time>2021-10-02T14:26:50.578Z</time>
      </trkpt>
      <trkpt lat="45.46362" lon="5.36434">
        <ele>541</ele>
        <time>2021-10-02T14:26:49.579Z</time>
      </trkpt>
      <trkpt lat="45.46357" lon="5.36439">
        <ele>541</ele>
        <time>2021-10-02T14:26:48.579Z</time>
      </trkpt>
      <trkpt lat="45.46354" lon="5.36443">
        <ele>541</ele>
        <time>2021-10-02T14:26:47.578Z</time>
      </trkpt>
      <trkpt lat="45.4635" lon="5.36447">
        <ele>541</ele>
        <time>2021-10-02T14:26:46.579Z</time>
      </trkpt>
      <trkpt lat="45.46346" lon="5.36453">
        <ele>541</ele>
        <time>2021-10-02T14:26:45.579Z</time>
      </trkpt>
      <trkpt lat="45.46342" lon="5.36458">
        <ele>541</ele>
        <time>2021-10-02T14:26:44.579Z</time>
      </trkpt>
      <trkpt lat="45.46339" lon="5.36461">
        <ele>541</ele>
        <time>2021-10-02T14:26:43.579Z</time>
      </trkpt>
      <trkpt lat="45.46334" lon="5.36466">
        <ele>540</ele>
        <time>2021-10-02T14:26:42.579Z</time>
      </trkpt>
      <trkpt lat="45.46331" lon="5.36472">
        <ele>540</ele>
        <time>2021-10-02T14:26:41.578Z</time>
      </trkpt>
      <trkpt lat="45.46327" lon="5.36477">
        <ele>539</ele>
        <time>2021-10-02T14:26:40.579Z</time>
      </trkpt>
      <trkpt lat="45.46322" lon="5.36485">
        <ele>539</ele>
        <time>2021-10-02T14:26:39.579Z</time>
      </trkpt>
      <trkpt lat="45.46318" lon="5.3649">
        <ele>538</ele>
        <time>2021-10-02T14:26:38.579Z</time>
      </trkpt>
      <trkpt lat="45.46313" lon="5.36497">
        <ele>537</ele>
        <time>2021-10-02T14:26:37.579Z</time>
      </trkpt>
      <trkpt lat="45.46308" lon="5.36505">
        <ele>537</ele>
        <time>2021-10-02T14:26:36.579Z</time>
      </trkpt>
      <trkpt lat="45.46302" lon="5.36513">
        <ele>537</ele>
        <time>2021-10-02T14:26:35.579Z</time>
      </trkpt>
      <trkpt lat="45.46296" lon="5.36521">
        <ele>537</ele>
        <time>2021-10-02T14:26:34.579Z</time>
      </trkpt>
      <trkpt lat="45.46291" lon="5.36526">
        <ele>538</ele>
        <time>2021-10-02T14:26:33.579Z</time>
      </trkpt>
      <trkpt lat="45.46285" lon="5.36534">
        <ele>538</ele>
        <time>2021-10-02T14:26:32.579Z</time>
      </trkpt>
      <trkpt lat="45.46279" lon="5.36541">
        <ele>538</ele>
        <time>2021-10-02T14:26:31.578Z</time>
      </trkpt>
      <trkpt lat="45.46271" lon="5.36549">
        <ele>538</ele>
        <time>2021-10-02T14:26:30.579Z</time>
      </trkpt>
      <trkpt lat="45.46266" lon="5.36556">
        <ele>538</ele>
        <time>2021-10-02T14:26:29.579Z</time>
      </trkpt>
      <trkpt lat="45.4626" lon="5.36564">
        <ele>538</ele>
        <time>2021-10-02T14:26:28.579Z</time>
      </trkpt>
      <trkpt lat="45.46254" lon="5.36573">
        <ele>539</ele>
        <time>2021-10-02T14:26:27.579Z</time>
      </trkpt>
      <trkpt lat="45.46249" lon="5.36583">
        <ele>539</ele>
        <time>2021-10-02T14:26:26.579Z</time>
      </trkpt>
      <trkpt lat="45.46244" lon="5.36595">
        <ele>539</ele>
        <time>2021-10-02T14:26:25.579Z</time>
      </trkpt>
      <trkpt lat="45.4624" lon="5.36606">
        <ele>539</ele>
        <time>2021-10-02T14:26:24.579Z</time>
      </trkpt>
      <trkpt lat="45.46237" lon="5.36616">
        <ele>540</ele>
        <time>2021-10-02T14:26:23.579Z</time>
      </trkpt>
      <trkpt lat="45.46235" lon="5.36625">
        <ele>540</ele>
        <time>2021-10-02T14:26:22.579Z</time>
      </trkpt>
      <trkpt lat="45.46234" lon="5.36636">
        <ele>540</ele>
        <time>2021-10-02T14:26:21.578Z</time>
      </trkpt>
      <trkpt lat="45.46233" lon="5.36649">
        <ele>541</ele>
        <time>2021-10-02T14:26:20.579Z</time>
      </trkpt>
      <trkpt lat="45.46233" lon="5.3666">
        <ele>542</ele>
        <time>2021-10-02T14:26:19.579Z</time>
      </trkpt>
      <trkpt lat="45.46233" lon="5.3667">
        <ele>544</ele>
        <time>2021-10-02T14:26:18.579Z</time>
      </trkpt>
      <trkpt lat="45.46233" lon="5.36681">
        <ele>544</ele>
        <time>2021-10-02T14:26:17.579Z</time>
      </trkpt>
      <trkpt lat="45.46233" lon="5.36691">
        <ele>545</ele>
        <time>2021-10-02T14:26:16.579Z</time>
      </trkpt>
      <trkpt lat="45.46233" lon="5.36704">
        <ele>545</ele>
        <time>2021-10-02T14:26:15.579Z</time>
      </trkpt>
      <trkpt lat="45.46233" lon="5.36716">
        <ele>546</ele>
        <time>2021-10-02T14:26:14.579Z</time>
      </trkpt>
      <trkpt lat="45.46233" lon="5.36727">
        <ele>546</ele>
        <time>2021-10-02T14:26:13.579Z</time>
      </trkpt>
      <trkpt lat="45.46234" lon="5.36739">
        <ele>546</ele>
        <time>2021-10-02T14:26:12.579Z</time>
      </trkpt>
      <trkpt lat="45.46234" lon="5.36748">
        <ele>546</ele>
        <time>2021-10-02T14:26:11.579Z</time>
      </trkpt>
      <trkpt lat="45.46236" lon="5.36762">
        <ele>546</ele>
        <time>2021-10-02T14:26:10.578Z</time>
      </trkpt>
      <trkpt lat="45.46237" lon="5.36774">
        <ele>546</ele>
        <time>2021-10-02T14:26:09.579Z</time>
      </trkpt>
      <trkpt lat="45.46238" lon="5.36785">
        <ele>546</ele>
        <time>2021-10-02T14:26:08.579Z</time>
      </trkpt>
      <trkpt lat="45.4624" lon="5.36798">
        <ele>546</ele>
        <time>2021-10-02T14:26:07.579Z</time>
      </trkpt>
      <trkpt lat="45.46241" lon="5.3681">
        <ele>546</ele>
        <time>2021-10-02T14:26:06.579Z</time>
      </trkpt>
      <trkpt lat="45.46242" lon="5.36822">
        <ele>546</ele>
        <time>2021-10-02T14:26:05.579Z</time>
      </trkpt>
      <trkpt lat="45.46243" lon="5.36834">
        <ele>547</ele>
        <time>2021-10-02T14:26:04.578Z</time>
      </trkpt>
      <trkpt lat="45.46244" lon="5.36847">
        <ele>547</ele>
        <time>2021-10-02T14:26:03.578Z</time>
      </trkpt>
      <trkpt lat="45.46245" lon="5.3686">
        <ele>548</ele>
        <time>2021-10-02T14:26:02.578Z</time>
      </trkpt>
      <trkpt lat="45.46245" lon="5.36873">
        <ele>548</ele>
        <time>2021-10-02T14:26:01.579Z</time>
      </trkpt>
      <trkpt lat="45.46245" lon="5.36885">
        <ele>549</ele>
        <time>2021-10-02T14:26:00.578Z</time>
      </trkpt>
      <trkpt lat="45.46245" lon="5.36898">
        <ele>549</ele>
        <time>2021-10-02T14:25:59.578Z</time>
      </trkpt>
      <trkpt lat="45.46245" lon="5.36911">
        <ele>550</ele>
        <time>2021-10-02T14:25:58.579Z</time>
      </trkpt>
      <trkpt lat="45.46245" lon="5.36921">
        <ele>550</ele>
        <time>2021-10-02T14:25:57.579Z</time>
      </trkpt>
      <trkpt lat="45.46245" lon="5.36933">
        <ele>550</ele>
        <time>2021-10-02T14:25:56.579Z</time>
      </trkpt>
      <trkpt lat="45.46244" lon="5.36948">
        <ele>551</ele>
        <time>2021-10-02T14:25:55.579Z</time>
      </trkpt>
      <trkpt lat="45.46243" lon="5.3696">
        <ele>551</ele>
        <time>2021-10-02T14:25:54.579Z</time>
      </trkpt>
      <trkpt lat="45.46242" lon="5.36971">
        <ele>552</ele>
        <time>2021-10-02T14:25:53.579Z</time>
      </trkpt>
      <trkpt lat="45.46241" lon="5.3698">
        <ele>554</ele>
        <time>2021-10-02T14:25:52.579Z</time>
      </trkpt>
      <trkpt lat="45.46238" lon="5.36991">
        <ele>554</ele>
        <time>2021-10-02T14:25:51.579Z</time>
      </trkpt>
      <trkpt lat="45.46235" lon="5.37001">
        <ele>555</ele>
        <time>2021-10-02T14:25:50.579Z</time>
      </trkpt>
      <trkpt lat="45.4623" lon="5.37012">
        <ele>555</ele>
        <time>2021-10-02T14:25:49.579Z</time>
      </trkpt>
      <trkpt lat="45.46224" lon="5.3702">
        <ele>555</ele>
        <time>2021-10-02T14:25:48.578Z</time>
      </trkpt>
      <trkpt lat="45.46219" lon="5.37025">
        <ele>555</ele>
        <time>2021-10-02T14:25:47.578Z</time>
      </trkpt>
      <trkpt lat="45.46214" lon="5.3703">
        <ele>555</ele>
        <time>2021-10-02T14:25:46.579Z</time>
      </trkpt>
      <trkpt lat="45.46209" lon="5.37035">
        <ele>555</ele>
        <time>2021-10-02T14:25:45.579Z</time>
      </trkpt>
      <trkpt lat="45.46205" lon="5.37042">
        <ele>555</ele>
        <time>2021-10-02T14:25:44.579Z</time>
      </trkpt>
      <trkpt lat="45.46202" lon="5.37048">
        <ele>554</ele>
        <time>2021-10-02T14:25:43.579Z</time>
      </trkpt>
      <trkpt lat="45.46201" lon="5.37055">
        <ele>554</ele>
        <time>2021-10-02T14:25:42.579Z</time>
      </trkpt>
      <trkpt lat="45.46201" lon="5.37063">
        <ele>554</ele>
        <time>2021-10-02T14:25:41.579Z</time>
      </trkpt>
      <trkpt lat="45.462" lon="5.3707">
        <ele>554</ele>
        <time>2021-10-02T14:25:40.579Z</time>
      </trkpt>
      <trkpt lat="45.462" lon="5.37078">
        <ele>554</ele>
        <time>2021-10-02T14:25:39.579Z</time>
      </trkpt>
      <trkpt lat="45.46201" lon="5.37086">
        <ele>554</ele>
        <time>2021-10-02T14:25:38.579Z</time>
      </trkpt>
      <trkpt lat="45.46201" lon="5.37093">
        <ele>553</ele>
        <time>2021-10-02T14:25:37.579Z</time>
      </trkpt>
      <trkpt lat="45.462" lon="5.37101">
        <ele>553</ele>
        <time>2021-10-02T14:25:36.579Z</time>
      </trkpt>
      <trkpt lat="45.462" lon="5.37108">
        <ele>552</ele>
        <time>2021-10-02T14:25:35.579Z</time>
      </trkpt>
      <trkpt lat="45.462" lon="5.37116">
        <ele>552</ele>
        <time>2021-10-02T14:25:34.578Z</time>
      </trkpt>
      <trkpt lat="45.462" lon="5.37123">
        <ele>551</ele>
        <time>2021-10-02T14:25:33.578Z</time>
      </trkpt>
      <trkpt lat="45.46199" lon="5.37131">
        <ele>551</ele>
        <time>2021-10-02T14:25:32.579Z</time>
      </trkpt>
      <trkpt lat="45.46199" lon="5.37139">
        <ele>551</ele>
        <time>2021-10-02T14:25:31.579Z</time>
      </trkpt>
      <trkpt lat="45.46198" lon="5.37146">
        <ele>552</ele>
        <time>2021-10-02T14:25:30.579Z</time>
      </trkpt>
      <trkpt lat="45.46197" lon="5.37153">
        <ele>552</ele>
        <time>2021-10-02T14:25:29.579Z</time>
      </trkpt>
      <trkpt lat="45.46196" lon="5.37161">
        <ele>552</ele>
        <time>2021-10-02T14:25:28.579Z</time>
      </trkpt>
      <trkpt lat="45.46195" lon="5.37168">
        <ele>552</ele>
        <time>2021-10-02T14:25:27.578Z</time>
      </trkpt>
      <trkpt lat="45.46194" lon="5.37175">
        <ele>552</ele>
        <time>2021-10-02T14:25:26.579Z</time>
      </trkpt>
      <trkpt lat="45.46193" lon="5.37182">
        <ele>553</ele>
        <time>2021-10-02T14:25:25.579Z</time>
      </trkpt>
      <trkpt lat="45.46191" lon="5.37189">
        <ele>553</ele>
        <time>2021-10-02T14:25:24.578Z</time>
      </trkpt>
      <trkpt lat="45.4619" lon="5.37195">
        <ele>553</ele>
        <time>2021-10-02T14:25:23.579Z</time>
      </trkpt>
      <trkpt lat="45.46188" lon="5.37202">
        <ele>553</ele>
        <time>2021-10-02T14:25:22.579Z</time>
      </trkpt>
      <trkpt lat="45.46187" lon="5.37208">
        <ele>553</ele>
        <time>2021-10-02T14:25:21.578Z</time>
      </trkpt>
      <trkpt lat="45.46185" lon="5.37214">
        <ele>552</ele>
        <time>2021-10-02T14:25:20.579Z</time>
      </trkpt>
      <trkpt lat="45.46184" lon="5.3722">
        <ele>552</ele>
        <time>2021-10-02T14:25:19.579Z</time>
      </trkpt>
      <trkpt lat="45.46182" lon="5.37226">
        <ele>552</ele>
        <time>2021-10-02T14:25:18.579Z</time>
      </trkpt>
      <trkpt lat="45.46181" lon="5.37231">
        <ele>552</ele>
        <time>2021-10-02T14:25:17.579Z</time>
      </trkpt>
      <trkpt lat="45.4618" lon="5.37237">
        <ele>551</ele>
        <time>2021-10-02T14:25:16.579Z</time>
      </trkpt>
      <trkpt lat="45.46179" lon="5.37242">
        <ele>551</ele>
        <time>2021-10-02T14:25:15.579Z</time>
      </trkpt>
      <trkpt lat="45.46178" lon="5.37248">
        <ele>551</ele>
        <time>2021-10-02T14:25:14.579Z</time>
      </trkpt>
      <trkpt lat="45.46177" lon="5.37253">
        <ele>550</ele>
        <time>2021-10-02T14:25:13.579Z</time>
      </trkpt>
      <trkpt lat="45.46175" lon="5.37259">
        <ele>550</ele>
        <time>2021-10-02T14:25:12.579Z</time>
      </trkpt>
      <trkpt lat="45.46174" lon="5.37265">
        <ele>549</ele>
        <time>2021-10-02T14:25:11.579Z</time>
      </trkpt>
      <trkpt lat="45.46172" lon="5.3727">
        <ele>549</ele>
        <time>2021-10-02T14:25:10.579Z</time>
      </trkpt>
      <trkpt lat="45.46171" lon="5.37276">
        <ele>549</ele>
        <time>2021-10-02T14:25:09.578Z</time>
      </trkpt>
      <trkpt lat="45.46169" lon="5.37282">
        <ele>549</ele>
        <time>2021-10-02T14:25:08.579Z</time>
      </trkpt>
      <trkpt lat="45.46168" lon="5.37288">
        <ele>549</ele>
        <time>2021-10-02T14:25:07.578Z</time>
      </trkpt>
      <trkpt lat="45.46167" lon="5.37294">
        <ele>549</ele>
        <time>2021-10-02T14:25:06.579Z</time>
      </trkpt>
      <trkpt lat="45.46165" lon="5.373">
        <ele>549</ele>
        <time>2021-10-02T14:25:05.578Z</time>
      </trkpt>
      <trkpt lat="45.46164" lon="5.37306">
        <ele>549</ele>
        <time>2021-10-02T14:25:04.578Z</time>
      </trkpt>
      <trkpt lat="45.46162" lon="5.37313">
        <ele>549</ele>
        <time>2021-10-02T14:25:03.579Z</time>
      </trkpt>
      <trkpt lat="45.46161" lon="5.37319">
        <ele>549</ele>
        <time>2021-10-02T14:25:02.579Z</time>
      </trkpt>
      <trkpt lat="45.46159" lon="5.37328">
        <ele>549</ele>
        <time>2021-10-02T14:25:01.578Z</time>
      </trkpt>
      <trkpt lat="45.46158" lon="5.37334">
        <ele>549</ele>
        <time>2021-10-02T14:25:00.578Z</time>
      </trkpt>
      <trkpt lat="45.46156" lon="5.3734">
        <ele>549</ele>
        <time>2021-10-02T14:24:59.579Z</time>
      </trkpt>
      <trkpt lat="45.46154" lon="5.37347">
        <ele>549</ele>
        <time>2021-10-02T14:24:58.579Z</time>
      </trkpt>
      <trkpt lat="45.46153" lon="5.37352">
        <ele>549</ele>
        <time>2021-10-02T14:24:57.578Z</time>
      </trkpt>
      <trkpt lat="45.46152" lon="5.37357">
        <ele>549</ele>
        <time>2021-10-02T14:24:56.579Z</time>
      </trkpt>
      <trkpt lat="45.46151" lon="5.37361">
        <ele>549</ele>
        <time>2021-10-02T14:24:55.578Z</time>
      </trkpt>
      <trkpt lat="45.4615" lon="5.37365">
        <ele>549</ele>
        <time>2021-10-02T14:24:54.579Z</time>
      </trkpt>
      <trkpt lat="45.4615" lon="5.37369">
        <ele>549</ele>
        <time>2021-10-02T14:24:53.578Z</time>
      </trkpt>
      <trkpt lat="45.46149" lon="5.37373">
        <ele>549</ele>
        <time>2021-10-02T14:24:52.578Z</time>
      </trkpt>
      <trkpt lat="45.46146" lon="5.37376">
        <ele>549</ele>
        <time>2021-10-02T14:24:51.579Z</time>
      </trkpt>
      <trkpt lat="45.46142" lon="5.37378">
        <ele>549</ele>
        <time>2021-10-02T14:24:50.579Z</time>
      </trkpt>
      <trkpt lat="45.46138" lon="5.37378">
        <ele>549</ele>
        <time>2021-10-02T14:24:49.579Z</time>
      </trkpt>
      <trkpt lat="45.46133" lon="5.37378">
        <ele>549</ele>
        <time>2021-10-02T14:24:48.579Z</time>
      </trkpt>
      <trkpt lat="45.46128" lon="5.37376">
        <ele>549</ele>
        <time>2021-10-02T14:24:47.579Z</time>
      </trkpt>
      <trkpt lat="45.46124" lon="5.37374">
        <ele>549</ele>
        <time>2021-10-02T14:24:46.579Z</time>
      </trkpt>
      <trkpt lat="45.46119" lon="5.37372">
        <ele>548</ele>
        <time>2021-10-02T14:24:45.579Z</time>
      </trkpt>
      <trkpt lat="45.46114" lon="5.3737">
        <ele>548</ele>
        <time>2021-10-02T14:24:44.578Z</time>
      </trkpt>
      <trkpt lat="45.46108" lon="5.37367">
        <ele>548</ele>
        <time>2021-10-02T14:24:43.578Z</time>
      </trkpt>
      <trkpt lat="45.46102" lon="5.37364">
        <ele>548</ele>
        <time>2021-10-02T14:24:42.579Z</time>
      </trkpt>
      <trkpt lat="45.46097" lon="5.3736">
        <ele>548</ele>
        <time>2021-10-02T14:24:41.579Z</time>
      </trkpt>
      <trkpt lat="45.46091" lon="5.37356">
        <ele>548</ele>
        <time>2021-10-02T14:24:40.578Z</time>
      </trkpt>
      <trkpt lat="45.46085" lon="5.37351">
        <ele>548</ele>
        <time>2021-10-02T14:24:39.579Z</time>
      </trkpt>
      <trkpt lat="45.4608" lon="5.37346">
        <ele>548</ele>
        <time>2021-10-02T14:24:38.578Z</time>
      </trkpt>
      <trkpt lat="45.46074" lon="5.37341">
        <ele>548</ele>
        <time>2021-10-02T14:24:37.579Z</time>
      </trkpt>
      <trkpt lat="45.46068" lon="5.37336">
        <ele>548</ele>
        <time>2021-10-02T14:24:36.579Z</time>
      </trkpt>
      <trkpt lat="45.46063" lon="5.37331">
        <ele>548</ele>
        <time>2021-10-02T14:24:35.579Z</time>
      </trkpt>
      <trkpt lat="45.46057" lon="5.37325">
        <ele>548</ele>
        <time>2021-10-02T14:24:34.578Z</time>
      </trkpt>
      <trkpt lat="45.46052" lon="5.3732">
        <ele>548</ele>
        <time>2021-10-02T14:24:33.579Z</time>
      </trkpt>
      <trkpt lat="45.46047" lon="5.37314">
        <ele>548</ele>
        <time>2021-10-02T14:24:32.578Z</time>
      </trkpt>
      <trkpt lat="45.46041" lon="5.37307">
        <ele>548</ele>
        <time>2021-10-02T14:24:31.579Z</time>
      </trkpt>
      <trkpt lat="45.46037" lon="5.37302">
        <ele>547</ele>
        <time>2021-10-02T14:24:30.579Z</time>
      </trkpt>
      <trkpt lat="45.46032" lon="5.37295">
        <ele>547</ele>
        <time>2021-10-02T14:24:29.578Z</time>
      </trkpt>
      <trkpt lat="45.46028" lon="5.3729">
        <ele>546</ele>
        <time>2021-10-02T14:24:28.579Z</time>
      </trkpt>
      <trkpt lat="45.46024" lon="5.37284">
        <ele>546</ele>
        <time>2021-10-02T14:24:27.579Z</time>
      </trkpt>
      <trkpt lat="45.4602" lon="5.37277">
        <ele>545</ele>
        <time>2021-10-02T14:24:26.578Z</time>
      </trkpt>
      <trkpt lat="45.46016" lon="5.3727">
        <ele>545</ele>
        <time>2021-10-02T14:24:25.579Z</time>
      </trkpt>
      <trkpt lat="45.46012" lon="5.37262">
        <ele>545</ele>
        <time>2021-10-02T14:24:24.579Z</time>
      </trkpt>
      <trkpt lat="45.46008" lon="5.37255">
        <ele>544</ele>
        <time>2021-10-02T14:24:23.579Z</time>
      </trkpt>
      <trkpt lat="45.46005" lon="5.3725">
        <ele>544</ele>
        <time>2021-10-02T14:24:22.578Z</time>
      </trkpt>
      <trkpt lat="45.46" lon="5.37243">
        <ele>544</ele>
        <time>2021-10-02T14:24:21.579Z</time>
      </trkpt>
      <trkpt lat="45.45995" lon="5.37238">
        <ele>544</ele>
        <time>2021-10-02T14:24:20.578Z</time>
      </trkpt>
      <trkpt lat="45.45991" lon="5.37234">
        <ele>544</ele>
        <time>2021-10-02T14:24:19.578Z</time>
      </trkpt>
      <trkpt lat="45.45986" lon="5.37232">
        <ele>545</ele>
        <time>2021-10-02T14:24:18.579Z</time>
      </trkpt>
      <trkpt lat="45.45982" lon="5.37229">
        <ele>545</ele>
        <time>2021-10-02T14:24:17.579Z</time>
      </trkpt>
      <trkpt lat="45.45979" lon="5.37227">
        <ele>545</ele>
        <time>2021-10-02T14:24:16.579Z</time>
      </trkpt>
      <trkpt lat="45.45976" lon="5.37226">
        <ele>545</ele>
        <time>2021-10-02T14:24:15.579Z</time>
      </trkpt>
      <trkpt lat="45.45974" lon="5.37224">
        <ele>546</ele>
        <time>2021-10-02T14:24:14.579Z</time>
      </trkpt>
      <trkpt lat="45.45971" lon="5.37224">
        <ele>546</ele>
        <time>2021-10-02T14:24:13.579Z</time>
      </trkpt>
      <trkpt lat="45.45969" lon="5.37224">
        <ele>546</ele>
        <time>2021-10-02T14:24:12.578Z</time>
      </trkpt>
      <trkpt lat="45.45966" lon="5.37225">
        <ele>546</ele>
        <time>2021-10-02T14:24:11.578Z</time>
      </trkpt>
      <trkpt lat="45.45963" lon="5.37226">
        <ele>547</ele>
        <time>2021-10-02T14:24:10.579Z</time>
      </trkpt>
      <trkpt lat="45.45959" lon="5.37228">
        <ele>547</ele>
        <time>2021-10-02T14:24:09.578Z</time>
      </trkpt>
      <trkpt lat="45.45955" lon="5.37232">
        <ele>548</ele>
        <time>2021-10-02T14:24:08.579Z</time>
      </trkpt>
      <trkpt lat="45.45951" lon="5.37236">
        <ele>548</ele>
        <time>2021-10-02T14:24:07.579Z</time>
      </trkpt>
      <trkpt lat="45.45946" lon="5.37242">
        <ele>548</ele>
        <time>2021-10-02T14:24:06.579Z</time>
      </trkpt>
      <trkpt lat="45.45942" lon="5.37248">
        <ele>549</ele>
        <time>2021-10-02T14:24:05.579Z</time>
      </trkpt>
      <trkpt lat="45.45938" lon="5.37255">
        <ele>549</ele>
        <time>2021-10-02T14:24:04.578Z</time>
      </trkpt>
      <trkpt lat="45.45934" lon="5.37262">
        <ele>549</ele>
        <time>2021-10-02T14:24:03.579Z</time>
      </trkpt>
      <trkpt lat="45.45929" lon="5.37268">
        <ele>549</ele>
        <time>2021-10-02T14:24:02.578Z</time>
      </trkpt>
      <trkpt lat="45.45925" lon="5.37275">
        <ele>549</ele>
        <time>2021-10-02T14:24:01.579Z</time>
      </trkpt>
      <trkpt lat="45.45921" lon="5.37283">
        <ele>549</ele>
        <time>2021-10-02T14:24:00.579Z</time>
      </trkpt>
      <trkpt lat="45.45916" lon="5.3729">
        <ele>549</ele>
        <time>2021-10-02T14:23:59.578Z</time>
      </trkpt>
      <trkpt lat="45.45913" lon="5.37295">
        <ele>549</ele>
        <time>2021-10-02T14:23:58.579Z</time>
      </trkpt>
      <trkpt lat="45.45908" lon="5.37305">
        <ele>549</ele>
        <time>2021-10-02T14:23:57.579Z</time>
      </trkpt>
      <trkpt lat="45.45904" lon="5.37311">
        <ele>549</ele>
        <time>2021-10-02T14:23:56.579Z</time>
      </trkpt>
      <trkpt lat="45.45899" lon="5.37319">
        <ele>549</ele>
        <time>2021-10-02T14:23:55.579Z</time>
      </trkpt>
      <trkpt lat="45.45895" lon="5.37327">
        <ele>549</ele>
        <time>2021-10-02T14:23:54.578Z</time>
      </trkpt>
      <trkpt lat="45.4589" lon="5.37336">
        <ele>549</ele>
        <time>2021-10-02T14:23:53.579Z</time>
      </trkpt>
      <trkpt lat="45.45885" lon="5.37344">
        <ele>549</ele>
        <time>2021-10-02T14:23:52.578Z</time>
      </trkpt>
      <trkpt lat="45.45879" lon="5.37354">
        <ele>550</ele>
        <time>2021-10-02T14:23:51.578Z</time>
      </trkpt>
      <trkpt lat="45.45874" lon="5.37363">
        <ele>551</ele>
        <time>2021-10-02T14:23:50.579Z</time>
      </trkpt>
      <trkpt lat="45.45868" lon="5.37371">
        <ele>551</ele>
        <time>2021-10-02T14:23:49.579Z</time>
      </trkpt>
      <trkpt lat="45.45864" lon="5.37378">
        <ele>552</ele>
        <time>2021-10-02T14:23:48.579Z</time>
      </trkpt>
      <trkpt lat="45.45859" lon="5.37387">
        <ele>552</ele>
        <time>2021-10-02T14:23:47.579Z</time>
      </trkpt>
      <trkpt lat="45.45854" lon="5.37396">
        <ele>552</ele>
        <time>2021-10-02T14:23:46.578Z</time>
      </trkpt>
      <trkpt lat="45.45848" lon="5.37408">
        <ele>551</ele>
        <time>2021-10-02T14:23:45.579Z</time>
      </trkpt>
      <trkpt lat="45.45843" lon="5.37418">
        <ele>551</ele>
        <time>2021-10-02T14:23:44.578Z</time>
      </trkpt>
      <trkpt lat="45.45839" lon="5.37426">
        <ele>552</ele>
        <time>2021-10-02T14:23:43.579Z</time>
      </trkpt>
      <trkpt lat="45.45833" lon="5.37438">
        <ele>552</ele>
        <time>2021-10-02T14:23:42.579Z</time>
      </trkpt>
      <trkpt lat="45.45829" lon="5.37448">
        <ele>552</ele>
        <time>2021-10-02T14:23:41.578Z</time>
      </trkpt>
      <trkpt lat="45.45824" lon="5.37458">
        <ele>552</ele>
        <time>2021-10-02T14:23:40.579Z</time>
      </trkpt>
      <trkpt lat="45.4582" lon="5.37469">
        <ele>553</ele>
        <time>2021-10-02T14:23:39.578Z</time>
      </trkpt>
      <trkpt lat="45.45816" lon="5.37476">
        <ele>554</ele>
        <time>2021-10-02T14:23:38.579Z</time>
      </trkpt>
      <trkpt lat="45.4581" lon="5.37489">
        <ele>554</ele>
        <time>2021-10-02T14:23:37.578Z</time>
      </trkpt>
      <trkpt lat="45.45805" lon="5.37499">
        <ele>554</ele>
        <time>2021-10-02T14:23:36.579Z</time>
      </trkpt>
      <trkpt lat="45.458" lon="5.3751">
        <ele>555</ele>
        <time>2021-10-02T14:23:35.579Z</time>
      </trkpt>
      <trkpt lat="45.45796" lon="5.37521">
        <ele>555</ele>
        <time>2021-10-02T14:23:34.579Z</time>
      </trkpt>
      <trkpt lat="45.45792" lon="5.3753">
        <ele>555</ele>
        <time>2021-10-02T14:23:33.579Z</time>
      </trkpt>
      <trkpt lat="45.45786" lon="5.37543">
        <ele>556</ele>
        <time>2021-10-02T14:23:32.579Z</time>
      </trkpt>
      <trkpt lat="45.45782" lon="5.37552">
        <ele>557</ele>
        <time>2021-10-02T14:23:31.579Z</time>
      </trkpt>
      <trkpt lat="45.45777" lon="5.37564">
        <ele>558</ele>
        <time>2021-10-02T14:23:30.579Z</time>
      </trkpt>
      <trkpt lat="45.45772" lon="5.37575">
        <ele>558</ele>
        <time>2021-10-02T14:23:29.578Z</time>
      </trkpt>
      <trkpt lat="45.45768" lon="5.37583">
        <ele>559</ele>
        <time>2021-10-02T14:23:28.579Z</time>
      </trkpt>
      <trkpt lat="45.45763" lon="5.37594">
        <ele>560</ele>
        <time>2021-10-02T14:23:27.579Z</time>
      </trkpt>
      <trkpt lat="45.45758" lon="5.37605">
        <ele>560</ele>
        <time>2021-10-02T14:23:26.578Z</time>
      </trkpt>
      <trkpt lat="45.45752" lon="5.37618">
        <ele>561</ele>
        <time>2021-10-02T14:23:25.578Z</time>
      </trkpt>
      <trkpt lat="45.45747" lon="5.37629">
        <ele>561</ele>
        <time>2021-10-02T14:23:24.578Z</time>
      </trkpt>
      <trkpt lat="45.45742" lon="5.37639">
        <ele>561</ele>
        <time>2021-10-02T14:23:23.578Z</time>
      </trkpt>
      <trkpt lat="45.45737" lon="5.3765">
        <ele>561</ele>
        <time>2021-10-02T14:23:22.579Z</time>
      </trkpt>
      <trkpt lat="45.45731" lon="5.37662">
        <ele>561</ele>
        <time>2021-10-02T14:23:21.579Z</time>
      </trkpt>
      <trkpt lat="45.45725" lon="5.37676">
        <ele>561</ele>
        <time>2021-10-02T14:23:20.579Z</time>
      </trkpt>
      <trkpt lat="45.45719" lon="5.37687">
        <ele>561</ele>
        <time>2021-10-02T14:23:19.578Z</time>
      </trkpt>
      <trkpt lat="45.45715" lon="5.37697">
        <ele>562</ele>
        <time>2021-10-02T14:23:18.579Z</time>
      </trkpt>
      <trkpt lat="45.4571" lon="5.37709">
        <ele>562</ele>
        <time>2021-10-02T14:23:17.579Z</time>
      </trkpt>
      <trkpt lat="45.45705" lon="5.3772">
        <ele>562</ele>
        <time>2021-10-02T14:23:16.579Z</time>
      </trkpt>
      <trkpt lat="45.45699" lon="5.37733">
        <ele>563</ele>
        <time>2021-10-02T14:23:15.579Z</time>
      </trkpt>
      <trkpt lat="45.45694" lon="5.37744">
        <ele>564</ele>
        <time>2021-10-02T14:23:14.579Z</time>
      </trkpt>
      <trkpt lat="45.45689" lon="5.37753">
        <ele>564</ele>
        <time>2021-10-02T14:23:13.579Z</time>
      </trkpt>
      <trkpt lat="45.45685" lon="5.37764">
        <ele>565</ele>
        <time>2021-10-02T14:23:12.579Z</time>
      </trkpt>
      <trkpt lat="45.4568" lon="5.37774">
        <ele>566</ele>
        <time>2021-10-02T14:23:11.579Z</time>
      </trkpt>
      <trkpt lat="45.45675" lon="5.37786">
        <ele>566</ele>
        <time>2021-10-02T14:23:10.579Z</time>
      </trkpt>
      <trkpt lat="45.45671" lon="5.37796">
        <ele>566</ele>
        <time>2021-10-02T14:23:09.579Z</time>
      </trkpt>
      <trkpt lat="45.45667" lon="5.37805">
        <ele>567</ele>
        <time>2021-10-02T14:23:08.578Z</time>
      </trkpt>
      <trkpt lat="45.45663" lon="5.37813">
        <ele>567</ele>
        <time>2021-10-02T14:23:07.579Z</time>
      </trkpt>
      <trkpt lat="45.4566" lon="5.37822">
        <ele>567</ele>
        <time>2021-10-02T14:23:06.579Z</time>
      </trkpt>
      <trkpt lat="45.45655" lon="5.37832">
        <ele>567</ele>
        <time>2021-10-02T14:23:05.579Z</time>
      </trkpt>
      <trkpt lat="45.45652" lon="5.3784">
        <ele>567</ele>
        <time>2021-10-02T14:23:04.579Z</time>
      </trkpt>
      <trkpt lat="45.45649" lon="5.37846">
        <ele>567</ele>
        <time>2021-10-02T14:23:03.579Z</time>
      </trkpt>
      <trkpt lat="45.45646" lon="5.37854">
        <ele>567</ele>
        <time>2021-10-02T14:23:02.579Z</time>
      </trkpt>
      <trkpt lat="45.45643" lon="5.37861">
        <ele>567</ele>
        <time>2021-10-02T14:23:01.578Z</time>
      </trkpt>
      <trkpt lat="45.4564" lon="5.37868">
        <ele>568</ele>
        <time>2021-10-02T14:23:00.579Z</time>
      </trkpt>
      <trkpt lat="45.45637" lon="5.37874">
        <ele>568</ele>
        <time>2021-10-02T14:22:59.579Z</time>
      </trkpt>
      <trkpt lat="45.45636" lon="5.37878">
        <ele>568</ele>
        <time>2021-10-02T14:22:58.578Z</time>
      </trkpt>
      <trkpt lat="45.45635" lon="5.37881">
        <ele>568</ele>
        <time>2021-10-02T14:22:57.579Z</time>
      </trkpt>
      <trkpt lat="45.45634" lon="5.37885">
        <ele>568</ele>
        <time>2021-10-02T14:22:56.578Z</time>
      </trkpt>
      <trkpt lat="45.45634" lon="5.37889">
        <ele>568</ele>
        <time>2021-10-02T14:22:55.579Z</time>
      </trkpt>
      <trkpt lat="45.45635" lon="5.37892">
        <ele>568</ele>
        <time>2021-10-02T14:22:54.579Z</time>
      </trkpt>
      <trkpt lat="45.45636" lon="5.37895">
        <ele>568</ele>
        <time>2021-10-02T14:22:53.578Z</time>
      </trkpt>
      <trkpt lat="45.45638" lon="5.37898">
        <ele>568</ele>
        <time>2021-10-02T14:22:52.579Z</time>
      </trkpt>
      <trkpt lat="45.45641" lon="5.379">
        <ele>568</ele>
        <time>2021-10-02T14:22:51.578Z</time>
      </trkpt>
      <trkpt lat="45.45643" lon="5.37902">
        <ele>568</ele>
        <time>2021-10-02T14:22:50.578Z</time>
      </trkpt>
      <trkpt lat="45.45644" lon="5.37904">
        <ele>568</ele>
        <time>2021-10-02T14:22:49.579Z</time>
      </trkpt>
      <trkpt lat="45.45644" lon="5.37906">
        <ele>568</ele>
        <time>2021-10-02T14:22:48.579Z</time>
      </trkpt>
      <trkpt lat="45.45642" lon="5.37906">
        <ele>568</ele>
        <time>2021-10-02T14:22:47.579Z</time>
      </trkpt>
      <trkpt lat="45.4564" lon="5.37905">
        <ele>568</ele>
        <time>2021-10-02T14:22:46.579Z</time>
      </trkpt>
      <trkpt lat="45.45638" lon="5.37902">
        <ele>568</ele>
        <time>2021-10-02T14:22:45.579Z</time>
      </trkpt>
      <trkpt lat="45.45636" lon="5.379">
        <ele>568</ele>
        <time>2021-10-02T14:22:44.579Z</time>
      </trkpt>
      <trkpt lat="45.45632" lon="5.37896">
        <ele>568</ele>
        <time>2021-10-02T14:22:43.579Z</time>
      </trkpt>
      <trkpt lat="45.45627" lon="5.37892">
        <ele>568</ele>
        <time>2021-10-02T14:22:42.579Z</time>
      </trkpt>
      <trkpt lat="45.45622" lon="5.37888">
        <ele>568</ele>
        <time>2021-10-02T14:22:41.579Z</time>
      </trkpt>
      <trkpt lat="45.45615" lon="5.37884">
        <ele>569</ele>
        <time>2021-10-02T14:22:40.578Z</time>
      </trkpt>
      <trkpt lat="45.45608" lon="5.37879">
        <ele>569</ele>
        <time>2021-10-02T14:22:39.579Z</time>
      </trkpt>
      <trkpt lat="45.45602" lon="5.37874">
        <ele>568</ele>
        <time>2021-10-02T14:22:38.578Z</time>
      </trkpt>
      <trkpt lat="45.45595" lon="5.37869">
        <ele>568</ele>
        <time>2021-10-02T14:22:37.579Z</time>
      </trkpt>
      <trkpt lat="45.45588" lon="5.37864">
        <ele>568</ele>
        <time>2021-10-02T14:22:36.578Z</time>
      </trkpt>
      <trkpt lat="45.45581" lon="5.37859">
        <ele>568</ele>
        <time>2021-10-02T14:22:35.578Z</time>
      </trkpt>
      <trkpt lat="45.45576" lon="5.37856">
        <ele>568</ele>
        <time>2021-10-02T14:22:34.578Z</time>
      </trkpt>
      <trkpt lat="45.45569" lon="5.37852">
        <ele>568</ele>
        <time>2021-10-02T14:22:33.578Z</time>
      </trkpt>
      <trkpt lat="45.45563" lon="5.37849">
        <ele>568</ele>
        <time>2021-10-02T14:22:32.579Z</time>
      </trkpt>
      <trkpt lat="45.45557" lon="5.37845">
        <ele>569</ele>
        <time>2021-10-02T14:22:31.579Z</time>
      </trkpt>
      <trkpt lat="45.45552" lon="5.37841">
        <ele>569</ele>
        <time>2021-10-02T14:22:30.578Z</time>
      </trkpt>
      <trkpt lat="45.45548" lon="5.37836">
        <ele>570</ele>
        <time>2021-10-02T14:22:29.579Z</time>
      </trkpt>
      <trkpt lat="45.45546" lon="5.37832">
        <ele>570</ele>
        <time>2021-10-02T14:22:28.579Z</time>
      </trkpt>
      <trkpt lat="45.45543" lon="5.37829">
        <ele>570</ele>
        <time>2021-10-02T14:22:27.579Z</time>
      </trkpt>
      <trkpt lat="45.45541" lon="5.37827">
        <ele>570</ele>
        <time>2021-10-02T14:22:26.579Z</time>
      </trkpt>
      <trkpt lat="45.4554" lon="5.37827">
        <ele>570</ele>
        <time>2021-10-02T14:22:25.578Z</time>
      </trkpt>
      <trkpt lat="45.45539" lon="5.37827">
        <ele>570</ele>
        <time>2021-10-02T14:22:24.579Z</time>
      </trkpt>
      <trkpt lat="45.4554" lon="5.37828">
        <ele>571</ele>
        <time>2021-10-02T14:22:23.579Z</time>
      </trkpt>
      <trkpt lat="45.45542" lon="5.37828">
        <ele>571</ele>
        <time>2021-10-02T14:22:22.579Z</time>
      </trkpt>
      <trkpt lat="45.45545" lon="5.37827">
        <ele>572</ele>
        <time>2021-10-02T14:22:21.579Z</time>
      </trkpt>
      <trkpt lat="45.45547" lon="5.37827">
        <ele>573</ele>
        <time>2021-10-02T14:22:20.578Z</time>
      </trkpt>
      <trkpt lat="45.4555" lon="5.37829">
        <ele>574</ele>
        <time>2021-10-02T14:22:19.579Z</time>
      </trkpt>
      <trkpt lat="45.45552" lon="5.37833">
        <ele>575</ele>
        <time>2021-10-02T14:22:18.579Z</time>
      </trkpt>
      <trkpt lat="45.45554" lon="5.37839">
        <ele>576</ele>
        <time>2021-10-02T14:22:17.578Z</time>
      </trkpt>
      <trkpt lat="45.45553" lon="5.37845">
        <ele>577</ele>
        <time>2021-10-02T14:22:16.579Z</time>
      </trkpt>
      <trkpt lat="45.4555" lon="5.37854">
        <ele>577</ele>
        <time>2021-10-02T14:22:15.578Z</time>
      </trkpt>
      <trkpt lat="45.45547" lon="5.37861">
        <ele>578</ele>
        <time>2021-10-02T14:22:14.578Z</time>
      </trkpt>
      <trkpt lat="45.45543" lon="5.3787">
        <ele>578</ele>
        <time>2021-10-02T14:22:13.579Z</time>
      </trkpt>
      <trkpt lat="45.45539" lon="5.37877">
        <ele>579</ele>
        <time>2021-10-02T14:22:12.579Z</time>
      </trkpt>
      <trkpt lat="45.45532" lon="5.37886">
        <ele>580</ele>
        <time>2021-10-02T14:22:11.579Z</time>
      </trkpt>
      <trkpt lat="45.45526" lon="5.37896">
        <ele>580</ele>
        <time>2021-10-02T14:22:10.579Z</time>
      </trkpt>
      <trkpt lat="45.4552" lon="5.37907">
        <ele>581</ele>
        <time>2021-10-02T14:22:09.578Z</time>
      </trkpt>
      <trkpt lat="45.45511" lon="5.37919">
        <ele>582</ele>
        <time>2021-10-02T14:22:08.579Z</time>
      </trkpt>
      <trkpt lat="45.45505" lon="5.37927">
        <ele>582</ele>
        <time>2021-10-02T14:22:07.579Z</time>
      </trkpt>
      <trkpt lat="45.45498" lon="5.37937">
        <ele>583</ele>
        <time>2021-10-02T14:22:06.579Z</time>
      </trkpt>
      <trkpt lat="45.45492" lon="5.37948">
        <ele>583</ele>
        <time>2021-10-02T14:22:05.579Z</time>
      </trkpt>
      <trkpt lat="45.45484" lon="5.37958">
        <ele>584</ele>
        <time>2021-10-02T14:22:04.578Z</time>
      </trkpt>
      <trkpt lat="45.45476" lon="5.37969">
        <ele>584</ele>
        <time>2021-10-02T14:22:03.579Z</time>
      </trkpt>
      <trkpt lat="45.45468" lon="5.37981">
        <ele>585</ele>
        <time>2021-10-02T14:22:02.579Z</time>
      </trkpt>
      <trkpt lat="45.45462" lon="5.37989">
        <ele>585</ele>
        <time>2021-10-02T14:22:01.579Z</time>
      </trkpt>
      <trkpt lat="45.45455" lon="5.37999">
        <ele>585</ele>
        <time>2021-10-02T14:22:00.579Z</time>
      </trkpt>
      <trkpt lat="45.45448" lon="5.38008">
        <ele>585</ele>
        <time>2021-10-02T14:21:59.579Z</time>
      </trkpt>
      <trkpt lat="45.45439" lon="5.38019">
        <ele>585</ele>
        <time>2021-10-02T14:21:58.579Z</time>
      </trkpt>
      <trkpt lat="45.45432" lon="5.38025">
        <ele>586</ele>
        <time>2021-10-02T14:21:57.578Z</time>
      </trkpt>
      <trkpt lat="45.45425" lon="5.38033">
        <ele>586</ele>
        <time>2021-10-02T14:21:56.579Z</time>
      </trkpt>
      <trkpt lat="45.45417" lon="5.38041">
        <ele>586</ele>
        <time>2021-10-02T14:21:55.579Z</time>
      </trkpt>
      <trkpt lat="45.45409" lon="5.3805">
        <ele>586</ele>
        <time>2021-10-02T14:21:54.578Z</time>
      </trkpt>
      <trkpt lat="45.45401" lon="5.38057">
        <ele>586</ele>
        <time>2021-10-02T14:21:53.578Z</time>
      </trkpt>
      <trkpt lat="45.45395" lon="5.38064">
        <ele>586</ele>
        <time>2021-10-02T14:21:52.579Z</time>
      </trkpt>
      <trkpt lat="45.45388" lon="5.38071">
        <ele>586</ele>
        <time>2021-10-02T14:21:51.579Z</time>
      </trkpt>
      <trkpt lat="45.45383" lon="5.38076">
        <ele>586</ele>
        <time>2021-10-02T14:21:50.578Z</time>
      </trkpt>
      <trkpt lat="45.45376" lon="5.38084">
        <ele>586</ele>
        <time>2021-10-02T14:21:49.578Z</time>
      </trkpt>
      <trkpt lat="45.45371" lon="5.38091">
        <ele>586</ele>
        <time>2021-10-02T14:21:48.579Z</time>
      </trkpt>
      <trkpt lat="45.45367" lon="5.38096">
        <ele>586</ele>
        <time>2021-10-02T14:21:47.579Z</time>
      </trkpt>
      <trkpt lat="45.45362" lon="5.38104">
        <ele>587</ele>
        <time>2021-10-02T14:21:46.578Z</time>
      </trkpt>
      <trkpt lat="45.45358" lon="5.38109">
        <ele>587</ele>
        <time>2021-10-02T14:21:45.578Z</time>
      </trkpt>
      <trkpt lat="45.45353" lon="5.38117">
        <ele>587</ele>
        <time>2021-10-02T14:21:44.579Z</time>
      </trkpt>
      <trkpt lat="45.45349" lon="5.38124">
        <ele>588</ele>
        <time>2021-10-02T14:21:43.578Z</time>
      </trkpt>
      <trkpt lat="45.45345" lon="5.38131">
        <ele>588</ele>
        <time>2021-10-02T14:21:42.578Z</time>
      </trkpt>
      <trkpt lat="45.45342" lon="5.38137">
        <ele>588</ele>
        <time>2021-10-02T14:21:41.579Z</time>
      </trkpt>
      <trkpt lat="45.45338" lon="5.38144">
        <ele>588</ele>
        <time>2021-10-02T14:21:40.579Z</time>
      </trkpt>
      <trkpt lat="45.45334" lon="5.38154">
        <ele>588</ele>
        <time>2021-10-02T14:21:39.578Z</time>
      </trkpt>
      <trkpt lat="45.4533" lon="5.38162">
        <ele>588</ele>
        <time>2021-10-02T14:21:38.578Z</time>
      </trkpt>
      <trkpt lat="45.45327" lon="5.38168">
        <ele>588</ele>
        <time>2021-10-02T14:21:37.579Z</time>
      </trkpt>
      <trkpt lat="45.45324" lon="5.38177">
        <ele>588</ele>
        <time>2021-10-02T14:21:36.578Z</time>
      </trkpt>
      <trkpt lat="45.4532" lon="5.38185">
        <ele>587</ele>
        <time>2021-10-02T14:21:35.578Z</time>
      </trkpt>
      <trkpt lat="45.45316" lon="5.38195">
        <ele>587</ele>
        <time>2021-10-02T14:21:34.579Z</time>
      </trkpt>
      <trkpt lat="45.45312" lon="5.38203">
        <ele>586</ele>
        <time>2021-10-02T14:21:33.578Z</time>
      </trkpt>
      <trkpt lat="45.45309" lon="5.3821">
        <ele>586</ele>
        <time>2021-10-02T14:21:32.578Z</time>
      </trkpt>
      <trkpt lat="45.45305" lon="5.38219">
        <ele>586</ele>
        <time>2021-10-02T14:21:31.579Z</time>
      </trkpt>
      <trkpt lat="45.45301" lon="5.38227">
        <ele>587</ele>
        <time>2021-10-02T14:21:30.579Z</time>
      </trkpt>
      <trkpt lat="45.45296" lon="5.38236">
        <ele>587</ele>
        <time>2021-10-02T14:21:29.579Z</time>
      </trkpt>
      <trkpt lat="45.45292" lon="5.38244">
        <ele>587</ele>
        <time>2021-10-02T14:21:28.579Z</time>
      </trkpt>
      <trkpt lat="45.45288" lon="5.38251">
        <ele>587</ele>
        <time>2021-10-02T14:21:27.578Z</time>
      </trkpt>
      <trkpt lat="45.45284" lon="5.38258">
        <ele>587</ele>
        <time>2021-10-02T14:21:26.579Z</time>
      </trkpt>
      <trkpt lat="45.45279" lon="5.38266">
        <ele>587</ele>
        <time>2021-10-02T14:21:25.579Z</time>
      </trkpt>
      <trkpt lat="45.45275" lon="5.38276">
        <ele>587</ele>
        <time>2021-10-02T14:21:24.579Z</time>
      </trkpt>
      <trkpt lat="45.45272" lon="5.38282">
        <ele>587</ele>
        <time>2021-10-02T14:21:23.579Z</time>
      </trkpt>
      <trkpt lat="45.45268" lon="5.3829">
        <ele>587</ele>
        <time>2021-10-02T14:21:22.579Z</time>
      </trkpt>
      <trkpt lat="45.45264" lon="5.38297">
        <ele>587</ele>
        <time>2021-10-02T14:21:21.578Z</time>
      </trkpt>
      <trkpt lat="45.45261" lon="5.38305">
        <ele>586</ele>
        <time>2021-10-02T14:21:20.579Z</time>
      </trkpt>
      <trkpt lat="45.45256" lon="5.38314">
        <ele>586</ele>
        <time>2021-10-02T14:21:19.579Z</time>
      </trkpt>
      <trkpt lat="45.45253" lon="5.38321">
        <ele>586</ele>
        <time>2021-10-02T14:21:18.579Z</time>
      </trkpt>
      <trkpt lat="45.45249" lon="5.38329">
        <ele>586</ele>
        <time>2021-10-02T14:21:17.579Z</time>
      </trkpt>
      <trkpt lat="45.45246" lon="5.38334">
        <ele>586</ele>
        <time>2021-10-02T14:21:16.579Z</time>
      </trkpt>
      <trkpt lat="45.45242" lon="5.38341">
        <ele>585</ele>
        <time>2021-10-02T14:21:15.578Z</time>
      </trkpt>
      <trkpt lat="45.45237" lon="5.3835">
        <ele>584</ele>
        <time>2021-10-02T14:21:14.578Z</time>
      </trkpt>
      <trkpt lat="45.45234" lon="5.38356">
        <ele>584</ele>
        <time>2021-10-02T14:21:13.578Z</time>
      </trkpt>
      <trkpt lat="45.4523" lon="5.38363">
        <ele>584</ele>
        <time>2021-10-02T14:21:12.578Z</time>
      </trkpt>
      <trkpt lat="45.45227" lon="5.3837">
        <ele>583</ele>
        <time>2021-10-02T14:21:11.579Z</time>
      </trkpt>
      <trkpt lat="45.45223" lon="5.38377">
        <ele>582</ele>
        <time>2021-10-02T14:21:10.578Z</time>
      </trkpt>
      <trkpt lat="45.45219" lon="5.38386">
        <ele>582</ele>
        <time>2021-10-02T14:21:09.579Z</time>
      </trkpt>
      <trkpt lat="45.45215" lon="5.38394">
        <ele>581</ele>
        <time>2021-10-02T14:21:08.579Z</time>
      </trkpt>
      <trkpt lat="45.45212" lon="5.384">
        <ele>581</ele>
        <time>2021-10-02T14:21:07.579Z</time>
      </trkpt>
      <trkpt lat="45.45208" lon="5.38409">
        <ele>580</ele>
        <time>2021-10-02T14:21:06.579Z</time>
      </trkpt>
      <trkpt lat="45.45204" lon="5.38415">
        <ele>580</ele>
        <time>2021-10-02T14:21:05.579Z</time>
      </trkpt>
      <trkpt lat="45.452" lon="5.38425">
        <ele>580</ele>
        <time>2021-10-02T14:21:04.579Z</time>
      </trkpt>
      <trkpt lat="45.45195" lon="5.38433">
        <ele>581</ele>
        <time>2021-10-02T14:21:03.578Z</time>
      </trkpt>
      <trkpt lat="45.45191" lon="5.38441">
        <ele>581</ele>
        <time>2021-10-02T14:21:02.579Z</time>
      </trkpt>
      <trkpt lat="45.45187" lon="5.38448">
        <ele>580</ele>
        <time>2021-10-02T14:21:01.579Z</time>
      </trkpt>
      <trkpt lat="45.45183" lon="5.38457">
        <ele>580</ele>
        <time>2021-10-02T14:21:00.579Z</time>
      </trkpt>
      <trkpt lat="45.45177" lon="5.38466">
        <ele>580</ele>
        <time>2021-10-02T14:20:59.578Z</time>
      </trkpt>
      <trkpt lat="45.45172" lon="5.38474">
        <ele>580</ele>
        <time>2021-10-02T14:20:58.579Z</time>
      </trkpt>
      <trkpt lat="45.45168" lon="5.3848">
        <ele>580</ele>
        <time>2021-10-02T14:20:57.578Z</time>
      </trkpt>
      <trkpt lat="45.45162" lon="5.38487">
        <ele>581</ele>
        <time>2021-10-02T14:20:56.579Z</time>
      </trkpt>
      <trkpt lat="45.45155" lon="5.38492">
        <ele>581</ele>
        <time>2021-10-02T14:20:55.579Z</time>
      </trkpt>
      <trkpt lat="45.45147" lon="5.38497">
        <ele>581</ele>
        <time>2021-10-02T14:20:54.579Z</time>
      </trkpt>
      <trkpt lat="45.45141" lon="5.385">
        <ele>581</ele>
        <time>2021-10-02T14:20:53.578Z</time>
      </trkpt>
      <trkpt lat="45.45134" lon="5.38501">
        <ele>581</ele>
        <time>2021-10-02T14:20:52.579Z</time>
      </trkpt>
      <trkpt lat="45.45127" lon="5.38502">
        <ele>581</ele>
        <time>2021-10-02T14:20:51.579Z</time>
      </trkpt>
      <trkpt lat="45.45118" lon="5.38501">
        <ele>581</ele>
        <time>2021-10-02T14:20:50.579Z</time>
      </trkpt>
      <trkpt lat="45.45111" lon="5.385">
        <ele>581</ele>
        <time>2021-10-02T14:20:49.578Z</time>
      </trkpt>
      <trkpt lat="45.45104" lon="5.38497">
        <ele>581</ele>
        <time>2021-10-02T14:20:48.579Z</time>
      </trkpt>
      <trkpt lat="45.45098" lon="5.38495">
        <ele>582</ele>
        <time>2021-10-02T14:20:47.579Z</time>
      </trkpt>
      <trkpt lat="45.4509" lon="5.3849">
        <ele>582</ele>
        <time>2021-10-02T14:20:46.579Z</time>
      </trkpt>
      <trkpt lat="45.45085" lon="5.38488">
        <ele>582</ele>
        <time>2021-10-02T14:20:45.579Z</time>
      </trkpt>
      <trkpt lat="45.45077" lon="5.38484">
        <ele>582</ele>
        <time>2021-10-02T14:20:44.579Z</time>
      </trkpt>
      <trkpt lat="45.45071" lon="5.38482">
        <ele>582</ele>
        <time>2021-10-02T14:20:43.579Z</time>
      </trkpt>
      <trkpt lat="45.45065" lon="5.38479">
        <ele>582</ele>
        <time>2021-10-02T14:20:42.579Z</time>
      </trkpt>
      <trkpt lat="45.45059" lon="5.38477">
        <ele>582</ele>
        <time>2021-10-02T14:20:41.579Z</time>
      </trkpt>
      <trkpt lat="45.45052" lon="5.38474">
        <ele>582</ele>
        <time>2021-10-02T14:20:40.578Z</time>
      </trkpt>
      <trkpt lat="45.45044" lon="5.38472">
        <ele>582</ele>
        <time>2021-10-02T14:20:39.579Z</time>
      </trkpt>
      <trkpt lat="45.45037" lon="5.3847">
        <ele>582</ele>
        <time>2021-10-02T14:20:38.579Z</time>
      </trkpt>
      <trkpt lat="45.45031" lon="5.3847">
        <ele>582</ele>
        <time>2021-10-02T14:20:37.579Z</time>
      </trkpt>
      <trkpt lat="45.45024" lon="5.38469">
        <ele>583</ele>
        <time>2021-10-02T14:20:36.579Z</time>
      </trkpt>
      <trkpt lat="45.45015" lon="5.38469">
        <ele>583</ele>
        <time>2021-10-02T14:20:35.579Z</time>
      </trkpt>
      <trkpt lat="45.45008" lon="5.38469">
        <ele>583</ele>
        <time>2021-10-02T14:20:34.578Z</time>
      </trkpt>
      <trkpt lat="45.45001" lon="5.3847">
        <ele>582</ele>
        <time>2021-10-02T14:20:33.579Z</time>
      </trkpt>
      <trkpt lat="45.44994" lon="5.3847">
        <ele>581</ele>
        <time>2021-10-02T14:20:32.579Z</time>
      </trkpt>
      <trkpt lat="45.44988" lon="5.38471">
        <ele>581</ele>
        <time>2021-10-02T14:20:31.579Z</time>
      </trkpt>
      <trkpt lat="45.44982" lon="5.38472">
        <ele>580</ele>
        <time>2021-10-02T14:20:30.579Z</time>
      </trkpt>
      <trkpt lat="45.44975" lon="5.38474">
        <ele>579</ele>
        <time>2021-10-02T14:20:29.579Z</time>
      </trkpt>
      <trkpt lat="45.44971" lon="5.38475">
        <ele>579</ele>
        <time>2021-10-02T14:20:28.579Z</time>
      </trkpt>
      <trkpt lat="45.44965" lon="5.38477">
        <ele>578</ele>
        <time>2021-10-02T14:20:27.578Z</time>
      </trkpt>
      <trkpt lat="45.44958" lon="5.38479">
        <ele>578</ele>
        <time>2021-10-02T14:20:26.578Z</time>
      </trkpt>
      <trkpt lat="45.44952" lon="5.38481">
        <ele>578</ele>
        <time>2021-10-02T14:20:25.578Z</time>
      </trkpt>
      <trkpt lat="45.44947" lon="5.38483">
        <ele>578</ele>
        <time>2021-10-02T14:20:24.578Z</time>
      </trkpt>
      <trkpt lat="45.44942" lon="5.38485">
        <ele>579</ele>
        <time>2021-10-02T14:20:23.579Z</time>
      </trkpt>
      <trkpt lat="45.44936" lon="5.38487">
        <ele>579</ele>
        <time>2021-10-02T14:20:22.579Z</time>
      </trkpt>
      <trkpt lat="45.4493" lon="5.38489">
        <ele>579</ele>
        <time>2021-10-02T14:20:21.579Z</time>
      </trkpt>
      <trkpt lat="45.44924" lon="5.3849">
        <ele>579</ele>
        <time>2021-10-02T14:20:20.579Z</time>
      </trkpt>
      <trkpt lat="45.44918" lon="5.38491">
        <ele>580</ele>
        <time>2021-10-02T14:20:19.579Z</time>
      </trkpt>
      <trkpt lat="45.44911" lon="5.38493">
        <ele>581</ele>
        <time>2021-10-02T14:20:18.578Z</time>
      </trkpt>
      <trkpt lat="45.44907" lon="5.38493">
        <ele>581</ele>
        <time>2021-10-02T14:20:17.579Z</time>
      </trkpt>
      <trkpt lat="45.44901" lon="5.38493">
        <ele>582</ele>
        <time>2021-10-02T14:20:16.579Z</time>
      </trkpt>
      <trkpt lat="45.44893" lon="5.38494">
        <ele>583</ele>
        <time>2021-10-02T14:20:15.578Z</time>
      </trkpt>
      <trkpt lat="45.44887" lon="5.38494">
        <ele>583</ele>
        <time>2021-10-02T14:20:14.579Z</time>
      </trkpt>
      <trkpt lat="45.44882" lon="5.38495">
        <ele>583</ele>
        <time>2021-10-02T14:20:13.579Z</time>
      </trkpt>
      <trkpt lat="45.44876" lon="5.38495">
        <ele>583</ele>
        <time>2021-10-02T14:20:12.579Z</time>
      </trkpt>
      <trkpt lat="45.4487" lon="5.38495">
        <ele>584</ele>
        <time>2021-10-02T14:20:11.579Z</time>
      </trkpt>
      <trkpt lat="45.44864" lon="5.38496">
        <ele>584</ele>
        <time>2021-10-02T14:20:10.579Z</time>
      </trkpt>
      <trkpt lat="45.44858" lon="5.38496">
        <ele>583</ele>
        <time>2021-10-02T14:20:09.579Z</time>
      </trkpt>
      <trkpt lat="45.44852" lon="5.38497">
        <ele>583</ele>
        <time>2021-10-02T14:20:08.579Z</time>
      </trkpt>
      <trkpt lat="45.44847" lon="5.38498">
        <ele>583</ele>
        <time>2021-10-02T14:20:07.578Z</time>
      </trkpt>
      <trkpt lat="45.44842" lon="5.38498">
        <ele>583</ele>
        <time>2021-10-02T14:20:06.579Z</time>
      </trkpt>
      <trkpt lat="45.44835" lon="5.38499">
        <ele>583</ele>
        <time>2021-10-02T14:20:05.579Z</time>
      </trkpt>
      <trkpt lat="45.4483" lon="5.38499">
        <ele>583</ele>
        <time>2021-10-02T14:20:04.578Z</time>
      </trkpt>
      <trkpt lat="45.44825" lon="5.38499">
        <ele>582</ele>
        <time>2021-10-02T14:20:03.579Z</time>
      </trkpt>
      <trkpt lat="45.4482" lon="5.38499">
        <ele>583</ele>
        <time>2021-10-02T14:20:02.579Z</time>
      </trkpt>
      <trkpt lat="45.44817" lon="5.38499">
        <ele>582</ele>
        <time>2021-10-02T14:20:01.579Z</time>
      </trkpt>
      <trkpt lat="45.44811" lon="5.38498">
        <ele>582</ele>
        <time>2021-10-02T14:20:00.579Z</time>
      </trkpt>
      <trkpt lat="45.44806" lon="5.38498">
        <ele>582</ele>
        <time>2021-10-02T14:19:59.579Z</time>
      </trkpt>
      <trkpt lat="45.44802" lon="5.38498">
        <ele>582</ele>
        <time>2021-10-02T14:19:58.578Z</time>
      </trkpt>
      <trkpt lat="45.44798" lon="5.38497">
        <ele>581</ele>
        <time>2021-10-02T14:19:57.579Z</time>
      </trkpt>
      <trkpt lat="45.44793" lon="5.38497">
        <ele>580</ele>
        <time>2021-10-02T14:19:56.578Z</time>
      </trkpt>
      <trkpt lat="45.44788" lon="5.38497">
        <ele>580</ele>
        <time>2021-10-02T14:19:55.579Z</time>
      </trkpt>
      <trkpt lat="45.44782" lon="5.38496">
        <ele>579</ele>
        <time>2021-10-02T14:19:54.579Z</time>
      </trkpt>
      <trkpt lat="45.44777" lon="5.38496">
        <ele>578</ele>
        <time>2021-10-02T14:19:53.579Z</time>
      </trkpt>
      <trkpt lat="45.44772" lon="5.38496">
        <ele>578</ele>
        <time>2021-10-02T14:19:52.579Z</time>
      </trkpt>
      <trkpt lat="45.44767" lon="5.38496">
        <ele>578</ele>
        <time>2021-10-02T14:19:51.579Z</time>
      </trkpt>
      <trkpt lat="45.44761" lon="5.38496">
        <ele>578</ele>
        <time>2021-10-02T14:19:50.579Z</time>
      </trkpt>
      <trkpt lat="45.44755" lon="5.38495">
        <ele>578</ele>
        <time>2021-10-02T14:19:49.578Z</time>
      </trkpt>
      <trkpt lat="45.44751" lon="5.38495">
        <ele>578</ele>
        <time>2021-10-02T14:19:48.578Z</time>
      </trkpt>
      <trkpt lat="45.44746" lon="5.38494">
        <ele>578</ele>
        <time>2021-10-02T14:19:47.579Z</time>
      </trkpt>
      <trkpt lat="45.44741" lon="5.38493">
        <ele>578</ele>
        <time>2021-10-02T14:19:46.579Z</time>
      </trkpt>
      <trkpt lat="45.44734" lon="5.38492">
        <ele>578</ele>
        <time>2021-10-02T14:19:45.579Z</time>
      </trkpt>
      <trkpt lat="45.44729" lon="5.38491">
        <ele>577</ele>
        <time>2021-10-02T14:19:44.578Z</time>
      </trkpt>
      <trkpt lat="45.44724" lon="5.3849">
        <ele>577</ele>
        <time>2021-10-02T14:19:43.579Z</time>
      </trkpt>
      <trkpt lat="45.44719" lon="5.38489">
        <ele>577</ele>
        <time>2021-10-02T14:19:42.579Z</time>
      </trkpt>
      <trkpt lat="45.44714" lon="5.38487">
        <ele>576</ele>
        <time>2021-10-02T14:19:41.579Z</time>
      </trkpt>
      <trkpt lat="45.44708" lon="5.38484">
        <ele>576</ele>
        <time>2021-10-02T14:19:40.579Z</time>
      </trkpt>
      <trkpt lat="45.44704" lon="5.38482">
        <ele>575</ele>
        <time>2021-10-02T14:19:39.579Z</time>
      </trkpt>
      <trkpt lat="45.44698" lon="5.3848">
        <ele>575</ele>
        <time>2021-10-02T14:19:38.579Z</time>
      </trkpt>
      <trkpt lat="45.44693" lon="5.38477">
        <ele>574</ele>
        <time>2021-10-02T14:19:37.579Z</time>
      </trkpt>
      <trkpt lat="45.44688" lon="5.38474">
        <ele>574</ele>
        <time>2021-10-02T14:19:36.579Z</time>
      </trkpt>
      <trkpt lat="45.44683" lon="5.38471">
        <ele>574</ele>
        <time>2021-10-02T14:19:35.579Z</time>
      </trkpt>
      <trkpt lat="45.44678" lon="5.38467">
        <ele>573</ele>
        <time>2021-10-02T14:19:34.578Z</time>
      </trkpt>
      <trkpt lat="45.44673" lon="5.38463">
        <ele>573</ele>
        <time>2021-10-02T14:19:33.578Z</time>
      </trkpt>
      <trkpt lat="45.44668" lon="5.38458">
        <ele>573</ele>
        <time>2021-10-02T14:19:32.579Z</time>
      </trkpt>
      <trkpt lat="45.44664" lon="5.38453">
        <ele>574</ele>
        <time>2021-10-02T14:19:31.579Z</time>
      </trkpt>
      <trkpt lat="45.44659" lon="5.38447">
        <ele>574</ele>
        <time>2021-10-02T14:19:30.579Z</time>
      </trkpt>
      <trkpt lat="45.44655" lon="5.38441">
        <ele>574</ele>
        <time>2021-10-02T14:19:29.579Z</time>
      </trkpt>
      <trkpt lat="45.44651" lon="5.38435">
        <ele>574</ele>
        <time>2021-10-02T14:19:28.579Z</time>
      </trkpt>
      <trkpt lat="45.44647" lon="5.38428">
        <ele>574</ele>
        <time>2021-10-02T14:19:27.579Z</time>
      </trkpt>
      <trkpt lat="45.44643" lon="5.38422">
        <ele>574</ele>
        <time>2021-10-02T14:19:26.578Z</time>
      </trkpt>
      <trkpt lat="45.44638" lon="5.38415">
        <ele>573</ele>
        <time>2021-10-02T14:19:25.579Z</time>
      </trkpt>
      <trkpt lat="45.44632" lon="5.38408">
        <ele>573</ele>
        <time>2021-10-02T14:19:24.579Z</time>
      </trkpt>
      <trkpt lat="45.44628" lon="5.38403">
        <ele>572</ele>
        <time>2021-10-02T14:19:23.578Z</time>
      </trkpt>
      <trkpt lat="45.44623" lon="5.38398">
        <ele>571</ele>
        <time>2021-10-02T14:19:22.579Z</time>
      </trkpt>
      <trkpt lat="45.44617" lon="5.38392">
        <ele>571</ele>
        <time>2021-10-02T14:19:21.579Z</time>
      </trkpt>
      <trkpt lat="45.4461" lon="5.38387">
        <ele>571</ele>
        <time>2021-10-02T14:19:20.579Z</time>
      </trkpt>
      <trkpt lat="45.44604" lon="5.38383">
        <ele>570</ele>
        <time>2021-10-02T14:19:19.579Z</time>
      </trkpt>
      <trkpt lat="45.44598" lon="5.38379">
        <ele>570</ele>
        <time>2021-10-02T14:19:18.579Z</time>
      </trkpt>
      <trkpt lat="45.44592" lon="5.38377">
        <ele>570</ele>
        <time>2021-10-02T14:19:17.579Z</time>
      </trkpt>
      <trkpt lat="45.44585" lon="5.38374">
        <ele>571</ele>
        <time>2021-10-02T14:19:16.578Z</time>
      </trkpt>
      <trkpt lat="45.44579" lon="5.38372">
        <ele>571</ele>
        <time>2021-10-02T14:19:15.579Z</time>
      </trkpt>
      <trkpt lat="45.4457" lon="5.3837">
        <ele>571</ele>
        <time>2021-10-02T14:19:14.579Z</time>
      </trkpt>
      <trkpt lat="45.44563" lon="5.38368">
        <ele>571</ele>
        <time>2021-10-02T14:19:13.578Z</time>
      </trkpt>
      <trkpt lat="45.44556" lon="5.38366">
        <ele>571</ele>
        <time>2021-10-02T14:19:12.578Z</time>
      </trkpt>
      <trkpt lat="45.4455" lon="5.38364">
        <ele>572</ele>
        <time>2021-10-02T14:19:11.579Z</time>
      </trkpt>
      <trkpt lat="45.44543" lon="5.38362">
        <ele>572</ele>
        <time>2021-10-02T14:19:10.578Z</time>
      </trkpt>
      <trkpt lat="45.44534" lon="5.3836">
        <ele>572</ele>
        <time>2021-10-02T14:19:09.579Z</time>
      </trkpt>
      <trkpt lat="45.44528" lon="5.38358">
        <ele>572</ele>
        <time>2021-10-02T14:19:08.579Z</time>
      </trkpt>
      <trkpt lat="45.44521" lon="5.38356">
        <ele>571</ele>
        <time>2021-10-02T14:19:07.579Z</time>
      </trkpt>
      <trkpt lat="45.44514" lon="5.38354">
        <ele>571</ele>
        <time>2021-10-02T14:19:06.579Z</time>
      </trkpt>
      <trkpt lat="45.44507" lon="5.38352">
        <ele>570</ele>
        <time>2021-10-02T14:19:05.579Z</time>
      </trkpt>
      <trkpt lat="45.44501" lon="5.38351">
        <ele>569</ele>
        <time>2021-10-02T14:19:04.579Z</time>
      </trkpt>
      <trkpt lat="45.44494" lon="5.3835">
        <ele>569</ele>
        <time>2021-10-02T14:19:03.578Z</time>
      </trkpt>
      <trkpt lat="45.44488" lon="5.3835">
        <ele>569</ele>
        <time>2021-10-02T14:19:02.578Z</time>
      </trkpt>
      <trkpt lat="45.44482" lon="5.38351">
        <ele>568</ele>
        <time>2021-10-02T14:19:01.579Z</time>
      </trkpt>
      <trkpt lat="45.44476" lon="5.38352">
        <ele>568</ele>
        <time>2021-10-02T14:19:00.579Z</time>
      </trkpt>
      <trkpt lat="45.44471" lon="5.38354">
        <ele>567</ele>
        <time>2021-10-02T14:18:59.579Z</time>
      </trkpt>
      <trkpt lat="45.44465" lon="5.38356">
        <ele>567</ele>
        <time>2021-10-02T14:18:58.578Z</time>
      </trkpt>
      <trkpt lat="45.4446" lon="5.38358">
        <ele>566</ele>
        <time>2021-10-02T14:18:57.578Z</time>
      </trkpt>
      <trkpt lat="45.44456" lon="5.38361">
        <ele>566</ele>
        <time>2021-10-02T14:18:56.578Z</time>
      </trkpt>
      <trkpt lat="45.44451" lon="5.38364">
        <ele>566</ele>
        <time>2021-10-02T14:18:55.578Z</time>
      </trkpt>
      <trkpt lat="45.44446" lon="5.38368">
        <ele>565</ele>
        <time>2021-10-02T14:18:54.579Z</time>
      </trkpt>
      <trkpt lat="45.44442" lon="5.38371">
        <ele>565</ele>
        <time>2021-10-02T14:18:53.579Z</time>
      </trkpt>
      <trkpt lat="45.44438" lon="5.38375">
        <ele>565</ele>
        <time>2021-10-02T14:18:52.578Z</time>
      </trkpt>
      <trkpt lat="45.44433" lon="5.38379">
        <ele>565</ele>
        <time>2021-10-02T14:18:51.579Z</time>
      </trkpt>
      <trkpt lat="45.4443" lon="5.38384">
        <ele>565</ele>
        <time>2021-10-02T14:18:50.579Z</time>
      </trkpt>
      <trkpt lat="45.44425" lon="5.38388">
        <ele>565</ele>
        <time>2021-10-02T14:18:49.578Z</time>
      </trkpt>
      <trkpt lat="45.44422" lon="5.38393">
        <ele>564</ele>
        <time>2021-10-02T14:18:48.578Z</time>
      </trkpt>
      <trkpt lat="45.44418" lon="5.38397">
        <ele>564</ele>
        <time>2021-10-02T14:18:47.578Z</time>
      </trkpt>
      <trkpt lat="45.44414" lon="5.38402">
        <ele>564</ele>
        <time>2021-10-02T14:18:46.579Z</time>
      </trkpt>
      <trkpt lat="45.4441" lon="5.38407">
        <ele>563</ele>
        <time>2021-10-02T14:18:45.579Z</time>
      </trkpt>
      <trkpt lat="45.44406" lon="5.38412">
        <ele>563</ele>
        <time>2021-10-02T14:18:44.579Z</time>
      </trkpt>
      <trkpt lat="45.44402" lon="5.38416">
        <ele>563</ele>
        <time>2021-10-02T14:18:43.578Z</time>
      </trkpt>
      <trkpt lat="45.44399" lon="5.38421">
        <ele>563</ele>
        <time>2021-10-02T14:18:42.579Z</time>
      </trkpt>
      <trkpt lat="45.44395" lon="5.38426">
        <ele>563</ele>
        <time>2021-10-02T14:18:41.579Z</time>
      </trkpt>
      <trkpt lat="45.44391" lon="5.38431">
        <ele>563</ele>
        <time>2021-10-02T14:18:40.579Z</time>
      </trkpt>
      <trkpt lat="45.44387" lon="5.38436">
        <ele>563</ele>
        <time>2021-10-02T14:18:39.579Z</time>
      </trkpt>
      <trkpt lat="45.44383" lon="5.38441">
        <ele>563</ele>
        <time>2021-10-02T14:18:38.578Z</time>
      </trkpt>
      <trkpt lat="45.44379" lon="5.38446">
        <ele>563</ele>
        <time>2021-10-02T14:18:37.579Z</time>
      </trkpt>
      <trkpt lat="45.44374" lon="5.38451">
        <ele>563</ele>
        <time>2021-10-02T14:18:36.579Z</time>
      </trkpt>
      <trkpt lat="45.4437" lon="5.38457">
        <ele>563</ele>
        <time>2021-10-02T14:18:35.578Z</time>
      </trkpt>
      <trkpt lat="45.44366" lon="5.38463">
        <ele>563</ele>
        <time>2021-10-02T14:18:34.579Z</time>
      </trkpt>
      <trkpt lat="45.44361" lon="5.3847">
        <ele>564</ele>
        <time>2021-10-02T14:18:33.578Z</time>
      </trkpt>
      <trkpt lat="45.44357" lon="5.38474">
        <ele>564</ele>
        <time>2021-10-02T14:18:32.578Z</time>
      </trkpt>
      <trkpt lat="45.44352" lon="5.3848">
        <ele>564</ele>
        <time>2021-10-02T14:18:31.578Z</time>
      </trkpt>
      <trkpt lat="45.44348" lon="5.38487">
        <ele>564</ele>
        <time>2021-10-02T14:18:30.579Z</time>
      </trkpt>
      <trkpt lat="45.44344" lon="5.38493">
        <ele>564</ele>
        <time>2021-10-02T14:18:29.579Z</time>
      </trkpt>
      <trkpt lat="45.4434" lon="5.385">
        <ele>565</ele>
        <time>2021-10-02T14:18:28.578Z</time>
      </trkpt>
      <trkpt lat="45.44336" lon="5.38508">
        <ele>565</ele>
        <time>2021-10-02T14:18:27.579Z</time>
        <extensions>
          <visugpx:TrkExtension xmlns:visugpx="https://www.visugpx.com/editgpx/">
            <visugpx:node>21</visugpx:node>
            </visugpx:TrkExtension>
        </extensions>
      </trkpt>
      <trkpt lat="45.44329" lon="5.38518">
        <ele>561.9</ele>
      </trkpt>
      <trkpt lat="45.44228" lon="5.38578">
        <ele>560.8</ele>
      </trkpt>
      <trkpt lat="45.44188" lon="5.38611">
        <ele>560.8</ele>
      </trkpt>
      <trkpt lat="45.44133" lon="5.38665">
        <ele>560.7</ele>
      </trkpt>
      <trkpt lat="45.44061" lon="5.38721">
        <ele>560</ele>
      </trkpt>
      <trkpt lat="45.43878" lon="5.38817">
        <ele>559.8</ele>
      </trkpt>
      <trkpt lat="45.43794" lon="5.38904">
        <ele>558.6</ele>
      </trkpt>
      <trkpt lat="45.43673" lon="5.39057">
        <ele>557.3</ele>
      </trkpt>
      <trkpt lat="45.4333" lon="5.3948">
        <ele>555</ele>
      </trkpt>
      <trkpt lat="45.43141" lon="5.3971">
        <ele>553.1</ele>
      </trkpt>
      <trkpt lat="45.4296" lon="5.39936">
        <ele>554.2</ele>
      </trkpt>
      <trkpt lat="45.42784" lon="5.40141">
        <ele>554.3</ele>
      </trkpt>
      <trkpt lat="45.42758" lon="5.40181">
        <ele>553.4</ele>
      </trkpt>
      <trkpt lat="45.42726" lon="5.40226">
        <ele>552.1</ele>
      </trkpt>
      <trkpt lat="45.42716" lon="5.40256">
        <ele>552</ele>
      </trkpt>
      <trkpt lat="45.42716" lon="5.40262">
        <ele>552.1</ele>
      </trkpt>
      <trkpt lat="45.42726" lon="5.40304">
        <ele>553</ele>
      </trkpt>
      <trkpt lat="45.42741" lon="5.40342">
        <ele>553</ele>
      </trkpt>
      <trkpt lat="45.42764" lon="5.40401">
        <ele>553</ele>
      </trkpt>
      <trkpt lat="45.42772" lon="5.40422">
        <ele>553.2</ele>
      </trkpt>
      <trkpt lat="45.42776" lon="5.4044">
        <ele>553.8</ele>
      </trkpt>
      <trkpt lat="45.42784" lon="5.40451">
        <ele>554.5</ele>
      </trkpt>
      <trkpt lat="45.42814" lon="5.40522">
        <ele>553.7</ele>
      </trkpt>
      <trkpt lat="45.42921" lon="5.40588">
        <ele>545</ele>
        <extensions>
          <visugpx:TrkExtension xmlns:visugpx="https://www.visugpx.com/editgpx/">
            <visugpx:node>22</visugpx:node>
            </visugpx:TrkExtension>
        </extensions>
      </trkpt>
      <trkpt lat="45.42923" lon="5.4059">
        <ele>544.5</ele>
      </trkpt>
      <trkpt lat="45.42973" lon="5.40624">
        <ele>541.4</ele>
      </trkpt>
      <trkpt lat="45.42996" lon="5.4066">
        <ele>539.3</ele>
      </trkpt>
      <trkpt lat="45.43001" lon="5.40686">
        <ele>537</ele>
      </trkpt>
      <trkpt lat="45.42997" lon="5.40705">
        <ele>536.1</ele>
      </trkpt>
      <trkpt lat="45.42983" lon="5.40723">
        <ele>534.4</ele>
        <extensions>
          <visugpx:TrkExtension xmlns:visugpx="https://www.visugpx.com/editgpx/">
            <visugpx:node>23</visugpx:node>
            </visugpx:TrkExtension>
        </extensions>
      </trkpt>
      <trkpt lat="45.42973" lon="5.40737">
        <ele>533.8</ele>
      </trkpt>
      <trkpt lat="45.42963" lon="5.40757">
        <ele>532.6</ele>
      </trkpt>
      <trkpt lat="45.42953" lon="5.4079">
        <ele>530.3</ele>
      </trkpt>
      <trkpt lat="45.4295" lon="5.40808">
        <ele>528.5</ele>
      </trkpt>
      <trkpt lat="45.42958" lon="5.40836">
        <ele>524.5</ele>
      </trkpt>
      <trkpt lat="45.42972" lon="5.4085">
        <ele>523.3</ele>
      </trkpt>
      <trkpt lat="45.43002" lon="5.40861">
        <ele>524</ele>
      </trkpt>
      <trkpt lat="45.43042" lon="5.40866">
        <ele>520.8</ele>
      </trkpt>
      <trkpt lat="45.43095" lon="5.40847">
        <ele>517.6</ele>
      </trkpt>
      <trkpt lat="45.43103" lon="5.40849">
        <ele>517.1</ele>
      </trkpt>
      <trkpt lat="45.43122" lon="5.40862">
        <ele>515.5</ele>
      </trkpt>
      <trkpt lat="45.43163" lon="5.40912">
        <ele>512.9</ele>
      </trkpt>
      <trkpt lat="45.43194" lon="5.40958">
        <ele>512.5</ele>
      </trkpt>
      <trkpt lat="45.43216" lon="5.40999">
        <ele>510.6</ele>
      </trkpt>
      <trkpt lat="45.43242" lon="5.41021">
        <ele>508.1</ele>
      </trkpt>
      <trkpt lat="45.43255" lon="5.41023">
        <ele>507.5</ele>
      </trkpt>
      <trkpt lat="45.43288" lon="5.41016">
        <ele>506.7</ele>
      </trkpt>
      <trkpt lat="45.43373" lon="5.40987">
        <ele>502.4</ele>
      </trkpt>
      <trkpt lat="45.43405" lon="5.40997">
        <ele>500.9</ele>
      </trkpt>
      <trkpt lat="45.43428" lon="5.41017">
        <ele>500.8</ele>
        <extensions>
          <visugpx:TrkExtension xmlns:visugpx="https://www.visugpx.com/editgpx/">
            <visugpx:node>24</visugpx:node>
            </visugpx:TrkExtension>
        </extensions>
      </trkpt>
      <trkpt lat="45.4344" lon="5.41027">
        <ele>500.9</ele>
      </trkpt>
      <trkpt lat="45.43446" lon="5.41033">
        <ele>500.8</ele>
      </trkpt>
      <trkpt lat="45.4345" lon="5.41042">
        <ele>500.6</ele>
      </trkpt>
      <trkpt lat="45.43507" lon="5.41144">
        <ele>502.2</ele>
      </trkpt>
      <trkpt lat="45.43503" lon="5.41262">
        <ele>504.5</ele>
      </trkpt>
      <trkpt lat="45.4357" lon="5.4147">
        <ele>502.6</ele>
      </trkpt>
      <trkpt lat="45.43627" lon="5.41537">
        <ele>503.2</ele>
      </trkpt>
      <trkpt lat="45.43659" lon="5.41556">
        <ele>503.7</ele>
      </trkpt>
      <trkpt lat="45.43708" lon="5.41574">
        <ele>506</ele>
      </trkpt>
      <trkpt lat="45.43726" lon="5.41588">
        <ele>508.2</ele>
      </trkpt>
      <trkpt lat="45.43731" lon="5.41593">
        <ele>510.1</ele>
      </trkpt>
      <trkpt lat="45.43779" lon="5.41629">
        <ele>515</ele>
      </trkpt>
      <trkpt lat="45.4379" lon="5.41642">
        <ele>512.4</ele>
      </trkpt>
      <trkpt lat="45.43804" lon="5.41653">
        <ele>512</ele>
      </trkpt>
      <trkpt lat="45.43808" lon="5.41653">
        <ele>512.1</ele>
        <extensions>
          <visugpx:TrkExtension xmlns:visugpx="https://www.visugpx.com/editgpx/">
            <visugpx:node>25</visugpx:node>
            </visugpx:TrkExtension>
        </extensions>
      </trkpt>
      <trkpt lat="45.43851" lon="5.41649">
        <ele>514.2</ele>
      </trkpt>
      <trkpt lat="45.43899" lon="5.41656">
        <ele>516.3</ele>
      </trkpt>
      <trkpt lat="45.43907" lon="5.41658">
        <ele>517.1</ele>
      </trkpt>
      <trkpt lat="45.43948" lon="5.41733">
        <ele>516.7</ele>
      </trkpt>
      <trkpt lat="45.43959" lon="5.41769">
        <ele>514.9</ele>
      </trkpt>
      <trkpt lat="45.43969" lon="5.41829">
        <ele>515.1</ele>
      </trkpt>
      <trkpt lat="45.43966" lon="5.41854">
        <ele>514.7</ele>
      </trkpt>
      <trkpt lat="45.4395" lon="5.41951">
        <ele>515</ele>
      </trkpt>
      <trkpt lat="45.4395" lon="5.42005">
        <ele>515.9</ele>
      </trkpt>
      <trkpt lat="45.43951" lon="5.42015">
        <ele>515.6</ele>
      </trkpt>
      <trkpt lat="45.43956" lon="5.4204">
        <ele>514.8</ele>
      </trkpt>
      <trkpt lat="45.43959" lon="5.42054">
        <ele>514.1</ele>
      </trkpt>
      <trkpt lat="45.43977" lon="5.42125">
        <ele>513.2</ele>
      </trkpt>
      <trkpt lat="45.44003" lon="5.42215">
        <ele>512.4</ele>
      </trkpt>
      <trkpt lat="45.44008" lon="5.42235">
        <ele>511.8</ele>
      </trkpt>
      <trkpt lat="45.4401" lon="5.42254">
        <ele>511.4</ele>
      </trkpt>
      <trkpt lat="45.44016" lon="5.42285">
        <ele>511.6</ele>
        <extensions>
          <visugpx:TrkExtension xmlns:visugpx="https://www.visugpx.com/editgpx/">
            <visugpx:node>26</visugpx:node>
            </visugpx:TrkExtension>
        </extensions>
      </trkpt>
      <trkpt lat="45.44251" lon="5.42605">
        <ele>519</ele>
        <time>2021-10-02T14:08:04.578Z</time>
        <extensions>
          <visugpx:TrkExtension xmlns:visugpx="https://www.visugpx.com/editgpx/">
            <visugpx:node>20</visugpx:node>
            </visugpx:TrkExtension>
        </extensions>
      </trkpt>
      <trkpt lat="45.44246" lon="5.42612">
        <ele>520</ele>
        <time>2021-10-02T14:08:03.579Z</time>
      </trkpt>
      <trkpt lat="45.44241" lon="5.42619">
        <ele>520</ele>
        <time>2021-10-02T14:08:02.578Z</time>
      </trkpt>
      <trkpt lat="45.44237" lon="5.42626">
        <ele>521</ele>
        <time>2021-10-02T14:08:01.579Z</time>
      </trkpt>
      <trkpt lat="45.44232" lon="5.42632">
        <ele>521</ele>
        <time>2021-10-02T14:08:00.578Z</time>
      </trkpt>
      <trkpt lat="45.44227" lon="5.42639">
        <ele>522</ele>
        <time>2021-10-02T14:07:59.579Z</time>
      </trkpt>
      <trkpt lat="45.44223" lon="5.42646">
        <ele>522</ele>
        <time>2021-10-02T14:07:58.579Z</time>
      </trkpt>
      <trkpt lat="45.44218" lon="5.42653">
        <ele>522</ele>
        <time>2021-10-02T14:07:57.578Z</time>
      </trkpt>
      <trkpt lat="45.44213" lon="5.42659">
        <ele>523</ele>
        <time>2021-10-02T14:07:56.578Z</time>
      </trkpt>
      <trkpt lat="45.44208" lon="5.42666">
        <ele>523</ele>
        <time>2021-10-02T14:07:55.579Z</time>
      </trkpt>
      <trkpt lat="45.44203" lon="5.42673">
        <ele>524</ele>
        <time>2021-10-02T14:07:54.579Z</time>
      </trkpt>
      <trkpt lat="45.44199" lon="5.4268">
        <ele>524</ele>
        <time>2021-10-02T14:07:53.578Z</time>
      </trkpt>
      <trkpt lat="45.44194" lon="5.42687">
        <ele>524</ele>
        <time>2021-10-02T14:07:52.579Z</time>
      </trkpt>
      <trkpt lat="45.4419" lon="5.42694">
        <ele>525</ele>
        <time>2021-10-02T14:07:51.579Z</time>
      </trkpt>
      <trkpt lat="45.44186" lon="5.427">
        <ele>525</ele>
        <time>2021-10-02T14:07:50.579Z</time>
      </trkpt>
      <trkpt lat="45.44182" lon="5.42705">
        <ele>525</ele>
        <time>2021-10-02T14:07:49.579Z</time>
      </trkpt>
      <trkpt lat="45.44178" lon="5.4271">
        <ele>525</ele>
        <time>2021-10-02T14:07:48.579Z</time>
      </trkpt>
      <trkpt lat="45.44175" lon="5.42715">
        <ele>525</ele>
        <time>2021-10-02T14:07:47.579Z</time>
      </trkpt>
      <trkpt lat="45.44173" lon="5.42719">
        <ele>525</ele>
        <time>2021-10-02T14:07:46.579Z</time>
      </trkpt>
      <trkpt lat="45.4417" lon="5.42724">
        <ele>524</ele>
        <time>2021-10-02T14:07:45.578Z</time>
      </trkpt>
      <trkpt lat="45.44167" lon="5.42728">
        <ele>524</ele>
        <time>2021-10-02T14:07:44.579Z</time>
      </trkpt>
      <trkpt lat="45.44164" lon="5.42732">
        <ele>523</ele>
        <time>2021-10-02T14:07:43.579Z</time>
      </trkpt>
      <trkpt lat="45.44162" lon="5.42736">
        <ele>523</ele>
        <time>2021-10-02T14:07:42.579Z</time>
      </trkpt>
      <trkpt lat="45.44159" lon="5.42741">
        <ele>522</ele>
        <time>2021-10-02T14:07:41.579Z</time>
      </trkpt>
      <trkpt lat="45.44157" lon="5.42745">
        <ele>522</ele>
        <time>2021-10-02T14:07:40.579Z</time>
      </trkpt>
      <trkpt lat="45.44153" lon="5.42751">
        <ele>521</ele>
        <time>2021-10-02T14:07:39.579Z</time>
      </trkpt>
      <trkpt lat="45.44151" lon="5.42754">
        <ele>521</ele>
        <time>2021-10-02T14:07:38.579Z</time>
      </trkpt>
      <trkpt lat="45.44148" lon="5.42759">
        <ele>520</ele>
        <time>2021-10-02T14:07:37.579Z</time>
      </trkpt>
      <trkpt lat="45.44145" lon="5.42764">
        <ele>520</ele>
        <time>2021-10-02T14:07:36.579Z</time>
      </trkpt>
      <trkpt lat="45.44141" lon="5.4277">
        <ele>519</ele>
        <time>2021-10-02T14:07:35.579Z</time>
      </trkpt>
      <trkpt lat="45.44138" lon="5.42776">
        <ele>518</ele>
        <time>2021-10-02T14:07:34.579Z</time>
      </trkpt>
      <trkpt lat="45.44134" lon="5.42782">
        <ele>518</ele>
        <time>2021-10-02T14:07:33.578Z</time>
      </trkpt>
      <trkpt lat="45.4413" lon="5.42788">
        <ele>517</ele>
        <time>2021-10-02T14:07:32.579Z</time>
      </trkpt>
      <trkpt lat="45.44126" lon="5.42794">
        <ele>517</ele>
        <time>2021-10-02T14:07:31.578Z</time>
      </trkpt>
      <trkpt lat="45.44122" lon="5.428">
        <ele>517</ele>
        <time>2021-10-02T14:07:30.579Z</time>
      </trkpt>
      <trkpt lat="45.44118" lon="5.42806">
        <ele>516</ele>
        <time>2021-10-02T14:07:29.579Z</time>
      </trkpt>
      <trkpt lat="45.44113" lon="5.42812">
        <ele>516</ele>
        <time>2021-10-02T14:07:28.579Z</time>
      </trkpt>
      <trkpt lat="45.44109" lon="5.42818">
        <ele>515</ele>
        <time>2021-10-02T14:07:27.579Z</time>
      </trkpt>
      <trkpt lat="45.44104" lon="5.42824">
        <ele>515</ele>
        <time>2021-10-02T14:07:26.579Z</time>
      </trkpt>
      <trkpt lat="45.44099" lon="5.42829">
        <ele>515</ele>
        <time>2021-10-02T14:07:25.579Z</time>
      </trkpt>
      <trkpt lat="45.44093" lon="5.42834">
        <ele>515</ele>
        <time>2021-10-02T14:07:24.579Z</time>
      </trkpt>
      <trkpt lat="45.44088" lon="5.42838">
        <ele>515</ele>
        <time>2021-10-02T14:07:23.578Z</time>
      </trkpt>
      <trkpt lat="45.44082" lon="5.42842">
        <ele>515</ele>
        <time>2021-10-02T14:07:22.578Z</time>
      </trkpt>
      <trkpt lat="45.44077" lon="5.42845">
        <ele>515</ele>
        <time>2021-10-02T14:07:21.578Z</time>
      </trkpt>
      <trkpt lat="45.44071" lon="5.42847">
        <ele>515</ele>
        <time>2021-10-02T14:07:20.579Z</time>
        <extensions>
          <visugpx:TrkExtension xmlns:visugpx="https://www.visugpx.com/editgpx/">
            <visugpx:node>16</visugpx:node>
            </visugpx:TrkExtension>
        </extensions>
      </trkpt>
      <trkpt lat="45.44069" lon="5.42841">
        <ele>512.7</ele>
      </trkpt>
      <trkpt lat="45.44063" lon="5.42844">
        <ele>512.6</ele>
      </trkpt>
      <trkpt lat="45.44063" lon="5.42853">
        <ele>512.3</ele>
      </trkpt>
      <trkpt lat="45.44053" lon="5.42867">
        <ele>511.8</ele>
      </trkpt>
      <trkpt lat="45.43985" lon="5.42947">
        <ele>509.9</ele>
      </trkpt>
      <trkpt lat="45.43929" lon="5.43001">
        <ele>508</ele>
      </trkpt>
      <trkpt lat="45.43901" lon="5.43047">
        <ele>505.9</ele>
      </trkpt>
      <trkpt lat="45.4389" lon="5.43067">
        <ele>504.6</ele>
      </trkpt>
      <trkpt lat="45.43867" lon="5.43097">
        <ele>502.3</ele>
      </trkpt>
      <trkpt lat="45.43847" lon="5.43127">
        <ele>500.2</ele>
      </trkpt>
      <trkpt lat="45.4381" lon="5.43169">
        <ele>496.5</ele>
      </trkpt>
      <trkpt lat="45.43755" lon="5.43229">
        <ele>489.5</ele>
        <extensions>
          <visugpx:TrkExtension xmlns:visugpx="https://www.visugpx.com/editgpx/">
            <visugpx:node>17</visugpx:node>
            </visugpx:TrkExtension>
        </extensions>
      </trkpt>
      <trkpt lat="45.437" lon="5.43289">
        <ele>485.3</ele>
      </trkpt>
      <trkpt lat="45.43638" lon="5.43346">
        <ele>483.1</ele>
      </trkpt>
      <trkpt lat="45.43621" lon="5.43358">
        <ele>482.3</ele>
      </trkpt>
      <trkpt lat="45.4356" lon="5.43381">
        <ele>482.1</ele>
      </trkpt>
      <trkpt lat="45.43552" lon="5.43385">
        <ele>482.4</ele>
      </trkpt>
      <trkpt lat="45.43543" lon="5.43388">
        <ele>482.9</ele>
      </trkpt>
      <trkpt lat="45.43524" lon="5.43395">
        <ele>484.3</ele>
      </trkpt>
      <trkpt lat="45.43474" lon="5.43418">
        <ele>489.9</ele>
      </trkpt>
      <trkpt lat="45.43392" lon="5.43432">
        <ele>500.7</ele>
      </trkpt>
      <trkpt lat="45.43366" lon="5.43454">
        <ele>502.7</ele>
        <extensions>
          <visugpx:TrkExtension xmlns:visugpx="https://www.visugpx.com/editgpx/">
            <visugpx:node>18</visugpx:node>
            </visugpx:TrkExtension>
        </extensions>
      </trkpt>
      <trkpt lat="45.43346" lon="5.4347">
        <ele>504.1</ele>
      </trkpt>
      <trkpt lat="45.43338" lon="5.43482">
        <ele>504.7</ele>
      </trkpt>
      <trkpt lat="45.43317" lon="5.43515">
        <ele>505.6</ele>
      </trkpt>
      <trkpt lat="45.43285" lon="5.43568">
        <ele>508.6</ele>
      </trkpt>
      <trkpt lat="45.43243" lon="5.43623">
        <ele>513.7</ele>
      </trkpt>
      <trkpt lat="45.43217" lon="5.43654">
        <ele>515.7</ele>
      </trkpt>
      <trkpt lat="45.43197" lon="5.43674">
        <ele>517.2</ele>
        <extensions>
          <visugpx:TrkExtension xmlns:visugpx="https://www.visugpx.com/editgpx/">
            <visugpx:node>19</visugpx:node>
            </visugpx:TrkExtension>
        </extensions>
      </trkpt>
      <trkpt lat="45.43159" lon="5.43696">
        <ele>527</ele>
        <time>2021-10-02T14:03:22.578Z</time>
        <extensions>
          <visugpx:TrkExtension xmlns:visugpx="https://www.visugpx.com/editgpx/">
            <visugpx:node>15</visugpx:node>
            </visugpx:TrkExtension>
        </extensions>
      </trkpt>
      <trkpt lat="45.43157" lon="5.43699">
        <ele>527</ele>
        <time>2021-10-02T14:03:21.579Z</time>
      </trkpt>
      <trkpt lat="45.43156" lon="5.43702">
        <ele>527</ele>
        <time>2021-10-02T14:03:20.579Z</time>
      </trkpt>
      <trkpt lat="45.43155" lon="5.43704">
        <ele>527</ele>
        <time>2021-10-02T14:03:19.579Z</time>
      </trkpt>
      <trkpt lat="45.43154" lon="5.43708">
        <ele>528</ele>
        <time>2021-10-02T14:03:18.579Z</time>
      </trkpt>
      <trkpt lat="45.43153" lon="5.43713">
        <ele>528</ele>
        <time>2021-10-02T14:03:17.579Z</time>
      </trkpt>
      <trkpt lat="45.43152" lon="5.43719">
        <ele>529</ele>
        <time>2021-10-02T14:03:16.578Z</time>
      </trkpt>
      <trkpt lat="45.4315" lon="5.43725">
        <ele>529</ele>
        <time>2021-10-02T14:03:15.579Z</time>
      </trkpt>
      <trkpt lat="45.43149" lon="5.43732">
        <ele>530</ele>
        <time>2021-10-02T14:03:14.579Z</time>
      </trkpt>
      <trkpt lat="45.43148" lon="5.4374">
        <ele>530</ele>
        <time>2021-10-02T14:03:13.579Z</time>
      </trkpt>
      <trkpt lat="45.43146" lon="5.43748">
        <ele>531</ele>
        <time>2021-10-02T14:03:12.579Z</time>
      </trkpt>
      <trkpt lat="45.43145" lon="5.43755">
        <ele>531</ele>
        <time>2021-10-02T14:03:11.579Z</time>
      </trkpt>
      <trkpt lat="45.43143" lon="5.43763">
        <ele>532</ele>
        <time>2021-10-02T14:03:10.578Z</time>
      </trkpt>
      <trkpt lat="45.43142" lon="5.43772">
        <ele>532</ele>
        <time>2021-10-02T14:03:09.578Z</time>
      </trkpt>
      <trkpt lat="45.4314" lon="5.4378">
        <ele>532</ele>
        <time>2021-10-02T14:03:08.578Z</time>
      </trkpt>
      <trkpt lat="45.43138" lon="5.43788">
        <ele>532</ele>
        <time>2021-10-02T14:03:07.579Z</time>
      </trkpt>
      <trkpt lat="45.43137" lon="5.43797">
        <ele>533</ele>
        <time>2021-10-02T14:03:06.579Z</time>
      </trkpt>
      <trkpt lat="45.43135" lon="5.43806">
        <ele>533</ele>
        <time>2021-10-02T14:03:05.579Z</time>
      </trkpt>
      <trkpt lat="45.43134" lon="5.43815">
        <ele>533</ele>
        <time>2021-10-02T14:03:04.579Z</time>
      </trkpt>
      <trkpt lat="45.43132" lon="5.43824">
        <ele>534</ele>
        <time>2021-10-02T14:03:03.579Z</time>
      </trkpt>
      <trkpt lat="45.43131" lon="5.43833">
        <ele>534</ele>
        <time>2021-10-02T14:03:02.579Z</time>
      </trkpt>
      <trkpt lat="45.4313" lon="5.43843">
        <ele>534</ele>
        <time>2021-10-02T14:03:01.579Z</time>
      </trkpt>
      <trkpt lat="45.43128" lon="5.43853">
        <ele>534</ele>
        <time>2021-10-02T14:03:00.579Z</time>
      </trkpt>
      <trkpt lat="45.43126" lon="5.43863">
        <ele>534</ele>
        <time>2021-10-02T14:02:59.579Z</time>
      </trkpt>
      <trkpt lat="45.43123" lon="5.43873">
        <ele>533</ele>
        <time>2021-10-02T14:02:58.579Z</time>
      </trkpt>
      <trkpt lat="45.4312" lon="5.43882">
        <ele>533</ele>
        <time>2021-10-02T14:02:57.579Z</time>
      </trkpt>
      <trkpt lat="45.43117" lon="5.43891">
        <ele>533</ele>
        <time>2021-10-02T14:02:56.579Z</time>
      </trkpt>
      <trkpt lat="45.43113" lon="5.439">
        <ele>532</ele>
        <time>2021-10-02T14:02:55.579Z</time>
      </trkpt>
      <trkpt lat="45.43109" lon="5.43909">
        <ele>532</ele>
        <time>2021-10-02T14:02:54.579Z</time>
      </trkpt>
      <trkpt lat="45.43105" lon="5.43917">
        <ele>532</ele>
        <time>2021-10-02T14:02:53.579Z</time>
      </trkpt>
      <trkpt lat="45.43101" lon="5.43925">
        <ele>533</ele>
        <time>2021-10-02T14:02:52.579Z</time>
      </trkpt>
      <trkpt lat="45.43097" lon="5.43933">
        <ele>533</ele>
        <time>2021-10-02T14:02:51.579Z</time>
      </trkpt>
      <trkpt lat="45.43092" lon="5.43941">
        <ele>532</ele>
        <time>2021-10-02T14:02:50.578Z</time>
      </trkpt>
      <trkpt lat="45.43087" lon="5.43949">
        <ele>532</ele>
        <time>2021-10-02T14:02:49.579Z</time>
      </trkpt>
      <trkpt lat="45.43082" lon="5.43958">
        <ele>533</ele>
        <time>2021-10-02T14:02:48.579Z</time>
      </trkpt>
      <trkpt lat="45.43077" lon="5.43968">
        <ele>533</ele>
        <time>2021-10-02T14:02:47.579Z</time>
      </trkpt>
      <trkpt lat="45.43072" lon="5.43978">
        <ele>533</ele>
        <time>2021-10-02T14:02:46.579Z</time>
      </trkpt>
      <trkpt lat="45.43067" lon="5.43989">
        <ele>534</ele>
        <time>2021-10-02T14:02:45.579Z</time>
      </trkpt>
      <trkpt lat="45.43062" lon="5.44001">
        <ele>534</ele>
        <time>2021-10-02T14:02:44.578Z</time>
      </trkpt>
      <trkpt lat="45.43058" lon="5.44014">
        <ele>535</ele>
        <time>2021-10-02T14:02:43.579Z</time>
      </trkpt>
      <trkpt lat="45.43053" lon="5.44027">
        <ele>536</ele>
        <time>2021-10-02T14:02:42.579Z</time>
      </trkpt>
      <trkpt lat="45.43048" lon="5.44041">
        <ele>536</ele>
        <time>2021-10-02T14:02:41.578Z</time>
      </trkpt>
      <trkpt lat="45.43043" lon="5.44054">
        <ele>537</ele>
        <time>2021-10-02T14:02:40.579Z</time>
      </trkpt>
      <trkpt lat="45.43038" lon="5.44068">
        <ele>538</ele>
        <time>2021-10-02T14:02:39.579Z</time>
      </trkpt>
      <trkpt lat="45.43033" lon="5.44082">
        <ele>540</ele>
        <time>2021-10-02T14:02:38.579Z</time>
      </trkpt>
      <trkpt lat="45.43028" lon="5.44096">
        <ele>540</ele>
        <time>2021-10-02T14:02:37.578Z</time>
      </trkpt>
      <trkpt lat="45.43023" lon="5.44111">
        <ele>541</ele>
        <time>2021-10-02T14:02:36.579Z</time>
      </trkpt>
      <trkpt lat="45.43018" lon="5.44125">
        <ele>542</ele>
        <time>2021-10-02T14:02:35.578Z</time>
      </trkpt>
      <trkpt lat="45.43012" lon="5.44139">
        <ele>543</ele>
        <time>2021-10-02T14:02:34.579Z</time>
      </trkpt>
      <trkpt lat="45.43007" lon="5.44153">
        <ele>544</ele>
        <time>2021-10-02T14:02:33.578Z</time>
      </trkpt>
      <trkpt lat="45.43" lon="5.44167">
        <ele>544</ele>
        <time>2021-10-02T14:02:32.579Z</time>
      </trkpt>
      <trkpt lat="45.42994" lon="5.44179">
        <ele>545</ele>
        <time>2021-10-02T14:02:31.579Z</time>
      </trkpt>
      <trkpt lat="45.42987" lon="5.44191">
        <ele>546</ele>
        <time>2021-10-02T14:02:30.579Z</time>
      </trkpt>
      <trkpt lat="45.42979" lon="5.44203">
        <ele>547</ele>
        <time>2021-10-02T14:02:29.578Z</time>
      </trkpt>
      <trkpt lat="45.42972" lon="5.44213">
        <ele>547</ele>
        <time>2021-10-02T14:02:28.579Z</time>
      </trkpt>
      <trkpt lat="45.42964" lon="5.44222">
        <ele>548</ele>
        <time>2021-10-02T14:02:27.579Z</time>
      </trkpt>
      <trkpt lat="45.42956" lon="5.4423">
        <ele>549</ele>
        <time>2021-10-02T14:02:26.579Z</time>
      </trkpt>
      <trkpt lat="45.42947" lon="5.44237">
        <ele>550</ele>
        <time>2021-10-02T14:02:25.578Z</time>
      </trkpt>
      <trkpt lat="45.42939" lon="5.44244">
        <ele>550</ele>
        <time>2021-10-02T14:02:24.579Z</time>
      </trkpt>
      <trkpt lat="45.42929" lon="5.4425">
        <ele>551</ele>
        <time>2021-10-02T14:02:23.578Z</time>
      </trkpt>
      <trkpt lat="45.42921" lon="5.44257">
        <ele>552</ele>
        <time>2021-10-02T14:02:22.579Z</time>
      </trkpt>
      <trkpt lat="45.42914" lon="5.44266">
        <ele>552</ele>
        <time>2021-10-02T14:02:21.579Z</time>
      </trkpt>
      <trkpt lat="45.42907" lon="5.44275">
        <ele>553</ele>
        <time>2021-10-02T14:02:20.578Z</time>
      </trkpt>
      <trkpt lat="45.42901" lon="5.44286">
        <ele>553</ele>
        <time>2021-10-02T14:02:19.579Z</time>
      </trkpt>
      <trkpt lat="45.42897" lon="5.44298">
        <ele>553</ele>
        <time>2021-10-02T14:02:18.579Z</time>
      </trkpt>
      <trkpt lat="45.42894" lon="5.44312">
        <ele>554</ele>
        <time>2021-10-02T14:02:17.579Z</time>
      </trkpt>
      <trkpt lat="45.42892" lon="5.44325">
        <ele>554</ele>
        <time>2021-10-02T14:02:16.578Z</time>
      </trkpt>
      <trkpt lat="45.42893" lon="5.44339">
        <ele>556</ele>
        <time>2021-10-02T14:02:15.578Z</time>
      </trkpt>
      <trkpt lat="45.42894" lon="5.44351">
        <ele>557</ele>
        <time>2021-10-02T14:02:14.578Z</time>
      </trkpt>
      <trkpt lat="45.42897" lon="5.44364">
        <ele>558</ele>
        <time>2021-10-02T14:02:13.578Z</time>
      </trkpt>
      <trkpt lat="45.429" lon="5.44375">
        <ele>558</ele>
        <time>2021-10-02T14:02:12.578Z</time>
      </trkpt>
      <trkpt lat="45.42903" lon="5.44387">
        <ele>559</ele>
        <time>2021-10-02T14:02:11.579Z</time>
      </trkpt>
      <trkpt lat="45.42906" lon="5.44399">
        <ele>559</ele>
        <time>2021-10-02T14:02:10.578Z</time>
      </trkpt>
      <trkpt lat="45.42909" lon="5.4441">
        <ele>559</ele>
        <time>2021-10-02T14:02:09.578Z</time>
      </trkpt>
      <trkpt lat="45.42911" lon="5.4442">
        <ele>560</ele>
        <time>2021-10-02T14:02:08.578Z</time>
      </trkpt>
      <trkpt lat="45.42913" lon="5.44431">
        <ele>560</ele>
        <time>2021-10-02T14:02:07.579Z</time>
      </trkpt>
      <trkpt lat="45.42915" lon="5.44441">
        <ele>560</ele>
        <time>2021-10-02T14:02:06.579Z</time>
      </trkpt>
      <trkpt lat="45.42915" lon="5.44451">
        <ele>560</ele>
        <time>2021-10-02T14:02:05.579Z</time>
      </trkpt>
      <trkpt lat="45.42916" lon="5.4446">
        <ele>560</ele>
        <time>2021-10-02T14:02:04.579Z</time>
      </trkpt>
      <trkpt lat="45.42915" lon="5.4447">
        <ele>561</ele>
        <time>2021-10-02T14:02:03.578Z</time>
      </trkpt>
      <trkpt lat="45.42915" lon="5.4448">
        <ele>561</ele>
        <time>2021-10-02T14:02:02.579Z</time>
      </trkpt>
      <trkpt lat="45.42914" lon="5.44489">
        <ele>561</ele>
        <time>2021-10-02T14:02:01.579Z</time>
      </trkpt>
      <trkpt lat="45.42913" lon="5.44499">
        <ele>561</ele>
        <time>2021-10-02T14:02:00.579Z</time>
      </trkpt>
      <trkpt lat="45.42912" lon="5.44508">
        <ele>561</ele>
        <time>2021-10-02T14:01:59.579Z</time>
      </trkpt>
      <trkpt lat="45.4291" lon="5.44518">
        <ele>561</ele>
        <time>2021-10-02T14:01:58.579Z</time>
      </trkpt>
      <trkpt lat="45.42908" lon="5.44527">
        <ele>561</ele>
        <time>2021-10-02T14:01:57.579Z</time>
      </trkpt>
      <trkpt lat="45.42906" lon="5.44536">
        <ele>561</ele>
        <time>2021-10-02T14:01:56.579Z</time>
      </trkpt>
      <trkpt lat="45.42903" lon="5.44544">
        <ele>561</ele>
        <time>2021-10-02T14:01:55.579Z</time>
      </trkpt>
      <trkpt lat="45.429" lon="5.44553">
        <ele>561</ele>
        <time>2021-10-02T14:01:54.579Z</time>
      </trkpt>
      <trkpt lat="45.42897" lon="5.4456">
        <ele>561</ele>
        <time>2021-10-02T14:01:53.579Z</time>
      </trkpt>
      <trkpt lat="45.42893" lon="5.44567">
        <ele>560</ele>
        <time>2021-10-02T14:01:52.579Z</time>
      </trkpt>
      <trkpt lat="45.42889" lon="5.44574">
        <ele>559</ele>
        <time>2021-10-02T14:01:51.579Z</time>
      </trkpt>
      <trkpt lat="45.42884" lon="5.4458">
        <ele>558</ele>
        <time>2021-10-02T14:01:50.579Z</time>
      </trkpt>
      <trkpt lat="45.4288" lon="5.44586">
        <ele>557</ele>
        <time>2021-10-02T14:01:49.578Z</time>
      </trkpt>
      <trkpt lat="45.42875" lon="5.44591">
        <ele>557</ele>
        <time>2021-10-02T14:01:48.578Z</time>
      </trkpt>
      <trkpt lat="45.4287" lon="5.44596">
        <ele>557</ele>
        <time>2021-10-02T14:01:47.579Z</time>
      </trkpt>
      <trkpt lat="45.42864" lon="5.44601">
        <ele>556</ele>
        <time>2021-10-02T14:01:46.579Z</time>
      </trkpt>
      <trkpt lat="45.42859" lon="5.44606">
        <ele>556</ele>
        <time>2021-10-02T14:01:45.578Z</time>
      </trkpt>
      <trkpt lat="45.42854" lon="5.44612">
        <ele>555</ele>
        <time>2021-10-02T14:01:44.579Z</time>
      </trkpt>
      <trkpt lat="45.42849" lon="5.44618">
        <ele>554</ele>
        <time>2021-10-02T14:01:43.579Z</time>
      </trkpt>
      <trkpt lat="45.42844" lon="5.44624">
        <ele>553</ele>
        <time>2021-10-02T14:01:42.579Z</time>
      </trkpt>
      <trkpt lat="45.4284" lon="5.4463">
        <ele>553</ele>
        <time>2021-10-02T14:01:41.579Z</time>
      </trkpt>
      <trkpt lat="45.42833" lon="5.44638">
        <ele>553</ele>
        <time>2021-10-02T14:01:40.578Z</time>
      </trkpt>
      <trkpt lat="45.42827" lon="5.44646">
        <ele>553</ele>
        <time>2021-10-02T14:01:39.579Z</time>
      </trkpt>
      <trkpt lat="45.42822" lon="5.44654">
        <ele>553</ele>
        <time>2021-10-02T14:01:38.579Z</time>
      </trkpt>
      <trkpt lat="45.42817" lon="5.44662">
        <ele>553</ele>
        <time>2021-10-02T14:01:37.578Z</time>
      </trkpt>
      <trkpt lat="45.42812" lon="5.44671">
        <ele>553</ele>
        <time>2021-10-02T14:01:36.579Z</time>
      </trkpt>
      <trkpt lat="45.42808" lon="5.4468">
        <ele>553</ele>
        <time>2021-10-02T14:01:35.579Z</time>
      </trkpt>
      <trkpt lat="45.42804" lon="5.4469">
        <ele>552</ele>
        <time>2021-10-02T14:01:34.579Z</time>
      </trkpt>
      <trkpt lat="45.428" lon="5.447">
        <ele>552</ele>
        <time>2021-10-02T14:01:33.579Z</time>
      </trkpt>
      <trkpt lat="45.42797" lon="5.4471">
        <ele>552</ele>
        <time>2021-10-02T14:01:32.579Z</time>
      </trkpt>
      <trkpt lat="45.42794" lon="5.44721">
        <ele>552</ele>
        <time>2021-10-02T14:01:31.579Z</time>
      </trkpt>
      <trkpt lat="45.42792" lon="5.44731">
        <ele>553</ele>
        <time>2021-10-02T14:01:30.578Z</time>
      </trkpt>
      <trkpt lat="45.42791" lon="5.44742">
        <ele>553</ele>
        <time>2021-10-02T14:01:29.579Z</time>
      </trkpt>
      <trkpt lat="45.4279" lon="5.44753">
        <ele>554</ele>
        <time>2021-10-02T14:01:28.578Z</time>
      </trkpt>
      <trkpt lat="45.42789" lon="5.44763">
        <ele>554</ele>
        <time>2021-10-02T14:01:27.579Z</time>
      </trkpt>
      <trkpt lat="45.42789" lon="5.44774">
        <ele>554</ele>
        <time>2021-10-02T14:01:26.578Z</time>
      </trkpt>
      <trkpt lat="45.42788" lon="5.44785">
        <ele>554</ele>
        <time>2021-10-02T14:01:25.579Z</time>
      </trkpt>
      <trkpt lat="45.42787" lon="5.44797">
        <ele>554</ele>
        <time>2021-10-02T14:01:24.579Z</time>
      </trkpt>
      <trkpt lat="45.42786" lon="5.44808">
        <ele>554</ele>
        <time>2021-10-02T14:01:23.579Z</time>
      </trkpt>
      <trkpt lat="45.42785" lon="5.44819">
        <ele>554</ele>
        <time>2021-10-02T14:01:22.579Z</time>
      </trkpt>
      <trkpt lat="45.42783" lon="5.4483">
        <ele>553</ele>
        <time>2021-10-02T14:01:21.579Z</time>
      </trkpt>
      <trkpt lat="45.42781" lon="5.44842">
        <ele>553</ele>
        <time>2021-10-02T14:01:20.579Z</time>
      </trkpt>
      <trkpt lat="45.42779" lon="5.44853">
        <ele>553</ele>
        <time>2021-10-02T14:01:19.579Z</time>
      </trkpt>
      <trkpt lat="45.42777" lon="5.44865">
        <ele>553</ele>
        <time>2021-10-02T14:01:18.578Z</time>
      </trkpt>
      <trkpt lat="45.42774" lon="5.44876">
        <ele>552</ele>
        <time>2021-10-02T14:01:17.579Z</time>
      </trkpt>
      <trkpt lat="45.42771" lon="5.44888">
        <ele>552</ele>
        <time>2021-10-02T14:01:16.579Z</time>
      </trkpt>
      <trkpt lat="45.42768" lon="5.449">
        <ele>552</ele>
        <time>2021-10-02T14:01:15.579Z</time>
      </trkpt>
      <trkpt lat="45.42765" lon="5.44911">
        <ele>551</ele>
        <time>2021-10-02T14:01:14.579Z</time>
      </trkpt>
      <trkpt lat="45.42762" lon="5.44923">
        <ele>551</ele>
        <time>2021-10-02T14:01:13.578Z</time>
      </trkpt>
      <trkpt lat="45.42758" lon="5.44934">
        <ele>551</ele>
        <time>2021-10-02T14:01:12.579Z</time>
      </trkpt>
      <trkpt lat="45.42755" lon="5.44945">
        <ele>551</ele>
        <time>2021-10-02T14:01:11.578Z</time>
      </trkpt>
      <trkpt lat="45.42752" lon="5.44957">
        <ele>551</ele>
        <time>2021-10-02T14:01:10.579Z</time>
      </trkpt>
      <trkpt lat="45.42749" lon="5.44969">
        <ele>551</ele>
        <time>2021-10-02T14:01:09.579Z</time>
      </trkpt>
      <trkpt lat="45.42747" lon="5.44981">
        <ele>552</ele>
        <time>2021-10-02T14:01:08.579Z</time>
      </trkpt>
      <trkpt lat="45.42745" lon="5.44993">
        <ele>552</ele>
        <time>2021-10-02T14:01:07.579Z</time>
      </trkpt>
      <trkpt lat="45.42743" lon="5.45005">
        <ele>552</ele>
        <time>2021-10-02T14:01:06.579Z</time>
      </trkpt>
      <trkpt lat="45.42741" lon="5.45018">
        <ele>553</ele>
        <time>2021-10-02T14:01:05.579Z</time>
      </trkpt>
      <trkpt lat="45.42739" lon="5.4503">
        <ele>553</ele>
        <time>2021-10-02T14:01:04.579Z</time>
      </trkpt>
      <trkpt lat="45.42737" lon="5.45043">
        <ele>554</ele>
        <time>2021-10-02T14:01:03.579Z</time>
      </trkpt>
      <trkpt lat="45.42734" lon="5.45055">
        <ele>554</ele>
        <time>2021-10-02T14:01:02.579Z</time>
      </trkpt>
      <trkpt lat="45.42731" lon="5.45067">
        <ele>554</ele>
        <time>2021-10-02T14:01:01.579Z</time>
      </trkpt>
      <trkpt lat="45.42728" lon="5.4508">
        <ele>554</ele>
        <time>2021-10-02T14:01:00.578Z</time>
      </trkpt>
      <trkpt lat="45.42725" lon="5.45092">
        <ele>554</ele>
        <time>2021-10-02T14:00:59.579Z</time>
      </trkpt>
      <trkpt lat="45.42722" lon="5.45104">
        <ele>554</ele>
        <time>2021-10-02T14:00:58.579Z</time>
      </trkpt>
      <trkpt lat="45.42718" lon="5.45116">
        <ele>554</ele>
        <time>2021-10-02T14:00:57.579Z</time>
      </trkpt>
      <trkpt lat="45.42715" lon="5.45129">
        <ele>555</ele>
        <time>2021-10-02T14:00:56.579Z</time>
      </trkpt>
      <trkpt lat="45.42712" lon="5.45141">
        <ele>555</ele>
        <time>2021-10-02T14:00:55.578Z</time>
      </trkpt>
      <trkpt lat="45.42709" lon="5.45153">
        <ele>556</ele>
        <time>2021-10-02T14:00:54.579Z</time>
      </trkpt>
      <trkpt lat="45.42706" lon="5.45165">
        <ele>557</ele>
        <time>2021-10-02T14:00:53.578Z</time>
      </trkpt>
      <trkpt lat="45.42704" lon="5.45177">
        <ele>557</ele>
        <time>2021-10-02T14:00:52.579Z</time>
      </trkpt>
      <trkpt lat="45.42701" lon="5.4519">
        <ele>557</ele>
        <time>2021-10-02T14:00:51.578Z</time>
      </trkpt>
      <trkpt lat="45.42699" lon="5.45202">
        <ele>557</ele>
        <time>2021-10-02T14:00:50.579Z</time>
      </trkpt>
      <trkpt lat="45.42697" lon="5.45215">
        <ele>558</ele>
        <time>2021-10-02T14:00:49.579Z</time>
      </trkpt>
      <trkpt lat="45.42695" lon="5.45227">
        <ele>558</ele>
        <time>2021-10-02T14:00:48.579Z</time>
      </trkpt>
      <trkpt lat="45.42693" lon="5.4524">
        <ele>558</ele>
        <time>2021-10-02T14:00:47.578Z</time>
      </trkpt>
      <trkpt lat="45.4269" lon="5.45252">
        <ele>558</ele>
        <time>2021-10-02T14:00:46.579Z</time>
      </trkpt>
      <trkpt lat="45.42688" lon="5.45265">
        <ele>559</ele>
        <time>2021-10-02T14:00:45.578Z</time>
      </trkpt>
      <trkpt lat="45.42685" lon="5.45277">
        <ele>560</ele>
        <time>2021-10-02T14:00:44.579Z</time>
      </trkpt>
      <trkpt lat="45.42682" lon="5.4529">
        <ele>560</ele>
        <time>2021-10-02T14:00:43.579Z</time>
      </trkpt>
      <trkpt lat="45.42679" lon="5.45302">
        <ele>561</ele>
        <time>2021-10-02T14:00:42.579Z</time>
      </trkpt>
      <trkpt lat="45.42675" lon="5.45315">
        <ele>562</ele>
        <time>2021-10-02T14:00:41.578Z</time>
      </trkpt>
      <trkpt lat="45.42672" lon="5.45327">
        <ele>562</ele>
        <time>2021-10-02T14:00:40.579Z</time>
      </trkpt>
      <trkpt lat="45.42669" lon="5.45339">
        <ele>563</ele>
        <time>2021-10-02T14:00:39.579Z</time>
      </trkpt>
      <trkpt lat="45.42665" lon="5.45352">
        <ele>563</ele>
        <time>2021-10-02T14:00:38.579Z</time>
      </trkpt>
      <trkpt lat="45.42662" lon="5.45364">
        <ele>562</ele>
        <time>2021-10-02T14:00:37.579Z</time>
      </trkpt>
      <trkpt lat="45.42659" lon="5.45376">
        <ele>562</ele>
        <time>2021-10-02T14:00:36.579Z</time>
      </trkpt>
      <trkpt lat="45.42657" lon="5.45387">
        <ele>562</ele>
        <time>2021-10-02T14:00:35.579Z</time>
      </trkpt>
      <trkpt lat="45.42655" lon="5.45399">
        <ele>562</ele>
        <time>2021-10-02T14:00:34.578Z</time>
      </trkpt>
      <trkpt lat="45.42653" lon="5.45409">
        <ele>561</ele>
        <time>2021-10-02T14:00:33.579Z</time>
      </trkpt>
      <trkpt lat="45.42652" lon="5.45419">
        <ele>561</ele>
        <time>2021-10-02T14:00:32.578Z</time>
      </trkpt>
      <trkpt lat="45.42651" lon="5.45429">
        <ele>561</ele>
        <time>2021-10-02T14:00:31.579Z</time>
      </trkpt>
      <trkpt lat="45.4265" lon="5.45438">
        <ele>562</ele>
        <time>2021-10-02T14:00:30.579Z</time>
      </trkpt>
      <trkpt lat="45.42648" lon="5.45447">
        <ele>562</ele>
        <time>2021-10-02T14:00:29.578Z</time>
      </trkpt>
      <trkpt lat="45.42647" lon="5.45456">
        <ele>562</ele>
        <time>2021-10-02T14:00:28.578Z</time>
      </trkpt>
      <trkpt lat="45.42646" lon="5.45464">
        <ele>562</ele>
        <time>2021-10-02T14:00:27.578Z</time>
      </trkpt>
      <trkpt lat="45.42645" lon="5.45472">
        <ele>561</ele>
        <time>2021-10-02T14:00:26.579Z</time>
      </trkpt>
      <trkpt lat="45.42644" lon="5.4548">
        <ele>561</ele>
        <time>2021-10-02T14:00:25.579Z</time>
      </trkpt>
      <trkpt lat="45.42644" lon="5.45487">
        <ele>561</ele>
        <time>2021-10-02T14:00:24.579Z</time>
      </trkpt>
      <trkpt lat="45.42642" lon="5.45494">
        <ele>560</ele>
        <time>2021-10-02T14:00:23.579Z</time>
      </trkpt>
      <trkpt lat="45.42641" lon="5.45501">
        <ele>560</ele>
        <time>2021-10-02T14:00:22.578Z</time>
      </trkpt>
      <trkpt lat="45.4264" lon="5.45508">
        <ele>560</ele>
        <time>2021-10-02T14:00:21.578Z</time>
      </trkpt>
      <trkpt lat="45.42639" lon="5.45515">
        <ele>560</ele>
        <time>2021-10-02T14:00:20.579Z</time>
      </trkpt>
      <trkpt lat="45.42638" lon="5.45522">
        <ele>559</ele>
        <time>2021-10-02T14:00:19.579Z</time>
      </trkpt>
      <trkpt lat="45.42637" lon="5.45528">
        <ele>559</ele>
        <time>2021-10-02T14:00:18.579Z</time>
      </trkpt>
      <trkpt lat="45.42635" lon="5.45535">
        <ele>559</ele>
        <time>2021-10-02T14:00:17.578Z</time>
      </trkpt>
      <trkpt lat="45.42633" lon="5.45541">
        <ele>560</ele>
        <time>2021-10-02T14:00:16.578Z</time>
      </trkpt>
      <trkpt lat="45.42632" lon="5.45548">
        <ele>560</ele>
        <time>2021-10-02T14:00:15.579Z</time>
      </trkpt>
      <trkpt lat="45.4263" lon="5.45557">
        <ele>559</ele>
        <time>2021-10-02T14:00:14.579Z</time>
      </trkpt>
      <trkpt lat="45.42629" lon="5.45563">
        <ele>559</ele>
        <time>2021-10-02T14:00:13.579Z</time>
      </trkpt>
      <trkpt lat="45.42627" lon="5.45571">
        <ele>558</ele>
        <time>2021-10-02T14:00:12.579Z</time>
      </trkpt>
      <trkpt lat="45.42626" lon="5.45579">
        <ele>558</ele>
        <time>2021-10-02T14:00:11.578Z</time>
      </trkpt>
      <trkpt lat="45.42625" lon="5.45588">
        <ele>558</ele>
        <time>2021-10-02T14:00:10.578Z</time>
      </trkpt>
      <trkpt lat="45.42624" lon="5.45597">
        <ele>558</ele>
        <time>2021-10-02T14:00:09.579Z</time>
      </trkpt>
      <trkpt lat="45.42623" lon="5.45608">
        <ele>558</ele>
        <time>2021-10-02T14:00:08.579Z</time>
      </trkpt>
      <trkpt lat="45.42623" lon="5.45616">
        <ele>558</ele>
        <time>2021-10-02T14:00:07.579Z</time>
      </trkpt>
      <trkpt lat="45.42622" lon="5.45625">
        <ele>558</ele>
        <time>2021-10-02T14:00:06.579Z</time>
      </trkpt>
      <trkpt lat="45.42621" lon="5.45634">
        <ele>559</ele>
        <time>2021-10-02T14:00:05.578Z</time>
      </trkpt>
      <trkpt lat="45.42621" lon="5.45646">
        <ele>559</ele>
        <time>2021-10-02T14:00:04.578Z</time>
      </trkpt>
      <trkpt lat="45.4262" lon="5.45653">
        <ele>559</ele>
        <time>2021-10-02T14:00:03.578Z</time>
      </trkpt>
      <trkpt lat="45.4262" lon="5.45663">
        <ele>559</ele>
        <time>2021-10-02T14:00:02.579Z</time>
      </trkpt>
      <trkpt lat="45.4262" lon="5.45673">
        <ele>558</ele>
        <time>2021-10-02T14:00:01.578Z</time>
      </trkpt>
      <trkpt lat="45.4262" lon="5.45684">
        <ele>558</ele>
        <time>2021-10-02T14:00:00.578Z</time>
      </trkpt>
      <trkpt lat="45.4262" lon="5.45694">
        <ele>557</ele>
        <time>2021-10-02T13:59:59.578Z</time>
      </trkpt>
      <trkpt lat="45.4262" lon="5.45701">
        <ele>557</ele>
        <time>2021-10-02T13:59:58.578Z</time>
      </trkpt>
      <trkpt lat="45.42621" lon="5.45711">
        <ele>557</ele>
        <time>2021-10-02T13:59:57.578Z</time>
      </trkpt>
      <trkpt lat="45.42621" lon="5.45721">
        <ele>557</ele>
        <time>2021-10-02T13:59:56.578Z</time>
      </trkpt>
      <trkpt lat="45.42622" lon="5.45732">
        <ele>557</ele>
        <time>2021-10-02T13:59:55.579Z</time>
      </trkpt>
      <trkpt lat="45.42623" lon="5.45742">
        <ele>557</ele>
        <time>2021-10-02T13:59:54.579Z</time>
      </trkpt>
      <trkpt lat="45.42623" lon="5.4575">
        <ele>557</ele>
        <time>2021-10-02T13:59:53.579Z</time>
      </trkpt>
      <trkpt lat="45.42624" lon="5.45759">
        <ele>557</ele>
        <time>2021-10-02T13:59:52.579Z</time>
      </trkpt>
      <trkpt lat="45.42625" lon="5.45771">
        <ele>557</ele>
        <time>2021-10-02T13:59:51.579Z</time>
      </trkpt>
      <trkpt lat="45.42627" lon="5.4578">
        <ele>557</ele>
        <time>2021-10-02T13:59:50.579Z</time>
      </trkpt>
      <trkpt lat="45.42627" lon="5.45787">
        <ele>557</ele>
        <time>2021-10-02T13:59:49.579Z</time>
      </trkpt>
      <trkpt lat="45.42629" lon="5.45796">
        <ele>558</ele>
        <time>2021-10-02T13:59:48.579Z</time>
      </trkpt>
      <trkpt lat="45.4263" lon="5.45806">
        <ele>558</ele>
        <time>2021-10-02T13:59:47.579Z</time>
      </trkpt>
      <trkpt lat="45.42632" lon="5.45817">
        <ele>559</ele>
        <time>2021-10-02T13:59:46.578Z</time>
      </trkpt>
      <trkpt lat="45.42633" lon="5.45826">
        <ele>560</ele>
        <time>2021-10-02T13:59:45.579Z</time>
      </trkpt>
      <trkpt lat="45.42634" lon="5.45835">
        <ele>560</ele>
        <time>2021-10-02T13:59:44.578Z</time>
      </trkpt>
      <trkpt lat="45.42636" lon="5.45842">
        <ele>560</ele>
        <time>2021-10-02T13:59:43.579Z</time>
      </trkpt>
      <trkpt lat="45.42637" lon="5.45853">
        <ele>561</ele>
        <time>2021-10-02T13:59:42.579Z</time>
      </trkpt>
      <trkpt lat="45.42638" lon="5.45862">
        <ele>560</ele>
        <time>2021-10-02T13:59:41.578Z</time>
      </trkpt>
      <trkpt lat="45.42639" lon="5.45871">
        <ele>560</ele>
        <time>2021-10-02T13:59:40.579Z</time>
      </trkpt>
      <trkpt lat="45.4264" lon="5.45878">
        <ele>560</ele>
        <time>2021-10-02T13:59:39.578Z</time>
      </trkpt>
      <trkpt lat="45.42642" lon="5.45886">
        <ele>560</ele>
        <time>2021-10-02T13:59:38.579Z</time>
      </trkpt>
      <trkpt lat="45.42643" lon="5.45897">
        <ele>560</ele>
        <time>2021-10-02T13:59:37.579Z</time>
      </trkpt>
      <trkpt lat="45.42644" lon="5.45906">
        <ele>560</ele>
        <time>2021-10-02T13:59:36.579Z</time>
      </trkpt>
      <trkpt lat="45.42645" lon="5.45912">
        <ele>561</ele>
        <time>2021-10-02T13:59:35.578Z</time>
      </trkpt>
      <trkpt lat="45.42646" lon="5.45921">
        <ele>560</ele>
        <time>2021-10-02T13:59:34.578Z</time>
      </trkpt>
      <trkpt lat="45.42647" lon="5.45929">
        <ele>560</ele>
        <time>2021-10-02T13:59:33.579Z</time>
      </trkpt>
      <trkpt lat="45.42648" lon="5.45939">
        <ele>560</ele>
        <time>2021-10-02T13:59:32.579Z</time>
      </trkpt>
      <trkpt lat="45.42648" lon="5.45948">
        <ele>560</ele>
        <time>2021-10-02T13:59:31.579Z</time>
      </trkpt>
      <trkpt lat="45.42649" lon="5.45954">
        <ele>560</ele>
        <time>2021-10-02T13:59:30.579Z</time>
      </trkpt>
      <trkpt lat="45.4265" lon="5.45963">
        <ele>559</ele>
        <time>2021-10-02T13:59:29.579Z</time>
      </trkpt>
      <trkpt lat="45.4265" lon="5.45972">
        <ele>559</ele>
        <time>2021-10-02T13:59:28.579Z</time>
      </trkpt>
      <trkpt lat="45.42652" lon="5.45982">
        <ele>559</ele>
        <time>2021-10-02T13:59:27.579Z</time>
      </trkpt>
      <trkpt lat="45.42653" lon="5.45991">
        <ele>559</ele>
        <time>2021-10-02T13:59:26.579Z</time>
      </trkpt>
      <trkpt lat="45.42654" lon="5.45998">
        <ele>558</ele>
        <time>2021-10-02T13:59:25.578Z</time>
      </trkpt>
      <trkpt lat="45.42656" lon="5.46006">
        <ele>558</ele>
        <time>2021-10-02T13:59:24.579Z</time>
      </trkpt>
      <trkpt lat="45.42657" lon="5.46017">
        <ele>558</ele>
        <time>2021-10-02T13:59:23.579Z</time>
      </trkpt>
      <trkpt lat="45.42659" lon="5.46026">
        <ele>558</ele>
        <time>2021-10-02T13:59:22.579Z</time>
      </trkpt>
      <trkpt lat="45.4266" lon="5.46033">
        <ele>558</ele>
        <time>2021-10-02T13:59:21.579Z</time>
      </trkpt>
      <trkpt lat="45.4266" lon="5.46042">
        <ele>557</ele>
        <time>2021-10-02T13:59:20.578Z</time>
      </trkpt>
      <trkpt lat="45.42661" lon="5.4605">
        <ele>557</ele>
        <time>2021-10-02T13:59:19.579Z</time>
      </trkpt>
      <trkpt lat="45.42661" lon="5.46061">
        <ele>557</ele>
        <time>2021-10-02T13:59:18.579Z</time>
      </trkpt>
      <trkpt lat="45.42661" lon="5.46069">
        <ele>557</ele>
        <time>2021-10-02T13:59:17.578Z</time>
      </trkpt>
      <trkpt lat="45.42661" lon="5.46076">
        <ele>557</ele>
        <time>2021-10-02T13:59:16.578Z</time>
      </trkpt>
      <trkpt lat="45.42661" lon="5.46083">
        <ele>557</ele>
        <time>2021-10-02T13:59:15.579Z</time>
      </trkpt>
      <trkpt lat="45.4266" lon="5.46091">
        <ele>557</ele>
        <time>2021-10-02T13:59:14.579Z</time>
      </trkpt>
      <trkpt lat="45.4266" lon="5.461">
        <ele>558</ele>
        <time>2021-10-02T13:59:13.579Z</time>
      </trkpt>
      <trkpt lat="45.42659" lon="5.46108">
        <ele>558</ele>
        <time>2021-10-02T13:59:12.579Z</time>
      </trkpt>
      <trkpt lat="45.42659" lon="5.46115">
        <ele>557</ele>
        <time>2021-10-02T13:59:11.579Z</time>
      </trkpt>
      <trkpt lat="45.42659" lon="5.46124">
        <ele>557</ele>
        <time>2021-10-02T13:59:10.579Z</time>
      </trkpt>
      <trkpt lat="45.42659" lon="5.46132">
        <ele>558</ele>
        <time>2021-10-02T13:59:09.579Z</time>
      </trkpt>
      <trkpt lat="45.42659" lon="5.46142">
        <ele>558</ele>
        <time>2021-10-02T13:59:08.579Z</time>
      </trkpt>
      <trkpt lat="45.42658" lon="5.46151">
        <ele>559</ele>
        <time>2021-10-02T13:59:07.578Z</time>
      </trkpt>
      <trkpt lat="45.42658" lon="5.46157">
        <ele>559</ele>
        <time>2021-10-02T13:59:06.578Z</time>
      </trkpt>
      <trkpt lat="45.42657" lon="5.46166">
        <ele>560</ele>
        <time>2021-10-02T13:59:05.579Z</time>
      </trkpt>
      <trkpt lat="45.42656" lon="5.46176">
        <ele>560</ele>
        <time>2021-10-02T13:59:04.578Z</time>
      </trkpt>
      <trkpt lat="45.42655" lon="5.46185">
        <ele>560</ele>
        <time>2021-10-02T13:59:03.578Z</time>
      </trkpt>
      <trkpt lat="45.42654" lon="5.46193">
        <ele>560</ele>
        <time>2021-10-02T13:59:02.578Z</time>
      </trkpt>
      <trkpt lat="45.42653" lon="5.462">
        <ele>559</ele>
        <time>2021-10-02T13:59:01.579Z</time>
      </trkpt>
      <trkpt lat="45.42652" lon="5.46209">
        <ele>559</ele>
        <time>2021-10-02T13:59:00.578Z</time>
      </trkpt>
      <trkpt lat="45.4265" lon="5.4622">
        <ele>559</ele>
        <time>2021-10-02T13:58:59.578Z</time>
      </trkpt>
      <trkpt lat="45.42649" lon="5.46229">
        <ele>559</ele>
        <time>2021-10-02T13:58:58.579Z</time>
      </trkpt>
      <trkpt lat="45.42647" lon="5.46236">
        <ele>559</ele>
        <time>2021-10-02T13:58:57.578Z</time>
      </trkpt>
      <trkpt lat="45.42646" lon="5.46245">
        <ele>559</ele>
        <time>2021-10-02T13:58:56.579Z</time>
      </trkpt>
      <trkpt lat="45.42643" lon="5.46256">
        <ele>558</ele>
        <time>2021-10-02T13:58:55.579Z</time>
      </trkpt>
      <trkpt lat="45.42641" lon="5.46265">
        <ele>557</ele>
        <time>2021-10-02T13:58:54.579Z</time>
      </trkpt>
      <trkpt lat="45.42639" lon="5.46275">
        <ele>557</ele>
        <time>2021-10-02T13:58:53.579Z</time>
      </trkpt>
      <trkpt lat="45.42638" lon="5.46283">
        <ele>557</ele>
        <time>2021-10-02T13:58:52.579Z</time>
      </trkpt>
      <trkpt lat="45.42636" lon="5.46292">
        <ele>556</ele>
        <time>2021-10-02T13:58:51.579Z</time>
      </trkpt>
      <trkpt lat="45.42634" lon="5.46301">
        <ele>556</ele>
        <time>2021-10-02T13:58:50.578Z</time>
      </trkpt>
      <trkpt lat="45.42632" lon="5.46312">
        <ele>556</ele>
        <time>2021-10-02T13:58:49.578Z</time>
      </trkpt>
      <trkpt lat="45.4263" lon="5.46321">
        <ele>557</ele>
        <time>2021-10-02T13:58:48.578Z</time>
      </trkpt>
      <trkpt lat="45.42629" lon="5.46328">
        <ele>557</ele>
        <time>2021-10-02T13:58:47.579Z</time>
      </trkpt>
      <trkpt lat="45.42627" lon="5.46339">
        <ele>557</ele>
        <time>2021-10-02T13:58:46.578Z</time>
      </trkpt>
      <trkpt lat="45.42626" lon="5.46346">
        <ele>558</ele>
        <time>2021-10-02T13:58:45.579Z</time>
      </trkpt>
      <trkpt lat="45.42625" lon="5.46357">
        <ele>558</ele>
        <time>2021-10-02T13:58:44.579Z</time>
      </trkpt>
      <trkpt lat="45.42624" lon="5.46364">
        <ele>558</ele>
        <time>2021-10-02T13:58:43.578Z</time>
      </trkpt>
      <trkpt lat="45.42624" lon="5.46372">
        <ele>558</ele>
        <time>2021-10-02T13:58:42.579Z</time>
      </trkpt>
      <trkpt lat="45.42623" lon="5.4638">
        <ele>557</ele>
        <time>2021-10-02T13:58:41.579Z</time>
      </trkpt>
      <trkpt lat="45.42622" lon="5.4639">
        <ele>557</ele>
        <time>2021-10-02T13:58:40.578Z</time>
      </trkpt>
      <trkpt lat="45.42621" lon="5.46397">
        <ele>557</ele>
        <time>2021-10-02T13:58:39.579Z</time>
      </trkpt>
      <trkpt lat="45.4262" lon="5.46404">
        <ele>556</ele>
        <time>2021-10-02T13:58:38.579Z</time>
      </trkpt>
      <trkpt lat="45.42618" lon="5.4641">
        <ele>556</ele>
        <time>2021-10-02T13:58:37.579Z</time>
      </trkpt>
      <trkpt lat="45.42614" lon="5.46415">
        <ele>555</ele>
        <time>2021-10-02T13:58:36.579Z</time>
      </trkpt>
      <trkpt lat="45.42609" lon="5.46418">
        <ele>555</ele>
        <time>2021-10-02T13:58:35.579Z</time>
      </trkpt>
      <trkpt lat="45.42602" lon="5.4642">
        <ele>555</ele>
        <time>2021-10-02T13:58:34.579Z</time>
      </trkpt>
      <trkpt lat="45.42597" lon="5.4642">
        <ele>556</ele>
        <time>2021-10-02T13:58:33.579Z</time>
      </trkpt>
      <trkpt lat="45.4259" lon="5.4642">
        <ele>556</ele>
        <time>2021-10-02T13:58:32.578Z</time>
      </trkpt>
      <trkpt lat="45.42584" lon="5.4642">
        <ele>556</ele>
        <time>2021-10-02T13:58:31.579Z</time>
      </trkpt>
      <trkpt lat="45.42577" lon="5.46421">
        <ele>556</ele>
        <time>2021-10-02T13:58:30.579Z</time>
      </trkpt>
      <trkpt lat="45.4257" lon="5.46422">
        <ele>556</ele>
        <time>2021-10-02T13:58:29.579Z</time>
      </trkpt>
      <trkpt lat="45.42563" lon="5.46423">
        <ele>555</ele>
        <time>2021-10-02T13:58:28.579Z</time>
      </trkpt>
      <trkpt lat="45.42558" lon="5.46424">
        <ele>555</ele>
        <time>2021-10-02T13:58:27.578Z</time>
      </trkpt>
      <trkpt lat="45.4255" lon="5.46425">
        <ele>555</ele>
        <time>2021-10-02T13:58:26.579Z</time>
      </trkpt>
      <trkpt lat="45.42543" lon="5.46427">
        <ele>555</ele>
        <time>2021-10-02T13:58:25.579Z</time>
      </trkpt>
      <trkpt lat="45.42536" lon="5.46429">
        <ele>556</ele>
        <time>2021-10-02T13:58:24.579Z</time>
      </trkpt>
      <trkpt lat="45.42531" lon="5.46432">
        <ele>556</ele>
        <time>2021-10-02T13:58:23.579Z</time>
      </trkpt>
      <trkpt lat="45.42524" lon="5.46436">
        <ele>557</ele>
        <time>2021-10-02T13:58:22.579Z</time>
      </trkpt>
      <trkpt lat="45.42518" lon="5.46442">
        <ele>557</ele>
        <time>2021-10-02T13:58:21.579Z</time>
      </trkpt>
      <trkpt lat="45.42513" lon="5.4645">
        <ele>558</ele>
        <time>2021-10-02T13:58:20.578Z</time>
      </trkpt>
      <trkpt lat="45.42509" lon="5.46458">
        <ele>558</ele>
        <time>2021-10-02T13:58:19.578Z</time>
      </trkpt>
      <trkpt lat="45.42506" lon="5.46466">
        <ele>558</ele>
        <time>2021-10-02T13:58:18.578Z</time>
      </trkpt>
      <trkpt lat="45.42504" lon="5.46473">
        <ele>559</ele>
        <time>2021-10-02T13:58:17.579Z</time>
      </trkpt>
      <trkpt lat="45.42504" lon="5.46483">
        <ele>559</ele>
        <time>2021-10-02T13:58:16.579Z</time>
      </trkpt>
      <trkpt lat="45.42507" lon="5.46493">
        <ele>559</ele>
        <time>2021-10-02T13:58:15.579Z</time>
      </trkpt>
      <trkpt lat="45.4251" lon="5.46502">
        <ele>559</ele>
        <time>2021-10-02T13:58:14.579Z</time>
      </trkpt>
      <trkpt lat="45.42514" lon="5.46508">
        <ele>559</ele>
        <time>2021-10-02T13:58:13.578Z</time>
      </trkpt>
      <trkpt lat="45.42518" lon="5.46516">
        <ele>560</ele>
        <time>2021-10-02T13:58:12.579Z</time>
      </trkpt>
      <trkpt lat="45.42523" lon="5.46525">
        <ele>559</ele>
        <time>2021-10-02T13:58:11.578Z</time>
      </trkpt>
      <trkpt lat="45.42528" lon="5.46533">
        <ele>559</ele>
        <time>2021-10-02T13:58:10.578Z</time>
      </trkpt>
      <trkpt lat="45.42532" lon="5.46541">
        <ele>559</ele>
        <time>2021-10-02T13:58:09.579Z</time>
      </trkpt>
      <trkpt lat="45.42536" lon="5.4655">
        <ele>559</ele>
        <time>2021-10-02T13:58:08.579Z</time>
      </trkpt>
      <trkpt lat="45.42541" lon="5.46559">
        <ele>559</ele>
        <time>2021-10-02T13:58:07.579Z</time>
      </trkpt>
      <trkpt lat="45.42546" lon="5.46569">
        <ele>560</ele>
        <time>2021-10-02T13:58:06.578Z</time>
      </trkpt>
      <trkpt lat="45.4255" lon="5.46578">
        <ele>560</ele>
        <time>2021-10-02T13:58:05.578Z</time>
      </trkpt>
      <trkpt lat="45.42554" lon="5.46588">
        <ele>560</ele>
        <time>2021-10-02T13:58:04.579Z</time>
      </trkpt>
      <trkpt lat="45.42557" lon="5.46595">
        <ele>560</ele>
        <time>2021-10-02T13:58:03.579Z</time>
      </trkpt>
      <trkpt lat="45.42561" lon="5.46604">
        <ele>559</ele>
        <time>2021-10-02T13:58:02.579Z</time>
      </trkpt>
      <trkpt lat="45.42564" lon="5.46613">
        <ele>559</ele>
        <time>2021-10-02T13:58:01.579Z</time>
      </trkpt>
      <trkpt lat="45.42568" lon="5.46624">
        <ele>559</ele>
        <time>2021-10-02T13:58:00.579Z</time>
      </trkpt>
      <trkpt lat="45.42571" lon="5.46633">
        <ele>559</ele>
        <time>2021-10-02T13:57:59.579Z</time>
      </trkpt>
      <trkpt lat="45.42573" lon="5.4664">
        <ele>559</ele>
        <time>2021-10-02T13:57:58.579Z</time>
      </trkpt>
      <trkpt lat="45.42576" lon="5.46649">
        <ele>560</ele>
        <time>2021-10-02T13:57:57.579Z</time>
      </trkpt>
      <trkpt lat="45.42579" lon="5.4666">
        <ele>561</ele>
        <time>2021-10-02T13:57:56.579Z</time>
      </trkpt>
      <trkpt lat="45.42581" lon="5.46666">
        <ele>561</ele>
        <time>2021-10-02T13:57:55.579Z</time>
      </trkpt>
      <trkpt lat="45.42584" lon="5.46677">
        <ele>561</ele>
        <time>2021-10-02T13:57:54.578Z</time>
      </trkpt>
      <trkpt lat="45.42586" lon="5.46684">
        <ele>561</ele>
        <time>2021-10-02T13:57:53.579Z</time>
      </trkpt>
      <trkpt lat="45.42588" lon="5.46693">
        <ele>562</ele>
        <time>2021-10-02T13:57:52.578Z</time>
      </trkpt>
      <trkpt lat="45.42591" lon="5.46705">
        <ele>562</ele>
        <time>2021-10-02T13:57:51.579Z</time>
      </trkpt>
      <trkpt lat="45.42593" lon="5.46715">
        <ele>561</ele>
        <time>2021-10-02T13:57:50.578Z</time>
      </trkpt>
      <trkpt lat="45.42595" lon="5.46722">
        <ele>561</ele>
        <time>2021-10-02T13:57:49.579Z</time>
      </trkpt>
      <trkpt lat="45.42597" lon="5.46732">
        <ele>561</ele>
        <time>2021-10-02T13:57:48.578Z</time>
      </trkpt>
      <trkpt lat="45.42599" lon="5.46742">
        <ele>561</ele>
        <time>2021-10-02T13:57:47.579Z</time>
      </trkpt>
      <trkpt lat="45.42601" lon="5.46754">
        <ele>561</ele>
        <time>2021-10-02T13:57:46.578Z</time>
      </trkpt>
      <trkpt lat="45.42602" lon="5.46764">
        <ele>561</ele>
        <time>2021-10-02T13:57:45.579Z</time>
      </trkpt>
      <trkpt lat="45.42603" lon="5.46772">
        <ele>561</ele>
        <time>2021-10-02T13:57:44.579Z</time>
      </trkpt>
      <trkpt lat="45.42605" lon="5.46782">
        <ele>562</ele>
        <time>2021-10-02T13:57:43.579Z</time>
      </trkpt>
      <trkpt lat="45.42606" lon="5.46792">
        <ele>563</ele>
        <time>2021-10-02T13:57:42.578Z</time>
      </trkpt>
      <trkpt lat="45.42608" lon="5.46803">
        <ele>563</ele>
        <time>2021-10-02T13:57:41.579Z</time>
      </trkpt>
      <trkpt lat="45.42608" lon="5.46811">
        <ele>564</ele>
        <time>2021-10-02T13:57:40.578Z</time>
      </trkpt>
      <trkpt lat="45.4261" lon="5.46823">
        <ele>564</ele>
        <time>2021-10-02T13:57:39.579Z</time>
      </trkpt>
      <trkpt lat="45.42611" lon="5.46831">
        <ele>564</ele>
        <time>2021-10-02T13:57:38.579Z</time>
      </trkpt>
      <trkpt lat="45.42612" lon="5.4684">
        <ele>565</ele>
        <time>2021-10-02T13:57:37.579Z</time>
      </trkpt>
      <trkpt lat="45.42613" lon="5.46852">
        <ele>565</ele>
        <time>2021-10-02T13:57:36.578Z</time>
      </trkpt>
      <trkpt lat="45.42614" lon="5.4686">
        <ele>565</ele>
        <time>2021-10-02T13:57:35.579Z</time>
      </trkpt>
      <trkpt lat="45.42616" lon="5.46869">
        <ele>565</ele>
        <time>2021-10-02T13:57:34.579Z</time>
      </trkpt>
      <trkpt lat="45.42617" lon="5.46879">
        <ele>565</ele>
        <time>2021-10-02T13:57:33.579Z</time>
      </trkpt>
      <trkpt lat="45.42618" lon="5.46888">
        <ele>564</ele>
        <time>2021-10-02T13:57:32.579Z</time>
      </trkpt>
      <trkpt lat="45.4262" lon="5.46899">
        <ele>564</ele>
        <time>2021-10-02T13:57:31.579Z</time>
      </trkpt>
      <trkpt lat="45.42621" lon="5.46909">
        <ele>564</ele>
        <time>2021-10-02T13:57:30.579Z</time>
      </trkpt>
      <trkpt lat="45.42622" lon="5.46916">
        <ele>564</ele>
        <time>2021-10-02T13:57:29.579Z</time>
      </trkpt>
      <trkpt lat="45.42623" lon="5.46925">
        <ele>565</ele>
        <time>2021-10-02T13:57:28.579Z</time>
      </trkpt>
      <trkpt lat="45.42624" lon="5.46934">
        <ele>565</ele>
        <time>2021-10-02T13:57:27.578Z</time>
      </trkpt>
      <trkpt lat="45.42626" lon="5.46944">
        <ele>565</ele>
        <time>2021-10-02T13:57:26.579Z</time>
      </trkpt>
      <trkpt lat="45.42627" lon="5.46953">
        <ele>565</ele>
        <time>2021-10-02T13:57:25.579Z</time>
      </trkpt>
      <trkpt lat="45.42628" lon="5.46959">
        <ele>565</ele>
        <time>2021-10-02T13:57:24.578Z</time>
      </trkpt>
      <trkpt lat="45.42629" lon="5.46967">
        <ele>565</ele>
        <time>2021-10-02T13:57:23.579Z</time>
      </trkpt>
      <trkpt lat="45.4263" lon="5.46976">
        <ele>564</ele>
        <time>2021-10-02T13:57:22.578Z</time>
      </trkpt>
      <trkpt lat="45.42631" lon="5.46984">
        <ele>564</ele>
        <time>2021-10-02T13:57:21.579Z</time>
      </trkpt>
      <trkpt lat="45.42631" lon="5.46992">
        <ele>564</ele>
        <time>2021-10-02T13:57:20.578Z</time>
      </trkpt>
      <trkpt lat="45.42632" lon="5.46998">
        <ele>564</ele>
        <time>2021-10-02T13:57:19.579Z</time>
      </trkpt>
      <trkpt lat="45.42633" lon="5.47007">
        <ele>564</ele>
        <time>2021-10-02T13:57:18.578Z</time>
      </trkpt>
      <trkpt lat="45.42634" lon="5.47014">
        <ele>564</ele>
        <time>2021-10-02T13:57:17.579Z</time>
      </trkpt>
      <trkpt lat="45.42635" lon="5.47021">
        <ele>564</ele>
        <time>2021-10-02T13:57:16.578Z</time>
      </trkpt>
      <trkpt lat="45.42636" lon="5.47028">
        <ele>563</ele>
        <time>2021-10-02T13:57:15.578Z</time>
      </trkpt>
      <trkpt lat="45.42636" lon="5.47034">
        <ele>563</ele>
        <time>2021-10-02T13:57:14.578Z</time>
      </trkpt>
      <trkpt lat="45.42637" lon="5.47041">
        <ele>562</ele>
        <time>2021-10-02T13:57:13.578Z</time>
      </trkpt>
      <trkpt lat="45.42638" lon="5.47049">
        <ele>562</ele>
        <time>2021-10-02T13:57:12.579Z</time>
      </trkpt>
      <trkpt lat="45.42639" lon="5.47056">
        <ele>562</ele>
        <time>2021-10-02T13:57:11.579Z</time>
      </trkpt>
      <trkpt lat="45.4264" lon="5.47063">
        <ele>561</ele>
        <time>2021-10-02T13:57:10.579Z</time>
      </trkpt>
      <trkpt lat="45.4264" lon="5.47069">
        <ele>561</ele>
        <time>2021-10-02T13:57:09.579Z</time>
      </trkpt>
      <trkpt lat="45.42641" lon="5.47074">
        <ele>561</ele>
        <time>2021-10-02T13:57:08.579Z</time>
      </trkpt>
      <trkpt lat="45.42642" lon="5.47082">
        <ele>561</ele>
        <time>2021-10-02T13:57:07.579Z</time>
      </trkpt>
      <trkpt lat="45.42644" lon="5.47089">
        <ele>561</ele>
        <time>2021-10-02T13:57:06.578Z</time>
      </trkpt>
      <trkpt lat="45.42645" lon="5.47096">
        <ele>561</ele>
        <time>2021-10-02T13:57:05.578Z</time>
      </trkpt>
      <trkpt lat="45.42646" lon="5.47101">
        <ele>561</ele>
        <time>2021-10-02T13:57:04.578Z</time>
      </trkpt>
      <trkpt lat="45.42647" lon="5.47108">
        <ele>560</ele>
        <time>2021-10-02T13:57:03.579Z</time>
      </trkpt>
      <trkpt lat="45.42648" lon="5.47115">
        <ele>560</ele>
        <time>2021-10-02T13:57:02.578Z</time>
      </trkpt>
      <trkpt lat="45.4265" lon="5.47123">
        <ele>560</ele>
        <time>2021-10-02T13:57:01.579Z</time>
      </trkpt>
      <trkpt lat="45.42651" lon="5.47131">
        <ele>561</ele>
        <time>2021-10-02T13:57:00.578Z</time>
      </trkpt>
      <trkpt lat="45.42651" lon="5.47137">
        <ele>561</ele>
        <time>2021-10-02T13:56:59.578Z</time>
      </trkpt>
      <trkpt lat="45.42652" lon="5.47145">
        <ele>562</ele>
        <time>2021-10-02T13:56:58.578Z</time>
      </trkpt>
      <trkpt lat="45.42653" lon="5.47154">
        <ele>562</ele>
        <time>2021-10-02T13:56:57.579Z</time>
      </trkpt>
      <trkpt lat="45.42654" lon="5.47161">
        <ele>562</ele>
        <time>2021-10-02T13:56:56.578Z</time>
      </trkpt>
      <trkpt lat="45.42654" lon="5.47169">
        <ele>562</ele>
        <time>2021-10-02T13:56:55.578Z</time>
      </trkpt>
      <trkpt lat="45.42655" lon="5.47175">
        <ele>561</ele>
        <time>2021-10-02T13:56:54.579Z</time>
      </trkpt>
      <trkpt lat="45.42656" lon="5.47183">
        <ele>561</ele>
        <time>2021-10-02T13:56:53.578Z</time>
      </trkpt>
      <trkpt lat="45.42656" lon="5.47191">
        <ele>560</ele>
        <time>2021-10-02T13:56:52.578Z</time>
      </trkpt>
      <trkpt lat="45.42657" lon="5.47202">
        <ele>560</ele>
        <time>2021-10-02T13:56:51.579Z</time>
      </trkpt>
      <trkpt lat="45.42658" lon="5.47209">
        <ele>559</ele>
        <time>2021-10-02T13:56:50.578Z</time>
      </trkpt>
      <trkpt lat="45.42658" lon="5.47219">
        <ele>558</ele>
        <time>2021-10-02T13:56:49.578Z</time>
      </trkpt>
      <trkpt lat="45.42659" lon="5.47229">
        <ele>558</ele>
        <time>2021-10-02T13:56:48.578Z</time>
      </trkpt>
      <trkpt lat="45.4266" lon="5.47239">
        <ele>557</ele>
        <time>2021-10-02T13:56:47.579Z</time>
      </trkpt>
      <trkpt lat="45.42661" lon="5.4725">
        <ele>556</ele>
        <time>2021-10-02T13:56:46.578Z</time>
      </trkpt>
      <trkpt lat="45.42661" lon="5.4726">
        <ele>556</ele>
        <time>2021-10-02T13:56:45.579Z</time>
      </trkpt>
      <trkpt lat="45.42662" lon="5.47267">
        <ele>557</ele>
        <time>2021-10-02T13:56:44.578Z</time>
      </trkpt>
      <trkpt lat="45.42662" lon="5.47277">
        <ele>557</ele>
        <time>2021-10-02T13:56:43.579Z</time>
      </trkpt>
      <trkpt lat="45.42662" lon="5.47286">
        <ele>558</ele>
        <time>2021-10-02T13:56:42.579Z</time>
      </trkpt>
      <trkpt lat="45.42663" lon="5.47298">
        <ele>558</ele>
        <time>2021-10-02T13:56:41.579Z</time>
      </trkpt>
      <trkpt lat="45.42663" lon="5.47307">
        <ele>558</ele>
        <time>2021-10-02T13:56:40.578Z</time>
      </trkpt>
      <trkpt lat="45.42664" lon="5.47315">
        <ele>558</ele>
        <time>2021-10-02T13:56:39.579Z</time>
      </trkpt>
      <trkpt lat="45.42665" lon="5.47324">
        <ele>558</ele>
        <time>2021-10-02T13:56:38.579Z</time>
      </trkpt>
      <trkpt lat="45.42666" lon="5.47334">
        <ele>557</ele>
        <time>2021-10-02T13:56:37.579Z</time>
      </trkpt>
      <trkpt lat="45.42667" lon="5.47345">
        <ele>557</ele>
        <time>2021-10-02T13:56:36.579Z</time>
      </trkpt>
      <trkpt lat="45.42667" lon="5.47352">
        <ele>557</ele>
        <time>2021-10-02T13:56:35.579Z</time>
      </trkpt>
      <trkpt lat="45.42668" lon="5.47361">
        <ele>556</ele>
        <time>2021-10-02T13:56:34.578Z</time>
      </trkpt>
      <trkpt lat="45.42669" lon="5.4737">
        <ele>556</ele>
        <time>2021-10-02T13:56:33.578Z</time>
      </trkpt>
      <trkpt lat="45.4267" lon="5.47379">
        <ele>556</ele>
        <time>2021-10-02T13:56:32.579Z</time>
      </trkpt>
      <trkpt lat="45.42671" lon="5.4739">
        <ele>556</ele>
        <time>2021-10-02T13:56:31.579Z</time>
      </trkpt>
      <trkpt lat="45.42672" lon="5.47396">
        <ele>555</ele>
        <time>2021-10-02T13:56:30.579Z</time>
      </trkpt>
      <trkpt lat="45.42673" lon="5.47405">
        <ele>555</ele>
        <time>2021-10-02T13:56:29.578Z</time>
      </trkpt>
      <trkpt lat="45.42673" lon="5.47413">
        <ele>555</ele>
        <time>2021-10-02T13:56:28.578Z</time>
      </trkpt>
      <trkpt lat="45.42675" lon="5.47423">
        <ele>555</ele>
        <time>2021-10-02T13:56:27.579Z</time>
      </trkpt>
      <trkpt lat="45.42675" lon="5.4743">
        <ele>555</ele>
        <time>2021-10-02T13:56:26.578Z</time>
      </trkpt>
      <trkpt lat="45.42676" lon="5.47438">
        <ele>555</ele>
        <time>2021-10-02T13:56:25.579Z</time>
      </trkpt>
      <trkpt lat="45.42677" lon="5.47446">
        <ele>555</ele>
        <time>2021-10-02T13:56:24.578Z</time>
      </trkpt>
      <trkpt lat="45.42678" lon="5.47455">
        <ele>555</ele>
        <time>2021-10-02T13:56:23.579Z</time>
      </trkpt>
      <trkpt lat="45.42679" lon="5.47465">
        <ele>554</ele>
        <time>2021-10-02T13:56:22.578Z</time>
      </trkpt>
      <trkpt lat="45.4268" lon="5.47473">
        <ele>554</ele>
        <time>2021-10-02T13:56:21.579Z</time>
      </trkpt>
      <trkpt lat="45.42681" lon="5.4748">
        <ele>554</ele>
        <time>2021-10-02T13:56:20.579Z</time>
      </trkpt>
      <trkpt lat="45.42681" lon="5.47488">
        <ele>554</ele>
        <time>2021-10-02T13:56:19.579Z</time>
      </trkpt>
      <trkpt lat="45.42682" lon="5.47497">
        <ele>553</ele>
        <time>2021-10-02T13:56:18.578Z</time>
      </trkpt>
      <trkpt lat="45.42683" lon="5.47505">
        <ele>554</ele>
        <time>2021-10-02T13:56:17.579Z</time>
      </trkpt>
      <trkpt lat="45.42684" lon="5.47513">
        <ele>554</ele>
        <time>2021-10-02T13:56:16.579Z</time>
      </trkpt>
      <trkpt lat="45.42685" lon="5.47522">
        <ele>554</ele>
        <time>2021-10-02T13:56:15.579Z</time>
      </trkpt>
      <trkpt lat="45.42686" lon="5.4753">
        <ele>554</ele>
        <time>2021-10-02T13:56:14.579Z</time>
      </trkpt>
      <trkpt lat="45.42687" lon="5.47539">
        <ele>554</ele>
        <time>2021-10-02T13:56:13.579Z</time>
      </trkpt>
      <trkpt lat="45.42688" lon="5.4755">
        <ele>554</ele>
        <time>2021-10-02T13:56:12.579Z</time>
      </trkpt>
      <trkpt lat="45.42689" lon="5.47558">
        <ele>554</ele>
        <time>2021-10-02T13:56:11.578Z</time>
      </trkpt>
      <trkpt lat="45.4269" lon="5.47565">
        <ele>553</ele>
        <time>2021-10-02T13:56:10.579Z</time>
      </trkpt>
      <trkpt lat="45.42691" lon="5.47574">
        <ele>553</ele>
        <time>2021-10-02T13:56:09.579Z</time>
      </trkpt>
      <trkpt lat="45.42692" lon="5.47582">
        <ele>552</ele>
        <time>2021-10-02T13:56:08.579Z</time>
      </trkpt>
      <trkpt lat="45.42693" lon="5.47591">
        <ele>552</ele>
        <time>2021-10-02T13:56:07.578Z</time>
      </trkpt>
      <trkpt lat="45.42694" lon="5.47599">
        <ele>552</ele>
        <time>2021-10-02T13:56:06.579Z</time>
      </trkpt>
      <trkpt lat="45.42696" lon="5.47609">
        <ele>552</ele>
        <time>2021-10-02T13:56:05.579Z</time>
      </trkpt>
      <trkpt lat="45.42697" lon="5.47615">
        <ele>552</ele>
        <time>2021-10-02T13:56:04.578Z</time>
      </trkpt>
      <trkpt lat="45.42699" lon="5.47624">
        <ele>552</ele>
        <time>2021-10-02T13:56:03.579Z</time>
      </trkpt>
      <trkpt lat="45.42701" lon="5.47632">
        <ele>552</ele>
        <time>2021-10-02T13:56:02.579Z</time>
      </trkpt>
      <trkpt lat="45.42703" lon="5.4764">
        <ele>552</ele>
        <time>2021-10-02T13:56:01.579Z</time>
      </trkpt>
      <trkpt lat="45.42705" lon="5.47648">
        <ele>552</ele>
        <time>2021-10-02T13:56:00.579Z</time>
      </trkpt>
      <trkpt lat="45.42707" lon="5.47657">
        <ele>552</ele>
        <time>2021-10-02T13:55:59.579Z</time>
      </trkpt>
      <trkpt lat="45.42709" lon="5.47665">
        <ele>552</ele>
        <time>2021-10-02T13:55:58.578Z</time>
      </trkpt>
      <trkpt lat="45.42709" lon="5.47672">
        <ele>552</ele>
        <time>2021-10-02T13:55:57.579Z</time>
      </trkpt>
      <trkpt lat="45.42708" lon="5.47681">
        <ele>552</ele>
        <time>2021-10-02T13:55:56.579Z</time>
      </trkpt>
      <trkpt lat="45.42706" lon="5.47687">
        <ele>552</ele>
        <time>2021-10-02T13:55:55.578Z</time>
      </trkpt>
      <trkpt lat="45.42704" lon="5.47692">
        <ele>552</ele>
        <time>2021-10-02T13:55:54.579Z</time>
      </trkpt>
      <trkpt lat="45.42701" lon="5.47696">
        <ele>552</ele>
        <time>2021-10-02T13:55:53.579Z</time>
      </trkpt>
      <trkpt lat="45.42698" lon="5.477">
        <ele>553</ele>
        <time>2021-10-02T13:55:52.579Z</time>
      </trkpt>
      <trkpt lat="45.42694" lon="5.47704">
        <ele>554</ele>
        <time>2021-10-02T13:55:51.578Z</time>
      </trkpt>
      <trkpt lat="45.4269" lon="5.47708">
        <ele>554</ele>
        <time>2021-10-02T13:55:50.579Z</time>
      </trkpt>
      <trkpt lat="45.42687" lon="5.47713">
        <ele>556</ele>
        <time>2021-10-02T13:55:49.578Z</time>
      </trkpt>
      <trkpt lat="45.42683" lon="5.4772">
        <ele>556</ele>
        <time>2021-10-02T13:55:48.579Z</time>
      </trkpt>
      <trkpt lat="45.42679" lon="5.47727">
        <ele>557</ele>
        <time>2021-10-02T13:55:47.578Z</time>
      </trkpt>
      <trkpt lat="45.42675" lon="5.47736">
        <ele>558</ele>
        <time>2021-10-02T13:55:46.579Z</time>
      </trkpt>
      <trkpt lat="45.42673" lon="5.47746">
        <ele>558</ele>
        <time>2021-10-02T13:55:45.579Z</time>
      </trkpt>
      <trkpt lat="45.42671" lon="5.47756">
        <ele>559</ele>
        <time>2021-10-02T13:55:44.578Z</time>
      </trkpt>
      <trkpt lat="45.4267" lon="5.47768">
        <ele>560</ele>
        <time>2021-10-02T13:55:43.579Z</time>
      </trkpt>
      <trkpt lat="45.42669" lon="5.4778">
        <ele>560</ele>
        <time>2021-10-02T13:55:42.579Z</time>
      </trkpt>
      <trkpt lat="45.42668" lon="5.47795">
        <ele>560</ele>
        <time>2021-10-02T13:55:41.579Z</time>
      </trkpt>
      <trkpt lat="45.42667" lon="5.47805">
        <ele>561</ele>
        <time>2021-10-02T13:55:40.579Z</time>
      </trkpt>
      <trkpt lat="45.42665" lon="5.47821">
        <ele>562</ele>
        <time>2021-10-02T13:55:39.579Z</time>
      </trkpt>
      <trkpt lat="45.42662" lon="5.47834">
        <ele>563</ele>
        <time>2021-10-02T13:55:38.579Z</time>
      </trkpt>
      <trkpt lat="45.42658" lon="5.47847">
        <ele>564</ele>
        <time>2021-10-02T13:55:37.579Z</time>
      </trkpt>
      <trkpt lat="45.42653" lon="5.4786">
        <ele>565</ele>
        <time>2021-10-02T13:55:36.579Z</time>
      </trkpt>
      <trkpt lat="45.4265" lon="5.47871">
        <ele>566</ele>
        <time>2021-10-02T13:55:35.578Z</time>
      </trkpt>
      <trkpt lat="45.42645" lon="5.47884">
        <ele>567</ele>
        <time>2021-10-02T13:55:34.579Z</time>
      </trkpt>
      <trkpt lat="45.42641" lon="5.47901">
        <ele>568</ele>
        <time>2021-10-02T13:55:33.579Z</time>
      </trkpt>
      <trkpt lat="45.42639" lon="5.47915">
        <ele>569</ele>
        <time>2021-10-02T13:55:32.579Z</time>
      </trkpt>
      <trkpt lat="45.42639" lon="5.47927">
        <ele>571</ele>
        <time>2021-10-02T13:55:31.579Z</time>
      </trkpt>
      <trkpt lat="45.42639" lon="5.4794">
        <ele>571</ele>
        <time>2021-10-02T13:55:30.578Z</time>
      </trkpt>
      <trkpt lat="45.42642" lon="5.47954">
        <ele>572</ele>
        <time>2021-10-02T13:55:29.579Z</time>
      </trkpt>
      <trkpt lat="45.42644" lon="5.47967">
        <ele>572</ele>
        <time>2021-10-02T13:55:28.579Z</time>
      </trkpt>
      <trkpt lat="45.42645" lon="5.47979">
        <ele>572</ele>
        <time>2021-10-02T13:55:27.579Z</time>
      </trkpt>
      <trkpt lat="45.42646" lon="5.47992">
        <ele>572</ele>
        <time>2021-10-02T13:55:26.578Z</time>
      </trkpt>
      <trkpt lat="45.42647" lon="5.48004">
        <ele>572</ele>
        <time>2021-10-02T13:55:25.578Z</time>
      </trkpt>
      <trkpt lat="45.42646" lon="5.48015">
        <ele>572</ele>
        <time>2021-10-02T13:55:24.579Z</time>
      </trkpt>
      <trkpt lat="45.42645" lon="5.48027">
        <ele>571</ele>
        <time>2021-10-02T13:55:23.579Z</time>
      </trkpt>
      <trkpt lat="45.42643" lon="5.48038">
        <ele>572</ele>
        <time>2021-10-02T13:55:22.578Z</time>
      </trkpt>
      <trkpt lat="45.42641" lon="5.4805">
        <ele>572</ele>
        <time>2021-10-02T13:55:21.579Z</time>
      </trkpt>
      <trkpt lat="45.42638" lon="5.48061">
        <ele>573</ele>
        <time>2021-10-02T13:55:20.578Z</time>
      </trkpt>
      <trkpt lat="45.42635" lon="5.48072">
        <ele>573</ele>
        <time>2021-10-02T13:55:19.578Z</time>
      </trkpt>
      <trkpt lat="45.42633" lon="5.48083">
        <ele>574</ele>
        <time>2021-10-02T13:55:18.578Z</time>
      </trkpt>
      <trkpt lat="45.4263" lon="5.48095">
        <ele>574</ele>
        <time>2021-10-02T13:55:17.579Z</time>
      </trkpt>
      <trkpt lat="45.42628" lon="5.48106">
        <ele>574</ele>
        <time>2021-10-02T13:55:16.579Z</time>
      </trkpt>
      <trkpt lat="45.42626" lon="5.48117">
        <ele>574</ele>
        <time>2021-10-02T13:55:15.579Z</time>
      </trkpt>
      <trkpt lat="45.42623" lon="5.48129">
        <ele>575</ele>
        <time>2021-10-02T13:55:14.579Z</time>
      </trkpt>
      <trkpt lat="45.42622" lon="5.48141">
        <ele>575</ele>
        <time>2021-10-02T13:55:13.579Z</time>
      </trkpt>
      <trkpt lat="45.42621" lon="5.48153">
        <ele>576</ele>
        <time>2021-10-02T13:55:12.579Z</time>
      </trkpt>
      <trkpt lat="45.4262" lon="5.48164">
        <ele>576</ele>
        <time>2021-10-02T13:55:11.579Z</time>
      </trkpt>
      <trkpt lat="45.42618" lon="5.48179">
        <ele>575</ele>
        <time>2021-10-02T13:55:10.578Z</time>
      </trkpt>
      <trkpt lat="45.42617" lon="5.48191">
        <ele>575</ele>
        <time>2021-10-02T13:55:09.579Z</time>
      </trkpt>
      <trkpt lat="45.42615" lon="5.48202">
        <ele>574</ele>
        <time>2021-10-02T13:55:08.579Z</time>
      </trkpt>
      <trkpt lat="45.42614" lon="5.48211">
        <ele>574</ele>
        <time>2021-10-02T13:55:07.579Z</time>
      </trkpt>
      <trkpt lat="45.4261" lon="5.48225">
        <ele>573</ele>
        <time>2021-10-02T13:55:06.579Z</time>
      </trkpt>
      <trkpt lat="45.42607" lon="5.48233">
        <ele>573</ele>
        <time>2021-10-02T13:55:05.578Z</time>
      </trkpt>
      <trkpt lat="45.42602" lon="5.48244">
        <ele>573</ele>
        <time>2021-10-02T13:55:04.578Z</time>
      </trkpt>
      <trkpt lat="45.42598" lon="5.48254">
        <ele>573</ele>
        <time>2021-10-02T13:55:03.579Z</time>
      </trkpt>
      <trkpt lat="45.42593" lon="5.48264">
        <ele>573</ele>
        <time>2021-10-02T13:55:02.579Z</time>
      </trkpt>
      <trkpt lat="45.42588" lon="5.48274">
        <ele>573</ele>
        <time>2021-10-02T13:55:01.579Z</time>
      </trkpt>
      <trkpt lat="45.42584" lon="5.48283">
        <ele>573</ele>
        <time>2021-10-02T13:55:00.579Z</time>
      </trkpt>
      <trkpt lat="45.4258" lon="5.48293">
        <ele>573</ele>
        <time>2021-10-02T13:54:59.579Z</time>
      </trkpt>
      <trkpt lat="45.42576" lon="5.48303">
        <ele>573</ele>
        <time>2021-10-02T13:54:58.578Z</time>
      </trkpt>
      <trkpt lat="45.42572" lon="5.48314">
        <ele>573</ele>
        <time>2021-10-02T13:54:57.579Z</time>
      </trkpt>
      <trkpt lat="45.42568" lon="5.48324">
        <ele>573</ele>
        <time>2021-10-02T13:54:56.578Z</time>
      </trkpt>
      <trkpt lat="45.42565" lon="5.48334">
        <ele>573</ele>
        <time>2021-10-02T13:54:55.579Z</time>
      </trkpt>
      <trkpt lat="45.42561" lon="5.48344">
        <ele>573</ele>
        <time>2021-10-02T13:54:54.579Z</time>
      </trkpt>
      <trkpt lat="45.42557" lon="5.48354">
        <ele>573</ele>
        <time>2021-10-02T13:54:53.579Z</time>
      </trkpt>
      <trkpt lat="45.42552" lon="5.48364">
        <ele>573</ele>
        <time>2021-10-02T13:54:52.578Z</time>
      </trkpt>
      <trkpt lat="45.42548" lon="5.48374">
        <ele>573</ele>
        <time>2021-10-02T13:54:51.579Z</time>
      </trkpt>
      <trkpt lat="45.42543" lon="5.48384">
        <ele>573</ele>
        <time>2021-10-02T13:54:50.579Z</time>
      </trkpt>
      <trkpt lat="45.42539" lon="5.48394">
        <ele>573</ele>
        <time>2021-10-02T13:54:49.579Z</time>
      </trkpt>
      <trkpt lat="45.42534" lon="5.48403">
        <ele>573</ele>
        <time>2021-10-02T13:54:48.579Z</time>
      </trkpt>
      <trkpt lat="45.42529" lon="5.48412">
        <ele>573</ele>
        <time>2021-10-02T13:54:47.579Z</time>
      </trkpt>
      <trkpt lat="45.42523" lon="5.48422">
        <ele>574</ele>
        <time>2021-10-02T13:54:46.579Z</time>
      </trkpt>
      <trkpt lat="45.42518" lon="5.48431">
        <ele>574</ele>
        <time>2021-10-02T13:54:45.578Z</time>
      </trkpt>
      <trkpt lat="45.42512" lon="5.48439">
        <ele>574</ele>
        <time>2021-10-02T13:54:44.579Z</time>
      </trkpt>
      <trkpt lat="45.42507" lon="5.48445">
        <ele>574</ele>
        <time>2021-10-02T13:54:43.579Z</time>
      </trkpt>
      <trkpt lat="45.425" lon="5.48453">
        <ele>574</ele>
        <time>2021-10-02T13:54:42.578Z</time>
      </trkpt>
      <trkpt lat="45.42495" lon="5.48459">
        <ele>574</ele>
        <time>2021-10-02T13:54:41.579Z</time>
      </trkpt>
      <trkpt lat="45.42489" lon="5.48466">
        <ele>574</ele>
        <time>2021-10-02T13:54:40.579Z</time>
      </trkpt>
      <trkpt lat="45.42484" lon="5.48475">
        <ele>575</ele>
        <time>2021-10-02T13:54:39.578Z</time>
      </trkpt>
      <trkpt lat="45.4248" lon="5.48484">
        <ele>575</ele>
        <time>2021-10-02T13:54:38.579Z</time>
      </trkpt>
      <trkpt lat="45.42478" lon="5.48495">
        <ele>576</ele>
        <time>2021-10-02T13:54:37.579Z</time>
      </trkpt>
      <trkpt lat="45.42476" lon="5.48506">
        <ele>576</ele>
        <time>2021-10-02T13:54:36.579Z</time>
      </trkpt>
      <trkpt lat="45.42475" lon="5.48518">
        <ele>577</ele>
        <time>2021-10-02T13:54:35.579Z</time>
      </trkpt>
      <trkpt lat="45.42474" lon="5.4853">
        <ele>577</ele>
        <time>2021-10-02T13:54:34.579Z</time>
      </trkpt>
      <trkpt lat="45.42472" lon="5.48543">
        <ele>577</ele>
        <time>2021-10-02T13:54:33.579Z</time>
      </trkpt>
      <trkpt lat="45.42471" lon="5.48555">
        <ele>577</ele>
        <time>2021-10-02T13:54:32.579Z</time>
      </trkpt>
      <trkpt lat="45.42469" lon="5.48568">
        <ele>576</ele>
        <time>2021-10-02T13:54:31.578Z</time>
      </trkpt>
      <trkpt lat="45.42467" lon="5.4858">
        <ele>576</ele>
        <time>2021-10-02T13:54:30.579Z</time>
      </trkpt>
      <trkpt lat="45.42465" lon="5.48593">
        <ele>576</ele>
        <time>2021-10-02T13:54:29.579Z</time>
      </trkpt>
      <trkpt lat="45.42463" lon="5.48606">
        <ele>576</ele>
        <time>2021-10-02T13:54:28.579Z</time>
      </trkpt>
      <trkpt lat="45.42461" lon="5.48617">
        <ele>576</ele>
        <time>2021-10-02T13:54:27.579Z</time>
      </trkpt>
      <trkpt lat="45.42459" lon="5.48629">
        <ele>576</ele>
        <time>2021-10-02T13:54:26.578Z</time>
      </trkpt>
      <trkpt lat="45.42457" lon="5.48641">
        <ele>576</ele>
        <time>2021-10-02T13:54:25.579Z</time>
      </trkpt>
      <trkpt lat="45.42456" lon="5.48653">
        <ele>576</ele>
        <time>2021-10-02T13:54:24.579Z</time>
      </trkpt>
      <trkpt lat="45.42455" lon="5.48666">
        <ele>577</ele>
        <time>2021-10-02T13:54:23.579Z</time>
      </trkpt>
      <trkpt lat="45.42454" lon="5.48678">
        <ele>577</ele>
        <time>2021-10-02T13:54:22.579Z</time>
      </trkpt>
      <trkpt lat="45.42453" lon="5.48691">
        <ele>578</ele>
        <time>2021-10-02T13:54:21.579Z</time>
      </trkpt>
      <trkpt lat="45.42451" lon="5.48703">
        <ele>578</ele>
        <time>2021-10-02T13:54:20.579Z</time>
      </trkpt>
      <trkpt lat="45.42448" lon="5.48714">
        <ele>578</ele>
        <time>2021-10-02T13:54:19.578Z</time>
      </trkpt>
      <trkpt lat="45.42445" lon="5.48725">
        <ele>579</ele>
        <time>2021-10-02T13:54:18.579Z</time>
      </trkpt>
      <trkpt lat="45.42441" lon="5.48736">
        <ele>580</ele>
        <time>2021-10-02T13:54:17.579Z</time>
      </trkpt>
      <trkpt lat="45.42438" lon="5.48747">
        <ele>581</ele>
        <time>2021-10-02T13:54:16.578Z</time>
      </trkpt>
      <trkpt lat="45.42435" lon="5.48759">
        <ele>581</ele>
        <time>2021-10-02T13:54:15.578Z</time>
      </trkpt>
      <trkpt lat="45.42431" lon="5.4877">
        <ele>582</ele>
        <time>2021-10-02T13:54:14.579Z</time>
      </trkpt>
      <trkpt lat="45.42428" lon="5.48781">
        <ele>582</ele>
        <time>2021-10-02T13:54:13.579Z</time>
      </trkpt>
      <trkpt lat="45.42425" lon="5.48795">
        <ele>583</ele>
        <time>2021-10-02T13:54:12.579Z</time>
      </trkpt>
      <trkpt lat="45.42422" lon="5.48804">
        <ele>583</ele>
        <time>2021-10-02T13:54:11.579Z</time>
      </trkpt>
      <trkpt lat="45.4242" lon="5.48816">
        <ele>583</ele>
        <time>2021-10-02T13:54:10.579Z</time>
      </trkpt>
      <trkpt lat="45.42418" lon="5.48828">
        <ele>583</ele>
        <time>2021-10-02T13:54:09.579Z</time>
      </trkpt>
      <trkpt lat="45.42417" lon="5.48841">
        <ele>583</ele>
        <time>2021-10-02T13:54:08.579Z</time>
      </trkpt>
      <trkpt lat="45.42416" lon="5.48853">
        <ele>583</ele>
        <time>2021-10-02T13:54:07.578Z</time>
      </trkpt>
      <trkpt lat="45.42415" lon="5.48865">
        <ele>583</ele>
        <time>2021-10-02T13:54:06.579Z</time>
      </trkpt>
      <trkpt lat="45.42414" lon="5.48877">
        <ele>583</ele>
        <time>2021-10-02T13:54:05.578Z</time>
      </trkpt>
      <trkpt lat="45.42413" lon="5.48889">
        <ele>583</ele>
        <time>2021-10-02T13:54:04.578Z</time>
      </trkpt>
      <trkpt lat="45.42413" lon="5.48902">
        <ele>583</ele>
        <time>2021-10-02T13:54:03.579Z</time>
      </trkpt>
      <trkpt lat="45.42412" lon="5.48915">
        <ele>583</ele>
        <time>2021-10-02T13:54:02.579Z</time>
      </trkpt>
      <trkpt lat="45.42411" lon="5.48929">
        <ele>583</ele>
        <time>2021-10-02T13:54:01.579Z</time>
      </trkpt>
      <trkpt lat="45.42411" lon="5.48942">
        <ele>583</ele>
        <time>2021-10-02T13:54:00.579Z</time>
      </trkpt>
      <trkpt lat="45.42411" lon="5.48956">
        <ele>583</ele>
        <time>2021-10-02T13:53:59.579Z</time>
      </trkpt>
      <trkpt lat="45.42411" lon="5.48969">
        <ele>583</ele>
        <time>2021-10-02T13:53:58.579Z</time>
      </trkpt>
      <trkpt lat="45.42412" lon="5.48982">
        <ele>583</ele>
        <time>2021-10-02T13:53:57.579Z</time>
      </trkpt>
      <trkpt lat="45.42413" lon="5.48995">
        <ele>583</ele>
        <time>2021-10-02T13:53:56.579Z</time>
      </trkpt>
      <trkpt lat="45.42413" lon="5.49009">
        <ele>583</ele>
        <time>2021-10-02T13:53:55.579Z</time>
      </trkpt>
      <trkpt lat="45.42414" lon="5.49022">
        <ele>583</ele>
        <time>2021-10-02T13:53:54.579Z</time>
      </trkpt>
      <trkpt lat="45.42414" lon="5.49035">
        <ele>584</ele>
        <time>2021-10-02T13:53:53.579Z</time>
      </trkpt>
      <trkpt lat="45.42414" lon="5.49048">
        <ele>585</ele>
        <time>2021-10-02T13:53:52.578Z</time>
      </trkpt>
      <trkpt lat="45.42414" lon="5.49061">
        <ele>585</ele>
        <time>2021-10-02T13:53:51.578Z</time>
      </trkpt>
      <trkpt lat="45.42414" lon="5.49074">
        <ele>586</ele>
        <time>2021-10-02T13:53:50.579Z</time>
      </trkpt>
      <trkpt lat="45.42413" lon="5.49087">
        <ele>586</ele>
        <time>2021-10-02T13:53:49.578Z</time>
      </trkpt>
      <trkpt lat="45.42413" lon="5.491">
        <ele>585</ele>
        <time>2021-10-02T13:53:48.579Z</time>
      </trkpt>
      <trkpt lat="45.42414" lon="5.49113">
        <ele>585</ele>
        <time>2021-10-02T13:53:47.579Z</time>
      </trkpt>
      <trkpt lat="45.42413" lon="5.49125">
        <ele>584</ele>
        <time>2021-10-02T13:53:46.579Z</time>
      </trkpt>
      <trkpt lat="45.42413" lon="5.49138">
        <ele>584</ele>
        <time>2021-10-02T13:53:45.579Z</time>
      </trkpt>
      <trkpt lat="45.42413" lon="5.4915">
        <ele>583</ele>
        <time>2021-10-02T13:53:44.579Z</time>
      </trkpt>
      <trkpt lat="45.42413" lon="5.49161">
        <ele>583</ele>
        <time>2021-10-02T13:53:43.579Z</time>
      </trkpt>
      <trkpt lat="45.42413" lon="5.49173">
        <ele>583</ele>
        <time>2021-10-02T13:53:42.578Z</time>
      </trkpt>
      <trkpt lat="45.42412" lon="5.49185">
        <ele>583</ele>
        <time>2021-10-02T13:53:41.579Z</time>
      </trkpt>
      <trkpt lat="45.42412" lon="5.49196">
        <ele>582</ele>
        <time>2021-10-02T13:53:40.579Z</time>
      </trkpt>
      <trkpt lat="45.42412" lon="5.49208">
        <ele>582</ele>
        <time>2021-10-02T13:53:39.579Z</time>
      </trkpt>
      <trkpt lat="45.42411" lon="5.49219">
        <ele>583</ele>
        <time>2021-10-02T13:53:38.579Z</time>
      </trkpt>
      <trkpt lat="45.42409" lon="5.49231">
        <ele>583</ele>
        <time>2021-10-02T13:53:37.578Z</time>
      </trkpt>
      <trkpt lat="45.42407" lon="5.49242">
        <ele>583</ele>
        <time>2021-10-02T13:53:36.579Z</time>
      </trkpt>
      <trkpt lat="45.42405" lon="5.49253">
        <ele>583</ele>
        <time>2021-10-02T13:53:35.579Z</time>
      </trkpt>
      <trkpt lat="45.42403" lon="5.49265">
        <ele>584</ele>
        <time>2021-10-02T13:53:34.578Z</time>
      </trkpt>
      <trkpt lat="45.42401" lon="5.49276">
        <ele>584</ele>
        <time>2021-10-02T13:53:33.578Z</time>
      </trkpt>
      <trkpt lat="45.42399" lon="5.49288">
        <ele>585</ele>
        <time>2021-10-02T13:53:32.578Z</time>
      </trkpt>
      <trkpt lat="45.42397" lon="5.493">
        <ele>585</ele>
        <time>2021-10-02T13:53:31.579Z</time>
      </trkpt>
      <trkpt lat="45.42395" lon="5.49311">
        <ele>585</ele>
        <time>2021-10-02T13:53:30.579Z</time>
      </trkpt>
      <trkpt lat="45.42393" lon="5.49324">
        <ele>585</ele>
        <time>2021-10-02T13:53:29.578Z</time>
      </trkpt>
      <trkpt lat="45.42391" lon="5.49336">
        <ele>585</ele>
        <time>2021-10-02T13:53:28.578Z</time>
      </trkpt>
      <trkpt lat="45.42389" lon="5.49348">
        <ele>585</ele>
        <time>2021-10-02T13:53:27.578Z</time>
      </trkpt>
      <trkpt lat="45.42387" lon="5.49361">
        <ele>585</ele>
        <time>2021-10-02T13:53:26.579Z</time>
      </trkpt>
      <trkpt lat="45.42385" lon="5.49375">
        <ele>586</ele>
        <time>2021-10-02T13:53:25.579Z</time>
      </trkpt>
      <trkpt lat="45.42383" lon="5.49388">
        <ele>587</ele>
        <time>2021-10-02T13:53:24.578Z</time>
      </trkpt>
      <trkpt lat="45.42382" lon="5.49401">
        <ele>587</ele>
        <time>2021-10-02T13:53:23.579Z</time>
      </trkpt>
      <trkpt lat="45.4238" lon="5.49413">
        <ele>588</ele>
        <time>2021-10-02T13:53:22.579Z</time>
      </trkpt>
      <trkpt lat="45.42379" lon="5.49425">
        <ele>589</ele>
        <time>2021-10-02T13:53:21.579Z</time>
      </trkpt>
      <trkpt lat="45.42378" lon="5.49437">
        <ele>590</ele>
        <time>2021-10-02T13:53:20.579Z</time>
      </trkpt>
      <trkpt lat="45.42377" lon="5.49449">
        <ele>590</ele>
        <time>2021-10-02T13:53:19.578Z</time>
      </trkpt>
      <trkpt lat="45.42376" lon="5.49461">
        <ele>591</ele>
        <time>2021-10-02T13:53:18.579Z</time>
      </trkpt>
      <trkpt lat="45.42375" lon="5.49472">
        <ele>591</ele>
        <time>2021-10-02T13:53:17.579Z</time>
      </trkpt>
      <trkpt lat="45.42374" lon="5.49484">
        <ele>591</ele>
        <time>2021-10-02T13:53:16.578Z</time>
      </trkpt>
      <trkpt lat="45.42374" lon="5.49496">
        <ele>591</ele>
        <time>2021-10-02T13:53:15.578Z</time>
      </trkpt>
      <trkpt lat="45.42373" lon="5.49508">
        <ele>591</ele>
        <time>2021-10-02T13:53:14.579Z</time>
      </trkpt>
      <trkpt lat="45.42372" lon="5.4952">
        <ele>591</ele>
        <time>2021-10-02T13:53:13.579Z</time>
      </trkpt>
      <trkpt lat="45.42371" lon="5.49531">
        <ele>591</ele>
        <time>2021-10-02T13:53:12.578Z</time>
      </trkpt>
      <trkpt lat="45.4237" lon="5.49542">
        <ele>591</ele>
        <time>2021-10-02T13:53:11.579Z</time>
      </trkpt>
      <trkpt lat="45.4237" lon="5.49553">
        <ele>592</ele>
        <time>2021-10-02T13:53:10.579Z</time>
      </trkpt>
      <trkpt lat="45.42369" lon="5.49562">
        <ele>592</ele>
        <time>2021-10-02T13:53:09.579Z</time>
      </trkpt>
      <trkpt lat="45.42368" lon="5.49571">
        <ele>592</ele>
        <time>2021-10-02T13:53:08.579Z</time>
      </trkpt>
      <trkpt lat="45.42367" lon="5.49579">
        <ele>593</ele>
        <time>2021-10-02T13:53:07.579Z</time>
      </trkpt>
      <trkpt lat="45.42366" lon="5.49587">
        <ele>593</ele>
        <time>2021-10-02T13:53:06.579Z</time>
      </trkpt>
      <trkpt lat="45.42366" lon="5.49595">
        <ele>593</ele>
        <time>2021-10-02T13:53:05.578Z</time>
      </trkpt>
      <trkpt lat="45.42365" lon="5.49603">
        <ele>593</ele>
        <time>2021-10-02T13:53:04.578Z</time>
      </trkpt>
      <trkpt lat="45.42365" lon="5.49611">
        <ele>593</ele>
        <time>2021-10-02T13:53:03.578Z</time>
      </trkpt>
      <trkpt lat="45.42364" lon="5.49618">
        <ele>593</ele>
        <time>2021-10-02T13:53:02.579Z</time>
      </trkpt>
      <trkpt lat="45.42363" lon="5.49626">
        <ele>593</ele>
        <time>2021-10-02T13:53:01.579Z</time>
      </trkpt>
      <trkpt lat="45.42363" lon="5.49632">
        <ele>593</ele>
        <time>2021-10-02T13:53:00.578Z</time>
      </trkpt>
      <trkpt lat="45.42363" lon="5.49639">
        <ele>594</ele>
        <time>2021-10-02T13:52:59.578Z</time>
      </trkpt>
      <trkpt lat="45.42363" lon="5.49644">
        <ele>594</ele>
        <time>2021-10-02T13:52:58.579Z</time>
      </trkpt>
      <trkpt lat="45.42363" lon="5.49652">
        <ele>590</ele>
        <time>2021-10-02T13:52:54.578Z</time>
      </trkpt>
      <trkpt lat="45.42363" lon="5.4965">
        <ele>594</ele>
        <time>2021-10-02T13:52:51.576Z</time>
      </trkpt>
      <trkpt lat="45.42363" lon="5.49651">
        <ele>593</ele>
        <time>2021-10-02T13:52:50.576Z</time>
      </trkpt>
      <trkpt lat="45.42362" lon="5.49653">
        <ele>593</ele>
        <time>2021-10-02T13:52:49.576Z</time>
      </trkpt>
      <trkpt lat="45.42362" lon="5.49655">
        <ele>593</ele>
        <time>2021-10-02T13:52:48.575Z</time>
      </trkpt>
      <trkpt lat="45.42361" lon="5.49658">
        <ele>593</ele>
        <time>2021-10-02T13:52:47.576Z</time>
      </trkpt>
      <trkpt lat="45.4236" lon="5.49662">
        <ele>593</ele>
        <time>2021-10-02T13:52:46.576Z</time>
      </trkpt>
      <trkpt lat="45.4236" lon="5.49665">
        <ele>593</ele>
        <time>2021-10-02T13:52:45.575Z</time>
      </trkpt>
      <trkpt lat="45.4236" lon="5.49668">
        <ele>593</ele>
        <time>2021-10-02T13:52:44.576Z</time>
      </trkpt>
      <trkpt lat="45.4236" lon="5.49671">
        <ele>594</ele>
        <time>2021-10-02T13:52:43.576Z</time>
      </trkpt>
      <trkpt lat="45.4236" lon="5.49674">
        <ele>594</ele>
        <time>2021-10-02T13:52:42.576Z</time>
      </trkpt>
      <trkpt lat="45.4236" lon="5.49676">
        <ele>594</ele>
        <time>2021-10-02T13:52:41.575Z</time>
      </trkpt>
      <trkpt lat="45.42359" lon="5.49679">
        <ele>594</ele>
        <time>2021-10-02T13:52:40.576Z</time>
      </trkpt>
      <trkpt lat="45.42359" lon="5.49682">
        <ele>594</ele>
        <time>2021-10-02T13:52:39.576Z</time>
      </trkpt>
      <trkpt lat="45.42359" lon="5.49685">
        <ele>594</ele>
        <time>2021-10-02T13:52:38.576Z</time>
      </trkpt>
      <trkpt lat="45.42359" lon="5.49688">
        <ele>593</ele>
        <time>2021-10-02T13:52:37.576Z</time>
      </trkpt>
      <trkpt lat="45.42359" lon="5.49692">
        <ele>593</ele>
        <time>2021-10-02T13:52:36.576Z</time>
      </trkpt>
      <trkpt lat="45.42358" lon="5.49695">
        <ele>594</ele>
        <time>2021-10-02T13:52:35.576Z</time>
      </trkpt>
      <trkpt lat="45.42357" lon="5.49699">
        <ele>594</ele>
        <time>2021-10-02T13:52:34.576Z</time>
      </trkpt>
      <trkpt lat="45.42357" lon="5.49703">
        <ele>594</ele>
        <time>2021-10-02T13:52:33.576Z</time>
      </trkpt>
      <trkpt lat="45.42356" lon="5.49707">
        <ele>594</ele>
        <time>2021-10-02T13:52:32.576Z</time>
      </trkpt>
      <trkpt lat="45.42356" lon="5.49713">
        <ele>594</ele>
        <time>2021-10-02T13:52:31.576Z</time>
      </trkpt>
      <trkpt lat="45.42356" lon="5.49718">
        <ele>594</ele>
        <time>2021-10-02T13:52:30.575Z</time>
      </trkpt>
      <trkpt lat="45.42356" lon="5.49724">
        <ele>594</ele>
        <time>2021-10-02T13:52:29.575Z</time>
      </trkpt>
      <trkpt lat="45.42356" lon="5.49728">
        <ele>594</ele>
        <time>2021-10-02T13:52:28.576Z</time>
      </trkpt>
      <trkpt lat="45.42356" lon="5.49733">
        <ele>594</ele>
        <time>2021-10-02T13:52:27.576Z</time>
      </trkpt>
      <trkpt lat="45.42356" lon="5.49737">
        <ele>594</ele>
        <time>2021-10-02T13:52:26.576Z</time>
      </trkpt>
      <trkpt lat="45.42355" lon="5.49742">
        <ele>595</ele>
        <time>2021-10-02T13:52:25.575Z</time>
      </trkpt>
      <trkpt lat="45.42355" lon="5.49746">
        <ele>595</ele>
        <time>2021-10-02T13:52:24.576Z</time>
      </trkpt>
      <trkpt lat="45.42355" lon="5.4975">
        <ele>595</ele>
        <time>2021-10-02T13:52:23.576Z</time>
      </trkpt>
      <trkpt lat="45.42355" lon="5.49754">
        <ele>595</ele>
        <time>2021-10-02T13:52:22.576Z</time>
      </trkpt>
      <trkpt lat="45.42355" lon="5.49759">
        <ele>595</ele>
        <time>2021-10-02T13:52:21.576Z</time>
      </trkpt>
      <trkpt lat="45.42355" lon="5.49766">
        <ele>595</ele>
        <time>2021-10-02T13:52:20.576Z</time>
      </trkpt>
      <trkpt lat="45.42354" lon="5.49774">
        <ele>595</ele>
        <time>2021-10-02T13:52:19.576Z</time>
      </trkpt>
      <trkpt lat="45.42353" lon="5.49782">
        <ele>595</ele>
        <time>2021-10-02T13:52:18.576Z</time>
      </trkpt>
      <trkpt lat="45.42353" lon="5.49791">
        <ele>595</ele>
        <time>2021-10-02T13:52:17.576Z</time>
      </trkpt>
      <trkpt lat="45.42352" lon="5.49799">
        <ele>596</ele>
        <time>2021-10-02T13:52:16.576Z</time>
      </trkpt>
      <trkpt lat="45.42351" lon="5.49807">
        <ele>597</ele>
        <time>2021-10-02T13:52:15.576Z</time>
      </trkpt>
      <trkpt lat="45.42351" lon="5.49816">
        <ele>597</ele>
        <time>2021-10-02T13:52:14.576Z</time>
      </trkpt>
      <trkpt lat="45.4235" lon="5.49824">
        <ele>597</ele>
        <time>2021-10-02T13:52:13.576Z</time>
      </trkpt>
      <trkpt lat="45.4235" lon="5.49833">
        <ele>597</ele>
        <time>2021-10-02T13:52:12.575Z</time>
      </trkpt>
      <trkpt lat="45.42349" lon="5.49841">
        <ele>597</ele>
        <time>2021-10-02T13:52:11.575Z</time>
      </trkpt>
      <trkpt lat="45.42349" lon="5.49849">
        <ele>598</ele>
        <time>2021-10-02T13:52:10.576Z</time>
      </trkpt>
      <trkpt lat="45.42348" lon="5.49857">
        <ele>598</ele>
        <time>2021-10-02T13:52:09.575Z</time>
      </trkpt>
      <trkpt lat="45.42348" lon="5.49865">
        <ele>598</ele>
        <time>2021-10-02T13:52:08.575Z</time>
      </trkpt>
      <trkpt lat="45.42348" lon="5.49872">
        <ele>597</ele>
        <time>2021-10-02T13:52:07.576Z</time>
      </trkpt>
      <trkpt lat="45.42348" lon="5.4988">
        <ele>597</ele>
        <time>2021-10-02T13:52:06.576Z</time>
      </trkpt>
      <trkpt lat="45.42349" lon="5.49887">
        <ele>596</ele>
        <time>2021-10-02T13:52:05.576Z</time>
      </trkpt>
      <trkpt lat="45.4235" lon="5.49895">
        <ele>596</ele>
        <time>2021-10-02T13:52:04.576Z</time>
      </trkpt>
      <trkpt lat="45.42351" lon="5.49903">
        <ele>595</ele>
        <time>2021-10-02T13:52:03.576Z</time>
      </trkpt>
      <trkpt lat="45.42353" lon="5.4991">
        <ele>595</ele>
        <time>2021-10-02T13:52:02.576Z</time>
      </trkpt>
      <trkpt lat="45.42354" lon="5.49917">
        <ele>595</ele>
        <time>2021-10-02T13:52:01.576Z</time>
      </trkpt>
      <trkpt lat="45.42356" lon="5.49924">
        <ele>595</ele>
        <time>2021-10-02T13:52:00.576Z</time>
      </trkpt>
      <trkpt lat="45.42358" lon="5.49931">
        <ele>595</ele>
        <time>2021-10-02T13:51:59.576Z</time>
      </trkpt>
      <trkpt lat="45.4236" lon="5.49939">
        <ele>595</ele>
        <time>2021-10-02T13:51:58.576Z</time>
      </trkpt>
      <trkpt lat="45.42363" lon="5.49946">
        <ele>595</ele>
        <time>2021-10-02T13:51:57.576Z</time>
      </trkpt>
      <trkpt lat="45.42365" lon="5.49952">
        <ele>595</ele>
        <time>2021-10-02T13:51:56.576Z</time>
      </trkpt>
      <trkpt lat="45.42368" lon="5.49959">
        <ele>596</ele>
        <time>2021-10-02T13:51:55.576Z</time>
      </trkpt>
      <trkpt lat="45.42371" lon="5.49965">
        <ele>595</ele>
        <time>2021-10-02T13:51:54.575Z</time>
      </trkpt>
      <trkpt lat="45.42375" lon="5.49971">
        <ele>595</ele>
        <time>2021-10-02T13:51:53.576Z</time>
      </trkpt>
      <trkpt lat="45.42378" lon="5.49977">
        <ele>595</ele>
        <time>2021-10-02T13:51:52.575Z</time>
      </trkpt>
      <trkpt lat="45.42381" lon="5.49983">
        <ele>595</ele>
        <time>2021-10-02T13:51:51.576Z</time>
      </trkpt>
      <trkpt lat="45.42384" lon="5.49989">
        <ele>595</ele>
        <time>2021-10-02T13:51:50.575Z</time>
      </trkpt>
      <trkpt lat="45.42387" lon="5.49994">
        <ele>595</ele>
        <time>2021-10-02T13:51:49.575Z</time>
      </trkpt>
      <trkpt lat="45.42391" lon="5.49999">
        <ele>595</ele>
        <time>2021-10-02T13:51:48.575Z</time>
      </trkpt>
      <trkpt lat="45.42394" lon="5.50004">
        <ele>595</ele>
        <time>2021-10-02T13:51:47.575Z</time>
      </trkpt>
      <trkpt lat="45.42397" lon="5.50009">
        <ele>596</ele>
        <time>2021-10-02T13:51:46.576Z</time>
      </trkpt>
      <trkpt lat="45.42401" lon="5.50013">
        <ele>595</ele>
        <time>2021-10-02T13:51:45.576Z</time>
      </trkpt>
      <trkpt lat="45.42404" lon="5.50017">
        <ele>595</ele>
        <time>2021-10-02T13:51:44.576Z</time>
      </trkpt>
      <trkpt lat="45.42408" lon="5.5002">
        <ele>596</ele>
        <time>2021-10-02T13:51:43.576Z</time>
      </trkpt>
      <trkpt lat="45.42411" lon="5.50022">
        <ele>596</ele>
        <time>2021-10-02T13:51:42.575Z</time>
      </trkpt>
      <trkpt lat="45.42415" lon="5.50025">
        <ele>596</ele>
        <time>2021-10-02T13:51:41.576Z</time>
      </trkpt>
      <trkpt lat="45.42418" lon="5.50027">
        <ele>596</ele>
        <time>2021-10-02T13:51:40.575Z</time>
      </trkpt>
      <trkpt lat="45.42421" lon="5.50029">
        <ele>596</ele>
        <time>2021-10-02T13:51:39.576Z</time>
      </trkpt>
      <trkpt lat="45.42425" lon="5.5003">
        <ele>595</ele>
        <time>2021-10-02T13:51:38.575Z</time>
      </trkpt>
      <trkpt lat="45.42429" lon="5.50032">
        <ele>595</ele>
        <time>2021-10-02T13:51:37.575Z</time>
      </trkpt>
      <trkpt lat="45.42433" lon="5.50033">
        <ele>595</ele>
        <time>2021-10-02T13:51:36.575Z</time>
      </trkpt>
      <trkpt lat="45.42437" lon="5.50035">
        <ele>594</ele>
        <time>2021-10-02T13:51:35.576Z</time>
      </trkpt>
      <trkpt lat="45.4244" lon="5.50036">
        <ele>594</ele>
        <time>2021-10-02T13:51:34.576Z</time>
      </trkpt>
      <trkpt lat="45.42443" lon="5.50037">
        <ele>593</ele>
        <time>2021-10-02T13:51:33.576Z</time>
      </trkpt>
      <trkpt lat="45.42448" lon="5.50038">
        <ele>593</ele>
        <time>2021-10-02T13:51:32.576Z</time>
      </trkpt>
      <trkpt lat="45.42452" lon="5.50039">
        <ele>593</ele>
        <time>2021-10-02T13:51:31.575Z</time>
      </trkpt>
      <trkpt lat="45.42456" lon="5.5004">
        <ele>593</ele>
        <time>2021-10-02T13:51:30.576Z</time>
      </trkpt>
      <trkpt lat="45.4246" lon="5.50041">
        <ele>593</ele>
        <time>2021-10-02T13:51:29.576Z</time>
      </trkpt>
      <trkpt lat="45.42464" lon="5.50042">
        <ele>593</ele>
        <time>2021-10-02T13:51:28.576Z</time>
      </trkpt>
      <trkpt lat="45.42468" lon="5.50042">
        <ele>593</ele>
        <time>2021-10-02T13:51:27.575Z</time>
      </trkpt>
      <trkpt lat="45.42472" lon="5.50043">
        <ele>593</ele>
        <time>2021-10-02T13:51:26.576Z</time>
      </trkpt>
      <trkpt lat="45.42476" lon="5.50043">
        <ele>593</ele>
        <time>2021-10-02T13:51:25.575Z</time>
      </trkpt>
      <trkpt lat="45.42481" lon="5.50044">
        <ele>593</ele>
        <time>2021-10-02T13:51:24.576Z</time>
      </trkpt>
      <trkpt lat="45.42485" lon="5.50045">
        <ele>593</ele>
        <time>2021-10-02T13:51:23.576Z</time>
      </trkpt>
      <trkpt lat="45.42489" lon="5.50046">
        <ele>593</ele>
        <time>2021-10-02T13:51:22.575Z</time>
      </trkpt>
      <trkpt lat="45.42494" lon="5.50047">
        <ele>592</ele>
        <time>2021-10-02T13:51:21.576Z</time>
      </trkpt>
      <trkpt lat="45.42498" lon="5.50047">
        <ele>592</ele>
        <time>2021-10-02T13:51:20.576Z</time>
      </trkpt>
      <trkpt lat="45.42503" lon="5.50048">
        <ele>592</ele>
        <time>2021-10-02T13:51:19.576Z</time>
      </trkpt>
      <trkpt lat="45.42507" lon="5.50048">
        <ele>592</ele>
        <time>2021-10-02T13:51:18.576Z</time>
      </trkpt>
      <trkpt lat="45.42511" lon="5.50049">
        <ele>592</ele>
        <time>2021-10-02T13:51:17.576Z</time>
      </trkpt>
      <trkpt lat="45.42516" lon="5.5005">
        <ele>592</ele>
        <time>2021-10-02T13:51:16.576Z</time>
      </trkpt>
      <trkpt lat="45.4252" lon="5.5005">
        <ele>591</ele>
        <time>2021-10-02T13:51:15.576Z</time>
      </trkpt>
      <trkpt lat="45.42524" lon="5.50051">
        <ele>591</ele>
        <time>2021-10-02T13:51:14.576Z</time>
      </trkpt>
      <trkpt lat="45.42528" lon="5.50051">
        <ele>591</ele>
        <time>2021-10-02T13:51:13.575Z</time>
      </trkpt>
      <trkpt lat="45.42533" lon="5.50052">
        <ele>591</ele>
        <time>2021-10-02T13:51:12.575Z</time>
      </trkpt>
      <trkpt lat="45.42537" lon="5.50053">
        <ele>591</ele>
        <time>2021-10-02T13:51:11.576Z</time>
      </trkpt>
      <trkpt lat="45.42541" lon="5.50053">
        <ele>590</ele>
        <time>2021-10-02T13:51:10.575Z</time>
      </trkpt>
      <trkpt lat="45.42545" lon="5.50054">
        <ele>590</ele>
        <time>2021-10-02T13:51:09.576Z</time>
      </trkpt>
      <trkpt lat="45.4255" lon="5.50054">
        <ele>590</ele>
        <time>2021-10-02T13:51:08.576Z</time>
      </trkpt>
      <trkpt lat="45.42554" lon="5.50055">
        <ele>590</ele>
        <time>2021-10-02T13:51:07.575Z</time>
      </trkpt>
      <trkpt lat="45.42558" lon="5.50055">
        <ele>589</ele>
        <time>2021-10-02T13:51:06.576Z</time>
      </trkpt>
      <trkpt lat="45.42563" lon="5.50055">
        <ele>589</ele>
        <time>2021-10-02T13:51:05.576Z</time>
      </trkpt>
      <trkpt lat="45.42567" lon="5.50055">
        <ele>589</ele>
        <time>2021-10-02T13:51:04.576Z</time>
      </trkpt>
      <trkpt lat="45.42571" lon="5.50056">
        <ele>588</ele>
        <time>2021-10-02T13:51:03.576Z</time>
      </trkpt>
      <trkpt lat="45.42575" lon="5.50056">
        <ele>588</ele>
        <time>2021-10-02T13:51:02.576Z</time>
      </trkpt>
      <trkpt lat="45.42579" lon="5.50057">
        <ele>588</ele>
        <time>2021-10-02T13:51:01.576Z</time>
      </trkpt>
      <trkpt lat="45.42583" lon="5.50057">
        <ele>588</ele>
        <time>2021-10-02T13:51:00.576Z</time>
      </trkpt>
      <trkpt lat="45.42588" lon="5.50057">
        <ele>588</ele>
        <time>2021-10-02T13:50:59.576Z</time>
      </trkpt>
      <trkpt lat="45.42592" lon="5.50058">
        <ele>588</ele>
        <time>2021-10-02T13:50:58.575Z</time>
      </trkpt>
      <trkpt lat="45.42597" lon="5.50058">
        <ele>587</ele>
        <time>2021-10-02T13:50:57.575Z</time>
      </trkpt>
      <trkpt lat="45.42601" lon="5.50058">
        <ele>587</ele>
        <time>2021-10-02T13:50:56.575Z</time>
      </trkpt>
      <trkpt lat="45.42606" lon="5.50058">
        <ele>586</ele>
        <time>2021-10-02T13:50:55.576Z</time>
      </trkpt>
      <trkpt lat="45.4261" lon="5.50058">
        <ele>586</ele>
        <time>2021-10-02T13:50:54.576Z</time>
      </trkpt>
      <trkpt lat="45.42614" lon="5.50058">
        <ele>585</ele>
        <time>2021-10-02T13:50:53.576Z</time>
      </trkpt>
      <trkpt lat="45.42619" lon="5.50058">
        <ele>586</ele>
        <time>2021-10-02T13:50:52.576Z</time>
      </trkpt>
      <trkpt lat="45.42623" lon="5.50059">
        <ele>586</ele>
        <time>2021-10-02T13:50:51.575Z</time>
      </trkpt>
      <trkpt lat="45.42627" lon="5.50059">
        <ele>586</ele>
        <time>2021-10-02T13:50:50.576Z</time>
      </trkpt>
      <trkpt lat="45.42631" lon="5.50059">
        <ele>585</ele>
        <time>2021-10-02T13:50:49.575Z</time>
      </trkpt>
      <trkpt lat="45.42636" lon="5.50059">
        <ele>585</ele>
        <time>2021-10-02T13:50:48.575Z</time>
      </trkpt>
      <trkpt lat="45.42641" lon="5.5006">
        <ele>585</ele>
        <time>2021-10-02T13:50:47.575Z</time>
      </trkpt>
      <trkpt lat="45.42645" lon="5.5006">
        <ele>584</ele>
        <time>2021-10-02T13:50:46.576Z</time>
      </trkpt>
      <trkpt lat="45.42649" lon="5.50061">
        <ele>583</ele>
        <time>2021-10-02T13:50:45.575Z</time>
      </trkpt>
      <trkpt lat="45.42654" lon="5.50061">
        <ele>583</ele>
        <time>2021-10-02T13:50:44.575Z</time>
      </trkpt>
      <trkpt lat="45.42659" lon="5.50061">
        <ele>582</ele>
        <time>2021-10-02T13:50:43.575Z</time>
      </trkpt>
      <trkpt lat="45.42664" lon="5.50061">
        <ele>582</ele>
        <time>2021-10-02T13:50:42.576Z</time>
      </trkpt>
      <trkpt lat="45.42668" lon="5.50061">
        <ele>582</ele>
        <time>2021-10-02T13:50:41.576Z</time>
      </trkpt>
      <trkpt lat="45.42673" lon="5.50061">
        <ele>582</ele>
        <time>2021-10-02T13:50:40.576Z</time>
      </trkpt>
      <trkpt lat="45.42678" lon="5.5006">
        <ele>582</ele>
        <time>2021-10-02T13:50:39.575Z</time>
      </trkpt>
      <trkpt lat="45.42683" lon="5.5006">
        <ele>582</ele>
        <time>2021-10-02T13:50:38.575Z</time>
      </trkpt>
      <trkpt lat="45.42687" lon="5.50059">
        <ele>582</ele>
        <time>2021-10-02T13:50:37.576Z</time>
      </trkpt>
      <trkpt lat="45.42692" lon="5.50058">
        <ele>582</ele>
        <time>2021-10-02T13:50:36.575Z</time>
      </trkpt>
      <trkpt lat="45.42696" lon="5.50057">
        <ele>581</ele>
        <time>2021-10-02T13:50:35.576Z</time>
      </trkpt>
      <trkpt lat="45.427" lon="5.50055">
        <ele>581</ele>
        <time>2021-10-02T13:50:34.576Z</time>
      </trkpt>
      <trkpt lat="45.42704" lon="5.50054">
        <ele>581</ele>
        <time>2021-10-02T13:50:33.575Z</time>
      </trkpt>
      <trkpt lat="45.42708" lon="5.50052">
        <ele>581</ele>
        <time>2021-10-02T13:50:32.576Z</time>
      </trkpt>
      <trkpt lat="45.42713" lon="5.5005">
        <ele>581</ele>
        <time>2021-10-02T13:50:31.576Z</time>
      </trkpt>
      <trkpt lat="45.42717" lon="5.50049">
        <ele>580</ele>
        <time>2021-10-02T13:50:30.576Z</time>
      </trkpt>
      <trkpt lat="45.42721" lon="5.50047">
        <ele>580</ele>
        <time>2021-10-02T13:50:29.575Z</time>
      </trkpt>
      <trkpt lat="45.42725" lon="5.50045">
        <ele>580</ele>
        <time>2021-10-02T13:50:28.576Z</time>
      </trkpt>
      <trkpt lat="45.42729" lon="5.50044">
        <ele>580</ele>
        <time>2021-10-02T13:50:27.576Z</time>
      </trkpt>
      <trkpt lat="45.42733" lon="5.50042">
        <ele>580</ele>
        <time>2021-10-02T13:50:26.575Z</time>
      </trkpt>
      <trkpt lat="45.42737" lon="5.5004">
        <ele>580</ele>
        <time>2021-10-02T13:50:25.576Z</time>
      </trkpt>
      <trkpt lat="45.42741" lon="5.50038">
        <ele>579</ele>
        <time>2021-10-02T13:50:24.576Z</time>
      </trkpt>
      <trkpt lat="45.42746" lon="5.50036">
        <ele>579</ele>
        <time>2021-10-02T13:50:23.576Z</time>
      </trkpt>
      <trkpt lat="45.4275" lon="5.50033">
        <ele>578</ele>
        <time>2021-10-02T13:50:22.576Z</time>
      </trkpt>
      <trkpt lat="45.42754" lon="5.5003">
        <ele>578</ele>
        <time>2021-10-02T13:50:21.575Z</time>
      </trkpt>
      <trkpt lat="45.42758" lon="5.50028">
        <ele>578</ele>
        <time>2021-10-02T13:50:20.576Z</time>
      </trkpt>
      <trkpt lat="45.42762" lon="5.50026">
        <ele>578</ele>
        <time>2021-10-02T13:50:19.576Z</time>
      </trkpt>
      <trkpt lat="45.42766" lon="5.50023">
        <ele>578</ele>
        <time>2021-10-02T13:50:18.576Z</time>
      </trkpt>
      <trkpt lat="45.42771" lon="5.5002">
        <ele>577</ele>
        <time>2021-10-02T13:50:17.576Z</time>
      </trkpt>
      <trkpt lat="45.42775" lon="5.50018">
        <ele>577</ele>
        <time>2021-10-02T13:50:16.576Z</time>
      </trkpt>
      <trkpt lat="45.4278" lon="5.50015">
        <ele>577</ele>
        <time>2021-10-02T13:50:15.576Z</time>
      </trkpt>
      <trkpt lat="45.42784" lon="5.50012">
        <ele>576</ele>
        <time>2021-10-02T13:50:14.575Z</time>
      </trkpt>
      <trkpt lat="45.42789" lon="5.50009">
        <ele>576</ele>
        <time>2021-10-02T13:50:13.576Z</time>
      </trkpt>
      <trkpt lat="45.42792" lon="5.50007">
        <ele>575</ele>
        <time>2021-10-02T13:50:12.575Z</time>
      </trkpt>
      <trkpt lat="45.42796" lon="5.50005">
        <ele>574</ele>
        <time>2021-10-02T13:50:11.575Z</time>
      </trkpt>
      <trkpt lat="45.42801" lon="5.50003">
        <ele>573</ele>
        <time>2021-10-02T13:50:10.575Z</time>
      </trkpt>
      <trkpt lat="45.42805" lon="5.50001">
        <ele>573</ele>
        <time>2021-10-02T13:50:09.576Z</time>
      </trkpt>
      <trkpt lat="45.4281" lon="5.49999">
        <ele>572</ele>
        <time>2021-10-02T13:50:08.576Z</time>
      </trkpt>
      <trkpt lat="45.42814" lon="5.49997">
        <ele>571</ele>
        <time>2021-10-02T13:50:07.576Z</time>
      </trkpt>
      <trkpt lat="45.42818" lon="5.49995">
        <ele>570</ele>
        <time>2021-10-02T13:50:06.575Z</time>
      </trkpt>
      <trkpt lat="45.42822" lon="5.49994">
        <ele>570</ele>
        <time>2021-10-02T13:50:05.576Z</time>
      </trkpt>
      <trkpt lat="45.42827" lon="5.49992">
        <ele>570</ele>
        <time>2021-10-02T13:50:04.576Z</time>
      </trkpt>
      <trkpt lat="45.42832" lon="5.49991">
        <ele>570</ele>
        <time>2021-10-02T13:50:03.576Z</time>
      </trkpt>
      <trkpt lat="45.42837" lon="5.4999">
        <ele>569</ele>
        <time>2021-10-02T13:50:02.576Z</time>
      </trkpt>
      <trkpt lat="45.42841" lon="5.4999">
        <ele>569</ele>
        <time>2021-10-02T13:50:01.576Z</time>
      </trkpt>
      <trkpt lat="45.42846" lon="5.49989">
        <ele>569</ele>
        <time>2021-10-02T13:50:00.576Z</time>
      </trkpt>
      <trkpt lat="45.4285" lon="5.49989">
        <ele>569</ele>
        <time>2021-10-02T13:49:59.576Z</time>
      </trkpt>
      <trkpt lat="45.42855" lon="5.4999">
        <ele>569</ele>
        <time>2021-10-02T13:49:58.575Z</time>
      </trkpt>
      <trkpt lat="45.4286" lon="5.4999">
        <ele>569</ele>
        <time>2021-10-02T13:49:57.576Z</time>
      </trkpt>
      <trkpt lat="45.42864" lon="5.4999">
        <ele>568</ele>
        <time>2021-10-02T13:49:56.576Z</time>
      </trkpt>
      <trkpt lat="45.42869" lon="5.4999">
        <ele>568</ele>
        <time>2021-10-02T13:49:55.575Z</time>
      </trkpt>
      <trkpt lat="45.42873" lon="5.49991">
        <ele>568</ele>
        <time>2021-10-02T13:49:54.575Z</time>
      </trkpt>
      <trkpt lat="45.42878" lon="5.49991">
        <ele>568</ele>
        <time>2021-10-02T13:49:53.576Z</time>
      </trkpt>
      <trkpt lat="45.42883" lon="5.49992">
        <ele>567</ele>
        <time>2021-10-02T13:49:52.576Z</time>
      </trkpt>
      <trkpt lat="45.42888" lon="5.49992">
        <ele>567</ele>
        <time>2021-10-02T13:49:51.576Z</time>
      </trkpt>
      <trkpt lat="45.42892" lon="5.49992">
        <ele>567</ele>
        <time>2021-10-02T13:49:50.576Z</time>
      </trkpt>
      <trkpt lat="45.42897" lon="5.49992">
        <ele>567</ele>
        <time>2021-10-02T13:49:49.576Z</time>
      </trkpt>
      <trkpt lat="45.42902" lon="5.49993">
        <ele>567</ele>
        <time>2021-10-02T13:49:48.576Z</time>
      </trkpt>
      <trkpt lat="45.42906" lon="5.49994">
        <ele>568</ele>
        <time>2021-10-02T13:49:47.576Z</time>
      </trkpt>
      <trkpt lat="45.4291" lon="5.49994">
        <ele>568</ele>
        <time>2021-10-02T13:49:46.575Z</time>
      </trkpt>
      <trkpt lat="45.42914" lon="5.49995">
        <ele>568</ele>
        <time>2021-10-02T13:49:45.576Z</time>
      </trkpt>
      <trkpt lat="45.42919" lon="5.49996">
        <ele>568</ele>
        <time>2021-10-02T13:49:44.576Z</time>
      </trkpt>
      <trkpt lat="45.42923" lon="5.49996">
        <ele>567</ele>
        <time>2021-10-02T13:49:43.576Z</time>
      </trkpt>
      <trkpt lat="45.42928" lon="5.49997">
        <ele>567</ele>
        <time>2021-10-02T13:49:42.576Z</time>
      </trkpt>
      <trkpt lat="45.42932" lon="5.49997">
        <ele>567</ele>
        <time>2021-10-02T13:49:41.576Z</time>
      </trkpt>
      <trkpt lat="45.42937" lon="5.49998">
        <ele>566</ele>
        <time>2021-10-02T13:49:40.575Z</time>
      </trkpt>
      <trkpt lat="45.42941" lon="5.49999">
        <ele>566</ele>
        <time>2021-10-02T13:49:39.576Z</time>
      </trkpt>
      <trkpt lat="45.42946" lon="5.5">
        <ele>565</ele>
        <time>2021-10-02T13:49:38.575Z</time>
      </trkpt>
      <trkpt lat="45.42951" lon="5.5">
        <ele>565</ele>
        <time>2021-10-02T13:49:37.576Z</time>
      </trkpt>
      <trkpt lat="45.42955" lon="5.5">
        <ele>564</ele>
        <time>2021-10-02T13:49:36.576Z</time>
      </trkpt>
      <trkpt lat="45.4296" lon="5.5">
        <ele>564</ele>
        <time>2021-10-02T13:49:35.576Z</time>
      </trkpt>
      <trkpt lat="45.42965" lon="5.5">
        <ele>564</ele>
        <time>2021-10-02T13:49:34.576Z</time>
      </trkpt>
      <trkpt lat="45.4297" lon="5.50001">
        <ele>563</ele>
        <time>2021-10-02T13:49:33.575Z</time>
      </trkpt>
      <trkpt lat="45.42975" lon="5.50001">
        <ele>563</ele>
        <time>2021-10-02T13:49:32.575Z</time>
      </trkpt>
      <trkpt lat="45.4298" lon="5.50001">
        <ele>563</ele>
        <time>2021-10-02T13:49:31.576Z</time>
      </trkpt>
      <trkpt lat="45.42985" lon="5.50002">
        <ele>563</ele>
        <time>2021-10-02T13:49:30.576Z</time>
      </trkpt>
      <trkpt lat="45.4299" lon="5.50003">
        <ele>563</ele>
        <time>2021-10-02T13:49:29.576Z</time>
      </trkpt>
      <trkpt lat="45.42996" lon="5.50004">
        <ele>562</ele>
        <time>2021-10-02T13:49:28.575Z</time>
      </trkpt>
      <trkpt lat="45.43001" lon="5.50004">
        <ele>562</ele>
        <time>2021-10-02T13:49:27.576Z</time>
      </trkpt>
      <trkpt lat="45.43006" lon="5.50005">
        <ele>562</ele>
        <time>2021-10-02T13:49:26.576Z</time>
      </trkpt>
      <trkpt lat="45.43012" lon="5.50006">
        <ele>561</ele>
        <time>2021-10-02T13:49:25.576Z</time>
      </trkpt>
      <trkpt lat="45.43018" lon="5.50006">
        <ele>561</ele>
        <time>2021-10-02T13:49:24.575Z</time>
      </trkpt>
      <trkpt lat="45.43023" lon="5.50008">
        <ele>561</ele>
        <time>2021-10-02T13:49:23.576Z</time>
      </trkpt>
      <trkpt lat="45.43029" lon="5.50009">
        <ele>560</ele>
        <time>2021-10-02T13:49:22.576Z</time>
      </trkpt>
      <trkpt lat="45.43036" lon="5.50011">
        <ele>560</ele>
        <time>2021-10-02T13:49:21.576Z</time>
      </trkpt>
      <trkpt lat="45.43041" lon="5.50013">
        <ele>560</ele>
        <time>2021-10-02T13:49:20.576Z</time>
      </trkpt>
      <trkpt lat="45.43047" lon="5.50018">
        <ele>560</ele>
        <time>2021-10-02T13:49:19.575Z</time>
      </trkpt>
      <trkpt lat="45.43052" lon="5.50023">
        <ele>559</ele>
        <time>2021-10-02T13:49:18.576Z</time>
      </trkpt>
      <trkpt lat="45.43056" lon="5.50032">
        <ele>559</ele>
        <time>2021-10-02T13:49:17.576Z</time>
      </trkpt>
      <trkpt lat="45.43059" lon="5.50039">
        <ele>559</ele>
        <time>2021-10-02T13:49:16.576Z</time>
      </trkpt>
      <trkpt lat="45.43061" lon="5.50048">
        <ele>559</ele>
        <time>2021-10-02T13:49:15.576Z</time>
      </trkpt>
      <trkpt lat="45.43062" lon="5.50055">
        <ele>559</ele>
        <time>2021-10-02T13:49:14.576Z</time>
      </trkpt>
      <trkpt lat="45.43061" lon="5.50063">
        <ele>559</ele>
        <time>2021-10-02T13:49:13.575Z</time>
      </trkpt>
      <trkpt lat="45.4306" lon="5.50072">
        <ele>559</ele>
        <time>2021-10-02T13:49:12.575Z</time>
      </trkpt>
      <trkpt lat="45.43056" lon="5.50081">
        <ele>559</ele>
        <time>2021-10-02T13:49:11.575Z</time>
      </trkpt>
      <trkpt lat="45.43052" lon="5.50087">
        <ele>559</ele>
        <time>2021-10-02T13:49:10.576Z</time>
      </trkpt>
      <trkpt lat="45.43048" lon="5.50092">
        <ele>558</ele>
        <time>2021-10-02T13:49:09.576Z</time>
      </trkpt>
      <trkpt lat="45.43043" lon="5.50095">
        <ele>558</ele>
        <time>2021-10-02T13:49:08.575Z</time>
      </trkpt>
      <trkpt lat="45.43036" lon="5.50098">
        <ele>557</ele>
        <time>2021-10-02T13:49:07.576Z</time>
      </trkpt>
      <trkpt lat="45.43029" lon="5.50099">
        <ele>557</ele>
        <time>2021-10-02T13:49:06.576Z</time>
      </trkpt>
      <trkpt lat="45.43022" lon="5.50098">
        <ele>556</ele>
        <time>2021-10-02T13:49:05.575Z</time>
      </trkpt>
      <trkpt lat="45.43017" lon="5.50097">
        <ele>556</ele>
        <time>2021-10-02T13:49:04.576Z</time>
      </trkpt>
      <trkpt lat="45.4301" lon="5.50096">
        <ele>556</ele>
        <time>2021-10-02T13:49:03.576Z</time>
      </trkpt>
      <trkpt lat="45.43003" lon="5.50094">
        <ele>556</ele>
        <time>2021-10-02T13:49:02.576Z</time>
      </trkpt>
      <trkpt lat="45.42997" lon="5.50091">
        <ele>555</ele>
        <time>2021-10-02T13:49:01.575Z</time>
      </trkpt>
      <trkpt lat="45.42991" lon="5.50089">
        <ele>555</ele>
        <time>2021-10-02T13:49:00.576Z</time>
      </trkpt>
      <trkpt lat="45.42984" lon="5.50088">
        <ele>554</ele>
        <time>2021-10-02T13:48:59.576Z</time>
      </trkpt>
      <trkpt lat="45.42977" lon="5.50086">
        <ele>554</ele>
        <time>2021-10-02T13:48:58.576Z</time>
      </trkpt>
      <trkpt lat="45.4297" lon="5.50084">
        <ele>553</ele>
        <time>2021-10-02T13:48:57.576Z</time>
      </trkpt>
      <trkpt lat="45.42962" lon="5.50082">
        <ele>553</ele>
        <time>2021-10-02T13:48:56.576Z</time>
      </trkpt>
      <trkpt lat="45.42956" lon="5.50082">
        <ele>552</ele>
        <time>2021-10-02T13:48:55.576Z</time>
      </trkpt>
      <trkpt lat="45.4295" lon="5.50081">
        <ele>552</ele>
        <time>2021-10-02T13:48:54.576Z</time>
      </trkpt>
      <trkpt lat="45.42943" lon="5.50082">
        <ele>551</ele>
        <time>2021-10-02T13:48:53.576Z</time>
      </trkpt>
      <trkpt lat="45.42936" lon="5.50082">
        <ele>550</ele>
        <time>2021-10-02T13:48:52.575Z</time>
      </trkpt>
      <trkpt lat="45.42929" lon="5.50082">
        <ele>550</ele>
        <time>2021-10-02T13:48:51.576Z</time>
      </trkpt>
      <trkpt lat="45.42922" lon="5.50083">
        <ele>549</ele>
        <time>2021-10-02T13:48:50.576Z</time>
      </trkpt>
      <trkpt lat="45.42915" lon="5.50085">
        <ele>549</ele>
        <time>2021-10-02T13:48:49.575Z</time>
      </trkpt>
      <trkpt lat="45.42908" lon="5.50087">
        <ele>548</ele>
        <time>2021-10-02T13:48:48.575Z</time>
      </trkpt>
      <trkpt lat="45.42901" lon="5.50089">
        <ele>548</ele>
        <time>2021-10-02T13:48:47.575Z</time>
      </trkpt>
      <trkpt lat="45.42895" lon="5.50093">
        <ele>547</ele>
        <time>2021-10-02T13:48:46.575Z</time>
      </trkpt>
      <trkpt lat="45.42889" lon="5.50097">
        <ele>547</ele>
        <time>2021-10-02T13:48:45.576Z</time>
      </trkpt>
      <trkpt lat="45.42882" lon="5.501">
        <ele>547</ele>
        <time>2021-10-02T13:48:44.576Z</time>
      </trkpt>
      <trkpt lat="45.42876" lon="5.50105">
        <ele>547</ele>
        <time>2021-10-02T13:48:43.576Z</time>
      </trkpt>
      <trkpt lat="45.42869" lon="5.50111">
        <ele>547</ele>
        <time>2021-10-02T13:48:42.576Z</time>
      </trkpt>
      <trkpt lat="45.42863" lon="5.50117">
        <ele>547</ele>
        <time>2021-10-02T13:48:41.576Z</time>
      </trkpt>
      <trkpt lat="45.42859" lon="5.50121">
        <ele>547</ele>
        <time>2021-10-02T13:48:40.576Z</time>
      </trkpt>
      <trkpt lat="45.42853" lon="5.50127">
        <ele>547</ele>
        <time>2021-10-02T13:48:39.575Z</time>
      </trkpt>
      <trkpt lat="45.42847" lon="5.50133">
        <ele>547</ele>
        <time>2021-10-02T13:48:38.576Z</time>
      </trkpt>
      <trkpt lat="45.42841" lon="5.50138">
        <ele>547</ele>
        <time>2021-10-02T13:48:37.576Z</time>
      </trkpt>
      <trkpt lat="45.42834" lon="5.50146">
        <ele>547</ele>
        <time>2021-10-02T13:48:36.576Z</time>
      </trkpt>
      <trkpt lat="45.42829" lon="5.50151">
        <ele>547</ele>
        <time>2021-10-02T13:48:35.575Z</time>
      </trkpt>
      <trkpt lat="45.42823" lon="5.50157">
        <ele>547</ele>
        <time>2021-10-02T13:48:34.576Z</time>
      </trkpt>
      <trkpt lat="45.42817" lon="5.50163">
        <ele>547</ele>
        <time>2021-10-02T13:48:33.576Z</time>
      </trkpt>
      <trkpt lat="45.42811" lon="5.50169">
        <ele>547</ele>
        <time>2021-10-02T13:48:32.576Z</time>
      </trkpt>
      <trkpt lat="45.42805" lon="5.50176">
        <ele>547</ele>
        <time>2021-10-02T13:48:31.576Z</time>
      </trkpt>
      <trkpt lat="45.42798" lon="5.50182">
        <ele>546</ele>
        <time>2021-10-02T13:48:30.575Z</time>
      </trkpt>
      <trkpt lat="45.42791" lon="5.5019">
        <ele>546</ele>
        <time>2021-10-02T13:48:29.576Z</time>
      </trkpt>
      <trkpt lat="45.42785" lon="5.50197">
        <ele>546</ele>
        <time>2021-10-02T13:48:28.576Z</time>
      </trkpt>
      <trkpt lat="45.42778" lon="5.50204">
        <ele>547</ele>
        <time>2021-10-02T13:48:27.576Z</time>
      </trkpt>
      <trkpt lat="45.42771" lon="5.50211">
        <ele>546</ele>
        <time>2021-10-02T13:48:26.575Z</time>
      </trkpt>
      <trkpt lat="45.42764" lon="5.50218">
        <ele>546</ele>
        <time>2021-10-02T13:48:25.576Z</time>
      </trkpt>
      <trkpt lat="45.42758" lon="5.50225">
        <ele>546</ele>
        <time>2021-10-02T13:48:24.575Z</time>
      </trkpt>
      <trkpt lat="45.42751" lon="5.50232">
        <ele>546</ele>
        <time>2021-10-02T13:48:23.576Z</time>
      </trkpt>
      <trkpt lat="45.42745" lon="5.5024">
        <ele>545</ele>
        <time>2021-10-02T13:48:22.575Z</time>
      </trkpt>
      <trkpt lat="45.4274" lon="5.50248">
        <ele>545</ele>
        <time>2021-10-02T13:48:21.576Z</time>
      </trkpt>
      <trkpt lat="45.42735" lon="5.50257">
        <ele>544</ele>
        <time>2021-10-02T13:48:20.576Z</time>
      </trkpt>
      <trkpt lat="45.42731" lon="5.50264">
        <ele>544</ele>
        <time>2021-10-02T13:48:19.576Z</time>
      </trkpt>
      <trkpt lat="45.42726" lon="5.50274">
        <ele>543</ele>
        <time>2021-10-02T13:48:18.576Z</time>
      </trkpt>
      <trkpt lat="45.42722" lon="5.50283">
        <ele>543</ele>
        <time>2021-10-02T13:48:17.576Z</time>
      </trkpt>
      <trkpt lat="45.42718" lon="5.50292">
        <ele>543</ele>
        <time>2021-10-02T13:48:16.576Z</time>
      </trkpt>
      <trkpt lat="45.42714" lon="5.50301">
        <ele>543</ele>
        <time>2021-10-02T13:48:15.576Z</time>
      </trkpt>
      <trkpt lat="45.42712" lon="5.50311">
        <ele>544</ele>
        <time>2021-10-02T13:48:14.576Z</time>
      </trkpt>
      <trkpt lat="45.42709" lon="5.50321">
        <ele>544</ele>
        <time>2021-10-02T13:48:13.576Z</time>
      </trkpt>
      <trkpt lat="45.42706" lon="5.50329">
        <ele>544</ele>
        <time>2021-10-02T13:48:12.576Z</time>
      </trkpt>
      <trkpt lat="45.42704" lon="5.50337">
        <ele>545</ele>
        <time>2021-10-02T13:48:11.576Z</time>
      </trkpt>
      <trkpt lat="45.42702" lon="5.50344">
        <ele>545</ele>
        <time>2021-10-02T13:48:10.576Z</time>
      </trkpt>
      <trkpt lat="45.427" lon="5.50352">
        <ele>544</ele>
        <time>2021-10-02T13:48:09.576Z</time>
      </trkpt>
      <trkpt lat="45.42699" lon="5.5036">
        <ele>544</ele>
        <time>2021-10-02T13:48:08.576Z</time>
      </trkpt>
      <trkpt lat="45.42698" lon="5.50368">
        <ele>544</ele>
        <time>2021-10-02T13:48:07.576Z</time>
      </trkpt>
      <trkpt lat="45.42697" lon="5.50375">
        <ele>544</ele>
        <time>2021-10-02T13:48:06.575Z</time>
      </trkpt>
      <trkpt lat="45.42696" lon="5.50383">
        <ele>543</ele>
        <time>2021-10-02T13:48:05.576Z</time>
      </trkpt>
      <trkpt lat="45.42696" lon="5.5039">
        <ele>543</ele>
        <time>2021-10-02T13:48:04.576Z</time>
      </trkpt>
      <trkpt lat="45.42695" lon="5.50398">
        <ele>543</ele>
        <time>2021-10-02T13:48:03.576Z</time>
      </trkpt>
      <trkpt lat="45.42695" lon="5.50405">
        <ele>542</ele>
        <time>2021-10-02T13:48:02.576Z</time>
      </trkpt>
      <trkpt lat="45.42695" lon="5.50412">
        <ele>542</ele>
        <time>2021-10-02T13:48:01.576Z</time>
      </trkpt>
      <trkpt lat="45.42695" lon="5.50419">
        <ele>541</ele>
        <time>2021-10-02T13:48:00.576Z</time>
      </trkpt>
      <trkpt lat="45.42694" lon="5.50427">
        <ele>541</ele>
        <time>2021-10-02T13:47:59.575Z</time>
      </trkpt>
      <trkpt lat="45.42694" lon="5.50434">
        <ele>540</ele>
        <time>2021-10-02T13:47:58.576Z</time>
      </trkpt>
      <trkpt lat="45.42693" lon="5.50441">
        <ele>540</ele>
        <time>2021-10-02T13:47:57.576Z</time>
      </trkpt>
      <trkpt lat="45.42692" lon="5.50449">
        <ele>539</ele>
        <time>2021-10-02T13:47:56.576Z</time>
      </trkpt>
      <trkpt lat="45.42692" lon="5.50457">
        <ele>539</ele>
        <time>2021-10-02T13:47:55.576Z</time>
      </trkpt>
      <trkpt lat="45.42692" lon="5.50464">
        <ele>538</ele>
        <time>2021-10-02T13:47:54.576Z</time>
      </trkpt>
      <trkpt lat="45.42691" lon="5.50471">
        <ele>538</ele>
        <time>2021-10-02T13:47:53.576Z</time>
      </trkpt>
      <trkpt lat="45.42691" lon="5.50479">
        <ele>537</ele>
        <time>2021-10-02T13:47:52.575Z</time>
      </trkpt>
      <trkpt lat="45.4269" lon="5.50486">
        <ele>537</ele>
        <time>2021-10-02T13:47:51.576Z</time>
      </trkpt>
      <trkpt lat="45.42689" lon="5.50494">
        <ele>537</ele>
        <time>2021-10-02T13:47:50.576Z</time>
      </trkpt>
      <trkpt lat="45.42689" lon="5.50502">
        <ele>537</ele>
        <time>2021-10-02T13:47:49.576Z</time>
      </trkpt>
      <trkpt lat="45.42688" lon="5.5051">
        <ele>537</ele>
        <time>2021-10-02T13:47:48.576Z</time>
      </trkpt>
      <trkpt lat="45.42688" lon="5.50519">
        <ele>537</ele>
        <time>2021-10-02T13:47:47.576Z</time>
      </trkpt>
      <trkpt lat="45.42687" lon="5.50527">
        <ele>537</ele>
        <time>2021-10-02T13:47:46.576Z</time>
      </trkpt>
      <trkpt lat="45.42687" lon="5.50536">
        <ele>537</ele>
        <time>2021-10-02T13:47:45.575Z</time>
      </trkpt>
      <trkpt lat="45.42686" lon="5.50544">
        <ele>537</ele>
        <time>2021-10-02T13:47:44.575Z</time>
      </trkpt>
      <trkpt lat="45.42686" lon="5.50552">
        <ele>537</ele>
        <time>2021-10-02T13:47:43.576Z</time>
      </trkpt>
      <trkpt lat="45.42685" lon="5.50559">
        <ele>537</ele>
        <time>2021-10-02T13:47:42.576Z</time>
      </trkpt>
      <trkpt lat="45.42684" lon="5.50566">
        <ele>537</ele>
        <time>2021-10-02T13:47:41.576Z</time>
      </trkpt>
      <trkpt lat="45.42683" lon="5.50572">
        <ele>538</ele>
        <time>2021-10-02T13:47:40.576Z</time>
      </trkpt>
      <trkpt lat="45.42682" lon="5.50578">
        <ele>539</ele>
        <time>2021-10-02T13:47:39.576Z</time>
      </trkpt>
      <trkpt lat="45.4268" lon="5.50584">
        <ele>540</ele>
        <time>2021-10-02T13:47:38.575Z</time>
      </trkpt>
      <trkpt lat="45.42678" lon="5.50589">
        <ele>540</ele>
        <time>2021-10-02T13:47:37.576Z</time>
      </trkpt>
      <trkpt lat="45.42676" lon="5.50594">
        <ele>541</ele>
        <time>2021-10-02T13:47:36.576Z</time>
      </trkpt>
      <trkpt lat="45.42674" lon="5.50599">
        <ele>542</ele>
        <time>2021-10-02T13:47:35.576Z</time>
      </trkpt>
      <trkpt lat="45.42671" lon="5.50603">
        <ele>542</ele>
        <time>2021-10-02T13:47:34.575Z</time>
      </trkpt>
      <trkpt lat="45.42669" lon="5.50608">
        <ele>543</ele>
        <time>2021-10-02T13:47:33.575Z</time>
      </trkpt>
      <trkpt lat="45.42667" lon="5.50612">
        <ele>543</ele>
        <time>2021-10-02T13:47:32.576Z</time>
      </trkpt>
      <trkpt lat="45.42664" lon="5.50617">
        <ele>543</ele>
        <time>2021-10-02T13:47:31.575Z</time>
      </trkpt>
      <trkpt lat="45.42661" lon="5.50621">
        <ele>543</ele>
        <time>2021-10-02T13:47:30.576Z</time>
      </trkpt>
      <trkpt lat="45.42658" lon="5.50625">
        <ele>543</ele>
        <time>2021-10-02T13:47:29.576Z</time>
      </trkpt>
      <trkpt lat="45.42655" lon="5.5063">
        <ele>543</ele>
        <time>2021-10-02T13:47:28.576Z</time>
      </trkpt>
      <trkpt lat="45.42652" lon="5.50634">
        <ele>543</ele>
        <time>2021-10-02T13:47:27.576Z</time>
      </trkpt>
      <trkpt lat="45.4265" lon="5.50639">
        <ele>543</ele>
        <time>2021-10-02T13:47:26.576Z</time>
      </trkpt>
      <trkpt lat="45.42647" lon="5.50644">
        <ele>543</ele>
        <time>2021-10-02T13:47:25.576Z</time>
      </trkpt>
      <trkpt lat="45.42645" lon="5.50648">
        <ele>544</ele>
        <time>2021-10-02T13:47:24.576Z</time>
      </trkpt>
      <trkpt lat="45.42643" lon="5.50653">
        <ele>544</ele>
        <time>2021-10-02T13:47:23.576Z</time>
      </trkpt>
      <trkpt lat="45.4264" lon="5.50658">
        <ele>544</ele>
        <time>2021-10-02T13:47:22.576Z</time>
      </trkpt>
      <trkpt lat="45.42638" lon="5.50663">
        <ele>543</ele>
        <time>2021-10-02T13:47:21.575Z</time>
      </trkpt>
      <trkpt lat="45.42636" lon="5.50668">
        <ele>543</ele>
        <time>2021-10-02T13:47:20.575Z</time>
      </trkpt>
      <trkpt lat="45.42634" lon="5.50673">
        <ele>543</ele>
        <time>2021-10-02T13:47:19.576Z</time>
      </trkpt>
      <trkpt lat="45.42632" lon="5.50679">
        <ele>542</ele>
        <time>2021-10-02T13:47:18.576Z</time>
      </trkpt>
      <trkpt lat="45.42631" lon="5.50684">
        <ele>542</ele>
        <time>2021-10-02T13:47:17.576Z</time>
      </trkpt>
      <trkpt lat="45.42629" lon="5.5069">
        <ele>542</ele>
        <time>2021-10-02T13:47:16.576Z</time>
      </trkpt>
      <trkpt lat="45.42627" lon="5.50696">
        <ele>541</ele>
        <time>2021-10-02T13:47:15.576Z</time>
      </trkpt>
      <trkpt lat="45.42626" lon="5.50701">
        <ele>541</ele>
        <time>2021-10-02T13:47:14.576Z</time>
      </trkpt>
      <trkpt lat="45.42625" lon="5.50706">
        <ele>541</ele>
        <time>2021-10-02T13:47:13.575Z</time>
      </trkpt>
      <trkpt lat="45.42623" lon="5.50712">
        <ele>542</ele>
        <time>2021-10-02T13:47:12.575Z</time>
      </trkpt>
      <trkpt lat="45.42622" lon="5.50717">
        <ele>542</ele>
        <time>2021-10-02T13:47:11.576Z</time>
      </trkpt>
      <trkpt lat="45.42621" lon="5.50723">
        <ele>542</ele>
        <time>2021-10-02T13:47:10.576Z</time>
      </trkpt>
      <trkpt lat="45.4262" lon="5.5073">
        <ele>542</ele>
        <time>2021-10-02T13:47:09.576Z</time>
      </trkpt>
      <trkpt lat="45.42619" lon="5.50736">
        <ele>542</ele>
        <time>2021-10-02T13:47:08.576Z</time>
      </trkpt>
      <trkpt lat="45.42619" lon="5.50742">
        <ele>541</ele>
        <time>2021-10-02T13:47:07.575Z</time>
      </trkpt>
      <trkpt lat="45.42618" lon="5.50748">
        <ele>540</ele>
        <time>2021-10-02T13:47:06.576Z</time>
      </trkpt>
      <trkpt lat="45.42618" lon="5.50754">
        <ele>539</ele>
        <time>2021-10-02T13:47:05.576Z</time>
      </trkpt>
      <trkpt lat="45.42617" lon="5.50761">
        <ele>539</ele>
        <time>2021-10-02T13:47:04.576Z</time>
      </trkpt>
      <trkpt lat="45.42617" lon="5.50767">
        <ele>538</ele>
        <time>2021-10-02T13:47:03.575Z</time>
      </trkpt>
      <trkpt lat="45.42616" lon="5.50773">
        <ele>536</ele>
        <time>2021-10-02T13:47:02.575Z</time>
      </trkpt>
      <trkpt lat="45.42615" lon="5.5078">
        <ele>536</ele>
        <time>2021-10-02T13:47:01.576Z</time>
      </trkpt>
      <trkpt lat="45.42614" lon="5.50786">
        <ele>535</ele>
        <time>2021-10-02T13:47:00.576Z</time>
      </trkpt>
      <trkpt lat="45.42614" lon="5.50792">
        <ele>534</ele>
        <time>2021-10-02T13:46:59.576Z</time>
      </trkpt>
      <trkpt lat="45.42613" lon="5.50799">
        <ele>533</ele>
        <time>2021-10-02T13:46:58.576Z</time>
      </trkpt>
      <trkpt lat="45.42612" lon="5.50805">
        <ele>533</ele>
        <time>2021-10-02T13:46:57.576Z</time>
      </trkpt>
      <trkpt lat="45.4261" lon="5.50812">
        <ele>532</ele>
        <time>2021-10-02T13:46:56.576Z</time>
      </trkpt>
      <trkpt lat="45.42609" lon="5.50818">
        <ele>532</ele>
        <time>2021-10-02T13:46:55.576Z</time>
      </trkpt>
      <trkpt lat="45.42608" lon="5.50824">
        <ele>532</ele>
        <time>2021-10-02T13:46:54.575Z</time>
      </trkpt>
      <trkpt lat="45.42607" lon="5.5083">
        <ele>531</ele>
        <time>2021-10-02T13:46:53.575Z</time>
      </trkpt>
      <trkpt lat="45.42605" lon="5.50836">
        <ele>531</ele>
        <time>2021-10-02T13:46:52.576Z</time>
      </trkpt>
      <trkpt lat="45.42603" lon="5.50842">
        <ele>531</ele>
        <time>2021-10-02T13:46:51.576Z</time>
      </trkpt>
      <trkpt lat="45.42602" lon="5.50846">
        <ele>531</ele>
        <time>2021-10-02T13:46:50.576Z</time>
      </trkpt>
      <trkpt lat="45.42599" lon="5.50853">
        <ele>531</ele>
        <time>2021-10-02T13:46:49.576Z</time>
      </trkpt>
      <trkpt lat="45.42597" lon="5.50859">
        <ele>531</ele>
        <time>2021-10-02T13:46:48.576Z</time>
      </trkpt>
      <trkpt lat="45.42595" lon="5.50865">
        <ele>531</ele>
        <time>2021-10-02T13:46:47.576Z</time>
      </trkpt>
      <trkpt lat="45.42592" lon="5.50871">
        <ele>531</ele>
        <time>2021-10-02T13:46:46.576Z</time>
      </trkpt>
      <trkpt lat="45.4259" lon="5.50876">
        <ele>531</ele>
        <time>2021-10-02T13:46:45.576Z</time>
      </trkpt>
      <trkpt lat="45.42587" lon="5.50882">
        <ele>531</ele>
        <time>2021-10-02T13:46:44.575Z</time>
      </trkpt>
      <trkpt lat="45.42584" lon="5.50887">
        <ele>531</ele>
        <time>2021-10-02T13:46:43.576Z</time>
      </trkpt>
      <trkpt lat="45.42581" lon="5.50892">
        <ele>531</ele>
        <time>2021-10-02T13:46:42.576Z</time>
      </trkpt>
      <trkpt lat="45.42578" lon="5.50897">
        <ele>531</ele>
        <time>2021-10-02T13:46:41.576Z</time>
      </trkpt>
      <trkpt lat="45.42575" lon="5.50903">
        <ele>531</ele>
        <time>2021-10-02T13:46:40.576Z</time>
      </trkpt>
      <trkpt lat="45.42572" lon="5.50908">
        <ele>531</ele>
        <time>2021-10-02T13:46:39.575Z</time>
      </trkpt>
      <trkpt lat="45.42569" lon="5.50913">
        <ele>531</ele>
        <time>2021-10-02T13:46:38.575Z</time>
      </trkpt>
      <trkpt lat="45.42566" lon="5.50918">
        <ele>531</ele>
        <time>2021-10-02T13:46:37.576Z</time>
      </trkpt>
      <trkpt lat="45.42562" lon="5.50924">
        <ele>531</ele>
        <time>2021-10-02T13:46:36.576Z</time>
      </trkpt>
      <trkpt lat="45.4256" lon="5.5093">
        <ele>531</ele>
        <time>2021-10-02T13:46:35.575Z</time>
      </trkpt>
      <trkpt lat="45.42557" lon="5.50935">
        <ele>531</ele>
        <time>2021-10-02T13:46:34.576Z</time>
      </trkpt>
      <trkpt lat="45.42554" lon="5.50941">
        <ele>531</ele>
        <time>2021-10-02T13:46:33.576Z</time>
      </trkpt>
      <trkpt lat="45.42552" lon="5.50946">
        <ele>530</ele>
        <time>2021-10-02T13:46:32.575Z</time>
      </trkpt>
      <trkpt lat="45.4255" lon="5.50952">
        <ele>530</ele>
        <time>2021-10-02T13:46:31.576Z</time>
      </trkpt>
      <trkpt lat="45.42548" lon="5.50958">
        <ele>530</ele>
        <time>2021-10-02T13:46:30.576Z</time>
      </trkpt>
      <trkpt lat="45.42546" lon="5.50963">
        <ele>530</ele>
        <time>2021-10-02T13:46:29.575Z</time>
      </trkpt>
      <trkpt lat="45.42545" lon="5.50969">
        <ele>530</ele>
        <time>2021-10-02T13:46:28.576Z</time>
      </trkpt>
      <trkpt lat="45.42543" lon="5.50975">
        <ele>529</ele>
        <time>2021-10-02T13:46:27.576Z</time>
      </trkpt>
      <trkpt lat="45.42541" lon="5.50981">
        <ele>529</ele>
        <time>2021-10-02T13:46:26.576Z</time>
      </trkpt>
      <trkpt lat="45.4254" lon="5.50987">
        <ele>529</ele>
        <time>2021-10-02T13:46:25.575Z</time>
      </trkpt>
      <trkpt lat="45.42538" lon="5.50993">
        <ele>528</ele>
        <time>2021-10-02T13:46:24.575Z</time>
      </trkpt>
      <trkpt lat="45.42537" lon="5.50998">
        <ele>528</ele>
        <time>2021-10-02T13:46:23.576Z</time>
      </trkpt>
      <trkpt lat="45.42536" lon="5.51005">
        <ele>528</ele>
        <time>2021-10-02T13:46:22.576Z</time>
      </trkpt>
      <trkpt lat="45.42534" lon="5.5101">
        <ele>527</ele>
        <time>2021-10-02T13:46:21.575Z</time>
      </trkpt>
      <trkpt lat="45.42533" lon="5.51015">
        <ele>527</ele>
        <time>2021-10-02T13:46:20.576Z</time>
      </trkpt>
      <trkpt lat="45.42531" lon="5.5102">
        <ele>527</ele>
        <time>2021-10-02T13:46:19.575Z</time>
      </trkpt>
      <trkpt lat="45.4253" lon="5.51026">
        <ele>526</ele>
        <time>2021-10-02T13:46:18.576Z</time>
      </trkpt>
      <trkpt lat="45.42528" lon="5.51031">
        <ele>526</ele>
        <time>2021-10-02T13:46:17.575Z</time>
      </trkpt>
      <trkpt lat="45.42526" lon="5.51036">
        <ele>525</ele>
        <time>2021-10-02T13:46:16.575Z</time>
      </trkpt>
      <trkpt lat="45.42525" lon="5.51041">
        <ele>524</ele>
        <time>2021-10-02T13:46:15.575Z</time>
      </trkpt>
      <trkpt lat="45.42523" lon="5.51047">
        <ele>523</ele>
        <time>2021-10-02T13:46:14.576Z</time>
      </trkpt>
      <trkpt lat="45.42521" lon="5.51052">
        <ele>522</ele>
        <time>2021-10-02T13:46:13.576Z</time>
      </trkpt>
      <trkpt lat="45.42519" lon="5.51058">
        <ele>522</ele>
        <time>2021-10-02T13:46:12.576Z</time>
      </trkpt>
      <trkpt lat="45.42517" lon="5.51062">
        <ele>521</ele>
        <time>2021-10-02T13:46:11.576Z</time>
      </trkpt>
      <trkpt lat="45.42515" lon="5.51067">
        <ele>521</ele>
        <time>2021-10-02T13:46:10.576Z</time>
      </trkpt>
      <trkpt lat="45.42514" lon="5.51072">
        <ele>520</ele>
        <time>2021-10-02T13:46:09.576Z</time>
      </trkpt>
      <trkpt lat="45.42512" lon="5.51078">
        <ele>520</ele>
        <time>2021-10-02T13:46:08.576Z</time>
      </trkpt>
      <trkpt lat="45.4251" lon="5.51083">
        <ele>519</ele>
        <time>2021-10-02T13:46:07.576Z</time>
      </trkpt>
      <trkpt lat="45.42508" lon="5.51088">
        <ele>520</ele>
        <time>2021-10-02T13:46:06.576Z</time>
      </trkpt>
      <trkpt lat="45.42506" lon="5.51094">
        <ele>520</ele>
        <time>2021-10-02T13:46:05.575Z</time>
      </trkpt>
      <trkpt lat="45.42505" lon="5.51099">
        <ele>520</ele>
        <time>2021-10-02T13:46:04.575Z</time>
      </trkpt>
      <trkpt lat="45.42503" lon="5.51105">
        <ele>519</ele>
        <time>2021-10-02T13:46:03.575Z</time>
      </trkpt>
      <trkpt lat="45.42501" lon="5.5111">
        <ele>519</ele>
        <time>2021-10-02T13:46:02.576Z</time>
      </trkpt>
      <trkpt lat="45.425" lon="5.51116">
        <ele>519</ele>
        <time>2021-10-02T13:46:01.576Z</time>
      </trkpt>
      <trkpt lat="45.42498" lon="5.51121">
        <ele>519</ele>
        <time>2021-10-02T13:46:00.575Z</time>
      </trkpt>
      <trkpt lat="45.42497" lon="5.51127">
        <ele>518</ele>
        <time>2021-10-02T13:45:59.576Z</time>
      </trkpt>
      <trkpt lat="45.42495" lon="5.51132">
        <ele>518</ele>
        <time>2021-10-02T13:45:58.576Z</time>
      </trkpt>
      <trkpt lat="45.42494" lon="5.51138">
        <ele>518</ele>
        <time>2021-10-02T13:45:57.576Z</time>
      </trkpt>
      <trkpt lat="45.42493" lon="5.51143">
        <ele>517</ele>
        <time>2021-10-02T13:45:56.575Z</time>
      </trkpt>
      <trkpt lat="45.42492" lon="5.51149">
        <ele>517</ele>
        <time>2021-10-02T13:45:55.575Z</time>
      </trkpt>
      <trkpt lat="45.42492" lon="5.51154">
        <ele>517</ele>
        <time>2021-10-02T13:45:54.576Z</time>
      </trkpt>
      <trkpt lat="45.42492" lon="5.51159">
        <ele>516</ele>
        <time>2021-10-02T13:45:53.576Z</time>
      </trkpt>
      <trkpt lat="45.42491" lon="5.51164">
        <ele>516</ele>
        <time>2021-10-02T13:45:52.576Z</time>
      </trkpt>
      <trkpt lat="45.42491" lon="5.51169">
        <ele>516</ele>
        <time>2021-10-02T13:45:51.576Z</time>
      </trkpt>
      <trkpt lat="45.42491" lon="5.51174">
        <ele>516</ele>
        <time>2021-10-02T13:45:50.576Z</time>
      </trkpt>
      <trkpt lat="45.42491" lon="5.51179">
        <ele>515</ele>
        <time>2021-10-02T13:45:49.576Z</time>
      </trkpt>
      <trkpt lat="45.42491" lon="5.51184">
        <ele>515</ele>
        <time>2021-10-02T13:45:48.576Z</time>
      </trkpt>
      <trkpt lat="45.42492" lon="5.51189">
        <ele>515</ele>
        <time>2021-10-02T13:45:47.576Z</time>
      </trkpt>
      <trkpt lat="45.42492" lon="5.51194">
        <ele>515</ele>
        <time>2021-10-02T13:45:46.576Z</time>
      </trkpt>
      <trkpt lat="45.42492" lon="5.51199">
        <ele>515</ele>
        <time>2021-10-02T13:45:45.576Z</time>
      </trkpt>
      <trkpt lat="45.42492" lon="5.51204">
        <ele>515</ele>
        <time>2021-10-02T13:45:44.576Z</time>
      </trkpt>
      <trkpt lat="45.42492" lon="5.51209">
        <ele>515</ele>
        <time>2021-10-02T13:45:43.576Z</time>
      </trkpt>
      <trkpt lat="45.42493" lon="5.51214">
        <ele>514</ele>
        <time>2021-10-02T13:45:42.575Z</time>
      </trkpt>
      <trkpt lat="45.42493" lon="5.51219">
        <ele>513</ele>
        <time>2021-10-02T13:45:41.576Z</time>
      </trkpt>
      <trkpt lat="45.42493" lon="5.51224">
        <ele>513</ele>
        <time>2021-10-02T13:45:40.576Z</time>
      </trkpt>
      <trkpt lat="45.42494" lon="5.51229">
        <ele>514</ele>
        <time>2021-10-02T13:45:39.576Z</time>
      </trkpt>
      <trkpt lat="45.42494" lon="5.51234">
        <ele>514</ele>
        <time>2021-10-02T13:45:38.575Z</time>
      </trkpt>
      <trkpt lat="45.42495" lon="5.51239">
        <ele>514</ele>
        <time>2021-10-02T13:45:37.576Z</time>
      </trkpt>
      <trkpt lat="45.42496" lon="5.51244">
        <ele>514</ele>
        <time>2021-10-02T13:45:36.576Z</time>
      </trkpt>
      <trkpt lat="45.42496" lon="5.51248">
        <ele>514</ele>
        <time>2021-10-02T13:45:35.576Z</time>
      </trkpt>
      <trkpt lat="45.42497" lon="5.51253">
        <ele>513</ele>
        <time>2021-10-02T13:45:34.576Z</time>
      </trkpt>
      <trkpt lat="45.42497" lon="5.51258">
        <ele>513</ele>
        <time>2021-10-02T13:45:33.576Z</time>
      </trkpt>
      <trkpt lat="45.42497" lon="5.51263">
        <ele>513</ele>
        <time>2021-10-02T13:45:32.576Z</time>
      </trkpt>
      <trkpt lat="45.42497" lon="5.51267">
        <ele>512</ele>
        <time>2021-10-02T13:45:31.575Z</time>
      </trkpt>
      <trkpt lat="45.42497" lon="5.51271">
        <ele>512</ele>
        <time>2021-10-02T13:45:30.575Z</time>
      </trkpt>
      <trkpt lat="45.42497" lon="5.51275">
        <ele>512</ele>
        <time>2021-10-02T13:45:29.576Z</time>
      </trkpt>
      <trkpt lat="45.42498" lon="5.51279">
        <ele>512</ele>
        <time>2021-10-02T13:45:28.576Z</time>
      </trkpt>
      <trkpt lat="45.42498" lon="5.51284">
        <ele>511</ele>
        <time>2021-10-02T13:45:27.575Z</time>
      </trkpt>
      <trkpt lat="45.42498" lon="5.51289">
        <ele>511</ele>
        <time>2021-10-02T13:45:26.576Z</time>
      </trkpt>
      <trkpt lat="45.42499" lon="5.51294">
        <ele>510</ele>
        <time>2021-10-02T13:45:25.575Z</time>
      </trkpt>
      <trkpt lat="45.42499" lon="5.51299">
        <ele>509</ele>
        <time>2021-10-02T13:45:24.576Z</time>
      </trkpt>
      <trkpt lat="45.42499" lon="5.51304">
        <ele>509</ele>
        <time>2021-10-02T13:45:23.576Z</time>
      </trkpt>
      <trkpt lat="45.42499" lon="5.51309">
        <ele>509</ele>
        <time>2021-10-02T13:45:22.576Z</time>
      </trkpt>
      <trkpt lat="45.42499" lon="5.51314">
        <ele>509</ele>
        <time>2021-10-02T13:45:21.576Z</time>
      </trkpt>
      <trkpt lat="45.425" lon="5.51319">
        <ele>509</ele>
        <time>2021-10-02T13:45:20.576Z</time>
      </trkpt>
      <trkpt lat="45.425" lon="5.51324">
        <ele>508</ele>
        <time>2021-10-02T13:45:19.575Z</time>
      </trkpt>
      <trkpt lat="45.425" lon="5.5133">
        <ele>508</ele>
        <time>2021-10-02T13:45:18.576Z</time>
      </trkpt>
      <trkpt lat="45.425" lon="5.51335">
        <ele>508</ele>
        <time>2021-10-02T13:45:17.575Z</time>
      </trkpt>
      <trkpt lat="45.42501" lon="5.5134">
        <ele>508</ele>
        <time>2021-10-02T13:45:16.576Z</time>
      </trkpt>
      <trkpt lat="45.42501" lon="5.51346">
        <ele>508</ele>
        <time>2021-10-02T13:45:15.576Z</time>
      </trkpt>
      <trkpt lat="45.42501" lon="5.51351">
        <ele>507</ele>
        <time>2021-10-02T13:45:14.576Z</time>
      </trkpt>
      <trkpt lat="45.42502" lon="5.51357">
        <ele>508</ele>
        <time>2021-10-02T13:45:13.576Z</time>
      </trkpt>
      <trkpt lat="45.42502" lon="5.51362">
        <ele>508</ele>
        <time>2021-10-02T13:45:12.576Z</time>
      </trkpt>
      <trkpt lat="45.42502" lon="5.51368">
        <ele>507</ele>
        <time>2021-10-02T13:45:11.576Z</time>
      </trkpt>
      <trkpt lat="45.42502" lon="5.51374">
        <ele>507</ele>
        <time>2021-10-02T13:45:10.576Z</time>
      </trkpt>
      <trkpt lat="45.42503" lon="5.51379">
        <ele>506</ele>
        <time>2021-10-02T13:45:09.575Z</time>
      </trkpt>
      <trkpt lat="45.42503" lon="5.51385">
        <ele>506</ele>
        <time>2021-10-02T13:45:08.576Z</time>
      </trkpt>
      <trkpt lat="45.42503" lon="5.5139">
        <ele>505</ele>
        <time>2021-10-02T13:45:07.575Z</time>
      </trkpt>
      <trkpt lat="45.42503" lon="5.51396">
        <ele>505</ele>
        <time>2021-10-02T13:45:06.576Z</time>
      </trkpt>
      <trkpt lat="45.42503" lon="5.51401">
        <ele>505</ele>
        <time>2021-10-02T13:45:05.576Z</time>
      </trkpt>
      <trkpt lat="45.42504" lon="5.51408">
        <ele>504</ele>
        <time>2021-10-02T13:45:04.576Z</time>
      </trkpt>
      <trkpt lat="45.42504" lon="5.51412">
        <ele>504</ele>
        <time>2021-10-02T13:45:03.576Z</time>
      </trkpt>
      <trkpt lat="45.42504" lon="5.51417">
        <ele>504</ele>
        <time>2021-10-02T13:45:02.576Z</time>
      </trkpt>
      <trkpt lat="45.42505" lon="5.51423">
        <ele>504</ele>
        <time>2021-10-02T13:45:01.576Z</time>
      </trkpt>
      <trkpt lat="45.42505" lon="5.51428">
        <ele>503</ele>
        <time>2021-10-02T13:45:00.576Z</time>
      </trkpt>
      <trkpt lat="45.42505" lon="5.51434">
        <ele>503</ele>
        <time>2021-10-02T13:44:59.576Z</time>
      </trkpt>
      <trkpt lat="45.42506" lon="5.51439">
        <ele>503</ele>
        <time>2021-10-02T13:44:58.575Z</time>
      </trkpt>
      <trkpt lat="45.42506" lon="5.51444">
        <ele>503</ele>
        <time>2021-10-02T13:44:57.575Z</time>
      </trkpt>
      <trkpt lat="45.42506" lon="5.5145">
        <ele>503</ele>
        <time>2021-10-02T13:44:56.576Z</time>
      </trkpt>
      <trkpt lat="45.42507" lon="5.51456">
        <ele>503</ele>
        <time>2021-10-02T13:44:55.576Z</time>
      </trkpt>
      <trkpt lat="45.42507" lon="5.51461">
        <ele>502</ele>
        <time>2021-10-02T13:44:54.575Z</time>
      </trkpt>
      <trkpt lat="45.42507" lon="5.51467">
        <ele>502</ele>
        <time>2021-10-02T13:44:53.576Z</time>
      </trkpt>
      <trkpt lat="45.42507" lon="5.51472">
        <ele>501</ele>
        <time>2021-10-02T13:44:52.576Z</time>
      </trkpt>
      <trkpt lat="45.42508" lon="5.51477">
        <ele>501</ele>
        <time>2021-10-02T13:44:51.576Z</time>
      </trkpt>
      <trkpt lat="45.42508" lon="5.51483">
        <ele>501</ele>
        <time>2021-10-02T13:44:50.576Z</time>
      </trkpt>
      <trkpt lat="45.42508" lon="5.51488">
        <ele>500</ele>
        <time>2021-10-02T13:44:49.576Z</time>
      </trkpt>
      <trkpt lat="45.42509" lon="5.51494">
        <ele>500</ele>
        <time>2021-10-02T13:44:48.576Z</time>
      </trkpt>
      <trkpt lat="45.42509" lon="5.515">
        <ele>500</ele>
        <time>2021-10-02T13:44:47.576Z</time>
      </trkpt>
      <trkpt lat="45.42509" lon="5.51505">
        <ele>500</ele>
        <time>2021-10-02T13:44:46.576Z</time>
      </trkpt>
      <trkpt lat="45.4251" lon="5.51511">
        <ele>499</ele>
        <time>2021-10-02T13:44:45.575Z</time>
      </trkpt>
      <trkpt lat="45.4251" lon="5.51517">
        <ele>499</ele>
        <time>2021-10-02T13:44:44.575Z</time>
      </trkpt>
      <trkpt lat="45.4251" lon="5.51523">
        <ele>499</ele>
        <time>2021-10-02T13:44:43.575Z</time>
      </trkpt>
      <trkpt lat="45.4251" lon="5.51529">
        <ele>499</ele>
        <time>2021-10-02T13:44:42.576Z</time>
      </trkpt>
      <trkpt lat="45.4251" lon="5.51535">
        <ele>499</ele>
        <time>2021-10-02T13:44:41.576Z</time>
      </trkpt>
      <trkpt lat="45.42511" lon="5.51541">
        <ele>499</ele>
        <time>2021-10-02T13:44:40.576Z</time>
      </trkpt>
      <trkpt lat="45.42511" lon="5.51548">
        <ele>499</ele>
        <time>2021-10-02T13:44:39.576Z</time>
      </trkpt>
      <trkpt lat="45.42511" lon="5.51554">
        <ele>499</ele>
        <time>2021-10-02T13:44:38.576Z</time>
      </trkpt>
      <trkpt lat="45.42512" lon="5.51561">
        <ele>498</ele>
        <time>2021-10-02T13:44:37.576Z</time>
      </trkpt>
      <trkpt lat="45.42512" lon="5.51567">
        <ele>498</ele>
        <time>2021-10-02T13:44:36.576Z</time>
      </trkpt>
      <trkpt lat="45.42512" lon="5.51573">
        <ele>498</ele>
        <time>2021-10-02T13:44:35.575Z</time>
      </trkpt>
      <trkpt lat="45.42512" lon="5.5158">
        <ele>498</ele>
        <time>2021-10-02T13:44:34.575Z</time>
      </trkpt>
      <trkpt lat="45.42512" lon="5.51587">
        <ele>498</ele>
        <time>2021-10-02T13:44:33.575Z</time>
      </trkpt>
      <trkpt lat="45.42513" lon="5.51594">
        <ele>498</ele>
        <time>2021-10-02T13:44:32.576Z</time>
      </trkpt>
      <trkpt lat="45.42513" lon="5.51601">
        <ele>498</ele>
        <time>2021-10-02T13:44:31.576Z</time>
      </trkpt>
      <trkpt lat="45.42512" lon="5.51608">
        <ele>498</ele>
        <time>2021-10-02T13:44:30.575Z</time>
      </trkpt>
      <trkpt lat="45.42512" lon="5.51615">
        <ele>498</ele>
        <time>2021-10-02T13:44:29.576Z</time>
      </trkpt>
      <trkpt lat="45.42513" lon="5.51622">
        <ele>497</ele>
        <time>2021-10-02T13:44:28.576Z</time>
      </trkpt>
      <trkpt lat="45.42512" lon="5.51628">
        <ele>497</ele>
        <time>2021-10-02T13:44:27.576Z</time>
      </trkpt>
      <trkpt lat="45.42512" lon="5.51635">
        <ele>497</ele>
        <time>2021-10-02T13:44:26.575Z</time>
      </trkpt>
      <trkpt lat="45.42511" lon="5.51641">
        <ele>497</ele>
        <time>2021-10-02T13:44:25.576Z</time>
      </trkpt>
      <trkpt lat="45.4251" lon="5.51646">
        <ele>497</ele>
        <time>2021-10-02T13:44:24.576Z</time>
      </trkpt>
      <trkpt lat="45.42509" lon="5.51651">
        <ele>496</ele>
        <time>2021-10-02T13:44:23.575Z</time>
      </trkpt>
      <trkpt lat="45.42508" lon="5.51656">
        <ele>496</ele>
        <time>2021-10-02T13:44:22.575Z</time>
      </trkpt>
      <trkpt lat="45.42508" lon="5.51661">
        <ele>497</ele>
        <time>2021-10-02T13:44:21.576Z</time>
      </trkpt>
      <trkpt lat="45.4251" lon="5.51665">
        <ele>497</ele>
        <time>2021-10-02T13:44:20.576Z</time>
      </trkpt>
      <trkpt lat="45.42513" lon="5.51668">
        <ele>497</ele>
        <time>2021-10-02T13:44:19.576Z</time>
      </trkpt>
      <trkpt lat="45.42518" lon="5.5167">
        <ele>497</ele>
        <time>2021-10-02T13:44:18.576Z</time>
      </trkpt>
      <trkpt lat="45.42524" lon="5.51671">
        <ele>497</ele>
        <time>2021-10-02T13:44:17.576Z</time>
      </trkpt>
      <trkpt lat="45.4253" lon="5.51672">
        <ele>497</ele>
        <time>2021-10-02T13:44:16.576Z</time>
      </trkpt>
      <trkpt lat="45.42537" lon="5.51674">
        <ele>497</ele>
        <time>2021-10-02T13:44:15.576Z</time>
      </trkpt>
      <trkpt lat="45.42543" lon="5.51675">
        <ele>497</ele>
        <time>2021-10-02T13:44:14.575Z</time>
      </trkpt>
      <trkpt lat="45.42549" lon="5.51676">
        <ele>498</ele>
        <time>2021-10-02T13:44:13.576Z</time>
      </trkpt>
      <trkpt lat="45.42555" lon="5.51677">
        <ele>498</ele>
        <time>2021-10-02T13:44:12.576Z</time>
      </trkpt>
      <trkpt lat="45.42561" lon="5.51678">
        <ele>498</ele>
        <time>2021-10-02T13:44:11.576Z</time>
      </trkpt>
      <trkpt lat="45.42567" lon="5.51679">
        <ele>499</ele>
        <time>2021-10-02T13:44:10.576Z</time>
      </trkpt>
      <trkpt lat="45.42572" lon="5.51681">
        <ele>499</ele>
        <time>2021-10-02T13:44:09.575Z</time>
      </trkpt>
      <trkpt lat="45.42578" lon="5.51682">
        <ele>499</ele>
        <time>2021-10-02T13:44:08.576Z</time>
      </trkpt>
      <trkpt lat="45.42583" lon="5.51683">
        <ele>499</ele>
        <time>2021-10-02T13:44:07.576Z</time>
      </trkpt>
      <trkpt lat="45.42589" lon="5.51684">
        <ele>499</ele>
        <time>2021-10-02T13:44:06.575Z</time>
      </trkpt>
      <trkpt lat="45.42594" lon="5.51685">
        <ele>499</ele>
        <time>2021-10-02T13:44:05.576Z</time>
      </trkpt>
      <trkpt lat="45.426" lon="5.51687">
        <ele>499</ele>
        <time>2021-10-02T13:44:04.575Z</time>
      </trkpt>
      <trkpt lat="45.42605" lon="5.51687">
        <ele>499</ele>
        <time>2021-10-02T13:44:03.576Z</time>
      </trkpt>
      <trkpt lat="45.4261" lon="5.51687">
        <ele>499</ele>
        <time>2021-10-02T13:44:02.575Z</time>
      </trkpt>
      <trkpt lat="45.42616" lon="5.51687">
        <ele>499</ele>
        <time>2021-10-02T13:44:01.576Z</time>
      </trkpt>
      <trkpt lat="45.42621" lon="5.51687">
        <ele>499</ele>
        <time>2021-10-02T13:44:00.576Z</time>
      </trkpt>
      <trkpt lat="45.42625" lon="5.51686">
        <ele>499</ele>
        <time>2021-10-02T13:43:59.575Z</time>
      </trkpt>
      <trkpt lat="45.42632" lon="5.51683">
        <ele>499</ele>
        <time>2021-10-02T13:43:58.576Z</time>
      </trkpt>
      <trkpt lat="45.42637" lon="5.5168">
        <ele>499</ele>
        <time>2021-10-02T13:43:57.576Z</time>
      </trkpt>
      <trkpt lat="45.42642" lon="5.51676">
        <ele>499</ele>
        <time>2021-10-02T13:43:56.575Z</time>
      </trkpt>
      <trkpt lat="45.42647" lon="5.51672">
        <ele>499</ele>
        <time>2021-10-02T13:43:55.576Z</time>
      </trkpt>
      <trkpt lat="45.42651" lon="5.51667">
        <ele>499</ele>
        <time>2021-10-02T13:43:54.576Z</time>
      </trkpt>
      <trkpt lat="45.42655" lon="5.51662">
        <ele>499</ele>
        <time>2021-10-02T13:43:53.575Z</time>
      </trkpt>
      <trkpt lat="45.42659" lon="5.51658">
        <ele>499</ele>
        <time>2021-10-02T13:43:52.576Z</time>
      </trkpt>
      <trkpt lat="45.42664" lon="5.51653">
        <ele>499</ele>
        <time>2021-10-02T13:43:51.576Z</time>
      </trkpt>
      <trkpt lat="45.42668" lon="5.51648">
        <ele>499</ele>
        <time>2021-10-02T13:43:50.576Z</time>
      </trkpt>
      <trkpt lat="45.42672" lon="5.51643">
        <ele>500</ele>
        <time>2021-10-02T13:43:49.575Z</time>
      </trkpt>
      <trkpt lat="45.42677" lon="5.51637">
        <ele>500</ele>
        <time>2021-10-02T13:43:48.576Z</time>
      </trkpt>
      <trkpt lat="45.42681" lon="5.51632">
        <ele>500</ele>
        <time>2021-10-02T13:43:47.576Z</time>
      </trkpt>
      <trkpt lat="45.42686" lon="5.51627">
        <ele>500</ele>
        <time>2021-10-02T13:43:46.576Z</time>
      </trkpt>
      <trkpt lat="45.42691" lon="5.51621">
        <ele>500</ele>
        <time>2021-10-02T13:43:45.576Z</time>
      </trkpt>
      <trkpt lat="45.42695" lon="5.51615">
        <ele>500</ele>
        <time>2021-10-02T13:43:44.576Z</time>
      </trkpt>
      <trkpt lat="45.427" lon="5.5161">
        <ele>500</ele>
        <time>2021-10-02T13:43:43.576Z</time>
      </trkpt>
      <trkpt lat="45.42705" lon="5.51605">
        <ele>500</ele>
        <time>2021-10-02T13:43:42.576Z</time>
      </trkpt>
      <trkpt lat="45.4271" lon="5.516">
        <ele>501</ele>
        <time>2021-10-02T13:43:41.575Z</time>
      </trkpt>
      <trkpt lat="45.42714" lon="5.51595">
        <ele>501</ele>
        <time>2021-10-02T13:43:40.576Z</time>
      </trkpt>
      <trkpt lat="45.42719" lon="5.5159">
        <ele>501</ele>
        <time>2021-10-02T13:43:39.576Z</time>
      </trkpt>
      <trkpt lat="45.42723" lon="5.51585">
        <ele>501</ele>
        <time>2021-10-02T13:43:38.575Z</time>
      </trkpt>
      <trkpt lat="45.42727" lon="5.51581">
        <ele>501</ele>
        <time>2021-10-02T13:43:37.576Z</time>
      </trkpt>
      <trkpt lat="45.42732" lon="5.51576">
        <ele>501</ele>
        <time>2021-10-02T13:43:36.576Z</time>
      </trkpt>
      <trkpt lat="45.42736" lon="5.51571">
        <ele>501</ele>
        <time>2021-10-02T13:43:35.576Z</time>
      </trkpt>
      <trkpt lat="45.4274" lon="5.51566">
        <ele>500</ele>
        <time>2021-10-02T13:43:34.576Z</time>
      </trkpt>
      <trkpt lat="45.42744" lon="5.51561">
        <ele>500</ele>
        <time>2021-10-02T13:43:33.576Z</time>
      </trkpt>
      <trkpt lat="45.42748" lon="5.51556">
        <ele>499</ele>
        <time>2021-10-02T13:43:32.575Z</time>
      </trkpt>
      <trkpt lat="45.42752" lon="5.51552">
        <ele>499</ele>
        <time>2021-10-02T13:43:31.576Z</time>
      </trkpt>
      <trkpt lat="45.42756" lon="5.51547">
        <ele>499</ele>
        <time>2021-10-02T13:43:30.576Z</time>
      </trkpt>
      <trkpt lat="45.4276" lon="5.51542">
        <ele>499</ele>
        <time>2021-10-02T13:43:29.576Z</time>
      </trkpt>
      <trkpt lat="45.42765" lon="5.51537">
        <ele>499</ele>
        <time>2021-10-02T13:43:28.576Z</time>
      </trkpt>
      <trkpt lat="45.42769" lon="5.51532">
        <ele>500</ele>
        <time>2021-10-02T13:43:27.576Z</time>
      </trkpt>
      <trkpt lat="45.42773" lon="5.51526">
        <ele>500</ele>
        <time>2021-10-02T13:43:26.576Z</time>
      </trkpt>
      <trkpt lat="45.42778" lon="5.51521">
        <ele>500</ele>
        <time>2021-10-02T13:43:25.575Z</time>
      </trkpt>
      <trkpt lat="45.42782" lon="5.51516">
        <ele>500</ele>
        <time>2021-10-02T13:43:24.576Z</time>
      </trkpt>
      <trkpt lat="45.42787" lon="5.5151">
        <ele>500</ele>
        <time>2021-10-02T13:43:23.576Z</time>
      </trkpt>
      <trkpt lat="45.42791" lon="5.51505">
        <ele>500</ele>
        <time>2021-10-02T13:43:22.576Z</time>
      </trkpt>
      <trkpt lat="45.42796" lon="5.51499">
        <ele>499</ele>
        <time>2021-10-02T13:43:21.576Z</time>
      </trkpt>
      <trkpt lat="45.42801" lon="5.51494">
        <ele>499</ele>
        <time>2021-10-02T13:43:20.575Z</time>
      </trkpt>
      <trkpt lat="45.42805" lon="5.51489">
        <ele>499</ele>
        <time>2021-10-02T13:43:19.575Z</time>
      </trkpt>
      <trkpt lat="45.4281" lon="5.51484">
        <ele>499</ele>
        <time>2021-10-02T13:43:18.576Z</time>
      </trkpt>
      <trkpt lat="45.42814" lon="5.51479">
        <ele>499</ele>
        <time>2021-10-02T13:43:17.576Z</time>
      </trkpt>
      <trkpt lat="45.42819" lon="5.51474">
        <ele>499</ele>
        <time>2021-10-02T13:43:16.575Z</time>
      </trkpt>
      <trkpt lat="45.42823" lon="5.51468">
        <ele>499</ele>
        <time>2021-10-02T13:43:15.575Z</time>
      </trkpt>
      <trkpt lat="45.42827" lon="5.51463">
        <ele>499</ele>
        <time>2021-10-02T13:43:14.576Z</time>
      </trkpt>
      <trkpt lat="45.42832" lon="5.51457">
        <ele>499</ele>
        <time>2021-10-02T13:43:13.575Z</time>
      </trkpt>
      <trkpt lat="45.42835" lon="5.51452">
        <ele>499</ele>
        <time>2021-10-02T13:43:12.575Z</time>
      </trkpt>
      <trkpt lat="45.4284" lon="5.51447">
        <ele>499</ele>
        <time>2021-10-02T13:43:11.576Z</time>
      </trkpt>
      <trkpt lat="45.42843" lon="5.51443">
        <ele>499</ele>
        <time>2021-10-02T13:43:10.575Z</time>
      </trkpt>
      <trkpt lat="45.42845" lon="5.51439">
        <ele>499</ele>
        <time>2021-10-02T13:43:09.576Z</time>
      </trkpt>
      <trkpt lat="45.42848" lon="5.51435">
        <ele>499</ele>
        <time>2021-10-02T13:43:08.576Z</time>
      </trkpt>
      <trkpt lat="45.42849" lon="5.51432">
        <ele>500</ele>
        <time>2021-10-02T13:43:07.576Z</time>
      </trkpt>
      <trkpt lat="45.42849" lon="5.51428">
        <ele>500</ele>
        <time>2021-10-02T13:43:06.575Z</time>
      </trkpt>
      <trkpt lat="45.42848" lon="5.51425">
        <ele>500</ele>
        <time>2021-10-02T13:43:05.576Z</time>
      </trkpt>
      <trkpt lat="45.42846" lon="5.51423">
        <ele>500</ele>
        <time>2021-10-02T13:43:04.575Z</time>
      </trkpt>
      <trkpt lat="45.42845" lon="5.51422">
        <ele>500</ele>
        <time>2021-10-02T13:43:03.576Z</time>
      </trkpt>
      <trkpt lat="45.42844" lon="5.51421">
        <ele>500</ele>
        <time>2021-10-02T13:43:02.576Z</time>
      </trkpt>
      <trkpt lat="45.42844" lon="5.5142">
        <ele>500</ele>
        <time>2021-10-02T13:43:01.575Z</time>
      </trkpt>
      <trkpt lat="45.42845" lon="5.51421">
        <ele>500</ele>
        <time>2021-10-02T13:43:00.576Z</time>
      </trkpt>
      <trkpt lat="45.42846" lon="5.51422">
        <ele>500</ele>
        <time>2021-10-02T13:42:59.575Z</time>
      </trkpt>
      <trkpt lat="45.42847" lon="5.51424">
        <ele>500</ele>
        <time>2021-10-02T13:42:58.576Z</time>
      </trkpt>
      <trkpt lat="45.42847" lon="5.51427">
        <ele>500</ele>
        <time>2021-10-02T13:42:57.576Z</time>
      </trkpt>
      <trkpt lat="45.42847" lon="5.51425">
        <ele>497</ele>
        <time>2021-10-02T13:42:54.575Z</time>
      </trkpt>
      <trkpt lat="45.42847" lon="5.51424">
        <ele>497</ele>
        <time>2021-10-02T13:42:53.575Z</time>
      </trkpt>
      <trkpt lat="45.42848" lon="5.51423">
        <ele>497</ele>
        <time>2021-10-02T13:42:52.575Z</time>
      </trkpt>
      <trkpt lat="45.42849" lon="5.51422">
        <ele>497</ele>
        <time>2021-10-02T13:42:51.575Z</time>
      </trkpt>
      <trkpt lat="45.42851" lon="5.51421">
        <ele>496</ele>
        <time>2021-10-02T13:42:50.575Z</time>
      </trkpt>
      <trkpt lat="45.42853" lon="5.51419">
        <ele>496</ele>
        <time>2021-10-02T13:42:49.575Z</time>
      </trkpt>
      <trkpt lat="45.42856" lon="5.51417">
        <ele>496</ele>
        <time>2021-10-02T13:42:48.575Z</time>
      </trkpt>
      <trkpt lat="45.42859" lon="5.51415">
        <ele>495</ele>
        <time>2021-10-02T13:42:47.575Z</time>
      </trkpt>
      <trkpt lat="45.42862" lon="5.51412">
        <ele>495</ele>
        <time>2021-10-02T13:42:46.575Z</time>
      </trkpt>
      <trkpt lat="45.42864" lon="5.51408">
        <ele>496</ele>
        <time>2021-10-02T13:42:45.575Z</time>
      </trkpt>
      <trkpt lat="45.42866" lon="5.51405">
        <ele>495</ele>
        <time>2021-10-02T13:42:44.575Z</time>
      </trkpt>
      <trkpt lat="45.42868" lon="5.51402">
        <ele>495</ele>
        <time>2021-10-02T13:42:43.574Z</time>
      </trkpt>
      <trkpt lat="45.4287" lon="5.514">
        <ele>495</ele>
        <time>2021-10-02T13:42:42.575Z</time>
      </trkpt>
      <trkpt lat="45.42871" lon="5.514">
        <ele>495</ele>
        <time>2021-10-02T13:42:41.574Z</time>
      </trkpt>
      <trkpt lat="45.42872" lon="5.514">
        <ele>495</ele>
        <time>2021-10-02T13:42:40.574Z</time>
      </trkpt>
      <trkpt lat="45.42873" lon="5.51402">
        <ele>495</ele>
        <time>2021-10-02T13:42:39.574Z</time>
      </trkpt>
      <trkpt lat="45.42874" lon="5.51403">
        <ele>497</ele>
        <time>2021-10-02T13:42:37.575Z</time>
      </trkpt>
      <trkpt lat="45.42874" lon="5.51402">
        <ele>498</ele>
        <time>2021-10-02T13:42:36.575Z</time>
      </trkpt>
      <trkpt lat="45.42874" lon="5.51403">
        <ele>499</ele>
        <time>2021-10-02T13:42:35.574Z</time>
      </trkpt>
      <trkpt lat="45.42875" lon="5.51404">
        <ele>498</ele>
        <time>2021-10-02T13:42:34.575Z</time>
      </trkpt>
      <trkpt lat="45.42877" lon="5.51406">
        <ele>497</ele>
        <time>2021-10-02T13:42:33.575Z</time>
      </trkpt>
      <trkpt lat="45.42879" lon="5.51407">
        <ele>497</ele>
        <time>2021-10-02T13:42:32.574Z</time>
      </trkpt>
      <trkpt lat="45.42882" lon="5.51409">
        <ele>497</ele>
        <time>2021-10-02T13:42:31.575Z</time>
      </trkpt>
      <trkpt lat="45.42885" lon="5.5141">
        <ele>497</ele>
        <time>2021-10-02T13:42:30.575Z</time>
      </trkpt>
      <trkpt lat="45.42888" lon="5.51412">
        <ele>496</ele>
        <time>2021-10-02T13:42:29.575Z</time>
      </trkpt>
      <trkpt lat="45.42892" lon="5.51413">
        <ele>496</ele>
        <time>2021-10-02T13:42:28.574Z</time>
      </trkpt>
      <trkpt lat="45.42896" lon="5.51415">
        <ele>495</ele>
        <time>2021-10-02T13:42:27.574Z</time>
      </trkpt>
      <trkpt lat="45.429" lon="5.51418">
        <ele>496</ele>
        <time>2021-10-02T13:42:26.575Z</time>
      </trkpt>
      <trkpt lat="45.42904" lon="5.5142">
        <ele>496</ele>
        <time>2021-10-02T13:42:25.574Z</time>
      </trkpt>
      <trkpt lat="45.42908" lon="5.51422">
        <ele>495</ele>
        <time>2021-10-02T13:42:24.575Z</time>
      </trkpt>
      <trkpt lat="45.42912" lon="5.51424">
        <ele>495</ele>
        <time>2021-10-02T13:42:23.574Z</time>
      </trkpt>
      <trkpt lat="45.42917" lon="5.51426">
        <ele>494</ele>
        <time>2021-10-02T13:42:22.575Z</time>
      </trkpt>
      <trkpt lat="45.42922" lon="5.51429">
        <ele>494</ele>
        <time>2021-10-02T13:42:21.574Z</time>
      </trkpt>
      <trkpt lat="45.42926" lon="5.51431">
        <ele>495</ele>
        <time>2021-10-02T13:42:20.574Z</time>
      </trkpt>
      <trkpt lat="45.42931" lon="5.51433">
        <ele>495</ele>
        <time>2021-10-02T13:42:19.574Z</time>
      </trkpt>
      <trkpt lat="45.42937" lon="5.51436">
        <ele>495</ele>
        <time>2021-10-02T13:42:18.575Z</time>
      </trkpt>
      <trkpt lat="45.42942" lon="5.51438">
        <ele>495</ele>
        <time>2021-10-02T13:42:17.575Z</time>
      </trkpt>
      <trkpt lat="45.42947" lon="5.51441">
        <ele>494</ele>
        <time>2021-10-02T13:42:16.575Z</time>
      </trkpt>
      <trkpt lat="45.42953" lon="5.51445">
        <ele>494</ele>
        <time>2021-10-02T13:42:15.575Z</time>
      </trkpt>
      <trkpt lat="45.42959" lon="5.51448">
        <ele>494</ele>
        <time>2021-10-02T13:42:14.575Z</time>
      </trkpt>
      <trkpt lat="45.42965" lon="5.51451">
        <ele>494</ele>
        <time>2021-10-02T13:42:13.574Z</time>
      </trkpt>
      <trkpt lat="45.42971" lon="5.51454">
        <ele>494</ele>
        <time>2021-10-02T13:42:12.575Z</time>
      </trkpt>
      <trkpt lat="45.42977" lon="5.51457">
        <ele>494</ele>
        <time>2021-10-02T13:42:11.575Z</time>
      </trkpt>
      <trkpt lat="45.42983" lon="5.51461">
        <ele>494</ele>
        <time>2021-10-02T13:42:10.575Z</time>
      </trkpt>
      <trkpt lat="45.4299" lon="5.51464">
        <ele>494</ele>
        <time>2021-10-02T13:42:09.574Z</time>
      </trkpt>
      <trkpt lat="45.42996" lon="5.51468">
        <ele>494</ele>
        <time>2021-10-02T13:42:08.575Z</time>
      </trkpt>
      <trkpt lat="45.43002" lon="5.51472">
        <ele>494</ele>
        <time>2021-10-02T13:42:07.575Z</time>
      </trkpt>
      <trkpt lat="45.43008" lon="5.51476">
        <ele>494</ele>
        <time>2021-10-02T13:42:06.575Z</time>
      </trkpt>
      <trkpt lat="45.43015" lon="5.51479">
        <ele>494</ele>
        <time>2021-10-02T13:42:05.575Z</time>
      </trkpt>
      <trkpt lat="45.43021" lon="5.51482">
        <ele>495</ele>
        <time>2021-10-02T13:42:04.574Z</time>
      </trkpt>
      <trkpt lat="45.43027" lon="5.51485">
        <ele>495</ele>
        <time>2021-10-02T13:42:03.574Z</time>
      </trkpt>
      <trkpt lat="45.43033" lon="5.51489">
        <ele>495</ele>
        <time>2021-10-02T13:42:02.575Z</time>
      </trkpt>
      <trkpt lat="45.43039" lon="5.51492">
        <ele>494</ele>
        <time>2021-10-02T13:42:01.575Z</time>
      </trkpt>
      <trkpt lat="45.43046" lon="5.51495">
        <ele>494</ele>
        <time>2021-10-02T13:42:00.575Z</time>
      </trkpt>
      <trkpt lat="45.43052" lon="5.51498">
        <ele>494</ele>
        <time>2021-10-02T13:41:59.574Z</time>
      </trkpt>
      <trkpt lat="45.43058" lon="5.51501">
        <ele>494</ele>
        <time>2021-10-02T13:41:58.575Z</time>
      </trkpt>
      <trkpt lat="45.43064" lon="5.51504">
        <ele>494</ele>
        <time>2021-10-02T13:41:57.575Z</time>
      </trkpt>
      <trkpt lat="45.4307" lon="5.51507">
        <ele>494</ele>
        <time>2021-10-02T13:41:56.575Z</time>
      </trkpt>
      <trkpt lat="45.43076" lon="5.5151">
        <ele>494</ele>
        <time>2021-10-02T13:41:55.575Z</time>
      </trkpt>
      <trkpt lat="45.43081" lon="5.51514">
        <ele>494</ele>
        <time>2021-10-02T13:41:54.575Z</time>
      </trkpt>
      <trkpt lat="45.43087" lon="5.51517">
        <ele>494</ele>
        <time>2021-10-02T13:41:53.575Z</time>
      </trkpt>
      <trkpt lat="45.43092" lon="5.5152">
        <ele>494</ele>
        <time>2021-10-02T13:41:52.575Z</time>
      </trkpt>
      <trkpt lat="45.43098" lon="5.51523">
        <ele>494</ele>
        <time>2021-10-02T13:41:51.574Z</time>
      </trkpt>
      <trkpt lat="45.43104" lon="5.51526">
        <ele>493</ele>
        <time>2021-10-02T13:41:50.575Z</time>
      </trkpt>
      <trkpt lat="45.43109" lon="5.5153">
        <ele>493</ele>
        <time>2021-10-02T13:41:49.575Z</time>
      </trkpt>
      <trkpt lat="45.43115" lon="5.51533">
        <ele>493</ele>
        <time>2021-10-02T13:41:48.574Z</time>
      </trkpt>
      <trkpt lat="45.4312" lon="5.51537">
        <ele>494</ele>
        <time>2021-10-02T13:41:47.575Z</time>
      </trkpt>
      <trkpt lat="45.43125" lon="5.5154">
        <ele>494</ele>
        <time>2021-10-02T13:41:46.575Z</time>
      </trkpt>
      <trkpt lat="45.43131" lon="5.51543">
        <ele>494</ele>
        <time>2021-10-02T13:41:45.575Z</time>
      </trkpt>
      <trkpt lat="45.43136" lon="5.51547">
        <ele>495</ele>
        <time>2021-10-02T13:41:44.575Z</time>
      </trkpt>
      <trkpt lat="45.43142" lon="5.5155">
        <ele>495</ele>
        <time>2021-10-02T13:41:43.574Z</time>
      </trkpt>
      <trkpt lat="45.43147" lon="5.51554">
        <ele>496</ele>
        <time>2021-10-02T13:41:42.575Z</time>
      </trkpt>
      <trkpt lat="45.43152" lon="5.51558">
        <ele>496</ele>
        <time>2021-10-02T13:41:41.575Z</time>
      </trkpt>
      <trkpt lat="45.43157" lon="5.51561">
        <ele>496</ele>
        <time>2021-10-02T13:41:40.575Z</time>
      </trkpt>
      <trkpt lat="45.43162" lon="5.51565">
        <ele>496</ele>
        <time>2021-10-02T13:41:39.574Z</time>
      </trkpt>
      <trkpt lat="45.43167" lon="5.51568">
        <ele>496</ele>
        <time>2021-10-02T13:41:38.574Z</time>
      </trkpt>
      <trkpt lat="45.43173" lon="5.51572">
        <ele>496</ele>
        <time>2021-10-02T13:41:37.575Z</time>
      </trkpt>
      <trkpt lat="45.43178" lon="5.51575">
        <ele>495</ele>
        <time>2021-10-02T13:41:36.574Z</time>
      </trkpt>
      <trkpt lat="45.43183" lon="5.51579">
        <ele>495</ele>
        <time>2021-10-02T13:41:35.575Z</time>
      </trkpt>
      <trkpt lat="45.43188" lon="5.51583">
        <ele>495</ele>
        <time>2021-10-02T13:41:34.574Z</time>
      </trkpt>
      <trkpt lat="45.43193" lon="5.51587">
        <ele>495</ele>
        <time>2021-10-02T13:41:33.575Z</time>
      </trkpt>
      <trkpt lat="45.43199" lon="5.51591">
        <ele>495</ele>
        <time>2021-10-02T13:41:32.575Z</time>
      </trkpt>
      <trkpt lat="45.43204" lon="5.51594">
        <ele>495</ele>
        <time>2021-10-02T13:41:31.575Z</time>
      </trkpt>
      <trkpt lat="45.43209" lon="5.51598">
        <ele>495</ele>
        <time>2021-10-02T13:41:30.575Z</time>
      </trkpt>
      <trkpt lat="45.43214" lon="5.51602">
        <ele>495</ele>
        <time>2021-10-02T13:41:29.574Z</time>
      </trkpt>
      <trkpt lat="45.43219" lon="5.51605">
        <ele>495</ele>
        <time>2021-10-02T13:41:28.575Z</time>
      </trkpt>
      <trkpt lat="45.43224" lon="5.51608">
        <ele>495</ele>
        <time>2021-10-02T13:41:27.574Z</time>
      </trkpt>
      <trkpt lat="45.43229" lon="5.51611">
        <ele>495</ele>
        <time>2021-10-02T13:41:26.575Z</time>
      </trkpt>
      <trkpt lat="45.43234" lon="5.51614">
        <ele>495</ele>
        <time>2021-10-02T13:41:25.575Z</time>
      </trkpt>
      <trkpt lat="45.43239" lon="5.51618">
        <ele>494</ele>
        <time>2021-10-02T13:41:24.575Z</time>
      </trkpt>
      <trkpt lat="45.43245" lon="5.51621">
        <ele>494</ele>
        <time>2021-10-02T13:41:23.575Z</time>
      </trkpt>
      <trkpt lat="45.4325" lon="5.51624">
        <ele>494</ele>
        <time>2021-10-02T13:41:22.575Z</time>
      </trkpt>
      <trkpt lat="45.43255" lon="5.51627">
        <ele>494</ele>
        <time>2021-10-02T13:41:21.575Z</time>
      </trkpt>
      <trkpt lat="45.4326" lon="5.5163">
        <ele>494</ele>
        <time>2021-10-02T13:41:20.574Z</time>
      </trkpt>
      <trkpt lat="45.43265" lon="5.51633">
        <ele>493</ele>
        <time>2021-10-02T13:41:19.575Z</time>
      </trkpt>
      <trkpt lat="45.4327" lon="5.51636">
        <ele>494</ele>
        <time>2021-10-02T13:41:18.575Z</time>
      </trkpt>
      <trkpt lat="45.43275" lon="5.51638">
        <ele>494</ele>
        <time>2021-10-02T13:41:17.574Z</time>
      </trkpt>
      <trkpt lat="45.43281" lon="5.5164">
        <ele>494</ele>
        <time>2021-10-02T13:41:16.575Z</time>
      </trkpt>
      <trkpt lat="45.43286" lon="5.51641">
        <ele>494</ele>
        <time>2021-10-02T13:41:15.575Z</time>
      </trkpt>
      <trkpt lat="45.43291" lon="5.51643">
        <ele>494</ele>
        <time>2021-10-02T13:41:14.575Z</time>
      </trkpt>
      <trkpt lat="45.43297" lon="5.51644">
        <ele>493</ele>
        <time>2021-10-02T13:41:13.575Z</time>
      </trkpt>
      <trkpt lat="45.43302" lon="5.51644">
        <ele>493</ele>
        <time>2021-10-02T13:41:12.574Z</time>
      </trkpt>
      <trkpt lat="45.43307" lon="5.51644">
        <ele>493</ele>
        <time>2021-10-02T13:41:11.575Z</time>
      </trkpt>
      <trkpt lat="45.43312" lon="5.51643">
        <ele>493</ele>
        <time>2021-10-02T13:41:10.574Z</time>
      </trkpt>
      <trkpt lat="45.43316" lon="5.51645">
        <ele>493</ele>
        <time>2021-10-02T13:41:09.574Z</time>
      </trkpt>
      <trkpt lat="45.43319" lon="5.51648">
        <ele>494</ele>
        <time>2021-10-02T13:41:08.575Z</time>
      </trkpt>
      <trkpt lat="45.43322" lon="5.51653">
        <ele>494</ele>
        <time>2021-10-02T13:41:07.575Z</time>
      </trkpt>
      <trkpt lat="45.43324" lon="5.51657">
        <ele>494</ele>
        <time>2021-10-02T13:41:06.575Z</time>
      </trkpt>
      <trkpt lat="45.43328" lon="5.51662">
        <ele>494</ele>
        <time>2021-10-02T13:41:05.575Z</time>
      </trkpt>
      <trkpt lat="45.43332" lon="5.51665">
        <ele>494</ele>
        <time>2021-10-02T13:41:04.575Z</time>
      </trkpt>
      <trkpt lat="45.43336" lon="5.51669">
        <ele>494</ele>
        <time>2021-10-02T13:41:03.575Z</time>
      </trkpt>
      <trkpt lat="45.43339" lon="5.51673">
        <ele>493</ele>
        <time>2021-10-02T13:41:02.574Z</time>
      </trkpt>
      <trkpt lat="45.43343" lon="5.51676">
        <ele>493</ele>
        <time>2021-10-02T13:41:01.575Z</time>
      </trkpt>
      <trkpt lat="45.43347" lon="5.5168">
        <ele>494</ele>
        <time>2021-10-02T13:41:00.575Z</time>
      </trkpt>
      <trkpt lat="45.43351" lon="5.51684">
        <ele>494</ele>
        <time>2021-10-02T13:40:59.574Z</time>
      </trkpt>
      <trkpt lat="45.43356" lon="5.51689">
        <ele>494</ele>
        <time>2021-10-02T13:40:58.575Z</time>
      </trkpt>
      <trkpt lat="45.4336" lon="5.51694">
        <ele>494</ele>
        <time>2021-10-02T13:40:57.575Z</time>
      </trkpt>
      <trkpt lat="45.43364" lon="5.517">
        <ele>494</ele>
        <time>2021-10-02T13:40:56.575Z</time>
      </trkpt>
      <trkpt lat="45.43368" lon="5.51706">
        <ele>494</ele>
        <time>2021-10-02T13:40:55.574Z</time>
      </trkpt>
      <trkpt lat="45.43371" lon="5.51713">
        <ele>494</ele>
        <time>2021-10-02T13:40:54.575Z</time>
      </trkpt>
      <trkpt lat="45.43374" lon="5.5172">
        <ele>494</ele>
        <time>2021-10-02T13:40:53.575Z</time>
      </trkpt>
      <trkpt lat="45.43376" lon="5.51727">
        <ele>494</ele>
        <time>2021-10-02T13:40:52.574Z</time>
      </trkpt>
      <trkpt lat="45.43378" lon="5.51735">
        <ele>494</ele>
        <time>2021-10-02T13:40:51.575Z</time>
      </trkpt>
      <trkpt lat="45.4338" lon="5.51743">
        <ele>494</ele>
        <time>2021-10-02T13:40:50.575Z</time>
      </trkpt>
      <trkpt lat="45.43381" lon="5.51752">
        <ele>494</ele>
        <time>2021-10-02T13:40:49.575Z</time>
      </trkpt>
      <trkpt lat="45.43382" lon="5.51761">
        <ele>494</ele>
        <time>2021-10-02T13:40:48.575Z</time>
      </trkpt>
      <trkpt lat="45.43383" lon="5.5177">
        <ele>494</ele>
        <time>2021-10-02T13:40:47.574Z</time>
      </trkpt>
      <trkpt lat="45.43384" lon="5.5178">
        <ele>495</ele>
        <time>2021-10-02T13:40:46.575Z</time>
      </trkpt>
      <trkpt lat="45.43385" lon="5.5179">
        <ele>495</ele>
        <time>2021-10-02T13:40:45.575Z</time>
      </trkpt>
      <trkpt lat="45.43386" lon="5.51801">
        <ele>496</ele>
        <time>2021-10-02T13:40:44.575Z</time>
      </trkpt>
      <trkpt lat="45.43387" lon="5.51812">
        <ele>496</ele>
        <time>2021-10-02T13:40:43.574Z</time>
      </trkpt>
      <trkpt lat="45.43388" lon="5.51824">
        <ele>497</ele>
        <time>2021-10-02T13:40:42.575Z</time>
      </trkpt>
      <trkpt lat="45.43389" lon="5.51836">
        <ele>497</ele>
        <time>2021-10-02T13:40:41.575Z</time>
      </trkpt>
      <trkpt lat="45.4339" lon="5.51848">
        <ele>498</ele>
        <time>2021-10-02T13:40:40.575Z</time>
      </trkpt>
      <trkpt lat="45.43391" lon="5.5186">
        <ele>498</ele>
        <time>2021-10-02T13:40:39.574Z</time>
      </trkpt>
      <trkpt lat="45.43393" lon="5.51872">
        <ele>499</ele>
        <time>2021-10-02T13:40:38.574Z</time>
      </trkpt>
      <trkpt lat="45.43394" lon="5.51885">
        <ele>500</ele>
        <time>2021-10-02T13:40:37.575Z</time>
      </trkpt>
      <trkpt lat="45.43395" lon="5.51898">
        <ele>500</ele>
        <time>2021-10-02T13:40:36.574Z</time>
      </trkpt>
      <trkpt lat="45.43397" lon="5.51911">
        <ele>501</ele>
        <time>2021-10-02T13:40:35.574Z</time>
      </trkpt>
      <trkpt lat="45.43399" lon="5.51924">
        <ele>502</ele>
        <time>2021-10-02T13:40:34.574Z</time>
      </trkpt>
      <trkpt lat="45.43402" lon="5.51936">
        <ele>502</ele>
        <time>2021-10-02T13:40:33.574Z</time>
      </trkpt>
      <trkpt lat="45.43405" lon="5.5195">
        <ele>502</ele>
        <time>2021-10-02T13:40:32.575Z</time>
      </trkpt>
      <trkpt lat="45.43408" lon="5.51963">
        <ele>502</ele>
        <time>2021-10-02T13:40:31.575Z</time>
      </trkpt>
      <trkpt lat="45.43412" lon="5.51975">
        <ele>503</ele>
        <time>2021-10-02T13:40:30.575Z</time>
      </trkpt>
      <trkpt lat="45.43417" lon="5.51986">
        <ele>504</ele>
        <time>2021-10-02T13:40:29.575Z</time>
      </trkpt>
      <trkpt lat="45.43423" lon="5.51997">
        <ele>504</ele>
        <time>2021-10-02T13:40:28.575Z</time>
      </trkpt>
      <trkpt lat="45.4343" lon="5.52007">
        <ele>505</ele>
        <time>2021-10-02T13:40:27.575Z</time>
      </trkpt>
      <trkpt lat="45.43437" lon="5.52016">
        <ele>505</ele>
        <time>2021-10-02T13:40:26.574Z</time>
      </trkpt>
      <trkpt lat="45.43445" lon="5.52024">
        <ele>506</ele>
        <time>2021-10-02T13:40:25.574Z</time>
      </trkpt>
      <trkpt lat="45.43453" lon="5.52032">
        <ele>507</ele>
        <time>2021-10-02T13:40:24.575Z</time>
      </trkpt>
      <trkpt lat="45.43461" lon="5.52039">
        <ele>508</ele>
        <time>2021-10-02T13:40:23.575Z</time>
      </trkpt>
      <trkpt lat="45.43469" lon="5.52046">
        <ele>509</ele>
        <time>2021-10-02T13:40:22.575Z</time>
      </trkpt>
      <trkpt lat="45.43477" lon="5.52054">
        <ele>510</ele>
        <time>2021-10-02T13:40:21.574Z</time>
      </trkpt>
      <trkpt lat="45.43486" lon="5.52062">
        <ele>510</ele>
        <time>2021-10-02T13:40:20.574Z</time>
      </trkpt>
      <trkpt lat="45.43494" lon="5.5207">
        <ele>511</ele>
        <time>2021-10-02T13:40:19.574Z</time>
      </trkpt>
      <trkpt lat="45.43502" lon="5.52078">
        <ele>511</ele>
        <time>2021-10-02T13:40:18.575Z</time>
      </trkpt>
      <trkpt lat="45.4351" lon="5.52087">
        <ele>512</ele>
        <time>2021-10-02T13:40:17.575Z</time>
      </trkpt>
      <trkpt lat="45.43518" lon="5.52096">
        <ele>512</ele>
        <time>2021-10-02T13:40:16.574Z</time>
      </trkpt>
      <trkpt lat="45.43526" lon="5.52105">
        <ele>512</ele>
        <time>2021-10-02T13:40:15.575Z</time>
      </trkpt>
      <trkpt lat="45.43534" lon="5.52114">
        <ele>513</ele>
        <time>2021-10-02T13:40:14.575Z</time>
      </trkpt>
      <trkpt lat="45.43542" lon="5.52122">
        <ele>513</ele>
        <time>2021-10-02T13:40:13.574Z</time>
      </trkpt>
      <trkpt lat="45.4355" lon="5.52132">
        <ele>514</ele>
        <time>2021-10-02T13:40:12.574Z</time>
      </trkpt>
      <trkpt lat="45.43558" lon="5.52141">
        <ele>515</ele>
        <time>2021-10-02T13:40:11.575Z</time>
      </trkpt>
      <trkpt lat="45.43565" lon="5.5215">
        <ele>516</ele>
        <time>2021-10-02T13:40:10.575Z</time>
      </trkpt>
      <trkpt lat="45.43573" lon="5.52159">
        <ele>517</ele>
        <time>2021-10-02T13:40:09.574Z</time>
      </trkpt>
      <trkpt lat="45.43581" lon="5.52167">
        <ele>517</ele>
        <time>2021-10-02T13:40:08.574Z</time>
      </trkpt>
      <trkpt lat="45.43589" lon="5.52175">
        <ele>517</ele>
        <time>2021-10-02T13:40:07.575Z</time>
      </trkpt>
      <trkpt lat="45.43595" lon="5.52181">
        <ele>517</ele>
        <time>2021-10-02T13:40:06.575Z</time>
      </trkpt>
      <trkpt lat="45.43605" lon="5.5219">
        <ele>517</ele>
        <time>2021-10-02T13:40:05.574Z</time>
      </trkpt>
      <trkpt lat="45.43613" lon="5.52197">
        <ele>517</ele>
        <time>2021-10-02T13:40:04.574Z</time>
      </trkpt>
      <trkpt lat="45.43621" lon="5.52204">
        <ele>517</ele>
        <time>2021-10-02T13:40:03.575Z</time>
      </trkpt>
      <trkpt lat="45.43628" lon="5.5221">
        <ele>517</ele>
        <time>2021-10-02T13:40:02.575Z</time>
      </trkpt>
      <trkpt lat="45.43638" lon="5.52219">
        <ele>518</ele>
        <time>2021-10-02T13:40:01.574Z</time>
      </trkpt>
      <trkpt lat="45.43646" lon="5.52225">
        <ele>518</ele>
        <time>2021-10-02T13:40:00.575Z</time>
      </trkpt>
      <trkpt lat="45.43655" lon="5.52232">
        <ele>518</ele>
        <time>2021-10-02T13:39:59.575Z</time>
      </trkpt>
      <trkpt lat="45.43664" lon="5.52239">
        <ele>517</ele>
        <time>2021-10-02T13:39:58.575Z</time>
      </trkpt>
      <trkpt lat="45.43672" lon="5.52246">
        <ele>517</ele>
        <time>2021-10-02T13:39:57.575Z</time>
      </trkpt>
      <trkpt lat="45.43681" lon="5.52252">
        <ele>518</ele>
        <time>2021-10-02T13:39:56.575Z</time>
      </trkpt>
      <trkpt lat="45.43689" lon="5.52258">
        <ele>518</ele>
        <time>2021-10-02T13:39:55.575Z</time>
      </trkpt>
      <trkpt lat="45.43697" lon="5.52263">
        <ele>519</ele>
        <time>2021-10-02T13:39:54.575Z</time>
      </trkpt>
      <trkpt lat="45.43706" lon="5.52269">
        <ele>519</ele>
        <time>2021-10-02T13:39:53.575Z</time>
      </trkpt>
      <trkpt lat="45.43714" lon="5.52276">
        <ele>519</ele>
        <time>2021-10-02T13:39:52.574Z</time>
      </trkpt>
      <trkpt lat="45.43722" lon="5.52282">
        <ele>520</ele>
        <time>2021-10-02T13:39:51.574Z</time>
      </trkpt>
      <trkpt lat="45.43729" lon="5.52288">
        <ele>520</ele>
        <time>2021-10-02T13:39:50.575Z</time>
      </trkpt>
      <trkpt lat="45.43737" lon="5.52294">
        <ele>520</ele>
        <time>2021-10-02T13:39:49.575Z</time>
      </trkpt>
      <trkpt lat="45.43744" lon="5.523">
        <ele>521</ele>
        <time>2021-10-02T13:39:48.574Z</time>
      </trkpt>
      <trkpt lat="45.43752" lon="5.52306">
        <ele>521</ele>
        <time>2021-10-02T13:39:47.574Z</time>
      </trkpt>
      <trkpt lat="45.43758" lon="5.52312">
        <ele>521</ele>
        <time>2021-10-02T13:39:46.575Z</time>
      </trkpt>
      <trkpt lat="45.43765" lon="5.52317">
        <ele>521</ele>
        <time>2021-10-02T13:39:45.574Z</time>
      </trkpt>
      <trkpt lat="45.43772" lon="5.52322">
        <ele>521</ele>
        <time>2021-10-02T13:39:44.574Z</time>
      </trkpt>
      <trkpt lat="45.43779" lon="5.52328">
        <ele>521</ele>
        <time>2021-10-02T13:39:43.574Z</time>
      </trkpt>
      <trkpt lat="45.43785" lon="5.52333">
        <ele>521</ele>
        <time>2021-10-02T13:39:42.575Z</time>
      </trkpt>
      <trkpt lat="45.43791" lon="5.52338">
        <ele>522</ele>
        <time>2021-10-02T13:39:41.575Z</time>
      </trkpt>
      <trkpt lat="45.43797" lon="5.52343">
        <ele>522</ele>
        <time>2021-10-02T13:39:40.575Z</time>
      </trkpt>
      <trkpt lat="45.43803" lon="5.52348">
        <ele>522</ele>
        <time>2021-10-02T13:39:39.574Z</time>
      </trkpt>
      <trkpt lat="45.43808" lon="5.52353">
        <ele>522</ele>
        <time>2021-10-02T13:39:38.574Z</time>
      </trkpt>
      <trkpt lat="45.43814" lon="5.52358">
        <ele>522</ele>
        <time>2021-10-02T13:39:37.574Z</time>
      </trkpt>
      <trkpt lat="45.43819" lon="5.52362">
        <ele>523</ele>
        <time>2021-10-02T13:39:36.575Z</time>
      </trkpt>
      <trkpt lat="45.43824" lon="5.52367">
        <ele>523</ele>
        <time>2021-10-02T13:39:35.575Z</time>
      </trkpt>
      <trkpt lat="45.43829" lon="5.52371">
        <ele>523</ele>
        <time>2021-10-02T13:39:34.574Z</time>
      </trkpt>
      <trkpt lat="45.43833" lon="5.52376">
        <ele>523</ele>
        <time>2021-10-02T13:39:33.574Z</time>
      </trkpt>
      <trkpt lat="45.43838" lon="5.52379">
        <ele>523</ele>
        <time>2021-10-02T13:39:32.575Z</time>
      </trkpt>
      <trkpt lat="45.43842" lon="5.52383">
        <ele>523</ele>
        <time>2021-10-02T13:39:31.574Z</time>
      </trkpt>
      <trkpt lat="45.43846" lon="5.52385">
        <ele>523</ele>
        <time>2021-10-02T13:39:30.574Z</time>
      </trkpt>
      <trkpt lat="45.43851" lon="5.52388">
        <ele>524</ele>
        <time>2021-10-02T13:39:29.575Z</time>
      </trkpt>
      <trkpt lat="45.43855" lon="5.52391">
        <ele>524</ele>
        <time>2021-10-02T13:39:28.574Z</time>
      </trkpt>
      <trkpt lat="45.43859" lon="5.52393">
        <ele>524</ele>
        <time>2021-10-02T13:39:27.574Z</time>
      </trkpt>
      <trkpt lat="45.43863" lon="5.52396">
        <ele>524</ele>
        <time>2021-10-02T13:39:26.575Z</time>
      </trkpt>
      <trkpt lat="45.43867" lon="5.52398">
        <ele>523</ele>
        <time>2021-10-02T13:39:25.575Z</time>
      </trkpt>
      <trkpt lat="45.43871" lon="5.52401">
        <ele>523</ele>
        <time>2021-10-02T13:39:24.575Z</time>
      </trkpt>
      <trkpt lat="45.43874" lon="5.52404">
        <ele>523</ele>
        <time>2021-10-02T13:39:23.575Z</time>
      </trkpt>
      <trkpt lat="45.43878" lon="5.52407">
        <ele>523</ele>
        <time>2021-10-02T13:39:22.575Z</time>
      </trkpt>
      <trkpt lat="45.43881" lon="5.5241">
        <ele>523</ele>
        <time>2021-10-02T13:39:21.575Z</time>
      </trkpt>
      <trkpt lat="45.43885" lon="5.52412">
        <ele>524</ele>
        <time>2021-10-02T13:39:20.574Z</time>
      </trkpt>
      <trkpt lat="45.43889" lon="5.52415">
        <ele>524</ele>
        <time>2021-10-02T13:39:19.574Z</time>
      </trkpt>
      <trkpt lat="45.43893" lon="5.52418">
        <ele>524</ele>
        <time>2021-10-02T13:39:18.575Z</time>
      </trkpt>
      <trkpt lat="45.43896" lon="5.52421">
        <ele>525</ele>
        <time>2021-10-02T13:39:17.575Z</time>
      </trkpt>
      <trkpt lat="45.43899" lon="5.52424">
        <ele>524</ele>
        <time>2021-10-02T13:39:16.575Z</time>
      </trkpt>
      <trkpt lat="45.43903" lon="5.52428">
        <ele>524</ele>
        <time>2021-10-02T13:39:15.575Z</time>
      </trkpt>
      <trkpt lat="45.43906" lon="5.5243">
        <ele>524</ele>
        <time>2021-10-02T13:39:14.574Z</time>
      </trkpt>
      <trkpt lat="45.4391" lon="5.52433">
        <ele>523</ele>
        <time>2021-10-02T13:39:13.574Z</time>
      </trkpt>
      <trkpt lat="45.43914" lon="5.52435">
        <ele>523</ele>
        <time>2021-10-02T13:39:12.575Z</time>
      </trkpt>
      <trkpt lat="45.43917" lon="5.52437">
        <ele>523</ele>
        <time>2021-10-02T13:39:11.575Z</time>
      </trkpt>
      <trkpt lat="45.4392" lon="5.5244">
        <ele>523</ele>
        <time>2021-10-02T13:39:10.575Z</time>
      </trkpt>
      <trkpt lat="45.43924" lon="5.52443">
        <ele>522</ele>
        <time>2021-10-02T13:39:09.574Z</time>
      </trkpt>
      <trkpt lat="45.43927" lon="5.52446">
        <ele>522</ele>
        <time>2021-10-02T13:39:08.574Z</time>
      </trkpt>
      <trkpt lat="45.4393" lon="5.52449">
        <ele>522</ele>
        <time>2021-10-02T13:39:07.575Z</time>
      </trkpt>
      <trkpt lat="45.43933" lon="5.52452">
        <ele>521</ele>
        <time>2021-10-02T13:39:06.575Z</time>
      </trkpt>
      <trkpt lat="45.43936" lon="5.52455">
        <ele>520</ele>
        <time>2021-10-02T13:39:05.575Z</time>
      </trkpt>
      <trkpt lat="45.4394" lon="5.52458">
        <ele>520</ele>
        <time>2021-10-02T13:39:04.575Z</time>
      </trkpt>
      <trkpt lat="45.43943" lon="5.52461">
        <ele>520</ele>
        <time>2021-10-02T13:39:03.575Z</time>
      </trkpt>
      <trkpt lat="45.43946" lon="5.52465">
        <ele>519</ele>
        <time>2021-10-02T13:39:02.574Z</time>
      </trkpt>
      <trkpt lat="45.43949" lon="5.52468">
        <ele>519</ele>
        <time>2021-10-02T13:39:01.574Z</time>
      </trkpt>
      <trkpt lat="45.43952" lon="5.52471">
        <ele>519</ele>
        <time>2021-10-02T13:39:00.575Z</time>
      </trkpt>
      <trkpt lat="45.43955" lon="5.52473">
        <ele>519</ele>
        <time>2021-10-02T13:38:59.575Z</time>
      </trkpt>
      <trkpt lat="45.43958" lon="5.52477">
        <ele>518</ele>
        <time>2021-10-02T13:38:58.574Z</time>
      </trkpt>
      <trkpt lat="45.43961" lon="5.5248">
        <ele>518</ele>
        <time>2021-10-02T13:38:57.575Z</time>
      </trkpt>
      <trkpt lat="45.43964" lon="5.52483">
        <ele>518</ele>
        <time>2021-10-02T13:38:56.575Z</time>
      </trkpt>
      <trkpt lat="45.43967" lon="5.52486">
        <ele>517</ele>
        <time>2021-10-02T13:38:55.575Z</time>
      </trkpt>
      <trkpt lat="45.4397" lon="5.52489">
        <ele>517</ele>
        <time>2021-10-02T13:38:54.574Z</time>
      </trkpt>
      <trkpt lat="45.43973" lon="5.52492">
        <ele>517</ele>
        <time>2021-10-02T13:38:53.575Z</time>
      </trkpt>
      <trkpt lat="45.43976" lon="5.52494">
        <ele>517</ele>
        <time>2021-10-02T13:38:52.575Z</time>
      </trkpt>
      <trkpt lat="45.4398" lon="5.52497">
        <ele>516</ele>
        <time>2021-10-02T13:38:51.575Z</time>
      </trkpt>
      <trkpt lat="45.43983" lon="5.525">
        <ele>516</ele>
        <time>2021-10-02T13:38:50.575Z</time>
      </trkpt>
      <trkpt lat="45.43986" lon="5.52504">
        <ele>515</ele>
        <time>2021-10-02T13:38:49.575Z</time>
      </trkpt>
      <trkpt lat="45.4399" lon="5.52507">
        <ele>515</ele>
        <time>2021-10-02T13:38:48.575Z</time>
      </trkpt>
      <trkpt lat="45.43994" lon="5.5251">
        <ele>514</ele>
        <time>2021-10-02T13:38:47.574Z</time>
      </trkpt>
      <trkpt lat="45.43997" lon="5.52513">
        <ele>514</ele>
        <time>2021-10-02T13:38:46.574Z</time>
      </trkpt>
      <trkpt lat="45.44001" lon="5.52516">
        <ele>514</ele>
        <time>2021-10-02T13:38:45.575Z</time>
      </trkpt>
      <trkpt lat="45.44004" lon="5.52519">
        <ele>514</ele>
        <time>2021-10-02T13:38:44.575Z</time>
      </trkpt>
      <trkpt lat="45.44008" lon="5.52522">
        <ele>514</ele>
        <time>2021-10-02T13:38:43.574Z</time>
      </trkpt>
      <trkpt lat="45.44012" lon="5.52526">
        <ele>513</ele>
        <time>2021-10-02T13:38:42.575Z</time>
      </trkpt>
      <trkpt lat="45.44016" lon="5.52529">
        <ele>512</ele>
        <time>2021-10-02T13:38:41.575Z</time>
      </trkpt>
      <trkpt lat="45.44019" lon="5.52533">
        <ele>512</ele>
        <time>2021-10-02T13:38:40.574Z</time>
      </trkpt>
      <trkpt lat="45.44023" lon="5.52537">
        <ele>512</ele>
        <time>2021-10-02T13:38:39.575Z</time>
      </trkpt>
      <trkpt lat="45.44027" lon="5.5254">
        <ele>512</ele>
        <time>2021-10-02T13:38:38.574Z</time>
      </trkpt>
      <trkpt lat="45.44031" lon="5.52544">
        <ele>512</ele>
        <time>2021-10-02T13:38:37.575Z</time>
      </trkpt>
      <trkpt lat="45.44034" lon="5.52547">
        <ele>511</ele>
        <time>2021-10-02T13:38:36.574Z</time>
      </trkpt>
      <trkpt lat="45.44038" lon="5.5255">
        <ele>511</ele>
        <time>2021-10-02T13:38:35.575Z</time>
      </trkpt>
      <trkpt lat="45.44041" lon="5.52553">
        <ele>511</ele>
        <time>2021-10-02T13:38:34.575Z</time>
      </trkpt>
      <trkpt lat="45.44045" lon="5.52557">
        <ele>511</ele>
        <time>2021-10-02T13:38:33.575Z</time>
      </trkpt>
      <trkpt lat="45.44049" lon="5.5256">
        <ele>511</ele>
        <time>2021-10-02T13:38:32.575Z</time>
      </trkpt>
      <trkpt lat="45.44053" lon="5.52564">
        <ele>511</ele>
        <time>2021-10-02T13:38:31.575Z</time>
      </trkpt>
      <trkpt lat="45.44056" lon="5.52567">
        <ele>511</ele>
        <time>2021-10-02T13:38:30.574Z</time>
      </trkpt>
      <trkpt lat="45.4406" lon="5.5257">
        <ele>510</ele>
        <time>2021-10-02T13:38:29.575Z</time>
      </trkpt>
      <trkpt lat="45.44064" lon="5.52574">
        <ele>510</ele>
        <time>2021-10-02T13:38:28.575Z</time>
      </trkpt>
      <trkpt lat="45.44067" lon="5.52578">
        <ele>510</ele>
        <time>2021-10-02T13:38:27.574Z</time>
      </trkpt>
      <trkpt lat="45.44071" lon="5.52582">
        <ele>509</ele>
        <time>2021-10-02T13:38:26.575Z</time>
      </trkpt>
      <trkpt lat="45.44074" lon="5.52586">
        <ele>509</ele>
        <time>2021-10-02T13:38:25.574Z</time>
      </trkpt>
      <trkpt lat="45.44078" lon="5.5259">
        <ele>508</ele>
        <time>2021-10-02T13:38:24.575Z</time>
      </trkpt>
      <trkpt lat="45.44082" lon="5.52594">
        <ele>508</ele>
        <time>2021-10-02T13:38:23.574Z</time>
      </trkpt>
      <trkpt lat="45.44085" lon="5.52598">
        <ele>507</ele>
        <time>2021-10-02T13:38:22.575Z</time>
      </trkpt>
      <trkpt lat="45.44089" lon="5.52603">
        <ele>507</ele>
        <time>2021-10-02T13:38:21.575Z</time>
      </trkpt>
      <trkpt lat="45.44092" lon="5.52607">
        <ele>508</ele>
        <time>2021-10-02T13:38:20.575Z</time>
      </trkpt>
      <trkpt lat="45.44096" lon="5.52611">
        <ele>508</ele>
        <time>2021-10-02T13:38:19.575Z</time>
      </trkpt>
      <trkpt lat="45.44099" lon="5.52615">
        <ele>508</ele>
        <time>2021-10-02T13:38:18.575Z</time>
      </trkpt>
      <trkpt lat="45.44103" lon="5.5262">
        <ele>507</ele>
        <time>2021-10-02T13:38:17.574Z</time>
      </trkpt>
      <trkpt lat="45.44107" lon="5.52625">
        <ele>507</ele>
        <time>2021-10-02T13:38:16.575Z</time>
      </trkpt>
      <trkpt lat="45.44111" lon="5.52629">
        <ele>507</ele>
        <time>2021-10-02T13:38:15.575Z</time>
      </trkpt>
      <trkpt lat="45.44114" lon="5.52634">
        <ele>506</ele>
        <time>2021-10-02T13:38:14.575Z</time>
      </trkpt>
      <trkpt lat="45.44118" lon="5.5264">
        <ele>506</ele>
        <time>2021-10-02T13:38:13.575Z</time>
      </trkpt>
      <trkpt lat="45.44122" lon="5.52645">
        <ele>506</ele>
        <time>2021-10-02T13:38:12.574Z</time>
      </trkpt>
      <trkpt lat="45.44126" lon="5.5265">
        <ele>507</ele>
        <time>2021-10-02T13:38:11.575Z</time>
      </trkpt>
      <trkpt lat="45.4413" lon="5.52655">
        <ele>507</ele>
        <time>2021-10-02T13:38:10.575Z</time>
      </trkpt>
      <trkpt lat="45.44132" lon="5.52658">
        <ele>508</ele>
        <time>2021-10-02T13:38:09.575Z</time>
      </trkpt>
      <trkpt lat="45.44134" lon="5.5266">
        <ele>508</ele>
        <time>2021-10-02T13:38:08.575Z</time>
      </trkpt>
      <trkpt lat="45.44136" lon="5.52661">
        <ele>509</ele>
        <time>2021-10-02T13:38:07.575Z</time>
      </trkpt>
      <trkpt lat="45.44138" lon="5.52661">
        <ele>508</ele>
        <time>2021-10-02T13:38:06.575Z</time>
      </trkpt>
      <trkpt lat="45.4414" lon="5.52659">
        <ele>509</ele>
        <time>2021-10-02T13:38:05.575Z</time>
      </trkpt>
      <trkpt lat="45.44142" lon="5.52657">
        <ele>509</ele>
        <time>2021-10-02T13:38:04.575Z</time>
      </trkpt>
      <trkpt lat="45.44145" lon="5.52656">
        <ele>509</ele>
        <time>2021-10-02T13:38:03.574Z</time>
      </trkpt>
      <trkpt lat="45.44148" lon="5.52657">
        <ele>510</ele>
        <time>2021-10-02T13:38:02.575Z</time>
      </trkpt>
      <trkpt lat="45.44151" lon="5.52658">
        <ele>510</ele>
        <time>2021-10-02T13:38:01.574Z</time>
      </trkpt>
      <trkpt lat="45.44154" lon="5.52661">
        <ele>510</ele>
        <time>2021-10-02T13:38:00.575Z</time>
      </trkpt>
      <trkpt lat="45.44157" lon="5.52665">
        <ele>510</ele>
        <time>2021-10-02T13:37:59.575Z</time>
      </trkpt>
      <trkpt lat="45.4416" lon="5.52669">
        <ele>510</ele>
        <time>2021-10-02T13:37:58.575Z</time>
      </trkpt>
      <trkpt lat="45.44162" lon="5.52672">
        <ele>511</ele>
        <time>2021-10-02T13:37:57.575Z</time>
      </trkpt>
      <trkpt lat="45.44165" lon="5.52676">
        <ele>510</ele>
        <time>2021-10-02T13:37:56.575Z</time>
      </trkpt>
      <trkpt lat="45.44167" lon="5.5268">
        <ele>510</ele>
        <time>2021-10-02T13:37:55.575Z</time>
      </trkpt>
      <trkpt lat="45.44169" lon="5.52684">
        <ele>510</ele>
        <time>2021-10-02T13:37:54.575Z</time>
      </trkpt>
      <trkpt lat="45.44171" lon="5.52689">
        <ele>510</ele>
        <time>2021-10-02T13:37:53.575Z</time>
      </trkpt>
      <trkpt lat="45.44173" lon="5.52693">
        <ele>509</ele>
        <time>2021-10-02T13:37:52.574Z</time>
      </trkpt>
      <trkpt lat="45.44174" lon="5.52696">
        <ele>508</ele>
        <time>2021-10-02T13:37:51.574Z</time>
      </trkpt>
      <trkpt lat="45.44176" lon="5.527">
        <ele>508</ele>
        <time>2021-10-02T13:37:50.575Z</time>
      </trkpt>
      <trkpt lat="45.44179" lon="5.52704">
        <ele>507</ele>
        <time>2021-10-02T13:37:49.575Z</time>
      </trkpt>
      <trkpt lat="45.44182" lon="5.52708">
        <ele>507</ele>
        <time>2021-10-02T13:37:48.574Z</time>
      </trkpt>
      <trkpt lat="45.44185" lon="5.52712">
        <ele>507</ele>
        <time>2021-10-02T13:37:47.574Z</time>
      </trkpt>
      <trkpt lat="45.44189" lon="5.52717">
        <ele>506</ele>
        <time>2021-10-02T13:37:46.574Z</time>
      </trkpt>
      <trkpt lat="45.44193" lon="5.52723">
        <ele>506</ele>
        <time>2021-10-02T13:37:45.574Z</time>
      </trkpt>
      <trkpt lat="45.44198" lon="5.52729">
        <ele>506</ele>
        <time>2021-10-02T13:37:44.575Z</time>
      </trkpt>
      <trkpt lat="45.44203" lon="5.52736">
        <ele>507</ele>
        <time>2021-10-02T13:37:43.575Z</time>
      </trkpt>
      <trkpt lat="45.44208" lon="5.52743">
        <ele>508</ele>
        <time>2021-10-02T13:37:42.574Z</time>
      </trkpt>
      <trkpt lat="45.44213" lon="5.5275">
        <ele>508</ele>
        <time>2021-10-02T13:37:41.575Z</time>
      </trkpt>
      <trkpt lat="45.44218" lon="5.52757">
        <ele>509</ele>
        <time>2021-10-02T13:37:40.575Z</time>
      </trkpt>
      <trkpt lat="45.44223" lon="5.52764">
        <ele>510</ele>
        <time>2021-10-02T13:37:39.574Z</time>
      </trkpt>
      <trkpt lat="45.44228" lon="5.52772">
        <ele>510</ele>
        <time>2021-10-02T13:37:38.574Z</time>
      </trkpt>
      <trkpt lat="45.44233" lon="5.5278">
        <ele>511</ele>
        <time>2021-10-02T13:37:37.575Z</time>
      </trkpt>
      <trkpt lat="45.44238" lon="5.52787">
        <ele>511</ele>
        <time>2021-10-02T13:37:36.574Z</time>
      </trkpt>
      <trkpt lat="45.44243" lon="5.52795">
        <ele>511</ele>
        <time>2021-10-02T13:37:35.575Z</time>
      </trkpt>
      <trkpt lat="45.44248" lon="5.52804">
        <ele>511</ele>
        <time>2021-10-02T13:37:34.575Z</time>
      </trkpt>
      <trkpt lat="45.44253" lon="5.52812">
        <ele>511</ele>
        <time>2021-10-02T13:37:33.575Z</time>
      </trkpt>
      <trkpt lat="45.44257" lon="5.5282">
        <ele>511</ele>
        <time>2021-10-02T13:37:32.575Z</time>
      </trkpt>
      <trkpt lat="45.44262" lon="5.52828">
        <ele>510</ele>
        <time>2021-10-02T13:37:31.574Z</time>
      </trkpt>
      <trkpt lat="45.44267" lon="5.52837">
        <ele>509</ele>
        <time>2021-10-02T13:37:30.575Z</time>
      </trkpt>
      <trkpt lat="45.44272" lon="5.52846">
        <ele>509</ele>
        <time>2021-10-02T13:37:29.575Z</time>
      </trkpt>
      <trkpt lat="45.44277" lon="5.52855">
        <ele>508</ele>
        <time>2021-10-02T13:37:28.575Z</time>
      </trkpt>
      <trkpt lat="45.44283" lon="5.52863">
        <ele>508</ele>
        <time>2021-10-02T13:37:27.575Z</time>
      </trkpt>
      <trkpt lat="45.44289" lon="5.52872">
        <ele>508</ele>
        <time>2021-10-02T13:37:26.575Z</time>
      </trkpt>
      <trkpt lat="45.44294" lon="5.5288">
        <ele>508</ele>
        <time>2021-10-02T13:37:25.574Z</time>
      </trkpt>
      <trkpt lat="45.443" lon="5.52889">
        <ele>508</ele>
        <time>2021-10-02T13:37:24.574Z</time>
      </trkpt>
      <trkpt lat="45.44306" lon="5.52897">
        <ele>508</ele>
        <time>2021-10-02T13:37:23.575Z</time>
      </trkpt>
      <trkpt lat="45.44312" lon="5.52905">
        <ele>508</ele>
        <time>2021-10-02T13:37:22.574Z</time>
      </trkpt>
      <trkpt lat="45.44318" lon="5.52913">
        <ele>508</ele>
        <time>2021-10-02T13:37:21.574Z</time>
      </trkpt>
      <trkpt lat="45.44324" lon="5.52921">
        <ele>508</ele>
        <time>2021-10-02T13:37:20.574Z</time>
      </trkpt>
      <trkpt lat="45.4433" lon="5.52929">
        <ele>508</ele>
        <time>2021-10-02T13:37:19.575Z</time>
      </trkpt>
      <trkpt lat="45.44336" lon="5.52938">
        <ele>508</ele>
        <time>2021-10-02T13:37:18.575Z</time>
      </trkpt>
      <trkpt lat="45.44342" lon="5.52946">
        <ele>508</ele>
        <time>2021-10-02T13:37:17.574Z</time>
      </trkpt>
      <trkpt lat="45.44348" lon="5.52954">
        <ele>508</ele>
        <time>2021-10-02T13:37:16.574Z</time>
      </trkpt>
      <trkpt lat="45.44354" lon="5.52961">
        <ele>508</ele>
        <time>2021-10-02T13:37:15.574Z</time>
      </trkpt>
      <trkpt lat="45.4436" lon="5.52969">
        <ele>509</ele>
        <time>2021-10-02T13:37:14.575Z</time>
      </trkpt>
      <trkpt lat="45.44366" lon="5.52977">
        <ele>509</ele>
        <time>2021-10-02T13:37:13.574Z</time>
      </trkpt>
      <trkpt lat="45.44372" lon="5.52985">
        <ele>509</ele>
        <time>2021-10-02T13:37:12.574Z</time>
      </trkpt>
      <trkpt lat="45.44377" lon="5.52993">
        <ele>508</ele>
        <time>2021-10-02T13:37:11.575Z</time>
      </trkpt>
      <trkpt lat="45.44383" lon="5.53">
        <ele>508</ele>
        <time>2021-10-02T13:37:10.574Z</time>
      </trkpt>
      <trkpt lat="45.44389" lon="5.53006">
        <ele>508</ele>
        <time>2021-10-02T13:37:09.575Z</time>
      </trkpt>
      <trkpt lat="45.44395" lon="5.53013">
        <ele>508</ele>
        <time>2021-10-02T13:37:08.575Z</time>
      </trkpt>
      <trkpt lat="45.444" lon="5.53018">
        <ele>508</ele>
        <time>2021-10-02T13:37:07.574Z</time>
      </trkpt>
      <trkpt lat="45.44406" lon="5.53022">
        <ele>508</ele>
        <time>2021-10-02T13:37:06.574Z</time>
      </trkpt>
      <trkpt lat="45.44411" lon="5.53027">
        <ele>508</ele>
        <time>2021-10-02T13:37:05.575Z</time>
      </trkpt>
      <trkpt lat="45.44417" lon="5.53031">
        <ele>509</ele>
        <time>2021-10-02T13:37:04.575Z</time>
      </trkpt>
      <trkpt lat="45.44422" lon="5.53035">
        <ele>509</ele>
        <time>2021-10-02T13:37:03.575Z</time>
      </trkpt>
      <trkpt lat="45.44427" lon="5.53038">
        <ele>509</ele>
        <time>2021-10-02T13:37:02.574Z</time>
      </trkpt>
      <trkpt lat="45.44433" lon="5.53042">
        <ele>509</ele>
        <time>2021-10-02T13:37:01.574Z</time>
      </trkpt>
      <trkpt lat="45.44438" lon="5.53046">
        <ele>509</ele>
        <time>2021-10-02T13:37:00.575Z</time>
      </trkpt>
      <trkpt lat="45.44444" lon="5.5305">
        <ele>509</ele>
        <time>2021-10-02T13:36:59.575Z</time>
      </trkpt>
      <trkpt lat="45.44449" lon="5.53053">
        <ele>508</ele>
        <time>2021-10-02T13:36:58.575Z</time>
      </trkpt>
      <trkpt lat="45.44455" lon="5.53056">
        <ele>508</ele>
        <time>2021-10-02T13:36:57.574Z</time>
      </trkpt>
      <trkpt lat="45.44461" lon="5.53059">
        <ele>508</ele>
        <time>2021-10-02T13:36:56.574Z</time>
      </trkpt>
      <trkpt lat="45.44466" lon="5.53061">
        <ele>508</ele>
        <time>2021-10-02T13:36:55.574Z</time>
      </trkpt>
      <trkpt lat="45.44472" lon="5.53064">
        <ele>509</ele>
        <time>2021-10-02T13:36:54.574Z</time>
      </trkpt>
      <trkpt lat="45.44478" lon="5.53067">
        <ele>508</ele>
        <time>2021-10-02T13:36:53.575Z</time>
      </trkpt>
      <trkpt lat="45.44483" lon="5.5307">
        <ele>508</ele>
        <time>2021-10-02T13:36:52.574Z</time>
      </trkpt>
      <trkpt lat="45.44489" lon="5.53073">
        <ele>508</ele>
        <time>2021-10-02T13:36:51.574Z</time>
      </trkpt>
      <trkpt lat="45.44494" lon="5.53076">
        <ele>509</ele>
        <time>2021-10-02T13:36:50.575Z</time>
      </trkpt>
      <trkpt lat="45.445" lon="5.53078">
        <ele>509</ele>
        <time>2021-10-02T13:36:49.575Z</time>
      </trkpt>
      <trkpt lat="45.44505" lon="5.53081">
        <ele>509</ele>
        <time>2021-10-02T13:36:48.575Z</time>
      </trkpt>
      <trkpt lat="45.4451" lon="5.53084">
        <ele>509</ele>
        <time>2021-10-02T13:36:47.575Z</time>
      </trkpt>
      <trkpt lat="45.44515" lon="5.53086">
        <ele>509</ele>
        <time>2021-10-02T13:36:46.575Z</time>
      </trkpt>
      <trkpt lat="45.44519" lon="5.53089">
        <ele>509</ele>
        <time>2021-10-02T13:36:45.575Z</time>
      </trkpt>
      <trkpt lat="45.44524" lon="5.53091">
        <ele>509</ele>
        <time>2021-10-02T13:36:44.574Z</time>
      </trkpt>
      <trkpt lat="45.44529" lon="5.53093">
        <ele>509</ele>
        <time>2021-10-02T13:36:43.575Z</time>
      </trkpt>
      <trkpt lat="45.44533" lon="5.53095">
        <ele>508</ele>
        <time>2021-10-02T13:36:42.574Z</time>
      </trkpt>
      <trkpt lat="45.44538" lon="5.53097">
        <ele>508</ele>
        <time>2021-10-02T13:36:41.575Z</time>
      </trkpt>
      <trkpt lat="45.44543" lon="5.53099">
        <ele>508</ele>
        <time>2021-10-02T13:36:40.575Z</time>
      </trkpt>
      <trkpt lat="45.44548" lon="5.53101">
        <ele>508</ele>
        <time>2021-10-02T13:36:39.574Z</time>
      </trkpt>
      <trkpt lat="45.44552" lon="5.53103">
        <ele>508</ele>
        <time>2021-10-02T13:36:38.575Z</time>
      </trkpt>
      <trkpt lat="45.44557" lon="5.53106">
        <ele>508</ele>
        <time>2021-10-02T13:36:37.574Z</time>
      </trkpt>
      <trkpt lat="45.44562" lon="5.53109">
        <ele>508</ele>
        <time>2021-10-02T13:36:36.575Z</time>
      </trkpt>
      <trkpt lat="45.44567" lon="5.53111">
        <ele>508</ele>
        <time>2021-10-02T13:36:35.574Z</time>
      </trkpt>
      <trkpt lat="45.44572" lon="5.53114">
        <ele>508</ele>
        <time>2021-10-02T13:36:34.575Z</time>
      </trkpt>
      <trkpt lat="45.44577" lon="5.53116">
        <ele>508</ele>
        <time>2021-10-02T13:36:33.574Z</time>
      </trkpt>
      <trkpt lat="45.44582" lon="5.53119">
        <ele>508</ele>
        <time>2021-10-02T13:36:32.575Z</time>
      </trkpt>
      <trkpt lat="45.44587" lon="5.53122">
        <ele>508</ele>
        <time>2021-10-02T13:36:31.574Z</time>
      </trkpt>
      <trkpt lat="45.44592" lon="5.53126">
        <ele>507</ele>
        <time>2021-10-02T13:36:30.575Z</time>
      </trkpt>
      <trkpt lat="45.44596" lon="5.53129">
        <ele>507</ele>
        <time>2021-10-02T13:36:29.575Z</time>
      </trkpt>
      <trkpt lat="45.446" lon="5.53133">
        <ele>506</ele>
        <time>2021-10-02T13:36:28.575Z</time>
      </trkpt>
      <trkpt lat="45.44604" lon="5.53136">
        <ele>506</ele>
        <time>2021-10-02T13:36:27.574Z</time>
      </trkpt>
      <trkpt lat="45.44608" lon="5.53139">
        <ele>505</ele>
        <time>2021-10-02T13:36:26.575Z</time>
      </trkpt>
      <trkpt lat="45.44612" lon="5.53142">
        <ele>505</ele>
        <time>2021-10-02T13:36:25.574Z</time>
      </trkpt>
      <trkpt lat="45.44616" lon="5.53145">
        <ele>504</ele>
        <time>2021-10-02T13:36:24.575Z</time>
      </trkpt>
      <trkpt lat="45.44621" lon="5.53147">
        <ele>504</ele>
        <time>2021-10-02T13:36:23.575Z</time>
      </trkpt>
      <trkpt lat="45.44625" lon="5.53149">
        <ele>504</ele>
        <time>2021-10-02T13:36:22.575Z</time>
      </trkpt>
      <trkpt lat="45.4463" lon="5.53152">
        <ele>504</ele>
        <time>2021-10-02T13:36:21.575Z</time>
      </trkpt>
      <trkpt lat="45.44635" lon="5.53155">
        <ele>504</ele>
        <time>2021-10-02T13:36:20.575Z</time>
      </trkpt>
      <trkpt lat="45.4464" lon="5.53159">
        <ele>503</ele>
        <time>2021-10-02T13:36:19.574Z</time>
      </trkpt>
      <trkpt lat="45.44645" lon="5.53162">
        <ele>503</ele>
        <time>2021-10-02T13:36:18.575Z</time>
      </trkpt>
      <trkpt lat="45.4465" lon="5.53164">
        <ele>504</ele>
        <time>2021-10-02T13:36:17.575Z</time>
      </trkpt>
      <trkpt lat="45.44654" lon="5.53167">
        <ele>504</ele>
        <time>2021-10-02T13:36:16.575Z</time>
      </trkpt>
      <trkpt lat="45.44659" lon="5.5317">
        <ele>503</ele>
        <time>2021-10-02T13:36:15.575Z</time>
      </trkpt>
      <trkpt lat="45.44664" lon="5.53173">
        <ele>503</ele>
        <time>2021-10-02T13:36:14.575Z</time>
      </trkpt>
      <trkpt lat="45.44669" lon="5.53177">
        <ele>503</ele>
        <time>2021-10-02T13:36:13.575Z</time>
      </trkpt>
      <trkpt lat="45.44674" lon="5.53181">
        <ele>503</ele>
        <time>2021-10-02T13:36:12.574Z</time>
      </trkpt>
      <trkpt lat="45.44678" lon="5.53185">
        <ele>503</ele>
        <time>2021-10-02T13:36:11.575Z</time>
      </trkpt>
      <trkpt lat="45.44683" lon="5.5319">
        <ele>503</ele>
        <time>2021-10-02T13:36:10.575Z</time>
      </trkpt>
      <trkpt lat="45.44689" lon="5.53194">
        <ele>502</ele>
        <time>2021-10-02T13:36:09.575Z</time>
      </trkpt>
      <trkpt lat="45.44694" lon="5.53198">
        <ele>502</ele>
        <time>2021-10-02T13:36:08.575Z</time>
      </trkpt>
      <trkpt lat="45.44699" lon="5.53203">
        <ele>502</ele>
        <time>2021-10-02T13:36:07.574Z</time>
      </trkpt>
      <trkpt lat="45.44703" lon="5.53208">
        <ele>502</ele>
        <time>2021-10-02T13:36:06.575Z</time>
      </trkpt>
      <trkpt lat="45.44708" lon="5.53214">
        <ele>502</ele>
        <time>2021-10-02T13:36:05.575Z</time>
      </trkpt>
      <trkpt lat="45.44713" lon="5.53219">
        <ele>502</ele>
        <time>2021-10-02T13:36:04.575Z</time>
      </trkpt>
      <trkpt lat="45.44718" lon="5.53225">
        <ele>502</ele>
        <time>2021-10-02T13:36:03.574Z</time>
      </trkpt>
      <trkpt lat="45.44723" lon="5.53232">
        <ele>502</ele>
        <time>2021-10-02T13:36:02.574Z</time>
      </trkpt>
      <trkpt lat="45.44728" lon="5.53238">
        <ele>502</ele>
        <time>2021-10-02T13:36:01.575Z</time>
      </trkpt>
      <trkpt lat="45.44732" lon="5.53245">
        <ele>502</ele>
        <time>2021-10-02T13:36:00.575Z</time>
      </trkpt>
      <trkpt lat="45.44737" lon="5.53252">
        <ele>502</ele>
        <time>2021-10-02T13:35:59.575Z</time>
      </trkpt>
      <trkpt lat="45.44742" lon="5.53259">
        <ele>502</ele>
        <time>2021-10-02T13:35:58.575Z</time>
      </trkpt>
      <trkpt lat="45.44746" lon="5.53266">
        <ele>502</ele>
        <time>2021-10-02T13:35:57.575Z</time>
      </trkpt>
      <trkpt lat="45.44751" lon="5.53273">
        <ele>502</ele>
        <time>2021-10-02T13:35:56.575Z</time>
      </trkpt>
      <trkpt lat="45.44755" lon="5.5328">
        <ele>502</ele>
        <time>2021-10-02T13:35:55.574Z</time>
      </trkpt>
      <trkpt lat="45.44758" lon="5.53287">
        <ele>502</ele>
        <time>2021-10-02T13:35:54.575Z</time>
      </trkpt>
      <trkpt lat="45.44762" lon="5.53295">
        <ele>502</ele>
        <time>2021-10-02T13:35:53.575Z</time>
      </trkpt>
      <trkpt lat="45.44766" lon="5.53302">
        <ele>502</ele>
        <time>2021-10-02T13:35:52.575Z</time>
      </trkpt>
      <trkpt lat="45.44769" lon="5.53309">
        <ele>502</ele>
        <time>2021-10-02T13:35:51.574Z</time>
      </trkpt>
      <trkpt lat="45.44773" lon="5.53317">
        <ele>502</ele>
        <time>2021-10-02T13:35:50.574Z</time>
      </trkpt>
      <trkpt lat="45.44775" lon="5.53324">
        <ele>502</ele>
        <time>2021-10-02T13:35:49.575Z</time>
      </trkpt>
      <trkpt lat="45.44778" lon="5.53332">
        <ele>502</ele>
        <time>2021-10-02T13:35:48.574Z</time>
      </trkpt>
      <trkpt lat="45.44781" lon="5.53339">
        <ele>502</ele>
        <time>2021-10-02T13:35:47.574Z</time>
      </trkpt>
      <trkpt lat="45.44784" lon="5.53347">
        <ele>502</ele>
        <time>2021-10-02T13:35:46.575Z</time>
      </trkpt>
      <trkpt lat="45.44787" lon="5.53356">
        <ele>502</ele>
        <time>2021-10-02T13:35:45.574Z</time>
      </trkpt>
      <trkpt lat="45.4479" lon="5.53364">
        <ele>502</ele>
        <time>2021-10-02T13:35:44.574Z</time>
      </trkpt>
      <trkpt lat="45.44792" lon="5.53373">
        <ele>502</ele>
        <time>2021-10-02T13:35:43.575Z</time>
      </trkpt>
      <trkpt lat="45.44795" lon="5.53382">
        <ele>502</ele>
        <time>2021-10-02T13:35:42.575Z</time>
      </trkpt>
      <trkpt lat="45.44798" lon="5.53391">
        <ele>501</ele>
        <time>2021-10-02T13:35:41.574Z</time>
      </trkpt>
      <trkpt lat="45.44801" lon="5.534">
        <ele>501</ele>
        <time>2021-10-02T13:35:40.574Z</time>
      </trkpt>
      <trkpt lat="45.44805" lon="5.5341">
        <ele>502</ele>
        <time>2021-10-02T13:35:39.574Z</time>
      </trkpt>
      <trkpt lat="45.44808" lon="5.5342">
        <ele>502</ele>
        <time>2021-10-02T13:35:38.575Z</time>
      </trkpt>
      <trkpt lat="45.44811" lon="5.53431">
        <ele>503</ele>
        <time>2021-10-02T13:35:37.575Z</time>
      </trkpt>
      <trkpt lat="45.44814" lon="5.53442">
        <ele>503</ele>
        <time>2021-10-02T13:35:36.575Z</time>
      </trkpt>
      <trkpt lat="45.44817" lon="5.53453">
        <ele>504</ele>
        <time>2021-10-02T13:35:35.574Z</time>
      </trkpt>
      <trkpt lat="45.44821" lon="5.53465">
        <ele>504</ele>
        <time>2021-10-02T13:35:34.575Z</time>
      </trkpt>
      <trkpt lat="45.44825" lon="5.53477">
        <ele>504</ele>
        <time>2021-10-02T13:35:33.574Z</time>
      </trkpt>
      <trkpt lat="45.44829" lon="5.5349">
        <ele>505</ele>
        <time>2021-10-02T13:35:32.575Z</time>
      </trkpt>
      <trkpt lat="45.44833" lon="5.53502">
        <ele>505</ele>
        <time>2021-10-02T13:35:31.575Z</time>
      </trkpt>
      <trkpt lat="45.44838" lon="5.53515">
        <ele>506</ele>
        <time>2021-10-02T13:35:30.574Z</time>
      </trkpt>
      <trkpt lat="45.44842" lon="5.53528">
        <ele>507</ele>
        <time>2021-10-02T13:35:29.575Z</time>
      </trkpt>
      <trkpt lat="45.44847" lon="5.53541">
        <ele>507</ele>
        <time>2021-10-02T13:35:28.575Z</time>
      </trkpt>
      <trkpt lat="45.44852" lon="5.53554">
        <ele>508</ele>
        <time>2021-10-02T13:35:27.574Z</time>
      </trkpt>
      <trkpt lat="45.44857" lon="5.53568">
        <ele>508</ele>
        <time>2021-10-02T13:35:26.574Z</time>
      </trkpt>
      <trkpt lat="45.44862" lon="5.53581">
        <ele>509</ele>
        <time>2021-10-02T13:35:25.575Z</time>
      </trkpt>
      <trkpt lat="45.44866" lon="5.53594">
        <ele>509</ele>
        <time>2021-10-02T13:35:24.575Z</time>
      </trkpt>
      <trkpt lat="45.44871" lon="5.53606">
        <ele>510</ele>
        <time>2021-10-02T13:35:23.575Z</time>
      </trkpt>
      <trkpt lat="45.44876" lon="5.53618">
        <ele>510</ele>
        <time>2021-10-02T13:35:22.574Z</time>
      </trkpt>
      <trkpt lat="45.44882" lon="5.53629">
        <ele>511</ele>
        <time>2021-10-02T13:35:21.575Z</time>
      </trkpt>
      <trkpt lat="45.44888" lon="5.53639">
        <ele>512</ele>
        <time>2021-10-02T13:35:20.574Z</time>
      </trkpt>
      <trkpt lat="45.44894" lon="5.53649">
        <ele>512</ele>
        <time>2021-10-02T13:35:19.575Z</time>
      </trkpt>
      <trkpt lat="45.449" lon="5.53659">
        <ele>513</ele>
        <time>2021-10-02T13:35:18.574Z</time>
      </trkpt>
      <trkpt lat="45.44905" lon="5.53669">
        <ele>513</ele>
        <time>2021-10-02T13:35:17.575Z</time>
      </trkpt>
      <trkpt lat="45.44911" lon="5.53679">
        <ele>513</ele>
        <time>2021-10-02T13:35:16.575Z</time>
      </trkpt>
      <trkpt lat="45.44917" lon="5.53689">
        <ele>514</ele>
        <time>2021-10-02T13:35:15.574Z</time>
      </trkpt>
      <trkpt lat="45.44923" lon="5.53698">
        <ele>514</ele>
        <time>2021-10-02T13:35:14.575Z</time>
      </trkpt>
      <trkpt lat="45.44929" lon="5.53708">
        <ele>515</ele>
        <time>2021-10-02T13:35:13.575Z</time>
      </trkpt>
      <trkpt lat="45.44935" lon="5.53717">
        <ele>515</ele>
        <time>2021-10-02T13:35:12.575Z</time>
      </trkpt>
      <trkpt lat="45.44941" lon="5.53726">
        <ele>515</ele>
        <time>2021-10-02T13:35:11.575Z</time>
      </trkpt>
      <trkpt lat="45.44947" lon="5.53734">
        <ele>515</ele>
        <time>2021-10-02T13:35:10.574Z</time>
      </trkpt>
      <trkpt lat="45.44953" lon="5.53743">
        <ele>516</ele>
        <time>2021-10-02T13:35:09.575Z</time>
      </trkpt>
      <trkpt lat="45.44959" lon="5.53751">
        <ele>516</ele>
        <time>2021-10-02T13:35:08.575Z</time>
      </trkpt>
      <trkpt lat="45.44966" lon="5.53758">
        <ele>516</ele>
        <time>2021-10-02T13:35:07.575Z</time>
      </trkpt>
      <trkpt lat="45.44972" lon="5.53766">
        <ele>516</ele>
        <time>2021-10-02T13:35:06.575Z</time>
      </trkpt>
      <trkpt lat="45.44978" lon="5.53774">
        <ele>516</ele>
        <time>2021-10-02T13:35:05.575Z</time>
      </trkpt>
      <trkpt lat="45.44983" lon="5.53781">
        <ele>517</ele>
        <time>2021-10-02T13:35:04.575Z</time>
      </trkpt>
      <trkpt lat="45.44989" lon="5.53789">
        <ele>517</ele>
        <time>2021-10-02T13:35:03.575Z</time>
      </trkpt>
      <trkpt lat="45.44995" lon="5.53796">
        <ele>518</ele>
        <time>2021-10-02T13:35:02.575Z</time>
      </trkpt>
      <trkpt lat="45.45001" lon="5.53803">
        <ele>518</ele>
        <time>2021-10-02T13:35:01.575Z</time>
      </trkpt>
      <trkpt lat="45.45007" lon="5.5381">
        <ele>518</ele>
        <time>2021-10-02T13:35:00.575Z</time>
      </trkpt>
      <trkpt lat="45.45012" lon="5.53818">
        <ele>519</ele>
        <time>2021-10-02T13:34:59.574Z</time>
      </trkpt>
      <trkpt lat="45.45018" lon="5.53826">
        <ele>519</ele>
        <time>2021-10-02T13:34:58.575Z</time>
      </trkpt>
      <trkpt lat="45.45024" lon="5.53833">
        <ele>519</ele>
        <time>2021-10-02T13:34:57.574Z</time>
      </trkpt>
      <trkpt lat="45.45029" lon="5.53841">
        <ele>519</ele>
        <time>2021-10-02T13:34:56.575Z</time>
      </trkpt>
      <trkpt lat="45.45035" lon="5.53849">
        <ele>519</ele>
        <time>2021-10-02T13:34:55.575Z</time>
      </trkpt>
      <trkpt lat="45.45041" lon="5.53856">
        <ele>519</ele>
        <time>2021-10-02T13:34:54.575Z</time>
      </trkpt>
      <trkpt lat="45.45047" lon="5.53864">
        <ele>520</ele>
        <time>2021-10-02T13:34:53.575Z</time>
      </trkpt>
      <trkpt lat="45.45053" lon="5.53872">
        <ele>520</ele>
        <time>2021-10-02T13:34:52.575Z</time>
      </trkpt>
      <trkpt lat="45.45059" lon="5.5388">
        <ele>520</ele>
        <time>2021-10-02T13:34:51.574Z</time>
      </trkpt>
      <trkpt lat="45.45065" lon="5.53888">
        <ele>520</ele>
        <time>2021-10-02T13:34:50.574Z</time>
      </trkpt>
      <trkpt lat="45.45071" lon="5.53896">
        <ele>520</ele>
        <time>2021-10-02T13:34:49.575Z</time>
      </trkpt>
      <trkpt lat="45.45078" lon="5.53904">
        <ele>520</ele>
        <time>2021-10-02T13:34:48.574Z</time>
      </trkpt>
      <trkpt lat="45.45084" lon="5.53913">
        <ele>520</ele>
        <time>2021-10-02T13:34:47.575Z</time>
      </trkpt>
      <trkpt lat="45.45091" lon="5.53921">
        <ele>520</ele>
        <time>2021-10-02T13:34:46.575Z</time>
      </trkpt>
      <trkpt lat="45.45098" lon="5.5393">
        <ele>520</ele>
        <time>2021-10-02T13:34:45.575Z</time>
      </trkpt>
      <trkpt lat="45.45104" lon="5.53938">
        <ele>521</ele>
        <time>2021-10-02T13:34:44.574Z</time>
      </trkpt>
      <trkpt lat="45.45111" lon="5.53947">
        <ele>521</ele>
        <time>2021-10-02T13:34:43.574Z</time>
      </trkpt>
      <trkpt lat="45.45119" lon="5.53955">
        <ele>522</ele>
        <time>2021-10-02T13:34:42.574Z</time>
      </trkpt>
      <trkpt lat="45.45126" lon="5.53963">
        <ele>522</ele>
        <time>2021-10-02T13:34:41.574Z</time>
      </trkpt>
      <trkpt lat="45.45133" lon="5.53971">
        <ele>522</ele>
        <time>2021-10-02T13:34:40.575Z</time>
      </trkpt>
      <trkpt lat="45.45141" lon="5.53979">
        <ele>523</ele>
        <time>2021-10-02T13:34:39.575Z</time>
      </trkpt>
      <trkpt lat="45.45149" lon="5.53987">
        <ele>523</ele>
        <time>2021-10-02T13:34:38.575Z</time>
      </trkpt>
      <trkpt lat="45.45157" lon="5.53995">
        <ele>523</ele>
        <time>2021-10-02T13:34:37.575Z</time>
      </trkpt>
      <trkpt lat="45.45165" lon="5.54002">
        <ele>523</ele>
        <time>2021-10-02T13:34:36.575Z</time>
      </trkpt>
      <trkpt lat="45.45174" lon="5.54008">
        <ele>524</ele>
        <time>2021-10-02T13:34:35.575Z</time>
      </trkpt>
      <trkpt lat="45.45182" lon="5.54014">
        <ele>524</ele>
        <time>2021-10-02T13:34:34.574Z</time>
      </trkpt>
      <trkpt lat="45.45191" lon="5.5402">
        <ele>524</ele>
        <time>2021-10-02T13:34:33.575Z</time>
      </trkpt>
      <trkpt lat="45.45199" lon="5.54026">
        <ele>525</ele>
        <time>2021-10-02T13:34:32.574Z</time>
      </trkpt>
      <trkpt lat="45.45207" lon="5.54031">
        <ele>525</ele>
        <time>2021-10-02T13:34:31.575Z</time>
      </trkpt>
      <trkpt lat="45.45215" lon="5.54037">
        <ele>525</ele>
        <time>2021-10-02T13:34:30.574Z</time>
      </trkpt>
      <trkpt lat="45.45223" lon="5.54042">
        <ele>525</ele>
        <time>2021-10-02T13:34:29.574Z</time>
      </trkpt>
      <trkpt lat="45.4523" lon="5.54047">
        <ele>525</ele>
        <time>2021-10-02T13:34:28.575Z</time>
      </trkpt>
      <trkpt lat="45.45237" lon="5.54052">
        <ele>525</ele>
        <time>2021-10-02T13:34:27.575Z</time>
      </trkpt>
      <trkpt lat="45.45244" lon="5.54057">
        <ele>525</ele>
        <time>2021-10-02T13:34:26.575Z</time>
      </trkpt>
      <trkpt lat="45.4525" lon="5.54062">
        <ele>526</ele>
        <time>2021-10-02T13:34:25.575Z</time>
      </trkpt>
      <trkpt lat="45.45257" lon="5.54066">
        <ele>526</ele>
        <time>2021-10-02T13:34:24.574Z</time>
      </trkpt>
      <trkpt lat="45.45264" lon="5.54072">
        <ele>526</ele>
        <time>2021-10-02T13:34:23.574Z</time>
      </trkpt>
      <trkpt lat="45.45269" lon="5.54075">
        <ele>526</ele>
        <time>2021-10-02T13:34:22.575Z</time>
      </trkpt>
      <trkpt lat="45.45275" lon="5.54079">
        <ele>527</ele>
        <time>2021-10-02T13:34:21.574Z</time>
      </trkpt>
      <trkpt lat="45.45281" lon="5.54083">
        <ele>527</ele>
        <time>2021-10-02T13:34:20.575Z</time>
      </trkpt>
      <trkpt lat="45.45286" lon="5.54087">
        <ele>527</ele>
        <time>2021-10-02T13:34:19.574Z</time>
      </trkpt>
      <trkpt lat="45.45291" lon="5.5409">
        <ele>527</ele>
        <time>2021-10-02T13:34:18.575Z</time>
      </trkpt>
      <trkpt lat="45.45297" lon="5.54094">
        <ele>527</ele>
        <time>2021-10-02T13:34:17.574Z</time>
      </trkpt>
      <trkpt lat="45.45302" lon="5.54097">
        <ele>528</ele>
        <time>2021-10-02T13:34:16.575Z</time>
      </trkpt>
      <trkpt lat="45.45308" lon="5.54101">
        <ele>528</ele>
        <time>2021-10-02T13:34:15.575Z</time>
      </trkpt>
      <trkpt lat="45.45313" lon="5.54105">
        <ele>528</ele>
        <time>2021-10-02T13:34:14.575Z</time>
      </trkpt>
      <trkpt lat="45.45319" lon="5.54109">
        <ele>528</ele>
        <time>2021-10-02T13:34:13.574Z</time>
      </trkpt>
      <trkpt lat="45.45325" lon="5.54113">
        <ele>528</ele>
        <time>2021-10-02T13:34:12.574Z</time>
      </trkpt>
      <trkpt lat="45.45331" lon="5.54116">
        <ele>528</ele>
        <time>2021-10-02T13:34:11.574Z</time>
      </trkpt>
      <trkpt lat="45.45337" lon="5.5412">
        <ele>528</ele>
        <time>2021-10-02T13:34:10.575Z</time>
      </trkpt>
      <trkpt lat="45.45343" lon="5.54124">
        <ele>528</ele>
        <time>2021-10-02T13:34:09.575Z</time>
      </trkpt>
      <trkpt lat="45.45349" lon="5.54128">
        <ele>528</ele>
        <time>2021-10-02T13:34:08.574Z</time>
      </trkpt>
      <trkpt lat="45.45355" lon="5.54132">
        <ele>528</ele>
        <time>2021-10-02T13:34:07.575Z</time>
      </trkpt>
      <trkpt lat="45.45361" lon="5.54136">
        <ele>528</ele>
        <time>2021-10-02T13:34:06.574Z</time>
      </trkpt>
      <trkpt lat="45.45367" lon="5.54141">
        <ele>528</ele>
        <time>2021-10-02T13:34:05.575Z</time>
      </trkpt>
      <trkpt lat="45.45372" lon="5.54145">
        <ele>528</ele>
        <time>2021-10-02T13:34:04.575Z</time>
      </trkpt>
      <trkpt lat="45.45378" lon="5.54149">
        <ele>528</ele>
        <time>2021-10-02T13:34:03.575Z</time>
      </trkpt>
      <trkpt lat="45.45383" lon="5.54154">
        <ele>527</ele>
        <time>2021-10-02T13:34:02.575Z</time>
      </trkpt>
      <trkpt lat="45.45388" lon="5.54159">
        <ele>527</ele>
        <time>2021-10-02T13:34:01.575Z</time>
      </trkpt>
      <trkpt lat="45.45393" lon="5.54164">
        <ele>527</ele>
        <time>2021-10-02T13:34:00.575Z</time>
      </trkpt>
      <trkpt lat="45.45398" lon="5.54169">
        <ele>527</ele>
        <time>2021-10-02T13:33:59.575Z</time>
      </trkpt>
      <trkpt lat="45.45403" lon="5.54175">
        <ele>527</ele>
        <time>2021-10-02T13:33:58.575Z</time>
      </trkpt>
      <trkpt lat="45.45408" lon="5.5418">
        <ele>527</ele>
        <time>2021-10-02T13:33:57.574Z</time>
      </trkpt>
      <trkpt lat="45.45412" lon="5.54185">
        <ele>527</ele>
        <time>2021-10-02T13:33:56.575Z</time>
      </trkpt>
      <trkpt lat="45.45418" lon="5.5419">
        <ele>527</ele>
        <time>2021-10-02T13:33:55.575Z</time>
      </trkpt>
      <trkpt lat="45.45423" lon="5.54195">
        <ele>527</ele>
        <time>2021-10-02T13:33:54.574Z</time>
      </trkpt>
      <trkpt lat="45.45428" lon="5.542">
        <ele>527</ele>
        <time>2021-10-02T13:33:53.575Z</time>
      </trkpt>
      <trkpt lat="45.45433" lon="5.54205">
        <ele>527</ele>
        <time>2021-10-02T13:33:52.575Z</time>
      </trkpt>
      <trkpt lat="45.45438" lon="5.54211">
        <ele>527</ele>
        <time>2021-10-02T13:33:51.575Z</time>
      </trkpt>
      <trkpt lat="45.45442" lon="5.54217">
        <ele>527</ele>
        <time>2021-10-02T13:33:50.575Z</time>
      </trkpt>
      <trkpt lat="45.45447" lon="5.54224">
        <ele>526</ele>
        <time>2021-10-02T13:33:49.574Z</time>
      </trkpt>
      <trkpt lat="45.45451" lon="5.54231">
        <ele>526</ele>
        <time>2021-10-02T13:33:48.575Z</time>
      </trkpt>
      <trkpt lat="45.45455" lon="5.54238">
        <ele>526</ele>
        <time>2021-10-02T13:33:47.575Z</time>
      </trkpt>
      <trkpt lat="45.45459" lon="5.54245">
        <ele>526</ele>
        <time>2021-10-02T13:33:46.574Z</time>
      </trkpt>
      <trkpt lat="45.45463" lon="5.54252">
        <ele>526</ele>
        <time>2021-10-02T13:33:45.575Z</time>
      </trkpt>
      <trkpt lat="45.45467" lon="5.54259">
        <ele>526</ele>
        <time>2021-10-02T13:33:44.575Z</time>
      </trkpt>
      <trkpt lat="45.4547" lon="5.54267">
        <ele>526</ele>
        <time>2021-10-02T13:33:43.575Z</time>
      </trkpt>
      <trkpt lat="45.45473" lon="5.54275">
        <ele>526</ele>
        <time>2021-10-02T13:33:42.575Z</time>
      </trkpt>
      <trkpt lat="45.45474" lon="5.54283">
        <ele>527</ele>
        <time>2021-10-02T13:33:41.574Z</time>
      </trkpt>
      <trkpt lat="45.45475" lon="5.54291">
        <ele>527</ele>
        <time>2021-10-02T13:33:40.575Z</time>
      </trkpt>
      <trkpt lat="45.45476" lon="5.543">
        <ele>527</ele>
        <time>2021-10-02T13:33:39.575Z</time>
      </trkpt>
      <trkpt lat="45.45477" lon="5.54309">
        <ele>527</ele>
        <time>2021-10-02T13:33:38.575Z</time>
      </trkpt>
      <trkpt lat="45.45479" lon="5.54317">
        <ele>527</ele>
        <time>2021-10-02T13:33:37.575Z</time>
      </trkpt>
      <trkpt lat="45.45481" lon="5.54326">
        <ele>527</ele>
        <time>2021-10-02T13:33:36.574Z</time>
      </trkpt>
      <trkpt lat="45.45484" lon="5.54334">
        <ele>527</ele>
        <time>2021-10-02T13:33:35.575Z</time>
      </trkpt>
      <trkpt lat="45.45487" lon="5.54342">
        <ele>527</ele>
        <time>2021-10-02T13:33:34.575Z</time>
      </trkpt>
      <trkpt lat="45.4549" lon="5.54351">
        <ele>526</ele>
        <time>2021-10-02T13:33:33.575Z</time>
      </trkpt>
      <trkpt lat="45.45493" lon="5.54359">
        <ele>526</ele>
        <time>2021-10-02T13:33:32.575Z</time>
      </trkpt>
      <trkpt lat="45.45497" lon="5.54367">
        <ele>526</ele>
        <time>2021-10-02T13:33:31.574Z</time>
      </trkpt>
      <trkpt lat="45.45501" lon="5.54376">
        <ele>525</ele>
        <time>2021-10-02T13:33:30.575Z</time>
      </trkpt>
      <trkpt lat="45.45505" lon="5.54384">
        <ele>525</ele>
        <time>2021-10-02T13:33:29.575Z</time>
      </trkpt>
      <trkpt lat="45.45509" lon="5.54392">
        <ele>525</ele>
        <time>2021-10-02T13:33:28.575Z</time>
      </trkpt>
      <trkpt lat="45.45514" lon="5.544">
        <ele>525</ele>
        <time>2021-10-02T13:33:27.574Z</time>
      </trkpt>
      <trkpt lat="45.45518" lon="5.54408">
        <ele>525</ele>
        <time>2021-10-02T13:33:26.575Z</time>
      </trkpt>
      <trkpt lat="45.45523" lon="5.54416">
        <ele>526</ele>
        <time>2021-10-02T13:33:25.575Z</time>
      </trkpt>
      <trkpt lat="45.45528" lon="5.54424">
        <ele>525</ele>
        <time>2021-10-02T13:33:24.575Z</time>
      </trkpt>
      <trkpt lat="45.45533" lon="5.54432">
        <ele>525</ele>
        <time>2021-10-02T13:33:23.575Z</time>
      </trkpt>
      <trkpt lat="45.45539" lon="5.5444">
        <ele>525</ele>
        <time>2021-10-02T13:33:22.574Z</time>
      </trkpt>
      <trkpt lat="45.45544" lon="5.54446">
        <ele>525</ele>
        <time>2021-10-02T13:33:21.574Z</time>
      </trkpt>
      <trkpt lat="45.45549" lon="5.54454">
        <ele>524</ele>
        <time>2021-10-02T13:33:20.575Z</time>
      </trkpt>
      <trkpt lat="45.45555" lon="5.5446">
        <ele>524</ele>
        <time>2021-10-02T13:33:19.575Z</time>
      </trkpt>
      <trkpt lat="45.45561" lon="5.54466">
        <ele>524</ele>
        <time>2021-10-02T13:33:18.575Z</time>
      </trkpt>
      <trkpt lat="45.45567" lon="5.54472">
        <ele>524</ele>
        <time>2021-10-02T13:33:17.575Z</time>
      </trkpt>
      <trkpt lat="45.45572" lon="5.54477">
        <ele>524</ele>
        <time>2021-10-02T13:33:16.575Z</time>
      </trkpt>
      <trkpt lat="45.45578" lon="5.54482">
        <ele>524</ele>
        <time>2021-10-02T13:33:15.575Z</time>
      </trkpt>
      <trkpt lat="45.45584" lon="5.54486">
        <ele>524</ele>
        <time>2021-10-02T13:33:14.575Z</time>
      </trkpt>
      <trkpt lat="45.4559" lon="5.5449">
        <ele>524</ele>
        <time>2021-10-02T13:33:13.575Z</time>
      </trkpt>
      <trkpt lat="45.45596" lon="5.54494">
        <ele>524</ele>
        <time>2021-10-02T13:33:12.575Z</time>
      </trkpt>
      <trkpt lat="45.45602" lon="5.54497">
        <ele>524</ele>
        <time>2021-10-02T13:33:11.575Z</time>
      </trkpt>
      <trkpt lat="45.45608" lon="5.54501">
        <ele>524</ele>
        <time>2021-10-02T13:33:10.574Z</time>
      </trkpt>
      <trkpt lat="45.45613" lon="5.54504">
        <ele>525</ele>
        <time>2021-10-02T13:33:09.575Z</time>
      </trkpt>
      <trkpt lat="45.45619" lon="5.54508">
        <ele>525</ele>
        <time>2021-10-02T13:33:08.575Z</time>
      </trkpt>
      <trkpt lat="45.45625" lon="5.54511">
        <ele>525</ele>
        <time>2021-10-02T13:33:07.575Z</time>
      </trkpt>
      <trkpt lat="45.45632" lon="5.54514">
        <ele>525</ele>
        <time>2021-10-02T13:33:06.575Z</time>
      </trkpt>
      <trkpt lat="45.45638" lon="5.54517">
        <ele>525</ele>
        <time>2021-10-02T13:33:05.574Z</time>
      </trkpt>
      <trkpt lat="45.45644" lon="5.54519">
        <ele>525</ele>
        <time>2021-10-02T13:33:04.574Z</time>
      </trkpt>
      <trkpt lat="45.45651" lon="5.54522">
        <ele>525</ele>
        <time>2021-10-02T13:33:03.575Z</time>
      </trkpt>
      <trkpt lat="45.45658" lon="5.54524">
        <ele>525</ele>
        <time>2021-10-02T13:33:02.575Z</time>
      </trkpt>
      <trkpt lat="45.45665" lon="5.54527">
        <ele>525</ele>
        <time>2021-10-02T13:33:01.575Z</time>
      </trkpt>
      <trkpt lat="45.45672" lon="5.5453">
        <ele>525</ele>
        <time>2021-10-02T13:33:00.575Z</time>
      </trkpt>
      <trkpt lat="45.45679" lon="5.54532">
        <ele>525</ele>
        <time>2021-10-02T13:32:59.575Z</time>
      </trkpt>
      <trkpt lat="45.45686" lon="5.54535">
        <ele>526</ele>
        <time>2021-10-02T13:32:58.575Z</time>
      </trkpt>
      <trkpt lat="45.45693" lon="5.54537">
        <ele>526</ele>
        <time>2021-10-02T13:32:57.574Z</time>
      </trkpt>
      <trkpt lat="45.45701" lon="5.54538">
        <ele>527</ele>
        <time>2021-10-02T13:32:56.575Z</time>
      </trkpt>
      <trkpt lat="45.45708" lon="5.5454">
        <ele>527</ele>
        <time>2021-10-02T13:32:55.575Z</time>
      </trkpt>
      <trkpt lat="45.45715" lon="5.54542">
        <ele>528</ele>
        <time>2021-10-02T13:32:54.574Z</time>
      </trkpt>
      <trkpt lat="45.45722" lon="5.54544">
        <ele>528</ele>
        <time>2021-10-02T13:32:53.575Z</time>
      </trkpt>
      <trkpt lat="45.45729" lon="5.54546">
        <ele>528</ele>
        <time>2021-10-02T13:32:52.575Z</time>
      </trkpt>
      <trkpt lat="45.45735" lon="5.54549">
        <ele>528</ele>
        <time>2021-10-02T13:32:51.575Z</time>
      </trkpt>
      <trkpt lat="45.45742" lon="5.54551">
        <ele>529</ele>
        <time>2021-10-02T13:32:50.575Z</time>
      </trkpt>
      <trkpt lat="45.45748" lon="5.54553">
        <ele>529</ele>
        <time>2021-10-02T13:32:49.575Z</time>
      </trkpt>
      <trkpt lat="45.45755" lon="5.54555">
        <ele>529</ele>
        <time>2021-10-02T13:32:48.574Z</time>
      </trkpt>
      <trkpt lat="45.45762" lon="5.54558">
        <ele>529</ele>
        <time>2021-10-02T13:32:47.575Z</time>
      </trkpt>
      <trkpt lat="45.45768" lon="5.5456">
        <ele>529</ele>
        <time>2021-10-02T13:32:46.574Z</time>
      </trkpt>
      <trkpt lat="45.45774" lon="5.54563">
        <ele>530</ele>
        <time>2021-10-02T13:32:45.575Z</time>
      </trkpt>
      <trkpt lat="45.45781" lon="5.54566">
        <ele>530</ele>
        <time>2021-10-02T13:32:44.575Z</time>
      </trkpt>
      <trkpt lat="45.45786" lon="5.54569">
        <ele>530</ele>
        <time>2021-10-02T13:32:43.575Z</time>
      </trkpt>
      <trkpt lat="45.45792" lon="5.54571">
        <ele>530</ele>
        <time>2021-10-02T13:32:42.575Z</time>
      </trkpt>
      <trkpt lat="45.45799" lon="5.54574">
        <ele>530</ele>
        <time>2021-10-02T13:32:41.575Z</time>
      </trkpt>
      <trkpt lat="45.45805" lon="5.54575">
        <ele>531</ele>
        <time>2021-10-02T13:32:40.575Z</time>
      </trkpt>
      <trkpt lat="45.45812" lon="5.54577">
        <ele>531</ele>
        <time>2021-10-02T13:32:39.575Z</time>
      </trkpt>
      <trkpt lat="45.45818" lon="5.54579">
        <ele>531</ele>
        <time>2021-10-02T13:32:38.574Z</time>
      </trkpt>
      <trkpt lat="45.45824" lon="5.54581">
        <ele>531</ele>
        <time>2021-10-02T13:32:37.574Z</time>
      </trkpt>
      <trkpt lat="45.45829" lon="5.54584">
        <ele>531</ele>
        <time>2021-10-02T13:32:36.575Z</time>
      </trkpt>
      <trkpt lat="45.45834" lon="5.54588">
        <ele>532</ele>
        <time>2021-10-02T13:32:35.574Z</time>
      </trkpt>
      <trkpt lat="45.4584" lon="5.54592">
        <ele>532</ele>
        <time>2021-10-02T13:32:34.574Z</time>
      </trkpt>
      <trkpt lat="45.45845" lon="5.54596">
        <ele>532</ele>
        <time>2021-10-02T13:32:33.575Z</time>
      </trkpt>
      <trkpt lat="45.4585" lon="5.546">
        <ele>532</ele>
        <time>2021-10-02T13:32:32.575Z</time>
      </trkpt>
      <trkpt lat="45.45855" lon="5.54604">
        <ele>532</ele>
        <time>2021-10-02T13:32:31.574Z</time>
      </trkpt>
      <trkpt lat="45.4586" lon="5.54608">
        <ele>532</ele>
        <time>2021-10-02T13:32:30.575Z</time>
      </trkpt>
      <trkpt lat="45.45865" lon="5.54612">
        <ele>532</ele>
        <time>2021-10-02T13:32:29.575Z</time>
      </trkpt>
      <trkpt lat="45.45871" lon="5.54616">
        <ele>532</ele>
        <time>2021-10-02T13:32:28.575Z</time>
      </trkpt>
      <trkpt lat="45.45876" lon="5.54621">
        <ele>532</ele>
        <time>2021-10-02T13:32:27.575Z</time>
      </trkpt>
      <trkpt lat="45.45881" lon="5.54625">
        <ele>532</ele>
        <time>2021-10-02T13:32:26.574Z</time>
      </trkpt>
      <trkpt lat="45.45886" lon="5.5463">
        <ele>532</ele>
        <time>2021-10-02T13:32:25.575Z</time>
      </trkpt>
      <trkpt lat="45.45891" lon="5.54635">
        <ele>531</ele>
        <time>2021-10-02T13:32:24.575Z</time>
      </trkpt>
      <trkpt lat="45.45895" lon="5.54641">
        <ele>531</ele>
        <time>2021-10-02T13:32:23.575Z</time>
      </trkpt>
      <trkpt lat="45.45899" lon="5.54647">
        <ele>531</ele>
        <time>2021-10-02T13:32:22.574Z</time>
      </trkpt>
      <trkpt lat="45.45903" lon="5.54652">
        <ele>530</ele>
        <time>2021-10-02T13:32:21.575Z</time>
      </trkpt>
      <trkpt lat="45.45907" lon="5.54658">
        <ele>530</ele>
        <time>2021-10-02T13:32:20.575Z</time>
      </trkpt>
      <trkpt lat="45.45911" lon="5.54664">
        <ele>530</ele>
        <time>2021-10-02T13:32:19.575Z</time>
      </trkpt>
      <trkpt lat="45.45916" lon="5.54668">
        <ele>529</ele>
        <time>2021-10-02T13:32:18.575Z</time>
      </trkpt>
      <trkpt lat="45.45922" lon="5.54671">
        <ele>529</ele>
        <time>2021-10-02T13:32:17.575Z</time>
      </trkpt>
      <trkpt lat="45.45927" lon="5.54673">
        <ele>529</ele>
        <time>2021-10-02T13:32:16.575Z</time>
      </trkpt>
      <trkpt lat="45.45933" lon="5.54674">
        <ele>529</ele>
        <time>2021-10-02T13:32:15.574Z</time>
      </trkpt>
      <trkpt lat="45.45939" lon="5.54675">
        <ele>529</ele>
        <time>2021-10-02T13:32:14.574Z</time>
      </trkpt>
      <trkpt lat="45.45945" lon="5.54676">
        <ele>528</ele>
        <time>2021-10-02T13:32:13.575Z</time>
      </trkpt>
      <trkpt lat="45.4595" lon="5.54677">
        <ele>527</ele>
        <time>2021-10-02T13:32:12.575Z</time>
      </trkpt>
      <trkpt lat="45.45956" lon="5.5468">
        <ele>527</ele>
        <time>2021-10-02T13:32:11.575Z</time>
      </trkpt>
      <trkpt lat="45.45961" lon="5.54683">
        <ele>527</ele>
        <time>2021-10-02T13:32:10.575Z</time>
      </trkpt>
      <trkpt lat="45.45967" lon="5.54686">
        <ele>526</ele>
        <time>2021-10-02T13:32:09.575Z</time>
      </trkpt>
      <trkpt lat="45.45972" lon="5.54689">
        <ele>526</ele>
        <time>2021-10-02T13:32:08.575Z</time>
      </trkpt>
      <trkpt lat="45.45977" lon="5.54693">
        <ele>526</ele>
        <time>2021-10-02T13:32:07.575Z</time>
      </trkpt>
      <trkpt lat="45.45982" lon="5.54696">
        <ele>526</ele>
        <time>2021-10-02T13:32:06.575Z</time>
      </trkpt>
      <trkpt lat="45.45987" lon="5.547">
        <ele>527</ele>
        <time>2021-10-02T13:32:05.574Z</time>
      </trkpt>
      <trkpt lat="45.45991" lon="5.54704">
        <ele>526</ele>
        <time>2021-10-02T13:32:04.574Z</time>
      </trkpt>
      <trkpt lat="45.45996" lon="5.54708">
        <ele>526</ele>
        <time>2021-10-02T13:32:03.575Z</time>
      </trkpt>
      <trkpt lat="45.46001" lon="5.54711">
        <ele>526</ele>
        <time>2021-10-02T13:32:02.574Z</time>
      </trkpt>
      <trkpt lat="45.46007" lon="5.54714">
        <ele>526</ele>
        <time>2021-10-02T13:32:01.575Z</time>
      </trkpt>
      <trkpt lat="45.46012" lon="5.54717">
        <ele>525</ele>
        <time>2021-10-02T13:32:00.574Z</time>
      </trkpt>
      <trkpt lat="45.46017" lon="5.54719">
        <ele>525</ele>
        <time>2021-10-02T13:31:59.574Z</time>
      </trkpt>
      <trkpt lat="45.46022" lon="5.54722">
        <ele>524</ele>
        <time>2021-10-02T13:31:58.574Z</time>
      </trkpt>
      <trkpt lat="45.46027" lon="5.54725">
        <ele>524</ele>
        <time>2021-10-02T13:31:57.574Z</time>
      </trkpt>
      <trkpt lat="45.46033" lon="5.54727">
        <ele>523</ele>
        <time>2021-10-02T13:31:56.575Z</time>
      </trkpt>
      <trkpt lat="45.46038" lon="5.5473">
        <ele>523</ele>
        <time>2021-10-02T13:31:55.575Z</time>
      </trkpt>
      <trkpt lat="45.46043" lon="5.54733">
        <ele>523</ele>
        <time>2021-10-02T13:31:54.575Z</time>
      </trkpt>
      <trkpt lat="45.46048" lon="5.54735">
        <ele>522</ele>
        <time>2021-10-02T13:31:53.575Z</time>
      </trkpt>
      <trkpt lat="45.46054" lon="5.54738">
        <ele>522</ele>
        <time>2021-10-02T13:31:52.575Z</time>
      </trkpt>
      <trkpt lat="45.46059" lon="5.54741">
        <ele>522</ele>
        <time>2021-10-02T13:31:51.575Z</time>
      </trkpt>
      <trkpt lat="45.46064" lon="5.54744">
        <ele>522</ele>
        <time>2021-10-02T13:31:50.575Z</time>
      </trkpt>
      <trkpt lat="45.46069" lon="5.54748">
        <ele>522</ele>
        <time>2021-10-02T13:31:49.575Z</time>
      </trkpt>
      <trkpt lat="45.46074" lon="5.54751">
        <ele>522</ele>
        <time>2021-10-02T13:31:48.574Z</time>
      </trkpt>
      <trkpt lat="45.46079" lon="5.54755">
        <ele>522</ele>
        <time>2021-10-02T13:31:47.575Z</time>
      </trkpt>
      <trkpt lat="45.46084" lon="5.54759">
        <ele>522</ele>
        <time>2021-10-02T13:31:46.575Z</time>
      </trkpt>
      <trkpt lat="45.46089" lon="5.54763">
        <ele>522</ele>
        <time>2021-10-02T13:31:45.574Z</time>
      </trkpt>
      <trkpt lat="45.46094" lon="5.54768">
        <ele>521</ele>
        <time>2021-10-02T13:31:44.575Z</time>
      </trkpt>
      <trkpt lat="45.46099" lon="5.54772">
        <ele>521</ele>
        <time>2021-10-02T13:31:43.575Z</time>
      </trkpt>
      <trkpt lat="45.46104" lon="5.54777">
        <ele>521</ele>
        <time>2021-10-02T13:31:42.575Z</time>
      </trkpt>
      <trkpt lat="45.46108" lon="5.54782">
        <ele>521</ele>
        <time>2021-10-02T13:31:41.575Z</time>
      </trkpt>
      <trkpt lat="45.46113" lon="5.54787">
        <ele>521</ele>
        <time>2021-10-02T13:31:40.575Z</time>
      </trkpt>
      <trkpt lat="45.46118" lon="5.54792">
        <ele>520</ele>
        <time>2021-10-02T13:31:39.575Z</time>
      </trkpt>
      <trkpt lat="45.46122" lon="5.54797">
        <ele>520</ele>
        <time>2021-10-02T13:31:38.574Z</time>
      </trkpt>
      <trkpt lat="45.46127" lon="5.54802">
        <ele>520</ele>
        <time>2021-10-02T13:31:37.574Z</time>
      </trkpt>
      <trkpt lat="45.46131" lon="5.54808">
        <ele>519</ele>
        <time>2021-10-02T13:31:36.574Z</time>
      </trkpt>
      <trkpt lat="45.46136" lon="5.54813">
        <ele>519</ele>
        <time>2021-10-02T13:31:35.575Z</time>
      </trkpt>
      <trkpt lat="45.46141" lon="5.54819">
        <ele>519</ele>
        <time>2021-10-02T13:31:34.574Z</time>
      </trkpt>
      <trkpt lat="45.46145" lon="5.54824">
        <ele>519</ele>
        <time>2021-10-02T13:31:33.575Z</time>
      </trkpt>
      <trkpt lat="45.4615" lon="5.54829">
        <ele>519</ele>
        <time>2021-10-02T13:31:32.574Z</time>
      </trkpt>
      <trkpt lat="45.46155" lon="5.54834">
        <ele>518</ele>
        <time>2021-10-02T13:31:31.575Z</time>
      </trkpt>
      <trkpt lat="45.4616" lon="5.54839">
        <ele>519</ele>
        <time>2021-10-02T13:31:30.575Z</time>
      </trkpt>
      <trkpt lat="45.46164" lon="5.54844">
        <ele>518</ele>
        <time>2021-10-02T13:31:29.575Z</time>
      </trkpt>
      <trkpt lat="45.46169" lon="5.5485">
        <ele>518</ele>
        <time>2021-10-02T13:31:28.575Z</time>
      </trkpt>
      <trkpt lat="45.46174" lon="5.54855">
        <ele>517</ele>
        <time>2021-10-02T13:31:27.575Z</time>
      </trkpt>
      <trkpt lat="45.46178" lon="5.54861">
        <ele>517</ele>
        <time>2021-10-02T13:31:26.575Z</time>
      </trkpt>
      <trkpt lat="45.46183" lon="5.54866">
        <ele>517</ele>
        <time>2021-10-02T13:31:25.575Z</time>
      </trkpt>
      <trkpt lat="45.46188" lon="5.54871">
        <ele>517</ele>
        <time>2021-10-02T13:31:24.574Z</time>
      </trkpt>
      <trkpt lat="45.46193" lon="5.54877">
        <ele>516</ele>
        <time>2021-10-02T13:31:23.575Z</time>
      </trkpt>
      <trkpt lat="45.46197" lon="5.54882">
        <ele>516</ele>
        <time>2021-10-02T13:31:22.575Z</time>
      </trkpt>
      <trkpt lat="45.46202" lon="5.54887">
        <ele>516</ele>
        <time>2021-10-02T13:31:21.575Z</time>
      </trkpt>
      <trkpt lat="45.46207" lon="5.54893">
        <ele>515</ele>
        <time>2021-10-02T13:31:20.574Z</time>
      </trkpt>
      <trkpt lat="45.46211" lon="5.54898">
        <ele>515</ele>
        <time>2021-10-02T13:31:19.575Z</time>
      </trkpt>
      <trkpt lat="45.46216" lon="5.54903">
        <ele>515</ele>
        <time>2021-10-02T13:31:18.575Z</time>
      </trkpt>
      <trkpt lat="45.46221" lon="5.54909">
        <ele>515</ele>
        <time>2021-10-02T13:31:17.574Z</time>
      </trkpt>
      <trkpt lat="45.46225" lon="5.54914">
        <ele>516</ele>
        <time>2021-10-02T13:31:16.574Z</time>
      </trkpt>
      <trkpt lat="45.4623" lon="5.54919">
        <ele>516</ele>
        <time>2021-10-02T13:31:15.574Z</time>
      </trkpt>
      <trkpt lat="45.46234" lon="5.54925">
        <ele>516</ele>
        <time>2021-10-02T13:31:14.575Z</time>
      </trkpt>
      <trkpt lat="45.46239" lon="5.5493">
        <ele>516</ele>
        <time>2021-10-02T13:31:13.575Z</time>
      </trkpt>
      <trkpt lat="45.46243" lon="5.54936">
        <ele>515</ele>
        <time>2021-10-02T13:31:12.574Z</time>
      </trkpt>
      <trkpt lat="45.46248" lon="5.54941">
        <ele>514</ele>
        <time>2021-10-02T13:31:11.574Z</time>
      </trkpt>
      <trkpt lat="45.46253" lon="5.54947">
        <ele>513</ele>
        <time>2021-10-02T13:31:10.575Z</time>
      </trkpt>
      <trkpt lat="45.46257" lon="5.54952">
        <ele>513</ele>
        <time>2021-10-02T13:31:09.574Z</time>
      </trkpt>
      <trkpt lat="45.46262" lon="5.54957">
        <ele>513</ele>
        <time>2021-10-02T13:31:08.575Z</time>
      </trkpt>
      <trkpt lat="45.46266" lon="5.54963">
        <ele>513</ele>
        <time>2021-10-02T13:31:07.574Z</time>
      </trkpt>
      <trkpt lat="45.46271" lon="5.54968">
        <ele>513</ele>
        <time>2021-10-02T13:31:06.575Z</time>
      </trkpt>
      <trkpt lat="45.46275" lon="5.54974">
        <ele>513</ele>
        <time>2021-10-02T13:31:05.575Z</time>
      </trkpt>
      <trkpt lat="45.4628" lon="5.54979">
        <ele>512</ele>
        <time>2021-10-02T13:31:04.575Z</time>
      </trkpt>
      <trkpt lat="45.46284" lon="5.54985">
        <ele>512</ele>
        <time>2021-10-02T13:31:03.574Z</time>
      </trkpt>
      <trkpt lat="45.46289" lon="5.5499">
        <ele>512</ele>
        <time>2021-10-02T13:31:02.575Z</time>
      </trkpt>
      <trkpt lat="45.46293" lon="5.54995">
        <ele>512</ele>
        <time>2021-10-02T13:31:01.574Z</time>
      </trkpt>
      <trkpt lat="45.46298" lon="5.55">
        <ele>512</ele>
        <time>2021-10-02T13:31:00.575Z</time>
      </trkpt>
      <trkpt lat="45.46302" lon="5.55006">
        <ele>511</ele>
        <time>2021-10-02T13:30:59.575Z</time>
      </trkpt>
      <trkpt lat="45.46307" lon="5.55011">
        <ele>511</ele>
        <time>2021-10-02T13:30:58.575Z</time>
      </trkpt>
      <trkpt lat="45.46311" lon="5.55017">
        <ele>510</ele>
        <time>2021-10-02T13:30:57.575Z</time>
      </trkpt>
      <trkpt lat="45.46316" lon="5.55022">
        <ele>510</ele>
        <time>2021-10-02T13:30:56.575Z</time>
      </trkpt>
      <trkpt lat="45.4632" lon="5.55028">
        <ele>510</ele>
        <time>2021-10-02T13:30:55.575Z</time>
      </trkpt>
      <trkpt lat="45.46325" lon="5.55034">
        <ele>510</ele>
        <time>2021-10-02T13:30:54.574Z</time>
      </trkpt>
      <trkpt lat="45.4633" lon="5.5504">
        <ele>510</ele>
        <time>2021-10-02T13:30:53.575Z</time>
      </trkpt>
      <trkpt lat="45.46334" lon="5.55046">
        <ele>509</ele>
        <time>2021-10-02T13:30:52.575Z</time>
      </trkpt>
      <trkpt lat="45.46339" lon="5.55052">
        <ele>509</ele>
        <time>2021-10-02T13:30:51.575Z</time>
      </trkpt>
      <trkpt lat="45.46343" lon="5.55058">
        <ele>509</ele>
        <time>2021-10-02T13:30:50.574Z</time>
      </trkpt>
      <trkpt lat="45.46347" lon="5.55064">
        <ele>509</ele>
        <time>2021-10-02T13:30:49.575Z</time>
      </trkpt>
      <trkpt lat="45.46352" lon="5.5507">
        <ele>510</ele>
        <time>2021-10-02T13:30:48.575Z</time>
      </trkpt>
      <trkpt lat="45.46356" lon="5.55077">
        <ele>510</ele>
        <time>2021-10-02T13:30:47.574Z</time>
      </trkpt>
      <trkpt lat="45.4636" lon="5.55083">
        <ele>509</ele>
        <time>2021-10-02T13:30:46.575Z</time>
      </trkpt>
      <trkpt lat="45.46364" lon="5.55089">
        <ele>509</ele>
        <time>2021-10-02T13:30:45.574Z</time>
      </trkpt>
      <trkpt lat="45.46369" lon="5.55096">
        <ele>509</ele>
        <time>2021-10-02T13:30:44.575Z</time>
      </trkpt>
      <trkpt lat="45.46373" lon="5.55103">
        <ele>509</ele>
        <time>2021-10-02T13:30:43.575Z</time>
      </trkpt>
      <trkpt lat="45.46377" lon="5.55109">
        <ele>509</ele>
        <time>2021-10-02T13:30:42.574Z</time>
      </trkpt>
      <trkpt lat="45.46381" lon="5.55116">
        <ele>509</ele>
        <time>2021-10-02T13:30:41.575Z</time>
      </trkpt>
      <trkpt lat="45.46386" lon="5.55122">
        <ele>509</ele>
        <time>2021-10-02T13:30:40.575Z</time>
      </trkpt>
      <trkpt lat="45.4639" lon="5.55129">
        <ele>509</ele>
        <time>2021-10-02T13:30:39.575Z</time>
      </trkpt>
      <trkpt lat="45.46394" lon="5.55137">
        <ele>509</ele>
        <time>2021-10-02T13:30:38.575Z</time>
      </trkpt>
      <trkpt lat="45.46398" lon="5.55144">
        <ele>509</ele>
        <time>2021-10-02T13:30:37.574Z</time>
      </trkpt>
      <trkpt lat="45.46401" lon="5.55151">
        <ele>509</ele>
        <time>2021-10-02T13:30:36.575Z</time>
      </trkpt>
      <trkpt lat="45.46405" lon="5.55158">
        <ele>509</ele>
        <time>2021-10-02T13:30:35.575Z</time>
      </trkpt>
      <trkpt lat="45.46409" lon="5.55165">
        <ele>509</ele>
        <time>2021-10-02T13:30:34.574Z</time>
      </trkpt>
      <trkpt lat="45.46412" lon="5.55172">
        <ele>509</ele>
        <time>2021-10-02T13:30:33.575Z</time>
      </trkpt>
      <trkpt lat="45.46416" lon="5.55179">
        <ele>509</ele>
        <time>2021-10-02T13:30:32.575Z</time>
      </trkpt>
      <trkpt lat="45.46419" lon="5.55186">
        <ele>509</ele>
        <time>2021-10-02T13:30:31.574Z</time>
      </trkpt>
      <trkpt lat="45.46423" lon="5.55193">
        <ele>509</ele>
        <time>2021-10-02T13:30:30.575Z</time>
      </trkpt>
      <trkpt lat="45.46427" lon="5.552">
        <ele>508</ele>
        <time>2021-10-02T13:30:29.575Z</time>
      </trkpt>
      <trkpt lat="45.46431" lon="5.55207">
        <ele>508</ele>
        <time>2021-10-02T13:30:28.575Z</time>
      </trkpt>
      <trkpt lat="45.46434" lon="5.55214">
        <ele>507</ele>
        <time>2021-10-02T13:30:27.575Z</time>
      </trkpt>
      <trkpt lat="45.46438" lon="5.55221">
        <ele>507</ele>
        <time>2021-10-02T13:30:26.575Z</time>
      </trkpt>
      <trkpt lat="45.46442" lon="5.55229">
        <ele>506</ele>
        <time>2021-10-02T13:30:25.575Z</time>
      </trkpt>
      <trkpt lat="45.46446" lon="5.55236">
        <ele>506</ele>
        <time>2021-10-02T13:30:24.575Z</time>
      </trkpt>
      <trkpt lat="45.4645" lon="5.55243">
        <ele>506</ele>
        <time>2021-10-02T13:30:23.575Z</time>
      </trkpt>
      <trkpt lat="45.46453" lon="5.5525">
        <ele>506</ele>
        <time>2021-10-02T13:30:22.575Z</time>
      </trkpt>
      <trkpt lat="45.46457" lon="5.55257">
        <ele>506</ele>
        <time>2021-10-02T13:30:21.574Z</time>
      </trkpt>
      <trkpt lat="45.46461" lon="5.55264">
        <ele>506</ele>
        <time>2021-10-02T13:30:20.574Z</time>
      </trkpt>
      <trkpt lat="45.46465" lon="5.55272">
        <ele>506</ele>
        <time>2021-10-02T13:30:19.575Z</time>
      </trkpt>
      <trkpt lat="45.46469" lon="5.55279">
        <ele>506</ele>
        <time>2021-10-02T13:30:18.574Z</time>
      </trkpt>
      <trkpt lat="45.46472" lon="5.55286">
        <ele>506</ele>
        <time>2021-10-02T13:30:17.575Z</time>
      </trkpt>
      <trkpt lat="45.46476" lon="5.55294">
        <ele>506</ele>
        <time>2021-10-02T13:30:16.575Z</time>
      </trkpt>
      <trkpt lat="45.46479" lon="5.55301">
        <ele>506</ele>
        <time>2021-10-02T13:30:15.574Z</time>
      </trkpt>
      <trkpt lat="45.46483" lon="5.55308">
        <ele>506</ele>
        <time>2021-10-02T13:30:14.574Z</time>
      </trkpt>
      <trkpt lat="45.46487" lon="5.55315">
        <ele>506</ele>
        <time>2021-10-02T13:30:13.574Z</time>
      </trkpt>
      <trkpt lat="45.46491" lon="5.55322">
        <ele>507</ele>
        <time>2021-10-02T13:30:12.574Z</time>
      </trkpt>
      <trkpt lat="45.46494" lon="5.55329">
        <ele>507</ele>
        <time>2021-10-02T13:30:11.575Z</time>
      </trkpt>
      <trkpt lat="45.46498" lon="5.55336">
        <ele>507</ele>
        <time>2021-10-02T13:30:10.575Z</time>
      </trkpt>
      <trkpt lat="45.46502" lon="5.55344">
        <ele>507</ele>
        <time>2021-10-02T13:30:09.574Z</time>
      </trkpt>
      <trkpt lat="45.46506" lon="5.55351">
        <ele>507</ele>
        <time>2021-10-02T13:30:08.574Z</time>
      </trkpt>
      <trkpt lat="45.46509" lon="5.55358">
        <ele>506</ele>
        <time>2021-10-02T13:30:07.575Z</time>
      </trkpt>
      <trkpt lat="45.46513" lon="5.55365">
        <ele>506</ele>
        <time>2021-10-02T13:30:06.574Z</time>
      </trkpt>
      <trkpt lat="45.46516" lon="5.55373">
        <ele>506</ele>
        <time>2021-10-02T13:30:05.575Z</time>
      </trkpt>
      <trkpt lat="45.46519" lon="5.5538">
        <ele>506</ele>
        <time>2021-10-02T13:30:04.575Z</time>
      </trkpt>
      <trkpt lat="45.46523" lon="5.55387">
        <ele>506</ele>
        <time>2021-10-02T13:30:03.574Z</time>
      </trkpt>
      <trkpt lat="45.46527" lon="5.55396">
        <ele>505</ele>
        <time>2021-10-02T13:30:02.575Z</time>
      </trkpt>
      <trkpt lat="45.4653" lon="5.55403">
        <ele>505</ele>
        <time>2021-10-02T13:30:01.575Z</time>
      </trkpt>
      <trkpt lat="45.46532" lon="5.55409">
        <ele>505</ele>
        <time>2021-10-02T13:30:00.574Z</time>
      </trkpt>
      <trkpt lat="45.46535" lon="5.55416">
        <ele>505</ele>
        <time>2021-10-02T13:29:59.575Z</time>
      </trkpt>
      <trkpt lat="45.46538" lon="5.55423">
        <ele>505</ele>
        <time>2021-10-02T13:29:58.575Z</time>
      </trkpt>
      <trkpt lat="45.46541" lon="5.55429">
        <ele>504</ele>
        <time>2021-10-02T13:29:57.575Z</time>
      </trkpt>
      <trkpt lat="45.46544" lon="5.55437">
        <ele>504</ele>
        <time>2021-10-02T13:29:56.574Z</time>
      </trkpt>
      <trkpt lat="45.46546" lon="5.55443">
        <ele>504</ele>
        <time>2021-10-02T13:29:55.575Z</time>
      </trkpt>
      <trkpt lat="45.46549" lon="5.55449">
        <ele>503</ele>
        <time>2021-10-02T13:29:54.575Z</time>
      </trkpt>
      <trkpt lat="45.46552" lon="5.55456">
        <ele>504</ele>
        <time>2021-10-02T13:29:53.575Z</time>
      </trkpt>
      <trkpt lat="45.46555" lon="5.55464">
        <ele>504</ele>
        <time>2021-10-02T13:29:52.575Z</time>
      </trkpt>
      <trkpt lat="45.46558" lon="5.55471">
        <ele>504</ele>
        <time>2021-10-02T13:29:51.574Z</time>
      </trkpt>
      <trkpt lat="45.4656" lon="5.55477">
        <ele>504</ele>
        <time>2021-10-02T13:29:50.575Z</time>
      </trkpt>
      <trkpt lat="45.46562" lon="5.55484">
        <ele>504</ele>
        <time>2021-10-02T13:29:49.574Z</time>
      </trkpt>
      <trkpt lat="45.46566" lon="5.55492">
        <ele>504</ele>
        <time>2021-10-02T13:29:48.575Z</time>
      </trkpt>
      <trkpt lat="45.46568" lon="5.55498">
        <ele>503</ele>
        <time>2021-10-02T13:29:47.574Z</time>
      </trkpt>
      <trkpt lat="45.4657" lon="5.55505">
        <ele>503</ele>
        <time>2021-10-02T13:29:46.574Z</time>
      </trkpt>
      <trkpt lat="45.46573" lon="5.55512">
        <ele>502</ele>
        <time>2021-10-02T13:29:45.574Z</time>
      </trkpt>
      <trkpt lat="45.46576" lon="5.55521">
        <ele>502</ele>
        <time>2021-10-02T13:29:44.574Z</time>
      </trkpt>
      <trkpt lat="45.46578" lon="5.55527">
        <ele>501</ele>
        <time>2021-10-02T13:29:43.574Z</time>
      </trkpt>
      <trkpt lat="45.46581" lon="5.55534">
        <ele>501</ele>
        <time>2021-10-02T13:29:42.574Z</time>
      </trkpt>
      <trkpt lat="45.46582" lon="5.55539">
        <ele>501</ele>
        <time>2021-10-02T13:29:41.574Z</time>
      </trkpt>
      <trkpt lat="45.46585" lon="5.55545">
        <ele>501</ele>
        <time>2021-10-02T13:29:40.574Z</time>
      </trkpt>
      <trkpt lat="45.46587" lon="5.55551">
        <ele>500</ele>
        <time>2021-10-02T13:29:39.575Z</time>
      </trkpt>
      <trkpt lat="45.4659" lon="5.55558">
        <ele>500</ele>
        <time>2021-10-02T13:29:38.574Z</time>
      </trkpt>
      <trkpt lat="45.46592" lon="5.55562">
        <ele>500</ele>
        <time>2021-10-02T13:29:37.575Z</time>
      </trkpt>
      <trkpt lat="45.46594" lon="5.55567">
        <ele>499</ele>
        <time>2021-10-02T13:29:36.575Z</time>
      </trkpt>
      <trkpt lat="45.46596" lon="5.55573">
        <ele>499</ele>
        <time>2021-10-02T13:29:35.574Z</time>
      </trkpt>
      <trkpt lat="45.46598" lon="5.55579">
        <ele>499</ele>
        <time>2021-10-02T13:29:34.575Z</time>
      </trkpt>
      <trkpt lat="45.46601" lon="5.55586">
        <ele>499</ele>
        <time>2021-10-02T13:29:33.575Z</time>
      </trkpt>
      <trkpt lat="45.46604" lon="5.55592">
        <ele>498</ele>
        <time>2021-10-02T13:29:32.575Z</time>
      </trkpt>
      <trkpt lat="45.46607" lon="5.55599">
        <ele>498</ele>
        <time>2021-10-02T13:29:31.575Z</time>
      </trkpt>
      <trkpt lat="45.4661" lon="5.55606">
        <ele>498</ele>
        <time>2021-10-02T13:29:30.574Z</time>
      </trkpt>
      <trkpt lat="45.46613" lon="5.55613">
        <ele>499</ele>
        <time>2021-10-02T13:29:29.575Z</time>
      </trkpt>
      <trkpt lat="45.46617" lon="5.55623">
        <ele>499</ele>
        <time>2021-10-02T13:29:28.575Z</time>
      </trkpt>
      <trkpt lat="45.46621" lon="5.55631">
        <ele>499</ele>
        <time>2021-10-02T13:29:27.575Z</time>
      </trkpt>
      <trkpt lat="45.46624" lon="5.55638">
        <ele>499</ele>
        <time>2021-10-02T13:29:26.574Z</time>
      </trkpt>
      <trkpt lat="45.46628" lon="5.55646">
        <ele>499</ele>
        <time>2021-10-02T13:29:25.575Z</time>
      </trkpt>
      <trkpt lat="45.46632" lon="5.55655">
        <ele>498</ele>
        <time>2021-10-02T13:29:24.574Z</time>
      </trkpt>
      <trkpt lat="45.46636" lon="5.55663">
        <ele>498</ele>
        <time>2021-10-02T13:29:23.575Z</time>
      </trkpt>
      <trkpt lat="45.46639" lon="5.55671">
        <ele>498</ele>
        <time>2021-10-02T13:29:22.575Z</time>
      </trkpt>
      <trkpt lat="45.46642" lon="5.55677">
        <ele>498</ele>
        <time>2021-10-02T13:29:21.575Z</time>
      </trkpt>
      <trkpt lat="45.46646" lon="5.55685">
        <ele>498</ele>
        <time>2021-10-02T13:29:20.575Z</time>
      </trkpt>
      <trkpt lat="45.46649" lon="5.55693">
        <ele>499</ele>
        <time>2021-10-02T13:29:19.575Z</time>
      </trkpt>
      <trkpt lat="45.46653" lon="5.55702">
        <ele>499</ele>
        <time>2021-10-02T13:29:18.575Z</time>
      </trkpt>
      <trkpt lat="45.46656" lon="5.55708">
        <ele>499</ele>
        <time>2021-10-02T13:29:17.574Z</time>
      </trkpt>
      <trkpt lat="45.4666" lon="5.55715">
        <ele>499</ele>
        <time>2021-10-02T13:29:16.575Z</time>
      </trkpt>
      <trkpt lat="45.46663" lon="5.55722">
        <ele>499</ele>
        <time>2021-10-02T13:29:15.575Z</time>
      </trkpt>
      <trkpt lat="45.46667" lon="5.55731">
        <ele>499</ele>
        <time>2021-10-02T13:29:14.575Z</time>
      </trkpt>
      <trkpt lat="45.4667" lon="5.55737">
        <ele>499</ele>
        <time>2021-10-02T13:29:13.574Z</time>
      </trkpt>
      <trkpt lat="45.46673" lon="5.55744">
        <ele>498</ele>
        <time>2021-10-02T13:29:12.574Z</time>
      </trkpt>
      <trkpt lat="45.46677" lon="5.55752">
        <ele>498</ele>
        <time>2021-10-02T13:29:11.574Z</time>
      </trkpt>
      <trkpt lat="45.4668" lon="5.55759">
        <ele>498</ele>
        <time>2021-10-02T13:29:10.575Z</time>
      </trkpt>
      <trkpt lat="45.46684" lon="5.55767">
        <ele>498</ele>
        <time>2021-10-02T13:29:09.575Z</time>
      </trkpt>
      <trkpt lat="45.46687" lon="5.55774">
        <ele>498</ele>
        <time>2021-10-02T13:29:08.575Z</time>
      </trkpt>
      <trkpt lat="45.4669" lon="5.55782">
        <ele>498</ele>
        <time>2021-10-02T13:29:07.574Z</time>
      </trkpt>
      <trkpt lat="45.46694" lon="5.55789">
        <ele>498</ele>
        <time>2021-10-02T13:29:06.575Z</time>
      </trkpt>
      <trkpt lat="45.46697" lon="5.55797">
        <ele>498</ele>
        <time>2021-10-02T13:29:05.575Z</time>
      </trkpt>
      <trkpt lat="45.46701" lon="5.55806">
        <ele>498</ele>
        <time>2021-10-02T13:29:04.574Z</time>
      </trkpt>
      <trkpt lat="45.46704" lon="5.55812">
        <ele>498</ele>
        <time>2021-10-02T13:29:03.575Z</time>
      </trkpt>
      <trkpt lat="45.46708" lon="5.5582">
        <ele>498</ele>
        <time>2021-10-02T13:29:02.575Z</time>
      </trkpt>
      <trkpt lat="45.46712" lon="5.55827">
        <ele>498</ele>
        <time>2021-10-02T13:29:01.575Z</time>
      </trkpt>
      <trkpt lat="45.46715" lon="5.55835">
        <ele>498</ele>
        <time>2021-10-02T13:29:00.575Z</time>
      </trkpt>
      <trkpt lat="45.46719" lon="5.55844">
        <ele>498</ele>
        <time>2021-10-02T13:28:59.574Z</time>
      </trkpt>
      <trkpt lat="45.46723" lon="5.55852">
        <ele>498</ele>
        <time>2021-10-02T13:28:58.575Z</time>
      </trkpt>
      <trkpt lat="45.46726" lon="5.55858">
        <ele>498</ele>
        <time>2021-10-02T13:28:57.575Z</time>
      </trkpt>
      <trkpt lat="45.4673" lon="5.55866">
        <ele>498</ele>
        <time>2021-10-02T13:28:56.575Z</time>
      </trkpt>
      <trkpt lat="45.46734" lon="5.55874">
        <ele>497</ele>
        <time>2021-10-02T13:28:55.575Z</time>
      </trkpt>
      <trkpt lat="45.46738" lon="5.55883">
        <ele>497</ele>
        <time>2021-10-02T13:28:54.575Z</time>
      </trkpt>
      <trkpt lat="45.46742" lon="5.55891">
        <ele>497</ele>
        <time>2021-10-02T13:28:53.575Z</time>
      </trkpt>
      <trkpt lat="45.46746" lon="5.55899">
        <ele>497</ele>
        <time>2021-10-02T13:28:52.574Z</time>
      </trkpt>
      <trkpt lat="45.46749" lon="5.55907">
        <ele>497</ele>
        <time>2021-10-02T13:28:51.575Z</time>
      </trkpt>
      <trkpt lat="45.46752" lon="5.55915">
        <ele>498</ele>
        <time>2021-10-02T13:28:50.575Z</time>
      </trkpt>
      <trkpt lat="45.46756" lon="5.55924">
        <ele>498</ele>
        <time>2021-10-02T13:28:49.575Z</time>
      </trkpt>
      <trkpt lat="45.46759" lon="5.55932">
        <ele>498</ele>
        <time>2021-10-02T13:28:48.575Z</time>
      </trkpt>
      <trkpt lat="45.46762" lon="5.55938">
        <ele>498</ele>
        <time>2021-10-02T13:28:47.575Z</time>
      </trkpt>
      <trkpt lat="45.46766" lon="5.55946">
        <ele>498</ele>
        <time>2021-10-02T13:28:46.574Z</time>
      </trkpt>
      <trkpt lat="45.4677" lon="5.55954">
        <ele>498</ele>
        <time>2021-10-02T13:28:45.574Z</time>
      </trkpt>
      <trkpt lat="45.46775" lon="5.55964">
        <ele>498</ele>
        <time>2021-10-02T13:28:44.574Z</time>
      </trkpt>
      <trkpt lat="45.46778" lon="5.55972">
        <ele>498</ele>
        <time>2021-10-02T13:28:43.575Z</time>
      </trkpt>
      <trkpt lat="45.46781" lon="5.55979">
        <ele>497</ele>
        <time>2021-10-02T13:28:42.575Z</time>
      </trkpt>
      <trkpt lat="45.46785" lon="5.55987">
        <ele>497</ele>
        <time>2021-10-02T13:28:41.575Z</time>
      </trkpt>
      <trkpt lat="45.4679" lon="5.55996">
        <ele>497</ele>
        <time>2021-10-02T13:28:40.575Z</time>
      </trkpt>
      <trkpt lat="45.46793" lon="5.56003">
        <ele>497</ele>
        <time>2021-10-02T13:28:39.575Z</time>
      </trkpt>
      <trkpt lat="45.46797" lon="5.56012">
        <ele>497</ele>
        <time>2021-10-02T13:28:38.575Z</time>
      </trkpt>
      <trkpt lat="45.468" lon="5.56019">
        <ele>498</ele>
        <time>2021-10-02T13:28:37.575Z</time>
      </trkpt>
      <trkpt lat="45.46803" lon="5.56027">
        <ele>498</ele>
        <time>2021-10-02T13:28:36.574Z</time>
      </trkpt>
      <trkpt lat="45.46807" lon="5.56035">
        <ele>498</ele>
        <time>2021-10-02T13:28:35.575Z</time>
      </trkpt>
      <trkpt lat="45.46811" lon="5.56045">
        <ele>498</ele>
        <time>2021-10-02T13:28:34.574Z</time>
      </trkpt>
      <trkpt lat="45.46815" lon="5.56053">
        <ele>497</ele>
        <time>2021-10-02T13:28:33.575Z</time>
      </trkpt>
      <trkpt lat="45.46818" lon="5.56059">
        <ele>497</ele>
        <time>2021-10-02T13:28:32.575Z</time>
      </trkpt>
      <trkpt lat="45.46822" lon="5.56067">
        <ele>498</ele>
        <time>2021-10-02T13:28:31.574Z</time>
      </trkpt>
      <trkpt lat="45.46826" lon="5.56076">
        <ele>498</ele>
        <time>2021-10-02T13:28:30.575Z</time>
      </trkpt>
      <trkpt lat="45.4683" lon="5.56084">
        <ele>498</ele>
        <time>2021-10-02T13:28:29.574Z</time>
      </trkpt>
      <trkpt lat="45.46834" lon="5.56091">
        <ele>499</ele>
        <time>2021-10-02T13:28:28.574Z</time>
      </trkpt>
      <trkpt lat="45.46837" lon="5.56097">
        <ele>499</ele>
        <time>2021-10-02T13:28:27.575Z</time>
      </trkpt>
      <trkpt lat="45.46841" lon="5.56104">
        <ele>499</ele>
        <time>2021-10-02T13:28:26.574Z</time>
      </trkpt>
      <trkpt lat="45.46845" lon="5.56114">
        <ele>499</ele>
        <time>2021-10-02T13:28:25.575Z</time>
      </trkpt>
      <trkpt lat="45.46849" lon="5.56121">
        <ele>499</ele>
        <time>2021-10-02T13:28:24.575Z</time>
      </trkpt>
      <trkpt lat="45.46852" lon="5.56127">
        <ele>500</ele>
        <time>2021-10-02T13:28:23.575Z</time>
      </trkpt>
      <trkpt lat="45.46856" lon="5.56135">
        <ele>500</ele>
        <time>2021-10-02T13:28:22.575Z</time>
      </trkpt>
      <trkpt lat="45.4686" lon="5.56142">
        <ele>500</ele>
        <time>2021-10-02T13:28:21.575Z</time>
      </trkpt>
      <trkpt lat="45.46865" lon="5.5615">
        <ele>500</ele>
        <time>2021-10-02T13:28:20.575Z</time>
      </trkpt>
      <trkpt lat="45.46868" lon="5.56157">
        <ele>501</ele>
        <time>2021-10-02T13:28:19.575Z</time>
      </trkpt>
      <trkpt lat="45.46872" lon="5.56164">
        <ele>500</ele>
        <time>2021-10-02T13:28:18.574Z</time>
      </trkpt>
      <trkpt lat="45.46875" lon="5.56169">
        <ele>500</ele>
        <time>2021-10-02T13:28:17.574Z</time>
      </trkpt>
      <trkpt lat="45.4688" lon="5.56177">
        <ele>500</ele>
        <time>2021-10-02T13:28:16.574Z</time>
      </trkpt>
      <trkpt lat="45.46883" lon="5.56184">
        <ele>499</ele>
        <time>2021-10-02T13:28:15.575Z</time>
      </trkpt>
      <trkpt lat="45.46887" lon="5.56191">
        <ele>499</ele>
        <time>2021-10-02T13:28:14.575Z</time>
      </trkpt>
      <trkpt lat="45.46891" lon="5.56198">
        <ele>499</ele>
        <time>2021-10-02T13:28:13.575Z</time>
      </trkpt>
      <trkpt lat="45.46894" lon="5.56205">
        <ele>499</ele>
        <time>2021-10-02T13:28:12.574Z</time>
      </trkpt>
      <trkpt lat="45.46898" lon="5.56213">
        <ele>499</ele>
        <time>2021-10-02T13:28:11.574Z</time>
      </trkpt>
      <trkpt lat="45.46903" lon="5.56222">
        <ele>498</ele>
        <time>2021-10-02T13:28:10.574Z</time>
      </trkpt>
      <trkpt lat="45.46908" lon="5.5623">
        <ele>498</ele>
        <time>2021-10-02T13:28:09.574Z</time>
      </trkpt>
      <trkpt lat="45.46911" lon="5.56237">
        <ele>498</ele>
        <time>2021-10-02T13:28:08.575Z</time>
      </trkpt>
      <trkpt lat="45.46916" lon="5.56245">
        <ele>498</ele>
        <time>2021-10-02T13:28:07.575Z</time>
      </trkpt>
      <trkpt lat="45.46921" lon="5.56254">
        <ele>497</ele>
        <time>2021-10-02T13:28:06.574Z</time>
      </trkpt>
      <trkpt lat="45.46926" lon="5.56262">
        <ele>497</ele>
        <time>2021-10-02T13:28:05.575Z</time>
      </trkpt>
      <trkpt lat="45.4693" lon="5.5627">
        <ele>497</ele>
        <time>2021-10-02T13:28:04.575Z</time>
      </trkpt>
      <trkpt lat="45.46934" lon="5.56277">
        <ele>497</ele>
        <time>2021-10-02T13:28:03.575Z</time>
      </trkpt>
      <trkpt lat="45.46938" lon="5.56285">
        <ele>496</ele>
        <time>2021-10-02T13:28:02.574Z</time>
      </trkpt>
      <trkpt lat="45.46942" lon="5.56293">
        <ele>497</ele>
        <time>2021-10-02T13:28:01.575Z</time>
      </trkpt>
      <trkpt lat="45.46948" lon="5.56304">
        <ele>497</ele>
        <time>2021-10-02T13:28:00.575Z</time>
      </trkpt>
      <trkpt lat="45.46952" lon="5.56312">
        <ele>498</ele>
        <time>2021-10-02T13:27:59.575Z</time>
      </trkpt>
      <trkpt lat="45.46956" lon="5.56319">
        <ele>498</ele>
        <time>2021-10-02T13:27:58.575Z</time>
      </trkpt>
      <trkpt lat="45.46961" lon="5.56329">
        <ele>498</ele>
        <time>2021-10-02T13:27:57.575Z</time>
      </trkpt>
      <trkpt lat="45.46966" lon="5.56338">
        <ele>498</ele>
        <time>2021-10-02T13:27:56.575Z</time>
      </trkpt>
      <trkpt lat="45.4697" lon="5.56346">
        <ele>499</ele>
        <time>2021-10-02T13:27:55.575Z</time>
      </trkpt>
      <trkpt lat="45.46975" lon="5.56355">
        <ele>499</ele>
        <time>2021-10-02T13:27:54.575Z</time>
      </trkpt>
      <trkpt lat="45.4698" lon="5.56364">
        <ele>499</ele>
        <time>2021-10-02T13:27:53.574Z</time>
      </trkpt>
      <trkpt lat="45.46984" lon="5.56372">
        <ele>500</ele>
        <time>2021-10-02T13:27:52.575Z</time>
      </trkpt>
      <trkpt lat="45.46989" lon="5.5638">
        <ele>500</ele>
        <time>2021-10-02T13:27:51.575Z</time>
      </trkpt>
      <trkpt lat="45.46994" lon="5.56389">
        <ele>500</ele>
        <time>2021-10-02T13:27:50.574Z</time>
      </trkpt>
      <trkpt lat="45.47" lon="5.56397">
        <ele>501</ele>
        <time>2021-10-02T13:27:49.575Z</time>
      </trkpt>
      <trkpt lat="45.47004" lon="5.56403">
        <ele>501</ele>
        <time>2021-10-02T13:27:48.575Z</time>
      </trkpt>
      <trkpt lat="45.47009" lon="5.5641">
        <ele>501</ele>
        <time>2021-10-02T13:27:47.575Z</time>
      </trkpt>
      <trkpt lat="45.47016" lon="5.56418">
        <ele>501</ele>
        <time>2021-10-02T13:27:46.575Z</time>
      </trkpt>
      <trkpt lat="45.47022" lon="5.56425">
        <ele>501</ele>
        <time>2021-10-02T13:27:45.575Z</time>
      </trkpt>
      <trkpt lat="45.47027" lon="5.56432">
        <ele>501</ele>
        <time>2021-10-02T13:27:44.574Z</time>
      </trkpt>
      <trkpt lat="45.47033" lon="5.56438">
        <ele>501</ele>
        <time>2021-10-02T13:27:43.575Z</time>
      </trkpt>
      <trkpt lat="45.47039" lon="5.56444">
        <ele>501</ele>
        <time>2021-10-02T13:27:42.575Z</time>
      </trkpt>
      <trkpt lat="45.47046" lon="5.56449">
        <ele>502</ele>
        <time>2021-10-02T13:27:41.575Z</time>
      </trkpt>
      <trkpt lat="45.47052" lon="5.56455">
        <ele>502</ele>
        <time>2021-10-02T13:27:40.575Z</time>
      </trkpt>
      <trkpt lat="45.47057" lon="5.56459">
        <ele>502</ele>
        <time>2021-10-02T13:27:39.574Z</time>
      </trkpt>
      <trkpt lat="45.47065" lon="5.56465">
        <ele>501</ele>
        <time>2021-10-02T13:27:38.575Z</time>
      </trkpt>
      <trkpt lat="45.47071" lon="5.5647">
        <ele>501</ele>
        <time>2021-10-02T13:27:37.574Z</time>
      </trkpt>
      <trkpt lat="45.47077" lon="5.56476">
        <ele>501</ele>
        <time>2021-10-02T13:27:36.574Z</time>
      </trkpt>
      <trkpt lat="45.47083" lon="5.56481">
        <ele>501</ele>
        <time>2021-10-02T13:27:35.574Z</time>
      </trkpt>
      <trkpt lat="45.47089" lon="5.56486">
        <ele>501</ele>
        <time>2021-10-02T13:27:34.574Z</time>
      </trkpt>
      <trkpt lat="45.47095" lon="5.56491">
        <ele>502</ele>
        <time>2021-10-02T13:27:33.575Z</time>
      </trkpt>
      <trkpt lat="45.47102" lon="5.56495">
        <ele>502</ele>
        <time>2021-10-02T13:27:32.574Z</time>
      </trkpt>
      <trkpt lat="45.47109" lon="5.56499">
        <ele>502</ele>
        <time>2021-10-02T13:27:31.575Z</time>
      </trkpt>
      <trkpt lat="45.47117" lon="5.56503">
        <ele>502</ele>
        <time>2021-10-02T13:27:30.575Z</time>
      </trkpt>
      <trkpt lat="45.47122" lon="5.56506">
        <ele>502</ele>
        <time>2021-10-02T13:27:29.575Z</time>
      </trkpt>
      <trkpt lat="45.47131" lon="5.56511">
        <ele>502</ele>
        <time>2021-10-02T13:27:28.575Z</time>
      </trkpt>
      <trkpt lat="45.47138" lon="5.56514">
        <ele>501</ele>
        <time>2021-10-02T13:27:27.575Z</time>
      </trkpt>
      <trkpt lat="45.47145" lon="5.56518">
        <ele>501</ele>
        <time>2021-10-02T13:27:26.575Z</time>
      </trkpt>
      <trkpt lat="45.47152" lon="5.56522">
        <ele>501</ele>
        <time>2021-10-02T13:27:25.575Z</time>
      </trkpt>
      <trkpt lat="45.47159" lon="5.56526">
        <ele>501</ele>
        <time>2021-10-02T13:27:24.574Z</time>
      </trkpt>
      <trkpt lat="45.47165" lon="5.56529">
        <ele>501</ele>
        <time>2021-10-02T13:27:23.575Z</time>
      </trkpt>
      <trkpt lat="45.47174" lon="5.56533">
        <ele>501</ele>
        <time>2021-10-02T13:27:22.575Z</time>
      </trkpt>
      <trkpt lat="45.4718" lon="5.56537">
        <ele>501</ele>
        <time>2021-10-02T13:27:21.575Z</time>
      </trkpt>
      <trkpt lat="45.47188" lon="5.56541">
        <ele>501</ele>
        <time>2021-10-02T13:27:20.574Z</time>
      </trkpt>
      <trkpt lat="45.47195" lon="5.56545">
        <ele>501</ele>
        <time>2021-10-02T13:27:19.575Z</time>
      </trkpt>
      <trkpt lat="45.47202" lon="5.56549">
        <ele>501</ele>
        <time>2021-10-02T13:27:18.575Z</time>
      </trkpt>
      <trkpt lat="45.47209" lon="5.56553">
        <ele>501</ele>
        <time>2021-10-02T13:27:17.575Z</time>
      </trkpt>
      <trkpt lat="45.47215" lon="5.56557">
        <ele>502</ele>
        <time>2021-10-02T13:27:16.575Z</time>
      </trkpt>
      <trkpt lat="45.47221" lon="5.5656">
        <ele>502</ele>
        <time>2021-10-02T13:27:15.575Z</time>
      </trkpt>
      <trkpt lat="45.47228" lon="5.56563">
        <ele>503</ele>
        <time>2021-10-02T13:27:14.575Z</time>
      </trkpt>
      <trkpt lat="45.47235" lon="5.56567">
        <ele>503</ele>
        <time>2021-10-02T13:27:13.575Z</time>
      </trkpt>
      <trkpt lat="45.47242" lon="5.56571">
        <ele>504</ele>
        <time>2021-10-02T13:27:12.574Z</time>
      </trkpt>
      <trkpt lat="45.47249" lon="5.56575">
        <ele>504</ele>
        <time>2021-10-02T13:27:11.574Z</time>
      </trkpt>
      <trkpt lat="45.47256" lon="5.56579">
        <ele>504</ele>
        <time>2021-10-02T13:27:10.575Z</time>
      </trkpt>
      <trkpt lat="45.47263" lon="5.56583">
        <ele>504</ele>
        <time>2021-10-02T13:27:09.574Z</time>
      </trkpt>
      <trkpt lat="45.4727" lon="5.56586">
        <ele>503</ele>
        <time>2021-10-02T13:27:08.575Z</time>
      </trkpt>
      <trkpt lat="45.47276" lon="5.5659">
        <ele>503</ele>
        <time>2021-10-02T13:27:07.575Z</time>
      </trkpt>
      <trkpt lat="45.47283" lon="5.56594">
        <ele>503</ele>
        <time>2021-10-02T13:27:06.574Z</time>
      </trkpt>
      <trkpt lat="45.47289" lon="5.56598">
        <ele>503</ele>
        <time>2021-10-02T13:27:05.575Z</time>
      </trkpt>
      <trkpt lat="45.47296" lon="5.56601">
        <ele>503</ele>
        <time>2021-10-02T13:27:04.575Z</time>
      </trkpt>
      <trkpt lat="45.47302" lon="5.56605">
        <ele>503</ele>
        <time>2021-10-02T13:27:03.575Z</time>
      </trkpt>
      <trkpt lat="45.47309" lon="5.56609">
        <ele>503</ele>
        <time>2021-10-02T13:27:02.575Z</time>
      </trkpt>
      <trkpt lat="45.47315" lon="5.56612">
        <ele>503</ele>
        <time>2021-10-02T13:27:01.575Z</time>
      </trkpt>
      <trkpt lat="45.47321" lon="5.56616">
        <ele>503</ele>
        <time>2021-10-02T13:27:00.574Z</time>
      </trkpt>
      <trkpt lat="45.47327" lon="5.56619">
        <ele>503</ele>
        <time>2021-10-02T13:26:59.575Z</time>
      </trkpt>
      <trkpt lat="45.47333" lon="5.56622">
        <ele>503</ele>
        <time>2021-10-02T13:26:58.575Z</time>
      </trkpt>
      <trkpt lat="45.4734" lon="5.56626">
        <ele>503</ele>
        <time>2021-10-02T13:26:57.575Z</time>
      </trkpt>
      <trkpt lat="45.47346" lon="5.56629">
        <ele>503</ele>
        <time>2021-10-02T13:26:56.574Z</time>
      </trkpt>
      <trkpt lat="45.47352" lon="5.56633">
        <ele>503</ele>
        <time>2021-10-02T13:26:55.575Z</time>
      </trkpt>
      <trkpt lat="45.47358" lon="5.56636">
        <ele>502</ele>
        <time>2021-10-02T13:26:54.574Z</time>
      </trkpt>
      <trkpt lat="45.47365" lon="5.56638">
        <ele>502</ele>
        <time>2021-10-02T13:26:53.575Z</time>
      </trkpt>
      <trkpt lat="45.47371" lon="5.5664">
        <ele>502</ele>
        <time>2021-10-02T13:26:52.575Z</time>
      </trkpt>
      <trkpt lat="45.47376" lon="5.56642">
        <ele>501</ele>
        <time>2021-10-02T13:26:51.575Z</time>
      </trkpt>
      <trkpt lat="45.47382" lon="5.56642">
        <ele>501</ele>
        <time>2021-10-02T13:26:50.575Z</time>
      </trkpt>
      <trkpt lat="45.47387" lon="5.56643">
        <ele>500</ele>
        <time>2021-10-02T13:26:49.574Z</time>
      </trkpt>
      <trkpt lat="45.47393" lon="5.56643">
        <ele>500</ele>
        <time>2021-10-02T13:26:48.574Z</time>
      </trkpt>
      <trkpt lat="45.47399" lon="5.56643">
        <ele>500</ele>
        <time>2021-10-02T13:26:47.575Z</time>
      </trkpt>
      <trkpt lat="45.47404" lon="5.56642">
        <ele>500</ele>
        <time>2021-10-02T13:26:46.575Z</time>
      </trkpt>
      <trkpt lat="45.47409" lon="5.56642">
        <ele>500</ele>
        <time>2021-10-02T13:26:45.575Z</time>
      </trkpt>
      <trkpt lat="45.47415" lon="5.56641">
        <ele>499</ele>
        <time>2021-10-02T13:26:44.575Z</time>
      </trkpt>
      <trkpt lat="45.4742" lon="5.5664">
        <ele>499</ele>
        <time>2021-10-02T13:26:43.575Z</time>
      </trkpt>
      <trkpt lat="45.47425" lon="5.56638">
        <ele>499</ele>
        <time>2021-10-02T13:26:42.575Z</time>
      </trkpt>
      <trkpt lat="45.4743" lon="5.56636">
        <ele>499</ele>
        <time>2021-10-02T13:26:41.574Z</time>
      </trkpt>
      <trkpt lat="45.47434" lon="5.56633">
        <ele>499</ele>
        <time>2021-10-02T13:26:40.574Z</time>
      </trkpt>
      <trkpt lat="45.47439" lon="5.5663">
        <ele>499</ele>
        <time>2021-10-02T13:26:39.575Z</time>
      </trkpt>
      <trkpt lat="45.47444" lon="5.56627">
        <ele>499</ele>
        <time>2021-10-02T13:26:38.574Z</time>
      </trkpt>
      <trkpt lat="45.47449" lon="5.56624">
        <ele>499</ele>
        <time>2021-10-02T13:26:37.574Z</time>
      </trkpt>
      <trkpt lat="45.47453" lon="5.5662">
        <ele>499</ele>
        <time>2021-10-02T13:26:36.575Z</time>
      </trkpt>
      <trkpt lat="45.47458" lon="5.56617">
        <ele>499</ele>
        <time>2021-10-02T13:26:35.575Z</time>
      </trkpt>
      <trkpt lat="45.47463" lon="5.56613">
        <ele>498</ele>
        <time>2021-10-02T13:26:34.575Z</time>
      </trkpt>
      <trkpt lat="45.47467" lon="5.56609">
        <ele>498</ele>
        <time>2021-10-02T13:26:33.574Z</time>
      </trkpt>
      <trkpt lat="45.47472" lon="5.56605">
        <ele>498</ele>
        <time>2021-10-02T13:26:32.575Z</time>
      </trkpt>
      <trkpt lat="45.47476" lon="5.56601">
        <ele>498</ele>
        <time>2021-10-02T13:26:31.575Z</time>
      </trkpt>
      <trkpt lat="45.4748" lon="5.56596">
        <ele>498</ele>
        <time>2021-10-02T13:26:30.574Z</time>
      </trkpt>
      <trkpt lat="45.47484" lon="5.56591">
        <ele>498</ele>
        <time>2021-10-02T13:26:29.575Z</time>
      </trkpt>
      <trkpt lat="45.47489" lon="5.56586">
        <ele>498</ele>
        <time>2021-10-02T13:26:28.574Z</time>
      </trkpt>
      <trkpt lat="45.47493" lon="5.56581">
        <ele>498</ele>
        <time>2021-10-02T13:26:27.575Z</time>
      </trkpt>
      <trkpt lat="45.47497" lon="5.56576">
        <ele>498</ele>
        <time>2021-10-02T13:26:26.575Z</time>
      </trkpt>
      <trkpt lat="45.47501" lon="5.56571">
        <ele>498</ele>
        <time>2021-10-02T13:26:25.574Z</time>
      </trkpt>
      <trkpt lat="45.47506" lon="5.56566">
        <ele>498</ele>
        <time>2021-10-02T13:26:24.575Z</time>
      </trkpt>
      <trkpt lat="45.4751" lon="5.56561">
        <ele>498</ele>
        <time>2021-10-02T13:26:23.575Z</time>
      </trkpt>
      <trkpt lat="45.47515" lon="5.56556">
        <ele>498</ele>
        <time>2021-10-02T13:26:22.575Z</time>
      </trkpt>
      <trkpt lat="45.47519" lon="5.5655">
        <ele>498</ele>
        <time>2021-10-02T13:26:21.575Z</time>
      </trkpt>
      <trkpt lat="45.47524" lon="5.56544">
        <ele>498</ele>
        <time>2021-10-02T13:26:20.575Z</time>
      </trkpt>
      <trkpt lat="45.47528" lon="5.56538">
        <ele>497</ele>
        <time>2021-10-02T13:26:19.575Z</time>
      </trkpt>
      <trkpt lat="45.47533" lon="5.56532">
        <ele>497</ele>
        <time>2021-10-02T13:26:18.575Z</time>
      </trkpt>
      <trkpt lat="45.47538" lon="5.56526">
        <ele>496</ele>
        <time>2021-10-02T13:26:17.575Z</time>
      </trkpt>
      <trkpt lat="45.47543" lon="5.5652">
        <ele>496</ele>
        <time>2021-10-02T13:26:16.574Z</time>
      </trkpt>
      <trkpt lat="45.47548" lon="5.56514">
        <ele>496</ele>
        <time>2021-10-02T13:26:15.575Z</time>
      </trkpt>
      <trkpt lat="45.47553" lon="5.56508">
        <ele>496</ele>
        <time>2021-10-02T13:26:14.574Z</time>
      </trkpt>
      <trkpt lat="45.47557" lon="5.56502">
        <ele>497</ele>
        <time>2021-10-02T13:26:13.574Z</time>
      </trkpt>
      <trkpt lat="45.47562" lon="5.56495">
        <ele>497</ele>
        <time>2021-10-02T13:26:12.574Z</time>
      </trkpt>
      <trkpt lat="45.47567" lon="5.56489">
        <ele>497</ele>
        <time>2021-10-02T13:26:11.575Z</time>
      </trkpt>
      <trkpt lat="45.47572" lon="5.56482">
        <ele>497</ele>
        <time>2021-10-02T13:26:10.575Z</time>
      </trkpt>
      <trkpt lat="45.47577" lon="5.56475">
        <ele>497</ele>
        <time>2021-10-02T13:26:09.575Z</time>
      </trkpt>
      <trkpt lat="45.47582" lon="5.56466">
        <ele>497</ele>
        <time>2021-10-02T13:26:08.575Z</time>
      </trkpt>
      <trkpt lat="45.47586" lon="5.5646">
        <ele>497</ele>
        <time>2021-10-02T13:26:07.575Z</time>
      </trkpt>
      <trkpt lat="45.4759" lon="5.56452">
        <ele>498</ele>
        <time>2021-10-02T13:26:06.575Z</time>
      </trkpt>
      <trkpt lat="45.47595" lon="5.56444">
        <ele>498</ele>
        <time>2021-10-02T13:26:05.575Z</time>
      </trkpt>
      <trkpt lat="45.47599" lon="5.56436">
        <ele>498</ele>
        <time>2021-10-02T13:26:04.575Z</time>
      </trkpt>
      <trkpt lat="45.47603" lon="5.56428">
        <ele>498</ele>
        <time>2021-10-02T13:26:03.575Z</time>
      </trkpt>
      <trkpt lat="45.47608" lon="5.5642">
        <ele>498</ele>
        <time>2021-10-02T13:26:02.575Z</time>
      </trkpt>
      <trkpt lat="45.47612" lon="5.56412">
        <ele>498</ele>
        <time>2021-10-02T13:26:01.574Z</time>
      </trkpt>
      <trkpt lat="45.47616" lon="5.56404">
        <ele>498</ele>
        <time>2021-10-02T13:26:00.575Z</time>
      </trkpt>
      <trkpt lat="45.4762" lon="5.56395">
        <ele>498</ele>
        <time>2021-10-02T13:25:59.575Z</time>
      </trkpt>
      <trkpt lat="45.47624" lon="5.56387">
        <ele>498</ele>
        <time>2021-10-02T13:25:58.574Z</time>
      </trkpt>
      <trkpt lat="45.47628" lon="5.56379">
        <ele>498</ele>
        <time>2021-10-02T13:25:57.574Z</time>
      </trkpt>
      <trkpt lat="45.47632" lon="5.56371">
        <ele>498</ele>
        <time>2021-10-02T13:25:56.575Z</time>
      </trkpt>
      <trkpt lat="45.47636" lon="5.56363">
        <ele>499</ele>
        <time>2021-10-02T13:25:55.575Z</time>
      </trkpt>
      <trkpt lat="45.4764" lon="5.56354">
        <ele>499</ele>
        <time>2021-10-02T13:25:54.575Z</time>
      </trkpt>
      <trkpt lat="45.47645" lon="5.56346">
        <ele>499</ele>
        <time>2021-10-02T13:25:53.575Z</time>
      </trkpt>
      <trkpt lat="45.47649" lon="5.56338">
        <ele>499</ele>
        <time>2021-10-02T13:25:52.574Z</time>
      </trkpt>
      <trkpt lat="45.47652" lon="5.56331">
        <ele>499</ele>
        <time>2021-10-02T13:25:51.574Z</time>
      </trkpt>
      <trkpt lat="45.47656" lon="5.56323">
        <ele>499</ele>
        <time>2021-10-02T13:25:50.575Z</time>
      </trkpt>
      <trkpt lat="45.4766" lon="5.56315">
        <ele>499</ele>
        <time>2021-10-02T13:25:49.575Z</time>
      </trkpt>
      <trkpt lat="45.47664" lon="5.56307">
        <ele>498</ele>
        <time>2021-10-02T13:25:48.575Z</time>
      </trkpt>
      <trkpt lat="45.47668" lon="5.56298">
        <ele>498</ele>
        <time>2021-10-02T13:25:47.575Z</time>
      </trkpt>
      <trkpt lat="45.47672" lon="5.56291">
        <ele>498</ele>
        <time>2021-10-02T13:25:46.575Z</time>
      </trkpt>
      <trkpt lat="45.47676" lon="5.56283">
        <ele>498</ele>
        <time>2021-10-02T13:25:45.575Z</time>
      </trkpt>
      <trkpt lat="45.4768" lon="5.56275">
        <ele>498</ele>
        <time>2021-10-02T13:25:44.575Z</time>
      </trkpt>
      <trkpt lat="45.47684" lon="5.56268">
        <ele>498</ele>
        <time>2021-10-02T13:25:43.575Z</time>
      </trkpt>
      <trkpt lat="45.47687" lon="5.5626">
        <ele>498</ele>
        <time>2021-10-02T13:25:42.574Z</time>
      </trkpt>
      <trkpt lat="45.47691" lon="5.56252">
        <ele>498</ele>
        <time>2021-10-02T13:25:41.575Z</time>
      </trkpt>
      <trkpt lat="45.47695" lon="5.56245">
        <ele>498</ele>
        <time>2021-10-02T13:25:40.575Z</time>
      </trkpt>
      <trkpt lat="45.47698" lon="5.56237">
        <ele>498</ele>
        <time>2021-10-02T13:25:39.575Z</time>
      </trkpt>
      <trkpt lat="45.47702" lon="5.5623">
        <ele>498</ele>
        <time>2021-10-02T13:25:38.574Z</time>
      </trkpt>
      <trkpt lat="45.47705" lon="5.56222">
        <ele>498</ele>
        <time>2021-10-02T13:25:37.574Z</time>
      </trkpt>
      <trkpt lat="45.47708" lon="5.56214">
        <ele>498</ele>
        <time>2021-10-02T13:25:36.574Z</time>
      </trkpt>
      <trkpt lat="45.4771" lon="5.56207">
        <ele>498</ele>
        <time>2021-10-02T13:25:35.574Z</time>
      </trkpt>
      <trkpt lat="45.47712" lon="5.56199">
        <ele>498</ele>
        <time>2021-10-02T13:25:34.575Z</time>
      </trkpt>
      <trkpt lat="45.47714" lon="5.56191">
        <ele>498</ele>
        <time>2021-10-02T13:25:33.575Z</time>
      </trkpt>
      <trkpt lat="45.47716" lon="5.56183">
        <ele>498</ele>
        <time>2021-10-02T13:25:32.575Z</time>
      </trkpt>
      <trkpt lat="45.47718" lon="5.56176">
        <ele>498</ele>
        <time>2021-10-02T13:25:31.575Z</time>
      </trkpt>
      <trkpt lat="45.4772" lon="5.56168">
        <ele>498</ele>
        <time>2021-10-02T13:25:30.575Z</time>
      </trkpt>
      <trkpt lat="45.47723" lon="5.5616">
        <ele>498</ele>
        <time>2021-10-02T13:25:29.575Z</time>
      </trkpt>
      <trkpt lat="45.47725" lon="5.56152">
        <ele>498</ele>
        <time>2021-10-02T13:25:28.575Z</time>
      </trkpt>
      <trkpt lat="45.47728" lon="5.56144">
        <ele>498</ele>
        <time>2021-10-02T13:25:27.575Z</time>
      </trkpt>
      <trkpt lat="45.47731" lon="5.56137">
        <ele>498</ele>
        <time>2021-10-02T13:25:26.575Z</time>
      </trkpt>
      <trkpt lat="45.47734" lon="5.56129">
        <ele>498</ele>
        <time>2021-10-02T13:25:25.574Z</time>
      </trkpt>
      <trkpt lat="45.47738" lon="5.56122">
        <ele>498</ele>
        <time>2021-10-02T13:25:24.574Z</time>
      </trkpt>
      <trkpt lat="45.47742" lon="5.56114">
        <ele>498</ele>
        <time>2021-10-02T13:25:23.575Z</time>
      </trkpt>
      <trkpt lat="45.47746" lon="5.56106">
        <ele>498</ele>
        <time>2021-10-02T13:25:22.575Z</time>
      </trkpt>
      <trkpt lat="45.4775" lon="5.56098">
        <ele>498</ele>
        <time>2021-10-02T13:25:21.574Z</time>
      </trkpt>
      <trkpt lat="45.47754" lon="5.56091">
        <ele>498</ele>
        <time>2021-10-02T13:25:20.574Z</time>
      </trkpt>
      <trkpt lat="45.47759" lon="5.56081">
        <ele>497</ele>
        <time>2021-10-02T13:25:19.574Z</time>
      </trkpt>
      <trkpt lat="45.47764" lon="5.56073">
        <ele>497</ele>
        <time>2021-10-02T13:25:18.575Z</time>
      </trkpt>
      <trkpt lat="45.47768" lon="5.56065">
        <ele>497</ele>
        <time>2021-10-02T13:25:17.574Z</time>
      </trkpt>
      <trkpt lat="45.47772" lon="5.56058">
        <ele>497</ele>
        <time>2021-10-02T13:25:16.574Z</time>
      </trkpt>
      <trkpt lat="45.47777" lon="5.5605">
        <ele>497</ele>
        <time>2021-10-02T13:25:15.575Z</time>
      </trkpt>
      <trkpt lat="45.47781" lon="5.56041">
        <ele>497</ele>
        <time>2021-10-02T13:25:14.574Z</time>
      </trkpt>
      <trkpt lat="45.47785" lon="5.56032">
        <ele>497</ele>
        <time>2021-10-02T13:25:13.575Z</time>
      </trkpt>
      <trkpt lat="45.47789" lon="5.56024">
        <ele>497</ele>
        <time>2021-10-02T13:25:12.575Z</time>
      </trkpt>
      <trkpt lat="45.47793" lon="5.56015">
        <ele>497</ele>
        <time>2021-10-02T13:25:11.574Z</time>
      </trkpt>
      <trkpt lat="45.47796" lon="5.56007">
        <ele>498</ele>
        <time>2021-10-02T13:25:10.574Z</time>
      </trkpt>
      <trkpt lat="45.47799" lon="5.55998">
        <ele>498</ele>
        <time>2021-10-02T13:25:09.574Z</time>
      </trkpt>
      <trkpt lat="45.478" lon="5.55989">
        <ele>498</ele>
        <time>2021-10-02T13:25:08.575Z</time>
      </trkpt>
      <trkpt lat="45.478" lon="5.5598">
        <ele>499</ele>
        <time>2021-10-02T13:25:07.574Z</time>
      </trkpt>
      <trkpt lat="45.478" lon="5.55971">
        <ele>499</ele>
        <time>2021-10-02T13:25:06.574Z</time>
      </trkpt>
      <trkpt lat="45.47798" lon="5.55962">
        <ele>499</ele>
        <time>2021-10-02T13:25:05.575Z</time>
      </trkpt>
      <trkpt lat="45.47796" lon="5.55953">
        <ele>499</ele>
        <time>2021-10-02T13:25:04.575Z</time>
      </trkpt>
      <trkpt lat="45.47793" lon="5.55943">
        <ele>500</ele>
        <time>2021-10-02T13:25:03.574Z</time>
      </trkpt>
      <trkpt lat="45.47791" lon="5.55932">
        <ele>500</ele>
        <time>2021-10-02T13:25:02.574Z</time>
      </trkpt>
      <trkpt lat="45.47788" lon="5.55921">
        <ele>500</ele>
        <time>2021-10-02T13:25:01.575Z</time>
      </trkpt>
      <trkpt lat="45.47786" lon="5.5591">
        <ele>500</ele>
        <time>2021-10-02T13:25:00.574Z</time>
      </trkpt>
      <trkpt lat="45.47783" lon="5.55898">
        <ele>500</ele>
        <time>2021-10-02T13:24:59.575Z</time>
      </trkpt>
      <trkpt lat="45.4778" lon="5.55886">
        <ele>500</ele>
        <time>2021-10-02T13:24:58.575Z</time>
      </trkpt>
      <trkpt lat="45.47777" lon="5.55874">
        <ele>500</ele>
        <time>2021-10-02T13:24:57.575Z</time>
      </trkpt>
      <trkpt lat="45.47775" lon="5.55862">
        <ele>500</ele>
        <time>2021-10-02T13:24:56.575Z</time>
      </trkpt>
      <trkpt lat="45.47772" lon="5.5585">
        <ele>500</ele>
        <time>2021-10-02T13:24:55.575Z</time>
      </trkpt>
      <trkpt lat="45.47768" lon="5.55839">
        <ele>500</ele>
        <time>2021-10-02T13:24:54.574Z</time>
      </trkpt>
      <trkpt lat="45.47765" lon="5.55827">
        <ele>500</ele>
        <time>2021-10-02T13:24:53.575Z</time>
      </trkpt>
      <trkpt lat="45.47761" lon="5.55815">
        <ele>499</ele>
        <time>2021-10-02T13:24:52.574Z</time>
      </trkpt>
      <trkpt lat="45.47758" lon="5.55803">
        <ele>499</ele>
        <time>2021-10-02T13:24:51.574Z</time>
      </trkpt>
      <trkpt lat="45.47755" lon="5.55791">
        <ele>499</ele>
        <time>2021-10-02T13:24:50.575Z</time>
      </trkpt>
      <trkpt lat="45.47752" lon="5.55778">
        <ele>499</ele>
        <time>2021-10-02T13:24:49.575Z</time>
      </trkpt>
      <trkpt lat="45.47749" lon="5.55766">
        <ele>500</ele>
        <time>2021-10-02T13:24:48.574Z</time>
      </trkpt>
      <trkpt lat="45.47746" lon="5.55754">
        <ele>500</ele>
        <time>2021-10-02T13:24:47.575Z</time>
      </trkpt>
      <trkpt lat="45.47744" lon="5.55743">
        <ele>500</ele>
        <time>2021-10-02T13:24:46.575Z</time>
      </trkpt>
      <trkpt lat="45.47741" lon="5.55732">
        <ele>500</ele>
        <time>2021-10-02T13:24:45.575Z</time>
      </trkpt>
      <trkpt lat="45.47737" lon="5.55721">
        <ele>500</ele>
        <time>2021-10-02T13:24:44.574Z</time>
      </trkpt>
      <trkpt lat="45.47735" lon="5.5571">
        <ele>501</ele>
        <time>2021-10-02T13:24:43.574Z</time>
      </trkpt>
      <trkpt lat="45.47732" lon="5.55699">
        <ele>501</ele>
        <time>2021-10-02T13:24:42.575Z</time>
      </trkpt>
      <trkpt lat="45.47729" lon="5.55688">
        <ele>501</ele>
        <time>2021-10-02T13:24:41.575Z</time>
      </trkpt>
      <trkpt lat="45.47726" lon="5.55676">
        <ele>501</ele>
        <time>2021-10-02T13:24:40.575Z</time>
      </trkpt>
      <trkpt lat="45.47724" lon="5.55665">
        <ele>501</ele>
        <time>2021-10-02T13:24:39.575Z</time>
      </trkpt>
      <trkpt lat="45.47721" lon="5.55654">
        <ele>501</ele>
        <time>2021-10-02T13:24:38.575Z</time>
      </trkpt>
      <trkpt lat="45.47719" lon="5.55643">
        <ele>501</ele>
        <time>2021-10-02T13:24:37.575Z</time>
      </trkpt>
      <trkpt lat="45.47716" lon="5.55631">
        <ele>501</ele>
        <time>2021-10-02T13:24:36.574Z</time>
      </trkpt>
      <trkpt lat="45.47713" lon="5.5562">
        <ele>501</ele>
        <time>2021-10-02T13:24:35.575Z</time>
      </trkpt>
      <trkpt lat="45.4771" lon="5.55609">
        <ele>501</ele>
        <time>2021-10-02T13:24:34.575Z</time>
      </trkpt>
      <trkpt lat="45.47707" lon="5.55598">
        <ele>501</ele>
        <time>2021-10-02T13:24:33.574Z</time>
      </trkpt>
      <trkpt lat="45.47702" lon="5.55585">
        <ele>502</ele>
        <time>2021-10-02T13:24:32.574Z</time>
      </trkpt>
      <trkpt lat="45.47699" lon="5.55574">
        <ele>502</ele>
        <time>2021-10-02T13:24:31.575Z</time>
      </trkpt>
      <trkpt lat="45.47696" lon="5.55566">
        <ele>502</ele>
        <time>2021-10-02T13:24:30.575Z</time>
      </trkpt>
      <trkpt lat="45.47691" lon="5.55554">
        <ele>503</ele>
        <time>2021-10-02T13:24:29.574Z</time>
      </trkpt>
      <trkpt lat="45.47686" lon="5.55544">
        <ele>503</ele>
        <time>2021-10-02T13:24:28.575Z</time>
      </trkpt>
      <trkpt lat="45.47682" lon="5.55534">
        <ele>503</ele>
        <time>2021-10-02T13:24:27.575Z</time>
      </trkpt>
      <trkpt lat="45.47677" lon="5.55525">
        <ele>503</ele>
        <time>2021-10-02T13:24:26.574Z</time>
      </trkpt>
      <trkpt lat="45.47672" lon="5.55516">
        <ele>503</ele>
        <time>2021-10-02T13:24:25.575Z</time>
      </trkpt>
      <trkpt lat="45.47667" lon="5.55508">
        <ele>504</ele>
        <time>2021-10-02T13:24:24.575Z</time>
      </trkpt>
      <trkpt lat="45.47662" lon="5.55499">
        <ele>504</ele>
        <time>2021-10-02T13:24:23.574Z</time>
      </trkpt>
      <trkpt lat="45.47657" lon="5.55491">
        <ele>505</ele>
        <time>2021-10-02T13:24:22.575Z</time>
      </trkpt>
      <trkpt lat="45.47652" lon="5.55483">
        <ele>505</ele>
        <time>2021-10-02T13:24:21.575Z</time>
      </trkpt>
      <trkpt lat="45.47646" lon="5.55476">
        <ele>505</ele>
        <time>2021-10-02T13:24:20.575Z</time>
      </trkpt>
      <trkpt lat="45.47641" lon="5.55468">
        <ele>506</ele>
        <time>2021-10-02T13:24:19.574Z</time>
      </trkpt>
      <trkpt lat="45.47636" lon="5.55461">
        <ele>506</ele>
        <time>2021-10-02T13:24:18.575Z</time>
      </trkpt>
      <trkpt lat="45.47631" lon="5.55454">
        <ele>506</ele>
        <time>2021-10-02T13:24:17.575Z</time>
      </trkpt>
      <trkpt lat="45.47626" lon="5.55447">
        <ele>507</ele>
        <time>2021-10-02T13:24:16.575Z</time>
      </trkpt>
      <trkpt lat="45.47621" lon="5.55439">
        <ele>507</ele>
        <time>2021-10-02T13:24:15.575Z</time>
      </trkpt>
      <trkpt lat="45.47616" lon="5.55433">
        <ele>507</ele>
        <time>2021-10-02T13:24:14.575Z</time>
      </trkpt>
      <trkpt lat="45.47612" lon="5.55426">
        <ele>507</ele>
        <time>2021-10-02T13:24:13.574Z</time>
      </trkpt>
      <trkpt lat="45.47607" lon="5.5542">
        <ele>507</ele>
        <time>2021-10-02T13:24:12.575Z</time>
      </trkpt>
      <trkpt lat="45.47603" lon="5.55414">
        <ele>507</ele>
        <time>2021-10-02T13:24:11.574Z</time>
      </trkpt>
      <trkpt lat="45.47599" lon="5.55408">
        <ele>507</ele>
        <time>2021-10-02T13:24:10.574Z</time>
      </trkpt>
      <trkpt lat="45.47595" lon="5.55403">
        <ele>507</ele>
        <time>2021-10-02T13:24:09.575Z</time>
      </trkpt>
      <trkpt lat="45.47592" lon="5.55399">
        <ele>506</ele>
        <time>2021-10-02T13:24:08.575Z</time>
      </trkpt>
      <trkpt lat="45.47588" lon="5.55394">
        <ele>506</ele>
        <time>2021-10-02T13:24:07.575Z</time>
      </trkpt>
      <trkpt lat="45.47583" lon="5.5539">
        <ele>506</ele>
        <time>2021-10-02T13:24:06.575Z</time>
      </trkpt>
      <trkpt lat="45.47579" lon="5.55386">
        <ele>506</ele>
        <time>2021-10-02T13:24:05.575Z</time>
      </trkpt>
      <trkpt lat="45.47574" lon="5.55382">
        <ele>506</ele>
        <time>2021-10-02T13:24:04.575Z</time>
      </trkpt>
      <trkpt lat="45.4757" lon="5.55377">
        <ele>506</ele>
        <time>2021-10-02T13:24:03.574Z</time>
      </trkpt>
      <trkpt lat="45.47565" lon="5.55373">
        <ele>506</ele>
        <time>2021-10-02T13:24:02.575Z</time>
      </trkpt>
      <trkpt lat="45.47561" lon="5.55368">
        <ele>505</ele>
        <time>2021-10-02T13:24:01.575Z</time>
      </trkpt>
      <trkpt lat="45.47556" lon="5.55363">
        <ele>505</ele>
        <time>2021-10-02T13:24:00.575Z</time>
      </trkpt>
      <trkpt lat="45.47553" lon="5.55359">
        <ele>504</ele>
        <time>2021-10-02T13:23:59.574Z</time>
      </trkpt>
      <trkpt lat="45.47547" lon="5.55352">
        <ele>504</ele>
        <time>2021-10-02T13:23:58.575Z</time>
      </trkpt>
      <trkpt lat="45.47542" lon="5.55346">
        <ele>504</ele>
        <time>2021-10-02T13:23:57.574Z</time>
      </trkpt>
      <trkpt lat="45.47537" lon="5.55341">
        <ele>504</ele>
        <time>2021-10-02T13:23:56.575Z</time>
      </trkpt>
      <trkpt lat="45.47532" lon="5.55335">
        <ele>504</ele>
        <time>2021-10-02T13:23:55.575Z</time>
      </trkpt>
      <trkpt lat="45.47527" lon="5.55329">
        <ele>504</ele>
        <time>2021-10-02T13:23:54.574Z</time>
      </trkpt>
      <trkpt lat="45.47522" lon="5.55323">
        <ele>504</ele>
        <time>2021-10-02T13:23:53.575Z</time>
      </trkpt>
      <trkpt lat="45.47518" lon="5.55318">
        <ele>504</ele>
        <time>2021-10-02T13:23:52.575Z</time>
      </trkpt>
      <trkpt lat="45.47513" lon="5.55312">
        <ele>504</ele>
        <time>2021-10-02T13:23:51.575Z</time>
      </trkpt>
      <trkpt lat="45.47508" lon="5.55307">
        <ele>504</ele>
        <time>2021-10-02T13:23:50.575Z</time>
      </trkpt>
      <trkpt lat="45.47503" lon="5.55301">
        <ele>504</ele>
        <time>2021-10-02T13:23:49.574Z</time>
      </trkpt>
      <trkpt lat="45.47498" lon="5.55295">
        <ele>504</ele>
        <time>2021-10-02T13:23:48.574Z</time>
      </trkpt>
      <trkpt lat="45.47493" lon="5.5529">
        <ele>503</ele>
        <time>2021-10-02T13:23:47.574Z</time>
      </trkpt>
      <trkpt lat="45.47488" lon="5.55284">
        <ele>503</ele>
        <time>2021-10-02T13:23:46.575Z</time>
      </trkpt>
      <trkpt lat="45.47482" lon="5.55279">
        <ele>503</ele>
        <time>2021-10-02T13:23:45.575Z</time>
      </trkpt>
      <trkpt lat="45.47477" lon="5.55274">
        <ele>502</ele>
        <time>2021-10-02T13:23:44.575Z</time>
      </trkpt>
      <trkpt lat="45.47472" lon="5.55268">
        <ele>502</ele>
        <time>2021-10-02T13:23:43.575Z</time>
      </trkpt>
      <trkpt lat="45.47467" lon="5.55262">
        <ele>502</ele>
        <time>2021-10-02T13:23:42.574Z</time>
      </trkpt>
      <trkpt lat="45.47462" lon="5.55256">
        <ele>502</ele>
        <time>2021-10-02T13:23:41.575Z</time>
      </trkpt>
      <trkpt lat="45.47457" lon="5.5525">
        <ele>502</ele>
        <time>2021-10-02T13:23:40.575Z</time>
      </trkpt>
      <trkpt lat="45.47453" lon="5.55244">
        <ele>502</ele>
        <time>2021-10-02T13:23:39.575Z</time>
      </trkpt>
      <trkpt lat="45.47449" lon="5.55237">
        <ele>502</ele>
        <time>2021-10-02T13:23:38.574Z</time>
      </trkpt>
      <trkpt lat="45.47446" lon="5.5523">
        <ele>502</ele>
        <time>2021-10-02T13:23:37.575Z</time>
      </trkpt>
      <trkpt lat="45.47443" lon="5.55222">
        <ele>502</ele>
        <time>2021-10-02T13:23:36.574Z</time>
      </trkpt>
      <trkpt lat="45.4744" lon="5.55213">
        <ele>503</ele>
        <time>2021-10-02T13:23:35.575Z</time>
      </trkpt>
      <trkpt lat="45.47437" lon="5.55205">
        <ele>503</ele>
        <time>2021-10-02T13:23:34.574Z</time>
      </trkpt>
      <trkpt lat="45.47434" lon="5.55197">
        <ele>502</ele>
        <time>2021-10-02T13:23:33.575Z</time>
      </trkpt>
      <trkpt lat="45.47431" lon="5.55189">
        <ele>503</ele>
        <time>2021-10-02T13:23:32.574Z</time>
      </trkpt>
      <trkpt lat="45.47429" lon="5.55181">
        <ele>502</ele>
        <time>2021-10-02T13:23:31.575Z</time>
      </trkpt>
      <trkpt lat="45.47426" lon="5.55173">
        <ele>502</ele>
        <time>2021-10-02T13:23:30.574Z</time>
      </trkpt>
      <trkpt lat="45.47423" lon="5.55166">
        <ele>502</ele>
        <time>2021-10-02T13:23:29.574Z</time>
      </trkpt>
      <trkpt lat="45.4742" lon="5.55159">
        <ele>502</ele>
        <time>2021-10-02T13:23:28.575Z</time>
      </trkpt>
      <trkpt lat="45.47416" lon="5.55153">
        <ele>502</ele>
        <time>2021-10-02T13:23:27.575Z</time>
      </trkpt>
      <trkpt lat="45.47413" lon="5.55147">
        <ele>502</ele>
        <time>2021-10-02T13:23:26.574Z</time>
      </trkpt>
      <trkpt lat="45.47408" lon="5.5514">
        <ele>502</ele>
        <time>2021-10-02T13:23:25.575Z</time>
      </trkpt>
      <trkpt lat="45.47404" lon="5.55134">
        <ele>502</ele>
        <time>2021-10-02T13:23:24.574Z</time>
      </trkpt>
      <trkpt lat="45.474" lon="5.55127">
        <ele>503</ele>
        <time>2021-10-02T13:23:23.575Z</time>
      </trkpt>
      <trkpt lat="45.47396" lon="5.55121">
        <ele>503</ele>
        <time>2021-10-02T13:23:22.575Z</time>
      </trkpt>
      <trkpt lat="45.47392" lon="5.55116">
        <ele>503</ele>
        <time>2021-10-02T13:23:21.575Z</time>
      </trkpt>
      <trkpt lat="45.47388" lon="5.5511">
        <ele>503</ele>
        <time>2021-10-02T13:23:20.575Z</time>
      </trkpt>
      <trkpt lat="45.47384" lon="5.55105">
        <ele>503</ele>
        <time>2021-10-02T13:23:19.575Z</time>
      </trkpt>
      <trkpt lat="45.47381" lon="5.551">
        <ele>503</ele>
        <time>2021-10-02T13:23:18.575Z</time>
      </trkpt>
      <trkpt lat="45.47377" lon="5.55095">
        <ele>503</ele>
        <time>2021-10-02T13:23:17.575Z</time>
      </trkpt>
      <trkpt lat="45.47375" lon="5.55092">
        <ele>503</ele>
        <time>2021-10-02T13:23:16.575Z</time>
      </trkpt>
      <trkpt lat="45.47371" lon="5.55086">
        <ele>503</ele>
        <time>2021-10-02T13:23:15.574Z</time>
      </trkpt>
      <trkpt lat="45.47368" lon="5.5508">
        <ele>503</ele>
        <time>2021-10-02T13:23:14.574Z</time>
      </trkpt>
      <trkpt lat="45.47364" lon="5.55075">
        <ele>503</ele>
        <time>2021-10-02T13:23:13.575Z</time>
      </trkpt>
      <trkpt lat="45.4736" lon="5.5507">
        <ele>503</ele>
        <time>2021-10-02T13:23:12.575Z</time>
      </trkpt>
      <trkpt lat="45.47357" lon="5.55066">
        <ele>503</ele>
        <time>2021-10-02T13:23:11.575Z</time>
      </trkpt>
      <trkpt lat="45.47353" lon="5.5506">
        <ele>503</ele>
        <time>2021-10-02T13:23:10.575Z</time>
      </trkpt>
      <trkpt lat="45.47349" lon="5.55056">
        <ele>503</ele>
        <time>2021-10-02T13:23:09.575Z</time>
      </trkpt>
      <trkpt lat="45.47346" lon="5.55051">
        <ele>503</ele>
        <time>2021-10-02T13:23:08.575Z</time>
      </trkpt>
      <trkpt lat="45.47343" lon="5.55046">
        <ele>503</ele>
        <time>2021-10-02T13:23:07.575Z</time>
      </trkpt>
      <trkpt lat="45.47339" lon="5.55041">
        <ele>503</ele>
        <time>2021-10-02T13:23:06.575Z</time>
      </trkpt>
      <trkpt lat="45.47336" lon="5.55036">
        <ele>502</ele>
        <time>2021-10-02T13:23:05.574Z</time>
      </trkpt>
      <trkpt lat="45.47331" lon="5.55029">
        <ele>502</ele>
        <time>2021-10-02T13:23:04.575Z</time>
      </trkpt>
      <trkpt lat="45.47326" lon="5.55023">
        <ele>502</ele>
        <time>2021-10-02T13:23:03.575Z</time>
      </trkpt>
      <trkpt lat="45.47322" lon="5.55018">
        <ele>502</ele>
        <time>2021-10-02T13:23:02.575Z</time>
      </trkpt>
      <trkpt lat="45.47316" lon="5.55012">
        <ele>501</ele>
        <time>2021-10-02T13:23:01.575Z</time>
      </trkpt>
      <trkpt lat="45.47309" lon="5.55004">
        <ele>501</ele>
        <time>2021-10-02T13:23:00.575Z</time>
      </trkpt>
      <trkpt lat="45.47304" lon="5.54997">
        <ele>500</ele>
        <time>2021-10-02T13:22:59.575Z</time>
      </trkpt>
      <trkpt lat="45.47298" lon="5.54989">
        <ele>500</ele>
        <time>2021-10-02T13:22:58.575Z</time>
      </trkpt>
      <trkpt lat="45.47293" lon="5.54984">
        <ele>500</ele>
        <time>2021-10-02T13:22:57.575Z</time>
      </trkpt>
      <trkpt lat="45.47288" lon="5.54976">
        <ele>500</ele>
        <time>2021-10-02T13:22:56.575Z</time>
      </trkpt>
      <trkpt lat="45.47283" lon="5.54968">
        <ele>501</ele>
        <time>2021-10-02T13:22:55.575Z</time>
      </trkpt>
      <trkpt lat="45.47277" lon="5.54959">
        <ele>501</ele>
        <time>2021-10-02T13:22:54.575Z</time>
      </trkpt>
      <trkpt lat="45.47271" lon="5.54951">
        <ele>502</ele>
        <time>2021-10-02T13:22:53.575Z</time>
      </trkpt>
      <trkpt lat="45.47267" lon="5.54945">
        <ele>502</ele>
        <time>2021-10-02T13:22:52.575Z</time>
      </trkpt>
      <trkpt lat="45.47261" lon="5.54938">
        <ele>502</ele>
        <time>2021-10-02T13:22:51.575Z</time>
      </trkpt>
      <trkpt lat="45.47256" lon="5.5493">
        <ele>501</ele>
        <time>2021-10-02T13:22:50.574Z</time>
      </trkpt>
      <trkpt lat="45.47249" lon="5.54922">
        <ele>501</ele>
        <time>2021-10-02T13:22:49.575Z</time>
      </trkpt>
      <trkpt lat="45.47244" lon="5.54916">
        <ele>502</ele>
        <time>2021-10-02T13:22:48.575Z</time>
      </trkpt>
      <trkpt lat="45.47238" lon="5.54909">
        <ele>502</ele>
        <time>2021-10-02T13:22:47.575Z</time>
      </trkpt>
      <trkpt lat="45.47232" lon="5.54901">
        <ele>502</ele>
        <time>2021-10-02T13:22:46.575Z</time>
      </trkpt>
      <trkpt lat="45.47225" lon="5.54891">
        <ele>503</ele>
        <time>2021-10-02T13:22:45.575Z</time>
      </trkpt>
      <trkpt lat="45.47218" lon="5.54883">
        <ele>503</ele>
        <time>2021-10-02T13:22:44.575Z</time>
      </trkpt>
      <trkpt lat="45.47212" lon="5.54875">
        <ele>503</ele>
        <time>2021-10-02T13:22:43.574Z</time>
      </trkpt>
      <trkpt lat="45.47206" lon="5.54866">
        <ele>503</ele>
        <time>2021-10-02T13:22:42.575Z</time>
      </trkpt>
      <trkpt lat="45.47199" lon="5.54858">
        <ele>504</ele>
        <time>2021-10-02T13:22:41.575Z</time>
      </trkpt>
      <trkpt lat="45.47192" lon="5.54849">
        <ele>504</ele>
        <time>2021-10-02T13:22:40.575Z</time>
      </trkpt>
      <trkpt lat="45.47186" lon="5.5484">
        <ele>504</ele>
        <time>2021-10-02T13:22:39.575Z</time>
      </trkpt>
      <trkpt lat="45.47179" lon="5.54831">
        <ele>504</ele>
        <time>2021-10-02T13:22:38.575Z</time>
      </trkpt>
      <trkpt lat="45.47172" lon="5.54821">
        <ele>504</ele>
        <time>2021-10-02T13:22:37.575Z</time>
      </trkpt>
      <trkpt lat="45.47165" lon="5.54812">
        <ele>504</ele>
        <time>2021-10-02T13:22:36.575Z</time>
      </trkpt>
      <trkpt lat="45.4716" lon="5.54804">
        <ele>504</ele>
        <time>2021-10-02T13:22:35.575Z</time>
      </trkpt>
      <trkpt lat="45.47152" lon="5.54792">
        <ele>504</ele>
        <time>2021-10-02T13:22:34.575Z</time>
      </trkpt>
      <trkpt lat="45.47145" lon="5.54783">
        <ele>504</ele>
        <time>2021-10-02T13:22:33.575Z</time>
      </trkpt>
      <trkpt lat="45.47138" lon="5.54773">
        <ele>505</ele>
        <time>2021-10-02T13:22:32.575Z</time>
      </trkpt>
      <trkpt lat="45.47133" lon="5.54764">
        <ele>505</ele>
        <time>2021-10-02T13:22:31.575Z</time>
      </trkpt>
      <trkpt lat="45.47126" lon="5.54752">
        <ele>505</ele>
        <time>2021-10-02T13:22:30.575Z</time>
      </trkpt>
      <trkpt lat="45.47122" lon="5.54741">
        <ele>505</ele>
        <time>2021-10-02T13:22:29.575Z</time>
      </trkpt>
      <trkpt lat="45.47117" lon="5.5473">
        <ele>506</ele>
        <time>2021-10-02T13:22:28.575Z</time>
      </trkpt>
      <trkpt lat="45.47113" lon="5.54719">
        <ele>506</ele>
        <time>2021-10-02T13:22:27.575Z</time>
      </trkpt>
      <trkpt lat="45.47111" lon="5.5471">
        <ele>507</ele>
        <time>2021-10-02T13:22:26.574Z</time>
      </trkpt>
      <trkpt lat="45.47107" lon="5.547">
        <ele>507</ele>
        <time>2021-10-02T13:22:25.575Z</time>
      </trkpt>
      <trkpt lat="45.47102" lon="5.5469">
        <ele>507</ele>
        <time>2021-10-02T13:22:24.575Z</time>
      </trkpt>
      <trkpt lat="45.47097" lon="5.54682">
        <ele>508</ele>
        <time>2021-10-02T13:22:23.575Z</time>
      </trkpt>
      <trkpt lat="45.47092" lon="5.54675">
        <ele>508</ele>
        <time>2021-10-02T13:22:22.574Z</time>
      </trkpt>
      <trkpt lat="45.47087" lon="5.54669">
        <ele>509</ele>
        <time>2021-10-02T13:22:21.575Z</time>
      </trkpt>
      <trkpt lat="45.47082" lon="5.54664">
        <ele>509</ele>
        <time>2021-10-02T13:22:20.575Z</time>
      </trkpt>
      <trkpt lat="45.47075" lon="5.54656">
        <ele>509</ele>
        <time>2021-10-02T13:22:19.574Z</time>
      </trkpt>
      <trkpt lat="45.47071" lon="5.54651">
        <ele>508</ele>
        <time>2021-10-02T13:22:18.575Z</time>
      </trkpt>
      <trkpt lat="45.47064" lon="5.54642">
        <ele>507</ele>
        <time>2021-10-02T13:22:17.575Z</time>
      </trkpt>
      <trkpt lat="45.47059" lon="5.54636">
        <ele>506</ele>
        <time>2021-10-02T13:22:16.574Z</time>
      </trkpt>
      <trkpt lat="45.47053" lon="5.54628">
        <ele>504</ele>
        <time>2021-10-02T13:22:15.574Z</time>
      </trkpt>
      <trkpt lat="45.47048" lon="5.5462">
        <ele>503</ele>
        <time>2021-10-02T13:22:14.575Z</time>
      </trkpt>
      <trkpt lat="45.47042" lon="5.54609">
        <ele>502</ele>
        <time>2021-10-02T13:22:13.574Z</time>
      </trkpt>
      <trkpt lat="45.47038" lon="5.54602">
        <ele>501</ele>
        <time>2021-10-02T13:22:12.574Z</time>
      </trkpt>
      <trkpt lat="45.47033" lon="5.54592">
        <ele>501</ele>
        <time>2021-10-02T13:22:11.574Z</time>
      </trkpt>
      <trkpt lat="45.47028" lon="5.54582">
        <ele>501</ele>
        <time>2021-10-02T13:22:10.574Z</time>
      </trkpt>
      <trkpt lat="45.47023" lon="5.54572">
        <ele>500</ele>
        <time>2021-10-02T13:22:09.575Z</time>
      </trkpt>
      <trkpt lat="45.47019" lon="5.54562">
        <ele>500</ele>
        <time>2021-10-02T13:22:08.575Z</time>
      </trkpt>
      <trkpt lat="45.47015" lon="5.54552">
        <ele>500</ele>
        <time>2021-10-02T13:22:07.575Z</time>
      </trkpt>
      <trkpt lat="45.4701" lon="5.54541">
        <ele>500</ele>
        <time>2021-10-02T13:22:06.575Z</time>
      </trkpt>
      <trkpt lat="45.47006" lon="5.5453">
        <ele>499</ele>
        <time>2021-10-02T13:22:05.574Z</time>
      </trkpt>
      <trkpt lat="45.47002" lon="5.54519">
        <ele>499</ele>
        <time>2021-10-02T13:22:04.575Z</time>
      </trkpt>
      <trkpt lat="45.46998" lon="5.54507">
        <ele>499</ele>
        <time>2021-10-02T13:22:03.575Z</time>
      </trkpt>
      <trkpt lat="45.46993" lon="5.54496">
        <ele>499</ele>
        <time>2021-10-02T13:22:02.575Z</time>
      </trkpt>
      <trkpt lat="45.46988" lon="5.54484">
        <ele>499</ele>
        <time>2021-10-02T13:22:01.574Z</time>
      </trkpt>
      <trkpt lat="45.46984" lon="5.54472">
        <ele>499</ele>
        <time>2021-10-02T13:22:00.574Z</time>
      </trkpt>
      <trkpt lat="45.46977" lon="5.54458">
        <ele>499</ele>
        <time>2021-10-02T13:21:59.575Z</time>
      </trkpt>
      <trkpt lat="45.46971" lon="5.54447">
        <ele>498</ele>
        <time>2021-10-02T13:21:58.574Z</time>
      </trkpt>
      <trkpt lat="45.46966" lon="5.54438">
        <ele>498</ele>
        <time>2021-10-02T13:21:57.575Z</time>
      </trkpt>
      <trkpt lat="45.4696" lon="5.54428">
        <ele>499</ele>
        <time>2021-10-02T13:21:56.575Z</time>
      </trkpt>
      <trkpt lat="45.46953" lon="5.54418">
        <ele>499</ele>
        <time>2021-10-02T13:21:55.575Z</time>
      </trkpt>
      <trkpt lat="45.46945" lon="5.54409">
        <ele>499</ele>
        <time>2021-10-02T13:21:54.575Z</time>
      </trkpt>
      <trkpt lat="45.46937" lon="5.544">
        <ele>500</ele>
        <time>2021-10-02T13:21:53.575Z</time>
      </trkpt>
      <trkpt lat="45.46928" lon="5.54391">
        <ele>500</ele>
        <time>2021-10-02T13:21:52.575Z</time>
      </trkpt>
      <trkpt lat="45.4692" lon="5.54382">
        <ele>501</ele>
        <time>2021-10-02T13:21:51.575Z</time>
      </trkpt>
      <trkpt lat="45.46911" lon="5.54373">
        <ele>501</ele>
        <time>2021-10-02T13:21:50.575Z</time>
      </trkpt>
      <trkpt lat="45.46902" lon="5.54364">
        <ele>502</ele>
        <time>2021-10-02T13:21:49.575Z</time>
      </trkpt>
      <trkpt lat="45.46894" lon="5.54355">
        <ele>502</ele>
        <time>2021-10-02T13:21:48.574Z</time>
      </trkpt>
      <trkpt lat="45.46884" lon="5.54346">
        <ele>502</ele>
        <time>2021-10-02T13:21:47.575Z</time>
      </trkpt>
      <trkpt lat="45.46874" lon="5.54335">
        <ele>502</ele>
        <time>2021-10-02T13:21:46.574Z</time>
      </trkpt>
      <trkpt lat="45.46865" lon="5.54326">
        <ele>503</ele>
        <time>2021-10-02T13:21:45.575Z</time>
      </trkpt>
      <trkpt lat="45.46855" lon="5.54316">
        <ele>503</ele>
        <time>2021-10-02T13:21:44.575Z</time>
      </trkpt>
      <trkpt lat="45.46846" lon="5.54307">
        <ele>504</ele>
        <time>2021-10-02T13:21:43.574Z</time>
      </trkpt>
      <trkpt lat="45.46837" lon="5.54297">
        <ele>505</ele>
        <time>2021-10-02T13:21:42.575Z</time>
      </trkpt>
      <trkpt lat="45.46828" lon="5.54287">
        <ele>506</ele>
        <time>2021-10-02T13:21:41.575Z</time>
      </trkpt>
      <trkpt lat="45.4682" lon="5.54277">
        <ele>506</ele>
        <time>2021-10-02T13:21:40.575Z</time>
      </trkpt>
      <trkpt lat="45.46811" lon="5.54267">
        <ele>507</ele>
        <time>2021-10-02T13:21:39.575Z</time>
      </trkpt>
      <trkpt lat="45.46803" lon="5.54257">
        <ele>507</ele>
        <time>2021-10-02T13:21:38.575Z</time>
      </trkpt>
      <trkpt lat="45.46795" lon="5.54248">
        <ele>508</ele>
        <time>2021-10-02T13:21:37.575Z</time>
      </trkpt>
      <trkpt lat="45.46789" lon="5.5424">
        <ele>508</ele>
        <time>2021-10-02T13:21:36.575Z</time>
      </trkpt>
      <trkpt lat="45.4678" lon="5.54228">
        <ele>507</ele>
        <time>2021-10-02T13:21:35.575Z</time>
      </trkpt>
      <trkpt lat="45.46772" lon="5.54218">
        <ele>507</ele>
        <time>2021-10-02T13:21:34.575Z</time>
      </trkpt>
      <trkpt lat="45.46764" lon="5.54209">
        <ele>507</ele>
        <time>2021-10-02T13:21:33.575Z</time>
      </trkpt>
      <trkpt lat="45.46757" lon="5.54201">
        <ele>508</ele>
        <time>2021-10-02T13:21:32.575Z</time>
      </trkpt>
      <trkpt lat="45.46748" lon="5.54193">
        <ele>508</ele>
        <time>2021-10-02T13:21:31.575Z</time>
      </trkpt>
      <trkpt lat="45.46737" lon="5.54183">
        <ele>507</ele>
        <time>2021-10-02T13:21:30.575Z</time>
      </trkpt>
      <trkpt lat="45.46728" lon="5.54175">
        <ele>507</ele>
        <time>2021-10-02T13:21:29.575Z</time>
      </trkpt>
      <trkpt lat="45.4672" lon="5.54169">
        <ele>508</ele>
        <time>2021-10-02T13:21:28.575Z</time>
      </trkpt>
      <trkpt lat="45.4671" lon="5.54163">
        <ele>508</ele>
        <time>2021-10-02T13:21:27.574Z</time>
      </trkpt>
      <trkpt lat="45.46698" lon="5.54153">
        <ele>508</ele>
        <time>2021-10-02T13:21:26.575Z</time>
      </trkpt>
      <trkpt lat="45.4669" lon="5.54147">
        <ele>509</ele>
        <time>2021-10-02T13:21:25.575Z</time>
      </trkpt>
      <trkpt lat="45.46678" lon="5.54137">
        <ele>510</ele>
        <time>2021-10-02T13:21:24.575Z</time>
      </trkpt>
      <trkpt lat="45.46668" lon="5.54129">
        <ele>510</ele>
        <time>2021-10-02T13:21:23.575Z</time>
      </trkpt>
      <trkpt lat="45.4666" lon="5.54123">
        <ele>510</ele>
        <time>2021-10-02T13:21:22.575Z</time>
      </trkpt>
      <trkpt lat="45.4665" lon="5.54116">
        <ele>511</ele>
        <time>2021-10-02T13:21:21.575Z</time>
      </trkpt>
      <trkpt lat="45.46639" lon="5.54108">
        <ele>511</ele>
        <time>2021-10-02T13:21:20.575Z</time>
      </trkpt>
      <trkpt lat="45.46627" lon="5.54098">
        <ele>511</ele>
        <time>2021-10-02T13:21:19.574Z</time>
      </trkpt>
      <trkpt lat="45.46618" lon="5.5409">
        <ele>511</ele>
        <time>2021-10-02T13:21:18.575Z</time>
      </trkpt>
      <trkpt lat="45.46608" lon="5.54083">
        <ele>512</ele>
        <time>2021-10-02T13:21:17.575Z</time>
      </trkpt>
      <trkpt lat="45.46598" lon="5.54075">
        <ele>512</ele>
        <time>2021-10-02T13:21:16.575Z</time>
      </trkpt>
      <trkpt lat="45.46588" lon="5.54067">
        <ele>512</ele>
        <time>2021-10-02T13:21:15.575Z</time>
      </trkpt>
      <trkpt lat="45.46578" lon="5.5406">
        <ele>512</ele>
        <time>2021-10-02T13:21:14.574Z</time>
      </trkpt>
      <trkpt lat="45.46569" lon="5.54052">
        <ele>512</ele>
        <time>2021-10-02T13:21:13.574Z</time>
      </trkpt>
      <trkpt lat="45.4656" lon="5.54045">
        <ele>512</ele>
        <time>2021-10-02T13:21:12.575Z</time>
      </trkpt>
      <trkpt lat="45.46553" lon="5.5404">
        <ele>512</ele>
        <time>2021-10-02T13:21:11.575Z</time>
      </trkpt>
      <trkpt lat="45.46543" lon="5.54034">
        <ele>511</ele>
        <time>2021-10-02T13:21:10.575Z</time>
      </trkpt>
      <trkpt lat="45.46533" lon="5.54026">
        <ele>511</ele>
        <time>2021-10-02T13:21:09.575Z</time>
      </trkpt>
      <trkpt lat="45.46526" lon="5.54019">
        <ele>512</ele>
        <time>2021-10-02T13:21:08.574Z</time>
      </trkpt>
      <trkpt lat="45.46518" lon="5.54011">
        <ele>512</ele>
        <time>2021-10-02T13:21:07.575Z</time>
      </trkpt>
      <trkpt lat="45.46512" lon="5.54003">
        <ele>512</ele>
        <time>2021-10-02T13:21:06.575Z</time>
      </trkpt>
      <trkpt lat="45.46505" lon="5.53995">
        <ele>512</ele>
        <time>2021-10-02T13:21:05.575Z</time>
      </trkpt>
      <trkpt lat="45.46499" lon="5.53986">
        <ele>512</ele>
        <time>2021-10-02T13:21:04.575Z</time>
      </trkpt>
      <trkpt lat="45.46494" lon="5.53977">
        <ele>512</ele>
        <time>2021-10-02T13:21:03.574Z</time>
      </trkpt>
      <trkpt lat="45.46491" lon="5.5397">
        <ele>512</ele>
        <time>2021-10-02T13:21:02.575Z</time>
      </trkpt>
      <trkpt lat="45.46486" lon="5.53962">
        <ele>511</ele>
        <time>2021-10-02T13:21:01.574Z</time>
      </trkpt>
      <trkpt lat="45.46482" lon="5.53953">
        <ele>511</ele>
        <time>2021-10-02T13:21:00.575Z</time>
      </trkpt>
      <trkpt lat="45.46477" lon="5.53943">
        <ele>510</ele>
        <time>2021-10-02T13:20:59.574Z</time>
      </trkpt>
      <trkpt lat="45.46473" lon="5.53934">
        <ele>510</ele>
        <time>2021-10-02T13:20:58.575Z</time>
      </trkpt>
      <trkpt lat="45.46469" lon="5.53925">
        <ele>510</ele>
        <time>2021-10-02T13:20:57.575Z</time>
      </trkpt>
      <trkpt lat="45.46466" lon="5.53916">
        <ele>510</ele>
        <time>2021-10-02T13:20:56.575Z</time>
      </trkpt>
      <trkpt lat="45.46462" lon="5.53907">
        <ele>510</ele>
        <time>2021-10-02T13:20:55.575Z</time>
      </trkpt>
      <trkpt lat="45.46459" lon="5.53898">
        <ele>510</ele>
        <time>2021-10-02T13:20:54.574Z</time>
      </trkpt>
      <trkpt lat="45.46455" lon="5.5389">
        <ele>510</ele>
        <time>2021-10-02T13:20:53.574Z</time>
      </trkpt>
      <trkpt lat="45.46452" lon="5.53882">
        <ele>510</ele>
        <time>2021-10-02T13:20:52.575Z</time>
      </trkpt>
      <trkpt lat="45.4645" lon="5.53875">
        <ele>510</ele>
        <time>2021-10-02T13:20:51.574Z</time>
      </trkpt>
      <trkpt lat="45.46446" lon="5.53867">
        <ele>510</ele>
        <time>2021-10-02T13:20:50.575Z</time>
      </trkpt>
      <trkpt lat="45.46443" lon="5.53859">
        <ele>510</ele>
        <time>2021-10-02T13:20:49.574Z</time>
      </trkpt>
      <trkpt lat="45.4644" lon="5.5385">
        <ele>510</ele>
        <time>2021-10-02T13:20:48.575Z</time>
      </trkpt>
      <trkpt lat="45.46437" lon="5.53842">
        <ele>510</ele>
        <time>2021-10-02T13:20:47.575Z</time>
      </trkpt>
      <trkpt lat="45.46434" lon="5.53834">
        <ele>510</ele>
        <time>2021-10-02T13:20:46.575Z</time>
      </trkpt>
      <trkpt lat="45.46431" lon="5.53826">
        <ele>510</ele>
        <time>2021-10-02T13:20:45.575Z</time>
      </trkpt>
      <trkpt lat="45.46427" lon="5.53818">
        <ele>510</ele>
        <time>2021-10-02T13:20:44.575Z</time>
      </trkpt>
      <trkpt lat="45.46423" lon="5.5381">
        <ele>509</ele>
        <time>2021-10-02T13:20:43.575Z</time>
      </trkpt>
      <trkpt lat="45.46419" lon="5.53803">
        <ele>509</ele>
        <time>2021-10-02T13:20:42.575Z</time>
      </trkpt>
      <trkpt lat="45.46415" lon="5.53796">
        <ele>509</ele>
        <time>2021-10-02T13:20:41.574Z</time>
      </trkpt>
      <trkpt lat="45.4641" lon="5.53789">
        <ele>509</ele>
        <time>2021-10-02T13:20:40.574Z</time>
      </trkpt>
      <trkpt lat="45.46405" lon="5.53782">
        <ele>509</ele>
        <time>2021-10-02T13:20:39.575Z</time>
      </trkpt>
      <trkpt lat="45.464" lon="5.53776">
        <ele>510</ele>
        <time>2021-10-02T13:20:38.575Z</time>
      </trkpt>
      <trkpt lat="45.46394" lon="5.5377">
        <ele>510</ele>
        <time>2021-10-02T13:20:37.574Z</time>
      </trkpt>
      <trkpt lat="45.46389" lon="5.53764">
        <ele>511</ele>
        <time>2021-10-02T13:20:36.574Z</time>
      </trkpt>
      <trkpt lat="45.46383" lon="5.53757">
        <ele>511</ele>
        <time>2021-10-02T13:20:35.575Z</time>
      </trkpt>
      <trkpt lat="45.46377" lon="5.53751">
        <ele>511</ele>
        <time>2021-10-02T13:20:34.575Z</time>
      </trkpt>
      <trkpt lat="45.46371" lon="5.53746">
        <ele>511</ele>
        <time>2021-10-02T13:20:33.575Z</time>
      </trkpt>
      <trkpt lat="45.46364" lon="5.5374">
        <ele>511</ele>
        <time>2021-10-02T13:20:32.575Z</time>
      </trkpt>
      <trkpt lat="45.46358" lon="5.53735">
        <ele>511</ele>
        <time>2021-10-02T13:20:31.575Z</time>
      </trkpt>
      <trkpt lat="45.46351" lon="5.5373">
        <ele>511</ele>
        <time>2021-10-02T13:20:30.575Z</time>
      </trkpt>
      <trkpt lat="45.46344" lon="5.53725">
        <ele>511</ele>
        <time>2021-10-02T13:20:29.574Z</time>
      </trkpt>
      <trkpt lat="45.46337" lon="5.53721">
        <ele>511</ele>
        <time>2021-10-02T13:20:28.574Z</time>
      </trkpt>
      <trkpt lat="45.4633" lon="5.53717">
        <ele>510</ele>
        <time>2021-10-02T13:20:27.575Z</time>
      </trkpt>
      <trkpt lat="45.46323" lon="5.53713">
        <ele>510</ele>
        <time>2021-10-02T13:20:26.574Z</time>
      </trkpt>
      <trkpt lat="45.46315" lon="5.53709">
        <ele>510</ele>
        <time>2021-10-02T13:20:25.575Z</time>
      </trkpt>
      <trkpt lat="45.46308" lon="5.53705">
        <ele>510</ele>
        <time>2021-10-02T13:20:24.575Z</time>
      </trkpt>
      <trkpt lat="45.463" lon="5.53701">
        <ele>509</ele>
        <time>2021-10-02T13:20:23.575Z</time>
      </trkpt>
      <trkpt lat="45.46295" lon="5.53698">
        <ele>509</ele>
        <time>2021-10-02T13:20:22.575Z</time>
      </trkpt>
      <trkpt lat="45.46288" lon="5.53694">
        <ele>509</ele>
        <time>2021-10-02T13:20:21.575Z</time>
      </trkpt>
      <trkpt lat="45.46282" lon="5.5369">
        <ele>509</ele>
        <time>2021-10-02T13:20:20.575Z</time>
      </trkpt>
      <trkpt lat="45.46274" lon="5.53684">
        <ele>509</ele>
        <time>2021-10-02T13:20:19.575Z</time>
      </trkpt>
      <trkpt lat="45.46268" lon="5.53679">
        <ele>509</ele>
        <time>2021-10-02T13:20:18.575Z</time>
      </trkpt>
      <trkpt lat="45.46263" lon="5.53675">
        <ele>509</ele>
        <time>2021-10-02T13:20:17.575Z</time>
      </trkpt>
      <trkpt lat="45.46256" lon="5.53669">
        <ele>510</ele>
        <time>2021-10-02T13:20:16.574Z</time>
      </trkpt>
      <trkpt lat="45.4625" lon="5.53663">
        <ele>510</ele>
        <time>2021-10-02T13:20:15.574Z</time>
      </trkpt>
      <trkpt lat="45.46243" lon="5.53655">
        <ele>510</ele>
        <time>2021-10-02T13:20:14.575Z</time>
      </trkpt>
      <trkpt lat="45.46238" lon="5.5365">
        <ele>511</ele>
        <time>2021-10-02T13:20:13.575Z</time>
      </trkpt>
      <trkpt lat="45.46232" lon="5.53643">
        <ele>511</ele>
        <time>2021-10-02T13:20:12.574Z</time>
      </trkpt>
      <trkpt lat="45.46225" lon="5.53636">
        <ele>511</ele>
        <time>2021-10-02T13:20:11.575Z</time>
      </trkpt>
      <trkpt lat="45.46218" lon="5.53629">
        <ele>511</ele>
        <time>2021-10-02T13:20:10.575Z</time>
      </trkpt>
      <trkpt lat="45.4621" lon="5.53619">
        <ele>512</ele>
        <time>2021-10-02T13:20:09.575Z</time>
      </trkpt>
      <trkpt lat="45.46205" lon="5.53613">
        <ele>512</ele>
        <time>2021-10-02T13:20:08.575Z</time>
      </trkpt>
      <trkpt lat="45.46197" lon="5.53605">
        <ele>512</ele>
        <time>2021-10-02T13:20:07.575Z</time>
      </trkpt>
      <trkpt lat="45.4619" lon="5.53598">
        <ele>512</ele>
        <time>2021-10-02T13:20:06.575Z</time>
      </trkpt>
      <trkpt lat="45.46182" lon="5.5359">
        <ele>512</ele>
        <time>2021-10-02T13:20:05.574Z</time>
      </trkpt>
      <trkpt lat="45.46172" lon="5.53582">
        <ele>511</ele>
        <time>2021-10-02T13:20:04.575Z</time>
      </trkpt>
      <trkpt lat="45.46166" lon="5.53576">
        <ele>511</ele>
        <time>2021-10-02T13:20:03.574Z</time>
      </trkpt>
      <trkpt lat="45.46158" lon="5.53569">
        <ele>511</ele>
        <time>2021-10-02T13:20:02.575Z</time>
      </trkpt>
      <trkpt lat="45.4615" lon="5.53563">
        <ele>511</ele>
        <time>2021-10-02T13:20:01.575Z</time>
      </trkpt>
      <trkpt lat="45.46142" lon="5.53557">
        <ele>511</ele>
        <time>2021-10-02T13:20:00.575Z</time>
      </trkpt>
      <trkpt lat="45.46135" lon="5.53551">
        <ele>511</ele>
        <time>2021-10-02T13:19:59.575Z</time>
      </trkpt>
      <trkpt lat="45.46126" lon="5.53545">
        <ele>510</ele>
        <time>2021-10-02T13:19:58.574Z</time>
      </trkpt>
      <trkpt lat="45.4612" lon="5.5354">
        <ele>510</ele>
        <time>2021-10-02T13:19:57.575Z</time>
      </trkpt>
      <trkpt lat="45.46113" lon="5.53535">
        <ele>510</ele>
        <time>2021-10-02T13:19:56.575Z</time>
      </trkpt>
      <trkpt lat="45.46107" lon="5.53529">
        <ele>510</ele>
        <time>2021-10-02T13:19:55.575Z</time>
      </trkpt>
      <trkpt lat="45.461" lon="5.53524">
        <ele>510</ele>
        <time>2021-10-02T13:19:54.575Z</time>
      </trkpt>
      <trkpt lat="45.46094" lon="5.53519">
        <ele>509</ele>
        <time>2021-10-02T13:19:53.574Z</time>
      </trkpt>
      <trkpt lat="45.46088" lon="5.53514">
        <ele>509</ele>
        <time>2021-10-02T13:19:52.575Z</time>
      </trkpt>
      <trkpt lat="45.46082" lon="5.53509">
        <ele>509</ele>
        <time>2021-10-02T13:19:51.575Z</time>
      </trkpt>
      <trkpt lat="45.46074" lon="5.53503">
        <ele>508</ele>
        <time>2021-10-02T13:19:50.574Z</time>
      </trkpt>
      <trkpt lat="45.46069" lon="5.53497">
        <ele>508</ele>
        <time>2021-10-02T13:19:49.575Z</time>
      </trkpt>
      <trkpt lat="45.46064" lon="5.53493">
        <ele>507</ele>
        <time>2021-10-02T13:19:48.574Z</time>
      </trkpt>
      <trkpt lat="45.46058" lon="5.53487">
        <ele>507</ele>
        <time>2021-10-02T13:19:47.574Z</time>
      </trkpt>
      <trkpt lat="45.46053" lon="5.53481">
        <ele>507</ele>
        <time>2021-10-02T13:19:46.575Z</time>
      </trkpt>
      <trkpt lat="45.46046" lon="5.53473">
        <ele>506</ele>
        <time>2021-10-02T13:19:45.575Z</time>
      </trkpt>
      <trkpt lat="45.46041" lon="5.53468">
        <ele>506</ele>
        <time>2021-10-02T13:19:44.575Z</time>
      </trkpt>
      <trkpt lat="45.46035" lon="5.53462">
        <ele>505</ele>
        <time>2021-10-02T13:19:43.574Z</time>
      </trkpt>
      <trkpt lat="45.46031" lon="5.53457">
        <ele>505</ele>
        <time>2021-10-02T13:19:42.574Z</time>
      </trkpt>
      <trkpt lat="45.46025" lon="5.5345">
        <ele>505</ele>
        <time>2021-10-02T13:19:41.575Z</time>
      </trkpt>
      <trkpt lat="45.46019" lon="5.53443">
        <ele>505</ele>
        <time>2021-10-02T13:19:40.575Z</time>
      </trkpt>
      <trkpt lat="45.46013" lon="5.53437">
        <ele>505</ele>
        <time>2021-10-02T13:19:39.574Z</time>
      </trkpt>
      <trkpt lat="45.46008" lon="5.53431">
        <ele>505</ele>
        <time>2021-10-02T13:19:38.574Z</time>
      </trkpt>
      <trkpt lat="45.46003" lon="5.53426">
        <ele>504</ele>
        <time>2021-10-02T13:19:37.575Z</time>
      </trkpt>
      <trkpt lat="45.45996" lon="5.53418">
        <ele>504</ele>
        <time>2021-10-02T13:19:36.574Z</time>
      </trkpt>
      <trkpt lat="45.45991" lon="5.53414">
        <ele>504</ele>
        <time>2021-10-02T13:19:35.575Z</time>
      </trkpt>
      <trkpt lat="45.45983" lon="5.53407">
        <ele>504</ele>
        <time>2021-10-02T13:19:34.575Z</time>
      </trkpt>
      <trkpt lat="45.45977" lon="5.53402">
        <ele>504</ele>
        <time>2021-10-02T13:19:33.574Z</time>
      </trkpt>
      <trkpt lat="45.4597" lon="5.53397">
        <ele>504</ele>
        <time>2021-10-02T13:19:32.574Z</time>
      </trkpt>
      <trkpt lat="45.45965" lon="5.53393">
        <ele>503</ele>
        <time>2021-10-02T13:19:31.574Z</time>
      </trkpt>
      <trkpt lat="45.45958" lon="5.53388">
        <ele>503</ele>
        <time>2021-10-02T13:19:30.574Z</time>
      </trkpt>
      <trkpt lat="45.4595" lon="5.53383">
        <ele>503</ele>
        <time>2021-10-02T13:19:29.574Z</time>
      </trkpt>
      <trkpt lat="45.45943" lon="5.53378">
        <ele>503</ele>
        <time>2021-10-02T13:19:28.575Z</time>
      </trkpt>
      <trkpt lat="45.45936" lon="5.53374">
        <ele>503</ele>
        <time>2021-10-02T13:19:27.575Z</time>
      </trkpt>
      <trkpt lat="45.4593" lon="5.5337">
        <ele>502</ele>
        <time>2021-10-02T13:19:26.574Z</time>
      </trkpt>
      <trkpt lat="45.45922" lon="5.53366">
        <ele>503</ele>
        <time>2021-10-02T13:19:25.575Z</time>
      </trkpt>
      <trkpt lat="45.45913" lon="5.53361">
        <ele>503</ele>
        <time>2021-10-02T13:19:24.575Z</time>
      </trkpt>
      <trkpt lat="45.45906" lon="5.53357">
        <ele>503</ele>
        <time>2021-10-02T13:19:23.574Z</time>
      </trkpt>
      <trkpt lat="45.45899" lon="5.53354">
        <ele>503</ele>
        <time>2021-10-02T13:19:22.575Z</time>
      </trkpt>
      <trkpt lat="45.45892" lon="5.53349">
        <ele>502</ele>
        <time>2021-10-02T13:19:21.575Z</time>
      </trkpt>
      <trkpt lat="45.45884" lon="5.53345">
        <ele>502</ele>
        <time>2021-10-02T13:19:20.575Z</time>
      </trkpt>
      <trkpt lat="45.45874" lon="5.5334">
        <ele>502</ele>
        <time>2021-10-02T13:19:19.574Z</time>
      </trkpt>
      <trkpt lat="45.45866" lon="5.53336">
        <ele>502</ele>
        <time>2021-10-02T13:19:18.575Z</time>
      </trkpt>
      <trkpt lat="45.4586" lon="5.53332">
        <ele>502</ele>
        <time>2021-10-02T13:19:17.575Z</time>
      </trkpt>
      <trkpt lat="45.45852" lon="5.53326">
        <ele>502</ele>
        <time>2021-10-02T13:19:16.575Z</time>
      </trkpt>
      <trkpt lat="45.45845" lon="5.53321">
        <ele>502</ele>
        <time>2021-10-02T13:19:15.575Z</time>
      </trkpt>
      <trkpt lat="45.45837" lon="5.53315">
        <ele>502</ele>
        <time>2021-10-02T13:19:14.574Z</time>
      </trkpt>
      <trkpt lat="45.45829" lon="5.53308">
        <ele>502</ele>
        <time>2021-10-02T13:19:13.575Z</time>
      </trkpt>
      <trkpt lat="45.45823" lon="5.53303">
        <ele>502</ele>
        <time>2021-10-02T13:19:12.574Z</time>
      </trkpt>
      <trkpt lat="45.45816" lon="5.53296">
        <ele>502</ele>
        <time>2021-10-02T13:19:11.575Z</time>
      </trkpt>
      <trkpt lat="45.4581" lon="5.5329">
        <ele>502</ele>
        <time>2021-10-02T13:19:10.575Z</time>
      </trkpt>
      <trkpt lat="45.45803" lon="5.53282">
        <ele>502</ele>
        <time>2021-10-02T13:19:09.575Z</time>
      </trkpt>
      <trkpt lat="45.45797" lon="5.53275">
        <ele>502</ele>
        <time>2021-10-02T13:19:08.575Z</time>
      </trkpt>
      <trkpt lat="45.45791" lon="5.53268">
        <ele>502</ele>
        <time>2021-10-02T13:19:07.575Z</time>
      </trkpt>
      <trkpt lat="45.45784" lon="5.53261">
        <ele>502</ele>
        <time>2021-10-02T13:19:06.575Z</time>
      </trkpt>
      <trkpt lat="45.45778" lon="5.53254">
        <ele>503</ele>
        <time>2021-10-02T13:19:05.575Z</time>
      </trkpt>
      <trkpt lat="45.45771" lon="5.53247">
        <ele>502</ele>
        <time>2021-10-02T13:19:04.575Z</time>
      </trkpt>
      <trkpt lat="45.45765" lon="5.5324">
        <ele>502</ele>
        <time>2021-10-02T13:19:03.575Z</time>
      </trkpt>
      <trkpt lat="45.45759" lon="5.53232">
        <ele>502</ele>
        <time>2021-10-02T13:19:02.574Z</time>
      </trkpt>
      <trkpt lat="45.45753" lon="5.53225">
        <ele>502</ele>
        <time>2021-10-02T13:19:01.574Z</time>
      </trkpt>
      <trkpt lat="45.45748" lon="5.53217">
        <ele>502</ele>
        <time>2021-10-02T13:19:00.575Z</time>
      </trkpt>
      <trkpt lat="45.45742" lon="5.53209">
        <ele>501</ele>
        <time>2021-10-02T13:18:59.575Z</time>
      </trkpt>
      <trkpt lat="45.45736" lon="5.53201">
        <ele>501</ele>
        <time>2021-10-02T13:18:58.575Z</time>
      </trkpt>
      <trkpt lat="45.45731" lon="5.53193">
        <ele>501</ele>
        <time>2021-10-02T13:18:57.575Z</time>
      </trkpt>
      <trkpt lat="45.45725" lon="5.53185">
        <ele>501</ele>
        <time>2021-10-02T13:18:56.575Z</time>
      </trkpt>
      <trkpt lat="45.4572" lon="5.53177">
        <ele>501</ele>
        <time>2021-10-02T13:18:55.574Z</time>
      </trkpt>
      <trkpt lat="45.45713" lon="5.53168">
        <ele>501</ele>
        <time>2021-10-02T13:18:54.575Z</time>
      </trkpt>
      <trkpt lat="45.45707" lon="5.5316">
        <ele>501</ele>
        <time>2021-10-02T13:18:53.574Z</time>
      </trkpt>
      <trkpt lat="45.45703" lon="5.53154">
        <ele>501</ele>
        <time>2021-10-02T13:18:52.575Z</time>
      </trkpt>
      <trkpt lat="45.45697" lon="5.53146">
        <ele>500</ele>
        <time>2021-10-02T13:18:51.575Z</time>
      </trkpt>
      <trkpt lat="45.45691" lon="5.53138">
        <ele>500</ele>
        <time>2021-10-02T13:18:50.574Z</time>
      </trkpt>
      <trkpt lat="45.45686" lon="5.5313">
        <ele>499</ele>
        <time>2021-10-02T13:18:49.575Z</time>
      </trkpt>
      <trkpt lat="45.4568" lon="5.53122">
        <ele>499</ele>
        <time>2021-10-02T13:18:48.575Z</time>
      </trkpt>
      <trkpt lat="45.45674" lon="5.53112">
        <ele>498</ele>
        <time>2021-10-02T13:18:47.575Z</time>
      </trkpt>
      <trkpt lat="45.45669" lon="5.53106">
        <ele>498</ele>
        <time>2021-10-02T13:18:46.575Z</time>
      </trkpt>
      <trkpt lat="45.45664" lon="5.53097">
        <ele>498</ele>
        <time>2021-10-02T13:18:45.575Z</time>
      </trkpt>
      <trkpt lat="45.45657" lon="5.53087">
        <ele>497</ele>
        <time>2021-10-02T13:18:44.575Z</time>
      </trkpt>
      <trkpt lat="45.45652" lon="5.53078">
        <ele>497</ele>
        <time>2021-10-02T13:18:43.575Z</time>
      </trkpt>
      <trkpt lat="45.45648" lon="5.53069">
        <ele>496</ele>
        <time>2021-10-02T13:18:42.575Z</time>
      </trkpt>
      <trkpt lat="45.45644" lon="5.53061">
        <ele>495</ele>
        <time>2021-10-02T13:18:41.575Z</time>
      </trkpt>
      <trkpt lat="45.45639" lon="5.53052">
        <ele>495</ele>
        <time>2021-10-02T13:18:40.575Z</time>
      </trkpt>
      <trkpt lat="45.45634" lon="5.53043">
        <ele>494</ele>
        <time>2021-10-02T13:18:39.574Z</time>
      </trkpt>
      <trkpt lat="45.45628" lon="5.53031">
        <ele>494</ele>
        <time>2021-10-02T13:18:38.575Z</time>
      </trkpt>
      <trkpt lat="45.45623" lon="5.53022">
        <ele>493</ele>
        <time>2021-10-02T13:18:37.575Z</time>
      </trkpt>
      <trkpt lat="45.45619" lon="5.53015">
        <ele>493</ele>
        <time>2021-10-02T13:18:36.575Z</time>
      </trkpt>
      <trkpt lat="45.45614" lon="5.53005">
        <ele>494</ele>
        <time>2021-10-02T13:18:35.575Z</time>
      </trkpt>
      <trkpt lat="45.45609" lon="5.52996">
        <ele>494</ele>
        <time>2021-10-02T13:18:34.574Z</time>
      </trkpt>
      <trkpt lat="45.45603" lon="5.52984">
        <ele>494</ele>
        <time>2021-10-02T13:18:33.574Z</time>
      </trkpt>
      <trkpt lat="45.45598" lon="5.52974">
        <ele>494</ele>
        <time>2021-10-02T13:18:32.575Z</time>
      </trkpt>
      <trkpt lat="45.45593" lon="5.52965">
        <ele>494</ele>
        <time>2021-10-02T13:18:31.575Z</time>
      </trkpt>
      <trkpt lat="45.45588" lon="5.52955">
        <ele>494</ele>
        <time>2021-10-02T13:18:30.575Z</time>
      </trkpt>
      <trkpt lat="45.45583" lon="5.52945">
        <ele>494</ele>
        <time>2021-10-02T13:18:29.574Z</time>
      </trkpt>
      <trkpt lat="45.45579" lon="5.52937">
        <ele>494</ele>
        <time>2021-10-02T13:18:28.575Z</time>
      </trkpt>
      <trkpt lat="45.45573" lon="5.52925">
        <ele>494</ele>
        <time>2021-10-02T13:18:27.574Z</time>
      </trkpt>
      <trkpt lat="45.45568" lon="5.52915">
        <ele>494</ele>
        <time>2021-10-02T13:18:26.575Z</time>
      </trkpt>
      <trkpt lat="45.45563" lon="5.52905">
        <ele>495</ele>
        <time>2021-10-02T13:18:25.574Z</time>
      </trkpt>
      <trkpt lat="45.45559" lon="5.52895">
        <ele>495</ele>
        <time>2021-10-02T13:18:24.574Z</time>
      </trkpt>
      <trkpt lat="45.45554" lon="5.52885">
        <ele>495</ele>
        <time>2021-10-02T13:18:23.575Z</time>
      </trkpt>
      <trkpt lat="45.45549" lon="5.52875">
        <ele>495</ele>
        <time>2021-10-02T13:18:22.574Z</time>
      </trkpt>
      <trkpt lat="45.45546" lon="5.52867">
        <ele>495</ele>
        <time>2021-10-02T13:18:21.575Z</time>
      </trkpt>
      <trkpt lat="45.4554" lon="5.52855">
        <ele>494</ele>
        <time>2021-10-02T13:18:20.575Z</time>
      </trkpt>
      <trkpt lat="45.45537" lon="5.52846">
        <ele>494</ele>
        <time>2021-10-02T13:18:19.575Z</time>
      </trkpt>
      <trkpt lat="45.45531" lon="5.52834">
        <ele>494</ele>
        <time>2021-10-02T13:18:18.575Z</time>
      </trkpt>
      <trkpt lat="45.45526" lon="5.52824">
        <ele>494</ele>
        <time>2021-10-02T13:18:17.575Z</time>
      </trkpt>
      <trkpt lat="45.45522" lon="5.52816">
        <ele>494</ele>
        <time>2021-10-02T13:18:16.575Z</time>
      </trkpt>
      <trkpt lat="45.45516" lon="5.52804">
        <ele>494</ele>
        <time>2021-10-02T13:18:15.575Z</time>
      </trkpt>
      <trkpt lat="45.45512" lon="5.52793">
        <ele>494</ele>
        <time>2021-10-02T13:18:14.574Z</time>
      </trkpt>
      <trkpt lat="45.45507" lon="5.52783">
        <ele>494</ele>
        <time>2021-10-02T13:18:13.574Z</time>
      </trkpt>
      <trkpt lat="45.45502" lon="5.52773">
        <ele>494</ele>
        <time>2021-10-02T13:18:12.575Z</time>
      </trkpt>
      <trkpt lat="45.45497" lon="5.52762">
        <ele>494</ele>
        <time>2021-10-02T13:18:11.574Z</time>
      </trkpt>
      <trkpt lat="45.45493" lon="5.52754">
        <ele>494</ele>
        <time>2021-10-02T13:18:10.574Z</time>
      </trkpt>
      <trkpt lat="45.45487" lon="5.52742">
        <ele>494</ele>
        <time>2021-10-02T13:18:09.574Z</time>
      </trkpt>
      <trkpt lat="45.45482" lon="5.52732">
        <ele>495</ele>
        <time>2021-10-02T13:18:08.575Z</time>
      </trkpt>
      <trkpt lat="45.45477" lon="5.52722">
        <ele>495</ele>
        <time>2021-10-02T13:18:07.575Z</time>
      </trkpt>
      <trkpt lat="45.45472" lon="5.52712">
        <ele>495</ele>
        <time>2021-10-02T13:18:06.575Z</time>
      </trkpt>
      <trkpt lat="45.45467" lon="5.52701">
        <ele>495</ele>
        <time>2021-10-02T13:18:05.575Z</time>
      </trkpt>
      <trkpt lat="45.45462" lon="5.52691">
        <ele>496</ele>
        <time>2021-10-02T13:18:04.575Z</time>
      </trkpt>
      <trkpt lat="45.45458" lon="5.5268">
        <ele>496</ele>
        <time>2021-10-02T13:18:03.575Z</time>
      </trkpt>
      <trkpt lat="45.45453" lon="5.5267">
        <ele>497</ele>
        <time>2021-10-02T13:18:02.575Z</time>
      </trkpt>
      <trkpt lat="45.45449" lon="5.52662">
        <ele>498</ele>
        <time>2021-10-02T13:18:01.574Z</time>
      </trkpt>
      <trkpt lat="45.45443" lon="5.52653">
        <ele>498</ele>
        <time>2021-10-02T13:18:00.574Z</time>
      </trkpt>
      <trkpt lat="45.45436" lon="5.52642">
        <ele>498</ele>
        <time>2021-10-02T13:17:59.575Z</time>
      </trkpt>
      <trkpt lat="45.45429" lon="5.52633">
        <ele>498</ele>
        <time>2021-10-02T13:17:58.575Z</time>
      </trkpt>
      <trkpt lat="45.45423" lon="5.52625">
        <ele>498</ele>
        <time>2021-10-02T13:17:57.575Z</time>
      </trkpt>
      <trkpt lat="45.45416" lon="5.52617">
        <ele>498</ele>
        <time>2021-10-02T13:17:56.575Z</time>
      </trkpt>
      <trkpt lat="45.45409" lon="5.5261">
        <ele>498</ele>
        <time>2021-10-02T13:17:55.575Z</time>
      </trkpt>
      <trkpt lat="45.45403" lon="5.52605">
        <ele>498</ele>
        <time>2021-10-02T13:17:54.575Z</time>
      </trkpt>
      <trkpt lat="45.45395" lon="5.52597">
        <ele>498</ele>
        <time>2021-10-02T13:17:53.574Z</time>
      </trkpt>
      <trkpt lat="45.45387" lon="5.5259">
        <ele>498</ele>
        <time>2021-10-02T13:17:52.574Z</time>
      </trkpt>
      <trkpt lat="45.45381" lon="5.52585">
        <ele>497</ele>
        <time>2021-10-02T13:17:51.574Z</time>
      </trkpt>
      <trkpt lat="45.45373" lon="5.52576">
        <ele>497</ele>
        <time>2021-10-02T13:17:50.574Z</time>
      </trkpt>
      <trkpt lat="45.45366" lon="5.52569">
        <ele>497</ele>
        <time>2021-10-02T13:17:49.575Z</time>
      </trkpt>
      <trkpt lat="45.45359" lon="5.52562">
        <ele>497</ele>
        <time>2021-10-02T13:17:48.575Z</time>
      </trkpt>
      <trkpt lat="45.45352" lon="5.52554">
        <ele>497</ele>
        <time>2021-10-02T13:17:47.575Z</time>
      </trkpt>
      <trkpt lat="45.45345" lon="5.52545">
        <ele>497</ele>
        <time>2021-10-02T13:17:46.575Z</time>
      </trkpt>
      <trkpt lat="45.45341" lon="5.52538">
        <ele>497</ele>
        <time>2021-10-02T13:17:45.575Z</time>
      </trkpt>
      <trkpt lat="45.45336" lon="5.52528">
        <ele>497</ele>
        <time>2021-10-02T13:17:44.574Z</time>
      </trkpt>
      <trkpt lat="45.45331" lon="5.52515">
        <ele>497</ele>
        <time>2021-10-02T13:17:43.574Z</time>
      </trkpt>
      <trkpt lat="45.45327" lon="5.52505">
        <ele>497</ele>
        <time>2021-10-02T13:17:42.575Z</time>
      </trkpt>
      <trkpt lat="45.45324" lon="5.52496">
        <ele>496</ele>
        <time>2021-10-02T13:17:41.574Z</time>
      </trkpt>
      <trkpt lat="45.45321" lon="5.52484">
        <ele>496</ele>
        <time>2021-10-02T13:17:40.575Z</time>
      </trkpt>
      <trkpt lat="45.45317" lon="5.52473">
        <ele>496</ele>
        <time>2021-10-02T13:17:39.574Z</time>
      </trkpt>
      <trkpt lat="45.45314" lon="5.52459">
        <ele>496</ele>
        <time>2021-10-02T13:17:38.574Z</time>
      </trkpt>
      <trkpt lat="45.45311" lon="5.52448">
        <ele>496</ele>
        <time>2021-10-02T13:17:37.575Z</time>
      </trkpt>
      <trkpt lat="45.45308" lon="5.52438">
        <ele>496</ele>
        <time>2021-10-02T13:17:36.575Z</time>
      </trkpt>
      <trkpt lat="45.45306" lon="5.52427">
        <ele>496</ele>
        <time>2021-10-02T13:17:35.575Z</time>
      </trkpt>
      <trkpt lat="45.45303" lon="5.52415">
        <ele>496</ele>
        <time>2021-10-02T13:17:34.575Z</time>
      </trkpt>
      <trkpt lat="45.453" lon="5.52403">
        <ele>496</ele>
        <time>2021-10-02T13:17:33.574Z</time>
      </trkpt>
      <trkpt lat="45.45296" lon="5.52389">
        <ele>496</ele>
        <time>2021-10-02T13:17:32.574Z</time>
      </trkpt>
      <trkpt lat="45.45294" lon="5.5238">
        <ele>497</ele>
        <time>2021-10-02T13:17:31.575Z</time>
      </trkpt>
      <trkpt lat="45.4529" lon="5.52366">
        <ele>497</ele>
        <time>2021-10-02T13:17:30.575Z</time>
      </trkpt>
      <trkpt lat="45.45287" lon="5.52354">
        <ele>497</ele>
        <time>2021-10-02T13:17:29.574Z</time>
      </trkpt>
      <trkpt lat="45.45283" lon="5.52342">
        <ele>498</ele>
        <time>2021-10-02T13:17:28.575Z</time>
      </trkpt>
      <trkpt lat="45.45279" lon="5.52331">
        <ele>498</ele>
        <time>2021-10-02T13:17:27.574Z</time>
      </trkpt>
      <trkpt lat="45.45275" lon="5.5232">
        <ele>498</ele>
        <time>2021-10-02T13:17:26.575Z</time>
      </trkpt>
      <trkpt lat="45.45271" lon="5.52311">
        <ele>498</ele>
        <time>2021-10-02T13:17:25.574Z</time>
      </trkpt>
      <trkpt lat="45.45265" lon="5.52299">
        <ele>498</ele>
        <time>2021-10-02T13:17:24.575Z</time>
      </trkpt>
      <trkpt lat="45.4526" lon="5.52289">
        <ele>498</ele>
        <time>2021-10-02T13:17:23.575Z</time>
      </trkpt>
      <trkpt lat="45.45254" lon="5.52279">
        <ele>498</ele>
        <time>2021-10-02T13:17:22.575Z</time>
      </trkpt>
      <trkpt lat="45.4525" lon="5.5227">
        <ele>498</ele>
        <time>2021-10-02T13:17:21.575Z</time>
      </trkpt>
      <trkpt lat="45.45245" lon="5.5226">
        <ele>498</ele>
        <time>2021-10-02T13:17:20.575Z</time>
      </trkpt>
      <trkpt lat="45.45239" lon="5.52251">
        <ele>498</ele>
        <time>2021-10-02T13:17:19.575Z</time>
      </trkpt>
      <trkpt lat="45.45232" lon="5.52239">
        <ele>498</ele>
        <time>2021-10-02T13:17:18.574Z</time>
      </trkpt>
      <trkpt lat="45.45226" lon="5.5223">
        <ele>498</ele>
        <time>2021-10-02T13:17:17.575Z</time>
      </trkpt>
      <trkpt lat="45.45221" lon="5.52222">
        <ele>498</ele>
        <time>2021-10-02T13:17:16.575Z</time>
      </trkpt>
      <trkpt lat="45.45216" lon="5.52212">
        <ele>498</ele>
        <time>2021-10-02T13:17:15.575Z</time>
      </trkpt>
      <trkpt lat="45.45209" lon="5.52201">
        <ele>498</ele>
        <time>2021-10-02T13:17:14.575Z</time>
      </trkpt>
      <trkpt lat="45.45203" lon="5.52191">
        <ele>499</ele>
        <time>2021-10-02T13:17:13.575Z</time>
      </trkpt>
      <trkpt lat="45.45198" lon="5.52181">
        <ele>499</ele>
        <time>2021-10-02T13:17:12.575Z</time>
      </trkpt>
      <trkpt lat="45.45192" lon="5.52171">
        <ele>499</ele>
        <time>2021-10-02T13:17:11.574Z</time>
      </trkpt>
      <trkpt lat="45.45186" lon="5.52162">
        <ele>499</ele>
        <time>2021-10-02T13:17:10.574Z</time>
      </trkpt>
      <trkpt lat="45.45182" lon="5.52154">
        <ele>499</ele>
        <time>2021-10-02T13:17:09.574Z</time>
      </trkpt>
      <trkpt lat="45.45175" lon="5.52142">
        <ele>500</ele>
        <time>2021-10-02T13:17:08.575Z</time>
      </trkpt>
      <trkpt lat="45.45169" lon="5.52133">
        <ele>500</ele>
        <time>2021-10-02T13:17:07.575Z</time>
      </trkpt>
      <trkpt lat="45.45163" lon="5.52124">
        <ele>501</ele>
        <time>2021-10-02T13:17:06.575Z</time>
      </trkpt>
      <trkpt lat="45.45158" lon="5.52117">
        <ele>501</ele>
        <time>2021-10-02T13:17:05.575Z</time>
      </trkpt>
      <trkpt lat="45.45151" lon="5.52105">
        <ele>501</ele>
        <time>2021-10-02T13:17:04.575Z</time>
      </trkpt>
      <trkpt lat="45.45147" lon="5.52098">
        <ele>501</ele>
        <time>2021-10-02T13:17:03.574Z</time>
      </trkpt>
      <trkpt lat="45.4514" lon="5.52086">
        <ele>501</ele>
        <time>2021-10-02T13:17:02.574Z</time>
      </trkpt>
      <trkpt lat="45.45134" lon="5.52077">
        <ele>501</ele>
        <time>2021-10-02T13:17:01.575Z</time>
      </trkpt>
      <trkpt lat="45.45129" lon="5.52069">
        <ele>501</ele>
        <time>2021-10-02T13:17:00.574Z</time>
      </trkpt>
      <trkpt lat="45.45124" lon="5.52059">
        <ele>501</ele>
        <time>2021-10-02T13:16:59.575Z</time>
      </trkpt>
      <trkpt lat="45.45117" lon="5.52047">
        <ele>502</ele>
        <time>2021-10-02T13:16:58.574Z</time>
      </trkpt>
      <trkpt lat="45.45113" lon="5.52039">
        <ele>502</ele>
        <time>2021-10-02T13:16:57.575Z</time>
      </trkpt>
      <trkpt lat="45.45108" lon="5.52028">
        <ele>502</ele>
        <time>2021-10-02T13:16:56.575Z</time>
      </trkpt>
      <trkpt lat="45.45103" lon="5.52018">
        <ele>502</ele>
        <time>2021-10-02T13:16:55.575Z</time>
      </trkpt>
      <trkpt lat="45.45099" lon="5.52007">
        <ele>502</ele>
        <time>2021-10-02T13:16:54.575Z</time>
      </trkpt>
      <trkpt lat="45.45094" lon="5.51993">
        <ele>502</ele>
        <time>2021-10-02T13:16:53.575Z</time>
      </trkpt>
      <trkpt lat="45.4509" lon="5.51982">
        <ele>502</ele>
        <time>2021-10-02T13:16:52.575Z</time>
      </trkpt>
      <trkpt lat="45.45086" lon="5.51972">
        <ele>503</ele>
        <time>2021-10-02T13:16:51.575Z</time>
      </trkpt>
      <trkpt lat="45.45083" lon="5.51961">
        <ele>503</ele>
        <time>2021-10-02T13:16:50.574Z</time>
      </trkpt>
      <trkpt lat="45.45079" lon="5.51949">
        <ele>504</ele>
        <time>2021-10-02T13:16:49.575Z</time>
      </trkpt>
      <trkpt lat="45.45076" lon="5.51937">
        <ele>504</ele>
        <time>2021-10-02T13:16:48.575Z</time>
      </trkpt>
      <trkpt lat="45.45073" lon="5.51925">
        <ele>505</ele>
        <time>2021-10-02T13:16:47.575Z</time>
      </trkpt>
      <trkpt lat="45.4507" lon="5.51913">
        <ele>505</ele>
        <time>2021-10-02T13:16:46.574Z</time>
      </trkpt>
      <trkpt lat="45.45068" lon="5.51902">
        <ele>505</ele>
        <time>2021-10-02T13:16:45.574Z</time>
      </trkpt>
      <trkpt lat="45.45065" lon="5.5189">
        <ele>505</ele>
        <time>2021-10-02T13:16:44.574Z</time>
      </trkpt>
      <trkpt lat="45.45062" lon="5.51876">
        <ele>505</ele>
        <time>2021-10-02T13:16:43.574Z</time>
      </trkpt>
      <trkpt lat="45.4506" lon="5.51867">
        <ele>505</ele>
        <time>2021-10-02T13:16:42.574Z</time>
      </trkpt>
      <trkpt lat="45.45058" lon="5.51855">
        <ele>505</ele>
        <time>2021-10-02T13:16:41.574Z</time>
      </trkpt>
      <trkpt lat="45.45056" lon="5.51843">
        <ele>505</ele>
        <time>2021-10-02T13:16:40.574Z</time>
      </trkpt>
      <trkpt lat="45.45055" lon="5.51831">
        <ele>505</ele>
        <time>2021-10-02T13:16:39.574Z</time>
      </trkpt>
      <trkpt lat="45.45054" lon="5.5182">
        <ele>505</ele>
        <time>2021-10-02T13:16:38.574Z</time>
      </trkpt>
      <trkpt lat="45.45052" lon="5.51806">
        <ele>505</ele>
        <time>2021-10-02T13:16:37.575Z</time>
      </trkpt>
      <trkpt lat="45.45051" lon="5.51796">
        <ele>505</ele>
        <time>2021-10-02T13:16:36.574Z</time>
      </trkpt>
      <trkpt lat="45.45051" lon="5.51784">
        <ele>505</ele>
        <time>2021-10-02T13:16:35.575Z</time>
      </trkpt>
      <trkpt lat="45.4505" lon="5.51772">
        <ele>505</ele>
        <time>2021-10-02T13:16:34.574Z</time>
      </trkpt>
      <trkpt lat="45.45049" lon="5.5176">
        <ele>505</ele>
        <time>2021-10-02T13:16:33.574Z</time>
      </trkpt>
      <trkpt lat="45.45048" lon="5.51746">
        <ele>504</ele>
        <time>2021-10-02T13:16:32.574Z</time>
      </trkpt>
      <trkpt lat="45.45047" lon="5.51736">
        <ele>504</ele>
        <time>2021-10-02T13:16:31.574Z</time>
      </trkpt>
      <trkpt lat="45.45046" lon="5.51723">
        <ele>504</ele>
        <time>2021-10-02T13:16:30.574Z</time>
      </trkpt>
      <trkpt lat="45.45045" lon="5.51711">
        <ele>503</ele>
        <time>2021-10-02T13:16:29.575Z</time>
      </trkpt>
      <trkpt lat="45.45044" lon="5.51698">
        <ele>503</ele>
        <time>2021-10-02T13:16:28.574Z</time>
      </trkpt>
      <trkpt lat="45.45043" lon="5.51685">
        <ele>504</ele>
        <time>2021-10-02T13:16:27.574Z</time>
      </trkpt>
      <trkpt lat="45.45041" lon="5.51672">
        <ele>504</ele>
        <time>2021-10-02T13:16:26.574Z</time>
      </trkpt>
      <trkpt lat="45.45038" lon="5.5166">
        <ele>504</ele>
        <time>2021-10-02T13:16:25.574Z</time>
      </trkpt>
      <trkpt lat="45.45035" lon="5.51648">
        <ele>505</ele>
        <time>2021-10-02T13:16:24.574Z</time>
      </trkpt>
      <trkpt lat="45.45031" lon="5.51635">
        <ele>505</ele>
        <time>2021-10-02T13:16:23.574Z</time>
      </trkpt>
      <trkpt lat="45.45025" lon="5.51621">
        <ele>505</ele>
        <time>2021-10-02T13:16:22.574Z</time>
      </trkpt>
      <trkpt lat="45.4502" lon="5.51612">
        <ele>505</ele>
        <time>2021-10-02T13:16:21.574Z</time>
      </trkpt>
      <trkpt lat="45.45015" lon="5.51601">
        <ele>505</ele>
        <time>2021-10-02T13:16:20.574Z</time>
      </trkpt>
      <trkpt lat="45.45009" lon="5.51589">
        <ele>506</ele>
        <time>2021-10-02T13:16:19.575Z</time>
      </trkpt>
      <trkpt lat="45.45003" lon="5.51578">
        <ele>506</ele>
        <time>2021-10-02T13:16:18.574Z</time>
      </trkpt>
      <trkpt lat="45.44995" lon="5.51565">
        <ele>506</ele>
        <time>2021-10-02T13:16:17.574Z</time>
      </trkpt>
      <trkpt lat="45.44989" lon="5.51557">
        <ele>506</ele>
        <time>2021-10-02T13:16:16.575Z</time>
      </trkpt>
      <trkpt lat="45.44982" lon="5.51546">
        <ele>507</ele>
        <time>2021-10-02T13:16:15.574Z</time>
      </trkpt>
      <trkpt lat="45.44975" lon="5.51536">
        <ele>507</ele>
        <time>2021-10-02T13:16:14.575Z</time>
      </trkpt>
      <trkpt lat="45.44968" lon="5.51526">
        <ele>508</ele>
        <time>2021-10-02T13:16:13.574Z</time>
      </trkpt>
      <trkpt lat="45.4496" lon="5.51514">
        <ele>508</ele>
        <time>2021-10-02T13:16:12.574Z</time>
      </trkpt>
      <trkpt lat="45.44955" lon="5.51507">
        <ele>508</ele>
        <time>2021-10-02T13:16:11.575Z</time>
      </trkpt>
      <trkpt lat="45.44949" lon="5.51496">
        <ele>509</ele>
        <time>2021-10-02T13:16:10.575Z</time>
      </trkpt>
      <trkpt lat="45.44943" lon="5.51486">
        <ele>509</ele>
        <time>2021-10-02T13:16:09.575Z</time>
      </trkpt>
      <trkpt lat="45.44939" lon="5.51475">
        <ele>510</ele>
        <time>2021-10-02T13:16:08.574Z</time>
      </trkpt>
      <trkpt lat="45.44934" lon="5.51464">
        <ele>510</ele>
        <time>2021-10-02T13:16:07.574Z</time>
      </trkpt>
      <trkpt lat="45.4493" lon="5.51452">
        <ele>510</ele>
        <time>2021-10-02T13:16:06.574Z</time>
      </trkpt>
      <trkpt lat="45.44926" lon="5.51441">
        <ele>511</ele>
        <time>2021-10-02T13:16:05.575Z</time>
      </trkpt>
      <trkpt lat="45.44923" lon="5.5143">
        <ele>511</ele>
        <time>2021-10-02T13:16:04.574Z</time>
      </trkpt>
      <trkpt lat="45.44919" lon="5.51419">
        <ele>512</ele>
        <time>2021-10-02T13:16:03.574Z</time>
      </trkpt>
      <trkpt lat="45.44916" lon="5.51408">
        <ele>512</ele>
        <time>2021-10-02T13:16:02.574Z</time>
      </trkpt>
      <trkpt lat="45.44913" lon="5.51397">
        <ele>513</ele>
        <time>2021-10-02T13:16:01.574Z</time>
      </trkpt>
      <trkpt lat="45.44911" lon="5.51386">
        <ele>513</ele>
        <time>2021-10-02T13:16:00.574Z</time>
      </trkpt>
      <trkpt lat="45.44908" lon="5.51376">
        <ele>513</ele>
        <time>2021-10-02T13:15:59.575Z</time>
      </trkpt>
      <trkpt lat="45.44907" lon="5.51365">
        <ele>513</ele>
        <time>2021-10-02T13:15:58.574Z</time>
      </trkpt>
      <trkpt lat="45.44906" lon="5.51353">
        <ele>513</ele>
        <time>2021-10-02T13:15:57.575Z</time>
      </trkpt>
      <trkpt lat="45.44905" lon="5.51345">
        <ele>512</ele>
        <time>2021-10-02T13:15:56.575Z</time>
      </trkpt>
      <trkpt lat="45.44905" lon="5.51335">
        <ele>512</ele>
        <time>2021-10-02T13:15:55.574Z</time>
      </trkpt>
      <trkpt lat="45.44905" lon="5.51324">
        <ele>512</ele>
        <time>2021-10-02T13:15:54.575Z</time>
      </trkpt>
      <trkpt lat="45.44904" lon="5.51315">
        <ele>512</ele>
        <time>2021-10-02T13:15:53.575Z</time>
      </trkpt>
      <trkpt lat="45.44901" lon="5.51306">
        <ele>512</ele>
        <time>2021-10-02T13:15:52.575Z</time>
      </trkpt>
      <trkpt lat="45.44896" lon="5.51298">
        <ele>512</ele>
        <time>2021-10-02T13:15:51.574Z</time>
      </trkpt>
      <trkpt lat="45.44892" lon="5.51291">
        <ele>512</ele>
        <time>2021-10-02T13:15:50.575Z</time>
      </trkpt>
      <trkpt lat="45.44887" lon="5.51286">
        <ele>512</ele>
        <time>2021-10-02T13:15:49.574Z</time>
      </trkpt>
      <trkpt lat="45.44882" lon="5.5128">
        <ele>511</ele>
        <time>2021-10-02T13:15:48.575Z</time>
      </trkpt>
      <trkpt lat="45.44879" lon="5.51273">
        <ele>512</ele>
        <time>2021-10-02T13:15:47.575Z</time>
      </trkpt>
      <trkpt lat="45.44878" lon="5.51267">
        <ele>512</ele>
        <time>2021-10-02T13:15:46.575Z</time>
      </trkpt>
      <trkpt lat="45.44879" lon="5.51259">
        <ele>512</ele>
        <time>2021-10-02T13:15:45.574Z</time>
      </trkpt>
      <trkpt lat="45.44881" lon="5.51253">
        <ele>513</ele>
        <time>2021-10-02T13:15:44.574Z</time>
      </trkpt>
      <trkpt lat="45.44884" lon="5.51249">
        <ele>513</ele>
        <time>2021-10-02T13:15:43.575Z</time>
      </trkpt>
      <trkpt lat="45.44888" lon="5.51245">
        <ele>513</ele>
        <time>2021-10-02T13:15:42.574Z</time>
      </trkpt>
      <trkpt lat="45.44893" lon="5.51242">
        <ele>513</ele>
        <time>2021-10-02T13:15:41.575Z</time>
      </trkpt>
      <trkpt lat="45.44895" lon="5.51241">
        <ele>513</ele>
        <time>2021-10-02T13:15:40.575Z</time>
      </trkpt>
      <trkpt lat="45.44899" lon="5.51239">
        <ele>514</ele>
        <time>2021-10-02T13:15:39.574Z</time>
      </trkpt>
      <trkpt lat="45.44901" lon="5.51236">
        <ele>514</ele>
        <time>2021-10-02T13:15:38.574Z</time>
      </trkpt>
      <trkpt lat="45.44904" lon="5.51233">
        <ele>514</ele>
        <time>2021-10-02T13:15:37.575Z</time>
      </trkpt>
      <trkpt lat="45.44907" lon="5.51227">
        <ele>514</ele>
        <time>2021-10-02T13:15:36.575Z</time>
      </trkpt>
      <trkpt lat="45.44909" lon="5.5122">
        <ele>514</ele>
        <time>2021-10-02T13:15:35.575Z</time>
      </trkpt>
      <trkpt lat="45.44912" lon="5.51211">
        <ele>514</ele>
        <time>2021-10-02T13:15:34.575Z</time>
      </trkpt>
      <trkpt lat="45.44915" lon="5.51202">
        <ele>514</ele>
        <time>2021-10-02T13:15:33.575Z</time>
      </trkpt>
      <trkpt lat="45.44919" lon="5.5119">
        <ele>514</ele>
        <time>2021-10-02T13:15:32.574Z</time>
      </trkpt>
      <trkpt lat="45.44922" lon="5.5118">
        <ele>515</ele>
        <time>2021-10-02T13:15:31.575Z</time>
      </trkpt>
      <trkpt lat="45.44925" lon="5.51172">
        <ele>515</ele>
        <time>2021-10-02T13:15:30.575Z</time>
      </trkpt>
      <trkpt lat="45.44929" lon="5.51162">
        <ele>516</ele>
        <time>2021-10-02T13:15:29.575Z</time>
      </trkpt>
      <trkpt lat="45.44933" lon="5.51153">
        <ele>516</ele>
        <time>2021-10-02T13:15:28.575Z</time>
      </trkpt>
      <trkpt lat="45.44937" lon="5.51143">
        <ele>516</ele>
        <time>2021-10-02T13:15:27.574Z</time>
      </trkpt>
      <trkpt lat="45.44943" lon="5.51132">
        <ele>516</ele>
        <time>2021-10-02T13:15:26.575Z</time>
      </trkpt>
      <trkpt lat="45.44947" lon="5.51125">
        <ele>516</ele>
        <time>2021-10-02T13:15:25.575Z</time>
      </trkpt>
      <trkpt lat="45.44953" lon="5.51116">
        <ele>516</ele>
        <time>2021-10-02T13:15:24.575Z</time>
      </trkpt>
      <trkpt lat="45.44959" lon="5.51108">
        <ele>516</ele>
        <time>2021-10-02T13:15:23.574Z</time>
      </trkpt>
      <trkpt lat="45.44965" lon="5.511">
        <ele>516</ele>
        <time>2021-10-02T13:15:22.575Z</time>
      </trkpt>
      <trkpt lat="45.44972" lon="5.51093">
        <ele>516</ele>
        <time>2021-10-02T13:15:21.575Z</time>
      </trkpt>
      <trkpt lat="45.44979" lon="5.51087">
        <ele>516</ele>
        <time>2021-10-02T13:15:20.575Z</time>
      </trkpt>
      <trkpt lat="45.44987" lon="5.51082">
        <ele>516</ele>
        <time>2021-10-02T13:15:19.575Z</time>
      </trkpt>
      <trkpt lat="45.44995" lon="5.51078">
        <ele>517</ele>
        <time>2021-10-02T13:15:18.575Z</time>
      </trkpt>
      <trkpt lat="45.45003" lon="5.51075">
        <ele>517</ele>
        <time>2021-10-02T13:15:17.575Z</time>
      </trkpt>
      <trkpt lat="45.45012" lon="5.51073">
        <ele>518</ele>
        <time>2021-10-02T13:15:16.574Z</time>
      </trkpt>
      <trkpt lat="45.45021" lon="5.51071">
        <ele>518</ele>
        <time>2021-10-02T13:15:15.575Z</time>
      </trkpt>
      <trkpt lat="45.4503" lon="5.5107">
        <ele>517</ele>
        <time>2021-10-02T13:15:14.574Z</time>
      </trkpt>
      <trkpt lat="45.45039" lon="5.5107">
        <ele>517</ele>
        <time>2021-10-02T13:15:13.575Z</time>
      </trkpt>
      <trkpt lat="45.45048" lon="5.5107">
        <ele>517</ele>
        <time>2021-10-02T13:15:12.575Z</time>
      </trkpt>
      <trkpt lat="45.45057" lon="5.5107">
        <ele>518</ele>
        <time>2021-10-02T13:15:11.575Z</time>
      </trkpt>
      <trkpt lat="45.45066" lon="5.5107">
        <ele>518</ele>
        <time>2021-10-02T13:15:10.575Z</time>
      </trkpt>
      <trkpt lat="45.45075" lon="5.5107">
        <ele>518</ele>
        <time>2021-10-02T13:15:09.575Z</time>
      </trkpt>
      <trkpt lat="45.45084" lon="5.5107">
        <ele>519</ele>
        <time>2021-10-02T13:15:08.575Z</time>
      </trkpt>
      <trkpt lat="45.45093" lon="5.5107">
        <ele>519</ele>
        <time>2021-10-02T13:15:07.574Z</time>
      </trkpt>
      <trkpt lat="45.45103" lon="5.51069">
        <ele>519</ele>
        <time>2021-10-02T13:15:06.574Z</time>
      </trkpt>
      <trkpt lat="45.45112" lon="5.51069">
        <ele>520</ele>
        <time>2021-10-02T13:15:05.575Z</time>
      </trkpt>
      <trkpt lat="45.45122" lon="5.51068">
        <ele>520</ele>
        <time>2021-10-02T13:15:04.575Z</time>
      </trkpt>
      <trkpt lat="45.45131" lon="5.51066">
        <ele>521</ele>
        <time>2021-10-02T13:15:03.575Z</time>
      </trkpt>
      <trkpt lat="45.4514" lon="5.51064">
        <ele>522</ele>
        <time>2021-10-02T13:15:02.575Z</time>
      </trkpt>
      <trkpt lat="45.4515" lon="5.5106">
        <ele>522</ele>
        <time>2021-10-02T13:15:01.574Z</time>
      </trkpt>
      <trkpt lat="45.45159" lon="5.51056">
        <ele>522</ele>
        <time>2021-10-02T13:15:00.575Z</time>
      </trkpt>
      <trkpt lat="45.45167" lon="5.51051">
        <ele>522</ele>
        <time>2021-10-02T13:14:59.575Z</time>
      </trkpt>
      <trkpt lat="45.45176" lon="5.51046">
        <ele>522</ele>
        <time>2021-10-02T13:14:58.574Z</time>
      </trkpt>
      <trkpt lat="45.45184" lon="5.51041">
        <ele>522</ele>
        <time>2021-10-02T13:14:57.574Z</time>
      </trkpt>
      <trkpt lat="45.45193" lon="5.51036">
        <ele>522</ele>
        <time>2021-10-02T13:14:56.575Z</time>
      </trkpt>
      <trkpt lat="45.45201" lon="5.51031">
        <ele>522</ele>
        <time>2021-10-02T13:14:55.575Z</time>
      </trkpt>
      <trkpt lat="45.45209" lon="5.51025">
        <ele>522</ele>
        <time>2021-10-02T13:14:54.575Z</time>
      </trkpt>
      <trkpt lat="45.45218" lon="5.5102">
        <ele>522</ele>
        <time>2021-10-02T13:14:53.575Z</time>
      </trkpt>
      <trkpt lat="45.45226" lon="5.51015">
        <ele>523</ele>
        <time>2021-10-02T13:14:52.575Z</time>
      </trkpt>
      <trkpt lat="45.45234" lon="5.5101">
        <ele>523</ele>
        <time>2021-10-02T13:14:51.575Z</time>
      </trkpt>
      <trkpt lat="45.45242" lon="5.51004">
        <ele>523</ele>
        <time>2021-10-02T13:14:50.575Z</time>
      </trkpt>
      <trkpt lat="45.4525" lon="5.50998">
        <ele>523</ele>
        <time>2021-10-02T13:14:49.575Z</time>
      </trkpt>
      <trkpt lat="45.45257" lon="5.50991">
        <ele>523</ele>
        <time>2021-10-02T13:14:48.575Z</time>
      </trkpt>
      <trkpt lat="45.45264" lon="5.50984">
        <ele>523</ele>
        <time>2021-10-02T13:14:47.575Z</time>
      </trkpt>
      <trkpt lat="45.45271" lon="5.50977">
        <ele>523</ele>
        <time>2021-10-02T13:14:46.574Z</time>
      </trkpt>
      <trkpt lat="45.45277" lon="5.50969">
        <ele>523</ele>
        <time>2021-10-02T13:14:45.575Z</time>
      </trkpt>
      <trkpt lat="45.45283" lon="5.50961">
        <ele>524</ele>
        <time>2021-10-02T13:14:44.575Z</time>
      </trkpt>
      <trkpt lat="45.45288" lon="5.50952">
        <ele>524</ele>
        <time>2021-10-02T13:14:43.574Z</time>
      </trkpt>
      <trkpt lat="45.45293" lon="5.50944">
        <ele>524</ele>
        <time>2021-10-02T13:14:42.575Z</time>
      </trkpt>
      <trkpt lat="45.45299" lon="5.50935">
        <ele>523</ele>
        <time>2021-10-02T13:14:41.575Z</time>
      </trkpt>
      <trkpt lat="45.45304" lon="5.50926">
        <ele>523</ele>
        <time>2021-10-02T13:14:40.574Z</time>
      </trkpt>
      <trkpt lat="45.45309" lon="5.50917">
        <ele>523</ele>
        <time>2021-10-02T13:14:39.575Z</time>
      </trkpt>
      <trkpt lat="45.45313" lon="5.50908">
        <ele>523</ele>
        <time>2021-10-02T13:14:38.574Z</time>
      </trkpt>
      <trkpt lat="45.45318" lon="5.509">
        <ele>523</ele>
        <time>2021-10-02T13:14:37.574Z</time>
      </trkpt>
      <trkpt lat="45.45323" lon="5.50891">
        <ele>524</ele>
        <time>2021-10-02T13:14:36.575Z</time>
      </trkpt>
      <trkpt lat="45.45328" lon="5.50883">
        <ele>524</ele>
        <time>2021-10-02T13:14:35.575Z</time>
      </trkpt>
      <trkpt lat="45.45332" lon="5.50874">
        <ele>524</ele>
        <time>2021-10-02T13:14:34.575Z</time>
      </trkpt>
      <trkpt lat="45.45337" lon="5.50866">
        <ele>524</ele>
        <time>2021-10-02T13:14:33.575Z</time>
      </trkpt>
      <trkpt lat="45.45342" lon="5.50856">
        <ele>524</ele>
        <time>2021-10-02T13:14:32.575Z</time>
      </trkpt>
      <trkpt lat="45.45346" lon="5.50849">
        <ele>524</ele>
        <time>2021-10-02T13:14:31.575Z</time>
      </trkpt>
      <trkpt lat="45.4535" lon="5.50841">
        <ele>524</ele>
        <time>2021-10-02T13:14:30.575Z</time>
      </trkpt>
      <trkpt lat="45.45355" lon="5.50833">
        <ele>524</ele>
        <time>2021-10-02T13:14:29.575Z</time>
      </trkpt>
      <trkpt lat="45.45359" lon="5.50825">
        <ele>524</ele>
        <time>2021-10-02T13:14:28.575Z</time>
      </trkpt>
      <trkpt lat="45.45363" lon="5.50817">
        <ele>524</ele>
        <time>2021-10-02T13:14:27.574Z</time>
      </trkpt>
      <trkpt lat="45.45367" lon="5.50809">
        <ele>524</ele>
        <time>2021-10-02T13:14:26.575Z</time>
      </trkpt>
      <trkpt lat="45.45371" lon="5.50802">
        <ele>524</ele>
        <time>2021-10-02T13:14:25.575Z</time>
      </trkpt>
      <trkpt lat="45.45374" lon="5.50794">
        <ele>524</ele>
        <time>2021-10-02T13:14:24.575Z</time>
      </trkpt>
      <trkpt lat="45.45378" lon="5.50786">
        <ele>524</ele>
        <time>2021-10-02T13:14:23.575Z</time>
      </trkpt>
      <trkpt lat="45.45382" lon="5.50778">
        <ele>524</ele>
        <time>2021-10-02T13:14:22.575Z</time>
      </trkpt>
      <trkpt lat="45.45386" lon="5.50771">
        <ele>524</ele>
        <time>2021-10-02T13:14:21.575Z</time>
      </trkpt>
      <trkpt lat="45.45389" lon="5.50763">
        <ele>524</ele>
        <time>2021-10-02T13:14:20.575Z</time>
      </trkpt>
      <trkpt lat="45.45393" lon="5.50756">
        <ele>524</ele>
        <time>2021-10-02T13:14:19.575Z</time>
      </trkpt>
      <trkpt lat="45.45397" lon="5.50749">
        <ele>524</ele>
        <time>2021-10-02T13:14:18.574Z</time>
      </trkpt>
      <trkpt lat="45.45401" lon="5.50742">
        <ele>524</ele>
        <time>2021-10-02T13:14:17.574Z</time>
      </trkpt>
      <trkpt lat="45.45406" lon="5.50736">
        <ele>524</ele>
        <time>2021-10-02T13:14:16.575Z</time>
      </trkpt>
      <trkpt lat="45.4541" lon="5.5073">
        <ele>524</ele>
        <time>2021-10-02T13:14:15.575Z</time>
      </trkpt>
      <trkpt lat="45.45415" lon="5.50724">
        <ele>523</ele>
        <time>2021-10-02T13:14:14.575Z</time>
      </trkpt>
      <trkpt lat="45.4542" lon="5.50718">
        <ele>523</ele>
        <time>2021-10-02T13:14:13.575Z</time>
      </trkpt>
      <trkpt lat="45.45425" lon="5.50712">
        <ele>523</ele>
        <time>2021-10-02T13:14:12.575Z</time>
      </trkpt>
      <trkpt lat="45.4543" lon="5.50706">
        <ele>522</ele>
        <time>2021-10-02T13:14:11.575Z</time>
      </trkpt>
      <trkpt lat="45.45436" lon="5.507">
        <ele>522</ele>
        <time>2021-10-02T13:14:10.575Z</time>
      </trkpt>
      <trkpt lat="45.45442" lon="5.50695">
        <ele>522</ele>
        <time>2021-10-02T13:14:09.575Z</time>
      </trkpt>
      <trkpt lat="45.45448" lon="5.50689">
        <ele>522</ele>
        <time>2021-10-02T13:14:08.575Z</time>
      </trkpt>
      <trkpt lat="45.45453" lon="5.50685">
        <ele>522</ele>
        <time>2021-10-02T13:14:07.575Z</time>
      </trkpt>
      <trkpt lat="45.45459" lon="5.5068">
        <ele>522</ele>
        <time>2021-10-02T13:14:06.575Z</time>
      </trkpt>
      <trkpt lat="45.45465" lon="5.50675">
        <ele>523</ele>
        <time>2021-10-02T13:14:05.574Z</time>
      </trkpt>
      <trkpt lat="45.45472" lon="5.5067">
        <ele>523</ele>
        <time>2021-10-02T13:14:04.575Z</time>
      </trkpt>
      <trkpt lat="45.4548" lon="5.50664">
        <ele>523</ele>
        <time>2021-10-02T13:14:03.575Z</time>
      </trkpt>
      <trkpt lat="45.45485" lon="5.5066">
        <ele>524</ele>
        <time>2021-10-02T13:14:02.575Z</time>
      </trkpt>
      <trkpt lat="45.45491" lon="5.50655">
        <ele>524</ele>
        <time>2021-10-02T13:14:01.574Z</time>
      </trkpt>
      <trkpt lat="45.45498" lon="5.50649">
        <ele>524</ele>
        <time>2021-10-02T13:14:00.575Z</time>
      </trkpt>
      <trkpt lat="45.45504" lon="5.50643">
        <ele>524</ele>
        <time>2021-10-02T13:13:59.575Z</time>
      </trkpt>
      <trkpt lat="45.45511" lon="5.50638">
        <ele>524</ele>
        <time>2021-10-02T13:13:58.575Z</time>
      </trkpt>
      <trkpt lat="45.45518" lon="5.50632">
        <ele>524</ele>
        <time>2021-10-02T13:13:57.575Z</time>
      </trkpt>
      <trkpt lat="45.45524" lon="5.50626">
        <ele>524</ele>
        <time>2021-10-02T13:13:56.575Z</time>
      </trkpt>
      <trkpt lat="45.45531" lon="5.5062">
        <ele>524</ele>
        <time>2021-10-02T13:13:55.575Z</time>
      </trkpt>
      <trkpt lat="45.45538" lon="5.50615">
        <ele>524</ele>
        <time>2021-10-02T13:13:54.574Z</time>
      </trkpt>
      <trkpt lat="45.45545" lon="5.50609">
        <ele>524</ele>
        <time>2021-10-02T13:13:53.575Z</time>
      </trkpt>
      <trkpt lat="45.45551" lon="5.50604">
        <ele>524</ele>
        <time>2021-10-02T13:13:52.575Z</time>
      </trkpt>
      <trkpt lat="45.45558" lon="5.50599">
        <ele>524</ele>
        <time>2021-10-02T13:13:51.575Z</time>
      </trkpt>
      <trkpt lat="45.45565" lon="5.50594">
        <ele>524</ele>
        <time>2021-10-02T13:13:50.575Z</time>
      </trkpt>
      <trkpt lat="45.45572" lon="5.50589">
        <ele>524</ele>
        <time>2021-10-02T13:13:49.575Z</time>
      </trkpt>
      <trkpt lat="45.45578" lon="5.50585">
        <ele>524</ele>
        <time>2021-10-02T13:13:48.575Z</time>
      </trkpt>
      <trkpt lat="45.45585" lon="5.50581">
        <ele>525</ele>
        <time>2021-10-02T13:13:47.574Z</time>
      </trkpt>
      <trkpt lat="45.45592" lon="5.50578">
        <ele>525</ele>
        <time>2021-10-02T13:13:46.574Z</time>
      </trkpt>
      <trkpt lat="45.45598" lon="5.50573">
        <ele>525</ele>
        <time>2021-10-02T13:13:45.574Z</time>
      </trkpt>
      <trkpt lat="45.45604" lon="5.50569">
        <ele>525</ele>
        <time>2021-10-02T13:13:44.575Z</time>
      </trkpt>
      <trkpt lat="45.4561" lon="5.50565">
        <ele>525</ele>
        <time>2021-10-02T13:13:43.575Z</time>
      </trkpt>
      <trkpt lat="45.45616" lon="5.50559">
        <ele>525</ele>
        <time>2021-10-02T13:13:42.575Z</time>
      </trkpt>
      <trkpt lat="45.45621" lon="5.50554">
        <ele>525</ele>
        <time>2021-10-02T13:13:41.574Z</time>
      </trkpt>
      <trkpt lat="45.45626" lon="5.50547">
        <ele>525</ele>
        <time>2021-10-02T13:13:40.575Z</time>
      </trkpt>
      <trkpt lat="45.4563" lon="5.50541">
        <ele>525</ele>
        <time>2021-10-02T13:13:39.575Z</time>
      </trkpt>
      <trkpt lat="45.45635" lon="5.50535">
        <ele>525</ele>
        <time>2021-10-02T13:13:38.574Z</time>
      </trkpt>
      <trkpt lat="45.4564" lon="5.5053">
        <ele>526</ele>
        <time>2021-10-02T13:13:37.574Z</time>
      </trkpt>
      <trkpt lat="45.45645" lon="5.50526">
        <ele>526</ele>
        <time>2021-10-02T13:13:36.574Z</time>
      </trkpt>
      <trkpt lat="45.4565" lon="5.50522">
        <ele>526</ele>
        <time>2021-10-02T13:13:35.574Z</time>
      </trkpt>
      <trkpt lat="45.45655" lon="5.50519">
        <ele>526</ele>
        <time>2021-10-02T13:13:34.575Z</time>
      </trkpt>
      <trkpt lat="45.4566" lon="5.50517">
        <ele>526</ele>
        <time>2021-10-02T13:13:33.574Z</time>
      </trkpt>
      <trkpt lat="45.45665" lon="5.50515">
        <ele>525</ele>
        <time>2021-10-02T13:13:32.575Z</time>
      </trkpt>
      <trkpt lat="45.45671" lon="5.50513">
        <ele>525</ele>
        <time>2021-10-02T13:13:31.575Z</time>
      </trkpt>
      <trkpt lat="45.45676" lon="5.50512">
        <ele>525</ele>
        <time>2021-10-02T13:13:30.575Z</time>
      </trkpt>
      <trkpt lat="45.45682" lon="5.50512">
        <ele>524</ele>
        <time>2021-10-02T13:13:29.575Z</time>
      </trkpt>
      <trkpt lat="45.45687" lon="5.50511">
        <ele>524</ele>
        <time>2021-10-02T13:13:28.575Z</time>
      </trkpt>
      <trkpt lat="45.45693" lon="5.5051">
        <ele>524</ele>
        <time>2021-10-02T13:13:27.575Z</time>
      </trkpt>
      <trkpt lat="45.45699" lon="5.50509">
        <ele>524</ele>
        <time>2021-10-02T13:13:26.575Z</time>
        <extensions>
          <visugpx:TrkExtension xmlns:visugpx="https://www.visugpx.com/editgpx/">
            <visugpx:node>3</visugpx:node>
            </visugpx:TrkExtension>
        </extensions>
      </trkpt>
      <trkpt lat="45.45714" lon="5.50513">
        <ele>524.3</ele>
      </trkpt>
      <trkpt lat="45.45728" lon="5.50512">
        <ele>523.9</ele>
      </trkpt>
      <trkpt lat="45.45739" lon="5.50511">
        <ele>523.8</ele>
      </trkpt>
      <trkpt lat="45.45772" lon="5.50513">
        <ele>523.5</ele>
      </trkpt>
      <trkpt lat="45.45788" lon="5.5052">
        <ele>523.3</ele>
      </trkpt>
      <trkpt lat="45.45813" lon="5.5053">
        <ele>523.2</ele>
      </trkpt>
      <trkpt lat="45.45963" lon="5.5059">
        <ele>525.5</ele>
      </trkpt>
      <trkpt lat="45.46071" lon="5.50627">
        <ele>525.2</ele>
      </trkpt>
      <trkpt lat="45.46078" lon="5.50632">
        <ele>525.1</ele>
      </trkpt>
      <trkpt lat="45.46117" lon="5.50644">
        <ele>525.2</ele>
      </trkpt>
      <trkpt lat="45.46122" lon="5.50643">
        <ele>525.5</ele>
      </trkpt>
      <trkpt lat="45.46254" lon="5.50696">
        <ele>530.2</ele>
      </trkpt>
      <trkpt lat="45.46466" lon="5.50796">
        <ele>535.1</ele>
      </trkpt>
      <trkpt lat="45.46523" lon="5.50819">
        <ele>534.9</ele>
      </trkpt>
      <trkpt lat="45.46568" lon="5.5084">
        <ele>534.1</ele>
      </trkpt>
      <trkpt lat="45.46608" lon="5.50846">
        <ele>534.5</ele>
      </trkpt>
      <trkpt lat="45.46623" lon="5.50848">
        <ele>534.6</ele>
      </trkpt>
      <trkpt lat="45.46647" lon="5.50851">
        <ele>534.7</ele>
      </trkpt>
      <trkpt lat="45.46686" lon="5.50847">
        <ele>535</ele>
      </trkpt>
      <trkpt lat="45.46695" lon="5.50844">
        <ele>535.3</ele>
      </trkpt>
      <trkpt lat="45.46699" lon="5.50853">
        <ele>534.7</ele>
      </trkpt>
      <trkpt lat="45.46707" lon="5.5086">
        <ele>534.5</ele>
      </trkpt>
      <trkpt lat="45.4672" lon="5.50861">
        <ele>534.9</ele>
      </trkpt>
      <trkpt lat="45.46725" lon="5.5086">
        <ele>534.9</ele>
      </trkpt>
      <trkpt lat="45.4674" lon="5.50857">
        <ele>534.1</ele>
      </trkpt>
      <trkpt lat="45.46783" lon="5.50859">
        <ele>532.3</ele>
      </trkpt>
      <trkpt lat="45.46909" lon="5.50899">
        <ele>530</ele>
      </trkpt>
      <trkpt lat="45.47026" lon="5.50962">
        <ele>529.7</ele>
      </trkpt>
      <trkpt lat="45.47136" lon="5.51025">
        <ele>527.1</ele>
      </trkpt>
      <trkpt lat="45.4715" lon="5.51035">
        <ele>527</ele>
      </trkpt>
      <trkpt lat="45.4717" lon="5.51049">
        <ele>527.1</ele>
      </trkpt>
      <trkpt lat="45.47206" lon="5.51092">
        <ele>527.7</ele>
      </trkpt>
      <trkpt lat="45.47258" lon="5.51153">
        <ele>528.9</ele>
      </trkpt>
      <trkpt lat="45.47322" lon="5.51262">
        <ele>531.2</ele>
      </trkpt>
      <trkpt lat="45.47353" lon="5.51335">
        <ele>533.4</ele>
      </trkpt>
      <trkpt lat="45.47373" lon="5.51368">
        <ele>534.1</ele>
      </trkpt>
      <trkpt lat="45.47392" lon="5.51389">
        <ele>533.1</ele>
      </trkpt>
      <trkpt lat="45.47414" lon="5.51402">
        <ele>532.5</ele>
      </trkpt>
      <trkpt lat="45.4744" lon="5.5141">
        <ele>531.9</ele>
      </trkpt>
      <trkpt lat="45.47483" lon="5.51412">
        <ele>531.1</ele>
      </trkpt>
      <trkpt lat="45.47506" lon="5.5141">
        <ele>531.9</ele>
      </trkpt>
      <trkpt lat="45.4754" lon="5.51418">
        <ele>532.3</ele>
      </trkpt>
      <trkpt lat="45.47553" lon="5.51425">
        <ele>532.3</ele>
      </trkpt>
      <trkpt lat="45.47765" lon="5.51605">
        <ele>527.1</ele>
      </trkpt>
      <trkpt lat="45.47784" lon="5.51619">
        <ele>526.7</ele>
      </trkpt>
      <trkpt lat="45.47873" lon="5.51685">
        <ele>525.7</ele>
      </trkpt>
      <trkpt lat="45.47952" lon="5.51746">
        <ele>526.6</ele>
      </trkpt>
      <trkpt lat="45.48014" lon="5.51788">
        <ele>526.6</ele>
      </trkpt>
      <trkpt lat="45.48042" lon="5.51819">
        <ele>526.8</ele>
      </trkpt>
      <trkpt lat="45.48084" lon="5.51883">
        <ele>527.2</ele>
      </trkpt>
      <trkpt lat="45.48117" lon="5.51907">
        <ele>526.8</ele>
      </trkpt>
      <trkpt lat="45.48179" lon="5.51924">
        <ele>527.3</ele>
      </trkpt>
      <trkpt lat="45.48209" lon="5.51945">
        <ele>527</ele>
      </trkpt>
      <trkpt lat="45.48255" lon="5.52007">
        <ele>526.7</ele>
      </trkpt>
      <trkpt lat="45.48289" lon="5.52084">
        <ele>525.8</ele>
      </trkpt>
      <trkpt lat="45.48335" lon="5.52218">
        <ele>526.1</ele>
      </trkpt>
      <trkpt lat="45.48369" lon="5.52261">
        <ele>525.9</ele>
      </trkpt>
      <trkpt lat="45.48419" lon="5.52294">
        <ele>525.8</ele>
      </trkpt>
      <trkpt lat="45.48482" lon="5.52317">
        <ele>525.6</ele>
      </trkpt>
      <trkpt lat="45.48524" lon="5.52335">
        <ele>525.8</ele>
      </trkpt>
      <trkpt lat="45.48754" lon="5.52402">
        <ele>526.7</ele>
      </trkpt>
      <trkpt lat="45.48772" lon="5.52409">
        <ele>527.3</ele>
      </trkpt>
      <trkpt lat="45.48768" lon="5.52385">
        <ele>528.7</ele>
        <extensions>
          <visugpx:TrkExtension xmlns:visugpx="https://www.visugpx.com/editgpx/">
            <visugpx:node>10</visugpx:node>
            </visugpx:TrkExtension>
        </extensions>
      </trkpt>
      <trkpt lat="45.48772" lon="5.52409">
        <ele>527.3</ele>
      </trkpt>
      <trkpt lat="45.48794" lon="5.52427">
        <ele>527.9</ele>
      </trkpt>
      <trkpt lat="45.48832" lon="5.52478">
        <ele>527.7</ele>
      </trkpt>
      <trkpt lat="45.48871" lon="5.52538">
        <ele>527.3</ele>
      </trkpt>
      <trkpt lat="45.48894" lon="5.52563">
        <ele>528.1</ele>
      </trkpt>
      <trkpt lat="45.48938" lon="5.52596">
        <ele>528.4</ele>
      </trkpt>
      <trkpt lat="45.48972" lon="5.52621">
        <ele>529</ele>
      </trkpt>
      <trkpt lat="45.49019" lon="5.52667">
        <ele>530.4</ele>
      </trkpt>
      <trkpt lat="45.49114" lon="5.52747">
        <ele>531.2</ele>
      </trkpt>
      <trkpt lat="45.49199" lon="5.52806">
        <ele>533.1</ele>
      </trkpt>
      <trkpt lat="45.49234" lon="5.52824">
        <ele>533.8</ele>
      </trkpt>
      <trkpt lat="45.49265" lon="5.52834">
        <ele>534.5</ele>
      </trkpt>
      <trkpt lat="45.49301" lon="5.52841">
        <ele>535.6</ele>
      </trkpt>
      <trkpt lat="45.49324" lon="5.52842">
        <ele>536.4</ele>
      </trkpt>
      <trkpt lat="45.49341" lon="5.52843">
        <ele>536.9</ele>
      </trkpt>
      <trkpt lat="45.49338" lon="5.52875">
        <ele>536.2</ele>
      </trkpt>
      <trkpt lat="45.49322" lon="5.52987">
        <ele>534.8</ele>
      </trkpt>
      <trkpt lat="45.49323" lon="5.53001">
        <ele>535</ele>
      </trkpt>
      <trkpt lat="45.49327" lon="5.5301">
        <ele>535.1</ele>
      </trkpt>
      <trkpt lat="45.49333" lon="5.53015">
        <ele>535</ele>
      </trkpt>
      <trkpt lat="45.49416" lon="5.53057">
        <ele>538</ele>
      </trkpt>
      <trkpt lat="45.49427" lon="5.53077">
        <ele>538</ele>
      </trkpt>
      <trkpt lat="45.49429" lon="5.53148">
        <ele>539.7</ele>
      </trkpt>
      <trkpt lat="45.49466" lon="5.53259">
        <ele>542</ele>
      </trkpt>
      <trkpt lat="45.49552" lon="5.53456">
        <ele>547.4</ele>
      </trkpt>
      <trkpt lat="45.49597" lon="5.53567">
        <ele>550.6</ele>
      </trkpt>
      <trkpt lat="45.49634" lon="5.53636">
        <ele>552.1</ele>
      </trkpt>
      <trkpt lat="45.49658" lon="5.53666">
        <ele>553</ele>
      </trkpt>
      <trkpt lat="45.49681" lon="5.53717">
        <ele>553.9</ele>
      </trkpt>
      <trkpt lat="45.49689" lon="5.53734">
        <ele>554.4</ele>
      </trkpt>
      <trkpt lat="45.49697" lon="5.53751">
        <ele>555.1</ele>
      </trkpt>
      <trkpt lat="45.49713" lon="5.53763">
        <ele>555.7</ele>
      </trkpt>
      <trkpt lat="45.49774" lon="5.53805">
        <ele>559.7</ele>
      </trkpt>
      <trkpt lat="45.49802" lon="5.53853">
        <ele>563.2</ele>
      </trkpt>
      <trkpt lat="45.49845" lon="5.53918">
        <ele>568.5</ele>
      </trkpt>
      <trkpt lat="45.49888" lon="5.53986">
        <ele>572.9</ele>
      </trkpt>
      <trkpt lat="45.49902" lon="5.54006">
        <ele>573</ele>
      </trkpt>
      <trkpt lat="45.49903" lon="5.54008">
        <ele>573</ele>
      </trkpt>
      <trkpt lat="45.49936" lon="5.54058">
        <ele>574.4</ele>
      </trkpt>
      <trkpt lat="45.49948" lon="5.54076">
        <ele>575.9</ele>
      </trkpt>
      <trkpt lat="45.49965" lon="5.54098">
        <ele>578.1</ele>
      </trkpt>
      <trkpt lat="45.49983" lon="5.54121">
        <ele>580</ele>
      </trkpt>
      <trkpt lat="45.50005" lon="5.54148">
        <ele>581.8</ele>
      </trkpt>
      <trkpt lat="45.50037" lon="5.54172">
        <ele>581.9</ele>
      </trkpt>
      <trkpt lat="45.50046" lon="5.54176">
        <ele>581.7</ele>
      </trkpt>
      <trkpt lat="45.50082" lon="5.5419">
        <ele>581.8</ele>
        <extensions>
          <visugpx:TrkExtension xmlns:visugpx="https://www.visugpx.com/editgpx/">
            <visugpx:node>13</visugpx:node>
            </visugpx:TrkExtension>
        </extensions>
      </trkpt>
      <trkpt lat="45.50046" lon="5.54176">
        <ele>581.7</ele>
      </trkpt>
      <trkpt lat="45.50078" lon="5.54096">
        <ele>577.8</ele>
      </trkpt>
      <trkpt lat="45.50099" lon="5.54052">
        <ele>575.8</ele>
      </trkpt>
      <trkpt lat="45.50116" lon="5.53986">
        <ele>572.1</ele>
      </trkpt>
      <trkpt lat="45.5014" lon="5.53913">
        <ele>566.9</ele>
      </trkpt>
      <trkpt lat="45.50186" lon="5.53851">
        <ele>566.3</ele>
      </trkpt>
      <trkpt lat="45.50251" lon="5.53755">
        <ele>567.9</ele>
      </trkpt>
      <trkpt lat="45.50293" lon="5.53685">
        <ele>559.7</ele>
      </trkpt>
      <trkpt lat="45.50316" lon="5.5365">
        <ele>553.7</ele>
      </trkpt>
      <trkpt lat="45.50371" lon="5.53583">
        <ele>541.9</ele>
      </trkpt>
      <trkpt lat="45.50386" lon="5.53573">
        <ele>539.9</ele>
      </trkpt>
      <trkpt lat="45.50416" lon="5.53577">
        <ele>537.6</ele>
      </trkpt>
      <trkpt lat="45.50439" lon="5.53598">
        <ele>536.9</ele>
      </trkpt>
      <trkpt lat="45.50474" lon="5.53609">
        <ele>536.8</ele>
      </trkpt>
      <trkpt lat="45.50487" lon="5.53594">
        <ele>535.8</ele>
      </trkpt>
      <trkpt lat="45.50507" lon="5.53596">
        <ele>535.8</ele>
      </trkpt>
      <trkpt lat="45.50584" lon="5.5359">
        <ele>530.4</ele>
      </trkpt>
      <trkpt lat="45.50623" lon="5.53563">
        <ele>525.1</ele>
      </trkpt>
      <trkpt lat="45.50635" lon="5.53557">
        <ele>524.2</ele>
      </trkpt>
      <trkpt lat="45.50649" lon="5.53558">
        <ele>524.6</ele>
      </trkpt>
      <trkpt lat="45.5068" lon="5.53561">
        <ele>524.7</ele>
      </trkpt>
      <trkpt lat="45.507" lon="5.53557">
        <ele>523.4</ele>
      </trkpt>
      <trkpt lat="45.50743" lon="5.53527">
        <ele>520.7</ele>
      </trkpt>
      <trkpt lat="45.50788" lon="5.53492">
        <ele>515.5</ele>
      </trkpt>
      <trkpt lat="45.50814" lon="5.53476">
        <ele>513.1</ele>
      </trkpt>
      <trkpt lat="45.50848" lon="5.5346">
        <ele>508.7</ele>
      </trkpt>
      <trkpt lat="45.50868" lon="5.53333">
        <ele>495.7</ele>
      </trkpt>
      <trkpt lat="45.50877" lon="5.53327">
        <ele>493.5</ele>
      </trkpt>
      <trkpt lat="45.50933" lon="5.5336">
        <ele>484.4</ele>
      </trkpt>
      <trkpt lat="45.50978" lon="5.53393">
        <ele>477.1</ele>
      </trkpt>
      <trkpt lat="45.51013" lon="5.53425">
        <ele>471.8</ele>
      </trkpt>
      <trkpt lat="45.51012" lon="5.53404">
        <ele>471.2</ele>
      </trkpt>
      <trkpt lat="45.5098" lon="5.53276">
        <ele>468</ele>
      </trkpt>
      <trkpt lat="45.50969" lon="5.53244">
        <ele>465.1</ele>
      </trkpt>
      <trkpt lat="45.50923" lon="5.53168">
        <ele>452.3</ele>
      </trkpt>
      <trkpt lat="45.50913" lon="5.53132">
        <ele>449.4</ele>
      </trkpt>
      <trkpt lat="45.50956" lon="5.53113">
        <ele>445.8</ele>
      </trkpt>
      <trkpt lat="45.50993" lon="5.53108">
        <ele>442.4</ele>
      </trkpt>
      <trkpt lat="45.51069" lon="5.53118">
        <ele>437.5</ele>
      </trkpt>
      <trkpt lat="45.51108" lon="5.53107">
        <ele>434.7</ele>
      </trkpt>
      <trkpt lat="45.51141" lon="5.5308">
        <ele>431.6</ele>
      </trkpt>
      <trkpt lat="45.51164" lon="5.53058">
        <ele>430.1</ele>
        <extensions>
          <visugpx:TrkExtension xmlns:visugpx="https://www.visugpx.com/editgpx/">
            <visugpx:node>14</visugpx:node>
            </visugpx:TrkExtension>
        </extensions>
      </trkpt>
      <trkpt lat="45.51476" lon="5.52505">
        <ele>387</ele>
        <extensions>
          <visugpx:TrkExtension xmlns:visugpx="https://www.visugpx.com/editgpx/">
            <visugpx:node>9</visugpx:node>
            </visugpx:TrkExtension>
        </extensions>
      </trkpt>
      <trkpt lat="45.5176" lon="5.52523">
        <ele>378.4</ele>
      </trkpt>
      <trkpt lat="45.5183" lon="5.52521">
        <ele>377.5</ele>
      </trkpt>
      <trkpt lat="45.51868" lon="5.52507">
        <ele>377.4</ele>
      </trkpt>
      <trkpt lat="45.5188" lon="5.52503">
        <ele>378.3</ele>
      </trkpt>
      <trkpt lat="45.51919" lon="5.52488">
        <ele>378.1</ele>
      </trkpt>
      <trkpt lat="45.51949" lon="5.52474">
        <ele>379.2</ele>
      </trkpt>
      <trkpt lat="45.51952" lon="5.52473">
        <ele>379.3</ele>
      </trkpt>
      <trkpt lat="45.5197" lon="5.5246">
        <ele>379.9</ele>
      </trkpt>
      <trkpt lat="45.52012" lon="5.52419">
        <ele>380.4</ele>
      </trkpt>
      <trkpt lat="45.52042" lon="5.52382">
        <ele>381.6</ele>
      </trkpt>
      <trkpt lat="45.52067" lon="5.52318">
        <ele>383</ele>
      </trkpt>
      <trkpt lat="45.5208" lon="5.52261">
        <ele>384.4</ele>
      </trkpt>
      <trkpt lat="45.52112" lon="5.51792">
        <ele>403.6</ele>
      </trkpt>
      <trkpt lat="45.52114" lon="5.51775">
        <ele>404.2</ele>
      </trkpt>
      <trkpt lat="45.52119" lon="5.5176">
        <ele>404.6</ele>
      </trkpt>
      <trkpt lat="45.52125" lon="5.51753">
        <ele>405</ele>
      </trkpt>
      <trkpt lat="45.52131" lon="5.51745">
        <ele>405.6</ele>
      </trkpt>
      <trkpt lat="45.52141" lon="5.51734">
        <ele>406.8</ele>
      </trkpt>
      <trkpt lat="45.52148" lon="5.51735">
        <ele>407.6</ele>
      </trkpt>
      <trkpt lat="45.52156" lon="5.51735">
        <ele>408.4</ele>
      </trkpt>
      <trkpt lat="45.52165" lon="5.5174">
        <ele>408.9</ele>
      </trkpt>
      <trkpt lat="45.52193" lon="5.51772">
        <ele>411.3</ele>
      </trkpt>
      <trkpt lat="45.52216" lon="5.51781">
        <ele>412.6</ele>
      </trkpt>
      <trkpt lat="45.52273" lon="5.51784">
        <ele>416.5</ele>
      </trkpt>
      <trkpt lat="45.52294" lon="5.5178">
        <ele>417.6</ele>
      </trkpt>
      <trkpt lat="45.52308" lon="5.51768">
        <ele>418.9</ele>
      </trkpt>
      <trkpt lat="45.5233" lon="5.51735">
        <ele>421.9</ele>
      </trkpt>
      <trkpt lat="45.52347" lon="5.517">
        <ele>422.9</ele>
      </trkpt>
      <trkpt lat="45.52352" lon="5.51579">
        <ele>428.9</ele>
      </trkpt>
      <trkpt lat="45.52357" lon="5.51515">
        <ele>431.5</ele>
      </trkpt>
      <trkpt lat="45.52365" lon="5.51463">
        <ele>432</ele>
      </trkpt>
      <trkpt lat="45.52422" lon="5.51293">
        <ele>434.6</ele>
      </trkpt>
      <trkpt lat="45.52468" lon="5.51119">
        <ele>443.6</ele>
      </trkpt>
      <trkpt lat="45.52518" lon="5.51027">
        <ele>448.7</ele>
      </trkpt>
      <trkpt lat="45.52543" lon="5.50963">
        <ele>454.3</ele>
      </trkpt>
      <trkpt lat="45.52565" lon="5.50893">
        <ele>461</ele>
      </trkpt>
      <trkpt lat="45.52599" lon="5.5084">
        <ele>463.8</ele>
      </trkpt>
      <trkpt lat="45.5275" lon="5.50631">
        <ele>467</ele>
      </trkpt>
      <trkpt lat="45.52784" lon="5.50588">
        <ele>468</ele>
      </trkpt>
      <trkpt lat="45.52807" lon="5.50552">
        <ele>469</ele>
      </trkpt>
      <trkpt lat="45.5286" lon="5.50444">
        <ele>473</ele>
      </trkpt>
      <trkpt lat="45.52864" lon="5.50436">
        <ele>473.4</ele>
      </trkpt>
      <trkpt lat="45.52878" lon="5.50403">
        <ele>475.6</ele>
      </trkpt>
      <trkpt lat="45.52887" lon="5.50381">
        <ele>477.2</ele>
      </trkpt>
      <trkpt lat="45.52889" lon="5.50373">
        <ele>477.6</ele>
      </trkpt>
      <trkpt lat="45.52886" lon="5.50371">
        <ele>477.5</ele>
      </trkpt>
      <trkpt lat="45.52841" lon="5.50344">
        <ele>477.8</ele>
      </trkpt>
      <trkpt lat="45.52844" lon="5.50336">
        <ele>478.3</ele>
      </trkpt>
      <trkpt lat="45.52853" lon="5.50316">
        <ele>480</ele>
      </trkpt>
      <trkpt lat="45.5286" lon="5.50298">
        <ele>481.2</ele>
        <extensions>
          <visugpx:TrkExtension xmlns:visugpx="https://www.visugpx.com/editgpx/">
            <visugpx:node>7</visugpx:node>
            </visugpx:TrkExtension>
        </extensions>
      </trkpt>
      <trkpt lat="45.52853" lon="5.50316">
        <ele>480</ele>
      </trkpt>
      <trkpt lat="45.52844" lon="5.50336">
        <ele>478.3</ele>
      </trkpt>
      <trkpt lat="45.52841" lon="5.50344">
        <ele>477.8</ele>
      </trkpt>
      <trkpt lat="45.52886" lon="5.50371">
        <ele>477.5</ele>
      </trkpt>
      <trkpt lat="45.52889" lon="5.50373">
        <ele>477.6</ele>
      </trkpt>
      <trkpt lat="45.52924" lon="5.50245">
        <ele>486.4</ele>
      </trkpt>
      <trkpt lat="45.52934" lon="5.5021">
        <ele>488.7</ele>
      </trkpt>
      <trkpt lat="45.5295" lon="5.50197">
        <ele>489.8</ele>
      </trkpt>
      <trkpt lat="45.52979" lon="5.50174">
        <ele>490.9</ele>
      </trkpt>
      <trkpt lat="45.52988" lon="5.50156">
        <ele>492.1</ele>
      </trkpt>
      <trkpt lat="45.5299" lon="5.50124">
        <ele>493.9</ele>
      </trkpt>
      <trkpt lat="45.52989" lon="5.50101">
        <ele>495</ele>
      </trkpt>
      <trkpt lat="45.52991" lon="5.50072">
        <ele>497.2</ele>
      </trkpt>
      <trkpt lat="45.53007" lon="5.50042">
        <ele>501.7</ele>
      </trkpt>
      <trkpt lat="45.53024" lon="5.49985">
        <ele>505.1</ele>
      </trkpt>
      <trkpt lat="45.53051" lon="5.49867">
        <ele>505.8</ele>
      </trkpt>
      <trkpt lat="45.53054" lon="5.49855">
        <ele>506</ele>
      </trkpt>
      <trkpt lat="45.53059" lon="5.49775">
        <ele>507.1</ele>
      </trkpt>
      <trkpt lat="45.53119" lon="5.49736">
        <ele>507.4</ele>
      </trkpt>
      <trkpt lat="45.53139" lon="5.49703">
        <ele>507.7</ele>
      </trkpt>
      <trkpt lat="45.53244" lon="5.49358">
        <ele>510</ele>
      </trkpt>
      <trkpt lat="45.53249" lon="5.4935">
        <ele>510</ele>
      </trkpt>
      <trkpt lat="45.5327" lon="5.49327">
        <ele>510.6</ele>
      </trkpt>
      <trkpt lat="45.53324" lon="5.49258">
        <ele>508.3</ele>
      </trkpt>
      <trkpt lat="45.53387" lon="5.4916">
        <ele>506.1</ele>
      </trkpt>
      <trkpt lat="45.53413" lon="5.49098">
        <ele>505.1</ele>
      </trkpt>
      <trkpt lat="45.53434" lon="5.49034">
        <ele>504.7</ele>
      </trkpt>
      <trkpt lat="45.53494" lon="5.48901">
        <ele>501.4</ele>
      </trkpt>
      <trkpt lat="45.5357" lon="5.48753">
        <ele>499.3</ele>
      </trkpt>
      <trkpt lat="45.53596" lon="5.48701">
        <ele>498.9</ele>
      </trkpt>
      <trkpt lat="45.53603" lon="5.48673">
        <ele>499.1</ele>
      </trkpt>
      <trkpt lat="45.53608" lon="5.4859">
        <ele>501</ele>
      </trkpt>
      <trkpt lat="45.53612" lon="5.48557">
        <ele>501.9</ele>
      </trkpt>
      <trkpt lat="45.53635" lon="5.48507">
        <ele>503</ele>
      </trkpt>
      <trkpt lat="45.53648" lon="5.48464">
        <ele>502.5</ele>
      </trkpt>
      <trkpt lat="45.53681" lon="5.48269">
        <ele>493.9</ele>
      </trkpt>
      <trkpt lat="45.53695" lon="5.48231">
        <ele>495</ele>
      </trkpt>
      <trkpt lat="45.53739" lon="5.48149">
        <ele>496.2</ele>
      </trkpt>
      <trkpt lat="45.53754" lon="5.481">
        <ele>497.8</ele>
      </trkpt>
      <trkpt lat="45.53761" lon="5.48049">
        <ele>498.6</ele>
      </trkpt>
      <trkpt lat="45.5376" lon="5.47949">
        <ele>499.5</ele>
      </trkpt>
      <trkpt lat="45.53741" lon="5.47745">
        <ele>499.6</ele>
      </trkpt>
      <trkpt lat="45.5369" lon="5.47707">
        <ele>503.3</ele>
      </trkpt>
      <trkpt lat="45.53664" lon="5.47698">
        <ele>505.1</ele>
      </trkpt>
      <trkpt lat="45.53538" lon="5.47691">
        <ele>508.3</ele>
      </trkpt>
      <trkpt lat="45.53519" lon="5.47688">
        <ele>509.3</ele>
      </trkpt>
      <trkpt lat="45.53513" lon="5.47665">
        <ele>509.5</ele>
      </trkpt>
      <trkpt lat="45.53507" lon="5.47622">
        <ele>508.1</ele>
      </trkpt>
      <trkpt lat="45.53508" lon="5.47557">
        <ele>506.7</ele>
      </trkpt>
      <trkpt lat="45.53521" lon="5.47433">
        <ele>504.5</ele>
      </trkpt>
      <trkpt lat="45.53522" lon="5.47398">
        <ele>504.4</ele>
      </trkpt>
      <trkpt lat="45.53517" lon="5.47365">
        <ele>503.9</ele>
      </trkpt>
      <trkpt lat="45.53491" lon="5.47313">
        <ele>500.2</ele>
      </trkpt>
      <trkpt lat="45.53487" lon="5.47297">
        <ele>499.9</ele>
      </trkpt>
      <trkpt lat="45.5349" lon="5.47283">
        <ele>499.7</ele>
      </trkpt>
      <trkpt lat="45.53499" lon="5.47271">
        <ele>499.8</ele>
      </trkpt>
      <trkpt lat="45.53558" lon="5.47219">
        <ele>502.9</ele>
      </trkpt>
      <trkpt lat="45.53645" lon="5.47114">
        <ele>500.5</ele>
      </trkpt>
      <trkpt lat="45.53692" lon="5.47029">
        <ele>497.2</ele>
      </trkpt>
      <trkpt lat="45.5371" lon="5.46969">
        <ele>495.9</ele>
      </trkpt>
      <trkpt lat="45.53734" lon="5.46345">
        <ele>497.4</ele>
      </trkpt>
      <trkpt lat="45.53736" lon="5.46308">
        <ele>495.6</ele>
      </trkpt>
      <trkpt lat="45.53776" lon="5.46302">
        <ele>493</ele>
        <extensions>
          <visugpx:TrkExtension xmlns:visugpx="https://www.visugpx.com/editgpx/">
            <visugpx:node>8</visugpx:node>
            </visugpx:TrkExtension>
        </extensions>
      </trkpt>
      <trkpt lat="45.53715" lon="5.45011">
        <ele>487</ele>
        <time>2021-10-02T12:31:58.573Z</time>
        <extensions>
          <visugpx:TrkExtension xmlns:visugpx="https://www.visugpx.com/editgpx/">
            <visugpx:node>3</visugpx:node>
            </visugpx:TrkExtension>
        </extensions>
      </trkpt>
      <trkpt lat="45.53718" lon="5.45012">
        <ele>487</ele>
        <time>2021-10-02T12:31:57.572Z</time>
      </trkpt>
      <trkpt lat="45.53722" lon="5.45013">
        <ele>486</ele>
        <time>2021-10-02T12:31:56.573Z</time>
      </trkpt>
      <trkpt lat="45.53726" lon="5.45015">
        <ele>486</ele>
        <time>2021-10-02T12:31:55.573Z</time>
      </trkpt>
      <trkpt lat="45.5373" lon="5.45016">
        <ele>486</ele>
        <time>2021-10-02T12:31:54.573Z</time>
      </trkpt>
      <trkpt lat="45.53734" lon="5.45018">
        <ele>486</ele>
        <time>2021-10-02T12:31:53.573Z</time>
      </trkpt>
      <trkpt lat="45.53738" lon="5.4502">
        <ele>485</ele>
        <time>2021-10-02T12:31:52.573Z</time>
      </trkpt>
      <trkpt lat="45.53742" lon="5.45022">
        <ele>485</ele>
        <time>2021-10-02T12:31:51.572Z</time>
      </trkpt>
      <trkpt lat="45.53745" lon="5.45024">
        <ele>485</ele>
        <time>2021-10-02T12:31:50.573Z</time>
      </trkpt>
      <trkpt lat="45.53749" lon="5.45026">
        <ele>485</ele>
        <time>2021-10-02T12:31:49.573Z</time>
      </trkpt>
      <trkpt lat="45.53753" lon="5.45028">
        <ele>485</ele>
        <time>2021-10-02T12:31:48.572Z</time>
      </trkpt>
      <trkpt lat="45.53757" lon="5.4503">
        <ele>484</ele>
        <time>2021-10-02T12:31:47.572Z</time>
      </trkpt>
      <trkpt lat="45.5376" lon="5.45033">
        <ele>484</ele>
        <time>2021-10-02T12:31:46.572Z</time>
      </trkpt>
      <trkpt lat="45.53764" lon="5.45035">
        <ele>484</ele>
        <time>2021-10-02T12:31:45.572Z</time>
      </trkpt>
      <trkpt lat="45.53768" lon="5.45037">
        <ele>484</ele>
        <time>2021-10-02T12:31:44.572Z</time>
      </trkpt>
      <trkpt lat="45.53772" lon="5.45039">
        <ele>484</ele>
        <time>2021-10-02T12:31:43.572Z</time>
      </trkpt>
      <trkpt lat="45.53776" lon="5.45042">
        <ele>484</ele>
        <time>2021-10-02T12:31:42.572Z</time>
      </trkpt>
      <trkpt lat="45.5378" lon="5.45044">
        <ele>483</ele>
        <time>2021-10-02T12:31:41.573Z</time>
      </trkpt>
      <trkpt lat="45.53783" lon="5.45046">
        <ele>483</ele>
        <time>2021-10-02T12:31:40.573Z</time>
      </trkpt>
      <trkpt lat="45.53787" lon="5.45049">
        <ele>483</ele>
        <time>2021-10-02T12:31:39.573Z</time>
      </trkpt>
      <trkpt lat="45.53791" lon="5.45051">
        <ele>483</ele>
        <time>2021-10-02T12:31:38.573Z</time>
      </trkpt>
      <trkpt lat="45.53795" lon="5.45053">
        <ele>483</ele>
        <time>2021-10-02T12:31:37.572Z</time>
      </trkpt>
      <trkpt lat="45.53799" lon="5.45055">
        <ele>482</ele>
        <time>2021-10-02T12:31:36.573Z</time>
      </trkpt>
      <trkpt lat="45.53803" lon="5.45058">
        <ele>482</ele>
        <time>2021-10-02T12:31:35.572Z</time>
      </trkpt>
      <trkpt lat="45.53806" lon="5.4506">
        <ele>482</ele>
        <time>2021-10-02T12:31:34.572Z</time>
      </trkpt>
      <trkpt lat="45.5381" lon="5.45062">
        <ele>481</ele>
        <time>2021-10-02T12:31:33.573Z</time>
      </trkpt>
      <trkpt lat="45.53814" lon="5.45064">
        <ele>481</ele>
        <time>2021-10-02T12:31:32.572Z</time>
      </trkpt>
      <trkpt lat="45.53818" lon="5.45067">
        <ele>481</ele>
        <time>2021-10-02T12:31:31.573Z</time>
      </trkpt>
      <trkpt lat="45.53822" lon="5.45069">
        <ele>481</ele>
        <time>2021-10-02T12:31:30.572Z</time>
      </trkpt>
      <trkpt lat="45.53825" lon="5.45071">
        <ele>481</ele>
        <time>2021-10-02T12:31:29.573Z</time>
      </trkpt>
      <trkpt lat="45.53829" lon="5.45073">
        <ele>480</ele>
        <time>2021-10-02T12:31:28.573Z</time>
      </trkpt>
      <trkpt lat="45.53833" lon="5.45076">
        <ele>480</ele>
        <time>2021-10-02T12:31:27.573Z</time>
      </trkpt>
      <trkpt lat="45.53837" lon="5.45078">
        <ele>480</ele>
        <time>2021-10-02T12:31:26.573Z</time>
      </trkpt>
      <trkpt lat="45.5384" lon="5.4508">
        <ele>480</ele>
        <time>2021-10-02T12:31:25.573Z</time>
      </trkpt>
      <trkpt lat="45.53844" lon="5.45082">
        <ele>480</ele>
        <time>2021-10-02T12:31:24.573Z</time>
      </trkpt>
      <trkpt lat="45.53848" lon="5.45085">
        <ele>479</ele>
        <time>2021-10-02T12:31:23.573Z</time>
      </trkpt>
      <trkpt lat="45.53852" lon="5.45087">
        <ele>479</ele>
        <time>2021-10-02T12:31:22.572Z</time>
      </trkpt>
      <trkpt lat="45.53856" lon="5.45089">
        <ele>478</ele>
        <time>2021-10-02T12:31:21.573Z</time>
      </trkpt>
      <trkpt lat="45.5386" lon="5.45091">
        <ele>477</ele>
        <time>2021-10-02T12:31:20.573Z</time>
      </trkpt>
      <trkpt lat="45.53863" lon="5.45094">
        <ele>477</ele>
        <time>2021-10-02T12:31:19.572Z</time>
      </trkpt>
      <trkpt lat="45.53867" lon="5.45096">
        <ele>476</ele>
        <time>2021-10-02T12:31:18.573Z</time>
      </trkpt>
      <trkpt lat="45.53871" lon="5.45098">
        <ele>475</ele>
        <time>2021-10-02T12:31:17.573Z</time>
      </trkpt>
      <trkpt lat="45.53875" lon="5.451">
        <ele>475</ele>
        <time>2021-10-02T12:31:16.572Z</time>
      </trkpt>
      <trkpt lat="45.53879" lon="5.45103">
        <ele>474</ele>
        <time>2021-10-02T12:31:15.573Z</time>
      </trkpt>
      <trkpt lat="45.53883" lon="5.45105">
        <ele>474</ele>
        <time>2021-10-02T12:31:14.573Z</time>
      </trkpt>
      <trkpt lat="45.53887" lon="5.45106">
        <ele>474</ele>
        <time>2021-10-02T12:31:13.573Z</time>
      </trkpt>
      <trkpt lat="45.53891" lon="5.45107">
        <ele>474</ele>
        <time>2021-10-02T12:31:12.572Z</time>
      </trkpt>
      <trkpt lat="45.53895" lon="5.45108">
        <ele>474</ele>
        <time>2021-10-02T12:31:11.573Z</time>
      </trkpt>
      <trkpt lat="45.53899" lon="5.45109">
        <ele>473</ele>
        <time>2021-10-02T12:31:10.573Z</time>
      </trkpt>
      <trkpt lat="45.53904" lon="5.45109">
        <ele>473</ele>
        <time>2021-10-02T12:31:09.573Z</time>
      </trkpt>
      <trkpt lat="45.53908" lon="5.45109">
        <ele>473</ele>
        <time>2021-10-02T12:31:08.573Z</time>
      </trkpt>
      <trkpt lat="45.53912" lon="5.45108">
        <ele>473</ele>
        <time>2021-10-02T12:31:07.573Z</time>
      </trkpt>
      <trkpt lat="45.53917" lon="5.45107">
        <ele>473</ele>
        <time>2021-10-02T12:31:06.572Z</time>
      </trkpt>
      <trkpt lat="45.53921" lon="5.45105">
        <ele>474</ele>
        <time>2021-10-02T12:31:05.573Z</time>
      </trkpt>
      <trkpt lat="45.53925" lon="5.45103">
        <ele>474</ele>
        <time>2021-10-02T12:31:04.573Z</time>
      </trkpt>
      <trkpt lat="45.53929" lon="5.45101">
        <ele>474</ele>
        <time>2021-10-02T12:31:03.573Z</time>
      </trkpt>
      <trkpt lat="45.53932" lon="5.45099">
        <ele>474</ele>
        <time>2021-10-02T12:31:02.573Z</time>
      </trkpt>
      <trkpt lat="45.53936" lon="5.45096">
        <ele>474</ele>
        <time>2021-10-02T12:31:01.572Z</time>
      </trkpt>
      <trkpt lat="45.53939" lon="5.45092">
        <ele>473</ele>
        <time>2021-10-02T12:31:00.572Z</time>
      </trkpt>
      <trkpt lat="45.53942" lon="5.45089">
        <ele>473</ele>
        <time>2021-10-02T12:30:59.573Z</time>
      </trkpt>
      <trkpt lat="45.53945" lon="5.45085">
        <ele>472</ele>
        <time>2021-10-02T12:30:58.573Z</time>
      </trkpt>
      <trkpt lat="45.53948" lon="5.45081">
        <ele>472</ele>
        <time>2021-10-02T12:30:57.572Z</time>
      </trkpt>
      <trkpt lat="45.53951" lon="5.45077">
        <ele>472</ele>
        <time>2021-10-02T12:30:56.573Z</time>
      </trkpt>
      <trkpt lat="45.53954" lon="5.45073">
        <ele>472</ele>
        <time>2021-10-02T12:30:55.573Z</time>
      </trkpt>
      <trkpt lat="45.53956" lon="5.45068">
        <ele>471</ele>
        <time>2021-10-02T12:30:54.573Z</time>
      </trkpt>
      <trkpt lat="45.53959" lon="5.45064">
        <ele>471</ele>
        <time>2021-10-02T12:30:53.573Z</time>
      </trkpt>
      <trkpt lat="45.53962" lon="5.4506">
        <ele>471</ele>
        <time>2021-10-02T12:30:52.573Z</time>
      </trkpt>
      <trkpt lat="45.53964" lon="5.45055">
        <ele>471</ele>
        <time>2021-10-02T12:30:51.573Z</time>
      </trkpt>
      <trkpt lat="45.53966" lon="5.45051">
        <ele>471</ele>
        <time>2021-10-02T12:30:50.573Z</time>
      </trkpt>
      <trkpt lat="45.53969" lon="5.45046">
        <ele>470</ele>
        <time>2021-10-02T12:30:49.572Z</time>
      </trkpt>
      <trkpt lat="45.53971" lon="5.45041">
        <ele>470</ele>
        <time>2021-10-02T12:30:48.573Z</time>
      </trkpt>
      <trkpt lat="45.53974" lon="5.45037">
        <ele>470</ele>
        <time>2021-10-02T12:30:47.573Z</time>
      </trkpt>
      <trkpt lat="45.53976" lon="5.45032">
        <ele>470</ele>
        <time>2021-10-02T12:30:46.572Z</time>
      </trkpt>
      <trkpt lat="45.53979" lon="5.45027">
        <ele>469</ele>
        <time>2021-10-02T12:30:45.573Z</time>
      </trkpt>
      <trkpt lat="45.53981" lon="5.45023">
        <ele>469</ele>
        <time>2021-10-02T12:30:44.573Z</time>
      </trkpt>
      <trkpt lat="45.53984" lon="5.45018">
        <ele>469</ele>
        <time>2021-10-02T12:30:43.573Z</time>
      </trkpt>
      <trkpt lat="45.53986" lon="5.45013">
        <ele>468</ele>
        <time>2021-10-02T12:30:42.572Z</time>
      </trkpt>
      <trkpt lat="45.53989" lon="5.45008">
        <ele>468</ele>
        <time>2021-10-02T12:30:41.573Z</time>
      </trkpt>
      <trkpt lat="45.53992" lon="5.45003">
        <ele>468</ele>
        <time>2021-10-02T12:30:40.572Z</time>
      </trkpt>
      <trkpt lat="45.53994" lon="5.44998">
        <ele>467</ele>
        <time>2021-10-02T12:30:39.572Z</time>
      </trkpt>
      <trkpt lat="45.53997" lon="5.44993">
        <ele>466</ele>
        <time>2021-10-02T12:30:38.572Z</time>
      </trkpt>
      <trkpt lat="45.54" lon="5.44988">
        <ele>466</ele>
        <time>2021-10-02T12:30:37.572Z</time>
      </trkpt>
      <trkpt lat="45.54002" lon="5.44983">
        <ele>466</ele>
        <time>2021-10-02T12:30:36.573Z</time>
      </trkpt>
      <trkpt lat="45.54005" lon="5.44978">
        <ele>465</ele>
        <time>2021-10-02T12:30:35.573Z</time>
      </trkpt>
      <trkpt lat="45.54008" lon="5.44973">
        <ele>465</ele>
        <time>2021-10-02T12:30:34.573Z</time>
      </trkpt>
      <trkpt lat="45.54011" lon="5.44968">
        <ele>465</ele>
        <time>2021-10-02T12:30:33.573Z</time>
      </trkpt>
      <trkpt lat="45.54013" lon="5.44963">
        <ele>464</ele>
        <time>2021-10-02T12:30:32.573Z</time>
      </trkpt>
      <trkpt lat="45.54016" lon="5.44958">
        <ele>464</ele>
        <time>2021-10-02T12:30:31.572Z</time>
      </trkpt>
      <trkpt lat="45.54018" lon="5.44953">
        <ele>463</ele>
        <time>2021-10-02T12:30:30.573Z</time>
      </trkpt>
      <trkpt lat="45.54021" lon="5.44947">
        <ele>463</ele>
        <time>2021-10-02T12:30:29.573Z</time>
      </trkpt>
      <trkpt lat="45.54024" lon="5.44942">
        <ele>463</ele>
        <time>2021-10-02T12:30:28.573Z</time>
      </trkpt>
      <trkpt lat="45.54027" lon="5.44937">
        <ele>462</ele>
        <time>2021-10-02T12:30:27.573Z</time>
      </trkpt>
      <trkpt lat="45.5403" lon="5.44933">
        <ele>462</ele>
        <time>2021-10-02T12:30:26.572Z</time>
      </trkpt>
      <trkpt lat="45.54033" lon="5.44928">
        <ele>462</ele>
        <time>2021-10-02T12:30:25.572Z</time>
      </trkpt>
      <trkpt lat="45.54037" lon="5.44923">
        <ele>461</ele>
        <time>2021-10-02T12:30:24.573Z</time>
      </trkpt>
      <trkpt lat="45.5404" lon="5.44919">
        <ele>461</ele>
        <time>2021-10-02T12:30:23.573Z</time>
      </trkpt>
      <trkpt lat="45.54044" lon="5.44915">
        <ele>461</ele>
        <time>2021-10-02T12:30:22.573Z</time>
      </trkpt>
      <trkpt lat="45.54047" lon="5.44911">
        <ele>460</ele>
        <time>2021-10-02T12:30:21.573Z</time>
      </trkpt>
      <trkpt lat="45.54051" lon="5.44908">
        <ele>460</ele>
        <time>2021-10-02T12:30:20.573Z</time>
      </trkpt>
      <trkpt lat="45.54055" lon="5.44906">
        <ele>460</ele>
        <time>2021-10-02T12:30:19.573Z</time>
      </trkpt>
      <trkpt lat="45.5406" lon="5.44905">
        <ele>460</ele>
        <time>2021-10-02T12:30:18.572Z</time>
      </trkpt>
      <trkpt lat="45.54064" lon="5.44904">
        <ele>460</ele>
        <time>2021-10-02T12:30:17.572Z</time>
      </trkpt>
      <trkpt lat="45.54068" lon="5.44904">
        <ele>460</ele>
        <time>2021-10-02T12:30:16.572Z</time>
      </trkpt>
      <trkpt lat="45.54072" lon="5.44904">
        <ele>461</ele>
        <time>2021-10-02T12:30:15.573Z</time>
      </trkpt>
      <trkpt lat="45.54076" lon="5.44904">
        <ele>461</ele>
        <time>2021-10-02T12:30:14.572Z</time>
      </trkpt>
      <trkpt lat="45.5408" lon="5.44905">
        <ele>461</ele>
        <time>2021-10-02T12:30:13.573Z</time>
      </trkpt>
      <trkpt lat="45.54085" lon="5.44906">
        <ele>462</ele>
        <time>2021-10-02T12:30:12.572Z</time>
      </trkpt>
      <trkpt lat="45.54088" lon="5.44908">
        <ele>462</ele>
        <time>2021-10-02T12:30:11.573Z</time>
      </trkpt>
      <trkpt lat="45.54092" lon="5.44909">
        <ele>463</ele>
        <time>2021-10-02T12:30:10.573Z</time>
      </trkpt>
      <trkpt lat="45.54097" lon="5.4491">
        <ele>463</ele>
        <time>2021-10-02T12:30:09.572Z</time>
      </trkpt>
      <trkpt lat="45.54101" lon="5.44911">
        <ele>464</ele>
        <time>2021-10-02T12:30:08.573Z</time>
      </trkpt>
      <trkpt lat="45.54105" lon="5.4491">
        <ele>464</ele>
        <time>2021-10-02T12:30:07.572Z</time>
      </trkpt>
      <trkpt lat="45.54107" lon="5.44906">
        <ele>465</ele>
        <time>2021-10-02T12:30:06.572Z</time>
      </trkpt>
      <trkpt lat="45.54109" lon="5.449">
        <ele>464</ele>
        <time>2021-10-02T12:30:05.573Z</time>
      </trkpt>
      <trkpt lat="45.5411" lon="5.44894">
        <ele>464</ele>
        <time>2021-10-02T12:30:04.572Z</time>
      </trkpt>
      <trkpt lat="45.54112" lon="5.44888">
        <ele>464</ele>
        <time>2021-10-02T12:30:03.573Z</time>
      </trkpt>
      <trkpt lat="45.54112" lon="5.44881">
        <ele>464</ele>
        <time>2021-10-02T12:30:02.572Z</time>
      </trkpt>
      <trkpt lat="45.54113" lon="5.44875">
        <ele>464</ele>
        <time>2021-10-02T12:30:01.573Z</time>
      </trkpt>
      <trkpt lat="45.54114" lon="5.44868">
        <ele>464</ele>
        <time>2021-10-02T12:30:00.573Z</time>
      </trkpt>
      <trkpt lat="45.54116" lon="5.44862">
        <ele>463</ele>
        <time>2021-10-02T12:29:59.573Z</time>
      </trkpt>
      <trkpt lat="45.54118" lon="5.44855">
        <ele>463</ele>
        <time>2021-10-02T12:29:58.573Z</time>
      </trkpt>
      <trkpt lat="45.54119" lon="5.44849">
        <ele>463</ele>
        <time>2021-10-02T12:29:57.573Z</time>
      </trkpt>
      <trkpt lat="45.54121" lon="5.44842">
        <ele>464</ele>
        <time>2021-10-02T12:29:56.572Z</time>
      </trkpt>
      <trkpt lat="45.54124" lon="5.44836">
        <ele>464</ele>
        <time>2021-10-02T12:29:55.572Z</time>
      </trkpt>
      <trkpt lat="45.54127" lon="5.44829">
        <ele>464</ele>
        <time>2021-10-02T12:29:54.573Z</time>
      </trkpt>
      <trkpt lat="45.54129" lon="5.44823">
        <ele>463</ele>
        <time>2021-10-02T12:29:53.573Z</time>
      </trkpt>
      <trkpt lat="45.54133" lon="5.44816">
        <ele>463</ele>
        <time>2021-10-02T12:29:52.572Z</time>
      </trkpt>
      <trkpt lat="45.54136" lon="5.4481">
        <ele>463</ele>
        <time>2021-10-02T12:29:51.572Z</time>
      </trkpt>
      <trkpt lat="45.5414" lon="5.44805">
        <ele>463</ele>
        <time>2021-10-02T12:29:50.573Z</time>
      </trkpt>
      <trkpt lat="45.54143" lon="5.448">
        <ele>464</ele>
        <time>2021-10-02T12:29:49.573Z</time>
      </trkpt>
      <trkpt lat="45.54148" lon="5.44795">
        <ele>464</ele>
        <time>2021-10-02T12:29:48.573Z</time>
      </trkpt>
      <trkpt lat="45.54152" lon="5.44791">
        <ele>464</ele>
        <time>2021-10-02T12:29:47.573Z</time>
      </trkpt>
      <trkpt lat="45.54156" lon="5.44787">
        <ele>464</ele>
        <time>2021-10-02T12:29:46.573Z</time>
      </trkpt>
      <trkpt lat="45.54161" lon="5.44784">
        <ele>465</ele>
        <time>2021-10-02T12:29:45.573Z</time>
      </trkpt>
      <trkpt lat="45.54166" lon="5.44781">
        <ele>465</ele>
        <time>2021-10-02T12:29:44.573Z</time>
      </trkpt>
      <trkpt lat="45.54171" lon="5.44779">
        <ele>466</ele>
        <time>2021-10-02T12:29:43.573Z</time>
      </trkpt>
      <trkpt lat="45.54175" lon="5.44776">
        <ele>466</ele>
        <time>2021-10-02T12:29:42.573Z</time>
      </trkpt>
      <trkpt lat="45.5418" lon="5.44774">
        <ele>466</ele>
        <time>2021-10-02T12:29:41.573Z</time>
      </trkpt>
      <trkpt lat="45.54185" lon="5.44772">
        <ele>465</ele>
        <time>2021-10-02T12:29:40.572Z</time>
      </trkpt>
      <trkpt lat="45.5419" lon="5.4477">
        <ele>465</ele>
        <time>2021-10-02T12:29:39.572Z</time>
      </trkpt>
      <trkpt lat="45.54195" lon="5.44768">
        <ele>465</ele>
        <time>2021-10-02T12:29:38.573Z</time>
      </trkpt>
      <trkpt lat="45.542" lon="5.44766">
        <ele>464</ele>
        <time>2021-10-02T12:29:37.573Z</time>
      </trkpt>
      <trkpt lat="45.54206" lon="5.44764">
        <ele>464</ele>
        <time>2021-10-02T12:29:36.572Z</time>
      </trkpt>
      <trkpt lat="45.54212" lon="5.44762">
        <ele>464</ele>
        <time>2021-10-02T12:29:35.572Z</time>
      </trkpt>
      <trkpt lat="45.54217" lon="5.4476">
        <ele>464</ele>
        <time>2021-10-02T12:29:34.572Z</time>
      </trkpt>
      <trkpt lat="45.54223" lon="5.44758">
        <ele>464</ele>
        <time>2021-10-02T12:29:33.572Z</time>
      </trkpt>
      <trkpt lat="45.54228" lon="5.44756">
        <ele>464</ele>
        <time>2021-10-02T12:29:32.573Z</time>
      </trkpt>
      <trkpt lat="45.54233" lon="5.44754">
        <ele>464</ele>
        <time>2021-10-02T12:29:31.572Z</time>
      </trkpt>
      <trkpt lat="45.54238" lon="5.44752">
        <ele>464</ele>
        <time>2021-10-02T12:29:30.572Z</time>
      </trkpt>
      <trkpt lat="45.54243" lon="5.4475">
        <ele>464</ele>
        <time>2021-10-02T12:29:29.572Z</time>
      </trkpt>
      <trkpt lat="45.54248" lon="5.44748">
        <ele>464</ele>
        <time>2021-10-02T12:29:28.572Z</time>
      </trkpt>
      <trkpt lat="45.54253" lon="5.44746">
        <ele>464</ele>
        <time>2021-10-02T12:29:27.572Z</time>
      </trkpt>
      <trkpt lat="45.54258" lon="5.44745">
        <ele>463</ele>
        <time>2021-10-02T12:29:26.572Z</time>
      </trkpt>
      <trkpt lat="45.54263" lon="5.44743">
        <ele>463</ele>
        <time>2021-10-02T12:29:25.572Z</time>
      </trkpt>
      <trkpt lat="45.54268" lon="5.44742">
        <ele>463</ele>
        <time>2021-10-02T12:29:24.572Z</time>
      </trkpt>
      <trkpt lat="45.54272" lon="5.4474">
        <ele>463</ele>
        <time>2021-10-02T12:29:23.572Z</time>
      </trkpt>
      <trkpt lat="45.54277" lon="5.44739">
        <ele>463</ele>
        <time>2021-10-02T12:29:22.572Z</time>
      </trkpt>
      <trkpt lat="45.54281" lon="5.44737">
        <ele>463</ele>
        <time>2021-10-02T12:29:21.572Z</time>
      </trkpt>
      <trkpt lat="45.54286" lon="5.44735">
        <ele>462</ele>
        <time>2021-10-02T12:29:20.572Z</time>
      </trkpt>
      <trkpt lat="45.54291" lon="5.44733">
        <ele>462</ele>
        <time>2021-10-02T12:29:19.572Z</time>
      </trkpt>
      <trkpt lat="45.54295" lon="5.44731">
        <ele>463</ele>
        <time>2021-10-02T12:29:18.572Z</time>
      </trkpt>
      <trkpt lat="45.543" lon="5.44729">
        <ele>463</ele>
        <time>2021-10-02T12:29:17.573Z</time>
      </trkpt>
      <trkpt lat="45.54305" lon="5.44728">
        <ele>463</ele>
        <time>2021-10-02T12:29:16.572Z</time>
      </trkpt>
      <trkpt lat="45.54309" lon="5.44726">
        <ele>463</ele>
        <time>2021-10-02T12:29:15.572Z</time>
      </trkpt>
      <trkpt lat="45.54313" lon="5.44725">
        <ele>464</ele>
        <time>2021-10-02T12:29:14.572Z</time>
      </trkpt>
      <trkpt lat="45.54318" lon="5.44724">
        <ele>464</ele>
        <time>2021-10-02T12:29:13.572Z</time>
      </trkpt>
      <trkpt lat="45.54322" lon="5.44722">
        <ele>464</ele>
        <time>2021-10-02T12:29:12.572Z</time>
      </trkpt>
      <trkpt lat="45.54326" lon="5.4472">
        <ele>464</ele>
        <time>2021-10-02T12:29:11.572Z</time>
      </trkpt>
      <trkpt lat="45.5433" lon="5.44719">
        <ele>464</ele>
        <time>2021-10-02T12:29:10.572Z</time>
      </trkpt>
      <trkpt lat="45.54335" lon="5.44717">
        <ele>464</ele>
        <time>2021-10-02T12:29:09.572Z</time>
      </trkpt>
      <trkpt lat="45.54338" lon="5.44716">
        <ele>464</ele>
        <time>2021-10-02T12:29:08.573Z</time>
      </trkpt>
      <trkpt lat="45.54342" lon="5.44714">
        <ele>464</ele>
        <time>2021-10-02T12:29:07.572Z</time>
      </trkpt>
      <trkpt lat="45.54347" lon="5.44712">
        <ele>464</ele>
        <time>2021-10-02T12:29:06.572Z</time>
      </trkpt>
      <trkpt lat="45.54351" lon="5.4471">
        <ele>464</ele>
        <time>2021-10-02T12:29:05.573Z</time>
      </trkpt>
      <trkpt lat="45.54355" lon="5.44708">
        <ele>463</ele>
        <time>2021-10-02T12:29:04.573Z</time>
      </trkpt>
      <trkpt lat="45.5436" lon="5.44706">
        <ele>463</ele>
        <time>2021-10-02T12:29:03.572Z</time>
      </trkpt>
      <trkpt lat="45.54364" lon="5.44704">
        <ele>463</ele>
        <time>2021-10-02T12:29:02.573Z</time>
      </trkpt>
      <trkpt lat="45.54369" lon="5.44702">
        <ele>463</ele>
        <time>2021-10-02T12:29:01.573Z</time>
      </trkpt>
      <trkpt lat="45.54373" lon="5.447">
        <ele>463</ele>
        <time>2021-10-02T12:29:00.572Z</time>
      </trkpt>
      <trkpt lat="45.54377" lon="5.44698">
        <ele>463</ele>
        <time>2021-10-02T12:28:59.572Z</time>
      </trkpt>
      <trkpt lat="45.54382" lon="5.44696">
        <ele>463</ele>
        <time>2021-10-02T12:28:58.572Z</time>
      </trkpt>
      <trkpt lat="45.54387" lon="5.44694">
        <ele>463</ele>
        <time>2021-10-02T12:28:57.573Z</time>
      </trkpt>
      <trkpt lat="45.54391" lon="5.44692">
        <ele>463</ele>
        <time>2021-10-02T12:28:56.573Z</time>
      </trkpt>
      <trkpt lat="45.54395" lon="5.4469">
        <ele>463</ele>
        <time>2021-10-02T12:28:55.573Z</time>
      </trkpt>
      <trkpt lat="45.54399" lon="5.44688">
        <ele>463</ele>
        <time>2021-10-02T12:28:54.573Z</time>
      </trkpt>
      <trkpt lat="45.54404" lon="5.44685">
        <ele>463</ele>
        <time>2021-10-02T12:28:53.572Z</time>
      </trkpt>
      <trkpt lat="45.54408" lon="5.44683">
        <ele>463</ele>
        <time>2021-10-02T12:28:52.573Z</time>
      </trkpt>
      <trkpt lat="45.54412" lon="5.44681">
        <ele>462</ele>
        <time>2021-10-02T12:28:51.573Z</time>
      </trkpt>
      <trkpt lat="45.54416" lon="5.44678">
        <ele>462</ele>
        <time>2021-10-02T12:28:50.572Z</time>
      </trkpt>
      <trkpt lat="45.54419" lon="5.44675">
        <ele>462</ele>
        <time>2021-10-02T12:28:49.572Z</time>
      </trkpt>
      <trkpt lat="45.54422" lon="5.44672">
        <ele>461</ele>
        <time>2021-10-02T12:28:48.572Z</time>
      </trkpt>
      <trkpt lat="45.54425" lon="5.44668">
        <ele>461</ele>
        <time>2021-10-02T12:28:47.573Z</time>
      </trkpt>
      <trkpt lat="45.54428" lon="5.44663">
        <ele>461</ele>
        <time>2021-10-02T12:28:46.572Z</time>
      </trkpt>
      <trkpt lat="45.54429" lon="5.44658">
        <ele>461</ele>
        <time>2021-10-02T12:28:45.573Z</time>
      </trkpt>
      <trkpt lat="45.5443" lon="5.44652">
        <ele>461</ele>
        <time>2021-10-02T12:28:44.572Z</time>
      </trkpt>
      <trkpt lat="45.54431" lon="5.44647">
        <ele>461</ele>
        <time>2021-10-02T12:28:43.573Z</time>
      </trkpt>
      <trkpt lat="45.54432" lon="5.44641">
        <ele>460</ele>
        <time>2021-10-02T12:28:42.572Z</time>
      </trkpt>
      <trkpt lat="45.54433" lon="5.44636">
        <ele>460</ele>
        <time>2021-10-02T12:28:41.572Z</time>
      </trkpt>
      <trkpt lat="45.54434" lon="5.4463">
        <ele>460</ele>
        <time>2021-10-02T12:28:40.572Z</time>
      </trkpt>
      <trkpt lat="45.54435" lon="5.44625">
        <ele>459</ele>
        <time>2021-10-02T12:28:39.572Z</time>
      </trkpt>
      <trkpt lat="45.54436" lon="5.4462">
        <ele>459</ele>
        <time>2021-10-02T12:28:38.572Z</time>
      </trkpt>
      <trkpt lat="45.54437" lon="5.44616">
        <ele>459</ele>
        <time>2021-10-02T12:28:37.573Z</time>
      </trkpt>
      <trkpt lat="45.54438" lon="5.44612">
        <ele>459</ele>
        <time>2021-10-02T12:28:36.573Z</time>
      </trkpt>
      <trkpt lat="45.54438" lon="5.44607">
        <ele>459</ele>
        <time>2021-10-02T12:28:35.573Z</time>
      </trkpt>
      <trkpt lat="45.54439" lon="5.44602">
        <ele>459</ele>
        <time>2021-10-02T12:28:34.572Z</time>
      </trkpt>
      <trkpt lat="45.5444" lon="5.44597">
        <ele>459</ele>
        <time>2021-10-02T12:28:33.573Z</time>
      </trkpt>
      <trkpt lat="45.5444" lon="5.44591">
        <ele>459</ele>
        <time>2021-10-02T12:28:32.573Z</time>
      </trkpt>
      <trkpt lat="45.54441" lon="5.44585">
        <ele>460</ele>
        <time>2021-10-02T12:28:31.572Z</time>
      </trkpt>
      <trkpt lat="45.54441" lon="5.4458">
        <ele>459</ele>
        <time>2021-10-02T12:28:30.573Z</time>
      </trkpt>
      <trkpt lat="45.54442" lon="5.44574">
        <ele>459</ele>
        <time>2021-10-02T12:28:29.572Z</time>
      </trkpt>
      <trkpt lat="45.54442" lon="5.44569">
        <ele>459</ele>
        <time>2021-10-02T12:28:28.573Z</time>
      </trkpt>
      <trkpt lat="45.54443" lon="5.44563">
        <ele>459</ele>
        <time>2021-10-02T12:28:27.573Z</time>
      </trkpt>
      <trkpt lat="45.54444" lon="5.44557">
        <ele>459</ele>
        <time>2021-10-02T12:28:26.572Z</time>
      </trkpt>
      <trkpt lat="45.54445" lon="5.44552">
        <ele>458</ele>
        <time>2021-10-02T12:28:25.572Z</time>
      </trkpt>
      <trkpt lat="45.54445" lon="5.44546">
        <ele>458</ele>
        <time>2021-10-02T12:28:24.572Z</time>
      </trkpt>
      <trkpt lat="45.54446" lon="5.4454">
        <ele>458</ele>
        <time>2021-10-02T12:28:23.573Z</time>
      </trkpt>
      <trkpt lat="45.54447" lon="5.44534">
        <ele>458</ele>
        <time>2021-10-02T12:28:22.573Z</time>
      </trkpt>
      <trkpt lat="45.54448" lon="5.44529">
        <ele>458</ele>
        <time>2021-10-02T12:28:21.573Z</time>
      </trkpt>
      <trkpt lat="45.54449" lon="5.44523">
        <ele>457</ele>
        <time>2021-10-02T12:28:20.573Z</time>
      </trkpt>
      <trkpt lat="45.54449" lon="5.44517">
        <ele>457</ele>
        <time>2021-10-02T12:28:19.573Z</time>
      </trkpt>
      <trkpt lat="45.5445" lon="5.44511">
        <ele>457</ele>
        <time>2021-10-02T12:28:18.573Z</time>
      </trkpt>
      <trkpt lat="45.54452" lon="5.44506">
        <ele>457</ele>
        <time>2021-10-02T12:28:17.573Z</time>
      </trkpt>
      <trkpt lat="45.54453" lon="5.445">
        <ele>457</ele>
        <time>2021-10-02T12:28:16.573Z</time>
      </trkpt>
      <trkpt lat="45.54454" lon="5.44495">
        <ele>457</ele>
        <time>2021-10-02T12:28:15.573Z</time>
      </trkpt>
      <trkpt lat="45.54456" lon="5.44489">
        <ele>457</ele>
        <time>2021-10-02T12:28:14.573Z</time>
      </trkpt>
      <trkpt lat="45.54457" lon="5.44484">
        <ele>456</ele>
        <time>2021-10-02T12:28:13.572Z</time>
      </trkpt>
      <trkpt lat="45.54458" lon="5.44479">
        <ele>456</ele>
        <time>2021-10-02T12:28:12.573Z</time>
      </trkpt>
      <trkpt lat="45.5446" lon="5.44474">
        <ele>456</ele>
        <time>2021-10-02T12:28:11.573Z</time>
      </trkpt>
      <trkpt lat="45.54462" lon="5.4447">
        <ele>456</ele>
        <time>2021-10-02T12:28:10.573Z</time>
      </trkpt>
      <trkpt lat="45.54465" lon="5.44466">
        <ele>456</ele>
        <time>2021-10-02T12:28:09.572Z</time>
      </trkpt>
      <trkpt lat="45.54468" lon="5.44462">
        <ele>456</ele>
        <time>2021-10-02T12:28:08.572Z</time>
      </trkpt>
      <trkpt lat="45.5447" lon="5.44459">
        <ele>455</ele>
        <time>2021-10-02T12:28:07.573Z</time>
      </trkpt>
      <trkpt lat="45.54473" lon="5.44455">
        <ele>455</ele>
        <time>2021-10-02T12:28:06.573Z</time>
      </trkpt>
      <trkpt lat="45.54476" lon="5.44452">
        <ele>455</ele>
        <time>2021-10-02T12:28:05.572Z</time>
      </trkpt>
      <trkpt lat="45.54479" lon="5.44449">
        <ele>455</ele>
        <time>2021-10-02T12:28:04.572Z</time>
      </trkpt>
      <trkpt lat="45.54482" lon="5.44446">
        <ele>454</ele>
        <time>2021-10-02T12:28:03.572Z</time>
      </trkpt>
      <trkpt lat="45.54485" lon="5.44443">
        <ele>454</ele>
        <time>2021-10-02T12:28:02.573Z</time>
      </trkpt>
      <trkpt lat="45.54488" lon="5.4444">
        <ele>454</ele>
        <time>2021-10-02T12:28:01.573Z</time>
      </trkpt>
      <trkpt lat="45.54492" lon="5.44436">
        <ele>453</ele>
        <time>2021-10-02T12:28:00.572Z</time>
      </trkpt>
      <trkpt lat="45.54495" lon="5.44433">
        <ele>453</ele>
        <time>2021-10-02T12:27:59.573Z</time>
      </trkpt>
      <trkpt lat="45.54499" lon="5.44429">
        <ele>452</ele>
        <time>2021-10-02T12:27:58.572Z</time>
      </trkpt>
      <trkpt lat="45.54502" lon="5.44426">
        <ele>452</ele>
        <time>2021-10-02T12:27:57.573Z</time>
      </trkpt>
      <trkpt lat="45.54505" lon="5.44422">
        <ele>451</ele>
        <time>2021-10-02T12:27:56.573Z</time>
      </trkpt>
      <trkpt lat="45.54509" lon="5.44419">
        <ele>451</ele>
        <time>2021-10-02T12:27:55.573Z</time>
      </trkpt>
      <trkpt lat="45.54512" lon="5.44415">
        <ele>451</ele>
        <time>2021-10-02T12:27:54.573Z</time>
      </trkpt>
      <trkpt lat="45.54515" lon="5.44411">
        <ele>451</ele>
        <time>2021-10-02T12:27:53.573Z</time>
      </trkpt>
      <trkpt lat="45.54519" lon="5.44406">
        <ele>450</ele>
        <time>2021-10-02T12:27:52.573Z</time>
      </trkpt>
      <trkpt lat="45.54522" lon="5.44401">
        <ele>450</ele>
        <time>2021-10-02T12:27:51.573Z</time>
      </trkpt>
      <trkpt lat="45.54524" lon="5.44396">
        <ele>449</ele>
        <time>2021-10-02T12:27:50.573Z</time>
      </trkpt>
      <trkpt lat="45.54527" lon="5.4439">
        <ele>449</ele>
        <time>2021-10-02T12:27:49.573Z</time>
      </trkpt>
      <trkpt lat="45.54529" lon="5.44384">
        <ele>449</ele>
        <time>2021-10-02T12:27:48.572Z</time>
      </trkpt>
      <trkpt lat="45.54531" lon="5.44378">
        <ele>449</ele>
        <time>2021-10-02T12:27:47.573Z</time>
      </trkpt>
      <trkpt lat="45.54533" lon="5.44372">
        <ele>448</ele>
        <time>2021-10-02T12:27:46.572Z</time>
      </trkpt>
      <trkpt lat="45.54535" lon="5.44366">
        <ele>448</ele>
        <time>2021-10-02T12:27:45.573Z</time>
      </trkpt>
      <trkpt lat="45.54536" lon="5.4436">
        <ele>448</ele>
        <time>2021-10-02T12:27:44.572Z</time>
      </trkpt>
      <trkpt lat="45.54538" lon="5.44354">
        <ele>447</ele>
        <time>2021-10-02T12:27:43.572Z</time>
      </trkpt>
      <trkpt lat="45.54539" lon="5.44347">
        <ele>447</ele>
        <time>2021-10-02T12:27:42.573Z</time>
      </trkpt>
      <trkpt lat="45.54541" lon="5.44341">
        <ele>447</ele>
        <time>2021-10-02T12:27:41.572Z</time>
      </trkpt>
      <trkpt lat="45.54543" lon="5.44335">
        <ele>447</ele>
        <time>2021-10-02T12:27:40.572Z</time>
      </trkpt>
      <trkpt lat="45.54545" lon="5.44329">
        <ele>447</ele>
        <time>2021-10-02T12:27:39.573Z</time>
      </trkpt>
      <trkpt lat="45.54548" lon="5.44323">
        <ele>447</ele>
        <time>2021-10-02T12:27:38.573Z</time>
      </trkpt>
      <trkpt lat="45.5455" lon="5.44316">
        <ele>447</ele>
        <time>2021-10-02T12:27:37.573Z</time>
      </trkpt>
      <trkpt lat="45.54552" lon="5.4431">
        <ele>447</ele>
        <time>2021-10-02T12:27:36.572Z</time>
      </trkpt>
      <trkpt lat="45.54554" lon="5.44304">
        <ele>447</ele>
        <time>2021-10-02T12:27:35.572Z</time>
      </trkpt>
      <trkpt lat="45.54556" lon="5.44298">
        <ele>446</ele>
        <time>2021-10-02T12:27:34.573Z</time>
      </trkpt>
      <trkpt lat="45.54558" lon="5.44292">
        <ele>446</ele>
        <time>2021-10-02T12:27:33.572Z</time>
      </trkpt>
      <trkpt lat="45.5456" lon="5.44286">
        <ele>446</ele>
        <time>2021-10-02T12:27:32.573Z</time>
      </trkpt>
      <trkpt lat="45.54562" lon="5.44279">
        <ele>446</ele>
        <time>2021-10-02T12:27:31.573Z</time>
      </trkpt>
      <trkpt lat="45.54565" lon="5.44273">
        <ele>446</ele>
        <time>2021-10-02T12:27:30.573Z</time>
      </trkpt>
      <trkpt lat="45.54567" lon="5.44266">
        <ele>446</ele>
        <time>2021-10-02T12:27:29.573Z</time>
      </trkpt>
      <trkpt lat="45.54569" lon="5.4426">
        <ele>446</ele>
        <time>2021-10-02T12:27:28.573Z</time>
      </trkpt>
      <trkpt lat="45.54571" lon="5.44254">
        <ele>446</ele>
        <time>2021-10-02T12:27:27.573Z</time>
      </trkpt>
      <trkpt lat="45.54573" lon="5.44247">
        <ele>446</ele>
        <time>2021-10-02T12:27:26.573Z</time>
      </trkpt>
      <trkpt lat="45.54575" lon="5.44241">
        <ele>446</ele>
        <time>2021-10-02T12:27:25.572Z</time>
      </trkpt>
      <trkpt lat="45.54578" lon="5.44234">
        <ele>446</ele>
        <time>2021-10-02T12:27:24.573Z</time>
      </trkpt>
      <trkpt lat="45.54579" lon="5.44228">
        <ele>446</ele>
        <time>2021-10-02T12:27:23.573Z</time>
      </trkpt>
      <trkpt lat="45.54581" lon="5.44221">
        <ele>446</ele>
        <time>2021-10-02T12:27:22.573Z</time>
      </trkpt>
      <trkpt lat="45.54583" lon="5.44215">
        <ele>446</ele>
        <time>2021-10-02T12:27:21.573Z</time>
      </trkpt>
      <trkpt lat="45.54585" lon="5.44209">
        <ele>445</ele>
        <time>2021-10-02T12:27:20.573Z</time>
      </trkpt>
      <trkpt lat="45.54586" lon="5.44202">
        <ele>445</ele>
        <time>2021-10-02T12:27:19.572Z</time>
      </trkpt>
      <trkpt lat="45.54588" lon="5.44196">
        <ele>445</ele>
        <time>2021-10-02T12:27:18.573Z</time>
      </trkpt>
      <trkpt lat="45.54589" lon="5.4419">
        <ele>445</ele>
        <time>2021-10-02T12:27:17.573Z</time>
      </trkpt>
      <trkpt lat="45.54591" lon="5.44183">
        <ele>445</ele>
        <time>2021-10-02T12:27:16.573Z</time>
      </trkpt>
      <trkpt lat="45.54593" lon="5.44177">
        <ele>445</ele>
        <time>2021-10-02T12:27:15.572Z</time>
      </trkpt>
      <trkpt lat="45.54596" lon="5.44171">
        <ele>445</ele>
        <time>2021-10-02T12:27:14.573Z</time>
      </trkpt>
      <trkpt lat="45.54598" lon="5.44165">
        <ele>444</ele>
        <time>2021-10-02T12:27:13.572Z</time>
      </trkpt>
      <trkpt lat="45.546" lon="5.44159">
        <ele>444</ele>
        <time>2021-10-02T12:27:12.573Z</time>
      </trkpt>
      <trkpt lat="45.54602" lon="5.44153">
        <ele>444</ele>
        <time>2021-10-02T12:27:11.572Z</time>
      </trkpt>
      <trkpt lat="45.54604" lon="5.44148">
        <ele>444</ele>
        <time>2021-10-02T12:27:10.573Z</time>
      </trkpt>
      <trkpt lat="45.54606" lon="5.44142">
        <ele>444</ele>
        <time>2021-10-02T12:27:09.572Z</time>
      </trkpt>
      <trkpt lat="45.54607" lon="5.44136">
        <ele>444</ele>
        <time>2021-10-02T12:27:08.573Z</time>
      </trkpt>
      <trkpt lat="45.54609" lon="5.4413">
        <ele>444</ele>
        <time>2021-10-02T12:27:07.572Z</time>
      </trkpt>
      <trkpt lat="45.54611" lon="5.44125">
        <ele>444</ele>
        <time>2021-10-02T12:27:06.572Z</time>
      </trkpt>
      <trkpt lat="45.54612" lon="5.44119">
        <ele>444</ele>
        <time>2021-10-02T12:27:05.573Z</time>
      </trkpt>
      <trkpt lat="45.54614" lon="5.44113">
        <ele>444</ele>
        <time>2021-10-02T12:27:04.572Z</time>
      </trkpt>
      <trkpt lat="45.54615" lon="5.44108">
        <ele>444</ele>
        <time>2021-10-02T12:27:03.573Z</time>
      </trkpt>
      <trkpt lat="45.54617" lon="5.44102">
        <ele>444</ele>
        <time>2021-10-02T12:27:02.573Z</time>
      </trkpt>
      <trkpt lat="45.54618" lon="5.44097">
        <ele>445</ele>
        <time>2021-10-02T12:27:01.572Z</time>
      </trkpt>
      <trkpt lat="45.54619" lon="5.44091">
        <ele>445</ele>
        <time>2021-10-02T12:27:00.573Z</time>
      </trkpt>
      <trkpt lat="45.54621" lon="5.44085">
        <ele>445</ele>
        <time>2021-10-02T12:26:59.573Z</time>
      </trkpt>
      <trkpt lat="45.54622" lon="5.4408">
        <ele>445</ele>
        <time>2021-10-02T12:26:58.572Z</time>
      </trkpt>
      <trkpt lat="45.54623" lon="5.44074">
        <ele>445</ele>
        <time>2021-10-02T12:26:57.573Z</time>
      </trkpt>
      <trkpt lat="45.54625" lon="5.44069">
        <ele>444</ele>
        <time>2021-10-02T12:26:56.573Z</time>
      </trkpt>
      <trkpt lat="45.54627" lon="5.44064">
        <ele>444</ele>
        <time>2021-10-02T12:26:55.572Z</time>
      </trkpt>
      <trkpt lat="45.54628" lon="5.44059">
        <ele>444</ele>
        <time>2021-10-02T12:26:54.572Z</time>
      </trkpt>
      <trkpt lat="45.5463" lon="5.44053">
        <ele>444</ele>
        <time>2021-10-02T12:26:53.573Z</time>
      </trkpt>
      <trkpt lat="45.54632" lon="5.44048">
        <ele>444</ele>
        <time>2021-10-02T12:26:52.573Z</time>
      </trkpt>
      <trkpt lat="45.54633" lon="5.44042">
        <ele>444</ele>
        <time>2021-10-02T12:26:51.573Z</time>
      </trkpt>
      <trkpt lat="45.54635" lon="5.44036">
        <ele>445</ele>
        <time>2021-10-02T12:26:50.572Z</time>
      </trkpt>
      <trkpt lat="45.54637" lon="5.44031">
        <ele>445</ele>
        <time>2021-10-02T12:26:49.572Z</time>
      </trkpt>
      <trkpt lat="45.54638" lon="5.44025">
        <ele>445</ele>
        <time>2021-10-02T12:26:48.573Z</time>
      </trkpt>
      <trkpt lat="45.5464" lon="5.4402">
        <ele>444</ele>
        <time>2021-10-02T12:26:47.572Z</time>
      </trkpt>
      <trkpt lat="45.54641" lon="5.44014">
        <ele>444</ele>
        <time>2021-10-02T12:26:46.572Z</time>
      </trkpt>
      <trkpt lat="45.54642" lon="5.44009">
        <ele>444</ele>
        <time>2021-10-02T12:26:45.572Z</time>
      </trkpt>
      <trkpt lat="45.54644" lon="5.44003">
        <ele>444</ele>
        <time>2021-10-02T12:26:44.573Z</time>
      </trkpt>
      <trkpt lat="45.54645" lon="5.43998">
        <ele>443</ele>
        <time>2021-10-02T12:26:43.573Z</time>
      </trkpt>
      <trkpt lat="45.54647" lon="5.43993">
        <ele>443</ele>
        <time>2021-10-02T12:26:42.573Z</time>
      </trkpt>
      <trkpt lat="45.54648" lon="5.43987">
        <ele>443</ele>
        <time>2021-10-02T12:26:41.573Z</time>
      </trkpt>
      <trkpt lat="45.5465" lon="5.43982">
        <ele>442</ele>
        <time>2021-10-02T12:26:40.573Z</time>
      </trkpt>
      <trkpt lat="45.54651" lon="5.43977">
        <ele>442</ele>
        <time>2021-10-02T12:26:39.573Z</time>
      </trkpt>
      <trkpt lat="45.54652" lon="5.43972">
        <ele>442</ele>
        <time>2021-10-02T12:26:38.573Z</time>
      </trkpt>
      <trkpt lat="45.54653" lon="5.43967">
        <ele>442</ele>
        <time>2021-10-02T12:26:37.573Z</time>
      </trkpt>
      <trkpt lat="45.54654" lon="5.43961">
        <ele>442</ele>
        <time>2021-10-02T12:26:36.573Z</time>
      </trkpt>
      <trkpt lat="45.54656" lon="5.43956">
        <ele>442</ele>
        <time>2021-10-02T12:26:35.572Z</time>
      </trkpt>
      <trkpt lat="45.54657" lon="5.43951">
        <ele>442</ele>
        <time>2021-10-02T12:26:34.572Z</time>
      </trkpt>
      <trkpt lat="45.54658" lon="5.43945">
        <ele>442</ele>
        <time>2021-10-02T12:26:33.573Z</time>
      </trkpt>
      <trkpt lat="45.54659" lon="5.4394">
        <ele>442</ele>
        <time>2021-10-02T12:26:32.573Z</time>
      </trkpt>
      <trkpt lat="45.54661" lon="5.43934">
        <ele>443</ele>
        <time>2021-10-02T12:26:31.572Z</time>
      </trkpt>
      <trkpt lat="45.54662" lon="5.43929">
        <ele>442</ele>
        <time>2021-10-02T12:26:30.572Z</time>
      </trkpt>
      <trkpt lat="45.54663" lon="5.43924">
        <ele>442</ele>
        <time>2021-10-02T12:26:29.573Z</time>
      </trkpt>
      <trkpt lat="45.54664" lon="5.43918">
        <ele>442</ele>
        <time>2021-10-02T12:26:28.573Z</time>
      </trkpt>
      <trkpt lat="45.54666" lon="5.43912">
        <ele>443</ele>
        <time>2021-10-02T12:26:27.572Z</time>
      </trkpt>
      <trkpt lat="45.54667" lon="5.43907">
        <ele>443</ele>
        <time>2021-10-02T12:26:26.572Z</time>
      </trkpt>
      <trkpt lat="45.54668" lon="5.43901">
        <ele>443</ele>
        <time>2021-10-02T12:26:25.572Z</time>
      </trkpt>
      <trkpt lat="45.54669" lon="5.43896">
        <ele>443</ele>
        <time>2021-10-02T12:26:24.573Z</time>
      </trkpt>
      <trkpt lat="45.5467" lon="5.4389">
        <ele>443</ele>
        <time>2021-10-02T12:26:23.573Z</time>
      </trkpt>
      <trkpt lat="45.54672" lon="5.43885">
        <ele>443</ele>
        <time>2021-10-02T12:26:22.573Z</time>
      </trkpt>
      <trkpt lat="45.54673" lon="5.43879">
        <ele>443</ele>
        <time>2021-10-02T12:26:21.573Z</time>
      </trkpt>
      <trkpt lat="45.54674" lon="5.43874">
        <ele>443</ele>
        <time>2021-10-02T12:26:20.572Z</time>
      </trkpt>
      <trkpt lat="45.54675" lon="5.43869">
        <ele>442</ele>
        <time>2021-10-02T12:26:19.572Z</time>
      </trkpt>
      <trkpt lat="45.54676" lon="5.43864">
        <ele>442</ele>
        <time>2021-10-02T12:26:18.572Z</time>
      </trkpt>
      <trkpt lat="45.54677" lon="5.43859">
        <ele>442</ele>
        <time>2021-10-02T12:26:17.573Z</time>
      </trkpt>
      <trkpt lat="45.54679" lon="5.43854">
        <ele>442</ele>
        <time>2021-10-02T12:26:16.573Z</time>
      </trkpt>
      <trkpt lat="45.5468" lon="5.43849">
        <ele>442</ele>
        <time>2021-10-02T12:26:15.572Z</time>
      </trkpt>
      <trkpt lat="45.54682" lon="5.43844">
        <ele>442</ele>
        <time>2021-10-02T12:26:14.573Z</time>
      </trkpt>
      <trkpt lat="45.54685" lon="5.43838">
        <ele>441</ele>
        <time>2021-10-02T12:26:13.573Z</time>
      </trkpt>
      <trkpt lat="45.54687" lon="5.43833">
        <ele>441</ele>
        <time>2021-10-02T12:26:12.573Z</time>
      </trkpt>
      <trkpt lat="45.54689" lon="5.43829">
        <ele>441</ele>
        <time>2021-10-02T12:26:11.573Z</time>
      </trkpt>
      <trkpt lat="45.5469" lon="5.43825">
        <ele>441</ele>
        <time>2021-10-02T12:26:10.573Z</time>
      </trkpt>
      <trkpt lat="45.54692" lon="5.4382">
        <ele>441</ele>
        <time>2021-10-02T12:26:09.573Z</time>
      </trkpt>
      <trkpt lat="45.54694" lon="5.43816">
        <ele>441</ele>
        <time>2021-10-02T12:26:08.573Z</time>
      </trkpt>
      <trkpt lat="45.54697" lon="5.43811">
        <ele>441</ele>
        <time>2021-10-02T12:26:07.572Z</time>
      </trkpt>
      <trkpt lat="45.54699" lon="5.43807">
        <ele>440</ele>
        <time>2021-10-02T12:26:06.572Z</time>
      </trkpt>
      <trkpt lat="45.54702" lon="5.43802">
        <ele>440</ele>
        <time>2021-10-02T12:26:05.572Z</time>
      </trkpt>
      <trkpt lat="45.54704" lon="5.43798">
        <ele>440</ele>
        <time>2021-10-02T12:26:04.573Z</time>
      </trkpt>
      <trkpt lat="45.54706" lon="5.43793">
        <ele>439</ele>
        <time>2021-10-02T12:26:03.573Z</time>
      </trkpt>
      <trkpt lat="45.54708" lon="5.43788">
        <ele>439</ele>
        <time>2021-10-02T12:26:02.573Z</time>
      </trkpt>
      <trkpt lat="45.5471" lon="5.43783">
        <ele>439</ele>
        <time>2021-10-02T12:26:01.573Z</time>
      </trkpt>
      <trkpt lat="45.54713" lon="5.43778">
        <ele>439</ele>
        <time>2021-10-02T12:26:00.572Z</time>
      </trkpt>
      <trkpt lat="45.54715" lon="5.43773">
        <ele>439</ele>
        <time>2021-10-02T12:25:59.573Z</time>
      </trkpt>
      <trkpt lat="45.54717" lon="5.43768">
        <ele>439</ele>
        <time>2021-10-02T12:25:58.573Z</time>
      </trkpt>
      <trkpt lat="45.54719" lon="5.43763">
        <ele>438</ele>
        <time>2021-10-02T12:25:57.573Z</time>
      </trkpt>
      <trkpt lat="45.54721" lon="5.43758">
        <ele>438</ele>
        <time>2021-10-02T12:25:56.573Z</time>
      </trkpt>
      <trkpt lat="45.54723" lon="5.43753">
        <ele>438</ele>
        <time>2021-10-02T12:25:55.573Z</time>
      </trkpt>
      <trkpt lat="45.54725" lon="5.43747">
        <ele>438</ele>
        <time>2021-10-02T12:25:54.572Z</time>
      </trkpt>
      <trkpt lat="45.54726" lon="5.43742">
        <ele>438</ele>
        <time>2021-10-02T12:25:53.573Z</time>
      </trkpt>
      <trkpt lat="45.54728" lon="5.43736">
        <ele>438</ele>
        <time>2021-10-02T12:25:52.573Z</time>
      </trkpt>
      <trkpt lat="45.54729" lon="5.4373">
        <ele>437</ele>
        <time>2021-10-02T12:25:51.573Z</time>
      </trkpt>
      <trkpt lat="45.5473" lon="5.43724">
        <ele>437</ele>
        <time>2021-10-02T12:25:50.573Z</time>
      </trkpt>
      <trkpt lat="45.54731" lon="5.43718">
        <ele>437</ele>
        <time>2021-10-02T12:25:49.572Z</time>
      </trkpt>
      <trkpt lat="45.54732" lon="5.43713">
        <ele>437</ele>
        <time>2021-10-02T12:25:48.573Z</time>
      </trkpt>
      <trkpt lat="45.54733" lon="5.43707">
        <ele>437</ele>
        <time>2021-10-02T12:25:47.573Z</time>
      </trkpt>
      <trkpt lat="45.54734" lon="5.43702">
        <ele>437</ele>
        <time>2021-10-02T12:25:46.572Z</time>
      </trkpt>
      <trkpt lat="45.54735" lon="5.43696">
        <ele>437</ele>
        <time>2021-10-02T12:25:45.573Z</time>
      </trkpt>
      <trkpt lat="45.54736" lon="5.43691">
        <ele>437</ele>
        <time>2021-10-02T12:25:44.572Z</time>
      </trkpt>
      <trkpt lat="45.54738" lon="5.43685">
        <ele>437</ele>
        <time>2021-10-02T12:25:43.572Z</time>
      </trkpt>
      <trkpt lat="45.54739" lon="5.43679">
        <ele>437</ele>
        <time>2021-10-02T12:25:42.572Z</time>
      </trkpt>
      <trkpt lat="45.5474" lon="5.43674">
        <ele>436</ele>
        <time>2021-10-02T12:25:41.573Z</time>
      </trkpt>
      <trkpt lat="45.54742" lon="5.43669">
        <ele>436</ele>
        <time>2021-10-02T12:25:40.572Z</time>
      </trkpt>
      <trkpt lat="45.54743" lon="5.43664">
        <ele>436</ele>
        <time>2021-10-02T12:25:39.572Z</time>
      </trkpt>
      <trkpt lat="45.54744" lon="5.43659">
        <ele>436</ele>
        <time>2021-10-02T12:25:38.573Z</time>
      </trkpt>
      <trkpt lat="45.54746" lon="5.43653">
        <ele>435</ele>
        <time>2021-10-02T12:25:37.573Z</time>
      </trkpt>
      <trkpt lat="45.54747" lon="5.43648">
        <ele>435</ele>
        <time>2021-10-02T12:25:36.572Z</time>
      </trkpt>
      <trkpt lat="45.54749" lon="5.43643">
        <ele>435</ele>
        <time>2021-10-02T12:25:35.573Z</time>
      </trkpt>
      <trkpt lat="45.5475" lon="5.43638">
        <ele>435</ele>
        <time>2021-10-02T12:25:34.572Z</time>
      </trkpt>
      <trkpt lat="45.54752" lon="5.43633">
        <ele>435</ele>
        <time>2021-10-02T12:25:33.573Z</time>
      </trkpt>
      <trkpt lat="45.54753" lon="5.43628">
        <ele>435</ele>
        <time>2021-10-02T12:25:32.573Z</time>
      </trkpt>
      <trkpt lat="45.54755" lon="5.43623">
        <ele>435</ele>
        <time>2021-10-02T12:25:31.572Z</time>
      </trkpt>
      <trkpt lat="45.54756" lon="5.43618">
        <ele>435</ele>
        <time>2021-10-02T12:25:30.573Z</time>
      </trkpt>
      <trkpt lat="45.54758" lon="5.43613">
        <ele>435</ele>
        <time>2021-10-02T12:25:29.572Z</time>
      </trkpt>
      <trkpt lat="45.5476" lon="5.43609">
        <ele>435</ele>
        <time>2021-10-02T12:25:28.573Z</time>
      </trkpt>
      <trkpt lat="45.54762" lon="5.43604">
        <ele>435</ele>
        <time>2021-10-02T12:25:27.573Z</time>
      </trkpt>
      <trkpt lat="45.54764" lon="5.436">
        <ele>435</ele>
        <time>2021-10-02T12:25:26.572Z</time>
      </trkpt>
      <trkpt lat="45.54767" lon="5.43595">
        <ele>434</ele>
        <time>2021-10-02T12:25:25.573Z</time>
      </trkpt>
      <trkpt lat="45.54769" lon="5.43591">
        <ele>434</ele>
        <time>2021-10-02T12:25:24.573Z</time>
      </trkpt>
      <trkpt lat="45.54771" lon="5.43587">
        <ele>434</ele>
        <time>2021-10-02T12:25:23.573Z</time>
      </trkpt>
      <trkpt lat="45.54773" lon="5.43582">
        <ele>434</ele>
        <time>2021-10-02T12:25:22.572Z</time>
      </trkpt>
      <trkpt lat="45.54775" lon="5.43578">
        <ele>434</ele>
        <time>2021-10-02T12:25:21.573Z</time>
      </trkpt>
      <trkpt lat="45.54778" lon="5.43573">
        <ele>433</ele>
        <time>2021-10-02T12:25:20.573Z</time>
      </trkpt>
      <trkpt lat="45.5478" lon="5.43569">
        <ele>433</ele>
        <time>2021-10-02T12:25:19.573Z</time>
      </trkpt>
      <trkpt lat="45.54782" lon="5.43564">
        <ele>433</ele>
        <time>2021-10-02T12:25:18.573Z</time>
      </trkpt>
      <trkpt lat="45.54785" lon="5.4356">
        <ele>433</ele>
        <time>2021-10-02T12:25:17.573Z</time>
      </trkpt>
      <trkpt lat="45.54787" lon="5.43554">
        <ele>433</ele>
        <time>2021-10-02T12:25:16.572Z</time>
      </trkpt>
      <trkpt lat="45.5479" lon="5.43549">
        <ele>433</ele>
        <time>2021-10-02T12:25:15.573Z</time>
      </trkpt>
      <trkpt lat="45.54793" lon="5.43544">
        <ele>434</ele>
        <time>2021-10-02T12:25:14.573Z</time>
      </trkpt>
      <trkpt lat="45.54796" lon="5.43539">
        <ele>434</ele>
        <time>2021-10-02T12:25:13.573Z</time>
      </trkpt>
      <trkpt lat="45.54799" lon="5.43534">
        <ele>434</ele>
        <time>2021-10-02T12:25:12.573Z</time>
      </trkpt>
      <trkpt lat="45.54801" lon="5.43528">
        <ele>434</ele>
        <time>2021-10-02T12:25:11.573Z</time>
      </trkpt>
      <trkpt lat="45.54803" lon="5.43523">
        <ele>435</ele>
        <time>2021-10-02T12:25:10.573Z</time>
      </trkpt>
      <trkpt lat="45.54805" lon="5.43518">
        <ele>435</ele>
        <time>2021-10-02T12:25:09.572Z</time>
      </trkpt>
      <trkpt lat="45.54807" lon="5.43513">
        <ele>436</ele>
        <time>2021-10-02T12:25:08.573Z</time>
      </trkpt>
      <trkpt lat="45.54808" lon="5.4351">
        <ele>436</ele>
        <time>2021-10-02T12:25:07.573Z</time>
      </trkpt>
      <trkpt lat="45.54809" lon="5.43509">
        <ele>437</ele>
        <time>2021-10-02T12:25:06.572Z</time>
      </trkpt>
      <trkpt lat="45.5481" lon="5.4351">
        <ele>437</ele>
        <time>2021-10-02T12:25:05.573Z</time>
      </trkpt>
      <trkpt lat="45.5481" lon="5.43514">
        <ele>437</ele>
        <time>2021-10-02T12:25:04.573Z</time>
      </trkpt>
      <trkpt lat="45.54809" lon="5.43519">
        <ele>437</ele>
        <time>2021-10-02T12:25:03.573Z</time>
      </trkpt>
      <trkpt lat="45.54808" lon="5.43524">
        <ele>436</ele>
        <time>2021-10-02T12:25:02.573Z</time>
      </trkpt>
      <trkpt lat="45.54805" lon="5.4353">
        <ele>436</ele>
        <time>2021-10-02T12:25:01.573Z</time>
      </trkpt>
      <trkpt lat="45.54803" lon="5.43537">
        <ele>436</ele>
        <time>2021-10-02T12:25:00.573Z</time>
      </trkpt>
      <trkpt lat="45.548" lon="5.43543">
        <ele>436</ele>
        <time>2021-10-02T12:24:59.573Z</time>
      </trkpt>
      <trkpt lat="45.54797" lon="5.43549">
        <ele>436</ele>
        <time>2021-10-02T12:24:58.573Z</time>
      </trkpt>
      <trkpt lat="45.54793" lon="5.43555">
        <ele>436</ele>
        <time>2021-10-02T12:24:57.573Z</time>
      </trkpt>
      <trkpt lat="45.5479" lon="5.43562">
        <ele>435</ele>
        <time>2021-10-02T12:24:56.572Z</time>
      </trkpt>
      <trkpt lat="45.54787" lon="5.43568">
        <ele>435</ele>
        <time>2021-10-02T12:24:55.572Z</time>
      </trkpt>
      <trkpt lat="45.54783" lon="5.43574">
        <ele>435</ele>
        <time>2021-10-02T12:24:54.573Z</time>
      </trkpt>
      <trkpt lat="45.5478" lon="5.4358">
        <ele>435</ele>
        <time>2021-10-02T12:24:53.572Z</time>
      </trkpt>
      <trkpt lat="45.54777" lon="5.43586">
        <ele>435</ele>
        <time>2021-10-02T12:24:52.572Z</time>
      </trkpt>
      <trkpt lat="45.54773" lon="5.43593">
        <ele>435</ele>
        <time>2021-10-02T12:24:51.573Z</time>
      </trkpt>
      <trkpt lat="45.5477" lon="5.436">
        <ele>436</ele>
        <time>2021-10-02T12:24:50.573Z</time>
      </trkpt>
      <trkpt lat="45.54767" lon="5.43606">
        <ele>436</ele>
        <time>2021-10-02T12:24:49.573Z</time>
      </trkpt>
      <trkpt lat="45.54765" lon="5.43611">
        <ele>436</ele>
        <time>2021-10-02T12:24:48.573Z</time>
      </trkpt>
      <trkpt lat="45.54762" lon="5.43617">
        <ele>437</ele>
        <time>2021-10-02T12:24:47.573Z</time>
      </trkpt>
      <trkpt lat="45.5476" lon="5.43622">
        <ele>437</ele>
        <time>2021-10-02T12:24:46.572Z</time>
      </trkpt>
      <trkpt lat="45.54758" lon="5.43627">
        <ele>437</ele>
        <time>2021-10-02T12:24:45.573Z</time>
      </trkpt>
      <trkpt lat="45.54756" lon="5.43631">
        <ele>437</ele>
        <time>2021-10-02T12:24:44.573Z</time>
      </trkpt>
      <trkpt lat="45.54754" lon="5.43636">
        <ele>437</ele>
        <time>2021-10-02T12:24:43.572Z</time>
      </trkpt>
      <trkpt lat="45.54753" lon="5.4364">
        <ele>438</ele>
        <time>2021-10-02T12:24:42.573Z</time>
      </trkpt>
      <trkpt lat="45.54751" lon="5.43644">
        <ele>438</ele>
        <time>2021-10-02T12:24:41.573Z</time>
      </trkpt>
      <trkpt lat="45.5475" lon="5.43646">
        <ele>438</ele>
        <time>2021-10-02T12:24:40.573Z</time>
      </trkpt>
      <trkpt lat="45.54749" lon="5.43646">
        <ele>438</ele>
        <time>2021-10-02T12:24:39.573Z</time>
      </trkpt>
      <trkpt lat="45.54748" lon="5.43644">
        <ele>438</ele>
        <time>2021-10-02T12:24:38.573Z</time>
      </trkpt>
      <trkpt lat="45.54748" lon="5.43641">
        <ele>438</ele>
        <time>2021-10-02T12:24:37.572Z</time>
      </trkpt>
      <trkpt lat="45.5475" lon="5.43637">
        <ele>438</ele>
        <time>2021-10-02T12:24:36.573Z</time>
      </trkpt>
      <trkpt lat="45.54751" lon="5.43633">
        <ele>437</ele>
        <time>2021-10-02T12:24:35.573Z</time>
      </trkpt>
      <trkpt lat="45.54753" lon="5.43628">
        <ele>437</ele>
        <time>2021-10-02T12:24:34.573Z</time>
      </trkpt>
      <trkpt lat="45.54755" lon="5.43624">
        <ele>437</ele>
        <time>2021-10-02T12:24:33.573Z</time>
      </trkpt>
      <trkpt lat="45.54757" lon="5.43619">
        <ele>437</ele>
        <time>2021-10-02T12:24:32.572Z</time>
      </trkpt>
      <trkpt lat="45.54759" lon="5.43615">
        <ele>436</ele>
        <time>2021-10-02T12:24:31.573Z</time>
      </trkpt>
      <trkpt lat="45.5476" lon="5.4361">
        <ele>436</ele>
        <time>2021-10-02T12:24:30.572Z</time>
      </trkpt>
      <trkpt lat="45.54763" lon="5.43606">
        <ele>436</ele>
        <time>2021-10-02T12:24:29.572Z</time>
      </trkpt>
      <trkpt lat="45.54765" lon="5.43601">
        <ele>435</ele>
        <time>2021-10-02T12:24:28.573Z</time>
      </trkpt>
      <trkpt lat="45.54767" lon="5.43597">
        <ele>435</ele>
        <time>2021-10-02T12:24:27.572Z</time>
      </trkpt>
      <trkpt lat="45.54769" lon="5.43593">
        <ele>435</ele>
        <time>2021-10-02T12:24:26.573Z</time>
      </trkpt>
      <trkpt lat="45.54771" lon="5.43588">
        <ele>434</ele>
        <time>2021-10-02T12:24:25.572Z</time>
      </trkpt>
      <trkpt lat="45.54773" lon="5.43584">
        <ele>434</ele>
        <time>2021-10-02T12:24:24.573Z</time>
      </trkpt>
      <trkpt lat="45.54775" lon="5.4358">
        <ele>434</ele>
        <time>2021-10-02T12:24:23.573Z</time>
      </trkpt>
      <trkpt lat="45.54778" lon="5.43575">
        <ele>434</ele>
        <time>2021-10-02T12:24:22.572Z</time>
      </trkpt>
      <trkpt lat="45.5478" lon="5.43571">
        <ele>434</ele>
        <time>2021-10-02T12:24:21.572Z</time>
      </trkpt>
      <trkpt lat="45.54782" lon="5.43567">
        <ele>434</ele>
        <time>2021-10-02T12:24:20.572Z</time>
      </trkpt>
      <trkpt lat="45.54784" lon="5.43564">
        <ele>435</ele>
        <time>2021-10-02T12:24:19.573Z</time>
      </trkpt>
      <trkpt lat="45.54786" lon="5.4356">
        <ele>435</ele>
        <time>2021-10-02T12:24:18.573Z</time>
      </trkpt>
      <trkpt lat="45.54788" lon="5.43556">
        <ele>435</ele>
        <time>2021-10-02T12:24:17.572Z</time>
      </trkpt>
      <trkpt lat="45.5479" lon="5.43552">
        <ele>436</ele>
        <time>2021-10-02T12:24:16.573Z</time>
      </trkpt>
      <trkpt lat="45.54792" lon="5.43548">
        <ele>436</ele>
        <time>2021-10-02T12:24:15.573Z</time>
      </trkpt>
      <trkpt lat="45.54794" lon="5.43544">
        <ele>436</ele>
        <time>2021-10-02T12:24:14.573Z</time>
      </trkpt>
      <trkpt lat="45.54796" lon="5.43539">
        <ele>436</ele>
        <time>2021-10-02T12:24:13.573Z</time>
      </trkpt>
      <trkpt lat="45.54798" lon="5.43535">
        <ele>436</ele>
        <time>2021-10-02T12:24:12.572Z</time>
      </trkpt>
      <trkpt lat="45.548" lon="5.4353">
        <ele>435</ele>
        <time>2021-10-02T12:24:11.573Z</time>
      </trkpt>
      <trkpt lat="45.54802" lon="5.43525">
        <ele>435</ele>
        <time>2021-10-02T12:24:10.572Z</time>
      </trkpt>
      <trkpt lat="45.54803" lon="5.4352">
        <ele>435</ele>
        <time>2021-10-02T12:24:09.573Z</time>
      </trkpt>
      <trkpt lat="45.54805" lon="5.43515">
        <ele>434</ele>
        <time>2021-10-02T12:24:08.573Z</time>
      </trkpt>
      <trkpt lat="45.54806" lon="5.43509">
        <ele>434</ele>
        <time>2021-10-02T12:24:07.572Z</time>
      </trkpt>
      <trkpt lat="45.54807" lon="5.43504">
        <ele>433</ele>
        <time>2021-10-02T12:24:06.573Z</time>
      </trkpt>
      <trkpt lat="45.54808" lon="5.43499">
        <ele>432</ele>
        <time>2021-10-02T12:24:05.573Z</time>
      </trkpt>
      <trkpt lat="45.54809" lon="5.43493">
        <ele>432</ele>
        <time>2021-10-02T12:24:04.573Z</time>
      </trkpt>
      <trkpt lat="45.5481" lon="5.43488">
        <ele>432</ele>
        <time>2021-10-02T12:24:03.573Z</time>
      </trkpt>
      <trkpt lat="45.54811" lon="5.43483">
        <ele>431</ele>
        <time>2021-10-02T12:24:02.573Z</time>
      </trkpt>
      <trkpt lat="45.54812" lon="5.43477">
        <ele>431</ele>
        <time>2021-10-02T12:24:01.573Z</time>
      </trkpt>
      <trkpt lat="45.54812" lon="5.43472">
        <ele>430</ele>
        <time>2021-10-02T12:24:00.572Z</time>
      </trkpt>
      <trkpt lat="45.54813" lon="5.43466">
        <ele>430</ele>
        <time>2021-10-02T12:23:59.573Z</time>
      </trkpt>
      <trkpt lat="45.54814" lon="5.43461">
        <ele>430</ele>
        <time>2021-10-02T12:23:58.572Z</time>
      </trkpt>
      <trkpt lat="45.54814" lon="5.43455">
        <ele>430</ele>
        <time>2021-10-02T12:23:57.573Z</time>
      </trkpt>
      <trkpt lat="45.54815" lon="5.4345">
        <ele>429</ele>
        <time>2021-10-02T12:23:56.572Z</time>
      </trkpt>
      <trkpt lat="45.54816" lon="5.43444">
        <ele>429</ele>
        <time>2021-10-02T12:23:55.573Z</time>
      </trkpt>
      <trkpt lat="45.54816" lon="5.43439">
        <ele>429</ele>
        <time>2021-10-02T12:23:54.573Z</time>
      </trkpt>
      <trkpt lat="45.54817" lon="5.43434">
        <ele>428</ele>
        <time>2021-10-02T12:23:53.572Z</time>
      </trkpt>
      <trkpt lat="45.54817" lon="5.43428">
        <ele>428</ele>
        <time>2021-10-02T12:23:52.573Z</time>
      </trkpt>
      <trkpt lat="45.54818" lon="5.43423">
        <ele>428</ele>
        <time>2021-10-02T12:23:51.573Z</time>
      </trkpt>
      <trkpt lat="45.54818" lon="5.43417">
        <ele>427</ele>
        <time>2021-10-02T12:23:50.572Z</time>
      </trkpt>
      <trkpt lat="45.54819" lon="5.43411">
        <ele>427</ele>
        <time>2021-10-02T12:23:49.572Z</time>
      </trkpt>
      <trkpt lat="45.5482" lon="5.43406">
        <ele>427</ele>
        <time>2021-10-02T12:23:48.573Z</time>
      </trkpt>
      <trkpt lat="45.5482" lon="5.434">
        <ele>427</ele>
        <time>2021-10-02T12:23:47.573Z</time>
      </trkpt>
      <trkpt lat="45.54821" lon="5.43394">
        <ele>426</ele>
        <time>2021-10-02T12:23:46.572Z</time>
      </trkpt>
      <trkpt lat="45.54821" lon="5.43389">
        <ele>426</ele>
        <time>2021-10-02T12:23:45.573Z</time>
      </trkpt>
      <trkpt lat="45.54822" lon="5.43383">
        <ele>425</ele>
        <time>2021-10-02T12:23:44.572Z</time>
      </trkpt>
      <trkpt lat="45.54822" lon="5.43378">
        <ele>425</ele>
        <time>2021-10-02T12:23:43.573Z</time>
      </trkpt>
      <trkpt lat="45.54823" lon="5.43373">
        <ele>425</ele>
        <time>2021-10-02T12:23:42.573Z</time>
      </trkpt>
      <trkpt lat="45.54824" lon="5.43367">
        <ele>425</ele>
        <time>2021-10-02T12:23:41.573Z</time>
      </trkpt>
      <trkpt lat="45.54824" lon="5.43362">
        <ele>425</ele>
        <time>2021-10-02T12:23:40.572Z</time>
      </trkpt>
      <trkpt lat="45.54825" lon="5.43357">
        <ele>425</ele>
        <time>2021-10-02T12:23:39.573Z</time>
      </trkpt>
      <trkpt lat="45.54827" lon="5.43352">
        <ele>425</ele>
        <time>2021-10-02T12:23:38.573Z</time>
      </trkpt>
      <trkpt lat="45.54828" lon="5.43347">
        <ele>425</ele>
        <time>2021-10-02T12:23:37.573Z</time>
      </trkpt>
      <trkpt lat="45.54829" lon="5.43342">
        <ele>425</ele>
        <time>2021-10-02T12:23:36.572Z</time>
      </trkpt>
      <trkpt lat="45.5483" lon="5.43337">
        <ele>424</ele>
        <time>2021-10-02T12:23:35.572Z</time>
      </trkpt>
      <trkpt lat="45.54831" lon="5.43332">
        <ele>424</ele>
        <time>2021-10-02T12:23:34.572Z</time>
      </trkpt>
      <trkpt lat="45.54832" lon="5.43327">
        <ele>423</ele>
        <time>2021-10-02T12:23:33.573Z</time>
      </trkpt>
      <trkpt lat="45.54833" lon="5.43322">
        <ele>422</ele>
        <time>2021-10-02T12:23:32.573Z</time>
      </trkpt>
      <trkpt lat="45.54835" lon="5.43317">
        <ele>422</ele>
        <time>2021-10-02T12:23:31.572Z</time>
      </trkpt>
      <trkpt lat="45.54836" lon="5.43312">
        <ele>421</ele>
        <time>2021-10-02T12:23:30.573Z</time>
      </trkpt>
      <trkpt lat="45.54837" lon="5.43307">
        <ele>421</ele>
        <time>2021-10-02T12:23:29.573Z</time>
      </trkpt>
      <trkpt lat="45.54839" lon="5.43302">
        <ele>420</ele>
        <time>2021-10-02T12:23:28.572Z</time>
      </trkpt>
      <trkpt lat="45.5484" lon="5.43297">
        <ele>420</ele>
        <time>2021-10-02T12:23:27.572Z</time>
      </trkpt>
      <trkpt lat="45.54842" lon="5.43292">
        <ele>419</ele>
        <time>2021-10-02T12:23:26.573Z</time>
      </trkpt>
      <trkpt lat="45.54843" lon="5.43287">
        <ele>419</ele>
        <time>2021-10-02T12:23:25.572Z</time>
      </trkpt>
      <trkpt lat="45.54844" lon="5.43283">
        <ele>419</ele>
        <time>2021-10-02T12:23:24.572Z</time>
      </trkpt>
      <trkpt lat="45.54846" lon="5.43278">
        <ele>418</ele>
        <time>2021-10-02T12:23:23.573Z</time>
      </trkpt>
      <trkpt lat="45.54848" lon="5.43273">
        <ele>418</ele>
        <time>2021-10-02T12:23:22.572Z</time>
      </trkpt>
      <trkpt lat="45.54849" lon="5.43268">
        <ele>417</ele>
        <time>2021-10-02T12:23:21.573Z</time>
      </trkpt>
      <trkpt lat="45.54851" lon="5.43263">
        <ele>417</ele>
        <time>2021-10-02T12:23:20.573Z</time>
      </trkpt>
      <trkpt lat="45.54853" lon="5.43257">
        <ele>416</ele>
        <time>2021-10-02T12:23:19.572Z</time>
      </trkpt>
      <trkpt lat="45.54854" lon="5.43252">
        <ele>416</ele>
        <time>2021-10-02T12:23:18.573Z</time>
      </trkpt>
      <trkpt lat="45.54856" lon="5.43247">
        <ele>416</ele>
        <time>2021-10-02T12:23:17.573Z</time>
      </trkpt>
      <trkpt lat="45.54858" lon="5.43242">
        <ele>416</ele>
        <time>2021-10-02T12:23:16.572Z</time>
      </trkpt>
      <trkpt lat="45.5486" lon="5.43237">
        <ele>415</ele>
        <time>2021-10-02T12:23:15.573Z</time>
      </trkpt>
      <trkpt lat="45.54862" lon="5.43232">
        <ele>415</ele>
        <time>2021-10-02T12:23:14.573Z</time>
      </trkpt>
      <trkpt lat="45.54863" lon="5.43227">
        <ele>415</ele>
        <time>2021-10-02T12:23:13.572Z</time>
      </trkpt>
      <trkpt lat="45.54865" lon="5.43222">
        <ele>414</ele>
        <time>2021-10-02T12:23:12.573Z</time>
      </trkpt>
      <trkpt lat="45.54867" lon="5.43217">
        <ele>414</ele>
        <time>2021-10-02T12:23:11.573Z</time>
      </trkpt>
      <trkpt lat="45.54868" lon="5.43212">
        <ele>414</ele>
        <time>2021-10-02T12:23:10.573Z</time>
      </trkpt>
      <trkpt lat="45.5487" lon="5.43207">
        <ele>414</ele>
        <time>2021-10-02T12:23:09.573Z</time>
      </trkpt>
      <trkpt lat="45.54871" lon="5.43202">
        <ele>414</ele>
        <time>2021-10-02T12:23:08.573Z</time>
      </trkpt>
      <trkpt lat="45.54873" lon="5.43197">
        <ele>413</ele>
        <time>2021-10-02T12:23:07.572Z</time>
      </trkpt>
      <trkpt lat="45.54874" lon="5.43192">
        <ele>413</ele>
        <time>2021-10-02T12:23:06.572Z</time>
      </trkpt>
      <trkpt lat="45.54876" lon="5.43188">
        <ele>413</ele>
        <time>2021-10-02T12:23:05.573Z</time>
      </trkpt>
      <trkpt lat="45.54877" lon="5.43183">
        <ele>412</ele>
        <time>2021-10-02T12:23:04.573Z</time>
      </trkpt>
      <trkpt lat="45.54879" lon="5.43178">
        <ele>412</ele>
        <time>2021-10-02T12:23:03.572Z</time>
      </trkpt>
      <trkpt lat="45.54881" lon="5.43174">
        <ele>411</ele>
        <time>2021-10-02T12:23:02.573Z</time>
      </trkpt>
      <trkpt lat="45.54883" lon="5.43169">
        <ele>411</ele>
        <time>2021-10-02T12:23:01.573Z</time>
      </trkpt>
      <trkpt lat="45.54885" lon="5.43164">
        <ele>411</ele>
        <time>2021-10-02T12:23:00.573Z</time>
      </trkpt>
      <trkpt lat="45.54887" lon="5.4316">
        <ele>410</ele>
        <time>2021-10-02T12:22:59.573Z</time>
      </trkpt>
      <trkpt lat="45.54889" lon="5.43155">
        <ele>410</ele>
        <time>2021-10-02T12:22:58.572Z</time>
      </trkpt>
      <trkpt lat="45.54891" lon="5.43151">
        <ele>409</ele>
        <time>2021-10-02T12:22:57.573Z</time>
      </trkpt>
      <trkpt lat="45.54893" lon="5.43146">
        <ele>409</ele>
        <time>2021-10-02T12:22:56.573Z</time>
      </trkpt>
      <trkpt lat="45.54895" lon="5.43142">
        <ele>408</ele>
        <time>2021-10-02T12:22:55.573Z</time>
      </trkpt>
      <trkpt lat="45.54897" lon="5.43138">
        <ele>408</ele>
        <time>2021-10-02T12:22:54.573Z</time>
      </trkpt>
      <trkpt lat="45.54899" lon="5.43133">
        <ele>408</ele>
        <time>2021-10-02T12:22:53.573Z</time>
      </trkpt>
      <trkpt lat="45.54902" lon="5.43129">
        <ele>407</ele>
        <time>2021-10-02T12:22:52.573Z</time>
      </trkpt>
      <trkpt lat="45.54904" lon="5.43125">
        <ele>407</ele>
        <time>2021-10-02T12:22:51.573Z</time>
      </trkpt>
      <trkpt lat="45.54906" lon="5.43121">
        <ele>406</ele>
        <time>2021-10-02T12:22:50.573Z</time>
      </trkpt>
      <trkpt lat="45.54908" lon="5.43117">
        <ele>406</ele>
        <time>2021-10-02T12:22:49.573Z</time>
      </trkpt>
      <trkpt lat="45.54911" lon="5.43113">
        <ele>406</ele>
        <time>2021-10-02T12:22:48.573Z</time>
      </trkpt>
      <trkpt lat="45.54913" lon="5.4311">
        <ele>406</ele>
        <time>2021-10-02T12:22:47.573Z</time>
      </trkpt>
      <trkpt lat="45.54915" lon="5.43106">
        <ele>406</ele>
        <time>2021-10-02T12:22:46.572Z</time>
      </trkpt>
      <trkpt lat="45.54918" lon="5.43103">
        <ele>406</ele>
        <time>2021-10-02T12:22:45.573Z</time>
      </trkpt>
      <trkpt lat="45.5492" lon="5.43099">
        <ele>406</ele>
        <time>2021-10-02T12:22:44.572Z</time>
      </trkpt>
      <trkpt lat="45.54923" lon="5.43096">
        <ele>406</ele>
        <time>2021-10-02T12:22:43.572Z</time>
      </trkpt>
      <trkpt lat="45.54925" lon="5.43093">
        <ele>405</ele>
        <time>2021-10-02T12:22:42.572Z</time>
      </trkpt>
      <trkpt lat="45.54927" lon="5.43089">
        <ele>405</ele>
        <time>2021-10-02T12:22:41.573Z</time>
      </trkpt>
      <trkpt lat="45.54929" lon="5.43086">
        <ele>405</ele>
        <time>2021-10-02T12:22:40.573Z</time>
      </trkpt>
      <trkpt lat="45.54932" lon="5.43083">
        <ele>404</ele>
        <time>2021-10-02T12:22:39.573Z</time>
      </trkpt>
      <trkpt lat="45.54935" lon="5.43079">
        <ele>404</ele>
        <time>2021-10-02T12:22:38.573Z</time>
      </trkpt>
      <trkpt lat="45.54938" lon="5.43076">
        <ele>403</ele>
        <time>2021-10-02T12:22:37.573Z</time>
      </trkpt>
      <trkpt lat="45.54941" lon="5.43073">
        <ele>403</ele>
        <time>2021-10-02T12:22:36.573Z</time>
      </trkpt>
      <trkpt lat="45.54944" lon="5.4307">
        <ele>402</ele>
        <time>2021-10-02T12:22:35.573Z</time>
      </trkpt>
      <trkpt lat="45.54946" lon="5.43067">
        <ele>402</ele>
        <time>2021-10-02T12:22:34.573Z</time>
      </trkpt>
      <trkpt lat="45.54949" lon="5.43064">
        <ele>401</ele>
        <time>2021-10-02T12:22:33.573Z</time>
      </trkpt>
      <trkpt lat="45.54952" lon="5.43061">
        <ele>401</ele>
        <time>2021-10-02T12:22:32.573Z</time>
      </trkpt>
      <trkpt lat="45.54955" lon="5.43059">
        <ele>400</ele>
        <time>2021-10-02T12:22:31.572Z</time>
      </trkpt>
      <trkpt lat="45.54958" lon="5.43056">
        <ele>400</ele>
        <time>2021-10-02T12:22:30.572Z</time>
      </trkpt>
      <trkpt lat="45.54961" lon="5.43053">
        <ele>400</ele>
        <time>2021-10-02T12:22:29.573Z</time>
      </trkpt>
      <trkpt lat="45.54964" lon="5.43051">
        <ele>399</ele>
        <time>2021-10-02T12:22:28.573Z</time>
      </trkpt>
      <trkpt lat="45.54967" lon="5.43048">
        <ele>399</ele>
        <time>2021-10-02T12:22:27.572Z</time>
      </trkpt>
      <trkpt lat="45.5497" lon="5.43046">
        <ele>399</ele>
        <time>2021-10-02T12:22:26.572Z</time>
      </trkpt>
      <trkpt lat="45.54974" lon="5.43043">
        <ele>398</ele>
        <time>2021-10-02T12:22:25.573Z</time>
      </trkpt>
      <trkpt lat="45.54977" lon="5.43041">
        <ele>398</ele>
        <time>2021-10-02T12:22:24.573Z</time>
      </trkpt>
      <trkpt lat="45.5498" lon="5.43039">
        <ele>398</ele>
        <time>2021-10-02T12:22:23.573Z</time>
      </trkpt>
      <trkpt lat="45.54983" lon="5.43036">
        <ele>398</ele>
        <time>2021-10-02T12:22:22.573Z</time>
      </trkpt>
      <trkpt lat="45.54986" lon="5.43034">
        <ele>397</ele>
        <time>2021-10-02T12:22:21.572Z</time>
      </trkpt>
      <trkpt lat="45.54989" lon="5.43031">
        <ele>397</ele>
        <time>2021-10-02T12:22:20.572Z</time>
      </trkpt>
      <trkpt lat="45.54992" lon="5.43028">
        <ele>397</ele>
        <time>2021-10-02T12:22:19.573Z</time>
      </trkpt>
      <trkpt lat="45.54995" lon="5.43026">
        <ele>397</ele>
        <time>2021-10-02T12:22:18.573Z</time>
      </trkpt>
      <trkpt lat="45.54998" lon="5.43024">
        <ele>397</ele>
        <time>2021-10-02T12:22:17.573Z</time>
      </trkpt>
      <trkpt lat="45.55001" lon="5.43021">
        <ele>396</ele>
        <time>2021-10-02T12:22:16.572Z</time>
      </trkpt>
      <trkpt lat="45.55004" lon="5.43018">
        <ele>396</ele>
        <time>2021-10-02T12:22:15.573Z</time>
      </trkpt>
      <trkpt lat="45.55007" lon="5.43015">
        <ele>396</ele>
        <time>2021-10-02T12:22:14.572Z</time>
      </trkpt>
      <trkpt lat="45.5501" lon="5.43013">
        <ele>395</ele>
        <time>2021-10-02T12:22:13.573Z</time>
      </trkpt>
      <trkpt lat="45.55013" lon="5.4301">
        <ele>395</ele>
        <time>2021-10-02T12:22:12.573Z</time>
      </trkpt>
      <trkpt lat="45.55016" lon="5.43006">
        <ele>394</ele>
        <time>2021-10-02T12:22:11.573Z</time>
      </trkpt>
      <trkpt lat="45.55019" lon="5.43003">
        <ele>394</ele>
        <time>2021-10-02T12:22:10.573Z</time>
      </trkpt>
      <trkpt lat="45.55022" lon="5.42999">
        <ele>393</ele>
        <time>2021-10-02T12:22:09.572Z</time>
      </trkpt>
      <trkpt lat="45.55024" lon="5.42995">
        <ele>392</ele>
        <time>2021-10-02T12:22:08.572Z</time>
      </trkpt>
      <trkpt lat="45.55027" lon="5.42991">
        <ele>392</ele>
        <time>2021-10-02T12:22:07.572Z</time>
      </trkpt>
      <trkpt lat="45.55029" lon="5.42987">
        <ele>392</ele>
        <time>2021-10-02T12:22:06.573Z</time>
      </trkpt>
      <trkpt lat="45.55031" lon="5.42982">
        <ele>391</ele>
        <time>2021-10-02T12:22:05.572Z</time>
      </trkpt>
      <trkpt lat="45.55033" lon="5.42978">
        <ele>391</ele>
        <time>2021-10-02T12:22:04.572Z</time>
      </trkpt>
      <trkpt lat="45.55035" lon="5.42973">
        <ele>390</ele>
        <time>2021-10-02T12:22:03.573Z</time>
      </trkpt>
      <trkpt lat="45.55036" lon="5.42968">
        <ele>390</ele>
        <time>2021-10-02T12:22:02.573Z</time>
      </trkpt>
      <trkpt lat="45.55037" lon="5.42963">
        <ele>390</ele>
        <time>2021-10-02T12:22:01.572Z</time>
      </trkpt>
      <trkpt lat="45.55039" lon="5.42958">
        <ele>390</ele>
        <time>2021-10-02T12:22:00.573Z</time>
      </trkpt>
      <trkpt lat="45.5504" lon="5.42953">
        <ele>389</ele>
        <time>2021-10-02T12:21:59.573Z</time>
      </trkpt>
      <trkpt lat="45.55041" lon="5.42948">
        <ele>389</ele>
        <time>2021-10-02T12:21:58.573Z</time>
      </trkpt>
      <trkpt lat="45.55043" lon="5.42943">
        <ele>388</ele>
        <time>2021-10-02T12:21:57.572Z</time>
      </trkpt>
      <trkpt lat="45.55044" lon="5.42938">
        <ele>387</ele>
        <time>2021-10-02T12:21:56.573Z</time>
      </trkpt>
      <trkpt lat="45.55045" lon="5.42933">
        <ele>387</ele>
        <time>2021-10-02T12:21:55.573Z</time>
      </trkpt>
      <trkpt lat="45.55046" lon="5.42928">
        <ele>386</ele>
        <time>2021-10-02T12:21:54.573Z</time>
      </trkpt>
      <trkpt lat="45.55047" lon="5.42922">
        <ele>386</ele>
        <time>2021-10-02T12:21:53.572Z</time>
      </trkpt>
      <trkpt lat="45.55048" lon="5.42918">
        <ele>386</ele>
        <time>2021-10-02T12:21:52.573Z</time>
      </trkpt>
      <trkpt lat="45.5505" lon="5.42913">
        <ele>386</ele>
        <time>2021-10-02T12:21:51.572Z</time>
      </trkpt>
      <trkpt lat="45.55051" lon="5.42908">
        <ele>385</ele>
        <time>2021-10-02T12:21:50.572Z</time>
      </trkpt>
      <trkpt lat="45.55052" lon="5.42903">
        <ele>385</ele>
        <time>2021-10-02T12:21:49.573Z</time>
      </trkpt>
      <trkpt lat="45.55053" lon="5.42897">
        <ele>385</ele>
        <time>2021-10-02T12:21:48.573Z</time>
      </trkpt>
      <trkpt lat="45.55054" lon="5.42893">
        <ele>385</ele>
        <time>2021-10-02T12:21:47.573Z</time>
      </trkpt>
      <trkpt lat="45.55055" lon="5.42889">
        <ele>385</ele>
        <time>2021-10-02T12:21:46.573Z</time>
      </trkpt>
      <trkpt lat="45.55057" lon="5.42884">
        <ele>384</ele>
        <time>2021-10-02T12:21:45.572Z</time>
      </trkpt>
      <trkpt lat="45.55057" lon="5.42879">
        <ele>384</ele>
        <time>2021-10-02T12:21:44.572Z</time>
      </trkpt>
      <trkpt lat="45.55058" lon="5.42874">
        <ele>384</ele>
        <time>2021-10-02T12:21:43.572Z</time>
      </trkpt>
      <trkpt lat="45.55059" lon="5.42869">
        <ele>383</ele>
        <time>2021-10-02T12:21:42.572Z</time>
      </trkpt>
      <trkpt lat="45.55061" lon="5.42864">
        <ele>383</ele>
        <time>2021-10-02T12:21:41.572Z</time>
      </trkpt>
      <trkpt lat="45.55062" lon="5.42859">
        <ele>382</ele>
        <time>2021-10-02T12:21:40.573Z</time>
      </trkpt>
      <trkpt lat="45.55063" lon="5.42854">
        <ele>382</ele>
        <time>2021-10-02T12:21:39.572Z</time>
      </trkpt>
      <trkpt lat="45.55064" lon="5.42849">
        <ele>381</ele>
        <time>2021-10-02T12:21:38.573Z</time>
      </trkpt>
      <trkpt lat="45.55065" lon="5.42845">
        <ele>381</ele>
        <time>2021-10-02T12:21:37.573Z</time>
      </trkpt>
      <trkpt lat="45.55066" lon="5.4284">
        <ele>381</ele>
        <time>2021-10-02T12:21:36.573Z</time>
      </trkpt>
      <trkpt lat="45.55067" lon="5.42835">
        <ele>381</ele>
        <time>2021-10-02T12:21:35.573Z</time>
      </trkpt>
      <trkpt lat="45.55068" lon="5.42828">
        <ele>381</ele>
        <time>2021-10-02T12:21:34.572Z</time>
      </trkpt>
      <trkpt lat="45.55069" lon="5.42823">
        <ele>381</ele>
        <time>2021-10-02T12:21:33.573Z</time>
      </trkpt>
      <trkpt lat="45.5507" lon="5.42819">
        <ele>381</ele>
        <time>2021-10-02T12:21:32.572Z</time>
      </trkpt>
      <trkpt lat="45.55071" lon="5.42814">
        <ele>381</ele>
        <time>2021-10-02T12:21:31.573Z</time>
      </trkpt>
      <trkpt lat="45.55072" lon="5.42808">
        <ele>381</ele>
        <time>2021-10-02T12:21:30.573Z</time>
      </trkpt>
      <trkpt lat="45.55073" lon="5.42804">
        <ele>381</ele>
        <time>2021-10-02T12:21:29.573Z</time>
      </trkpt>
      <trkpt lat="45.55074" lon="5.42798">
        <ele>381</ele>
        <time>2021-10-02T12:21:28.573Z</time>
      </trkpt>
      <trkpt lat="45.55075" lon="5.42793">
        <ele>381</ele>
        <time>2021-10-02T12:21:27.572Z</time>
      </trkpt>
      <trkpt lat="45.55076" lon="5.42788">
        <ele>381</ele>
        <time>2021-10-02T12:21:26.573Z</time>
      </trkpt>
      <trkpt lat="45.55077" lon="5.42782">
        <ele>381</ele>
        <time>2021-10-02T12:21:25.573Z</time>
      </trkpt>
      <trkpt lat="45.55079" lon="5.42777">
        <ele>381</ele>
        <time>2021-10-02T12:21:24.573Z</time>
      </trkpt>
      <trkpt lat="45.5508" lon="5.42772">
        <ele>381</ele>
        <time>2021-10-02T12:21:23.573Z</time>
      </trkpt>
      <trkpt lat="45.55081" lon="5.42766">
        <ele>381</ele>
        <time>2021-10-02T12:21:22.572Z</time>
      </trkpt>
      <trkpt lat="45.55082" lon="5.42761">
        <ele>381</ele>
        <time>2021-10-02T12:21:21.572Z</time>
      </trkpt>
      <trkpt lat="45.55083" lon="5.42756">
        <ele>381</ele>
        <time>2021-10-02T12:21:20.573Z</time>
      </trkpt>
      <trkpt lat="45.55084" lon="5.4275">
        <ele>381</ele>
        <time>2021-10-02T12:21:19.572Z</time>
      </trkpt>
      <trkpt lat="45.55085" lon="5.42745">
        <ele>381</ele>
        <time>2021-10-02T12:21:18.573Z</time>
      </trkpt>
      <trkpt lat="45.55087" lon="5.42739">
        <ele>382</ele>
        <time>2021-10-02T12:21:17.573Z</time>
      </trkpt>
      <trkpt lat="45.55088" lon="5.42734">
        <ele>382</ele>
        <time>2021-10-02T12:21:16.573Z</time>
      </trkpt>
      <trkpt lat="45.55089" lon="5.42729">
        <ele>382</ele>
        <time>2021-10-02T12:21:15.573Z</time>
      </trkpt>
      <trkpt lat="45.55091" lon="5.42723">
        <ele>382</ele>
        <time>2021-10-02T12:21:14.573Z</time>
      </trkpt>
      <trkpt lat="45.55092" lon="5.42718">
        <ele>382</ele>
        <time>2021-10-02T12:21:13.573Z</time>
      </trkpt>
      <trkpt lat="45.55093" lon="5.42713">
        <ele>381</ele>
        <time>2021-10-02T12:21:12.573Z</time>
      </trkpt>
      <trkpt lat="45.55095" lon="5.42707">
        <ele>381</ele>
        <time>2021-10-02T12:21:11.573Z</time>
      </trkpt>
      <trkpt lat="45.55096" lon="5.42702">
        <ele>381</ele>
        <time>2021-10-02T12:21:10.572Z</time>
      </trkpt>
      <trkpt lat="45.55098" lon="5.42698">
        <ele>380</ele>
        <time>2021-10-02T12:21:09.573Z</time>
      </trkpt>
      <trkpt lat="45.55099" lon="5.42693">
        <ele>380</ele>
        <time>2021-10-02T12:21:08.573Z</time>
      </trkpt>
      <trkpt lat="45.55101" lon="5.42688">
        <ele>379</ele>
        <time>2021-10-02T12:21:07.573Z</time>
      </trkpt>
      <trkpt lat="45.55103" lon="5.42683">
        <ele>378</ele>
        <time>2021-10-02T12:21:06.573Z</time>
      </trkpt>
      <trkpt lat="45.55105" lon="5.42678">
        <ele>378</ele>
        <time>2021-10-02T12:21:05.573Z</time>
      </trkpt>
      <trkpt lat="45.55107" lon="5.42674">
        <ele>377</ele>
        <time>2021-10-02T12:21:04.573Z</time>
      </trkpt>
      <trkpt lat="45.55109" lon="5.4267">
        <ele>377</ele>
        <time>2021-10-02T12:21:03.572Z</time>
      </trkpt>
      <trkpt lat="45.55111" lon="5.42666">
        <ele>376</ele>
        <time>2021-10-02T12:21:02.573Z</time>
      </trkpt>
      <trkpt lat="45.55114" lon="5.42662">
        <ele>376</ele>
        <time>2021-10-02T12:21:01.573Z</time>
      </trkpt>
      <trkpt lat="45.55116" lon="5.42658">
        <ele>375</ele>
        <time>2021-10-02T12:21:00.573Z</time>
      </trkpt>
      <trkpt lat="45.55118" lon="5.42655">
        <ele>375</ele>
        <time>2021-10-02T12:20:59.572Z</time>
      </trkpt>
      <trkpt lat="45.55121" lon="5.42651">
        <ele>374</ele>
        <time>2021-10-02T12:20:58.572Z</time>
      </trkpt>
      <trkpt lat="45.55124" lon="5.42647">
        <ele>374</ele>
        <time>2021-10-02T12:20:57.572Z</time>
      </trkpt>
      <trkpt lat="45.55127" lon="5.42644">
        <ele>373</ele>
        <time>2021-10-02T12:20:56.573Z</time>
      </trkpt>
      <trkpt lat="45.5513" lon="5.42641">
        <ele>373</ele>
        <time>2021-10-02T12:20:55.573Z</time>
      </trkpt>
      <trkpt lat="45.55132" lon="5.42638">
        <ele>372</ele>
        <time>2021-10-02T12:20:54.572Z</time>
      </trkpt>
      <trkpt lat="45.55136" lon="5.42635">
        <ele>372</ele>
        <time>2021-10-02T12:20:53.573Z</time>
      </trkpt>
      <trkpt lat="45.55139" lon="5.42631">
        <ele>371</ele>
        <time>2021-10-02T12:20:52.572Z</time>
      </trkpt>
      <trkpt lat="45.55141" lon="5.42629">
        <ele>370</ele>
        <time>2021-10-02T12:20:51.573Z</time>
      </trkpt>
      <trkpt lat="45.55144" lon="5.42626">
        <ele>370</ele>
        <time>2021-10-02T12:20:50.573Z</time>
      </trkpt>
      <trkpt lat="45.55147" lon="5.42624">
        <ele>369</ele>
        <time>2021-10-02T12:20:49.573Z</time>
      </trkpt>
      <trkpt lat="45.5515" lon="5.42622">
        <ele>369</ele>
        <time>2021-10-02T12:20:48.572Z</time>
      </trkpt>
      <trkpt lat="45.55153" lon="5.4262">
        <ele>368</ele>
        <time>2021-10-02T12:20:47.573Z</time>
      </trkpt>
      <trkpt lat="45.55156" lon="5.42618">
        <ele>368</ele>
        <time>2021-10-02T12:20:46.573Z</time>
      </trkpt>
      <trkpt lat="45.55159" lon="5.42617">
        <ele>367</ele>
        <time>2021-10-02T12:20:45.572Z</time>
      </trkpt>
      <trkpt lat="45.55162" lon="5.42615">
        <ele>367</ele>
        <time>2021-10-02T12:20:44.573Z</time>
      </trkpt>
      <trkpt lat="45.55166" lon="5.42613">
        <ele>366</ele>
        <time>2021-10-02T12:20:43.572Z</time>
      </trkpt>
      <trkpt lat="45.55169" lon="5.4261">
        <ele>366</ele>
        <time>2021-10-02T12:20:42.573Z</time>
      </trkpt>
      <trkpt lat="45.55173" lon="5.42608">
        <ele>366</ele>
        <time>2021-10-02T12:20:41.572Z</time>
      </trkpt>
      <trkpt lat="45.55175" lon="5.42607">
        <ele>365</ele>
        <time>2021-10-02T12:20:40.573Z</time>
      </trkpt>
      <trkpt lat="45.55178" lon="5.42605">
        <ele>365</ele>
        <time>2021-10-02T12:20:39.573Z</time>
      </trkpt>
      <trkpt lat="45.55181" lon="5.42604">
        <ele>365</ele>
        <time>2021-10-02T12:20:38.573Z</time>
      </trkpt>
      <trkpt lat="45.55186" lon="5.42603">
        <ele>364</ele>
        <time>2021-10-02T12:20:37.573Z</time>
      </trkpt>
      <trkpt lat="45.55189" lon="5.42601">
        <ele>364</ele>
        <time>2021-10-02T12:20:36.573Z</time>
      </trkpt>
      <trkpt lat="45.55191" lon="5.42599">
        <ele>364</ele>
        <time>2021-10-02T12:20:35.573Z</time>
      </trkpt>
      <trkpt lat="45.55194" lon="5.42597">
        <ele>364</ele>
        <time>2021-10-02T12:20:34.573Z</time>
      </trkpt>
      <trkpt lat="45.55197" lon="5.42594">
        <ele>363</ele>
        <time>2021-10-02T12:20:33.572Z</time>
      </trkpt>
      <trkpt lat="45.55201" lon="5.42591">
        <ele>362</ele>
        <time>2021-10-02T12:20:32.572Z</time>
      </trkpt>
      <trkpt lat="45.55204" lon="5.42589">
        <ele>362</ele>
        <time>2021-10-02T12:20:31.573Z</time>
      </trkpt>
      <trkpt lat="45.55207" lon="5.42587">
        <ele>361</ele>
        <time>2021-10-02T12:20:30.573Z</time>
      </trkpt>
      <trkpt lat="45.5521" lon="5.42584">
        <ele>361</ele>
        <time>2021-10-02T12:20:29.573Z</time>
      </trkpt>
      <trkpt lat="45.55214" lon="5.42581">
        <ele>361</ele>
        <time>2021-10-02T12:20:28.572Z</time>
      </trkpt>
      <trkpt lat="45.55218" lon="5.42578">
        <ele>361</ele>
        <time>2021-10-02T12:20:27.573Z</time>
      </trkpt>
      <trkpt lat="45.55221" lon="5.42575">
        <ele>361</ele>
        <time>2021-10-02T12:20:26.573Z</time>
      </trkpt>
      <trkpt lat="45.55224" lon="5.42573">
        <ele>362</ele>
        <time>2021-10-02T12:20:25.573Z</time>
      </trkpt>
      <trkpt lat="45.55227" lon="5.4257">
        <ele>362</ele>
        <time>2021-10-02T12:20:24.573Z</time>
      </trkpt>
      <trkpt lat="45.55231" lon="5.42567">
        <ele>362</ele>
        <time>2021-10-02T12:20:23.573Z</time>
      </trkpt>
      <trkpt lat="45.55235" lon="5.42563">
        <ele>362</ele>
        <time>2021-10-02T12:20:22.573Z</time>
      </trkpt>
      <trkpt lat="45.55239" lon="5.4256">
        <ele>362</ele>
        <time>2021-10-02T12:20:21.573Z</time>
      </trkpt>
      <trkpt lat="45.55243" lon="5.42557">
        <ele>362</ele>
        <time>2021-10-02T12:20:20.573Z</time>
      </trkpt>
      <trkpt lat="45.55247" lon="5.42554">
        <ele>363</ele>
        <time>2021-10-02T12:20:19.573Z</time>
      </trkpt>
      <trkpt lat="45.55251" lon="5.42551">
        <ele>363</ele>
        <time>2021-10-02T12:20:18.572Z</time>
      </trkpt>
      <trkpt lat="45.55257" lon="5.42547">
        <ele>362</ele>
        <time>2021-10-02T12:20:17.573Z</time>
      </trkpt>
      <trkpt lat="45.55262" lon="5.42544">
        <ele>362</ele>
        <time>2021-10-02T12:20:16.573Z</time>
      </trkpt>
      <trkpt lat="45.55267" lon="5.42542">
        <ele>362</ele>
        <time>2021-10-02T12:20:15.573Z</time>
      </trkpt>
      <trkpt lat="45.55271" lon="5.42539">
        <ele>362</ele>
        <time>2021-10-02T12:20:14.573Z</time>
      </trkpt>
      <trkpt lat="45.55276" lon="5.42538">
        <ele>362</ele>
        <time>2021-10-02T12:20:13.573Z</time>
      </trkpt>
      <trkpt lat="45.55281" lon="5.42536">
        <ele>362</ele>
        <time>2021-10-02T12:20:12.573Z</time>
      </trkpt>
      <trkpt lat="45.55286" lon="5.42533">
        <ele>362</ele>
        <time>2021-10-02T12:20:11.572Z</time>
      </trkpt>
      <trkpt lat="45.5529" lon="5.42532">
        <ele>362</ele>
        <time>2021-10-02T12:20:10.572Z</time>
      </trkpt>
      <trkpt lat="45.55294" lon="5.42531">
        <ele>361</ele>
        <time>2021-10-02T12:20:09.573Z</time>
      </trkpt>
      <trkpt lat="45.55298" lon="5.42532">
        <ele>361</ele>
        <time>2021-10-02T12:20:08.572Z</time>
      </trkpt>
      <trkpt lat="45.55302" lon="5.42534">
        <ele>361</ele>
        <time>2021-10-02T12:20:07.572Z</time>
      </trkpt>
      <trkpt lat="45.55304" lon="5.42538">
        <ele>362</ele>
        <time>2021-10-02T12:20:06.573Z</time>
      </trkpt>
      <trkpt lat="45.55305" lon="5.42541">
        <ele>362</ele>
        <time>2021-10-02T12:20:05.572Z</time>
      </trkpt>
      <trkpt lat="45.55307" lon="5.42546">
        <ele>362</ele>
        <time>2021-10-02T12:20:04.572Z</time>
      </trkpt>
      <trkpt lat="45.55309" lon="5.42551">
        <ele>362</ele>
        <time>2021-10-02T12:20:03.573Z</time>
      </trkpt>
      <trkpt lat="45.5531" lon="5.42558">
        <ele>362</ele>
        <time>2021-10-02T12:20:02.572Z</time>
      </trkpt>
      <trkpt lat="45.55312" lon="5.42562">
        <ele>362</ele>
        <time>2021-10-02T12:20:01.573Z</time>
      </trkpt>
      <trkpt lat="45.55313" lon="5.42567">
        <ele>362</ele>
        <time>2021-10-02T12:20:00.572Z</time>
      </trkpt>
      <trkpt lat="45.55314" lon="5.42573">
        <ele>362</ele>
        <time>2021-10-02T12:19:59.573Z</time>
      </trkpt>
      <trkpt lat="45.55315" lon="5.4258">
        <ele>361</ele>
        <time>2021-10-02T12:19:58.573Z</time>
      </trkpt>
      <trkpt lat="45.55316" lon="5.42585">
        <ele>361</ele>
        <time>2021-10-02T12:19:57.573Z</time>
      </trkpt>
      <trkpt lat="45.55317" lon="5.42592">
        <ele>361</ele>
        <time>2021-10-02T12:19:56.573Z</time>
      </trkpt>
      <trkpt lat="45.55318" lon="5.42596">
        <ele>361</ele>
        <time>2021-10-02T12:19:55.573Z</time>
      </trkpt>
      <trkpt lat="45.55319" lon="5.42602">
        <ele>361</ele>
        <time>2021-10-02T12:19:54.572Z</time>
      </trkpt>
      <trkpt lat="45.5532" lon="5.42608">
        <ele>361</ele>
        <time>2021-10-02T12:19:53.573Z</time>
      </trkpt>
      <trkpt lat="45.55321" lon="5.42614">
        <ele>360</ele>
        <time>2021-10-02T12:19:52.573Z</time>
      </trkpt>
      <trkpt lat="45.55323" lon="5.4262">
        <ele>360</ele>
        <time>2021-10-02T12:19:51.573Z</time>
      </trkpt>
      <trkpt lat="45.55324" lon="5.42625">
        <ele>359</ele>
        <time>2021-10-02T12:19:50.573Z</time>
      </trkpt>
      <trkpt lat="45.55325" lon="5.42631">
        <ele>359</ele>
        <time>2021-10-02T12:19:49.573Z</time>
      </trkpt>
      <trkpt lat="45.55327" lon="5.42637">
        <ele>359</ele>
        <time>2021-10-02T12:19:48.573Z</time>
      </trkpt>
      <trkpt lat="45.55328" lon="5.42643">
        <ele>358</ele>
        <time>2021-10-02T12:19:47.572Z</time>
      </trkpt>
      <trkpt lat="45.55329" lon="5.4265">
        <ele>358</ele>
        <time>2021-10-02T12:19:46.572Z</time>
      </trkpt>
      <trkpt lat="45.55329" lon="5.42655">
        <ele>358</ele>
        <time>2021-10-02T12:19:45.573Z</time>
      </trkpt>
      <trkpt lat="45.5533" lon="5.42661">
        <ele>358</ele>
        <time>2021-10-02T12:19:44.572Z</time>
      </trkpt>
      <trkpt lat="45.5533" lon="5.42669">
        <ele>359</ele>
        <time>2021-10-02T12:19:43.572Z</time>
      </trkpt>
      <trkpt lat="45.5533" lon="5.42673">
        <ele>358</ele>
        <time>2021-10-02T12:19:42.573Z</time>
      </trkpt>
      <trkpt lat="45.55329" lon="5.42681">
        <ele>358</ele>
        <time>2021-10-02T12:19:41.572Z</time>
      </trkpt>
      <trkpt lat="45.55329" lon="5.42686">
        <ele>358</ele>
        <time>2021-10-02T12:19:40.573Z</time>
      </trkpt>
      <trkpt lat="45.55328" lon="5.42692">
        <ele>357</ele>
        <time>2021-10-02T12:19:39.572Z</time>
      </trkpt>
      <trkpt lat="45.55327" lon="5.427">
        <ele>357</ele>
        <time>2021-10-02T12:19:38.573Z</time>
      </trkpt>
      <trkpt lat="45.55327" lon="5.42705">
        <ele>356</ele>
        <time>2021-10-02T12:19:37.573Z</time>
      </trkpt>
      <trkpt lat="45.55326" lon="5.42712">
        <ele>356</ele>
        <time>2021-10-02T12:19:36.572Z</time>
      </trkpt>
      <trkpt lat="45.55325" lon="5.42717">
        <ele>356</ele>
        <time>2021-10-02T12:19:35.573Z</time>
      </trkpt>
      <trkpt lat="45.55325" lon="5.42724">
        <ele>356</ele>
        <time>2021-10-02T12:19:34.573Z</time>
      </trkpt>
      <trkpt lat="45.55324" lon="5.4273">
        <ele>355</ele>
        <time>2021-10-02T12:19:33.573Z</time>
      </trkpt>
      <trkpt lat="45.55323" lon="5.42737">
        <ele>355</ele>
        <time>2021-10-02T12:19:32.572Z</time>
      </trkpt>
      <trkpt lat="45.55322" lon="5.42744">
        <ele>354</ele>
        <time>2021-10-02T12:19:31.573Z</time>
      </trkpt>
      <trkpt lat="45.55322" lon="5.42749">
        <ele>354</ele>
        <time>2021-10-02T12:19:30.572Z</time>
      </trkpt>
      <trkpt lat="45.55321" lon="5.42756">
        <ele>353</ele>
        <time>2021-10-02T12:19:29.573Z</time>
      </trkpt>
      <trkpt lat="45.5532" lon="5.42762">
        <ele>353</ele>
        <time>2021-10-02T12:19:28.573Z</time>
      </trkpt>
      <trkpt lat="45.55319" lon="5.42768">
        <ele>352</ele>
        <time>2021-10-02T12:19:27.572Z</time>
      </trkpt>
      <trkpt lat="45.55318" lon="5.42775">
        <ele>352</ele>
        <time>2021-10-02T12:19:26.573Z</time>
      </trkpt>
      <trkpt lat="45.55317" lon="5.42781">
        <ele>351</ele>
        <time>2021-10-02T12:19:25.572Z</time>
      </trkpt>
      <trkpt lat="45.55317" lon="5.42788">
        <ele>351</ele>
        <time>2021-10-02T12:19:24.572Z</time>
      </trkpt>
      <trkpt lat="45.55316" lon="5.42795">
        <ele>350</ele>
        <time>2021-10-02T12:19:23.573Z</time>
      </trkpt>
      <trkpt lat="45.55316" lon="5.428">
        <ele>350</ele>
        <time>2021-10-02T12:19:22.573Z</time>
      </trkpt>
      <trkpt lat="45.55316" lon="5.42808">
        <ele>349</ele>
        <time>2021-10-02T12:19:21.572Z</time>
      </trkpt>
      <trkpt lat="45.55316" lon="5.42813">
        <ele>349</ele>
        <time>2021-10-02T12:19:20.573Z</time>
      </trkpt>
      <trkpt lat="45.55317" lon="5.42819">
        <ele>349</ele>
        <time>2021-10-02T12:19:19.573Z</time>
      </trkpt>
      <trkpt lat="45.55317" lon="5.42825">
        <ele>349</ele>
        <time>2021-10-02T12:19:18.573Z</time>
      </trkpt>
      <trkpt lat="45.55319" lon="5.42831">
        <ele>349</ele>
        <time>2021-10-02T12:19:17.572Z</time>
      </trkpt>
      <trkpt lat="45.5532" lon="5.42837">
        <ele>349</ele>
        <time>2021-10-02T12:19:16.573Z</time>
      </trkpt>
      <trkpt lat="45.55322" lon="5.42843">
        <ele>349</ele>
        <time>2021-10-02T12:19:15.573Z</time>
      </trkpt>
      <trkpt lat="45.55325" lon="5.42848">
        <ele>349</ele>
        <time>2021-10-02T12:19:14.572Z</time>
      </trkpt>
      <trkpt lat="45.55329" lon="5.42852">
        <ele>348</ele>
        <time>2021-10-02T12:19:13.573Z</time>
      </trkpt>
      <trkpt lat="45.55333" lon="5.42856">
        <ele>348</ele>
        <time>2021-10-02T12:19:12.573Z</time>
      </trkpt>
      <trkpt lat="45.55336" lon="5.42858">
        <ele>348</ele>
        <time>2021-10-02T12:19:11.573Z</time>
      </trkpt>
      <trkpt lat="45.5534" lon="5.42861">
        <ele>348</ele>
        <time>2021-10-02T12:19:10.572Z</time>
      </trkpt>
      <trkpt lat="45.55343" lon="5.42864">
        <ele>347</ele>
        <time>2021-10-02T12:19:09.573Z</time>
      </trkpt>
      <trkpt lat="45.55348" lon="5.42866">
        <ele>347</ele>
        <time>2021-10-02T12:19:08.573Z</time>
      </trkpt>
      <trkpt lat="45.55351" lon="5.42869">
        <ele>347</ele>
        <time>2021-10-02T12:19:07.572Z</time>
      </trkpt>
      <trkpt lat="45.55356" lon="5.42872">
        <ele>347</ele>
        <time>2021-10-02T12:19:06.573Z</time>
      </trkpt>
      <trkpt lat="45.5536" lon="5.42874">
        <ele>346</ele>
        <time>2021-10-02T12:19:05.573Z</time>
      </trkpt>
      <trkpt lat="45.55363" lon="5.42876">
        <ele>346</ele>
        <time>2021-10-02T12:19:04.572Z</time>
      </trkpt>
      <trkpt lat="45.55368" lon="5.42879">
        <ele>346</ele>
        <time>2021-10-02T12:19:03.573Z</time>
      </trkpt>
      <trkpt lat="45.55371" lon="5.42881">
        <ele>346</ele>
        <time>2021-10-02T12:19:02.573Z</time>
      </trkpt>
      <trkpt lat="45.55375" lon="5.42884">
        <ele>346</ele>
        <time>2021-10-02T12:19:01.573Z</time>
      </trkpt>
      <trkpt lat="45.55379" lon="5.42885">
        <ele>346</ele>
        <time>2021-10-02T12:19:00.573Z</time>
      </trkpt>
      <trkpt lat="45.55384" lon="5.42887">
        <ele>346</ele>
        <time>2021-10-02T12:18:59.573Z</time>
      </trkpt>
      <trkpt lat="45.55388" lon="5.4289">
        <ele>347</ele>
        <time>2021-10-02T12:18:58.573Z</time>
      </trkpt>
      <trkpt lat="45.55392" lon="5.42892">
        <ele>347</ele>
        <time>2021-10-02T12:18:57.573Z</time>
      </trkpt>
      <trkpt lat="45.55397" lon="5.42894">
        <ele>347</ele>
        <time>2021-10-02T12:18:56.573Z</time>
      </trkpt>
      <trkpt lat="45.55401" lon="5.42896">
        <ele>348</ele>
        <time>2021-10-02T12:18:55.573Z</time>
      </trkpt>
      <trkpt lat="45.55405" lon="5.42898">
        <ele>349</ele>
        <time>2021-10-02T12:18:54.573Z</time>
      </trkpt>
      <trkpt lat="45.55409" lon="5.429">
        <ele>349</ele>
        <time>2021-10-02T12:18:53.572Z</time>
      </trkpt>
      <trkpt lat="45.55413" lon="5.42902">
        <ele>349</ele>
        <time>2021-10-02T12:18:52.573Z</time>
      </trkpt>
      <trkpt lat="45.55417" lon="5.42904">
        <ele>349</ele>
        <time>2021-10-02T12:18:51.573Z</time>
      </trkpt>
      <trkpt lat="45.55422" lon="5.42905">
        <ele>350</ele>
        <time>2021-10-02T12:18:50.573Z</time>
      </trkpt>
      <trkpt lat="45.55426" lon="5.42907">
        <ele>350</ele>
        <time>2021-10-02T12:18:49.573Z</time>
      </trkpt>
      <trkpt lat="45.55431" lon="5.4291">
        <ele>350</ele>
        <time>2021-10-02T12:18:48.573Z</time>
      </trkpt>
      <trkpt lat="45.55435" lon="5.42911">
        <ele>350</ele>
        <time>2021-10-02T12:18:47.573Z</time>
      </trkpt>
      <trkpt lat="45.55439" lon="5.42912">
        <ele>349</ele>
        <time>2021-10-02T12:18:46.573Z</time>
      </trkpt>
      <trkpt lat="45.55443" lon="5.42913">
        <ele>349</ele>
        <time>2021-10-02T12:18:45.572Z</time>
      </trkpt>
      <trkpt lat="45.55448" lon="5.42914">
        <ele>349</ele>
        <time>2021-10-02T12:18:44.573Z</time>
      </trkpt>
      <trkpt lat="45.55453" lon="5.42916">
        <ele>349</ele>
        <time>2021-10-02T12:18:43.573Z</time>
      </trkpt>
      <trkpt lat="45.55457" lon="5.42917">
        <ele>349</ele>
        <time>2021-10-02T12:18:42.572Z</time>
      </trkpt>
      <trkpt lat="45.55462" lon="5.42919">
        <ele>349</ele>
        <time>2021-10-02T12:18:41.572Z</time>
      </trkpt>
      <trkpt lat="45.55467" lon="5.4292">
        <ele>349</ele>
        <time>2021-10-02T12:18:40.573Z</time>
      </trkpt>
      <trkpt lat="45.55471" lon="5.42921">
        <ele>349</ele>
        <time>2021-10-02T12:18:39.573Z</time>
      </trkpt>
      <trkpt lat="45.55476" lon="5.42922">
        <ele>349</ele>
        <time>2021-10-02T12:18:38.573Z</time>
      </trkpt>
      <trkpt lat="45.5548" lon="5.42922">
        <ele>349</ele>
        <time>2021-10-02T12:18:37.573Z</time>
      </trkpt>
      <trkpt lat="45.55484" lon="5.42923">
        <ele>349</ele>
        <time>2021-10-02T12:18:36.573Z</time>
      </trkpt>
      <trkpt lat="45.55489" lon="5.42924">
        <ele>349</ele>
        <time>2021-10-02T12:18:35.573Z</time>
      </trkpt>
      <trkpt lat="45.55494" lon="5.42924">
        <ele>349</ele>
        <time>2021-10-02T12:18:34.572Z</time>
      </trkpt>
      <trkpt lat="45.55499" lon="5.42925">
        <ele>349</ele>
        <time>2021-10-02T12:18:33.573Z</time>
      </trkpt>
      <trkpt lat="45.55503" lon="5.42925">
        <ele>349</ele>
        <time>2021-10-02T12:18:32.572Z</time>
      </trkpt>
      <trkpt lat="45.55507" lon="5.42925">
        <ele>349</ele>
        <time>2021-10-02T12:18:31.573Z</time>
      </trkpt>
      <trkpt lat="45.55511" lon="5.42925">
        <ele>350</ele>
        <time>2021-10-02T12:18:30.572Z</time>
      </trkpt>
      <trkpt lat="45.55515" lon="5.42925">
        <ele>350</ele>
        <time>2021-10-02T12:18:29.573Z</time>
      </trkpt>
      <trkpt lat="45.5552" lon="5.42925">
        <ele>349</ele>
        <time>2021-10-02T12:18:28.572Z</time>
      </trkpt>
      <trkpt lat="45.55524" lon="5.42925">
        <ele>349</ele>
        <time>2021-10-02T12:18:27.573Z</time>
      </trkpt>
      <trkpt lat="45.55529" lon="5.42923">
        <ele>349</ele>
        <time>2021-10-02T12:18:26.573Z</time>
      </trkpt>
      <trkpt lat="45.55533" lon="5.42921">
        <ele>349</ele>
        <time>2021-10-02T12:18:25.573Z</time>
      </trkpt>
      <trkpt lat="45.55537" lon="5.42918">
        <ele>348</ele>
        <time>2021-10-02T12:18:24.573Z</time>
      </trkpt>
      <trkpt lat="45.55542" lon="5.42916">
        <ele>348</ele>
        <time>2021-10-02T12:18:23.573Z</time>
      </trkpt>
      <trkpt lat="45.55545" lon="5.42915">
        <ele>348</ele>
        <time>2021-10-02T12:18:22.573Z</time>
      </trkpt>
      <trkpt lat="45.55548" lon="5.42914">
        <ele>347</ele>
        <time>2021-10-02T12:18:21.572Z</time>
      </trkpt>
      <trkpt lat="45.55552" lon="5.42912">
        <ele>346</ele>
        <time>2021-10-02T12:18:20.573Z</time>
      </trkpt>
      <trkpt lat="45.55556" lon="5.4291">
        <ele>346</ele>
        <time>2021-10-02T12:18:19.572Z</time>
      </trkpt>
      <trkpt lat="45.55559" lon="5.42908">
        <ele>345</ele>
        <time>2021-10-02T12:18:18.573Z</time>
      </trkpt>
      <trkpt lat="45.55563" lon="5.42905">
        <ele>344</ele>
        <time>2021-10-02T12:18:17.572Z</time>
      </trkpt>
      <trkpt lat="45.55567" lon="5.42903">
        <ele>343</ele>
        <time>2021-10-02T12:18:16.573Z</time>
      </trkpt>
      <trkpt lat="45.55572" lon="5.42899">
        <ele>342</ele>
        <time>2021-10-02T12:18:15.572Z</time>
      </trkpt>
      <trkpt lat="45.55576" lon="5.42896">
        <ele>342</ele>
        <time>2021-10-02T12:18:14.573Z</time>
      </trkpt>
      <trkpt lat="45.55582" lon="5.42893">
        <ele>341</ele>
        <time>2021-10-02T12:18:13.573Z</time>
      </trkpt>
      <trkpt lat="45.55585" lon="5.42891">
        <ele>341</ele>
        <time>2021-10-02T12:18:12.573Z</time>
      </trkpt>
      <trkpt lat="45.55591" lon="5.42889">
        <ele>341</ele>
        <time>2021-10-02T12:18:11.573Z</time>
      </trkpt>
      <trkpt lat="45.55594" lon="5.42887">
        <ele>340</ele>
        <time>2021-10-02T12:18:10.572Z</time>
      </trkpt>
      <trkpt lat="45.55597" lon="5.42885">
        <ele>340</ele>
        <time>2021-10-02T12:18:09.573Z</time>
      </trkpt>
      <trkpt lat="45.55602" lon="5.42882">
        <ele>339</ele>
        <time>2021-10-02T12:18:08.572Z</time>
      </trkpt>
      <trkpt lat="45.55605" lon="5.4288">
        <ele>338</ele>
        <time>2021-10-02T12:18:07.573Z</time>
      </trkpt>
      <trkpt lat="45.55608" lon="5.42877">
        <ele>338</ele>
        <time>2021-10-02T12:18:06.573Z</time>
      </trkpt>
      <trkpt lat="45.55612" lon="5.42875">
        <ele>337</ele>
        <time>2021-10-02T12:18:05.573Z</time>
      </trkpt>
      <trkpt lat="45.55616" lon="5.42873">
        <ele>336</ele>
        <time>2021-10-02T12:18:04.572Z</time>
      </trkpt>
      <trkpt lat="45.55621" lon="5.4287">
        <ele>335</ele>
        <time>2021-10-02T12:18:03.573Z</time>
      </trkpt>
      <trkpt lat="45.55625" lon="5.42867">
        <ele>334</ele>
        <time>2021-10-02T12:18:02.573Z</time>
      </trkpt>
      <trkpt lat="45.5563" lon="5.42865">
        <ele>334</ele>
        <time>2021-10-02T12:18:01.572Z</time>
      </trkpt>
      <trkpt lat="45.55633" lon="5.42862">
        <ele>333</ele>
        <time>2021-10-02T12:18:00.572Z</time>
      </trkpt>
      <trkpt lat="45.55637" lon="5.42859">
        <ele>333</ele>
        <time>2021-10-02T12:17:59.572Z</time>
      </trkpt>
      <trkpt lat="45.55641" lon="5.42856">
        <ele>332</ele>
        <time>2021-10-02T12:17:58.572Z</time>
      </trkpt>
      <trkpt lat="45.55645" lon="5.42854">
        <ele>332</ele>
        <time>2021-10-02T12:17:57.573Z</time>
      </trkpt>
      <trkpt lat="45.55649" lon="5.42852">
        <ele>331</ele>
        <time>2021-10-02T12:17:56.573Z</time>
      </trkpt>
      <trkpt lat="45.55654" lon="5.42849">
        <ele>330</ele>
        <time>2021-10-02T12:17:55.573Z</time>
      </trkpt>
      <trkpt lat="45.55658" lon="5.42846">
        <ele>330</ele>
        <time>2021-10-02T12:17:54.573Z</time>
      </trkpt>
      <trkpt lat="45.55663" lon="5.42842">
        <ele>330</ele>
        <time>2021-10-02T12:17:53.573Z</time>
      </trkpt>
      <trkpt lat="45.55666" lon="5.4284">
        <ele>330</ele>
        <time>2021-10-02T12:17:52.573Z</time>
      </trkpt>
      <trkpt lat="45.5567" lon="5.42838">
        <ele>329</ele>
        <time>2021-10-02T12:17:51.573Z</time>
      </trkpt>
      <trkpt lat="45.55674" lon="5.42835">
        <ele>329</ele>
        <time>2021-10-02T12:17:50.572Z</time>
      </trkpt>
      <trkpt lat="45.55677" lon="5.42832">
        <ele>329</ele>
        <time>2021-10-02T12:17:49.573Z</time>
      </trkpt>
      <trkpt lat="45.55682" lon="5.42829">
        <ele>329</ele>
        <time>2021-10-02T12:17:48.573Z</time>
      </trkpt>
      <trkpt lat="45.55686" lon="5.42826">
        <ele>329</ele>
        <time>2021-10-02T12:17:47.573Z</time>
      </trkpt>
      <trkpt lat="45.55689" lon="5.42824">
        <ele>328</ele>
        <time>2021-10-02T12:17:46.573Z</time>
      </trkpt>
      <trkpt lat="45.55692" lon="5.42821">
        <ele>328</ele>
        <time>2021-10-02T12:17:45.573Z</time>
      </trkpt>
      <trkpt lat="45.55697" lon="5.42817">
        <ele>328</ele>
        <time>2021-10-02T12:17:44.573Z</time>
      </trkpt>
      <trkpt lat="45.55701" lon="5.42814">
        <ele>328</ele>
        <time>2021-10-02T12:17:43.573Z</time>
      </trkpt>
      <trkpt lat="45.55705" lon="5.42811">
        <ele>328</ele>
        <time>2021-10-02T12:17:42.572Z</time>
      </trkpt>
      <trkpt lat="45.55708" lon="5.42809">
        <ele>329</ele>
        <time>2021-10-02T12:17:41.572Z</time>
      </trkpt>
      <trkpt lat="45.55712" lon="5.42806">
        <ele>329</ele>
        <time>2021-10-02T12:17:40.573Z</time>
      </trkpt>
      <trkpt lat="45.55716" lon="5.42803">
        <ele>329</ele>
        <time>2021-10-02T12:17:39.573Z</time>
      </trkpt>
      <trkpt lat="45.5572" lon="5.428">
        <ele>329</ele>
        <time>2021-10-02T12:17:38.573Z</time>
      </trkpt>
      <trkpt lat="45.55723" lon="5.42797">
        <ele>328</ele>
        <time>2021-10-02T12:17:37.573Z</time>
      </trkpt>
      <trkpt lat="45.55727" lon="5.42794">
        <ele>328</ele>
        <time>2021-10-02T12:17:36.573Z</time>
      </trkpt>
      <trkpt lat="45.55731" lon="5.42791">
        <ele>328</ele>
        <time>2021-10-02T12:17:35.573Z</time>
      </trkpt>
      <trkpt lat="45.55735" lon="5.42788">
        <ele>328</ele>
        <time>2021-10-02T12:17:34.573Z</time>
      </trkpt>
      <trkpt lat="45.55739" lon="5.42785">
        <ele>328</ele>
        <time>2021-10-02T12:17:33.573Z</time>
      </trkpt>
      <trkpt lat="45.55743" lon="5.42782">
        <ele>328</ele>
        <time>2021-10-02T12:17:32.573Z</time>
      </trkpt>
      <trkpt lat="45.55747" lon="5.42779">
        <ele>328</ele>
        <time>2021-10-02T12:17:31.572Z</time>
      </trkpt>
      <trkpt lat="45.55751" lon="5.42776">
        <ele>328</ele>
        <time>2021-10-02T12:17:30.573Z</time>
      </trkpt>
      <trkpt lat="45.55755" lon="5.42773">
        <ele>328</ele>
        <time>2021-10-02T12:17:29.573Z</time>
      </trkpt>
      <trkpt lat="45.55761" lon="5.4277">
        <ele>328</ele>
        <time>2021-10-02T12:17:28.572Z</time>
      </trkpt>
      <trkpt lat="45.55764" lon="5.42769">
        <ele>328</ele>
        <time>2021-10-02T12:17:27.573Z</time>
      </trkpt>
      <trkpt lat="45.55767" lon="5.42767">
        <ele>328</ele>
        <time>2021-10-02T12:17:26.572Z</time>
      </trkpt>
      <trkpt lat="45.55771" lon="5.42764">
        <ele>327</ele>
        <time>2021-10-02T12:17:25.573Z</time>
      </trkpt>
      <trkpt lat="45.55775" lon="5.42761">
        <ele>327</ele>
        <time>2021-10-02T12:17:24.573Z</time>
      </trkpt>
      <trkpt lat="45.55779" lon="5.42758">
        <ele>327</ele>
        <time>2021-10-02T12:17:23.573Z</time>
      </trkpt>
      <trkpt lat="45.55782" lon="5.42755">
        <ele>326</ele>
        <time>2021-10-02T12:17:22.573Z</time>
      </trkpt>
      <trkpt lat="45.55787" lon="5.42752">
        <ele>326</ele>
        <time>2021-10-02T12:17:21.573Z</time>
      </trkpt>
      <trkpt lat="45.55791" lon="5.42749">
        <ele>326</ele>
        <time>2021-10-02T12:17:20.572Z</time>
      </trkpt>
      <trkpt lat="45.55796" lon="5.42746">
        <ele>326</ele>
        <time>2021-10-02T12:17:19.573Z</time>
      </trkpt>
      <trkpt lat="45.558" lon="5.42744">
        <ele>325</ele>
        <time>2021-10-02T12:17:18.573Z</time>
      </trkpt>
      <trkpt lat="45.55804" lon="5.42742">
        <ele>325</ele>
        <time>2021-10-02T12:17:17.573Z</time>
      </trkpt>
      <trkpt lat="45.55808" lon="5.42739">
        <ele>325</ele>
        <time>2021-10-02T12:17:16.573Z</time>
      </trkpt>
      <trkpt lat="45.55812" lon="5.42737">
        <ele>325</ele>
        <time>2021-10-02T12:17:15.573Z</time>
      </trkpt>
      <trkpt lat="45.55817" lon="5.42735">
        <ele>325</ele>
        <time>2021-10-02T12:17:14.573Z</time>
      </trkpt>
      <trkpt lat="45.55822" lon="5.42732">
        <ele>325</ele>
        <time>2021-10-02T12:17:13.573Z</time>
      </trkpt>
      <trkpt lat="45.55825" lon="5.42731">
        <ele>325</ele>
        <time>2021-10-02T12:17:12.573Z</time>
      </trkpt>
      <trkpt lat="45.5583" lon="5.42728">
        <ele>325</ele>
        <time>2021-10-02T12:17:11.573Z</time>
      </trkpt>
      <trkpt lat="45.55834" lon="5.42726">
        <ele>325</ele>
        <time>2021-10-02T12:17:10.572Z</time>
      </trkpt>
      <trkpt lat="45.55839" lon="5.42725">
        <ele>325</ele>
        <time>2021-10-02T12:17:09.573Z</time>
      </trkpt>
      <trkpt lat="45.55844" lon="5.42723">
        <ele>324</ele>
        <time>2021-10-02T12:17:08.573Z</time>
      </trkpt>
      <trkpt lat="45.55847" lon="5.42721">
        <ele>323</ele>
        <time>2021-10-02T12:17:07.573Z</time>
      </trkpt>
      <trkpt lat="45.55852" lon="5.4272">
        <ele>322</ele>
        <time>2021-10-02T12:17:06.573Z</time>
      </trkpt>
      <trkpt lat="45.55856" lon="5.42718">
        <ele>321</ele>
        <time>2021-10-02T12:17:05.573Z</time>
      </trkpt>
      <trkpt lat="45.55862" lon="5.42717">
        <ele>320</ele>
        <time>2021-10-02T12:17:04.572Z</time>
      </trkpt>
      <trkpt lat="45.55866" lon="5.42715">
        <ele>320</ele>
        <time>2021-10-02T12:17:03.573Z</time>
      </trkpt>
      <trkpt lat="45.5587" lon="5.42715">
        <ele>319</ele>
        <time>2021-10-02T12:17:02.573Z</time>
      </trkpt>
      <trkpt lat="45.55875" lon="5.42714">
        <ele>319</ele>
        <time>2021-10-02T12:17:01.573Z</time>
      </trkpt>
      <trkpt lat="45.55881" lon="5.42715">
        <ele>319</ele>
        <time>2021-10-02T12:17:00.573Z</time>
      </trkpt>
      <trkpt lat="45.55885" lon="5.42716">
        <ele>318</ele>
        <time>2021-10-02T12:16:59.573Z</time>
      </trkpt>
      <trkpt lat="45.55889" lon="5.42717">
        <ele>317</ele>
        <time>2021-10-02T12:16:58.573Z</time>
      </trkpt>
      <trkpt lat="45.55893" lon="5.42719">
        <ele>317</ele>
        <time>2021-10-02T12:16:57.573Z</time>
      </trkpt>
      <trkpt lat="45.55898" lon="5.42723">
        <ele>316</ele>
        <time>2021-10-02T12:16:56.573Z</time>
      </trkpt>
      <trkpt lat="45.55903" lon="5.42728">
        <ele>316</ele>
        <time>2021-10-02T12:16:55.572Z</time>
      </trkpt>
      <trkpt lat="45.55908" lon="5.42732">
        <ele>316</ele>
        <time>2021-10-02T12:16:54.572Z</time>
      </trkpt>
      <trkpt lat="45.55911" lon="5.42736">
        <ele>316</ele>
        <time>2021-10-02T12:16:53.573Z</time>
      </trkpt>
      <trkpt lat="45.55916" lon="5.42741">
        <ele>316</ele>
        <time>2021-10-02T12:16:52.573Z</time>
      </trkpt>
      <trkpt lat="45.5592" lon="5.42746">
        <ele>315</ele>
        <time>2021-10-02T12:16:51.572Z</time>
      </trkpt>
      <trkpt lat="45.55926" lon="5.42753">
        <ele>316</ele>
        <time>2021-10-02T12:16:50.573Z</time>
      </trkpt>
      <trkpt lat="45.5593" lon="5.42758">
        <ele>316</ele>
        <time>2021-10-02T12:16:49.573Z</time>
      </trkpt>
      <trkpt lat="45.55934" lon="5.42762">
        <ele>317</ele>
        <time>2021-10-02T12:16:48.573Z</time>
      </trkpt>
      <trkpt lat="45.55939" lon="5.42768">
        <ele>317</ele>
        <time>2021-10-02T12:16:47.573Z</time>
      </trkpt>
      <trkpt lat="45.55943" lon="5.42773">
        <ele>318</ele>
        <time>2021-10-02T12:16:46.573Z</time>
      </trkpt>
      <trkpt lat="45.55948" lon="5.42781">
        <ele>318</ele>
        <time>2021-10-02T12:16:45.573Z</time>
      </trkpt>
      <trkpt lat="45.55952" lon="5.42787">
        <ele>319</ele>
        <time>2021-10-02T12:16:44.573Z</time>
      </trkpt>
      <trkpt lat="45.55955" lon="5.42792">
        <ele>319</ele>
        <time>2021-10-02T12:16:43.573Z</time>
      </trkpt>
      <trkpt lat="45.55959" lon="5.42799">
        <ele>319</ele>
        <time>2021-10-02T12:16:42.572Z</time>
      </trkpt>
      <trkpt lat="45.55963" lon="5.42806">
        <ele>318</ele>
        <time>2021-10-02T12:16:41.573Z</time>
      </trkpt>
      <trkpt lat="45.55967" lon="5.42813">
        <ele>318</ele>
        <time>2021-10-02T12:16:40.573Z</time>
      </trkpt>
      <trkpt lat="45.5597" lon="5.42818">
        <ele>318</ele>
        <time>2021-10-02T12:16:39.573Z</time>
      </trkpt>
      <trkpt lat="45.55973" lon="5.42825">
        <ele>318</ele>
        <time>2021-10-02T12:16:38.572Z</time>
      </trkpt>
      <trkpt lat="45.55977" lon="5.42832">
        <ele>317</ele>
        <time>2021-10-02T12:16:37.573Z</time>
      </trkpt>
      <trkpt lat="45.55981" lon="5.42841">
        <ele>317</ele>
        <time>2021-10-02T12:16:36.573Z</time>
      </trkpt>
      <trkpt lat="45.55985" lon="5.42848">
        <ele>317</ele>
        <time>2021-10-02T12:16:35.573Z</time>
      </trkpt>
      <trkpt lat="45.55987" lon="5.42854">
        <ele>316</ele>
        <time>2021-10-02T12:16:34.573Z</time>
      </trkpt>
      <trkpt lat="45.5599" lon="5.42861">
        <ele>316</ele>
        <time>2021-10-02T12:16:33.573Z</time>
      </trkpt>
      <trkpt lat="45.55994" lon="5.42868">
        <ele>316</ele>
        <time>2021-10-02T12:16:32.572Z</time>
      </trkpt>
      <trkpt lat="45.55997" lon="5.42876">
        <ele>316</ele>
        <time>2021-10-02T12:16:31.573Z</time>
      </trkpt>
      <trkpt lat="45.56" lon="5.42884">
        <ele>316</ele>
        <time>2021-10-02T12:16:30.572Z</time>
      </trkpt>
      <trkpt lat="45.56002" lon="5.42889">
        <ele>316</ele>
        <time>2021-10-02T12:16:29.573Z</time>
      </trkpt>
      <trkpt lat="45.56005" lon="5.42896">
        <ele>315</ele>
        <time>2021-10-02T12:16:28.573Z</time>
      </trkpt>
      <trkpt lat="45.56008" lon="5.42903">
        <ele>316</ele>
        <time>2021-10-02T12:16:27.573Z</time>
      </trkpt>
      <trkpt lat="45.56011" lon="5.4291">
        <ele>316</ele>
        <time>2021-10-02T12:16:26.573Z</time>
      </trkpt>
      <trkpt lat="45.56015" lon="5.42916">
        <ele>316</ele>
        <time>2021-10-02T12:16:25.573Z</time>
      </trkpt>
      <trkpt lat="45.56018" lon="5.42923">
        <ele>316</ele>
        <time>2021-10-02T12:16:24.573Z</time>
      </trkpt>
      <trkpt lat="45.56021" lon="5.42929">
        <ele>316</ele>
        <time>2021-10-02T12:16:23.573Z</time>
      </trkpt>
      <trkpt lat="45.56026" lon="5.42936">
        <ele>316</ele>
        <time>2021-10-02T12:16:22.573Z</time>
      </trkpt>
      <trkpt lat="45.56029" lon="5.42942">
        <ele>317</ele>
        <time>2021-10-02T12:16:21.572Z</time>
      </trkpt>
      <trkpt lat="45.56035" lon="5.42947">
        <ele>317</ele>
        <time>2021-10-02T12:16:20.572Z</time>
      </trkpt>
      <trkpt lat="45.5604" lon="5.42953">
        <ele>317</ele>
        <time>2021-10-02T12:16:19.572Z</time>
      </trkpt>
      <trkpt lat="45.56042" lon="5.42954">
        <ele>317</ele>
        <time>2021-10-02T12:16:18.572Z</time>
      </trkpt>
      <trkpt lat="45.56084" lon="5.43013">
        <ele>317</ele>
        <time>2021-10-02T12:16:07.573Z</time>
      </trkpt>
      <trkpt lat="45.56089" lon="5.43016">
        <ele>317</ele>
        <time>2021-10-02T12:16:06.573Z</time>
      </trkpt>
      <trkpt lat="45.56093" lon="5.4302">
        <ele>317</ele>
        <time>2021-10-02T12:16:05.573Z</time>
      </trkpt>
      <trkpt lat="45.56097" lon="5.43024">
        <ele>317</ele>
        <time>2021-10-02T12:16:04.573Z</time>
      </trkpt>
      <trkpt lat="45.56101" lon="5.43027">
        <ele>317</ele>
        <time>2021-10-02T12:16:03.572Z</time>
      </trkpt>
      <trkpt lat="45.56106" lon="5.43032">
        <ele>318</ele>
        <time>2021-10-02T12:16:02.573Z</time>
      </trkpt>
      <trkpt lat="45.56111" lon="5.43035">
        <ele>318</ele>
        <time>2021-10-02T12:16:01.572Z</time>
      </trkpt>
      <trkpt lat="45.56116" lon="5.43038">
        <ele>318</ele>
        <time>2021-10-02T12:16:00.572Z</time>
      </trkpt>
      <trkpt lat="45.5612" lon="5.4304">
        <ele>318</ele>
        <time>2021-10-02T12:15:59.573Z</time>
      </trkpt>
      <trkpt lat="45.56125" lon="5.4304">
        <ele>318</ele>
        <time>2021-10-02T12:15:58.573Z</time>
      </trkpt>
      <trkpt lat="45.5613" lon="5.4304">
        <ele>318</ele>
        <time>2021-10-02T12:15:57.573Z</time>
      </trkpt>
      <trkpt lat="45.56134" lon="5.43039">
        <ele>318</ele>
        <time>2021-10-02T12:15:56.573Z</time>
      </trkpt>
      <trkpt lat="45.56138" lon="5.43038">
        <ele>318</ele>
        <time>2021-10-02T12:15:55.573Z</time>
      </trkpt>
      <trkpt lat="45.56143" lon="5.43036">
        <ele>318</ele>
        <time>2021-10-02T12:15:54.572Z</time>
      </trkpt>
      <trkpt lat="45.56147" lon="5.43034">
        <ele>318</ele>
        <time>2021-10-02T12:15:53.573Z</time>
      </trkpt>
      <trkpt lat="45.56152" lon="5.43034">
        <ele>318</ele>
        <time>2021-10-02T12:15:52.573Z</time>
      </trkpt>
      <trkpt lat="45.56157" lon="5.43035">
        <ele>318</ele>
        <time>2021-10-02T12:15:51.573Z</time>
      </trkpt>
      <trkpt lat="45.5616" lon="5.43036">
        <ele>318</ele>
        <time>2021-10-02T12:15:50.572Z</time>
      </trkpt>
      <trkpt lat="45.56164" lon="5.43038">
        <ele>318</ele>
        <time>2021-10-02T12:15:49.573Z</time>
      </trkpt>
      <trkpt lat="45.56168" lon="5.43041">
        <ele>318</ele>
        <time>2021-10-02T12:15:48.573Z</time>
      </trkpt>
      <trkpt lat="45.56171" lon="5.43042">
        <ele>318</ele>
        <time>2021-10-02T12:15:47.573Z</time>
      </trkpt>
      <trkpt lat="45.56174" lon="5.43043">
        <ele>318</ele>
        <time>2021-10-02T12:15:46.573Z</time>
      </trkpt>
      <trkpt lat="45.56177" lon="5.43043">
        <ele>318</ele>
        <time>2021-10-02T12:15:45.573Z</time>
      </trkpt>
      <trkpt lat="45.56181" lon="5.43042">
        <ele>318</ele>
        <time>2021-10-02T12:15:44.573Z</time>
      </trkpt>
      <trkpt lat="45.56185" lon="5.43041">
        <ele>318</ele>
        <time>2021-10-02T12:15:43.573Z</time>
      </trkpt>
      <trkpt lat="45.56189" lon="5.43038">
        <ele>318</ele>
        <time>2021-10-02T12:15:42.573Z</time>
      </trkpt>
      <trkpt lat="45.56193" lon="5.43036">
        <ele>317</ele>
        <time>2021-10-02T12:15:41.573Z</time>
      </trkpt>
      <trkpt lat="45.56197" lon="5.43033">
        <ele>317</ele>
        <time>2021-10-02T12:15:40.572Z</time>
      </trkpt>
      <trkpt lat="45.56202" lon="5.4303">
        <ele>317</ele>
        <time>2021-10-02T12:15:39.572Z</time>
      </trkpt>
      <trkpt lat="45.56208" lon="5.43026">
        <ele>317</ele>
        <time>2021-10-02T12:15:38.573Z</time>
      </trkpt>
      <trkpt lat="45.56213" lon="5.43023">
        <ele>317</ele>
        <time>2021-10-02T12:15:37.573Z</time>
      </trkpt>
      <trkpt lat="45.56217" lon="5.43021">
        <ele>316</ele>
        <time>2021-10-02T12:15:36.572Z</time>
      </trkpt>
      <trkpt lat="45.56222" lon="5.43018">
        <ele>316</ele>
        <time>2021-10-02T12:15:35.573Z</time>
      </trkpt>
      <trkpt lat="45.56227" lon="5.43014">
        <ele>315</ele>
        <time>2021-10-02T12:15:34.573Z</time>
      </trkpt>
      <trkpt lat="45.56234" lon="5.43011">
        <ele>315</ele>
        <time>2021-10-02T12:15:33.573Z</time>
      </trkpt>
      <trkpt lat="45.56239" lon="5.43008">
        <ele>315</ele>
        <time>2021-10-02T12:15:32.573Z</time>
      </trkpt>
      <trkpt lat="45.56243" lon="5.43005">
        <ele>314</ele>
        <time>2021-10-02T12:15:31.573Z</time>
      </trkpt>
      <trkpt lat="45.56249" lon="5.43003">
        <ele>314</ele>
        <time>2021-10-02T12:15:30.573Z</time>
      </trkpt>
      <trkpt lat="45.56254" lon="5.42999">
        <ele>314</ele>
        <time>2021-10-02T12:15:29.573Z</time>
      </trkpt>
      <trkpt lat="45.56261" lon="5.42996">
        <ele>313</ele>
        <time>2021-10-02T12:15:28.573Z</time>
      </trkpt>
      <trkpt lat="45.56267" lon="5.42994">
        <ele>313</ele>
        <time>2021-10-02T12:15:27.573Z</time>
      </trkpt>
      <trkpt lat="45.56271" lon="5.42992">
        <ele>313</ele>
        <time>2021-10-02T12:15:26.573Z</time>
      </trkpt>
      <trkpt lat="45.56276" lon="5.42991">
        <ele>313</ele>
        <time>2021-10-02T12:15:25.572Z</time>
      </trkpt>
      <trkpt lat="45.56282" lon="5.42991">
        <ele>313</ele>
        <time>2021-10-02T12:15:24.573Z</time>
      </trkpt>
      <trkpt lat="45.56288" lon="5.4299">
        <ele>313</ele>
        <time>2021-10-02T12:15:23.573Z</time>
      </trkpt>
      <trkpt lat="45.56293" lon="5.42991">
        <ele>313</ele>
        <time>2021-10-02T12:15:22.573Z</time>
      </trkpt>
      <trkpt lat="45.56297" lon="5.42992">
        <ele>312</ele>
        <time>2021-10-02T12:15:21.573Z</time>
      </trkpt>
      <trkpt lat="45.56302" lon="5.42993">
        <ele>312</ele>
        <time>2021-10-02T12:15:20.572Z</time>
      </trkpt>
      <trkpt lat="45.56308" lon="5.42995">
        <ele>312</ele>
        <time>2021-10-02T12:15:19.573Z</time>
      </trkpt>
      <trkpt lat="45.56313" lon="5.42997">
        <ele>312</ele>
        <time>2021-10-02T12:15:18.573Z</time>
      </trkpt>
      <trkpt lat="45.56317" lon="5.42998">
        <ele>313</ele>
        <time>2021-10-02T12:15:17.573Z</time>
      </trkpt>
      <trkpt lat="45.56322" lon="5.43">
        <ele>313</ele>
        <time>2021-10-02T12:15:16.573Z</time>
      </trkpt>
      <trkpt lat="45.56327" lon="5.43002">
        <ele>313</ele>
        <time>2021-10-02T12:15:15.573Z</time>
      </trkpt>
      <trkpt lat="45.56333" lon="5.43004">
        <ele>313</ele>
        <time>2021-10-02T12:15:14.573Z</time>
      </trkpt>
      <trkpt lat="45.56339" lon="5.43006">
        <ele>314</ele>
        <time>2021-10-02T12:15:13.572Z</time>
      </trkpt>
      <trkpt lat="45.56343" lon="5.43007">
        <ele>314</ele>
        <time>2021-10-02T12:15:12.573Z</time>
      </trkpt>
      <trkpt lat="45.56349" lon="5.43008">
        <ele>314</ele>
        <time>2021-10-02T12:15:11.573Z</time>
      </trkpt>
      <trkpt lat="45.56355" lon="5.4301">
        <ele>314</ele>
        <time>2021-10-02T12:15:10.572Z</time>
      </trkpt>
      <trkpt lat="45.56362" lon="5.43011">
        <ele>315</ele>
        <time>2021-10-02T12:15:09.572Z</time>
      </trkpt>
      <trkpt lat="45.56368" lon="5.43012">
        <ele>315</ele>
        <time>2021-10-02T12:15:08.573Z</time>
      </trkpt>
      <trkpt lat="45.56374" lon="5.43012">
        <ele>315</ele>
        <time>2021-10-02T12:15:07.573Z</time>
      </trkpt>
      <trkpt lat="45.56379" lon="5.43014">
        <ele>315</ele>
        <time>2021-10-02T12:15:06.573Z</time>
      </trkpt>
      <trkpt lat="45.56386" lon="5.43016">
        <ele>315</ele>
        <time>2021-10-02T12:15:05.573Z</time>
      </trkpt>
      <trkpt lat="45.56392" lon="5.43018">
        <ele>315</ele>
        <time>2021-10-02T12:15:04.573Z</time>
      </trkpt>
      <trkpt lat="45.56398" lon="5.4302">
        <ele>315</ele>
        <time>2021-10-02T12:15:03.572Z</time>
      </trkpt>
      <trkpt lat="45.56404" lon="5.43022">
        <ele>315</ele>
        <time>2021-10-02T12:15:02.572Z</time>
      </trkpt>
      <trkpt lat="45.5641" lon="5.43024">
        <ele>314</ele>
        <time>2021-10-02T12:15:01.572Z</time>
      </trkpt>
      <trkpt lat="45.56416" lon="5.43025">
        <ele>314</ele>
        <time>2021-10-02T12:15:00.572Z</time>
      </trkpt>
      <trkpt lat="45.56422" lon="5.43027">
        <ele>314</ele>
        <time>2021-10-02T12:14:59.572Z</time>
      </trkpt>
      <trkpt lat="45.56428" lon="5.43029">
        <ele>314</ele>
        <time>2021-10-02T12:14:58.573Z</time>
      </trkpt>
      <trkpt lat="45.56433" lon="5.43031">
        <ele>314</ele>
        <time>2021-10-02T12:14:57.572Z</time>
      </trkpt>
      <trkpt lat="45.5644" lon="5.43033">
        <ele>313</ele>
        <time>2021-10-02T12:14:56.573Z</time>
      </trkpt>
      <trkpt lat="45.56446" lon="5.43035">
        <ele>313</ele>
        <time>2021-10-02T12:14:55.573Z</time>
      </trkpt>
      <trkpt lat="45.56452" lon="5.43038">
        <ele>313</ele>
        <time>2021-10-02T12:14:54.572Z</time>
      </trkpt>
      <trkpt lat="45.56458" lon="5.4304">
        <ele>313</ele>
        <time>2021-10-02T12:14:53.573Z</time>
      </trkpt>
      <trkpt lat="45.56464" lon="5.43043">
        <ele>313</ele>
        <time>2021-10-02T12:14:52.573Z</time>
      </trkpt>
      <trkpt lat="45.56468" lon="5.43045">
        <ele>313</ele>
        <time>2021-10-02T12:14:51.572Z</time>
      </trkpt>
      <trkpt lat="45.56475" lon="5.43047">
        <ele>313</ele>
        <time>2021-10-02T12:14:50.572Z</time>
      </trkpt>
      <trkpt lat="45.56481" lon="5.43049">
        <ele>313</ele>
        <time>2021-10-02T12:14:49.573Z</time>
      </trkpt>
      <trkpt lat="45.56486" lon="5.43051">
        <ele>312</ele>
        <time>2021-10-02T12:14:48.573Z</time>
      </trkpt>
      <trkpt lat="45.56492" lon="5.43053">
        <ele>312</ele>
        <time>2021-10-02T12:14:47.572Z</time>
      </trkpt>
      <trkpt lat="45.56498" lon="5.43054">
        <ele>312</ele>
        <time>2021-10-02T12:14:46.572Z</time>
      </trkpt>
      <trkpt lat="45.56504" lon="5.43056">
        <ele>313</ele>
        <time>2021-10-02T12:14:45.572Z</time>
      </trkpt>
      <trkpt lat="45.56509" lon="5.43057">
        <ele>312</ele>
        <time>2021-10-02T12:14:44.573Z</time>
      </trkpt>
      <trkpt lat="45.56515" lon="5.43059">
        <ele>312</ele>
        <time>2021-10-02T12:14:43.572Z</time>
      </trkpt>
      <trkpt lat="45.56521" lon="5.4306">
        <ele>312</ele>
        <time>2021-10-02T12:14:42.573Z</time>
      </trkpt>
      <trkpt lat="45.56527" lon="5.43062">
        <ele>312</ele>
        <time>2021-10-02T12:14:41.572Z</time>
      </trkpt>
      <trkpt lat="45.56533" lon="5.43063">
        <ele>312</ele>
        <time>2021-10-02T12:14:40.573Z</time>
      </trkpt>
      <trkpt lat="45.56539" lon="5.43065">
        <ele>312</ele>
        <time>2021-10-02T12:14:39.573Z</time>
      </trkpt>
      <trkpt lat="45.56545" lon="5.43066">
        <ele>311</ele>
        <time>2021-10-02T12:14:38.573Z</time>
      </trkpt>
      <trkpt lat="45.56551" lon="5.43067">
        <ele>311</ele>
        <time>2021-10-02T12:14:37.573Z</time>
      </trkpt>
      <trkpt lat="45.56556" lon="5.43068">
        <ele>311</ele>
        <time>2021-10-02T12:14:36.573Z</time>
      </trkpt>
      <trkpt lat="45.56562" lon="5.43069">
        <ele>311</ele>
        <time>2021-10-02T12:14:35.572Z</time>
      </trkpt>
      <trkpt lat="45.56568" lon="5.43069">
        <ele>311</ele>
        <time>2021-10-02T12:14:34.573Z</time>
      </trkpt>
      <trkpt lat="45.56575" lon="5.4307">
        <ele>311</ele>
        <time>2021-10-02T12:14:33.573Z</time>
      </trkpt>
      <trkpt lat="45.56581" lon="5.43071">
        <ele>311</ele>
        <time>2021-10-02T12:14:32.572Z</time>
      </trkpt>
      <trkpt lat="45.56588" lon="5.43071">
        <ele>311</ele>
        <time>2021-10-02T12:14:31.572Z</time>
      </trkpt>
      <trkpt lat="45.56594" lon="5.43072">
        <ele>311</ele>
        <time>2021-10-02T12:14:30.573Z</time>
      </trkpt>
      <trkpt lat="45.566" lon="5.43072">
        <ele>311</ele>
        <time>2021-10-02T12:14:29.573Z</time>
      </trkpt>
      <trkpt lat="45.56606" lon="5.43073">
        <ele>311</ele>
        <time>2021-10-02T12:14:28.573Z</time>
      </trkpt>
      <trkpt lat="45.56612" lon="5.43074">
        <ele>311</ele>
        <time>2021-10-02T12:14:27.573Z</time>
      </trkpt>
      <trkpt lat="45.56618" lon="5.43074">
        <ele>311</ele>
        <time>2021-10-02T12:14:26.573Z</time>
      </trkpt>
      <trkpt lat="45.56624" lon="5.43074">
        <ele>311</ele>
        <time>2021-10-02T12:14:25.572Z</time>
      </trkpt>
      <trkpt lat="45.56631" lon="5.43074">
        <ele>310</ele>
        <time>2021-10-02T12:14:24.573Z</time>
      </trkpt>
      <trkpt lat="45.56637" lon="5.43075">
        <ele>310</ele>
        <time>2021-10-02T12:14:23.573Z</time>
      </trkpt>
      <trkpt lat="45.56643" lon="5.43076">
        <ele>311</ele>
        <time>2021-10-02T12:14:22.573Z</time>
      </trkpt>
      <trkpt lat="45.5665" lon="5.43077">
        <ele>311</ele>
        <time>2021-10-02T12:14:21.572Z</time>
      </trkpt>
      <trkpt lat="45.56657" lon="5.43077">
        <ele>311</ele>
        <time>2021-10-02T12:14:20.572Z</time>
      </trkpt>
      <trkpt lat="45.56665" lon="5.43078">
        <ele>312</ele>
        <time>2021-10-02T12:14:19.573Z</time>
      </trkpt>
      <trkpt lat="45.56673" lon="5.43079">
        <ele>312</ele>
        <time>2021-10-02T12:14:18.572Z</time>
      </trkpt>
      <trkpt lat="45.56681" lon="5.43079">
        <ele>313</ele>
        <time>2021-10-02T12:14:17.572Z</time>
      </trkpt>
      <trkpt lat="45.56688" lon="5.4308">
        <ele>313</ele>
        <time>2021-10-02T12:14:16.572Z</time>
      </trkpt>
      <trkpt lat="45.56696" lon="5.4308">
        <ele>314</ele>
        <time>2021-10-02T12:14:15.572Z</time>
      </trkpt>
      <trkpt lat="45.56705" lon="5.4308">
        <ele>314</ele>
        <time>2021-10-02T12:14:14.572Z</time>
      </trkpt>
      <trkpt lat="45.56712" lon="5.43081">
        <ele>314</ele>
        <time>2021-10-02T12:14:13.572Z</time>
      </trkpt>
      <trkpt lat="45.5672" lon="5.43081">
        <ele>314</ele>
        <time>2021-10-02T12:14:12.573Z</time>
      </trkpt>
      <trkpt lat="45.56729" lon="5.43079">
        <ele>314</ele>
        <time>2021-10-02T12:14:11.572Z</time>
      </trkpt>
      <trkpt lat="45.56737" lon="5.43077">
        <ele>314</ele>
        <time>2021-10-02T12:14:10.573Z</time>
      </trkpt>
      <trkpt lat="45.56746" lon="5.43075">
        <ele>314</ele>
        <time>2021-10-02T12:14:09.572Z</time>
      </trkpt>
      <trkpt lat="45.56755" lon="5.43071">
        <ele>314</ele>
        <time>2021-10-02T12:14:08.572Z</time>
      </trkpt>
      <trkpt lat="45.56762" lon="5.43067">
        <ele>314</ele>
        <time>2021-10-02T12:14:07.573Z</time>
      </trkpt>
      <trkpt lat="45.5677" lon="5.43063">
        <ele>314</ele>
        <time>2021-10-02T12:14:06.573Z</time>
      </trkpt>
      <trkpt lat="45.56778" lon="5.43059">
        <ele>313</ele>
        <time>2021-10-02T12:14:05.572Z</time>
      </trkpt>
      <trkpt lat="45.56787" lon="5.43054">
        <ele>313</ele>
        <time>2021-10-02T12:14:04.573Z</time>
      </trkpt>
      <trkpt lat="45.56793" lon="5.43051">
        <ele>313</ele>
        <time>2021-10-02T12:14:03.573Z</time>
      </trkpt>
      <trkpt lat="45.568" lon="5.43048">
        <ele>313</ele>
        <time>2021-10-02T12:14:02.573Z</time>
      </trkpt>
      <trkpt lat="45.56806" lon="5.43046">
        <ele>313</ele>
        <time>2021-10-02T12:14:01.572Z</time>
      </trkpt>
      <trkpt lat="45.56812" lon="5.43045">
        <ele>313</ele>
        <time>2021-10-02T12:14:00.572Z</time>
      </trkpt>
      <trkpt lat="45.56817" lon="5.43047">
        <ele>313</ele>
        <time>2021-10-02T12:13:59.573Z</time>
      </trkpt>
      <trkpt lat="45.56821" lon="5.43052">
        <ele>313</ele>
        <time>2021-10-02T12:13:58.573Z</time>
      </trkpt>
      <trkpt lat="45.56822" lon="5.43059">
        <ele>314</ele>
        <time>2021-10-02T12:13:57.573Z</time>
      </trkpt>
      <trkpt lat="45.56822" lon="5.43068">
        <ele>314</ele>
        <time>2021-10-02T12:13:56.572Z</time>
      </trkpt>
      <trkpt lat="45.56821" lon="5.43077">
        <ele>315</ele>
        <time>2021-10-02T12:13:55.573Z</time>
      </trkpt>
      <trkpt lat="45.56819" lon="5.43088">
        <ele>315</ele>
        <time>2021-10-02T12:13:54.572Z</time>
      </trkpt>
      <trkpt lat="45.56817" lon="5.43097">
        <ele>316</ele>
        <time>2021-10-02T12:13:53.573Z</time>
      </trkpt>
      <trkpt lat="45.56815" lon="5.43108">
        <ele>316</ele>
        <time>2021-10-02T12:13:52.573Z</time>
      </trkpt>
      <trkpt lat="45.56813" lon="5.43119">
        <ele>317</ele>
        <time>2021-10-02T12:13:51.572Z</time>
      </trkpt>
      <trkpt lat="45.56811" lon="5.43131">
        <ele>317</ele>
        <time>2021-10-02T12:13:50.573Z</time>
      </trkpt>
      <trkpt lat="45.56809" lon="5.43144">
        <ele>318</ele>
        <time>2021-10-02T12:13:49.573Z</time>
      </trkpt>
      <trkpt lat="45.56808" lon="5.43156">
        <ele>318</ele>
        <time>2021-10-02T12:13:48.573Z</time>
      </trkpt>
      <trkpt lat="45.56807" lon="5.43169">
        <ele>318</ele>
        <time>2021-10-02T12:13:47.573Z</time>
      </trkpt>
      <trkpt lat="45.56806" lon="5.43182">
        <ele>319</ele>
        <time>2021-10-02T12:13:46.572Z</time>
      </trkpt>
      <trkpt lat="45.56805" lon="5.43194">
        <ele>319</ele>
        <time>2021-10-02T12:13:45.573Z</time>
      </trkpt>
      <trkpt lat="45.56805" lon="5.43206">
        <ele>320</ele>
        <time>2021-10-02T12:13:44.572Z</time>
      </trkpt>
      <trkpt lat="45.56804" lon="5.43217">
        <ele>320</ele>
        <time>2021-10-02T12:13:43.573Z</time>
      </trkpt>
      <trkpt lat="45.56804" lon="5.43229">
        <ele>321</ele>
        <time>2021-10-02T12:13:42.573Z</time>
      </trkpt>
      <trkpt lat="45.56803" lon="5.43239">
        <ele>321</ele>
        <time>2021-10-02T12:13:41.572Z</time>
      </trkpt>
      <trkpt lat="45.56801" lon="5.4325">
        <ele>321</ele>
        <time>2021-10-02T12:13:40.572Z</time>
      </trkpt>
      <trkpt lat="45.568" lon="5.43261">
        <ele>322</ele>
        <time>2021-10-02T12:13:39.573Z</time>
      </trkpt>
      <trkpt lat="45.56799" lon="5.4327">
        <ele>322</ele>
        <time>2021-10-02T12:13:38.572Z</time>
      </trkpt>
      <trkpt lat="45.56799" lon="5.4328">
        <ele>322</ele>
        <time>2021-10-02T12:13:37.573Z</time>
      </trkpt>
      <trkpt lat="45.56798" lon="5.43289">
        <ele>323</ele>
        <time>2021-10-02T12:13:36.572Z</time>
      </trkpt>
      <trkpt lat="45.56797" lon="5.43298">
        <ele>324</ele>
        <time>2021-10-02T12:13:35.572Z</time>
      </trkpt>
      <trkpt lat="45.56796" lon="5.43307">
        <ele>324</ele>
        <time>2021-10-02T12:13:34.573Z</time>
      </trkpt>
      <trkpt lat="45.56795" lon="5.43315">
        <ele>324</ele>
        <time>2021-10-02T12:13:33.573Z</time>
      </trkpt>
      <trkpt lat="45.56795" lon="5.43323">
        <ele>325</ele>
        <time>2021-10-02T12:13:32.573Z</time>
      </trkpt>
      <trkpt lat="45.56797" lon="5.43329">
        <ele>325</ele>
        <time>2021-10-02T12:13:31.572Z</time>
      </trkpt>
      <trkpt lat="45.56799" lon="5.43333">
        <ele>325</ele>
        <time>2021-10-02T12:13:30.573Z</time>
      </trkpt>
      <trkpt lat="45.56803" lon="5.43335">
        <ele>325</ele>
        <time>2021-10-02T12:13:29.573Z</time>
      </trkpt>
      <trkpt lat="45.56807" lon="5.43337">
        <ele>326</ele>
        <time>2021-10-02T12:13:28.573Z</time>
      </trkpt>
      <trkpt lat="45.56812" lon="5.43339">
        <ele>326</ele>
        <time>2021-10-02T12:13:27.573Z</time>
      </trkpt>
      <trkpt lat="45.56818" lon="5.4334">
        <ele>326</ele>
        <time>2021-10-02T12:13:26.573Z</time>
      </trkpt>
      <trkpt lat="45.56825" lon="5.43342">
        <ele>327</ele>
        <time>2021-10-02T12:13:25.573Z</time>
      </trkpt>
      <trkpt lat="45.56832" lon="5.43345">
        <ele>328</ele>
        <time>2021-10-02T12:13:24.573Z</time>
      </trkpt>
      <trkpt lat="45.56841" lon="5.43348">
        <ele>329</ele>
        <time>2021-10-02T12:13:23.572Z</time>
      </trkpt>
      <trkpt lat="45.5685" lon="5.43351">
        <ele>330</ele>
        <time>2021-10-02T12:13:22.573Z</time>
      </trkpt>
      <trkpt lat="45.56859" lon="5.43355">
        <ele>331</ele>
        <time>2021-10-02T12:13:21.573Z</time>
      </trkpt>
      <trkpt lat="45.56868" lon="5.43359">
        <ele>332</ele>
        <time>2021-10-02T12:13:20.573Z</time>
      </trkpt>
      <trkpt lat="45.56879" lon="5.43364">
        <ele>333</ele>
        <time>2021-10-02T12:13:19.573Z</time>
      </trkpt>
      <trkpt lat="45.5689" lon="5.43367">
        <ele>334</ele>
        <time>2021-10-02T12:13:18.573Z</time>
      </trkpt>
      <trkpt lat="45.56899" lon="5.4337">
        <ele>335</ele>
        <time>2021-10-02T12:13:17.573Z</time>
      </trkpt>
      <trkpt lat="45.56909" lon="5.43372">
        <ele>336</ele>
        <time>2021-10-02T12:13:16.573Z</time>
      </trkpt>
      <trkpt lat="45.56917" lon="5.43373">
        <ele>337</ele>
        <time>2021-10-02T12:13:15.572Z</time>
      </trkpt>
      <trkpt lat="45.56927" lon="5.43371">
        <ele>337</ele>
        <time>2021-10-02T12:13:14.573Z</time>
      </trkpt>
      <trkpt lat="45.56933" lon="5.43367">
        <ele>338</ele>
        <time>2021-10-02T12:13:13.573Z</time>
      </trkpt>
      <trkpt lat="45.56938" lon="5.43361">
        <ele>339</ele>
        <time>2021-10-02T12:13:12.573Z</time>
      </trkpt>
      <trkpt lat="45.56941" lon="5.43352">
        <ele>340</ele>
        <time>2021-10-02T12:13:11.572Z</time>
      </trkpt>
      <trkpt lat="45.56942" lon="5.43341">
        <ele>341</ele>
        <time>2021-10-02T12:13:10.572Z</time>
      </trkpt>
      <trkpt lat="45.56941" lon="5.43329">
        <ele>342</ele>
        <time>2021-10-02T12:13:09.573Z</time>
      </trkpt>
      <trkpt lat="45.56942" lon="5.43315">
        <ele>344</ele>
        <time>2021-10-02T12:13:08.573Z</time>
      </trkpt>
      <trkpt lat="45.56944" lon="5.433">
        <ele>345</ele>
        <time>2021-10-02T12:13:07.572Z</time>
      </trkpt>
      <trkpt lat="45.56947" lon="5.43284">
        <ele>346</ele>
        <time>2021-10-02T12:13:06.573Z</time>
      </trkpt>
      <trkpt lat="45.56952" lon="5.43267">
        <ele>347</ele>
        <time>2021-10-02T12:13:05.573Z</time>
      </trkpt>
      <trkpt lat="45.56959" lon="5.43253">
        <ele>348</ele>
        <time>2021-10-02T12:13:04.573Z</time>
      </trkpt>
      <trkpt lat="45.56967" lon="5.4324">
        <ele>349</ele>
        <time>2021-10-02T12:13:03.572Z</time>
      </trkpt>
      <trkpt lat="45.56976" lon="5.43228">
        <ele>350</ele>
        <time>2021-10-02T12:13:02.572Z</time>
      </trkpt>
      <trkpt lat="45.56983" lon="5.43216">
        <ele>351</ele>
        <time>2021-10-02T12:13:01.573Z</time>
      </trkpt>
      <trkpt lat="45.56988" lon="5.43202">
        <ele>352</ele>
        <time>2021-10-02T12:13:00.572Z</time>
      </trkpt>
      <trkpt lat="45.5699" lon="5.43187">
        <ele>353</ele>
        <time>2021-10-02T12:12:59.572Z</time>
      </trkpt>
      <trkpt lat="45.56991" lon="5.4317">
        <ele>355</ele>
        <time>2021-10-02T12:12:58.572Z</time>
      </trkpt>
      <trkpt lat="45.56989" lon="5.43152">
        <ele>355</ele>
        <time>2021-10-02T12:12:57.573Z</time>
      </trkpt>
      <trkpt lat="45.56984" lon="5.43134">
        <ele>356</ele>
        <time>2021-10-02T12:12:56.573Z</time>
      </trkpt>
      <trkpt lat="45.56981" lon="5.43117">
        <ele>357</ele>
        <time>2021-10-02T12:12:55.573Z</time>
      </trkpt>
      <trkpt lat="45.5698" lon="5.431">
        <ele>358</ele>
        <time>2021-10-02T12:12:54.573Z</time>
      </trkpt>
      <trkpt lat="45.5698" lon="5.43083">
        <ele>359</ele>
        <time>2021-10-02T12:12:53.572Z</time>
      </trkpt>
      <trkpt lat="45.56982" lon="5.43066">
        <ele>360</ele>
        <time>2021-10-02T12:12:52.572Z</time>
      </trkpt>
      <trkpt lat="45.56985" lon="5.4305">
        <ele>361</ele>
        <time>2021-10-02T12:12:51.573Z</time>
      </trkpt>
      <trkpt lat="45.56988" lon="5.43033">
        <ele>362</ele>
        <time>2021-10-02T12:12:50.573Z</time>
      </trkpt>
      <trkpt lat="45.56992" lon="5.43018">
        <ele>362</ele>
        <time>2021-10-02T12:12:49.573Z</time>
      </trkpt>
      <trkpt lat="45.56996" lon="5.43002">
        <ele>363</ele>
        <time>2021-10-02T12:12:48.572Z</time>
      </trkpt>
      <trkpt lat="45.56998" lon="5.42987">
        <ele>364</ele>
        <time>2021-10-02T12:12:47.573Z</time>
      </trkpt>
      <trkpt lat="45.56998" lon="5.42971">
        <ele>365</ele>
        <time>2021-10-02T12:12:46.572Z</time>
      </trkpt>
      <trkpt lat="45.56995" lon="5.42957">
        <ele>366</ele>
        <time>2021-10-02T12:12:45.573Z</time>
      </trkpt>
      <trkpt lat="45.5699" lon="5.42944">
        <ele>367</ele>
        <time>2021-10-02T12:12:44.573Z</time>
      </trkpt>
      <trkpt lat="45.56985" lon="5.42931">
        <ele>367</ele>
        <time>2021-10-02T12:12:43.572Z</time>
      </trkpt>
      <trkpt lat="45.56979" lon="5.42919">
        <ele>368</ele>
        <time>2021-10-02T12:12:42.572Z</time>
      </trkpt>
      <trkpt lat="45.56975" lon="5.42908">
        <ele>368</ele>
        <time>2021-10-02T12:12:41.573Z</time>
      </trkpt>
      <trkpt lat="45.56972" lon="5.42897">
        <ele>369</ele>
        <time>2021-10-02T12:12:40.573Z</time>
      </trkpt>
      <trkpt lat="45.56969" lon="5.42886">
        <ele>370</ele>
        <time>2021-10-02T12:12:39.573Z</time>
      </trkpt>
      <trkpt lat="45.56967" lon="5.42875">
        <ele>370</ele>
        <time>2021-10-02T12:12:38.573Z</time>
      </trkpt>
      <trkpt lat="45.56965" lon="5.42865">
        <ele>371</ele>
        <time>2021-10-02T12:12:37.573Z</time>
      </trkpt>
      <trkpt lat="45.56966" lon="5.42856">
        <ele>371</ele>
        <time>2021-10-02T12:12:36.572Z</time>
      </trkpt>
      <trkpt lat="45.56967" lon="5.4285">
        <ele>372</ele>
        <time>2021-10-02T12:12:35.572Z</time>
      </trkpt>
      <trkpt lat="45.56972" lon="5.42846">
        <ele>372</ele>
        <time>2021-10-02T12:12:34.573Z</time>
      </trkpt>
      <trkpt lat="45.56976" lon="5.42849">
        <ele>373</ele>
        <time>2021-10-02T12:12:33.572Z</time>
      </trkpt>
      <trkpt lat="45.5698" lon="5.42856">
        <ele>374</ele>
        <time>2021-10-02T12:12:32.573Z</time>
      </trkpt>
      <trkpt lat="45.56983" lon="5.42865">
        <ele>374</ele>
        <time>2021-10-02T12:12:31.573Z</time>
      </trkpt>
      <trkpt lat="45.56986" lon="5.42874">
        <ele>375</ele>
        <time>2021-10-02T12:12:30.572Z</time>
      </trkpt>
      <trkpt lat="45.56991" lon="5.42889">
        <ele>376</ele>
        <time>2021-10-02T12:12:29.572Z</time>
      </trkpt>
      <trkpt lat="45.56997" lon="5.42902">
        <ele>376</ele>
        <time>2021-10-02T12:12:28.572Z</time>
      </trkpt>
      <trkpt lat="45.57003" lon="5.42915">
        <ele>377</ele>
        <time>2021-10-02T12:12:27.573Z</time>
      </trkpt>
      <trkpt lat="45.5701" lon="5.42927">
        <ele>378</ele>
        <time>2021-10-02T12:12:26.573Z</time>
      </trkpt>
      <trkpt lat="45.57017" lon="5.42939">
        <ele>379</ele>
        <time>2021-10-02T12:12:25.573Z</time>
      </trkpt>
      <trkpt lat="45.57024" lon="5.42951">
        <ele>380</ele>
        <time>2021-10-02T12:12:24.572Z</time>
      </trkpt>
      <trkpt lat="45.5703" lon="5.42963">
        <ele>382</ele>
        <time>2021-10-02T12:12:23.573Z</time>
      </trkpt>
      <trkpt lat="45.57035" lon="5.42976">
        <ele>383</ele>
        <time>2021-10-02T12:12:22.573Z</time>
      </trkpt>
      <trkpt lat="45.5704" lon="5.4299">
        <ele>385</ele>
        <time>2021-10-02T12:12:21.573Z</time>
      </trkpt>
      <trkpt lat="45.57046" lon="5.43">
        <ele>386</ele>
        <time>2021-10-02T12:12:20.572Z</time>
      </trkpt>
      <trkpt lat="45.57053" lon="5.43007">
        <ele>387</ele>
        <time>2021-10-02T12:12:19.573Z</time>
      </trkpt>
      <trkpt lat="45.57062" lon="5.43011">
        <ele>388</ele>
        <time>2021-10-02T12:12:18.572Z</time>
      </trkpt>
      <trkpt lat="45.57071" lon="5.43012">
        <ele>388</ele>
        <time>2021-10-02T12:12:17.573Z</time>
      </trkpt>
      <trkpt lat="45.57081" lon="5.43008">
        <ele>389</ele>
        <time>2021-10-02T12:12:16.573Z</time>
      </trkpt>
      <trkpt lat="45.57092" lon="5.43003">
        <ele>389</ele>
        <time>2021-10-02T12:12:15.572Z</time>
      </trkpt>
      <trkpt lat="45.57102" lon="5.42997">
        <ele>390</ele>
        <time>2021-10-02T12:12:14.572Z</time>
      </trkpt>
      <trkpt lat="45.57112" lon="5.42991">
        <ele>390</ele>
        <time>2021-10-02T12:12:13.573Z</time>
      </trkpt>
      <trkpt lat="45.57123" lon="5.42985">
        <ele>391</ele>
        <time>2021-10-02T12:12:12.573Z</time>
      </trkpt>
      <trkpt lat="45.57133" lon="5.42978">
        <ele>391</ele>
        <time>2021-10-02T12:12:11.573Z</time>
      </trkpt>
      <trkpt lat="45.57144" lon="5.42973">
        <ele>391</ele>
        <time>2021-10-02T12:12:10.572Z</time>
      </trkpt>
      <trkpt lat="45.57155" lon="5.42967">
        <ele>392</ele>
        <time>2021-10-02T12:12:09.572Z</time>
      </trkpt>
      <trkpt lat="45.57165" lon="5.42961">
        <ele>392</ele>
        <time>2021-10-02T12:12:08.572Z</time>
      </trkpt>
      <trkpt lat="45.57175" lon="5.42956">
        <ele>393</ele>
        <time>2021-10-02T12:12:07.573Z</time>
      </trkpt>
      <trkpt lat="45.57184" lon="5.42951">
        <ele>393</ele>
        <time>2021-10-02T12:12:06.573Z</time>
      </trkpt>
      <trkpt lat="45.57192" lon="5.42946">
        <ele>394</ele>
        <time>2021-10-02T12:12:05.572Z</time>
      </trkpt>
      <trkpt lat="45.57201" lon="5.42941">
        <ele>394</ele>
        <time>2021-10-02T12:12:04.573Z</time>
      </trkpt>
      <trkpt lat="45.5721" lon="5.42937">
        <ele>394</ele>
        <time>2021-10-02T12:12:03.573Z</time>
      </trkpt>
      <trkpt lat="45.57219" lon="5.42934">
        <ele>395</ele>
        <time>2021-10-02T12:12:02.573Z</time>
      </trkpt>
      <trkpt lat="45.57227" lon="5.42931">
        <ele>395</ele>
        <time>2021-10-02T12:12:01.572Z</time>
      </trkpt>
      <trkpt lat="45.57235" lon="5.4293">
        <ele>395</ele>
        <time>2021-10-02T12:12:00.573Z</time>
      </trkpt>
      <trkpt lat="45.57242" lon="5.4293">
        <ele>395</ele>
        <time>2021-10-02T12:11:59.573Z</time>
      </trkpt>
      <trkpt lat="45.57249" lon="5.42931">
        <ele>396</ele>
        <time>2021-10-02T12:11:58.572Z</time>
      </trkpt>
      <trkpt lat="45.57253" lon="5.42936">
        <ele>397</ele>
        <time>2021-10-02T12:11:57.573Z</time>
      </trkpt>
      <trkpt lat="45.57257" lon="5.42945">
        <ele>398</ele>
        <time>2021-10-02T12:11:56.573Z</time>
      </trkpt>
      <trkpt lat="45.5726" lon="5.42954">
        <ele>398</ele>
        <time>2021-10-02T12:11:55.572Z</time>
      </trkpt>
      <trkpt lat="45.57262" lon="5.42965">
        <ele>399</ele>
        <time>2021-10-02T12:11:54.573Z</time>
      </trkpt>
      <trkpt lat="45.57263" lon="5.42976">
        <ele>400</ele>
        <time>2021-10-02T12:11:53.572Z</time>
      </trkpt>
      <trkpt lat="45.57265" lon="5.42988">
        <ele>401</ele>
        <time>2021-10-02T12:11:52.572Z</time>
      </trkpt>
      <trkpt lat="45.57266" lon="5.42999">
        <ele>403</ele>
        <time>2021-10-02T12:11:51.573Z</time>
      </trkpt>
      <trkpt lat="45.57268" lon="5.43011">
        <ele>404</ele>
        <time>2021-10-02T12:11:50.573Z</time>
      </trkpt>
      <trkpt lat="45.57271" lon="5.43021">
        <ele>405</ele>
        <time>2021-10-02T12:11:49.573Z</time>
      </trkpt>
      <trkpt lat="45.57275" lon="5.43032">
        <ele>407</ele>
        <time>2021-10-02T12:11:48.573Z</time>
      </trkpt>
      <trkpt lat="45.57279" lon="5.43041">
        <ele>408</ele>
        <time>2021-10-02T12:11:47.573Z</time>
      </trkpt>
      <trkpt lat="45.57285" lon="5.4305">
        <ele>410</ele>
        <time>2021-10-02T12:11:46.572Z</time>
      </trkpt>
      <trkpt lat="45.57292" lon="5.43059">
        <ele>411</ele>
        <time>2021-10-02T12:11:45.572Z</time>
      </trkpt>
      <trkpt lat="45.573" lon="5.43069">
        <ele>413</ele>
        <time>2021-10-02T12:11:44.573Z</time>
      </trkpt>
      <trkpt lat="45.5731" lon="5.43079">
        <ele>414</ele>
        <time>2021-10-02T12:11:43.573Z</time>
      </trkpt>
      <trkpt lat="45.57319" lon="5.4309">
        <ele>416</ele>
        <time>2021-10-02T12:11:42.573Z</time>
      </trkpt>
      <trkpt lat="45.57327" lon="5.43101">
        <ele>417</ele>
        <time>2021-10-02T12:11:41.573Z</time>
      </trkpt>
      <trkpt lat="45.57336" lon="5.43114">
        <ele>419</ele>
        <time>2021-10-02T12:11:40.573Z</time>
      </trkpt>
      <trkpt lat="45.57344" lon="5.43126">
        <ele>420</ele>
        <time>2021-10-02T12:11:39.573Z</time>
      </trkpt>
      <trkpt lat="45.57354" lon="5.43137">
        <ele>420</ele>
        <time>2021-10-02T12:11:38.572Z</time>
      </trkpt>
      <trkpt lat="45.57365" lon="5.43147">
        <ele>421</ele>
        <time>2021-10-02T12:11:37.572Z</time>
      </trkpt>
      <trkpt lat="45.57377" lon="5.43157">
        <ele>421</ele>
        <time>2021-10-02T12:11:36.572Z</time>
      </trkpt>
      <trkpt lat="45.5739" lon="5.43165">
        <ele>421</ele>
        <time>2021-10-02T12:11:35.573Z</time>
      </trkpt>
      <trkpt lat="45.57403" lon="5.43173">
        <ele>421</ele>
        <time>2021-10-02T12:11:34.573Z</time>
      </trkpt>
      <trkpt lat="45.57415" lon="5.43182">
        <ele>421</ele>
        <time>2021-10-02T12:11:33.572Z</time>
      </trkpt>
      <trkpt lat="45.57426" lon="5.43191">
        <ele>422</ele>
        <time>2021-10-02T12:11:32.573Z</time>
      </trkpt>
      <trkpt lat="45.57437" lon="5.43201">
        <ele>422</ele>
        <time>2021-10-02T12:11:31.572Z</time>
      </trkpt>
      <trkpt lat="45.57447" lon="5.43211">
        <ele>422</ele>
        <time>2021-10-02T12:11:30.573Z</time>
      </trkpt>
      <trkpt lat="45.57458" lon="5.43219">
        <ele>422</ele>
        <time>2021-10-02T12:11:29.572Z</time>
      </trkpt>
      <trkpt lat="45.5747" lon="5.43227">
        <ele>422</ele>
        <time>2021-10-02T12:11:28.573Z</time>
      </trkpt>
      <trkpt lat="45.57481" lon="5.43233">
        <ele>422</ele>
        <time>2021-10-02T12:11:27.573Z</time>
      </trkpt>
      <trkpt lat="45.57492" lon="5.43238">
        <ele>423</ele>
        <time>2021-10-02T12:11:26.573Z</time>
      </trkpt>
      <trkpt lat="45.57501" lon="5.43241">
        <ele>423</ele>
        <time>2021-10-02T12:11:25.572Z</time>
      </trkpt>
      <trkpt lat="45.57514" lon="5.43245">
        <ele>423</ele>
        <time>2021-10-02T12:11:24.572Z</time>
      </trkpt>
      <trkpt lat="45.57525" lon="5.43249">
        <ele>423</ele>
        <time>2021-10-02T12:11:23.573Z</time>
      </trkpt>
      <trkpt lat="45.57535" lon="5.43253">
        <ele>424</ele>
        <time>2021-10-02T12:11:22.572Z</time>
      </trkpt>
      <trkpt lat="45.57545" lon="5.43258">
        <ele>424</ele>
        <time>2021-10-02T12:11:21.573Z</time>
      </trkpt>
      <trkpt lat="45.57556" lon="5.43263">
        <ele>424</ele>
        <time>2021-10-02T12:11:20.573Z</time>
      </trkpt>
      <trkpt lat="45.57565" lon="5.43269">
        <ele>425</ele>
        <time>2021-10-02T12:11:19.572Z</time>
      </trkpt>
      <trkpt lat="45.57575" lon="5.43275">
        <ele>425</ele>
        <time>2021-10-02T12:11:18.572Z</time>
      </trkpt>
      <trkpt lat="45.57584" lon="5.43281">
        <ele>426</ele>
        <time>2021-10-02T12:11:17.573Z</time>
      </trkpt>
      <trkpt lat="45.57594" lon="5.43287">
        <ele>426</ele>
        <time>2021-10-02T12:11:16.573Z</time>
      </trkpt>
      <trkpt lat="45.57602" lon="5.43293">
        <ele>427</ele>
        <time>2021-10-02T12:11:15.573Z</time>
      </trkpt>
      <trkpt lat="45.57611" lon="5.43299">
        <ele>427</ele>
        <time>2021-10-02T12:11:14.572Z</time>
      </trkpt>
      <trkpt lat="45.5762" lon="5.43306">
        <ele>428</ele>
        <time>2021-10-02T12:11:13.573Z</time>
      </trkpt>
      <trkpt lat="45.57628" lon="5.43312">
        <ele>428</ele>
        <time>2021-10-02T12:11:12.573Z</time>
      </trkpt>
      <trkpt lat="45.57636" lon="5.43318">
        <ele>428</ele>
        <time>2021-10-02T12:11:11.573Z</time>
      </trkpt>
      <trkpt lat="45.57644" lon="5.43324">
        <ele>428</ele>
        <time>2021-10-02T12:11:10.573Z</time>
      </trkpt>
      <trkpt lat="45.57652" lon="5.4333">
        <ele>429</ele>
        <time>2021-10-02T12:11:09.572Z</time>
      </trkpt>
      <trkpt lat="45.5766" lon="5.43335">
        <ele>429</ele>
        <time>2021-10-02T12:11:08.573Z</time>
      </trkpt>
      <trkpt lat="45.57668" lon="5.43341">
        <ele>429</ele>
        <time>2021-10-02T12:11:07.572Z</time>
      </trkpt>
      <trkpt lat="45.57675" lon="5.43346">
        <ele>429</ele>
        <time>2021-10-02T12:11:06.573Z</time>
      </trkpt>
      <trkpt lat="45.57684" lon="5.43351">
        <ele>429</ele>
        <time>2021-10-02T12:11:05.573Z</time>
      </trkpt>
      <trkpt lat="45.57691" lon="5.43357">
        <ele>430</ele>
        <time>2021-10-02T12:11:04.573Z</time>
      </trkpt>
      <trkpt lat="45.57699" lon="5.43362">
        <ele>430</ele>
        <time>2021-10-02T12:11:03.573Z</time>
      </trkpt>
      <trkpt lat="45.57708" lon="5.43368">
        <ele>430</ele>
        <time>2021-10-02T12:11:02.573Z</time>
      </trkpt>
      <trkpt lat="45.57716" lon="5.43373">
        <ele>431</ele>
        <time>2021-10-02T12:11:01.572Z</time>
      </trkpt>
      <trkpt lat="45.57724" lon="5.43377">
        <ele>431</ele>
        <time>2021-10-02T12:11:00.573Z</time>
      </trkpt>
      <trkpt lat="45.57732" lon="5.43381">
        <ele>431</ele>
        <time>2021-10-02T12:10:59.573Z</time>
      </trkpt>
      <trkpt lat="45.5774" lon="5.43386">
        <ele>431</ele>
        <time>2021-10-02T12:10:58.572Z</time>
      </trkpt>
      <trkpt lat="45.57748" lon="5.43389">
        <ele>431</ele>
        <time>2021-10-02T12:10:57.573Z</time>
      </trkpt>
      <trkpt lat="45.57756" lon="5.43393">
        <ele>431</ele>
        <time>2021-10-02T12:10:56.572Z</time>
      </trkpt>
      <trkpt lat="45.57764" lon="5.43395">
        <ele>431</ele>
        <time>2021-10-02T12:10:55.572Z</time>
      </trkpt>
      <trkpt lat="45.57772" lon="5.43398">
        <ele>431</ele>
        <time>2021-10-02T12:10:54.572Z</time>
      </trkpt>
      <trkpt lat="45.57777" lon="5.434">
        <ele>431</ele>
        <time>2021-10-02T12:10:53.572Z</time>
      </trkpt>
      <trkpt lat="45.57786" lon="5.43404">
        <ele>431</ele>
        <time>2021-10-02T12:10:52.572Z</time>
      </trkpt>
      <trkpt lat="45.57793" lon="5.43406">
        <ele>431</ele>
        <time>2021-10-02T12:10:51.572Z</time>
      </trkpt>
      <trkpt lat="45.578" lon="5.43409">
        <ele>431</ele>
        <time>2021-10-02T12:10:50.573Z</time>
      </trkpt>
      <trkpt lat="45.57807" lon="5.4341">
        <ele>431</ele>
        <time>2021-10-02T12:10:49.573Z</time>
      </trkpt>
      <trkpt lat="45.57814" lon="5.43412">
        <ele>431</ele>
        <time>2021-10-02T12:10:48.573Z</time>
      </trkpt>
      <trkpt lat="45.5782" lon="5.43414">
        <ele>431</ele>
        <time>2021-10-02T12:10:47.573Z</time>
      </trkpt>
      <trkpt lat="45.57824" lon="5.43415">
        <ele>430</ele>
        <time>2021-10-02T12:10:46.573Z</time>
      </trkpt>
      <trkpt lat="45.5783" lon="5.43417">
        <ele>430</ele>
        <time>2021-10-02T12:10:45.572Z</time>
      </trkpt>
      <trkpt lat="45.57837" lon="5.43417">
        <ele>429</ele>
        <time>2021-10-02T12:10:44.572Z</time>
      </trkpt>
      <trkpt lat="45.57843" lon="5.43418">
        <ele>429</ele>
        <time>2021-10-02T12:10:43.573Z</time>
      </trkpt>
      <trkpt lat="45.57849" lon="5.43418">
        <ele>428</ele>
        <time>2021-10-02T12:10:42.573Z</time>
      </trkpt>
      <trkpt lat="45.57855" lon="5.43419">
        <ele>428</ele>
        <time>2021-10-02T12:10:41.573Z</time>
      </trkpt>
      <trkpt lat="45.57861" lon="5.4342">
        <ele>427</ele>
        <time>2021-10-02T12:10:40.573Z</time>
      </trkpt>
      <trkpt lat="45.57867" lon="5.4342">
        <ele>427</ele>
        <time>2021-10-02T12:10:39.573Z</time>
      </trkpt>
      <trkpt lat="45.57873" lon="5.4342">
        <ele>426</ele>
        <time>2021-10-02T12:10:38.572Z</time>
      </trkpt>
      <trkpt lat="45.57879" lon="5.43419">
        <ele>426</ele>
        <time>2021-10-02T12:10:37.573Z</time>
      </trkpt>
      <trkpt lat="45.57886" lon="5.43419">
        <ele>425</ele>
        <time>2021-10-02T12:10:36.573Z</time>
      </trkpt>
      <trkpt lat="45.57892" lon="5.43418">
        <ele>425</ele>
        <time>2021-10-02T12:10:35.573Z</time>
      </trkpt>
      <trkpt lat="45.57898" lon="5.43416">
        <ele>424</ele>
        <time>2021-10-02T12:10:34.573Z</time>
      </trkpt>
      <trkpt lat="45.57904" lon="5.43415">
        <ele>424</ele>
        <time>2021-10-02T12:10:33.573Z</time>
      </trkpt>
      <trkpt lat="45.57911" lon="5.43414">
        <ele>424</ele>
        <time>2021-10-02T12:10:32.573Z</time>
      </trkpt>
      <trkpt lat="45.57917" lon="5.43414">
        <ele>424</ele>
        <time>2021-10-02T12:10:31.573Z</time>
      </trkpt>
      <trkpt lat="45.57924" lon="5.43413">
        <ele>424</ele>
        <time>2021-10-02T12:10:30.573Z</time>
      </trkpt>
      <trkpt lat="45.5793" lon="5.43414">
        <ele>424</ele>
        <time>2021-10-02T12:10:29.573Z</time>
      </trkpt>
      <trkpt lat="45.57936" lon="5.43415">
        <ele>424</ele>
        <time>2021-10-02T12:10:28.573Z</time>
      </trkpt>
      <trkpt lat="45.57942" lon="5.43418">
        <ele>425</ele>
        <time>2021-10-02T12:10:27.573Z</time>
      </trkpt>
      <trkpt lat="45.57948" lon="5.43421">
        <ele>425</ele>
        <time>2021-10-02T12:10:26.573Z</time>
      </trkpt>
      <trkpt lat="45.57954" lon="5.43425">
        <ele>425</ele>
        <time>2021-10-02T12:10:25.573Z</time>
      </trkpt>
      <trkpt lat="45.57959" lon="5.4343">
        <ele>425</ele>
        <time>2021-10-02T12:10:24.572Z</time>
      </trkpt>
      <trkpt lat="45.57965" lon="5.43435">
        <ele>425</ele>
        <time>2021-10-02T12:10:23.572Z</time>
      </trkpt>
      <trkpt lat="45.5797" lon="5.4344">
        <ele>425</ele>
        <time>2021-10-02T12:10:22.572Z</time>
      </trkpt>
      <trkpt lat="45.57976" lon="5.43444">
        <ele>425</ele>
        <time>2021-10-02T12:10:21.573Z</time>
      </trkpt>
      <trkpt lat="45.57982" lon="5.43449">
        <ele>425</ele>
        <time>2021-10-02T12:10:20.573Z</time>
      </trkpt>
      <trkpt lat="45.57987" lon="5.43452">
        <ele>425</ele>
        <time>2021-10-02T12:10:19.573Z</time>
      </trkpt>
      <trkpt lat="45.57993" lon="5.43455">
        <ele>425</ele>
        <time>2021-10-02T12:10:18.573Z</time>
      </trkpt>
      <trkpt lat="45.57999" lon="5.43458">
        <ele>425</ele>
        <time>2021-10-02T12:10:17.573Z</time>
      </trkpt>
      <trkpt lat="45.58005" lon="5.4346">
        <ele>425</ele>
        <time>2021-10-02T12:10:16.573Z</time>
      </trkpt>
      <trkpt lat="45.58011" lon="5.43461">
        <ele>425</ele>
        <time>2021-10-02T12:10:15.573Z</time>
      </trkpt>
      <trkpt lat="45.58017" lon="5.43462">
        <ele>425</ele>
        <time>2021-10-02T12:10:14.572Z</time>
      </trkpt>
      <trkpt lat="45.58024" lon="5.43462">
        <ele>425</ele>
        <time>2021-10-02T12:10:13.573Z</time>
      </trkpt>
      <trkpt lat="45.5803" lon="5.43463">
        <ele>425</ele>
        <time>2021-10-02T12:10:12.573Z</time>
      </trkpt>
      <trkpt lat="45.58036" lon="5.43463">
        <ele>425</ele>
        <time>2021-10-02T12:10:11.573Z</time>
      </trkpt>
      <trkpt lat="45.58043" lon="5.43463">
        <ele>425</ele>
        <time>2021-10-02T12:10:10.573Z</time>
      </trkpt>
      <trkpt lat="45.58049" lon="5.43462">
        <ele>425</ele>
        <time>2021-10-02T12:10:09.572Z</time>
      </trkpt>
      <trkpt lat="45.58056" lon="5.43461">
        <ele>426</ele>
        <time>2021-10-02T12:10:08.573Z</time>
      </trkpt>
      <trkpt lat="45.58063" lon="5.4346">
        <ele>426</ele>
        <time>2021-10-02T12:10:07.572Z</time>
      </trkpt>
      <trkpt lat="45.5807" lon="5.43459">
        <ele>426</ele>
        <time>2021-10-02T12:10:06.573Z</time>
      </trkpt>
      <trkpt lat="45.58076" lon="5.43457">
        <ele>426</ele>
        <time>2021-10-02T12:10:05.573Z</time>
      </trkpt>
      <trkpt lat="45.58086" lon="5.43454">
        <ele>426</ele>
        <time>2021-10-02T12:10:04.573Z</time>
      </trkpt>
      <trkpt lat="45.58094" lon="5.43451">
        <ele>426</ele>
        <time>2021-10-02T12:10:03.572Z</time>
      </trkpt>
      <trkpt lat="45.58102" lon="5.43447">
        <ele>426</ele>
        <time>2021-10-02T12:10:02.572Z</time>
      </trkpt>
      <trkpt lat="45.58111" lon="5.43442">
        <ele>426</ele>
        <time>2021-10-02T12:10:01.573Z</time>
      </trkpt>
      <trkpt lat="45.58119" lon="5.43437">
        <ele>425</ele>
        <time>2021-10-02T12:10:00.573Z</time>
      </trkpt>
      <trkpt lat="45.58127" lon="5.43431">
        <ele>425</ele>
        <time>2021-10-02T12:09:59.572Z</time>
      </trkpt>
      <trkpt lat="45.58135" lon="5.43425">
        <ele>426</ele>
        <time>2021-10-02T12:09:58.573Z</time>
      </trkpt>
      <trkpt lat="45.58143" lon="5.43419">
        <ele>425</ele>
        <time>2021-10-02T12:09:57.573Z</time>
      </trkpt>
      <trkpt lat="45.58151" lon="5.43411">
        <ele>426</ele>
        <time>2021-10-02T12:09:56.573Z</time>
      </trkpt>
      <trkpt lat="45.58159" lon="5.43403">
        <ele>426</ele>
        <time>2021-10-02T12:09:55.573Z</time>
      </trkpt>
      <trkpt lat="45.58166" lon="5.43394">
        <ele>426</ele>
        <time>2021-10-02T12:09:54.573Z</time>
      </trkpt>
      <trkpt lat="45.58172" lon="5.43385">
        <ele>427</ele>
        <time>2021-10-02T12:09:53.573Z</time>
      </trkpt>
      <trkpt lat="45.58177" lon="5.43374">
        <ele>427</ele>
        <time>2021-10-02T12:09:52.573Z</time>
      </trkpt>
      <trkpt lat="45.58181" lon="5.43363">
        <ele>427</ele>
        <time>2021-10-02T12:09:51.573Z</time>
      </trkpt>
      <trkpt lat="45.58183" lon="5.4335">
        <ele>427</ele>
        <time>2021-10-02T12:09:50.573Z</time>
      </trkpt>
      <trkpt lat="45.58184" lon="5.43338">
        <ele>428</ele>
        <time>2021-10-02T12:09:49.573Z</time>
      </trkpt>
      <trkpt lat="45.58183" lon="5.43325">
        <ele>428</ele>
        <time>2021-10-02T12:09:48.573Z</time>
      </trkpt>
      <trkpt lat="45.5818" lon="5.43311">
        <ele>429</ele>
        <time>2021-10-02T12:09:47.573Z</time>
      </trkpt>
      <trkpt lat="45.58177" lon="5.43298">
        <ele>429</ele>
        <time>2021-10-02T12:09:46.573Z</time>
      </trkpt>
      <trkpt lat="45.58174" lon="5.43285">
        <ele>429</ele>
        <time>2021-10-02T12:09:45.573Z</time>
      </trkpt>
      <trkpt lat="45.5817" lon="5.43273">
        <ele>429</ele>
        <time>2021-10-02T12:09:44.573Z</time>
      </trkpt>
      <trkpt lat="45.58166" lon="5.43261">
        <ele>429</ele>
        <time>2021-10-02T12:09:43.573Z</time>
      </trkpt>
      <trkpt lat="45.58161" lon="5.4325">
        <ele>429</ele>
        <time>2021-10-02T12:09:42.573Z</time>
      </trkpt>
      <trkpt lat="45.58157" lon="5.43238">
        <ele>429</ele>
        <time>2021-10-02T12:09:41.573Z</time>
      </trkpt>
      <trkpt lat="45.58152" lon="5.43226">
        <ele>429</ele>
        <time>2021-10-02T12:09:40.573Z</time>
      </trkpt>
      <trkpt lat="45.58148" lon="5.43214">
        <ele>430</ele>
        <time>2021-10-02T12:09:39.573Z</time>
      </trkpt>
      <trkpt lat="45.58144" lon="5.43202">
        <ele>430</ele>
        <time>2021-10-02T12:09:38.573Z</time>
      </trkpt>
      <trkpt lat="45.5814" lon="5.4319">
        <ele>430</ele>
        <time>2021-10-02T12:09:37.573Z</time>
      </trkpt>
      <trkpt lat="45.58135" lon="5.43178">
        <ele>430</ele>
        <time>2021-10-02T12:09:36.573Z</time>
      </trkpt>
      <trkpt lat="45.58131" lon="5.43166">
        <ele>431</ele>
        <time>2021-10-02T12:09:35.572Z</time>
      </trkpt>
      <trkpt lat="45.58127" lon="5.43154">
        <ele>432</ele>
        <time>2021-10-02T12:09:34.573Z</time>
      </trkpt>
      <trkpt lat="45.58122" lon="5.43142">
        <ele>433</ele>
        <time>2021-10-02T12:09:33.573Z</time>
      </trkpt>
      <trkpt lat="45.58118" lon="5.4313">
        <ele>433</ele>
        <time>2021-10-02T12:09:32.573Z</time>
      </trkpt>
      <trkpt lat="45.58114" lon="5.43118">
        <ele>434</ele>
        <time>2021-10-02T12:09:31.573Z</time>
      </trkpt>
      <trkpt lat="45.5811" lon="5.43106">
        <ele>434</ele>
        <time>2021-10-02T12:09:30.573Z</time>
      </trkpt>
      <trkpt lat="45.58105" lon="5.43094">
        <ele>435</ele>
        <time>2021-10-02T12:09:29.573Z</time>
      </trkpt>
      <trkpt lat="45.58101" lon="5.43083">
        <ele>435</ele>
        <time>2021-10-02T12:09:28.573Z</time>
      </trkpt>
      <trkpt lat="45.58097" lon="5.43073">
        <ele>435</ele>
        <time>2021-10-02T12:09:27.573Z</time>
      </trkpt>
      <trkpt lat="45.58094" lon="5.43062">
        <ele>436</ele>
        <time>2021-10-02T12:09:26.573Z</time>
      </trkpt>
      <trkpt lat="45.5809" lon="5.43052">
        <ele>436</ele>
        <time>2021-10-02T12:09:25.573Z</time>
      </trkpt>
      <trkpt lat="45.58086" lon="5.43042">
        <ele>436</ele>
        <time>2021-10-02T12:09:24.573Z</time>
      </trkpt>
      <trkpt lat="45.58083" lon="5.43031">
        <ele>436</ele>
        <time>2021-10-02T12:09:23.572Z</time>
      </trkpt>
      <trkpt lat="45.5808" lon="5.43021">
        <ele>436</ele>
        <time>2021-10-02T12:09:22.572Z</time>
      </trkpt>
      <trkpt lat="45.58077" lon="5.43012">
        <ele>436</ele>
        <time>2021-10-02T12:09:21.572Z</time>
      </trkpt>
      <trkpt lat="45.58074" lon="5.43002">
        <ele>436</ele>
        <time>2021-10-02T12:09:20.573Z</time>
      </trkpt>
      <trkpt lat="45.58071" lon="5.42993">
        <ele>435</ele>
        <time>2021-10-02T12:09:19.573Z</time>
      </trkpt>
      <trkpt lat="45.58069" lon="5.42984">
        <ele>434</ele>
        <time>2021-10-02T12:09:18.573Z</time>
      </trkpt>
      <trkpt lat="45.58066" lon="5.42975">
        <ele>434</ele>
        <time>2021-10-02T12:09:17.573Z</time>
      </trkpt>
      <trkpt lat="45.58063" lon="5.42966">
        <ele>433</ele>
        <time>2021-10-02T12:09:16.572Z</time>
      </trkpt>
      <trkpt lat="45.58061" lon="5.42957">
        <ele>433</ele>
        <time>2021-10-02T12:09:15.572Z</time>
      </trkpt>
      <trkpt lat="45.58058" lon="5.42948">
        <ele>432</ele>
        <time>2021-10-02T12:09:14.572Z</time>
      </trkpt>
      <trkpt lat="45.58055" lon="5.42939">
        <ele>431</ele>
        <time>2021-10-02T12:09:13.573Z</time>
      </trkpt>
      <trkpt lat="45.58052" lon="5.4293">
        <ele>431</ele>
        <time>2021-10-02T12:09:12.573Z</time>
      </trkpt>
      <trkpt lat="45.5805" lon="5.42921">
        <ele>431</ele>
        <time>2021-10-02T12:09:11.573Z</time>
      </trkpt>
      <trkpt lat="45.58048" lon="5.42912">
        <ele>431</ele>
        <time>2021-10-02T12:09:10.573Z</time>
      </trkpt>
      <trkpt lat="45.58045" lon="5.42903">
        <ele>430</ele>
        <time>2021-10-02T12:09:09.572Z</time>
      </trkpt>
      <trkpt lat="45.58043" lon="5.42893">
        <ele>430</ele>
        <time>2021-10-02T12:09:08.573Z</time>
      </trkpt>
      <trkpt lat="45.58041" lon="5.42883">
        <ele>431</ele>
        <time>2021-10-02T12:09:07.573Z</time>
      </trkpt>
      <trkpt lat="45.58039" lon="5.42873">
        <ele>431</ele>
        <time>2021-10-02T12:09:06.573Z</time>
      </trkpt>
      <trkpt lat="45.58038" lon="5.42866">
        <ele>431</ele>
        <time>2021-10-02T12:09:05.573Z</time>
      </trkpt>
      <trkpt lat="45.58036" lon="5.42856">
        <ele>431</ele>
        <time>2021-10-02T12:09:04.573Z</time>
      </trkpt>
      <trkpt lat="45.58036" lon="5.42846">
        <ele>431</ele>
        <time>2021-10-02T12:09:03.572Z</time>
      </trkpt>
      <trkpt lat="45.58035" lon="5.42835">
        <ele>430</ele>
        <time>2021-10-02T12:09:02.572Z</time>
      </trkpt>
      <trkpt lat="45.58035" lon="5.42824">
        <ele>430</ele>
        <time>2021-10-02T12:09:01.573Z</time>
      </trkpt>
      <trkpt lat="45.58035" lon="5.42813">
        <ele>430</ele>
        <time>2021-10-02T12:09:00.573Z</time>
      </trkpt>
      <trkpt lat="45.58035" lon="5.42801">
        <ele>430</ele>
        <time>2021-10-02T12:08:59.573Z</time>
      </trkpt>
      <trkpt lat="45.58035" lon="5.42789">
        <ele>430</ele>
        <time>2021-10-02T12:08:58.573Z</time>
      </trkpt>
      <trkpt lat="45.58035" lon="5.42776">
        <ele>430</ele>
        <time>2021-10-02T12:08:57.573Z</time>
      </trkpt>
      <trkpt lat="45.58035" lon="5.42764">
        <ele>430</ele>
        <time>2021-10-02T12:08:56.573Z</time>
      </trkpt>
      <trkpt lat="45.58036" lon="5.42751">
        <ele>430</ele>
        <time>2021-10-02T12:08:55.572Z</time>
      </trkpt>
      <trkpt lat="45.58036" lon="5.42738">
        <ele>431</ele>
        <time>2021-10-02T12:08:54.573Z</time>
      </trkpt>
      <trkpt lat="45.58037" lon="5.42725">
        <ele>432</ele>
        <time>2021-10-02T12:08:53.573Z</time>
      </trkpt>
      <trkpt lat="45.58038" lon="5.42709">
        <ele>432</ele>
        <time>2021-10-02T12:08:52.573Z</time>
      </trkpt>
      <trkpt lat="45.58038" lon="5.42698">
        <ele>433</ele>
        <time>2021-10-02T12:08:51.573Z</time>
      </trkpt>
      <trkpt lat="45.58039" lon="5.42685">
        <ele>434</ele>
        <time>2021-10-02T12:08:50.573Z</time>
      </trkpt>
      <trkpt lat="45.58039" lon="5.42671">
        <ele>434</ele>
        <time>2021-10-02T12:08:49.573Z</time>
      </trkpt>
      <trkpt lat="45.5804" lon="5.42655">
        <ele>434</ele>
        <time>2021-10-02T12:08:48.573Z</time>
      </trkpt>
      <trkpt lat="45.58041" lon="5.42641">
        <ele>435</ele>
        <time>2021-10-02T12:08:47.573Z</time>
      </trkpt>
      <trkpt lat="45.58042" lon="5.42628">
        <ele>435</ele>
        <time>2021-10-02T12:08:46.573Z</time>
      </trkpt>
      <trkpt lat="45.58042" lon="5.42614">
        <ele>436</ele>
        <time>2021-10-02T12:08:45.573Z</time>
      </trkpt>
      <trkpt lat="45.58043" lon="5.42601">
        <ele>436</ele>
        <time>2021-10-02T12:08:44.573Z</time>
      </trkpt>
      <trkpt lat="45.58044" lon="5.42588">
        <ele>436</ele>
        <time>2021-10-02T12:08:43.573Z</time>
      </trkpt>
      <trkpt lat="45.58044" lon="5.42575">
        <ele>436</ele>
        <time>2021-10-02T12:08:42.572Z</time>
      </trkpt>
      <trkpt lat="45.58045" lon="5.42562">
        <ele>436</ele>
        <time>2021-10-02T12:08:41.573Z</time>
      </trkpt>
      <trkpt lat="45.58045" lon="5.4255">
        <ele>436</ele>
        <time>2021-10-02T12:08:40.573Z</time>
      </trkpt>
      <trkpt lat="45.58046" lon="5.42538">
        <ele>436</ele>
        <time>2021-10-02T12:08:39.573Z</time>
      </trkpt>
      <trkpt lat="45.58047" lon="5.42528">
        <ele>436</ele>
        <time>2021-10-02T12:08:38.572Z</time>
      </trkpt>
      <trkpt lat="45.58047" lon="5.42516">
        <ele>437</ele>
        <time>2021-10-02T12:08:37.573Z</time>
      </trkpt>
      <trkpt lat="45.58048" lon="5.42505">
        <ele>437</ele>
        <time>2021-10-02T12:08:36.573Z</time>
      </trkpt>
      <trkpt lat="45.58048" lon="5.42493">
        <ele>437</ele>
        <time>2021-10-02T12:08:35.572Z</time>
      </trkpt>
      <trkpt lat="45.58048" lon="5.42482">
        <ele>437</ele>
        <time>2021-10-02T12:08:34.573Z</time>
      </trkpt>
      <trkpt lat="45.58048" lon="5.42471">
        <ele>437</ele>
        <time>2021-10-02T12:08:33.573Z</time>
      </trkpt>
      <trkpt lat="45.58049" lon="5.4246">
        <ele>437</ele>
        <time>2021-10-02T12:08:32.573Z</time>
      </trkpt>
      <trkpt lat="45.58049" lon="5.42449">
        <ele>437</ele>
        <time>2021-10-02T12:08:31.573Z</time>
      </trkpt>
      <trkpt lat="45.5805" lon="5.42438">
        <ele>437</ele>
        <time>2021-10-02T12:08:30.573Z</time>
      </trkpt>
      <trkpt lat="45.5805" lon="5.42426">
        <ele>437</ele>
        <time>2021-10-02T12:08:29.572Z</time>
      </trkpt>
      <trkpt lat="45.58051" lon="5.42415">
        <ele>438</ele>
        <time>2021-10-02T12:08:28.573Z</time>
      </trkpt>
      <trkpt lat="45.58052" lon="5.42401">
        <ele>438</ele>
        <time>2021-10-02T12:08:27.573Z</time>
      </trkpt>
      <trkpt lat="45.58054" lon="5.42392">
        <ele>438</ele>
        <time>2021-10-02T12:08:26.572Z</time>
      </trkpt>
      <trkpt lat="45.58055" lon="5.42381">
        <ele>438</ele>
        <time>2021-10-02T12:08:25.573Z</time>
      </trkpt>
      <trkpt lat="45.58057" lon="5.42369">
        <ele>439</ele>
        <time>2021-10-02T12:08:24.573Z</time>
      </trkpt>
      <trkpt lat="45.58059" lon="5.42355">
        <ele>439</ele>
        <time>2021-10-02T12:08:23.573Z</time>
      </trkpt>
      <trkpt lat="45.5806" lon="5.42342">
        <ele>439</ele>
        <time>2021-10-02T12:08:22.573Z</time>
      </trkpt>
      <trkpt lat="45.58062" lon="5.42329">
        <ele>439</ele>
        <time>2021-10-02T12:08:21.573Z</time>
      </trkpt>
      <trkpt lat="45.58064" lon="5.42316">
        <ele>439</ele>
        <time>2021-10-02T12:08:20.573Z</time>
      </trkpt>
      <trkpt lat="45.58066" lon="5.42303">
        <ele>439</ele>
        <time>2021-10-02T12:08:19.573Z</time>
      </trkpt>
      <trkpt lat="45.58068" lon="5.42289">
        <ele>440</ele>
        <time>2021-10-02T12:08:18.573Z</time>
      </trkpt>
      <trkpt lat="45.5807" lon="5.42276">
        <ele>440</ele>
        <time>2021-10-02T12:08:17.573Z</time>
      </trkpt>
      <trkpt lat="45.58072" lon="5.42262">
        <ele>441</ele>
        <time>2021-10-02T12:08:16.573Z</time>
      </trkpt>
      <trkpt lat="45.58073" lon="5.42252">
        <ele>441</ele>
        <time>2021-10-02T12:08:15.573Z</time>
      </trkpt>
      <trkpt lat="45.58075" lon="5.42238">
        <ele>442</ele>
        <time>2021-10-02T12:08:14.573Z</time>
      </trkpt>
      <trkpt lat="45.58077" lon="5.42225">
        <ele>442</ele>
        <time>2021-10-02T12:08:13.573Z</time>
      </trkpt>
      <trkpt lat="45.58078" lon="5.42211">
        <ele>443</ele>
        <time>2021-10-02T12:08:12.573Z</time>
      </trkpt>
      <trkpt lat="45.5808" lon="5.42198">
        <ele>444</ele>
        <time>2021-10-02T12:08:11.573Z</time>
      </trkpt>
      <trkpt lat="45.58082" lon="5.42184">
        <ele>445</ele>
        <time>2021-10-02T12:08:10.573Z</time>
      </trkpt>
      <trkpt lat="45.58083" lon="5.42171">
        <ele>445</ele>
        <time>2021-10-02T12:08:09.573Z</time>
      </trkpt>
      <trkpt lat="45.58085" lon="5.42157">
        <ele>445</ele>
        <time>2021-10-02T12:08:08.573Z</time>
      </trkpt>
      <trkpt lat="45.58087" lon="5.42144">
        <ele>445</ele>
        <time>2021-10-02T12:08:07.572Z</time>
      </trkpt>
      <trkpt lat="45.58089" lon="5.42129">
        <ele>446</ele>
        <time>2021-10-02T12:08:06.573Z</time>
      </trkpt>
      <trkpt lat="45.58091" lon="5.42119">
        <ele>446</ele>
        <time>2021-10-02T12:08:05.572Z</time>
      </trkpt>
      <trkpt lat="45.58094" lon="5.42105">
        <ele>447</ele>
        <time>2021-10-02T12:08:04.573Z</time>
      </trkpt>
      <trkpt lat="45.58096" lon="5.42095">
        <ele>447</ele>
        <time>2021-10-02T12:08:03.573Z</time>
      </trkpt>
      <trkpt lat="45.58098" lon="5.42083">
        <ele>447</ele>
        <time>2021-10-02T12:08:02.572Z</time>
      </trkpt>
      <trkpt lat="45.58101" lon="5.42071">
        <ele>447</ele>
        <time>2021-10-02T12:08:01.573Z</time>
      </trkpt>
      <trkpt lat="45.58103" lon="5.42058">
        <ele>447</ele>
        <time>2021-10-02T12:08:00.572Z</time>
      </trkpt>
      <trkpt lat="45.58106" lon="5.42045">
        <ele>448</ele>
        <time>2021-10-02T12:07:59.573Z</time>
      </trkpt>
      <trkpt lat="45.58108" lon="5.42033">
        <ele>448</ele>
        <time>2021-10-02T12:07:58.573Z</time>
      </trkpt>
      <trkpt lat="45.5811" lon="5.42021">
        <ele>448</ele>
        <time>2021-10-02T12:07:57.573Z</time>
      </trkpt>
      <trkpt lat="45.58113" lon="5.42009">
        <ele>449</ele>
        <time>2021-10-02T12:07:56.572Z</time>
      </trkpt>
      <trkpt lat="45.58115" lon="5.41994">
        <ele>449</ele>
        <time>2021-10-02T12:07:55.573Z</time>
      </trkpt>
      <trkpt lat="45.58117" lon="5.41985">
        <ele>450</ele>
        <time>2021-10-02T12:07:54.573Z</time>
      </trkpt>
      <trkpt lat="45.58119" lon="5.41973">
        <ele>450</ele>
        <time>2021-10-02T12:07:53.573Z</time>
      </trkpt>
      <trkpt lat="45.58121" lon="5.41961">
        <ele>450</ele>
        <time>2021-10-02T12:07:52.573Z</time>
      </trkpt>
      <trkpt lat="45.58123" lon="5.41947">
        <ele>450</ele>
        <time>2021-10-02T12:07:51.573Z</time>
      </trkpt>
      <trkpt lat="45.58125" lon="5.41936">
        <ele>451</ele>
        <time>2021-10-02T12:07:50.572Z</time>
      </trkpt>
      <trkpt lat="45.58126" lon="5.41927">
        <ele>451</ele>
        <time>2021-10-02T12:07:49.573Z</time>
      </trkpt>
      <trkpt lat="45.58128" lon="5.41916">
        <ele>452</ele>
        <time>2021-10-02T12:07:48.573Z</time>
      </trkpt>
      <trkpt lat="45.58131" lon="5.41906">
        <ele>452</ele>
        <time>2021-10-02T12:07:47.573Z</time>
      </trkpt>
      <trkpt lat="45.58133" lon="5.41894">
        <ele>452</ele>
        <time>2021-10-02T12:07:46.573Z</time>
      </trkpt>
      <trkpt lat="45.58135" lon="5.41886">
        <ele>453</ele>
        <time>2021-10-02T12:07:45.573Z</time>
      </trkpt>
      <trkpt lat="45.58137" lon="5.41876">
        <ele>453</ele>
        <time>2021-10-02T12:07:44.573Z</time>
      </trkpt>
      <trkpt lat="45.58139" lon="5.41865">
        <ele>453</ele>
        <time>2021-10-02T12:07:43.573Z</time>
      </trkpt>
      <trkpt lat="45.58141" lon="5.41856">
        <ele>453</ele>
        <time>2021-10-02T12:07:42.573Z</time>
      </trkpt>
      <trkpt lat="45.58143" lon="5.41846">
        <ele>453</ele>
        <time>2021-10-02T12:07:41.573Z</time>
      </trkpt>
      <trkpt lat="45.58145" lon="5.41837">
        <ele>453</ele>
        <time>2021-10-02T12:07:40.572Z</time>
      </trkpt>
      <trkpt lat="45.58147" lon="5.41828">
        <ele>452</ele>
        <time>2021-10-02T12:07:39.573Z</time>
      </trkpt>
      <trkpt lat="45.58148" lon="5.41819">
        <ele>452</ele>
        <time>2021-10-02T12:07:38.573Z</time>
      </trkpt>
      <trkpt lat="45.5815" lon="5.4181">
        <ele>452</ele>
        <time>2021-10-02T12:07:37.572Z</time>
      </trkpt>
      <trkpt lat="45.58153" lon="5.41798">
        <ele>452</ele>
        <time>2021-10-02T12:07:36.572Z</time>
      </trkpt>
      <trkpt lat="45.58154" lon="5.4179">
        <ele>452</ele>
        <time>2021-10-02T12:07:35.572Z</time>
      </trkpt>
      <trkpt lat="45.58155" lon="5.4178">
        <ele>452</ele>
        <time>2021-10-02T12:07:34.573Z</time>
      </trkpt>
      <trkpt lat="45.58157" lon="5.41771">
        <ele>452</ele>
        <time>2021-10-02T12:07:33.573Z</time>
      </trkpt>
      <trkpt lat="45.58159" lon="5.41763">
        <ele>452</ele>
        <time>2021-10-02T12:07:32.572Z</time>
      </trkpt>
      <trkpt lat="45.58161" lon="5.41755">
        <ele>451</ele>
        <time>2021-10-02T12:07:31.572Z</time>
      </trkpt>
      <trkpt lat="45.58163" lon="5.41747">
        <ele>451</ele>
        <time>2021-10-02T12:07:30.573Z</time>
      </trkpt>
      <trkpt lat="45.58165" lon="5.4174">
        <ele>451</ele>
        <time>2021-10-02T12:07:29.573Z</time>
      </trkpt>
      <trkpt lat="45.58167" lon="5.41733">
        <ele>451</ele>
        <time>2021-10-02T12:07:28.573Z</time>
      </trkpt>
      <trkpt lat="45.58169" lon="5.41726">
        <ele>451</ele>
        <time>2021-10-02T12:07:27.573Z</time>
      </trkpt>
      <trkpt lat="45.58171" lon="5.41719">
        <ele>451</ele>
        <time>2021-10-02T12:07:26.573Z</time>
      </trkpt>
      <trkpt lat="45.58172" lon="5.41712">
        <ele>451</ele>
        <time>2021-10-02T12:07:25.573Z</time>
      </trkpt>
      <trkpt lat="45.58174" lon="5.41704">
        <ele>452</ele>
        <time>2021-10-02T12:07:24.572Z</time>
      </trkpt>
      <trkpt lat="45.58175" lon="5.41697">
        <ele>452</ele>
        <time>2021-10-02T12:07:23.572Z</time>
      </trkpt>
      <trkpt lat="45.58176" lon="5.41689">
        <ele>452</ele>
        <time>2021-10-02T12:07:22.573Z</time>
      </trkpt>
      <trkpt lat="45.58177" lon="5.41684">
        <ele>452</ele>
        <time>2021-10-02T12:07:21.573Z</time>
      </trkpt>
      <trkpt lat="45.58179" lon="5.41678">
        <ele>452</ele>
        <time>2021-10-02T12:07:20.573Z</time>
      </trkpt>
      <trkpt lat="45.58181" lon="5.41672">
        <ele>451</ele>
        <time>2021-10-02T12:07:19.573Z</time>
      </trkpt>
      <trkpt lat="45.58183" lon="5.41665">
        <ele>451</ele>
        <time>2021-10-02T12:07:18.572Z</time>
      </trkpt>
      <trkpt lat="45.58185" lon="5.41659">
        <ele>451</ele>
        <time>2021-10-02T12:07:17.573Z</time>
      </trkpt>
      <trkpt lat="45.58188" lon="5.41652">
        <ele>451</ele>
        <time>2021-10-02T12:07:16.572Z</time>
      </trkpt>
      <trkpt lat="45.5819" lon="5.41644">
        <ele>450</ele>
        <time>2021-10-02T12:07:15.573Z</time>
      </trkpt>
      <trkpt lat="45.58192" lon="5.41637">
        <ele>450</ele>
        <time>2021-10-02T12:07:14.573Z</time>
      </trkpt>
      <trkpt lat="45.58195" lon="5.4163">
        <ele>450</ele>
        <time>2021-10-02T12:07:13.572Z</time>
      </trkpt>
      <trkpt lat="45.58198" lon="5.41622">
        <ele>449</ele>
        <time>2021-10-02T12:07:12.573Z</time>
      </trkpt>
      <trkpt lat="45.582" lon="5.41615">
        <ele>450</ele>
        <time>2021-10-02T12:07:11.572Z</time>
      </trkpt>
      <trkpt lat="45.58203" lon="5.41608">
        <ele>450</ele>
        <time>2021-10-02T12:07:10.573Z</time>
      </trkpt>
      <trkpt lat="45.58206" lon="5.416">
        <ele>450</ele>
        <time>2021-10-02T12:07:09.573Z</time>
      </trkpt>
      <trkpt lat="45.58208" lon="5.41593">
        <ele>451</ele>
        <time>2021-10-02T12:07:08.573Z</time>
      </trkpt>
      <trkpt lat="45.58211" lon="5.41586">
        <ele>451</ele>
        <time>2021-10-02T12:07:07.573Z</time>
      </trkpt>
      <trkpt lat="45.58213" lon="5.41579">
        <ele>451</ele>
        <time>2021-10-02T12:07:06.573Z</time>
      </trkpt>
      <trkpt lat="45.58216" lon="5.41572">
        <ele>451</ele>
        <time>2021-10-02T12:07:05.572Z</time>
      </trkpt>
      <trkpt lat="45.5822" lon="5.41563">
        <ele>451</ele>
        <time>2021-10-02T12:07:04.573Z</time>
      </trkpt>
      <trkpt lat="45.58222" lon="5.41558">
        <ele>451</ele>
        <time>2021-10-02T12:07:03.573Z</time>
      </trkpt>
      <trkpt lat="45.58225" lon="5.41551">
        <ele>451</ele>
        <time>2021-10-02T12:07:02.573Z</time>
      </trkpt>
      <trkpt lat="45.58229" lon="5.41545">
        <ele>451</ele>
        <time>2021-10-02T12:07:01.573Z</time>
      </trkpt>
      <trkpt lat="45.58233" lon="5.41538">
        <ele>450</ele>
        <time>2021-10-02T12:07:00.573Z</time>
      </trkpt>
      <trkpt lat="45.58236" lon="5.41532">
        <ele>450</ele>
        <time>2021-10-02T12:06:59.573Z</time>
      </trkpt>
      <trkpt lat="45.5824" lon="5.41527">
        <ele>450</ele>
        <time>2021-10-02T12:06:58.572Z</time>
      </trkpt>
      <trkpt lat="45.58245" lon="5.41522">
        <ele>450</ele>
        <time>2021-10-02T12:06:57.573Z</time>
      </trkpt>
      <trkpt lat="45.58249" lon="5.41517">
        <ele>450</ele>
        <time>2021-10-02T12:06:56.573Z</time>
      </trkpt>
      <trkpt lat="45.58254" lon="5.41512">
        <ele>449</ele>
        <time>2021-10-02T12:06:55.572Z</time>
      </trkpt>
      <trkpt lat="45.58259" lon="5.41507">
        <ele>450</ele>
        <time>2021-10-02T12:06:54.573Z</time>
      </trkpt>
      <trkpt lat="45.58263" lon="5.41503">
        <ele>450</ele>
        <time>2021-10-02T12:06:53.573Z</time>
      </trkpt>
      <trkpt lat="45.58267" lon="5.41499">
        <ele>450</ele>
        <time>2021-10-02T12:06:52.573Z</time>
      </trkpt>
      <trkpt lat="45.58272" lon="5.41495">
        <ele>450</ele>
        <time>2021-10-02T12:06:51.572Z</time>
      </trkpt>
      <trkpt lat="45.58278" lon="5.41491">
        <ele>450</ele>
        <time>2021-10-02T12:06:50.573Z</time>
      </trkpt>
      <trkpt lat="45.58282" lon="5.41488">
        <ele>450</ele>
        <time>2021-10-02T12:06:49.572Z</time>
      </trkpt>
      <trkpt lat="45.58287" lon="5.41485">
        <ele>450</ele>
        <time>2021-10-02T12:06:48.573Z</time>
      </trkpt>
      <trkpt lat="45.58292" lon="5.41482">
        <ele>450</ele>
        <time>2021-10-02T12:06:47.573Z</time>
      </trkpt>
      <trkpt lat="45.58297" lon="5.41478">
        <ele>450</ele>
        <time>2021-10-02T12:06:46.573Z</time>
      </trkpt>
      <trkpt lat="45.58304" lon="5.41474">
        <ele>449</ele>
        <time>2021-10-02T12:06:45.572Z</time>
      </trkpt>
      <trkpt lat="45.5831" lon="5.4147">
        <ele>449</ele>
        <time>2021-10-02T12:06:44.573Z</time>
      </trkpt>
      <trkpt lat="45.58314" lon="5.41468">
        <ele>449</ele>
        <time>2021-10-02T12:06:43.572Z</time>
      </trkpt>
      <trkpt lat="45.5832" lon="5.41464">
        <ele>450</ele>
        <time>2021-10-02T12:06:42.573Z</time>
      </trkpt>
      <trkpt lat="45.58327" lon="5.4146">
        <ele>450</ele>
        <time>2021-10-02T12:06:41.572Z</time>
      </trkpt>
      <trkpt lat="45.58332" lon="5.41457">
        <ele>450</ele>
        <time>2021-10-02T12:06:40.573Z</time>
      </trkpt>
      <trkpt lat="45.58337" lon="5.41454">
        <ele>450</ele>
        <time>2021-10-02T12:06:39.572Z</time>
      </trkpt>
      <trkpt lat="45.58343" lon="5.41451">
        <ele>451</ele>
        <time>2021-10-02T12:06:38.573Z</time>
      </trkpt>
      <trkpt lat="45.58348" lon="5.41448">
        <ele>451</ele>
        <time>2021-10-02T12:06:37.572Z</time>
      </trkpt>
      <trkpt lat="45.58354" lon="5.41445">
        <ele>452</ele>
        <time>2021-10-02T12:06:36.572Z</time>
      </trkpt>
      <trkpt lat="45.5836" lon="5.41441">
        <ele>452</ele>
        <time>2021-10-02T12:06:35.573Z</time>
      </trkpt>
      <trkpt lat="45.58365" lon="5.41438">
        <ele>452</ele>
        <time>2021-10-02T12:06:34.573Z</time>
      </trkpt>
      <trkpt lat="45.58371" lon="5.41435">
        <ele>452</ele>
        <time>2021-10-02T12:06:33.573Z</time>
      </trkpt>
      <trkpt lat="45.58377" lon="5.41431">
        <ele>452</ele>
        <time>2021-10-02T12:06:32.573Z</time>
      </trkpt>
      <trkpt lat="45.58383" lon="5.41428">
        <ele>452</ele>
        <time>2021-10-02T12:06:31.572Z</time>
      </trkpt>
      <trkpt lat="45.58388" lon="5.41424">
        <ele>452</ele>
        <time>2021-10-02T12:06:30.572Z</time>
      </trkpt>
      <trkpt lat="45.58394" lon="5.41421">
        <ele>452</ele>
        <time>2021-10-02T12:06:29.573Z</time>
      </trkpt>
      <trkpt lat="45.584" lon="5.41417">
        <ele>452</ele>
        <time>2021-10-02T12:06:28.573Z</time>
      </trkpt>
      <trkpt lat="45.58407" lon="5.41414">
        <ele>451</ele>
        <time>2021-10-02T12:06:27.573Z</time>
      </trkpt>
      <trkpt lat="45.58413" lon="5.4141">
        <ele>451</ele>
        <time>2021-10-02T12:06:26.572Z</time>
      </trkpt>
      <trkpt lat="45.58419" lon="5.41407">
        <ele>451</ele>
        <time>2021-10-02T12:06:25.572Z</time>
      </trkpt>
      <trkpt lat="45.58425" lon="5.41404">
        <ele>451</ele>
        <time>2021-10-02T12:06:24.573Z</time>
      </trkpt>
      <trkpt lat="45.58431" lon="5.41401">
        <ele>451</ele>
        <time>2021-10-02T12:06:23.572Z</time>
      </trkpt>
      <trkpt lat="45.58437" lon="5.41398">
        <ele>451</ele>
        <time>2021-10-02T12:06:22.573Z</time>
      </trkpt>
      <trkpt lat="45.58443" lon="5.41395">
        <ele>451</ele>
        <time>2021-10-02T12:06:21.573Z</time>
      </trkpt>
      <trkpt lat="45.58449" lon="5.41392">
        <ele>450</ele>
        <time>2021-10-02T12:06:20.572Z</time>
      </trkpt>
      <trkpt lat="45.58454" lon="5.41389">
        <ele>450</ele>
        <time>2021-10-02T12:06:19.573Z</time>
      </trkpt>
      <trkpt lat="45.58461" lon="5.41384">
        <ele>450</ele>
        <time>2021-10-02T12:06:18.572Z</time>
      </trkpt>
      <trkpt lat="45.58465" lon="5.41381">
        <ele>450</ele>
        <time>2021-10-02T12:06:17.572Z</time>
      </trkpt>
      <trkpt lat="45.5847" lon="5.41377">
        <ele>451</ele>
        <time>2021-10-02T12:06:16.573Z</time>
      </trkpt>
      <trkpt lat="45.58476" lon="5.41374">
        <ele>451</ele>
        <time>2021-10-02T12:06:15.573Z</time>
      </trkpt>
      <trkpt lat="45.58481" lon="5.4137">
        <ele>451</ele>
        <time>2021-10-02T12:06:14.572Z</time>
      </trkpt>
      <trkpt lat="45.58487" lon="5.41367">
        <ele>451</ele>
        <time>2021-10-02T12:06:13.573Z</time>
      </trkpt>
      <trkpt lat="45.58492" lon="5.41364">
        <ele>451</ele>
        <time>2021-10-02T12:06:12.572Z</time>
      </trkpt>
      <trkpt lat="45.58498" lon="5.41361">
        <ele>451</ele>
        <time>2021-10-02T12:06:11.572Z</time>
      </trkpt>
      <trkpt lat="45.58504" lon="5.41358">
        <ele>451</ele>
        <time>2021-10-02T12:06:10.573Z</time>
      </trkpt>
      <trkpt lat="45.5851" lon="5.41355">
        <ele>451</ele>
        <time>2021-10-02T12:06:09.573Z</time>
      </trkpt>
      <trkpt lat="45.58515" lon="5.41351">
        <ele>451</ele>
        <time>2021-10-02T12:06:08.573Z</time>
      </trkpt>
      <trkpt lat="45.58521" lon="5.41348">
        <ele>451</ele>
        <time>2021-10-02T12:06:07.573Z</time>
      </trkpt>
      <trkpt lat="45.58527" lon="5.41345">
        <ele>451</ele>
        <time>2021-10-02T12:06:06.573Z</time>
      </trkpt>
      <trkpt lat="45.58533" lon="5.41341">
        <ele>451</ele>
        <time>2021-10-02T12:06:05.572Z</time>
      </trkpt>
      <trkpt lat="45.58538" lon="5.41337">
        <ele>451</ele>
        <time>2021-10-02T12:06:04.573Z</time>
      </trkpt>
      <trkpt lat="45.58543" lon="5.41334">
        <ele>451</ele>
        <time>2021-10-02T12:06:03.573Z</time>
      </trkpt>
      <trkpt lat="45.58548" lon="5.41332">
        <ele>451</ele>
        <time>2021-10-02T12:06:02.572Z</time>
      </trkpt>
      <trkpt lat="45.58552" lon="5.41329">
        <ele>451</ele>
        <time>2021-10-02T12:06:01.572Z</time>
      </trkpt>
      <trkpt lat="45.58556" lon="5.41326">
        <ele>452</ele>
        <time>2021-10-02T12:06:00.572Z</time>
      </trkpt>
      <trkpt lat="45.58559" lon="5.41323">
        <ele>452</ele>
        <time>2021-10-02T12:05:59.572Z</time>
      </trkpt>
      <trkpt lat="45.58562" lon="5.41318">
        <ele>452</ele>
        <time>2021-10-02T12:05:58.573Z</time>
      </trkpt>
      <trkpt lat="45.58565" lon="5.41313">
        <ele>452</ele>
        <time>2021-10-02T12:05:57.573Z</time>
      </trkpt>
      <trkpt lat="45.58567" lon="5.41309">
        <ele>452</ele>
        <time>2021-10-02T12:05:56.573Z</time>
      </trkpt>
      <trkpt lat="45.58571" lon="5.41304">
        <ele>452</ele>
        <time>2021-10-02T12:05:55.573Z</time>
      </trkpt>
      <trkpt lat="45.58575" lon="5.41298">
        <ele>452</ele>
        <time>2021-10-02T12:05:54.573Z</time>
      </trkpt>
      <trkpt lat="45.5858" lon="5.41294">
        <ele>452</ele>
        <time>2021-10-02T12:05:53.572Z</time>
      </trkpt>
      <trkpt lat="45.58583" lon="5.4129">
        <ele>452</ele>
        <time>2021-10-02T12:05:52.572Z</time>
      </trkpt>
      <trkpt lat="45.58587" lon="5.41286">
        <ele>452</ele>
        <time>2021-10-02T12:05:51.573Z</time>
      </trkpt>
      <trkpt lat="45.58592" lon="5.41281">
        <ele>452</ele>
        <time>2021-10-02T12:05:50.573Z</time>
      </trkpt>
      <trkpt lat="45.58595" lon="5.41277">
        <ele>452</ele>
        <time>2021-10-02T12:05:49.573Z</time>
      </trkpt>
      <trkpt lat="45.58599" lon="5.41272">
        <ele>452</ele>
        <time>2021-10-02T12:05:48.573Z</time>
      </trkpt>
      <trkpt lat="45.58604" lon="5.41267">
        <ele>452</ele>
        <time>2021-10-02T12:05:47.573Z</time>
      </trkpt>
      <trkpt lat="45.5861" lon="5.4126">
        <ele>451</ele>
        <time>2021-10-02T12:05:46.573Z</time>
      </trkpt>
      <trkpt lat="45.58614" lon="5.41254">
        <ele>451</ele>
        <time>2021-10-02T12:05:45.573Z</time>
      </trkpt>
      <trkpt lat="45.58619" lon="5.41248">
        <ele>451</ele>
        <time>2021-10-02T12:05:44.573Z</time>
      </trkpt>
      <trkpt lat="45.58624" lon="5.41242">
        <ele>451</ele>
        <time>2021-10-02T12:05:43.573Z</time>
      </trkpt>
      <trkpt lat="45.58627" lon="5.41237">
        <ele>451</ele>
        <time>2021-10-02T12:05:42.572Z</time>
      </trkpt>
      <trkpt lat="45.58631" lon="5.4123">
        <ele>451</ele>
        <time>2021-10-02T12:05:41.573Z</time>
      </trkpt>
      <trkpt lat="45.58635" lon="5.41221">
        <ele>451</ele>
        <time>2021-10-02T12:05:40.573Z</time>
      </trkpt>
      <trkpt lat="45.58639" lon="5.41216">
        <ele>452</ele>
        <time>2021-10-02T12:05:39.573Z</time>
      </trkpt>
      <trkpt lat="45.58642" lon="5.41209">
        <ele>452</ele>
        <time>2021-10-02T12:05:38.572Z</time>
      </trkpt>
      <trkpt lat="45.58646" lon="5.41202">
        <ele>452</ele>
        <time>2021-10-02T12:05:37.572Z</time>
      </trkpt>
      <trkpt lat="45.5865" lon="5.41194">
        <ele>452</ele>
        <time>2021-10-02T12:05:36.572Z</time>
      </trkpt>
      <trkpt lat="45.58654" lon="5.41187">
        <ele>452</ele>
        <time>2021-10-02T12:05:35.572Z</time>
      </trkpt>
      <trkpt lat="45.58657" lon="5.41181">
        <ele>452</ele>
        <time>2021-10-02T12:05:34.572Z</time>
      </trkpt>
      <trkpt lat="45.5866" lon="5.41175">
        <ele>452</ele>
        <time>2021-10-02T12:05:33.573Z</time>
      </trkpt>
      <trkpt lat="45.58664" lon="5.41168">
        <ele>452</ele>
        <time>2021-10-02T12:05:32.573Z</time>
      </trkpt>
      <trkpt lat="45.58668" lon="5.41162">
        <ele>452</ele>
        <time>2021-10-02T12:05:31.573Z</time>
      </trkpt>
      <trkpt lat="45.58671" lon="5.41155">
        <ele>452</ele>
        <time>2021-10-02T12:05:30.572Z</time>
      </trkpt>
      <trkpt lat="45.58675" lon="5.41149">
        <ele>452</ele>
        <time>2021-10-02T12:05:29.572Z</time>
      </trkpt>
      <trkpt lat="45.58679" lon="5.41142">
        <ele>452</ele>
        <time>2021-10-02T12:05:28.573Z</time>
      </trkpt>
      <trkpt lat="45.58682" lon="5.41136">
        <ele>453</ele>
        <time>2021-10-02T12:05:27.573Z</time>
      </trkpt>
      <trkpt lat="45.58687" lon="5.41128">
        <ele>453</ele>
        <time>2021-10-02T12:05:26.573Z</time>
      </trkpt>
      <trkpt lat="45.5869" lon="5.41123">
        <ele>453</ele>
        <time>2021-10-02T12:05:25.573Z</time>
      </trkpt>
      <trkpt lat="45.58693" lon="5.41117">
        <ele>453</ele>
        <time>2021-10-02T12:05:24.573Z</time>
      </trkpt>
      <trkpt lat="45.58697" lon="5.41111">
        <ele>453</ele>
        <time>2021-10-02T12:05:23.573Z</time>
      </trkpt>
      <trkpt lat="45.58701" lon="5.41103">
        <ele>453</ele>
        <time>2021-10-02T12:05:22.573Z</time>
      </trkpt>
      <trkpt lat="45.58704" lon="5.41099">
        <ele>453</ele>
        <time>2021-10-02T12:05:21.573Z</time>
      </trkpt>
      <trkpt lat="45.58708" lon="5.41092">
        <ele>453</ele>
        <time>2021-10-02T12:05:20.572Z</time>
      </trkpt>
      <trkpt lat="45.58711" lon="5.41087">
        <ele>453</ele>
        <time>2021-10-02T12:05:19.573Z</time>
      </trkpt>
      <trkpt lat="45.58715" lon="5.41081">
        <ele>453</ele>
        <time>2021-10-02T12:05:18.573Z</time>
      </trkpt>
      <trkpt lat="45.58719" lon="5.41073">
        <ele>453</ele>
        <time>2021-10-02T12:05:17.573Z</time>
      </trkpt>
      <trkpt lat="45.58723" lon="5.41067">
        <ele>453</ele>
        <time>2021-10-02T12:05:16.573Z</time>
      </trkpt>
      <trkpt lat="45.58726" lon="5.41062">
        <ele>453</ele>
        <time>2021-10-02T12:05:15.573Z</time>
      </trkpt>
      <trkpt lat="45.58729" lon="5.41056">
        <ele>453</ele>
        <time>2021-10-02T12:05:14.573Z</time>
      </trkpt>
      <trkpt lat="45.58732" lon="5.41051">
        <ele>453</ele>
        <time>2021-10-02T12:05:13.573Z</time>
      </trkpt>
      <trkpt lat="45.58736" lon="5.41045">
        <ele>453</ele>
        <time>2021-10-02T12:05:12.573Z</time>
      </trkpt>
      <trkpt lat="45.58739" lon="5.41039">
        <ele>453</ele>
        <time>2021-10-02T12:05:11.572Z</time>
      </trkpt>
      <trkpt lat="45.58743" lon="5.41033">
        <ele>453</ele>
        <time>2021-10-02T12:05:10.573Z</time>
      </trkpt>
      <trkpt lat="45.58746" lon="5.41027">
        <ele>453</ele>
        <time>2021-10-02T12:05:09.573Z</time>
      </trkpt>
      <trkpt lat="45.58749" lon="5.41021">
        <ele>453</ele>
        <time>2021-10-02T12:05:08.573Z</time>
      </trkpt>
      <trkpt lat="45.58753" lon="5.41013">
        <ele>453</ele>
        <time>2021-10-02T12:05:07.573Z</time>
      </trkpt>
      <trkpt lat="45.58755" lon="5.41008">
        <ele>453</ele>
        <time>2021-10-02T12:05:06.572Z</time>
      </trkpt>
      <trkpt lat="45.58758" lon="5.41002">
        <ele>453</ele>
        <time>2021-10-02T12:05:05.573Z</time>
      </trkpt>
      <trkpt lat="45.58761" lon="5.40996">
        <ele>453</ele>
        <time>2021-10-02T12:05:04.573Z</time>
      </trkpt>
      <trkpt lat="45.58765" lon="5.40988">
        <ele>453</ele>
        <time>2021-10-02T12:05:03.573Z</time>
      </trkpt>
      <trkpt lat="45.58767" lon="5.40983">
        <ele>453</ele>
        <time>2021-10-02T12:05:02.572Z</time>
      </trkpt>
      <trkpt lat="45.5877" lon="5.40976">
        <ele>453</ele>
        <time>2021-10-02T12:05:01.573Z</time>
      </trkpt>
      <trkpt lat="45.58773" lon="5.4097">
        <ele>453</ele>
        <time>2021-10-02T12:05:00.572Z</time>
      </trkpt>
      <trkpt lat="45.58776" lon="5.40963">
        <ele>453</ele>
        <time>2021-10-02T12:04:59.572Z</time>
      </trkpt>
      <trkpt lat="45.5878" lon="5.40955">
        <ele>453</ele>
        <time>2021-10-02T12:04:58.573Z</time>
      </trkpt>
      <trkpt lat="45.58782" lon="5.4095">
        <ele>453</ele>
        <time>2021-10-02T12:04:57.573Z</time>
      </trkpt>
      <trkpt lat="45.58784" lon="5.40942">
        <ele>453</ele>
        <time>2021-10-02T12:04:56.573Z</time>
      </trkpt>
      <trkpt lat="45.58786" lon="5.40935">
        <ele>453</ele>
        <time>2021-10-02T12:04:55.573Z</time>
      </trkpt>
      <trkpt lat="45.58789" lon="5.40926">
        <ele>453</ele>
        <time>2021-10-02T12:04:54.572Z</time>
      </trkpt>
      <trkpt lat="45.58791" lon="5.4092">
        <ele>453</ele>
        <time>2021-10-02T12:04:53.573Z</time>
      </trkpt>
      <trkpt lat="45.58793" lon="5.40913">
        <ele>453</ele>
        <time>2021-10-02T12:04:52.573Z</time>
      </trkpt>
      <trkpt lat="45.58795" lon="5.40906">
        <ele>453</ele>
        <time>2021-10-02T12:04:51.573Z</time>
      </trkpt>
      <trkpt lat="45.58799" lon="5.40898">
        <ele>453</ele>
        <time>2021-10-02T12:04:50.572Z</time>
      </trkpt>
      <trkpt lat="45.58801" lon="5.40893">
        <ele>452</ele>
        <time>2021-10-02T12:04:49.573Z</time>
      </trkpt>
      <trkpt lat="45.58805" lon="5.40887">
        <ele>452</ele>
        <time>2021-10-02T12:04:48.573Z</time>
      </trkpt>
      <trkpt lat="45.58809" lon="5.40881">
        <ele>452</ele>
        <time>2021-10-02T12:04:47.572Z</time>
      </trkpt>
      <trkpt lat="45.58813" lon="5.40876">
        <ele>452</ele>
        <time>2021-10-02T12:04:46.572Z</time>
      </trkpt>
      <trkpt lat="45.58819" lon="5.40871">
        <ele>452</ele>
        <time>2021-10-02T12:04:45.573Z</time>
      </trkpt>
      <trkpt lat="45.58823" lon="5.40867">
        <ele>451</ele>
        <time>2021-10-02T12:04:44.573Z</time>
      </trkpt>
      <trkpt lat="45.58827" lon="5.40863">
        <ele>451</ele>
        <time>2021-10-02T12:04:43.573Z</time>
      </trkpt>
      <trkpt lat="45.58832" lon="5.40859">
        <ele>451</ele>
        <time>2021-10-02T12:04:42.573Z</time>
      </trkpt>
      <trkpt lat="45.58837" lon="5.40855">
        <ele>451</ele>
        <time>2021-10-02T12:04:41.573Z</time>
      </trkpt>
      <trkpt lat="45.58843" lon="5.4085">
        <ele>451</ele>
        <time>2021-10-02T12:04:40.572Z</time>
      </trkpt>
      <trkpt lat="45.58847" lon="5.40846">
        <ele>452</ele>
        <time>2021-10-02T12:04:39.573Z</time>
      </trkpt>
      <trkpt lat="45.58852" lon="5.40841">
        <ele>452</ele>
        <time>2021-10-02T12:04:38.573Z</time>
      </trkpt>
      <trkpt lat="45.58857" lon="5.40835">
        <ele>453</ele>
        <time>2021-10-02T12:04:37.573Z</time>
      </trkpt>
      <trkpt lat="45.58862" lon="5.40827">
        <ele>453</ele>
        <time>2021-10-02T12:04:36.572Z</time>
      </trkpt>
      <trkpt lat="45.58866" lon="5.40822">
        <ele>453</ele>
        <time>2021-10-02T12:04:35.573Z</time>
      </trkpt>
      <trkpt lat="45.58871" lon="5.40814">
        <ele>453</ele>
        <time>2021-10-02T12:04:34.573Z</time>
      </trkpt>
      <trkpt lat="45.58876" lon="5.40806">
        <ele>453</ele>
        <time>2021-10-02T12:04:33.573Z</time>
      </trkpt>
      <trkpt lat="45.58881" lon="5.40798">
        <ele>453</ele>
        <time>2021-10-02T12:04:32.573Z</time>
      </trkpt>
      <trkpt lat="45.58887" lon="5.40788">
        <ele>453</ele>
        <time>2021-10-02T12:04:31.572Z</time>
      </trkpt>
      <trkpt lat="45.58891" lon="5.40781">
        <ele>453</ele>
        <time>2021-10-02T12:04:30.573Z</time>
      </trkpt>
      <trkpt lat="45.58896" lon="5.40772">
        <ele>453</ele>
        <time>2021-10-02T12:04:29.573Z</time>
      </trkpt>
      <trkpt lat="45.58902" lon="5.40764">
        <ele>453</ele>
        <time>2021-10-02T12:04:28.572Z</time>
      </trkpt>
      <trkpt lat="45.58908" lon="5.40755">
        <ele>454</ele>
        <time>2021-10-02T12:04:27.573Z</time>
      </trkpt>
      <trkpt lat="45.58914" lon="5.40746">
        <ele>454</ele>
        <time>2021-10-02T12:04:26.573Z</time>
      </trkpt>
      <trkpt lat="45.58921" lon="5.40736">
        <ele>454</ele>
        <time>2021-10-02T12:04:25.572Z</time>
      </trkpt>
      <trkpt lat="45.58926" lon="5.40728">
        <ele>454</ele>
        <time>2021-10-02T12:04:24.572Z</time>
      </trkpt>
      <trkpt lat="45.58932" lon="5.4072">
        <ele>454</ele>
        <time>2021-10-02T12:04:23.573Z</time>
      </trkpt>
      <trkpt lat="45.58939" lon="5.40709">
        <ele>454</ele>
        <time>2021-10-02T12:04:22.572Z</time>
      </trkpt>
      <trkpt lat="45.58945" lon="5.40701">
        <ele>454</ele>
        <time>2021-10-02T12:04:21.573Z</time>
      </trkpt>
      <trkpt lat="45.58951" lon="5.40692">
        <ele>455</ele>
        <time>2021-10-02T12:04:20.573Z</time>
      </trkpt>
      <trkpt lat="45.58956" lon="5.40683">
        <ele>455</ele>
        <time>2021-10-02T12:04:19.573Z</time>
      </trkpt>
      <trkpt lat="45.58961" lon="5.40674">
        <ele>455</ele>
        <time>2021-10-02T12:04:18.573Z</time>
      </trkpt>
      <trkpt lat="45.58966" lon="5.40666">
        <ele>455</ele>
        <time>2021-10-02T12:04:17.572Z</time>
      </trkpt>
      <trkpt lat="45.58971" lon="5.40658">
        <ele>456</ele>
        <time>2021-10-02T12:04:16.573Z</time>
      </trkpt>
      <trkpt lat="45.58976" lon="5.4065">
        <ele>456</ele>
        <time>2021-10-02T12:04:15.573Z</time>
      </trkpt>
      <trkpt lat="45.58981" lon="5.40643">
        <ele>456</ele>
        <time>2021-10-02T12:04:14.572Z</time>
      </trkpt>
      <trkpt lat="45.58985" lon="5.40635">
        <ele>456</ele>
        <time>2021-10-02T12:04:13.572Z</time>
      </trkpt>
      <trkpt lat="45.5899" lon="5.40627">
        <ele>457</ele>
        <time>2021-10-02T12:04:12.572Z</time>
      </trkpt>
      <trkpt lat="45.58994" lon="5.40619">
        <ele>457</ele>
        <time>2021-10-02T12:04:11.573Z</time>
      </trkpt>
      <trkpt lat="45.58998" lon="5.40611">
        <ele>458</ele>
        <time>2021-10-02T12:04:10.573Z</time>
      </trkpt>
      <trkpt lat="45.59002" lon="5.40603">
        <ele>459</ele>
        <time>2021-10-02T12:04:09.573Z</time>
      </trkpt>
      <trkpt lat="45.59005" lon="5.40596">
        <ele>459</ele>
        <time>2021-10-02T12:04:08.573Z</time>
      </trkpt>
      <trkpt lat="45.59009" lon="5.40588">
        <ele>460</ele>
        <time>2021-10-02T12:04:07.573Z</time>
      </trkpt>
      <trkpt lat="45.59013" lon="5.4058">
        <ele>460</ele>
        <time>2021-10-02T12:04:06.573Z</time>
      </trkpt>
      <trkpt lat="45.59016" lon="5.40571">
        <ele>460</ele>
        <time>2021-10-02T12:04:05.573Z</time>
      </trkpt>
      <trkpt lat="45.5902" lon="5.40563">
        <ele>460</ele>
        <time>2021-10-02T12:04:04.573Z</time>
      </trkpt>
      <trkpt lat="45.59024" lon="5.40554">
        <ele>460</ele>
        <time>2021-10-02T12:04:03.573Z</time>
      </trkpt>
      <trkpt lat="45.59028" lon="5.40548">
        <ele>460</ele>
        <time>2021-10-02T12:04:02.573Z</time>
      </trkpt>
      <trkpt lat="45.59032" lon="5.4054">
        <ele>460</ele>
        <time>2021-10-02T12:04:01.573Z</time>
      </trkpt>
      <trkpt lat="45.59036" lon="5.40533">
        <ele>460</ele>
        <time>2021-10-02T12:04:00.573Z</time>
      </trkpt>
      <trkpt lat="45.5904" lon="5.40526">
        <ele>460</ele>
        <time>2021-10-02T12:03:59.573Z</time>
      </trkpt>
      <trkpt lat="45.59044" lon="5.40519">
        <ele>460</ele>
        <time>2021-10-02T12:03:58.573Z</time>
      </trkpt>
      <trkpt lat="45.59048" lon="5.40512">
        <ele>460</ele>
        <time>2021-10-02T12:03:57.573Z</time>
      </trkpt>
      <trkpt lat="45.59052" lon="5.40506">
        <ele>460</ele>
        <time>2021-10-02T12:03:56.573Z</time>
      </trkpt>
      <trkpt lat="45.59058" lon="5.40499">
        <ele>460</ele>
        <time>2021-10-02T12:03:55.573Z</time>
      </trkpt>
      <trkpt lat="45.59063" lon="5.40494">
        <ele>460</ele>
        <time>2021-10-02T12:03:54.572Z</time>
      </trkpt>
      <trkpt lat="45.59068" lon="5.40488">
        <ele>460</ele>
        <time>2021-10-02T12:03:53.573Z</time>
      </trkpt>
      <trkpt lat="45.59072" lon="5.40484">
        <ele>460</ele>
        <time>2021-10-02T12:03:52.573Z</time>
      </trkpt>
      <trkpt lat="45.59077" lon="5.40479">
        <ele>460</ele>
        <time>2021-10-02T12:03:51.573Z</time>
      </trkpt>
      <trkpt lat="45.59083" lon="5.40474">
        <ele>460</ele>
        <time>2021-10-02T12:03:50.572Z</time>
      </trkpt>
      <trkpt lat="45.59088" lon="5.4047">
        <ele>460</ele>
        <time>2021-10-02T12:03:49.573Z</time>
      </trkpt>
      <trkpt lat="45.59093" lon="5.40465">
        <ele>459</ele>
        <time>2021-10-02T12:03:48.572Z</time>
      </trkpt>
      <trkpt lat="45.59099" lon="5.40461">
        <ele>459</ele>
        <time>2021-10-02T12:03:47.573Z</time>
      </trkpt>
      <trkpt lat="45.59104" lon="5.40456">
        <ele>459</ele>
        <time>2021-10-02T12:03:46.573Z</time>
      </trkpt>
      <trkpt lat="45.59108" lon="5.40452">
        <ele>459</ele>
        <time>2021-10-02T12:03:45.572Z</time>
      </trkpt>
      <trkpt lat="45.59115" lon="5.40447">
        <ele>459</ele>
        <time>2021-10-02T12:03:44.573Z</time>
      </trkpt>
      <trkpt lat="45.5912" lon="5.40443">
        <ele>459</ele>
        <time>2021-10-02T12:03:43.573Z</time>
      </trkpt>
      <trkpt lat="45.59125" lon="5.40439">
        <ele>458</ele>
        <time>2021-10-02T12:03:42.573Z</time>
      </trkpt>
      <trkpt lat="45.59131" lon="5.40434">
        <ele>458</ele>
        <time>2021-10-02T12:03:41.573Z</time>
      </trkpt>
      <trkpt lat="45.59137" lon="5.4043">
        <ele>457</ele>
        <time>2021-10-02T12:03:40.573Z</time>
      </trkpt>
      <trkpt lat="45.59142" lon="5.40426">
        <ele>457</ele>
        <time>2021-10-02T12:03:39.573Z</time>
      </trkpt>
      <trkpt lat="45.59147" lon="5.40422">
        <ele>456</ele>
        <time>2021-10-02T12:03:38.573Z</time>
      </trkpt>
      <trkpt lat="45.59152" lon="5.40418">
        <ele>456</ele>
        <time>2021-10-02T12:03:37.573Z</time>
      </trkpt>
      <trkpt lat="45.59158" lon="5.40414">
        <ele>455</ele>
        <time>2021-10-02T12:03:36.573Z</time>
      </trkpt>
      <trkpt lat="45.59163" lon="5.4041">
        <ele>455</ele>
        <time>2021-10-02T12:03:35.572Z</time>
      </trkpt>
      <trkpt lat="45.59166" lon="5.40406">
        <ele>454</ele>
        <time>2021-10-02T12:03:34.573Z</time>
      </trkpt>
      <trkpt lat="45.59171" lon="5.40401">
        <ele>454</ele>
        <time>2021-10-02T12:03:33.573Z</time>
      </trkpt>
      <trkpt lat="45.59175" lon="5.40396">
        <ele>453</ele>
        <time>2021-10-02T12:03:32.573Z</time>
      </trkpt>
      <trkpt lat="45.5918" lon="5.40391">
        <ele>453</ele>
        <time>2021-10-02T12:03:31.573Z</time>
      </trkpt>
      <trkpt lat="45.59185" lon="5.40386">
        <ele>452</ele>
        <time>2021-10-02T12:03:30.573Z</time>
      </trkpt>
      <trkpt lat="45.5919" lon="5.40381">
        <ele>452</ele>
        <time>2021-10-02T12:03:29.573Z</time>
      </trkpt>
      <trkpt lat="45.59196" lon="5.40374">
        <ele>451</ele>
        <time>2021-10-02T12:03:28.573Z</time>
      </trkpt>
      <trkpt lat="45.592" lon="5.4037">
        <ele>451</ele>
        <time>2021-10-02T12:03:27.573Z</time>
      </trkpt>
      <trkpt lat="45.59205" lon="5.40363">
        <ele>450</ele>
        <time>2021-10-02T12:03:26.573Z</time>
      </trkpt>
      <trkpt lat="45.5921" lon="5.40356">
        <ele>450</ele>
        <time>2021-10-02T12:03:25.573Z</time>
      </trkpt>
      <trkpt lat="45.59214" lon="5.40347">
        <ele>450</ele>
        <time>2021-10-02T12:03:24.573Z</time>
      </trkpt>
      <trkpt lat="45.59217" lon="5.40336">
        <ele>450</ele>
        <time>2021-10-02T12:03:23.573Z</time>
      </trkpt>
      <trkpt lat="45.5922" lon="5.40326">
        <ele>450</ele>
        <time>2021-10-02T12:03:22.572Z</time>
      </trkpt>
      <trkpt lat="45.59222" lon="5.40315">
        <ele>450</ele>
        <time>2021-10-02T12:03:21.572Z</time>
      </trkpt>
      <trkpt lat="45.59224" lon="5.40303">
        <ele>450</ele>
        <time>2021-10-02T12:03:20.573Z</time>
      </trkpt>
      <trkpt lat="45.59226" lon="5.40288">
        <ele>450</ele>
        <time>2021-10-02T12:03:19.573Z</time>
      </trkpt>
      <trkpt lat="45.59227" lon="5.40276">
        <ele>451</ele>
        <time>2021-10-02T12:03:18.572Z</time>
      </trkpt>
      <trkpt lat="45.59228" lon="5.40266">
        <ele>450</ele>
        <time>2021-10-02T12:03:17.573Z</time>
      </trkpt>
      <trkpt lat="45.5923" lon="5.40254">
        <ele>451</ele>
        <time>2021-10-02T12:03:16.573Z</time>
      </trkpt>
      <trkpt lat="45.59232" lon="5.40241">
        <ele>451</ele>
        <time>2021-10-02T12:03:15.573Z</time>
      </trkpt>
      <trkpt lat="45.59234" lon="5.40229">
        <ele>451</ele>
        <time>2021-10-02T12:03:14.572Z</time>
      </trkpt>
      <trkpt lat="45.59236" lon="5.40216">
        <ele>452</ele>
        <time>2021-10-02T12:03:13.572Z</time>
      </trkpt>
      <trkpt lat="45.59238" lon="5.40204">
        <ele>452</ele>
        <time>2021-10-02T12:03:12.573Z</time>
      </trkpt>
      <trkpt lat="45.5924" lon="5.40192">
        <ele>451</ele>
        <time>2021-10-02T12:03:11.573Z</time>
      </trkpt>
      <trkpt lat="45.59242" lon="5.4018">
        <ele>451</ele>
        <time>2021-10-02T12:03:10.573Z</time>
      </trkpt>
      <trkpt lat="45.59244" lon="5.40168">
        <ele>451</ele>
        <time>2021-10-02T12:03:09.572Z</time>
      </trkpt>
      <trkpt lat="45.59247" lon="5.40156">
        <ele>452</ele>
        <time>2021-10-02T12:03:08.573Z</time>
      </trkpt>
      <trkpt lat="45.59249" lon="5.40145">
        <ele>452</ele>
        <time>2021-10-02T12:03:07.573Z</time>
      </trkpt>
      <trkpt lat="45.59252" lon="5.40133">
        <ele>453</ele>
        <time>2021-10-02T12:03:06.573Z</time>
      </trkpt>
      <trkpt lat="45.59256" lon="5.40122">
        <ele>453</ele>
        <time>2021-10-02T12:03:05.573Z</time>
      </trkpt>
      <trkpt lat="45.59259" lon="5.40111">
        <ele>453</ele>
        <time>2021-10-02T12:03:04.573Z</time>
      </trkpt>
      <trkpt lat="45.59263" lon="5.40101">
        <ele>454</ele>
        <time>2021-10-02T12:03:03.573Z</time>
      </trkpt>
      <trkpt lat="45.59266" lon="5.40091">
        <ele>454</ele>
        <time>2021-10-02T12:03:02.573Z</time>
      </trkpt>
      <trkpt lat="45.5927" lon="5.40081">
        <ele>454</ele>
        <time>2021-10-02T12:03:01.573Z</time>
      </trkpt>
      <trkpt lat="45.59273" lon="5.40071">
        <ele>454</ele>
        <time>2021-10-02T12:03:00.572Z</time>
      </trkpt>
      <trkpt lat="45.59276" lon="5.40061">
        <ele>454</ele>
        <time>2021-10-02T12:02:59.573Z</time>
      </trkpt>
      <trkpt lat="45.59279" lon="5.40051">
        <ele>454</ele>
        <time>2021-10-02T12:02:58.573Z</time>
      </trkpt>
      <trkpt lat="45.59282" lon="5.40042">
        <ele>454</ele>
        <time>2021-10-02T12:02:57.573Z</time>
      </trkpt>
      <trkpt lat="45.59286" lon="5.40032">
        <ele>455</ele>
        <time>2021-10-02T12:02:56.572Z</time>
      </trkpt>
      <trkpt lat="45.59289" lon="5.40025">
        <ele>455</ele>
        <time>2021-10-02T12:02:55.573Z</time>
      </trkpt>
      <trkpt lat="45.59292" lon="5.40017">
        <ele>455</ele>
        <time>2021-10-02T12:02:54.573Z</time>
      </trkpt>
      <trkpt lat="45.59295" lon="5.40008">
        <ele>455</ele>
        <time>2021-10-02T12:02:53.573Z</time>
      </trkpt>
      <trkpt lat="45.59298" lon="5.4">
        <ele>455</ele>
        <time>2021-10-02T12:02:52.573Z</time>
      </trkpt>
      <trkpt lat="45.59301" lon="5.39992">
        <ele>456</ele>
        <time>2021-10-02T12:02:51.572Z</time>
      </trkpt>
      <trkpt lat="45.59304" lon="5.39983">
        <ele>456</ele>
        <time>2021-10-02T12:02:50.573Z</time>
      </trkpt>
      <trkpt lat="45.59306" lon="5.39975">
        <ele>456</ele>
        <time>2021-10-02T12:02:49.573Z</time>
      </trkpt>
      <trkpt lat="45.59309" lon="5.39965">
        <ele>457</ele>
        <time>2021-10-02T12:02:48.573Z</time>
      </trkpt>
      <trkpt lat="45.59311" lon="5.39958">
        <ele>457</ele>
        <time>2021-10-02T12:02:47.573Z</time>
      </trkpt>
      <trkpt lat="45.59314" lon="5.3995">
        <ele>457</ele>
        <time>2021-10-02T12:02:46.573Z</time>
      </trkpt>
      <trkpt lat="45.59316" lon="5.39942">
        <ele>457</ele>
        <time>2021-10-02T12:02:45.572Z</time>
      </trkpt>
      <trkpt lat="45.59318" lon="5.39933">
        <ele>457</ele>
        <time>2021-10-02T12:02:44.573Z</time>
      </trkpt>
      <trkpt lat="45.59321" lon="5.39925">
        <ele>457</ele>
        <time>2021-10-02T12:02:43.573Z</time>
      </trkpt>
      <trkpt lat="45.59323" lon="5.39917">
        <ele>457</ele>
        <time>2021-10-02T12:02:42.573Z</time>
      </trkpt>
      <trkpt lat="45.59325" lon="5.39908">
        <ele>457</ele>
        <time>2021-10-02T12:02:41.573Z</time>
      </trkpt>
      <trkpt lat="45.59328" lon="5.399">
        <ele>457</ele>
        <time>2021-10-02T12:02:40.573Z</time>
      </trkpt>
      <trkpt lat="45.5933" lon="5.39892">
        <ele>457</ele>
        <time>2021-10-02T12:02:39.573Z</time>
      </trkpt>
      <trkpt lat="45.59333" lon="5.39883">
        <ele>457</ele>
        <time>2021-10-02T12:02:38.573Z</time>
      </trkpt>
      <trkpt lat="45.59336" lon="5.39873">
        <ele>456</ele>
        <time>2021-10-02T12:02:37.573Z</time>
      </trkpt>
      <trkpt lat="45.59338" lon="5.39866">
        <ele>456</ele>
        <time>2021-10-02T12:02:36.573Z</time>
      </trkpt>
      <trkpt lat="45.5934" lon="5.39858">
        <ele>456</ele>
        <time>2021-10-02T12:02:35.573Z</time>
      </trkpt>
      <trkpt lat="45.59342" lon="5.3985">
        <ele>455</ele>
        <time>2021-10-02T12:02:34.573Z</time>
      </trkpt>
      <trkpt lat="45.59345" lon="5.39841">
        <ele>455</ele>
        <time>2021-10-02T12:02:33.573Z</time>
      </trkpt>
      <trkpt lat="45.59347" lon="5.39833">
        <ele>455</ele>
        <time>2021-10-02T12:02:32.573Z</time>
      </trkpt>
      <trkpt lat="45.59349" lon="5.39825">
        <ele>455</ele>
        <time>2021-10-02T12:02:31.573Z</time>
      </trkpt>
      <trkpt lat="45.59351" lon="5.39819">
        <ele>456</ele>
        <time>2021-10-02T12:02:30.572Z</time>
      </trkpt>
      <trkpt lat="45.59353" lon="5.39811">
        <ele>456</ele>
        <time>2021-10-02T12:02:29.572Z</time>
      </trkpt>
      <trkpt lat="45.59356" lon="5.39804">
        <ele>455</ele>
        <time>2021-10-02T12:02:28.573Z</time>
      </trkpt>
      <trkpt lat="45.59359" lon="5.39796">
        <ele>455</ele>
        <time>2021-10-02T12:02:27.573Z</time>
      </trkpt>
      <trkpt lat="45.59361" lon="5.39789">
        <ele>455</ele>
        <time>2021-10-02T12:02:26.573Z</time>
      </trkpt>
      <trkpt lat="45.59365" lon="5.39783">
        <ele>456</ele>
        <time>2021-10-02T12:02:25.573Z</time>
      </trkpt>
      <trkpt lat="45.59368" lon="5.39775">
        <ele>456</ele>
        <time>2021-10-02T12:02:24.572Z</time>
      </trkpt>
      <trkpt lat="45.59371" lon="5.3977">
        <ele>457</ele>
        <time>2021-10-02T12:02:23.572Z</time>
      </trkpt>
      <trkpt lat="45.59374" lon="5.39764">
        <ele>457</ele>
        <time>2021-10-02T12:02:22.573Z</time>
      </trkpt>
      <trkpt lat="45.59377" lon="5.39757">
        <ele>456</ele>
        <time>2021-10-02T12:02:21.572Z</time>
      </trkpt>
      <trkpt lat="45.5938" lon="5.39751">
        <ele>456</ele>
        <time>2021-10-02T12:02:20.572Z</time>
      </trkpt>
      <trkpt lat="45.59383" lon="5.39744">
        <ele>455</ele>
        <time>2021-10-02T12:02:19.573Z</time>
      </trkpt>
      <trkpt lat="45.59386" lon="5.39738">
        <ele>455</ele>
        <time>2021-10-02T12:02:18.572Z</time>
      </trkpt>
      <trkpt lat="45.59389" lon="5.39732">
        <ele>456</ele>
        <time>2021-10-02T12:02:17.573Z</time>
      </trkpt>
      <trkpt lat="45.59392" lon="5.39725">
        <ele>456</ele>
        <time>2021-10-02T12:02:16.573Z</time>
      </trkpt>
      <trkpt lat="45.59394" lon="5.39719">
        <ele>456</ele>
        <time>2021-10-02T12:02:15.573Z</time>
      </trkpt>
      <trkpt lat="45.59397" lon="5.39713">
        <ele>455</ele>
        <time>2021-10-02T12:02:14.573Z</time>
      </trkpt>
      <trkpt lat="45.594" lon="5.39707">
        <ele>455</ele>
        <time>2021-10-02T12:02:13.573Z</time>
      </trkpt>
      <trkpt lat="45.59403" lon="5.397">
        <ele>455</ele>
        <time>2021-10-02T12:02:12.573Z</time>
      </trkpt>
      <trkpt lat="45.59406" lon="5.39694">
        <ele>455</ele>
        <time>2021-10-02T12:02:11.573Z</time>
      </trkpt>
      <trkpt lat="45.5941" lon="5.39686">
        <ele>455</ele>
        <time>2021-10-02T12:02:10.572Z</time>
      </trkpt>
      <trkpt lat="45.59412" lon="5.39681">
        <ele>455</ele>
        <time>2021-10-02T12:02:09.573Z</time>
      </trkpt>
      <trkpt lat="45.59415" lon="5.39674">
        <ele>455</ele>
        <time>2021-10-02T12:02:08.573Z</time>
      </trkpt>
      <trkpt lat="45.59418" lon="5.39668">
        <ele>455</ele>
        <time>2021-10-02T12:02:07.573Z</time>
      </trkpt>
      <trkpt lat="45.5942" lon="5.39661">
        <ele>455</ele>
        <time>2021-10-02T12:02:06.573Z</time>
      </trkpt>
      <trkpt lat="45.59423" lon="5.39655">
        <ele>455</ele>
        <time>2021-10-02T12:02:05.572Z</time>
      </trkpt>
      <trkpt lat="45.59427" lon="5.39647">
        <ele>454</ele>
        <time>2021-10-02T12:02:04.573Z</time>
      </trkpt>
      <trkpt lat="45.59429" lon="5.39642">
        <ele>454</ele>
        <time>2021-10-02T12:02:03.573Z</time>
      </trkpt>
      <trkpt lat="45.59432" lon="5.39635">
        <ele>454</ele>
        <time>2021-10-02T12:02:02.573Z</time>
      </trkpt>
      <trkpt lat="45.59434" lon="5.39629">
        <ele>454</ele>
        <time>2021-10-02T12:02:01.572Z</time>
      </trkpt>
      <trkpt lat="45.59437" lon="5.39623">
        <ele>454</ele>
        <time>2021-10-02T12:02:00.572Z</time>
      </trkpt>
      <trkpt lat="45.59439" lon="5.39617">
        <ele>454</ele>
        <time>2021-10-02T12:01:59.573Z</time>
      </trkpt>
      <trkpt lat="45.59442" lon="5.39611">
        <ele>454</ele>
        <time>2021-10-02T12:01:58.573Z</time>
      </trkpt>
      <trkpt lat="45.59444" lon="5.39606">
        <ele>454</ele>
        <time>2021-10-02T12:01:57.573Z</time>
      </trkpt>
      <trkpt lat="45.59447" lon="5.396">
        <ele>454</ele>
        <time>2021-10-02T12:01:56.572Z</time>
      </trkpt>
      <trkpt lat="45.5945" lon="5.39596">
        <ele>454</ele>
        <time>2021-10-02T12:01:55.572Z</time>
      </trkpt>
      <trkpt lat="45.59453" lon="5.39591">
        <ele>453</ele>
        <time>2021-10-02T12:01:54.572Z</time>
      </trkpt>
      <trkpt lat="45.59456" lon="5.39586">
        <ele>453</ele>
        <time>2021-10-02T12:01:53.573Z</time>
      </trkpt>
      <trkpt lat="45.59459" lon="5.39581">
        <ele>453</ele>
        <time>2021-10-02T12:01:52.573Z</time>
      </trkpt>
      <trkpt lat="45.59462" lon="5.39576">
        <ele>453</ele>
        <time>2021-10-02T12:01:51.572Z</time>
      </trkpt>
      <trkpt lat="45.59464" lon="5.39571">
        <ele>453</ele>
        <time>2021-10-02T12:01:50.573Z</time>
      </trkpt>
      <trkpt lat="45.59467" lon="5.39565">
        <ele>453</ele>
        <time>2021-10-02T12:01:49.573Z</time>
      </trkpt>
      <trkpt lat="45.5947" lon="5.39559">
        <ele>453</ele>
        <time>2021-10-02T12:01:48.573Z</time>
      </trkpt>
      <trkpt lat="45.59473" lon="5.39554">
        <ele>453</ele>
        <time>2021-10-02T12:01:47.573Z</time>
      </trkpt>
      <trkpt lat="45.59477" lon="5.39547">
        <ele>452</ele>
        <time>2021-10-02T12:01:46.573Z</time>
      </trkpt>
      <trkpt lat="45.59479" lon="5.39542">
        <ele>452</ele>
        <time>2021-10-02T12:01:45.573Z</time>
      </trkpt>
      <trkpt lat="45.59482" lon="5.39537">
        <ele>452</ele>
        <time>2021-10-02T12:01:44.573Z</time>
      </trkpt>
      <trkpt lat="45.59484" lon="5.39531">
        <ele>452</ele>
        <time>2021-10-02T12:01:43.572Z</time>
      </trkpt>
      <trkpt lat="45.59488" lon="5.39525">
        <ele>452</ele>
        <time>2021-10-02T12:01:42.573Z</time>
      </trkpt>
      <trkpt lat="45.5949" lon="5.3952">
        <ele>452</ele>
        <time>2021-10-02T12:01:41.573Z</time>
      </trkpt>
      <trkpt lat="45.59492" lon="5.39515">
        <ele>452</ele>
        <time>2021-10-02T12:01:40.572Z</time>
      </trkpt>
      <trkpt lat="45.59495" lon="5.39509">
        <ele>453</ele>
        <time>2021-10-02T12:01:39.573Z</time>
      </trkpt>
      <trkpt lat="45.59497" lon="5.39504">
        <ele>453</ele>
        <time>2021-10-02T12:01:38.573Z</time>
      </trkpt>
      <trkpt lat="45.595" lon="5.39498">
        <ele>453</ele>
        <time>2021-10-02T12:01:37.573Z</time>
      </trkpt>
      <trkpt lat="45.59503" lon="5.39493">
        <ele>453</ele>
        <time>2021-10-02T12:01:36.573Z</time>
      </trkpt>
      <trkpt lat="45.59505" lon="5.39488">
        <ele>453</ele>
        <time>2021-10-02T12:01:35.572Z</time>
      </trkpt>
      <trkpt lat="45.59508" lon="5.39483">
        <ele>452</ele>
        <time>2021-10-02T12:01:34.573Z</time>
      </trkpt>
      <trkpt lat="45.59511" lon="5.39478">
        <ele>452</ele>
        <time>2021-10-02T12:01:33.572Z</time>
      </trkpt>
      <trkpt lat="45.59513" lon="5.39473">
        <ele>452</ele>
        <time>2021-10-02T12:01:32.573Z</time>
      </trkpt>
      <trkpt lat="45.59516" lon="5.39468">
        <ele>452</ele>
        <time>2021-10-02T12:01:31.572Z</time>
      </trkpt>
      <trkpt lat="45.59518" lon="5.39463">
        <ele>451</ele>
        <time>2021-10-02T12:01:30.573Z</time>
      </trkpt>
      <trkpt lat="45.59521" lon="5.39458">
        <ele>451</ele>
        <time>2021-10-02T12:01:29.573Z</time>
      </trkpt>
      <trkpt lat="45.59524" lon="5.39453">
        <ele>451</ele>
        <time>2021-10-02T12:01:28.573Z</time>
      </trkpt>
      <trkpt lat="45.59526" lon="5.39448">
        <ele>451</ele>
        <time>2021-10-02T12:01:27.573Z</time>
      </trkpt>
      <trkpt lat="45.59529" lon="5.39443">
        <ele>451</ele>
        <time>2021-10-02T12:01:26.572Z</time>
      </trkpt>
      <trkpt lat="45.59531" lon="5.39438">
        <ele>451</ele>
        <time>2021-10-02T12:01:25.572Z</time>
      </trkpt>
      <trkpt lat="45.59534" lon="5.39433">
        <ele>451</ele>
        <time>2021-10-02T12:01:24.572Z</time>
      </trkpt>
      <trkpt lat="45.59536" lon="5.39428">
        <ele>451</ele>
        <time>2021-10-02T12:01:23.573Z</time>
      </trkpt>
      <trkpt lat="45.59538" lon="5.39423">
        <ele>450</ele>
        <time>2021-10-02T12:01:22.573Z</time>
      </trkpt>
      <trkpt lat="45.5954" lon="5.39418">
        <ele>450</ele>
        <time>2021-10-02T12:01:21.572Z</time>
      </trkpt>
      <trkpt lat="45.59543" lon="5.39413">
        <ele>450</ele>
        <time>2021-10-02T12:01:20.573Z</time>
      </trkpt>
      <trkpt lat="45.59544" lon="5.39409">
        <ele>449</ele>
        <time>2021-10-02T12:01:19.573Z</time>
      </trkpt>
      <trkpt lat="45.59546" lon="5.39404">
        <ele>449</ele>
        <time>2021-10-02T12:01:18.573Z</time>
      </trkpt>
      <trkpt lat="45.59548" lon="5.39399">
        <ele>449</ele>
        <time>2021-10-02T12:01:17.573Z</time>
      </trkpt>
      <trkpt lat="45.5955" lon="5.39394">
        <ele>449</ele>
        <time>2021-10-02T12:01:16.572Z</time>
      </trkpt>
      <trkpt lat="45.59552" lon="5.3939">
        <ele>449</ele>
        <time>2021-10-02T12:01:15.572Z</time>
      </trkpt>
      <trkpt lat="45.59555" lon="5.39384">
        <ele>449</ele>
        <time>2021-10-02T12:01:14.573Z</time>
      </trkpt>
      <trkpt lat="45.59556" lon="5.3938">
        <ele>449</ele>
        <time>2021-10-02T12:01:13.573Z</time>
      </trkpt>
      <trkpt lat="45.59558" lon="5.39376">
        <ele>449</ele>
        <time>2021-10-02T12:01:12.573Z</time>
      </trkpt>
      <trkpt lat="45.5956" lon="5.39371">
        <ele>449</ele>
        <time>2021-10-02T12:01:11.572Z</time>
      </trkpt>
      <trkpt lat="45.59562" lon="5.39365">
        <ele>449</ele>
        <time>2021-10-02T12:01:10.572Z</time>
      </trkpt>
      <trkpt lat="45.59564" lon="5.3936">
        <ele>449</ele>
        <time>2021-10-02T12:01:09.572Z</time>
      </trkpt>
      <trkpt lat="45.59565" lon="5.39355">
        <ele>449</ele>
        <time>2021-10-02T12:01:08.572Z</time>
      </trkpt>
      <trkpt lat="45.59567" lon="5.39351">
        <ele>448</ele>
        <time>2021-10-02T12:01:07.573Z</time>
      </trkpt>
      <trkpt lat="45.59568" lon="5.39346">
        <ele>448</ele>
        <time>2021-10-02T12:01:06.572Z</time>
      </trkpt>
      <trkpt lat="45.5957" lon="5.39341">
        <ele>448</ele>
        <time>2021-10-02T12:01:05.572Z</time>
      </trkpt>
      <trkpt lat="45.59572" lon="5.39335">
        <ele>448</ele>
        <time>2021-10-02T12:01:04.572Z</time>
      </trkpt>
      <trkpt lat="45.59573" lon="5.3933">
        <ele>447</ele>
        <time>2021-10-02T12:01:03.573Z</time>
      </trkpt>
      <trkpt lat="45.59574" lon="5.39325">
        <ele>447</ele>
        <time>2021-10-02T12:01:02.572Z</time>
      </trkpt>
      <trkpt lat="45.59576" lon="5.3932">
        <ele>447</ele>
        <time>2021-10-02T12:01:01.572Z</time>
      </trkpt>
      <trkpt lat="45.59577" lon="5.39315">
        <ele>447</ele>
        <time>2021-10-02T12:01:00.573Z</time>
      </trkpt>
      <trkpt lat="45.59578" lon="5.3931">
        <ele>447</ele>
        <time>2021-10-02T12:00:59.573Z</time>
      </trkpt>
      <trkpt lat="45.5958" lon="5.39305">
        <ele>447</ele>
        <time>2021-10-02T12:00:58.573Z</time>
      </trkpt>
      <trkpt lat="45.59582" lon="5.393">
        <ele>446</ele>
        <time>2021-10-02T12:00:57.572Z</time>
      </trkpt>
      <trkpt lat="45.59583" lon="5.39295">
        <ele>446</ele>
        <time>2021-10-02T12:00:56.573Z</time>
      </trkpt>
      <trkpt lat="45.59584" lon="5.3929">
        <ele>446</ele>
        <time>2021-10-02T12:00:55.572Z</time>
      </trkpt>
      <trkpt lat="45.59586" lon="5.39286">
        <ele>446</ele>
        <time>2021-10-02T12:00:54.572Z</time>
      </trkpt>
      <trkpt lat="45.59587" lon="5.39281">
        <ele>446</ele>
        <time>2021-10-02T12:00:53.573Z</time>
      </trkpt>
      <trkpt lat="45.59589" lon="5.39277">
        <ele>446</ele>
        <time>2021-10-02T12:00:52.573Z</time>
      </trkpt>
      <trkpt lat="45.5959" lon="5.39271">
        <ele>446</ele>
        <time>2021-10-02T12:00:51.572Z</time>
      </trkpt>
      <trkpt lat="45.59592" lon="5.39266">
        <ele>445</ele>
        <time>2021-10-02T12:00:50.572Z</time>
      </trkpt>
      <trkpt lat="45.59593" lon="5.39261">
        <ele>445</ele>
        <time>2021-10-02T12:00:49.572Z</time>
      </trkpt>
      <trkpt lat="45.59595" lon="5.39257">
        <ele>445</ele>
        <time>2021-10-02T12:00:48.573Z</time>
      </trkpt>
      <trkpt lat="45.59597" lon="5.39252">
        <ele>445</ele>
        <time>2021-10-02T12:00:47.573Z</time>
      </trkpt>
      <trkpt lat="45.59599" lon="5.39247">
        <ele>444</ele>
        <time>2021-10-02T12:00:46.572Z</time>
      </trkpt>
      <trkpt lat="45.59601" lon="5.39243">
        <ele>444</ele>
        <time>2021-10-02T12:00:45.573Z</time>
      </trkpt>
      <trkpt lat="45.59604" lon="5.39238">
        <ele>444</ele>
        <time>2021-10-02T12:00:44.573Z</time>
      </trkpt>
      <trkpt lat="45.59606" lon="5.39233">
        <ele>444</ele>
        <time>2021-10-02T12:00:43.573Z</time>
      </trkpt>
      <trkpt lat="45.59608" lon="5.39228">
        <ele>443</ele>
        <time>2021-10-02T12:00:42.573Z</time>
      </trkpt>
      <trkpt lat="45.5961" lon="5.39224">
        <ele>443</ele>
        <time>2021-10-02T12:00:41.572Z</time>
      </trkpt>
      <trkpt lat="45.59613" lon="5.39219">
        <ele>443</ele>
        <time>2021-10-02T12:00:40.573Z</time>
      </trkpt>
      <trkpt lat="45.59615" lon="5.39215">
        <ele>443</ele>
        <time>2021-10-02T12:00:39.572Z</time>
      </trkpt>
      <trkpt lat="45.59617" lon="5.39211">
        <ele>443</ele>
        <time>2021-10-02T12:00:38.573Z</time>
      </trkpt>
      <trkpt lat="45.59619" lon="5.39207">
        <ele>442</ele>
        <time>2021-10-02T12:00:37.572Z</time>
      </trkpt>
      <trkpt lat="45.59621" lon="5.39203">
        <ele>442</ele>
        <time>2021-10-02T12:00:36.573Z</time>
      </trkpt>
      <trkpt lat="45.59623" lon="5.39199">
        <ele>442</ele>
        <time>2021-10-02T12:00:35.573Z</time>
      </trkpt>
      <trkpt lat="45.59625" lon="5.39195">
        <ele>442</ele>
        <time>2021-10-02T12:00:34.572Z</time>
      </trkpt>
      <trkpt lat="45.59627" lon="5.39191">
        <ele>442</ele>
        <time>2021-10-02T12:00:33.573Z</time>
      </trkpt>
      <trkpt lat="45.5963" lon="5.39186">
        <ele>441</ele>
        <time>2021-10-02T12:00:32.572Z</time>
      </trkpt>
      <trkpt lat="45.59632" lon="5.39181">
        <ele>441</ele>
        <time>2021-10-02T12:00:31.573Z</time>
      </trkpt>
      <trkpt lat="45.59634" lon="5.39176">
        <ele>440</ele>
        <time>2021-10-02T12:00:30.572Z</time>
      </trkpt>
      <trkpt lat="45.59635" lon="5.39172">
        <ele>440</ele>
        <time>2021-10-02T12:00:29.572Z</time>
      </trkpt>
      <trkpt lat="45.59637" lon="5.39166">
        <ele>439</ele>
        <time>2021-10-02T12:00:28.572Z</time>
      </trkpt>
      <trkpt lat="45.59638" lon="5.39161">
        <ele>439</ele>
        <time>2021-10-02T12:00:27.572Z</time>
      </trkpt>
      <trkpt lat="45.59641" lon="5.39155">
        <ele>438</ele>
        <time>2021-10-02T12:00:26.572Z</time>
      </trkpt>
      <trkpt lat="45.59643" lon="5.39151">
        <ele>438</ele>
        <time>2021-10-02T12:00:25.572Z</time>
      </trkpt>
      <trkpt lat="45.59645" lon="5.39146">
        <ele>438</ele>
        <time>2021-10-02T12:00:24.572Z</time>
      </trkpt>
      <trkpt lat="45.59646" lon="5.3914">
        <ele>437</ele>
        <time>2021-10-02T12:00:23.572Z</time>
      </trkpt>
      <trkpt lat="45.59648" lon="5.39135">
        <ele>437</ele>
        <time>2021-10-02T12:00:22.573Z</time>
      </trkpt>
      <trkpt lat="45.5965" lon="5.3913">
        <ele>437</ele>
        <time>2021-10-02T12:00:21.572Z</time>
      </trkpt>
      <trkpt lat="45.59651" lon="5.39125">
        <ele>437</ele>
        <time>2021-10-02T12:00:20.573Z</time>
      </trkpt>
      <trkpt lat="45.59653" lon="5.3912">
        <ele>437</ele>
        <time>2021-10-02T12:00:19.572Z</time>
      </trkpt>
      <trkpt lat="45.59654" lon="5.39115">
        <ele>437</ele>
        <time>2021-10-02T12:00:18.572Z</time>
      </trkpt>
      <trkpt lat="45.59656" lon="5.3911">
        <ele>437</ele>
        <time>2021-10-02T12:00:17.573Z</time>
      </trkpt>
      <trkpt lat="45.59658" lon="5.39104">
        <ele>437</ele>
        <time>2021-10-02T12:00:16.572Z</time>
      </trkpt>
      <trkpt lat="45.5966" lon="5.39099">
        <ele>437</ele>
        <time>2021-10-02T12:00:15.573Z</time>
      </trkpt>
      <trkpt lat="45.59662" lon="5.39093">
        <ele>437</ele>
        <time>2021-10-02T12:00:14.572Z</time>
      </trkpt>
      <trkpt lat="45.59663" lon="5.39088">
        <ele>436</ele>
        <time>2021-10-02T12:00:13.572Z</time>
      </trkpt>
      <trkpt lat="45.59665" lon="5.39082">
        <ele>436</ele>
        <time>2021-10-02T12:00:12.573Z</time>
      </trkpt>
      <trkpt lat="45.59667" lon="5.39076">
        <ele>436</ele>
        <time>2021-10-02T12:00:11.573Z</time>
      </trkpt>
      <trkpt lat="45.59668" lon="5.39071">
        <ele>435</ele>
        <time>2021-10-02T12:00:10.573Z</time>
      </trkpt>
      <trkpt lat="45.5967" lon="5.39065">
        <ele>434</ele>
        <time>2021-10-02T12:00:09.573Z</time>
      </trkpt>
      <trkpt lat="45.59672" lon="5.39059">
        <ele>434</ele>
        <time>2021-10-02T12:00:08.572Z</time>
      </trkpt>
      <trkpt lat="45.59673" lon="5.39053">
        <ele>434</ele>
        <time>2021-10-02T12:00:07.573Z</time>
      </trkpt>
      <trkpt lat="45.59675" lon="5.39047">
        <ele>434</ele>
        <time>2021-10-02T12:00:06.572Z</time>
      </trkpt>
      <trkpt lat="45.59677" lon="5.39041">
        <ele>434</ele>
        <time>2021-10-02T12:00:05.573Z</time>
      </trkpt>
      <trkpt lat="45.59679" lon="5.39035">
        <ele>434</ele>
        <time>2021-10-02T12:00:04.573Z</time>
      </trkpt>
      <trkpt lat="45.59681" lon="5.39029">
        <ele>433</ele>
        <time>2021-10-02T12:00:03.573Z</time>
      </trkpt>
      <trkpt lat="45.59683" lon="5.39023">
        <ele>433</ele>
        <time>2021-10-02T12:00:02.572Z</time>
      </trkpt>
      <trkpt lat="45.59685" lon="5.39017">
        <ele>433</ele>
        <time>2021-10-02T12:00:01.572Z</time>
      </trkpt>
      <trkpt lat="45.59687" lon="5.39011">
        <ele>433</ele>
        <time>2021-10-02T12:00:00.573Z</time>
      </trkpt>
      <trkpt lat="45.5969" lon="5.39005">
        <ele>433</ele>
        <time>2021-10-02T11:59:59.572Z</time>
      </trkpt>
      <trkpt lat="45.59692" lon="5.38999">
        <ele>433</ele>
        <time>2021-10-02T11:59:58.573Z</time>
      </trkpt>
      <trkpt lat="45.59694" lon="5.38991">
        <ele>433</ele>
        <time>2021-10-02T11:59:57.573Z</time>
      </trkpt>
      <trkpt lat="45.59696" lon="5.38984">
        <ele>433</ele>
        <time>2021-10-02T11:59:56.573Z</time>
      </trkpt>
      <trkpt lat="45.59698" lon="5.38976">
        <ele>433</ele>
        <time>2021-10-02T11:59:55.572Z</time>
      </trkpt>
      <trkpt lat="45.597" lon="5.38968">
        <ele>433</ele>
        <time>2021-10-02T11:59:54.573Z</time>
      </trkpt>
      <trkpt lat="45.59702" lon="5.3896">
        <ele>432</ele>
        <time>2021-10-02T11:59:53.572Z</time>
      </trkpt>
      <trkpt lat="45.59704" lon="5.38951">
        <ele>432</ele>
        <time>2021-10-02T11:59:52.572Z</time>
      </trkpt>
      <trkpt lat="45.59705" lon="5.38943">
        <ele>432</ele>
        <time>2021-10-02T11:59:51.573Z</time>
      </trkpt>
      <trkpt lat="45.59707" lon="5.38934">
        <ele>432</ele>
        <time>2021-10-02T11:59:50.573Z</time>
      </trkpt>
      <trkpt lat="45.59708" lon="5.38925">
        <ele>432</ele>
        <time>2021-10-02T11:59:49.572Z</time>
      </trkpt>
      <trkpt lat="45.59708" lon="5.38915">
        <ele>432</ele>
        <time>2021-10-02T11:59:48.572Z</time>
      </trkpt>
      <trkpt lat="45.59707" lon="5.38906">
        <ele>433</ele>
        <time>2021-10-02T11:59:47.573Z</time>
      </trkpt>
      <trkpt lat="45.59706" lon="5.38898">
        <ele>433</ele>
        <time>2021-10-02T11:59:46.573Z</time>
      </trkpt>
      <trkpt lat="45.59705" lon="5.38889">
        <ele>433</ele>
        <time>2021-10-02T11:59:45.572Z</time>
      </trkpt>
      <trkpt lat="45.59702" lon="5.38881">
        <ele>434</ele>
        <time>2021-10-02T11:59:44.572Z</time>
      </trkpt>
      <trkpt lat="45.59697" lon="5.38873">
        <ele>434</ele>
        <time>2021-10-02T11:59:43.573Z</time>
      </trkpt>
      <trkpt lat="45.59692" lon="5.38867">
        <ele>434</ele>
        <time>2021-10-02T11:59:42.573Z</time>
      </trkpt>
      <trkpt lat="45.59686" lon="5.38863">
        <ele>433</ele>
        <time>2021-10-02T11:59:41.573Z</time>
      </trkpt>
      <trkpt lat="45.59678" lon="5.38859">
        <ele>433</ele>
        <time>2021-10-02T11:59:40.572Z</time>
      </trkpt>
      <trkpt lat="45.59671" lon="5.38855">
        <ele>432</ele>
        <time>2021-10-02T11:59:39.573Z</time>
      </trkpt>
      <trkpt lat="45.59664" lon="5.38851">
        <ele>432</ele>
        <time>2021-10-02T11:59:38.572Z</time>
      </trkpt>
      <trkpt lat="45.59656" lon="5.38846">
        <ele>432</ele>
        <time>2021-10-02T11:59:37.573Z</time>
      </trkpt>
      <trkpt lat="45.5965" lon="5.38837">
        <ele>431</ele>
        <time>2021-10-02T11:59:36.572Z</time>
      </trkpt>
      <trkpt lat="45.59646" lon="5.38826">
        <ele>432</ele>
        <time>2021-10-02T11:59:35.572Z</time>
      </trkpt>
      <trkpt lat="45.59644" lon="5.38815">
        <ele>432</ele>
        <time>2021-10-02T11:59:34.573Z</time>
      </trkpt>
      <trkpt lat="45.59643" lon="5.38803">
        <ele>432</ele>
        <time>2021-10-02T11:59:33.572Z</time>
      </trkpt>
      <trkpt lat="45.59643" lon="5.38791">
        <ele>432</ele>
        <time>2021-10-02T11:59:32.572Z</time>
      </trkpt>
      <trkpt lat="45.59644" lon="5.3878">
        <ele>432</ele>
        <time>2021-10-02T11:59:31.572Z</time>
      </trkpt>
      <trkpt lat="45.59647" lon="5.38769">
        <ele>432</ele>
        <time>2021-10-02T11:59:30.572Z</time>
      </trkpt>
      <trkpt lat="45.5965" lon="5.3876">
        <ele>433</ele>
        <time>2021-10-02T11:59:29.573Z</time>
      </trkpt>
      <trkpt lat="45.59652" lon="5.3875">
        <ele>433</ele>
        <time>2021-10-02T11:59:28.572Z</time>
      </trkpt>
      <trkpt lat="45.59655" lon="5.38741">
        <ele>433</ele>
        <time>2021-10-02T11:59:27.572Z</time>
      </trkpt>
      <trkpt lat="45.59658" lon="5.38733">
        <ele>433</ele>
        <time>2021-10-02T11:59:26.572Z</time>
      </trkpt>
      <trkpt lat="45.59661" lon="5.38724">
        <ele>433</ele>
        <time>2021-10-02T11:59:25.572Z</time>
      </trkpt>
      <trkpt lat="45.59663" lon="5.38715">
        <ele>433</ele>
        <time>2021-10-02T11:59:24.572Z</time>
      </trkpt>
      <trkpt lat="45.59666" lon="5.38707">
        <ele>433</ele>
        <time>2021-10-02T11:59:23.573Z</time>
      </trkpt>
      <trkpt lat="45.59668" lon="5.38698">
        <ele>433</ele>
        <time>2021-10-02T11:59:22.573Z</time>
      </trkpt>
      <trkpt lat="45.59671" lon="5.3869">
        <ele>433</ele>
        <time>2021-10-02T11:59:21.573Z</time>
      </trkpt>
      <trkpt lat="45.59674" lon="5.38681">
        <ele>433</ele>
        <time>2021-10-02T11:59:20.572Z</time>
      </trkpt>
      <trkpt lat="45.59676" lon="5.38672">
        <ele>433</ele>
        <time>2021-10-02T11:59:19.573Z</time>
      </trkpt>
      <trkpt lat="45.59679" lon="5.38663">
        <ele>434</ele>
        <time>2021-10-02T11:59:18.572Z</time>
      </trkpt>
      <trkpt lat="45.59681" lon="5.38655">
        <ele>434</ele>
        <time>2021-10-02T11:59:17.572Z</time>
      </trkpt>
      <trkpt lat="45.59684" lon="5.38646">
        <ele>434</ele>
        <time>2021-10-02T11:59:16.573Z</time>
      </trkpt>
      <trkpt lat="45.59686" lon="5.38637">
        <ele>434</ele>
        <time>2021-10-02T11:59:15.573Z</time>
      </trkpt>
      <trkpt lat="45.59688" lon="5.38628">
        <ele>434</ele>
        <time>2021-10-02T11:59:14.573Z</time>
      </trkpt>
      <trkpt lat="45.59691" lon="5.38619">
        <ele>434</ele>
        <time>2021-10-02T11:59:13.573Z</time>
      </trkpt>
      <trkpt lat="45.59693" lon="5.38611">
        <ele>434</ele>
        <time>2021-10-02T11:59:12.573Z</time>
      </trkpt>
      <trkpt lat="45.59695" lon="5.38603">
        <ele>435</ele>
        <time>2021-10-02T11:59:11.572Z</time>
      </trkpt>
      <trkpt lat="45.59698" lon="5.38596">
        <ele>435</ele>
        <time>2021-10-02T11:59:10.573Z</time>
      </trkpt>
      <trkpt lat="45.597" lon="5.38588">
        <ele>435</ele>
        <time>2021-10-02T11:59:09.573Z</time>
      </trkpt>
      <trkpt lat="45.59703" lon="5.38581">
        <ele>435</ele>
        <time>2021-10-02T11:59:08.573Z</time>
      </trkpt>
      <trkpt lat="45.59705" lon="5.38574">
        <ele>435</ele>
        <time>2021-10-02T11:59:07.572Z</time>
      </trkpt>
      <trkpt lat="45.59707" lon="5.38567">
        <ele>435</ele>
        <time>2021-10-02T11:59:06.572Z</time>
      </trkpt>
      <trkpt lat="45.59709" lon="5.3856">
        <ele>435</ele>
        <time>2021-10-02T11:59:05.572Z</time>
      </trkpt>
      <trkpt lat="45.59711" lon="5.38553">
        <ele>435</ele>
        <time>2021-10-02T11:59:04.573Z</time>
      </trkpt>
      <trkpt lat="45.59713" lon="5.38546">
        <ele>435</ele>
        <time>2021-10-02T11:59:03.572Z</time>
      </trkpt>
      <trkpt lat="45.59716" lon="5.38539">
        <ele>435</ele>
        <time>2021-10-02T11:59:02.572Z</time>
      </trkpt>
      <trkpt lat="45.59718" lon="5.38532">
        <ele>436</ele>
        <time>2021-10-02T11:59:01.573Z</time>
      </trkpt>
      <trkpt lat="45.59721" lon="5.38526">
        <ele>436</ele>
        <time>2021-10-02T11:59:00.572Z</time>
      </trkpt>
      <trkpt lat="45.59723" lon="5.3852">
        <ele>436</ele>
        <time>2021-10-02T11:58:59.572Z</time>
      </trkpt>
      <trkpt lat="45.59726" lon="5.38512">
        <ele>436</ele>
        <time>2021-10-02T11:58:58.573Z</time>
      </trkpt>
      <trkpt lat="45.59729" lon="5.38505">
        <ele>436</ele>
        <time>2021-10-02T11:58:57.573Z</time>
      </trkpt>
      <trkpt lat="45.59731" lon="5.38497">
        <ele>436</ele>
        <time>2021-10-02T11:58:56.572Z</time>
      </trkpt>
      <trkpt lat="45.59733" lon="5.38489">
        <ele>436</ele>
        <time>2021-10-02T11:58:55.572Z</time>
      </trkpt>
      <trkpt lat="45.59734" lon="5.38481">
        <ele>436</ele>
        <time>2021-10-02T11:58:54.572Z</time>
      </trkpt>
      <trkpt lat="45.59735" lon="5.38472">
        <ele>436</ele>
        <time>2021-10-02T11:58:53.573Z</time>
      </trkpt>
      <trkpt lat="45.59736" lon="5.38463">
        <ele>436</ele>
        <time>2021-10-02T11:58:52.572Z</time>
      </trkpt>
      <trkpt lat="45.59736" lon="5.38455">
        <ele>436</ele>
        <time>2021-10-02T11:58:51.572Z</time>
      </trkpt>
      <trkpt lat="45.59737" lon="5.38446">
        <ele>436</ele>
        <time>2021-10-02T11:58:50.573Z</time>
      </trkpt>
      <trkpt lat="45.59737" lon="5.38437">
        <ele>436</ele>
        <time>2021-10-02T11:58:49.573Z</time>
      </trkpt>
      <trkpt lat="45.59738" lon="5.38428">
        <ele>435</ele>
        <time>2021-10-02T11:58:48.573Z</time>
      </trkpt>
      <trkpt lat="45.59738" lon="5.38419">
        <ele>435</ele>
        <time>2021-10-02T11:58:47.573Z</time>
      </trkpt>
      <trkpt lat="45.59739" lon="5.3841">
        <ele>435</ele>
        <time>2021-10-02T11:58:46.572Z</time>
      </trkpt>
      <trkpt lat="45.59739" lon="5.38401">
        <ele>435</ele>
        <time>2021-10-02T11:58:45.573Z</time>
      </trkpt>
      <trkpt lat="45.59739" lon="5.38392">
        <ele>435</ele>
        <time>2021-10-02T11:58:44.573Z</time>
      </trkpt>
      <trkpt lat="45.59739" lon="5.38383">
        <ele>435</ele>
        <time>2021-10-02T11:58:43.572Z</time>
      </trkpt>
      <trkpt lat="45.59739" lon="5.38374">
        <ele>435</ele>
        <time>2021-10-02T11:58:42.573Z</time>
      </trkpt>
      <trkpt lat="45.59738" lon="5.38366">
        <ele>435</ele>
        <time>2021-10-02T11:58:41.572Z</time>
      </trkpt>
      <trkpt lat="45.59738" lon="5.38357">
        <ele>435</ele>
        <time>2021-10-02T11:58:40.573Z</time>
      </trkpt>
      <trkpt lat="45.59737" lon="5.38349">
        <ele>436</ele>
        <time>2021-10-02T11:58:39.572Z</time>
      </trkpt>
      <trkpt lat="45.59736" lon="5.38341">
        <ele>436</ele>
        <time>2021-10-02T11:58:38.572Z</time>
      </trkpt>
      <trkpt lat="45.59736" lon="5.38333">
        <ele>437</ele>
        <time>2021-10-02T11:58:37.573Z</time>
      </trkpt>
      <trkpt lat="45.59735" lon="5.38326">
        <ele>437</ele>
        <time>2021-10-02T11:58:36.573Z</time>
      </trkpt>
      <trkpt lat="45.59735" lon="5.38318">
        <ele>438</ele>
        <time>2021-10-02T11:58:35.573Z</time>
      </trkpt>
      <trkpt lat="45.59735" lon="5.3831">
        <ele>438</ele>
        <time>2021-10-02T11:58:34.573Z</time>
      </trkpt>
      <trkpt lat="45.59735" lon="5.38302">
        <ele>438</ele>
        <time>2021-10-02T11:58:33.572Z</time>
      </trkpt>
      <trkpt lat="45.59735" lon="5.38294">
        <ele>438</ele>
        <time>2021-10-02T11:58:32.573Z</time>
      </trkpt>
      <trkpt lat="45.59735" lon="5.38286">
        <ele>437</ele>
        <time>2021-10-02T11:58:31.573Z</time>
      </trkpt>
      <trkpt lat="45.59735" lon="5.38279">
        <ele>437</ele>
        <time>2021-10-02T11:58:30.573Z</time>
      </trkpt>
      <trkpt lat="45.59735" lon="5.38271">
        <ele>436</ele>
        <time>2021-10-02T11:58:29.572Z</time>
      </trkpt>
      <trkpt lat="45.59735" lon="5.38263">
        <ele>436</ele>
        <time>2021-10-02T11:58:28.572Z</time>
      </trkpt>
      <trkpt lat="45.59735" lon="5.38255">
        <ele>436</ele>
        <time>2021-10-02T11:58:27.573Z</time>
      </trkpt>
      <trkpt lat="45.59736" lon="5.38249">
        <ele>437</ele>
        <time>2021-10-02T11:58:26.573Z</time>
      </trkpt>
      <trkpt lat="45.59737" lon="5.38241">
        <ele>437</ele>
        <time>2021-10-02T11:58:25.573Z</time>
      </trkpt>
      <trkpt lat="45.59739" lon="5.38234">
        <ele>437</ele>
        <time>2021-10-02T11:58:24.572Z</time>
      </trkpt>
      <trkpt lat="45.59741" lon="5.38227">
        <ele>437</ele>
        <time>2021-10-02T11:58:23.573Z</time>
      </trkpt>
      <trkpt lat="45.59743" lon="5.3822">
        <ele>437</ele>
        <time>2021-10-02T11:58:22.573Z</time>
      </trkpt>
      <trkpt lat="45.59745" lon="5.38215">
        <ele>437</ele>
        <time>2021-10-02T11:58:21.573Z</time>
      </trkpt>
      <trkpt lat="45.59747" lon="5.38208">
        <ele>437</ele>
        <time>2021-10-02T11:58:20.573Z</time>
      </trkpt>
      <trkpt lat="45.5975" lon="5.382">
        <ele>438</ele>
        <time>2021-10-02T11:58:19.572Z</time>
      </trkpt>
      <trkpt lat="45.59753" lon="5.38193">
        <ele>438</ele>
        <time>2021-10-02T11:58:18.572Z</time>
      </trkpt>
      <trkpt lat="45.59755" lon="5.38186">
        <ele>438</ele>
        <time>2021-10-02T11:58:17.573Z</time>
      </trkpt>
      <trkpt lat="45.59758" lon="5.38179">
        <ele>438</ele>
        <time>2021-10-02T11:58:16.573Z</time>
      </trkpt>
      <trkpt lat="45.5976" lon="5.38172">
        <ele>438</ele>
        <time>2021-10-02T11:58:15.573Z</time>
      </trkpt>
      <trkpt lat="45.59762" lon="5.38166">
        <ele>438</ele>
        <time>2021-10-02T11:58:14.573Z</time>
      </trkpt>
      <trkpt lat="45.59764" lon="5.3816">
        <ele>437</ele>
        <time>2021-10-02T11:58:13.573Z</time>
      </trkpt>
      <trkpt lat="45.59766" lon="5.38156">
        <ele>437</ele>
        <time>2021-10-02T11:58:12.573Z</time>
      </trkpt>
      <trkpt lat="45.59769" lon="5.38152">
        <ele>437</ele>
        <time>2021-10-02T11:58:11.573Z</time>
      </trkpt>
      <trkpt lat="45.59773" lon="5.38149">
        <ele>437</ele>
        <time>2021-10-02T11:58:10.572Z</time>
      </trkpt>
      <trkpt lat="45.59776" lon="5.38147">
        <ele>437</ele>
        <time>2021-10-02T11:58:09.573Z</time>
      </trkpt>
      <trkpt lat="45.5978" lon="5.38145">
        <ele>437</ele>
        <time>2021-10-02T11:58:08.573Z</time>
      </trkpt>
      <trkpt lat="45.59784" lon="5.38143">
        <ele>437</ele>
        <time>2021-10-02T11:58:07.573Z</time>
      </trkpt>
      <trkpt lat="45.59787" lon="5.38141">
        <ele>437</ele>
        <time>2021-10-02T11:58:06.572Z</time>
      </trkpt>
      <trkpt lat="45.59791" lon="5.38139">
        <ele>437</ele>
        <time>2021-10-02T11:58:05.572Z</time>
      </trkpt>
      <trkpt lat="45.59795" lon="5.38137">
        <ele>437</ele>
        <time>2021-10-02T11:58:04.572Z</time>
      </trkpt>
      <trkpt lat="45.59798" lon="5.38136">
        <ele>438</ele>
        <time>2021-10-02T11:58:03.573Z</time>
      </trkpt>
      <trkpt lat="45.59802" lon="5.38134">
        <ele>438</ele>
        <time>2021-10-02T11:58:02.573Z</time>
      </trkpt>
      <trkpt lat="45.59806" lon="5.38132">
        <ele>438</ele>
        <time>2021-10-02T11:58:01.573Z</time>
      </trkpt>
      <trkpt lat="45.59811" lon="5.38131">
        <ele>439</ele>
        <time>2021-10-02T11:58:00.572Z</time>
      </trkpt>
      <trkpt lat="45.59815" lon="5.38129">
        <ele>439</ele>
        <time>2021-10-02T11:57:59.572Z</time>
      </trkpt>
      <trkpt lat="45.5982" lon="5.38127">
        <ele>440</ele>
        <time>2021-10-02T11:57:58.573Z</time>
      </trkpt>
      <trkpt lat="45.59824" lon="5.38125">
        <ele>440</ele>
        <time>2021-10-02T11:57:57.573Z</time>
      </trkpt>
      <trkpt lat="45.59828" lon="5.38123">
        <ele>440</ele>
        <time>2021-10-02T11:57:56.573Z</time>
      </trkpt>
      <trkpt lat="45.59833" lon="5.38121">
        <ele>440</ele>
        <time>2021-10-02T11:57:55.573Z</time>
      </trkpt>
      <trkpt lat="45.59837" lon="5.38118">
        <ele>440</ele>
        <time>2021-10-02T11:57:54.573Z</time>
      </trkpt>
      <trkpt lat="45.59842" lon="5.38115">
        <ele>439</ele>
        <time>2021-10-02T11:57:53.572Z</time>
      </trkpt>
      <trkpt lat="45.59846" lon="5.38112">
        <ele>439</ele>
        <time>2021-10-02T11:57:52.573Z</time>
      </trkpt>
      <trkpt lat="45.5985" lon="5.3811">
        <ele>438</ele>
        <time>2021-10-02T11:57:51.573Z</time>
      </trkpt>
      <trkpt lat="45.59854" lon="5.38106">
        <ele>438</ele>
        <time>2021-10-02T11:57:50.573Z</time>
      </trkpt>
      <trkpt lat="45.59858" lon="5.38101">
        <ele>437</ele>
        <time>2021-10-02T11:57:49.572Z</time>
      </trkpt>
      <trkpt lat="45.59862" lon="5.38096">
        <ele>436</ele>
        <time>2021-10-02T11:57:48.573Z</time>
      </trkpt>
      <trkpt lat="45.59866" lon="5.38092">
        <ele>436</ele>
        <time>2021-10-02T11:57:47.573Z</time>
      </trkpt>
      <trkpt lat="45.59868" lon="5.38089">
        <ele>436</ele>
        <time>2021-10-02T11:57:46.573Z</time>
      </trkpt>
      <trkpt lat="45.59871" lon="5.38085">
        <ele>436</ele>
        <time>2021-10-02T11:57:45.573Z</time>
      </trkpt>
      <trkpt lat="45.59875" lon="5.3808">
        <ele>436</ele>
        <time>2021-10-02T11:57:44.573Z</time>
      </trkpt>
      <trkpt lat="45.59878" lon="5.38075">
        <ele>435</ele>
        <time>2021-10-02T11:57:43.573Z</time>
      </trkpt>
      <trkpt lat="45.59881" lon="5.38072">
        <ele>435</ele>
        <time>2021-10-02T11:57:42.572Z</time>
      </trkpt>
      <trkpt lat="45.59884" lon="5.38067">
        <ele>435</ele>
        <time>2021-10-02T11:57:41.572Z</time>
      </trkpt>
      <trkpt lat="45.59888" lon="5.38062">
        <ele>435</ele>
        <time>2021-10-02T11:57:40.573Z</time>
      </trkpt>
      <trkpt lat="45.59891" lon="5.38057">
        <ele>435</ele>
        <time>2021-10-02T11:57:39.573Z</time>
      </trkpt>
      <trkpt lat="45.59894" lon="5.38052">
        <ele>436</ele>
        <time>2021-10-02T11:57:38.573Z</time>
      </trkpt>
      <trkpt lat="45.59896" lon="5.38049">
        <ele>436</ele>
        <time>2021-10-02T11:57:37.573Z</time>
      </trkpt>
      <trkpt lat="45.59898" lon="5.38044">
        <ele>436</ele>
        <time>2021-10-02T11:57:36.572Z</time>
      </trkpt>
      <trkpt lat="45.59901" lon="5.38038">
        <ele>436</ele>
        <time>2021-10-02T11:57:35.573Z</time>
      </trkpt>
      <trkpt lat="45.59904" lon="5.38033">
        <ele>436</ele>
        <time>2021-10-02T11:57:34.573Z</time>
      </trkpt>
      <trkpt lat="45.59907" lon="5.38028">
        <ele>436</ele>
        <time>2021-10-02T11:57:33.573Z</time>
      </trkpt>
      <trkpt lat="45.5991" lon="5.38024">
        <ele>437</ele>
        <time>2021-10-02T11:57:32.573Z</time>
      </trkpt>
      <trkpt lat="45.59912" lon="5.3802">
        <ele>437</ele>
        <time>2021-10-02T11:57:31.573Z</time>
      </trkpt>
      <trkpt lat="45.59915" lon="5.38016">
        <ele>437</ele>
        <time>2021-10-02T11:57:30.572Z</time>
      </trkpt>
      <trkpt lat="45.59919" lon="5.3801">
        <ele>437</ele>
        <time>2021-10-02T11:57:29.573Z</time>
      </trkpt>
      <trkpt lat="45.59922" lon="5.38005">
        <ele>436</ele>
        <time>2021-10-02T11:57:28.573Z</time>
      </trkpt>
      <trkpt lat="45.59925" lon="5.38001">
        <ele>436</ele>
        <time>2021-10-02T11:57:27.572Z</time>
      </trkpt>
      <trkpt lat="45.59927" lon="5.37997">
        <ele>436</ele>
        <time>2021-10-02T11:57:26.573Z</time>
      </trkpt>
      <trkpt lat="45.5993" lon="5.37993">
        <ele>435</ele>
        <time>2021-10-02T11:57:25.573Z</time>
      </trkpt>
      <trkpt lat="45.59933" lon="5.37989">
        <ele>435</ele>
        <time>2021-10-02T11:57:24.573Z</time>
      </trkpt>
      <trkpt lat="45.59936" lon="5.37985">
        <ele>435</ele>
        <time>2021-10-02T11:57:23.573Z</time>
      </trkpt>
      <trkpt lat="45.59938" lon="5.37982">
        <ele>435</ele>
        <time>2021-10-02T11:57:22.573Z</time>
      </trkpt>
      <trkpt lat="45.59941" lon="5.37979">
        <ele>434</ele>
        <time>2021-10-02T11:57:21.572Z</time>
      </trkpt>
      <trkpt lat="45.59944" lon="5.37974">
        <ele>433</ele>
        <time>2021-10-02T11:57:20.573Z</time>
      </trkpt>
      <trkpt lat="45.59947" lon="5.3797">
        <ele>433</ele>
        <time>2021-10-02T11:57:19.573Z</time>
      </trkpt>
      <trkpt lat="45.5995" lon="5.37965">
        <ele>432</ele>
        <time>2021-10-02T11:57:18.573Z</time>
      </trkpt>
      <trkpt lat="45.59952" lon="5.37961">
        <ele>432</ele>
        <time>2021-10-02T11:57:17.573Z</time>
      </trkpt>
      <trkpt lat="45.59955" lon="5.37956">
        <ele>431</ele>
        <time>2021-10-02T11:57:16.573Z</time>
      </trkpt>
      <trkpt lat="45.59958" lon="5.37951">
        <ele>431</ele>
        <time>2021-10-02T11:57:15.573Z</time>
      </trkpt>
      <trkpt lat="45.59961" lon="5.37946">
        <ele>430</ele>
        <time>2021-10-02T11:57:14.572Z</time>
      </trkpt>
      <trkpt lat="45.59963" lon="5.37942">
        <ele>430</ele>
        <time>2021-10-02T11:57:13.573Z</time>
      </trkpt>
      <trkpt lat="45.59966" lon="5.37938">
        <ele>430</ele>
        <time>2021-10-02T11:57:12.573Z</time>
      </trkpt>
      <trkpt lat="45.59968" lon="5.37933">
        <ele>430</ele>
        <time>2021-10-02T11:57:11.572Z</time>
      </trkpt>
      <trkpt lat="45.5997" lon="5.37928">
        <ele>429</ele>
        <time>2021-10-02T11:57:10.573Z</time>
      </trkpt>
      <trkpt lat="45.59973" lon="5.37922">
        <ele>429</ele>
        <time>2021-10-02T11:57:09.573Z</time>
      </trkpt>
      <trkpt lat="45.59975" lon="5.37917">
        <ele>429</ele>
        <time>2021-10-02T11:57:08.573Z</time>
      </trkpt>
      <trkpt lat="45.59977" lon="5.37913">
        <ele>429</ele>
        <time>2021-10-02T11:57:07.573Z</time>
      </trkpt>
      <trkpt lat="45.59979" lon="5.37909">
        <ele>429</ele>
        <time>2021-10-02T11:57:06.573Z</time>
      </trkpt>
      <trkpt lat="45.59982" lon="5.37903">
        <ele>429</ele>
        <time>2021-10-02T11:57:05.573Z</time>
      </trkpt>
      <trkpt lat="45.59984" lon="5.37898">
        <ele>429</ele>
        <time>2021-10-02T11:57:04.572Z</time>
      </trkpt>
      <trkpt lat="45.59987" lon="5.37894">
        <ele>429</ele>
        <time>2021-10-02T11:57:03.572Z</time>
      </trkpt>
      <trkpt lat="45.59989" lon="5.3789">
        <ele>430</ele>
        <time>2021-10-02T11:57:02.573Z</time>
      </trkpt>
      <trkpt lat="45.59991" lon="5.37884">
        <ele>430</ele>
        <time>2021-10-02T11:57:01.573Z</time>
      </trkpt>
      <trkpt lat="45.59994" lon="5.3788">
        <ele>430</ele>
        <time>2021-10-02T11:57:00.573Z</time>
      </trkpt>
      <trkpt lat="45.59996" lon="5.37876">
        <ele>429</ele>
        <time>2021-10-02T11:56:59.573Z</time>
      </trkpt>
      <trkpt lat="45.59998" lon="5.37872">
        <ele>429</ele>
        <time>2021-10-02T11:56:58.573Z</time>
      </trkpt>
      <trkpt lat="45.6" lon="5.37868">
        <ele>428</ele>
        <time>2021-10-02T11:56:57.573Z</time>
      </trkpt>
      <trkpt lat="45.60002" lon="5.37863">
        <ele>428</ele>
        <time>2021-10-02T11:56:56.573Z</time>
      </trkpt>
      <trkpt lat="45.60004" lon="5.37859">
        <ele>428</ele>
        <time>2021-10-02T11:56:55.573Z</time>
      </trkpt>
      <trkpt lat="45.60006" lon="5.37853">
        <ele>427</ele>
        <time>2021-10-02T11:56:54.573Z</time>
      </trkpt>
      <trkpt lat="45.60008" lon="5.3785">
        <ele>427</ele>
        <time>2021-10-02T11:56:53.573Z</time>
      </trkpt>
      <trkpt lat="45.6001" lon="5.37845">
        <ele>427</ele>
        <time>2021-10-02T11:56:52.573Z</time>
      </trkpt>
      <trkpt lat="45.60012" lon="5.3784">
        <ele>427</ele>
        <time>2021-10-02T11:56:51.573Z</time>
      </trkpt>
      <trkpt lat="45.60014" lon="5.37836">
        <ele>427</ele>
        <time>2021-10-02T11:56:50.573Z</time>
      </trkpt>
      <trkpt lat="45.60016" lon="5.37832">
        <ele>426</ele>
        <time>2021-10-02T11:56:49.573Z</time>
      </trkpt>
      <trkpt lat="45.60017" lon="5.37827">
        <ele>426</ele>
        <time>2021-10-02T11:56:48.573Z</time>
      </trkpt>
      <trkpt lat="45.60019" lon="5.37823">
        <ele>426</ele>
        <time>2021-10-02T11:56:47.573Z</time>
      </trkpt>
      <trkpt lat="45.6002" lon="5.37818">
        <ele>426</ele>
        <time>2021-10-02T11:56:46.572Z</time>
      </trkpt>
      <trkpt lat="45.60022" lon="5.37813">
        <ele>425</ele>
        <time>2021-10-02T11:56:45.573Z</time>
      </trkpt>
      <trkpt lat="45.60024" lon="5.37809">
        <ele>425</ele>
        <time>2021-10-02T11:56:44.573Z</time>
      </trkpt>
      <trkpt lat="45.60025" lon="5.37805">
        <ele>425</ele>
        <time>2021-10-02T11:56:43.573Z</time>
      </trkpt>
      <trkpt lat="45.60027" lon="5.37799">
        <ele>425</ele>
        <time>2021-10-02T11:56:42.572Z</time>
      </trkpt>
      <trkpt lat="45.60028" lon="5.37795">
        <ele>425</ele>
        <time>2021-10-02T11:56:41.572Z</time>
      </trkpt>
      <trkpt lat="45.6003" lon="5.3779">
        <ele>425</ele>
        <time>2021-10-02T11:56:40.573Z</time>
      </trkpt>
      <trkpt lat="45.60031" lon="5.37785">
        <ele>425</ele>
        <time>2021-10-02T11:56:39.573Z</time>
      </trkpt>
      <trkpt lat="45.60033" lon="5.3778">
        <ele>425</ele>
        <time>2021-10-02T11:56:38.573Z</time>
      </trkpt>
      <trkpt lat="45.60034" lon="5.37774">
        <ele>424</ele>
        <time>2021-10-02T11:56:37.573Z</time>
      </trkpt>
      <trkpt lat="45.60036" lon="5.37769">
        <ele>424</ele>
        <time>2021-10-02T11:56:36.572Z</time>
      </trkpt>
      <trkpt lat="45.60038" lon="5.37764">
        <ele>424</ele>
        <time>2021-10-02T11:56:35.573Z</time>
      </trkpt>
      <trkpt lat="45.60039" lon="5.37759">
        <ele>424</ele>
        <time>2021-10-02T11:56:34.573Z</time>
      </trkpt>
      <trkpt lat="45.60041" lon="5.37753">
        <ele>424</ele>
        <time>2021-10-02T11:56:33.573Z</time>
      </trkpt>
      <trkpt lat="45.60042" lon="5.37749">
        <ele>424</ele>
        <time>2021-10-02T11:56:32.573Z</time>
      </trkpt>
      <trkpt lat="45.60043" lon="5.37743">
        <ele>424</ele>
        <time>2021-10-02T11:56:31.573Z</time>
      </trkpt>
      <trkpt lat="45.60044" lon="5.37738">
        <ele>424</ele>
        <time>2021-10-02T11:56:30.573Z</time>
      </trkpt>
      <trkpt lat="45.60045" lon="5.37733">
        <ele>423</ele>
        <time>2021-10-02T11:56:29.572Z</time>
      </trkpt>
      <trkpt lat="45.60046" lon="5.37728">
        <ele>423</ele>
        <time>2021-10-02T11:56:28.573Z</time>
      </trkpt>
      <trkpt lat="45.60047" lon="5.37723">
        <ele>422</ele>
        <time>2021-10-02T11:56:27.572Z</time>
      </trkpt>
      <trkpt lat="45.60048" lon="5.37717">
        <ele>422</ele>
        <time>2021-10-02T11:56:26.573Z</time>
      </trkpt>
      <trkpt lat="45.60049" lon="5.37712">
        <ele>422</ele>
        <time>2021-10-02T11:56:25.573Z</time>
      </trkpt>
      <trkpt lat="45.60049" lon="5.37707">
        <ele>422</ele>
        <time>2021-10-02T11:56:24.573Z</time>
      </trkpt>
      <trkpt lat="45.6005" lon="5.37702">
        <ele>422</ele>
        <time>2021-10-02T11:56:23.573Z</time>
      </trkpt>
      <trkpt lat="45.60051" lon="5.37697">
        <ele>421</ele>
        <time>2021-10-02T11:56:22.572Z</time>
      </trkpt>
      <trkpt lat="45.60051" lon="5.37691">
        <ele>421</ele>
        <time>2021-10-02T11:56:21.573Z</time>
      </trkpt>
      <trkpt lat="45.60051" lon="5.37686">
        <ele>421</ele>
        <time>2021-10-02T11:56:20.573Z</time>
      </trkpt>
      <trkpt lat="45.60052" lon="5.3768">
        <ele>421</ele>
        <time>2021-10-02T11:56:19.573Z</time>
      </trkpt>
      <trkpt lat="45.60052" lon="5.37675">
        <ele>420</ele>
        <time>2021-10-02T11:56:18.572Z</time>
      </trkpt>
      <trkpt lat="45.60052" lon="5.37669">
        <ele>420</ele>
        <time>2021-10-02T11:56:17.573Z</time>
      </trkpt>
      <trkpt lat="45.60052" lon="5.37663">
        <ele>419</ele>
        <time>2021-10-02T11:56:16.572Z</time>
      </trkpt>
      <trkpt lat="45.60052" lon="5.37657">
        <ele>419</ele>
        <time>2021-10-02T11:56:15.573Z</time>
      </trkpt>
      <trkpt lat="45.60052" lon="5.37651">
        <ele>419</ele>
        <time>2021-10-02T11:56:14.573Z</time>
      </trkpt>
      <trkpt lat="45.60051" lon="5.37645">
        <ele>419</ele>
        <time>2021-10-02T11:56:13.573Z</time>
      </trkpt>
      <trkpt lat="45.60051" lon="5.37638">
        <ele>418</ele>
        <time>2021-10-02T11:56:12.573Z</time>
      </trkpt>
      <trkpt lat="45.6005" lon="5.37632">
        <ele>418</ele>
        <time>2021-10-02T11:56:11.572Z</time>
      </trkpt>
      <trkpt lat="45.60049" lon="5.37626">
        <ele>418</ele>
        <time>2021-10-02T11:56:10.572Z</time>
      </trkpt>
      <trkpt lat="45.60049" lon="5.3762">
        <ele>418</ele>
        <time>2021-10-02T11:56:09.573Z</time>
      </trkpt>
      <trkpt lat="45.60048" lon="5.37614">
        <ele>418</ele>
        <time>2021-10-02T11:56:08.572Z</time>
      </trkpt>
      <trkpt lat="45.60048" lon="5.37609">
        <ele>417</ele>
        <time>2021-10-02T11:56:07.572Z</time>
      </trkpt>
      <trkpt lat="45.60048" lon="5.37603">
        <ele>417</ele>
        <time>2021-10-02T11:56:06.573Z</time>
      </trkpt>
      <trkpt lat="45.60048" lon="5.37597">
        <ele>417</ele>
        <time>2021-10-02T11:56:05.573Z</time>
      </trkpt>
      <trkpt lat="45.60047" lon="5.37591">
        <ele>416</ele>
        <time>2021-10-02T11:56:04.573Z</time>
      </trkpt>
      <trkpt lat="45.60047" lon="5.37586">
        <ele>416</ele>
        <time>2021-10-02T11:56:03.572Z</time>
      </trkpt>
      <trkpt lat="45.60047" lon="5.37579">
        <ele>416</ele>
        <time>2021-10-02T11:56:02.572Z</time>
      </trkpt>
      <trkpt lat="45.60047" lon="5.37573">
        <ele>416</ele>
        <time>2021-10-02T11:56:01.573Z</time>
      </trkpt>
      <trkpt lat="45.60046" lon="5.37567">
        <ele>415</ele>
        <time>2021-10-02T11:56:00.573Z</time>
      </trkpt>
      <trkpt lat="45.60045" lon="5.37561">
        <ele>415</ele>
        <time>2021-10-02T11:55:59.573Z</time>
      </trkpt>
      <trkpt lat="45.60045" lon="5.37555">
        <ele>415</ele>
        <time>2021-10-02T11:55:58.573Z</time>
      </trkpt>
      <trkpt lat="45.60044" lon="5.37549">
        <ele>415</ele>
        <time>2021-10-02T11:55:57.573Z</time>
      </trkpt>
      <trkpt lat="45.60043" lon="5.37542">
        <ele>414</ele>
        <time>2021-10-02T11:55:56.573Z</time>
      </trkpt>
      <trkpt lat="45.60043" lon="5.37537">
        <ele>413</ele>
        <time>2021-10-02T11:55:55.572Z</time>
      </trkpt>
      <trkpt lat="45.60042" lon="5.37531">
        <ele>413</ele>
        <time>2021-10-02T11:55:54.573Z</time>
      </trkpt>
      <trkpt lat="45.60041" lon="5.37525">
        <ele>412</ele>
        <time>2021-10-02T11:55:53.573Z</time>
      </trkpt>
      <trkpt lat="45.6004" lon="5.37519">
        <ele>412</ele>
        <time>2021-10-02T11:55:52.573Z</time>
      </trkpt>
      <trkpt lat="45.6004" lon="5.37512">
        <ele>412</ele>
        <time>2021-10-02T11:55:51.573Z</time>
      </trkpt>
      <trkpt lat="45.60039" lon="5.37506">
        <ele>411</ele>
        <time>2021-10-02T11:55:50.572Z</time>
      </trkpt>
      <trkpt lat="45.60038" lon="5.375">
        <ele>411</ele>
        <time>2021-10-02T11:55:49.573Z</time>
      </trkpt>
      <trkpt lat="45.60038" lon="5.37494">
        <ele>410</ele>
        <time>2021-10-02T11:55:48.573Z</time>
      </trkpt>
      <trkpt lat="45.60037" lon="5.37489">
        <ele>410</ele>
        <time>2021-10-02T11:55:47.573Z</time>
      </trkpt>
      <trkpt lat="45.60036" lon="5.37483">
        <ele>409</ele>
        <time>2021-10-02T11:55:46.572Z</time>
      </trkpt>
      <trkpt lat="45.60035" lon="5.37478">
        <ele>409</ele>
        <time>2021-10-02T11:55:45.573Z</time>
      </trkpt>
      <trkpt lat="45.60035" lon="5.37472">
        <ele>408</ele>
        <time>2021-10-02T11:55:44.573Z</time>
      </trkpt>
      <trkpt lat="45.60034" lon="5.37466">
        <ele>408</ele>
        <time>2021-10-02T11:55:43.573Z</time>
      </trkpt>
      <trkpt lat="45.60034" lon="5.3746">
        <ele>408</ele>
        <time>2021-10-02T11:55:42.572Z</time>
      </trkpt>
      <trkpt lat="45.60033" lon="5.37455">
        <ele>408</ele>
        <time>2021-10-02T11:55:41.572Z</time>
      </trkpt>
      <trkpt lat="45.60033" lon="5.37449">
        <ele>408</ele>
        <time>2021-10-02T11:55:40.573Z</time>
      </trkpt>
      <trkpt lat="45.60032" lon="5.37443">
        <ele>408</ele>
        <time>2021-10-02T11:55:39.573Z</time>
      </trkpt>
      <trkpt lat="45.60032" lon="5.37438">
        <ele>409</ele>
        <time>2021-10-02T11:55:38.572Z</time>
      </trkpt>
      <trkpt lat="45.60031" lon="5.37432">
        <ele>409</ele>
        <time>2021-10-02T11:55:37.573Z</time>
      </trkpt>
      <trkpt lat="45.60031" lon="5.37426">
        <ele>408</ele>
        <time>2021-10-02T11:55:36.572Z</time>
      </trkpt>
      <trkpt lat="45.6003" lon="5.3742">
        <ele>409</ele>
        <time>2021-10-02T11:55:35.573Z</time>
      </trkpt>
      <trkpt lat="45.60029" lon="5.37414">
        <ele>408</ele>
        <time>2021-10-02T11:55:34.573Z</time>
      </trkpt>
      <trkpt lat="45.60029" lon="5.37409">
        <ele>408</ele>
        <time>2021-10-02T11:55:33.573Z</time>
      </trkpt>
      <trkpt lat="45.60028" lon="5.37404">
        <ele>408</ele>
        <time>2021-10-02T11:55:32.573Z</time>
      </trkpt>
      <trkpt lat="45.60027" lon="5.37398">
        <ele>408</ele>
        <time>2021-10-02T11:55:31.572Z</time>
      </trkpt>
      <trkpt lat="45.60027" lon="5.37393">
        <ele>408</ele>
        <time>2021-10-02T11:55:30.573Z</time>
      </trkpt>
      <trkpt lat="45.60026" lon="5.37387">
        <ele>408</ele>
        <time>2021-10-02T11:55:29.572Z</time>
      </trkpt>
      <trkpt lat="45.60026" lon="5.37382">
        <ele>408</ele>
        <time>2021-10-02T11:55:28.573Z</time>
      </trkpt>
      <trkpt lat="45.60025" lon="5.37377">
        <ele>408</ele>
        <time>2021-10-02T11:55:27.573Z</time>
      </trkpt>
      <trkpt lat="45.60024" lon="5.37371">
        <ele>408</ele>
        <time>2021-10-02T11:55:26.573Z</time>
      </trkpt>
      <trkpt lat="45.60024" lon="5.37365">
        <ele>407</ele>
        <time>2021-10-02T11:55:25.572Z</time>
      </trkpt>
      <trkpt lat="45.60023" lon="5.3736">
        <ele>407</ele>
        <time>2021-10-02T11:55:24.572Z</time>
      </trkpt>
      <trkpt lat="45.60023" lon="5.37354">
        <ele>407</ele>
        <time>2021-10-02T11:55:23.572Z</time>
      </trkpt>
      <trkpt lat="45.60022" lon="5.37349">
        <ele>406</ele>
        <time>2021-10-02T11:55:22.572Z</time>
      </trkpt>
      <trkpt lat="45.60022" lon="5.37344">
        <ele>406</ele>
        <time>2021-10-02T11:55:21.573Z</time>
      </trkpt>
      <trkpt lat="45.60022" lon="5.37339">
        <ele>406</ele>
        <time>2021-10-02T11:55:20.572Z</time>
      </trkpt>
      <trkpt lat="45.60022" lon="5.37334">
        <ele>405</ele>
        <time>2021-10-02T11:55:19.572Z</time>
      </trkpt>
      <trkpt lat="45.60021" lon="5.37329">
        <ele>405</ele>
        <time>2021-10-02T11:55:18.573Z</time>
      </trkpt>
      <trkpt lat="45.60021" lon="5.37323">
        <ele>404</ele>
        <time>2021-10-02T11:55:17.573Z</time>
      </trkpt>
      <trkpt lat="45.60021" lon="5.37318">
        <ele>404</ele>
        <time>2021-10-02T11:55:16.573Z</time>
      </trkpt>
      <trkpt lat="45.60021" lon="5.37313">
        <ele>403</ele>
        <time>2021-10-02T11:55:15.572Z</time>
      </trkpt>
      <trkpt lat="45.6002" lon="5.37307">
        <ele>403</ele>
        <time>2021-10-02T11:55:14.573Z</time>
      </trkpt>
      <trkpt lat="45.6002" lon="5.37302">
        <ele>403</ele>
        <time>2021-10-02T11:55:13.572Z</time>
      </trkpt>
      <trkpt lat="45.6002" lon="5.37298">
        <ele>402</ele>
        <time>2021-10-02T11:55:12.573Z</time>
      </trkpt>
      <trkpt lat="45.6002" lon="5.37293">
        <ele>401</ele>
        <time>2021-10-02T11:55:11.573Z</time>
      </trkpt>
      <trkpt lat="45.60019" lon="5.37287">
        <ele>401</ele>
        <time>2021-10-02T11:55:10.572Z</time>
      </trkpt>
      <trkpt lat="45.60019" lon="5.37282">
        <ele>400</ele>
        <time>2021-10-02T11:55:09.573Z</time>
      </trkpt>
      <trkpt lat="45.60019" lon="5.37277">
        <ele>400</ele>
        <time>2021-10-02T11:55:08.573Z</time>
      </trkpt>
      <trkpt lat="45.60019" lon="5.37272">
        <ele>400</ele>
        <time>2021-10-02T11:55:07.572Z</time>
      </trkpt>
      <trkpt lat="45.60018" lon="5.37268">
        <ele>399</ele>
        <time>2021-10-02T11:55:06.572Z</time>
      </trkpt>
      <trkpt lat="45.60018" lon="5.37263">
        <ele>399</ele>
        <time>2021-10-02T11:55:05.573Z</time>
      </trkpt>
      <trkpt lat="45.60018" lon="5.37258">
        <ele>398</ele>
        <time>2021-10-02T11:55:04.573Z</time>
      </trkpt>
      <trkpt lat="45.60018" lon="5.37253">
        <ele>398</ele>
        <time>2021-10-02T11:55:03.573Z</time>
      </trkpt>
      <trkpt lat="45.60017" lon="5.37248">
        <ele>398</ele>
        <time>2021-10-02T11:55:02.572Z</time>
      </trkpt>
      <trkpt lat="45.60017" lon="5.37243">
        <ele>398</ele>
        <time>2021-10-02T11:55:01.573Z</time>
      </trkpt>
      <trkpt lat="45.60017" lon="5.37237">
        <ele>398</ele>
        <time>2021-10-02T11:55:00.573Z</time>
      </trkpt>
      <trkpt lat="45.60016" lon="5.37232">
        <ele>398</ele>
        <time>2021-10-02T11:54:59.572Z</time>
      </trkpt>
      <trkpt lat="45.60016" lon="5.37227">
        <ele>398</ele>
        <time>2021-10-02T11:54:58.573Z</time>
      </trkpt>
      <trkpt lat="45.60015" lon="5.37221">
        <ele>398</ele>
        <time>2021-10-02T11:54:57.573Z</time>
      </trkpt>
      <trkpt lat="45.60015" lon="5.37216">
        <ele>398</ele>
        <time>2021-10-02T11:54:56.573Z</time>
      </trkpt>
      <trkpt lat="45.60014" lon="5.37211">
        <ele>398</ele>
        <time>2021-10-02T11:54:55.572Z</time>
      </trkpt>
      <trkpt lat="45.60014" lon="5.37206">
        <ele>398</ele>
        <time>2021-10-02T11:54:54.572Z</time>
      </trkpt>
      <trkpt lat="45.60013" lon="5.372">
        <ele>398</ele>
        <time>2021-10-02T11:54:53.573Z</time>
      </trkpt>
      <trkpt lat="45.60013" lon="5.37196">
        <ele>398</ele>
        <time>2021-10-02T11:54:52.573Z</time>
      </trkpt>
      <trkpt lat="45.60013" lon="5.3719">
        <ele>397</ele>
        <time>2021-10-02T11:54:51.572Z</time>
      </trkpt>
      <trkpt lat="45.60012" lon="5.37185">
        <ele>397</ele>
        <time>2021-10-02T11:54:50.573Z</time>
      </trkpt>
      <trkpt lat="45.60012" lon="5.3718">
        <ele>396</ele>
        <time>2021-10-02T11:54:49.573Z</time>
      </trkpt>
      <trkpt lat="45.60011" lon="5.37174">
        <ele>396</ele>
        <time>2021-10-02T11:54:48.573Z</time>
      </trkpt>
      <trkpt lat="45.60011" lon="5.37169">
        <ele>396</ele>
        <time>2021-10-02T11:54:47.572Z</time>
      </trkpt>
      <trkpt lat="45.6001" lon="5.37164">
        <ele>396</ele>
        <time>2021-10-02T11:54:46.573Z</time>
      </trkpt>
      <trkpt lat="45.60009" lon="5.37158">
        <ele>396</ele>
        <time>2021-10-02T11:54:45.573Z</time>
      </trkpt>
      <trkpt lat="45.60009" lon="5.37154">
        <ele>395</ele>
        <time>2021-10-02T11:54:44.572Z</time>
      </trkpt>
      <trkpt lat="45.60009" lon="5.37147">
        <ele>395</ele>
        <time>2021-10-02T11:54:43.573Z</time>
      </trkpt>
      <trkpt lat="45.60009" lon="5.37143">
        <ele>395</ele>
        <time>2021-10-02T11:54:42.573Z</time>
      </trkpt>
      <trkpt lat="45.60008" lon="5.37135">
        <ele>395</ele>
        <time>2021-10-02T11:54:41.573Z</time>
      </trkpt>
      <trkpt lat="45.60008" lon="5.37129">
        <ele>394</ele>
        <time>2021-10-02T11:54:40.573Z</time>
      </trkpt>
      <trkpt lat="45.60007" lon="5.37123">
        <ele>394</ele>
        <time>2021-10-02T11:54:39.572Z</time>
      </trkpt>
      <trkpt lat="45.60007" lon="5.37116">
        <ele>393</ele>
        <time>2021-10-02T11:54:38.573Z</time>
      </trkpt>
      <trkpt lat="45.60006" lon="5.3711">
        <ele>393</ele>
        <time>2021-10-02T11:54:37.573Z</time>
      </trkpt>
      <trkpt lat="45.60005" lon="5.37104">
        <ele>392</ele>
        <time>2021-10-02T11:54:36.573Z</time>
      </trkpt>
      <trkpt lat="45.60004" lon="5.37098">
        <ele>391</ele>
        <time>2021-10-02T11:54:35.573Z</time>
      </trkpt>
      <trkpt lat="45.60003" lon="5.37091">
        <ele>390</ele>
        <time>2021-10-02T11:54:34.572Z</time>
      </trkpt>
      <trkpt lat="45.60002" lon="5.37085">
        <ele>390</ele>
        <time>2021-10-02T11:54:33.572Z</time>
      </trkpt>
      <trkpt lat="45.60001" lon="5.37078">
        <ele>389</ele>
        <time>2021-10-02T11:54:32.572Z</time>
      </trkpt>
      <trkpt lat="45.6" lon="5.37071">
        <ele>388</ele>
        <time>2021-10-02T11:54:31.573Z</time>
      </trkpt>
      <trkpt lat="45.59998" lon="5.37065">
        <ele>388</ele>
        <time>2021-10-02T11:54:30.572Z</time>
      </trkpt>
      <trkpt lat="45.59996" lon="5.37058">
        <ele>387</ele>
        <time>2021-10-02T11:54:29.572Z</time>
      </trkpt>
      <trkpt lat="45.59994" lon="5.37051">
        <ele>387</ele>
        <time>2021-10-02T11:54:28.573Z</time>
      </trkpt>
      <trkpt lat="45.59992" lon="5.37044">
        <ele>386</ele>
        <time>2021-10-02T11:54:27.573Z</time>
      </trkpt>
      <trkpt lat="45.5999" lon="5.37037">
        <ele>386</ele>
        <time>2021-10-02T11:54:26.573Z</time>
      </trkpt>
      <trkpt lat="45.59989" lon="5.3703">
        <ele>386</ele>
        <time>2021-10-02T11:54:25.573Z</time>
      </trkpt>
      <trkpt lat="45.59987" lon="5.37023">
        <ele>387</ele>
        <time>2021-10-02T11:54:24.572Z</time>
      </trkpt>
      <trkpt lat="45.59986" lon="5.37015">
        <ele>387</ele>
        <time>2021-10-02T11:54:23.573Z</time>
      </trkpt>
      <trkpt lat="45.59984" lon="5.37008">
        <ele>388</ele>
        <time>2021-10-02T11:54:22.573Z</time>
      </trkpt>
      <trkpt lat="45.59983" lon="5.37">
        <ele>388</ele>
        <time>2021-10-02T11:54:21.573Z</time>
      </trkpt>
      <trkpt lat="45.59982" lon="5.36993">
        <ele>389</ele>
        <time>2021-10-02T11:54:20.573Z</time>
      </trkpt>
      <trkpt lat="45.59981" lon="5.36986">
        <ele>389</ele>
        <time>2021-10-02T11:54:19.573Z</time>
      </trkpt>
      <trkpt lat="45.59979" lon="5.36978">
        <ele>388</ele>
        <time>2021-10-02T11:54:18.572Z</time>
      </trkpt>
      <trkpt lat="45.59978" lon="5.36972">
        <ele>388</ele>
        <time>2021-10-02T11:54:17.572Z</time>
      </trkpt>
      <trkpt lat="45.59977" lon="5.36965">
        <ele>388</ele>
        <time>2021-10-02T11:54:16.573Z</time>
      </trkpt>
      <trkpt lat="45.59975" lon="5.36958">
        <ele>389</ele>
        <time>2021-10-02T11:54:15.572Z</time>
      </trkpt>
      <trkpt lat="45.59974" lon="5.36952">
        <ele>389</ele>
        <time>2021-10-02T11:54:14.573Z</time>
      </trkpt>
      <trkpt lat="45.59973" lon="5.36947">
        <ele>389</ele>
        <time>2021-10-02T11:54:13.573Z</time>
      </trkpt>
      <trkpt lat="45.59972" lon="5.3694">
        <ele>388</ele>
        <time>2021-10-02T11:54:12.573Z</time>
      </trkpt>
      <trkpt lat="45.59971" lon="5.36934">
        <ele>388</ele>
        <time>2021-10-02T11:54:11.573Z</time>
      </trkpt>
      <trkpt lat="45.59969" lon="5.36928">
        <ele>388</ele>
        <time>2021-10-02T11:54:10.573Z</time>
      </trkpt>
      <trkpt lat="45.59967" lon="5.36923">
        <ele>388</ele>
        <time>2021-10-02T11:54:09.572Z</time>
      </trkpt>
      <trkpt lat="45.59965" lon="5.36917">
        <ele>388</ele>
        <time>2021-10-02T11:54:08.572Z</time>
      </trkpt>
      <trkpt lat="45.59964" lon="5.36912">
        <ele>388</ele>
        <time>2021-10-02T11:54:07.573Z</time>
      </trkpt>
      <trkpt lat="45.59962" lon="5.36905">
        <ele>388</ele>
        <time>2021-10-02T11:54:06.573Z</time>
      </trkpt>
      <trkpt lat="45.5996" lon="5.36899">
        <ele>388</ele>
        <time>2021-10-02T11:54:05.572Z</time>
      </trkpt>
      <trkpt lat="45.59959" lon="5.36893">
        <ele>388</ele>
        <time>2021-10-02T11:54:04.572Z</time>
      </trkpt>
      <trkpt lat="45.59957" lon="5.36886">
        <ele>389</ele>
        <time>2021-10-02T11:54:03.573Z</time>
      </trkpt>
      <trkpt lat="45.59956" lon="5.3688">
        <ele>389</ele>
        <time>2021-10-02T11:54:02.573Z</time>
      </trkpt>
      <trkpt lat="45.59954" lon="5.36874">
        <ele>389</ele>
        <time>2021-10-02T11:54:01.572Z</time>
      </trkpt>
      <trkpt lat="45.59953" lon="5.36867">
        <ele>389</ele>
        <time>2021-10-02T11:54:00.573Z</time>
      </trkpt>
      <trkpt lat="45.59952" lon="5.36861">
        <ele>389</ele>
        <time>2021-10-02T11:53:59.573Z</time>
      </trkpt>
      <trkpt lat="45.5995" lon="5.36855">
        <ele>388</ele>
        <time>2021-10-02T11:53:58.572Z</time>
      </trkpt>
      <trkpt lat="45.59949" lon="5.36849">
        <ele>388</ele>
        <time>2021-10-02T11:53:57.573Z</time>
      </trkpt>
      <trkpt lat="45.59947" lon="5.36843">
        <ele>388</ele>
        <time>2021-10-02T11:53:56.573Z</time>
      </trkpt>
      <trkpt lat="45.59946" lon="5.36836">
        <ele>388</ele>
        <time>2021-10-02T11:53:55.572Z</time>
      </trkpt>
      <trkpt lat="45.59944" lon="5.3683">
        <ele>389</ele>
        <time>2021-10-02T11:53:54.573Z</time>
      </trkpt>
      <trkpt lat="45.59943" lon="5.36824">
        <ele>389</ele>
        <time>2021-10-02T11:53:53.572Z</time>
      </trkpt>
      <trkpt lat="45.59941" lon="5.36819">
        <ele>389</ele>
        <time>2021-10-02T11:53:52.573Z</time>
      </trkpt>
      <trkpt lat="45.5994" lon="5.36811">
        <ele>390</ele>
        <time>2021-10-02T11:53:51.572Z</time>
      </trkpt>
      <trkpt lat="45.5994" lon="5.36804">
        <ele>391</ele>
        <time>2021-10-02T11:53:50.573Z</time>
      </trkpt>
      <trkpt lat="45.5994" lon="5.36798">
        <ele>391</ele>
        <time>2021-10-02T11:53:49.573Z</time>
      </trkpt>
      <trkpt lat="45.59941" lon="5.3679">
        <ele>391</ele>
        <time>2021-10-02T11:53:48.573Z</time>
      </trkpt>
      <trkpt lat="45.59943" lon="5.36783">
        <ele>391</ele>
        <time>2021-10-02T11:53:47.573Z</time>
      </trkpt>
      <trkpt lat="45.59944" lon="5.36776">
        <ele>390</ele>
        <time>2021-10-02T11:53:46.572Z</time>
      </trkpt>
      <trkpt lat="45.59946" lon="5.36771">
        <ele>390</ele>
        <time>2021-10-02T11:53:45.573Z</time>
      </trkpt>
      <trkpt lat="45.59949" lon="5.36764">
        <ele>390</ele>
        <time>2021-10-02T11:53:44.573Z</time>
      </trkpt>
      <trkpt lat="45.59951" lon="5.36759">
        <ele>390</ele>
        <time>2021-10-02T11:53:43.572Z</time>
      </trkpt>
      <trkpt lat="45.59953" lon="5.36753">
        <ele>390</ele>
        <time>2021-10-02T11:53:42.572Z</time>
      </trkpt>
      <trkpt lat="45.59956" lon="5.36748">
        <ele>390</ele>
        <time>2021-10-02T11:53:41.573Z</time>
      </trkpt>
      <trkpt lat="45.59959" lon="5.36743">
        <ele>389</ele>
        <time>2021-10-02T11:53:40.572Z</time>
      </trkpt>
      <trkpt lat="45.59961" lon="5.36738">
        <ele>389</ele>
        <time>2021-10-02T11:53:39.572Z</time>
      </trkpt>
      <trkpt lat="45.59964" lon="5.36733">
        <ele>389</ele>
        <time>2021-10-02T11:53:38.573Z</time>
      </trkpt>
      <trkpt lat="45.59967" lon="5.36728">
        <ele>389</ele>
        <time>2021-10-02T11:53:37.573Z</time>
      </trkpt>
      <trkpt lat="45.5997" lon="5.36723">
        <ele>389</ele>
        <time>2021-10-02T11:53:36.572Z</time>
      </trkpt>
      <trkpt lat="45.59973" lon="5.36717">
        <ele>389</ele>
        <time>2021-10-02T11:53:35.572Z</time>
      </trkpt>
      <trkpt lat="45.59975" lon="5.36712">
        <ele>389</ele>
        <time>2021-10-02T11:53:34.572Z</time>
      </trkpt>
      <trkpt lat="45.59978" lon="5.36707">
        <ele>388</ele>
        <time>2021-10-02T11:53:33.573Z</time>
      </trkpt>
      <trkpt lat="45.59981" lon="5.36702">
        <ele>388</ele>
        <time>2021-10-02T11:53:32.573Z</time>
      </trkpt>
      <trkpt lat="45.59984" lon="5.36698">
        <ele>388</ele>
        <time>2021-10-02T11:53:31.572Z</time>
      </trkpt>
      <trkpt lat="45.59987" lon="5.36691">
        <ele>387</ele>
        <time>2021-10-02T11:53:30.572Z</time>
      </trkpt>
      <trkpt lat="45.5999" lon="5.36685">
        <ele>387</ele>
        <time>2021-10-02T11:53:29.573Z</time>
      </trkpt>
      <trkpt lat="45.59993" lon="5.3668">
        <ele>387</ele>
        <time>2021-10-02T11:53:28.573Z</time>
      </trkpt>
      <trkpt lat="45.59995" lon="5.36674">
        <ele>386</ele>
        <time>2021-10-02T11:53:27.573Z</time>
      </trkpt>
      <trkpt lat="45.59998" lon="5.36666">
        <ele>386</ele>
        <time>2021-10-02T11:53:26.573Z</time>
      </trkpt>
      <trkpt lat="45.6" lon="5.36659">
        <ele>386</ele>
        <time>2021-10-02T11:53:25.573Z</time>
      </trkpt>
      <trkpt lat="45.60001" lon="5.36654">
        <ele>385</ele>
        <time>2021-10-02T11:53:24.572Z</time>
      </trkpt>
      <trkpt lat="45.60003" lon="5.36648">
        <ele>385</ele>
        <time>2021-10-02T11:53:23.573Z</time>
      </trkpt>
      <trkpt lat="45.60004" lon="5.36641">
        <ele>385</ele>
        <time>2021-10-02T11:53:22.573Z</time>
      </trkpt>
      <trkpt lat="45.60006" lon="5.36632">
        <ele>384</ele>
        <time>2021-10-02T11:53:21.573Z</time>
      </trkpt>
      <trkpt lat="45.60007" lon="5.36625">
        <ele>384</ele>
        <time>2021-10-02T11:53:20.572Z</time>
      </trkpt>
      <trkpt lat="45.60008" lon="5.36619">
        <ele>383</ele>
        <time>2021-10-02T11:53:19.572Z</time>
      </trkpt>
      <trkpt lat="45.60009" lon="5.36612">
        <ele>383</ele>
        <time>2021-10-02T11:53:18.573Z</time>
      </trkpt>
      <trkpt lat="45.60009" lon="5.36604">
        <ele>382</ele>
        <time>2021-10-02T11:53:17.573Z</time>
      </trkpt>
      <trkpt lat="45.6001" lon="5.36595">
        <ele>382</ele>
        <time>2021-10-02T11:53:16.573Z</time>
      </trkpt>
      <trkpt lat="45.60011" lon="5.36587">
        <ele>382</ele>
        <time>2021-10-02T11:53:15.572Z</time>
      </trkpt>
      <trkpt lat="45.60011" lon="5.36581">
        <ele>382</ele>
        <time>2021-10-02T11:53:14.572Z</time>
      </trkpt>
      <trkpt lat="45.60011" lon="5.36573">
        <ele>382</ele>
        <time>2021-10-02T11:53:13.573Z</time>
      </trkpt>
      <trkpt lat="45.60012" lon="5.36566">
        <ele>382</ele>
        <time>2021-10-02T11:53:12.573Z</time>
      </trkpt>
      <trkpt lat="45.60012" lon="5.36556">
        <ele>383</ele>
        <time>2021-10-02T11:53:11.573Z</time>
      </trkpt>
      <trkpt lat="45.60013" lon="5.36549">
        <ele>383</ele>
        <time>2021-10-02T11:53:10.573Z</time>
      </trkpt>
      <trkpt lat="45.60013" lon="5.36542">
        <ele>382</ele>
        <time>2021-10-02T11:53:09.573Z</time>
      </trkpt>
      <trkpt lat="45.60013" lon="5.36534">
        <ele>382</ele>
        <time>2021-10-02T11:53:08.573Z</time>
      </trkpt>
      <trkpt lat="45.60014" lon="5.36525">
        <ele>382</ele>
        <time>2021-10-02T11:53:07.573Z</time>
      </trkpt>
      <trkpt lat="45.60014" lon="5.36515">
        <ele>382</ele>
        <time>2021-10-02T11:53:06.573Z</time>
      </trkpt>
      <trkpt lat="45.60015" lon="5.36506">
        <ele>382</ele>
        <time>2021-10-02T11:53:05.573Z</time>
      </trkpt>
      <trkpt lat="45.60015" lon="5.36499">
        <ele>382</ele>
        <time>2021-10-02T11:53:04.572Z</time>
      </trkpt>
      <trkpt lat="45.60016" lon="5.36489">
        <ele>382</ele>
        <time>2021-10-02T11:53:03.573Z</time>
      </trkpt>
      <trkpt lat="45.60016" lon="5.36482">
        <ele>382</ele>
        <time>2021-10-02T11:53:02.573Z</time>
      </trkpt>
      <trkpt lat="45.60016" lon="5.36471">
        <ele>382</ele>
        <time>2021-10-02T11:53:01.573Z</time>
      </trkpt>
      <trkpt lat="45.60017" lon="5.36463">
        <ele>381</ele>
        <time>2021-10-02T11:53:00.573Z</time>
      </trkpt>
      <trkpt lat="45.60017" lon="5.36456">
        <ele>381</ele>
        <time>2021-10-02T11:52:59.573Z</time>
      </trkpt>
      <trkpt lat="45.60018" lon="5.36448">
        <ele>381</ele>
        <time>2021-10-02T11:52:58.572Z</time>
      </trkpt>
      <trkpt lat="45.60018" lon="5.3644">
        <ele>380</ele>
        <time>2021-10-02T11:52:57.573Z</time>
      </trkpt>
      <trkpt lat="45.60019" lon="5.3643">
        <ele>380</ele>
        <time>2021-10-02T11:52:56.573Z</time>
      </trkpt>
      <trkpt lat="45.60019" lon="5.36423">
        <ele>380</ele>
        <time>2021-10-02T11:52:55.572Z</time>
      </trkpt>
      <trkpt lat="45.60019" lon="5.36417">
        <ele>380</ele>
        <time>2021-10-02T11:52:54.572Z</time>
      </trkpt>
      <trkpt lat="45.6002" lon="5.36409">
        <ele>379</ele>
        <time>2021-10-02T11:52:53.573Z</time>
      </trkpt>
      <trkpt lat="45.6002" lon="5.36402">
        <ele>379</ele>
        <time>2021-10-02T11:52:52.573Z</time>
      </trkpt>
      <trkpt lat="45.6002" lon="5.36393">
        <ele>379</ele>
        <time>2021-10-02T11:52:51.573Z</time>
      </trkpt>
      <trkpt lat="45.60019" lon="5.36385">
        <ele>379</ele>
        <time>2021-10-02T11:52:50.573Z</time>
      </trkpt>
      <trkpt lat="45.60018" lon="5.36379">
        <ele>379</ele>
        <time>2021-10-02T11:52:49.573Z</time>
      </trkpt>
      <trkpt lat="45.60017" lon="5.3637">
        <ele>379</ele>
        <time>2021-10-02T11:52:48.573Z</time>
      </trkpt>
      <trkpt lat="45.60015" lon="5.36361">
        <ele>379</ele>
        <time>2021-10-02T11:52:47.573Z</time>
      </trkpt>
      <trkpt lat="45.60014" lon="5.36352">
        <ele>380</ele>
        <time>2021-10-02T11:52:46.572Z</time>
      </trkpt>
      <trkpt lat="45.60013" lon="5.36346">
        <ele>380</ele>
        <time>2021-10-02T11:52:45.572Z</time>
      </trkpt>
      <trkpt lat="45.60013" lon="5.36337">
        <ele>381</ele>
        <time>2021-10-02T11:52:44.573Z</time>
      </trkpt>
      <trkpt lat="45.60012" lon="5.36329">
        <ele>381</ele>
        <time>2021-10-02T11:52:43.573Z</time>
      </trkpt>
      <trkpt lat="45.60011" lon="5.36318">
        <ele>381</ele>
        <time>2021-10-02T11:52:42.573Z</time>
      </trkpt>
      <trkpt lat="45.60009" lon="5.3631">
        <ele>381</ele>
        <time>2021-10-02T11:52:41.572Z</time>
      </trkpt>
      <trkpt lat="45.60008" lon="5.36301">
        <ele>381</ele>
        <time>2021-10-02T11:52:40.573Z</time>
      </trkpt>
      <trkpt lat="45.60007" lon="5.36292">
        <ele>381</ele>
        <time>2021-10-02T11:52:39.572Z</time>
      </trkpt>
      <trkpt lat="45.60006" lon="5.36285">
        <ele>381</ele>
        <time>2021-10-02T11:52:38.572Z</time>
      </trkpt>
      <trkpt lat="45.60004" lon="5.36275">
        <ele>381</ele>
        <time>2021-10-02T11:52:37.573Z</time>
      </trkpt>
      <trkpt lat="45.60003" lon="5.36266">
        <ele>381</ele>
        <time>2021-10-02T11:52:36.573Z</time>
      </trkpt>
      <trkpt lat="45.60001" lon="5.36257">
        <ele>381</ele>
        <time>2021-10-02T11:52:35.573Z</time>
      </trkpt>
      <trkpt lat="45.6" lon="5.36249">
        <ele>381</ele>
        <time>2021-10-02T11:52:34.573Z</time>
      </trkpt>
      <trkpt lat="45.59999" lon="5.36242">
        <ele>380</ele>
        <time>2021-10-02T11:52:33.572Z</time>
      </trkpt>
      <trkpt lat="45.59997" lon="5.36231">
        <ele>380</ele>
        <time>2021-10-02T11:52:32.572Z</time>
      </trkpt>
      <trkpt lat="45.59995" lon="5.36223">
        <ele>380</ele>
        <time>2021-10-02T11:52:31.573Z</time>
      </trkpt>
      <trkpt lat="45.59993" lon="5.36216">
        <ele>380</ele>
        <time>2021-10-02T11:52:30.573Z</time>
      </trkpt>
      <trkpt lat="45.59991" lon="5.36207">
        <ele>380</ele>
        <time>2021-10-02T11:52:29.573Z</time>
      </trkpt>
      <trkpt lat="45.59989" lon="5.36196">
        <ele>380</ele>
        <time>2021-10-02T11:52:28.573Z</time>
      </trkpt>
      <trkpt lat="45.59987" lon="5.36187">
        <ele>380</ele>
        <time>2021-10-02T11:52:27.573Z</time>
      </trkpt>
      <trkpt lat="45.59986" lon="5.36178">
        <ele>380</ele>
        <time>2021-10-02T11:52:26.573Z</time>
      </trkpt>
      <trkpt lat="45.59984" lon="5.36171">
        <ele>381</ele>
        <time>2021-10-02T11:52:25.573Z</time>
      </trkpt>
      <trkpt lat="45.59982" lon="5.36162">
        <ele>381</ele>
        <time>2021-10-02T11:52:24.573Z</time>
      </trkpt>
      <trkpt lat="45.5998" lon="5.3615">
        <ele>381</ele>
        <time>2021-10-02T11:52:23.572Z</time>
      </trkpt>
      <trkpt lat="45.59978" lon="5.36141">
        <ele>381</ele>
        <time>2021-10-02T11:52:22.573Z</time>
      </trkpt>
      <trkpt lat="45.59976" lon="5.36131">
        <ele>382</ele>
        <time>2021-10-02T11:52:21.573Z</time>
      </trkpt>
      <trkpt lat="45.59973" lon="5.36123">
        <ele>382</ele>
        <time>2021-10-02T11:52:20.572Z</time>
      </trkpt>
      <trkpt lat="45.59971" lon="5.36114">
        <ele>382</ele>
        <time>2021-10-02T11:52:19.573Z</time>
      </trkpt>
      <trkpt lat="45.59967" lon="5.36103">
        <ele>382</ele>
        <time>2021-10-02T11:52:18.573Z</time>
      </trkpt>
      <trkpt lat="45.59965" lon="5.36094">
        <ele>382</ele>
        <time>2021-10-02T11:52:17.573Z</time>
      </trkpt>
      <trkpt lat="45.59962" lon="5.36085">
        <ele>381</ele>
        <time>2021-10-02T11:52:16.573Z</time>
      </trkpt>
      <trkpt lat="45.59961" lon="5.36078">
        <ele>381</ele>
        <time>2021-10-02T11:52:15.573Z</time>
      </trkpt>
      <trkpt lat="45.59959" lon="5.36069">
        <ele>382</ele>
        <time>2021-10-02T11:52:14.573Z</time>
      </trkpt>
      <trkpt lat="45.59957" lon="5.36059">
        <ele>382</ele>
        <time>2021-10-02T11:52:13.572Z</time>
      </trkpt>
      <trkpt lat="45.59954" lon="5.36048">
        <ele>382</ele>
        <time>2021-10-02T11:52:12.573Z</time>
      </trkpt>
      <trkpt lat="45.59952" lon="5.36038">
        <ele>383</ele>
        <time>2021-10-02T11:52:11.573Z</time>
      </trkpt>
      <trkpt lat="45.59951" lon="5.3603">
        <ele>383</ele>
        <time>2021-10-02T11:52:10.572Z</time>
      </trkpt>
      <trkpt lat="45.59949" lon="5.36019">
        <ele>383</ele>
        <time>2021-10-02T11:52:09.573Z</time>
      </trkpt>
      <trkpt lat="45.59947" lon="5.36012">
        <ele>383</ele>
        <time>2021-10-02T11:52:08.573Z</time>
      </trkpt>
      <trkpt lat="45.59945" lon="5.36001">
        <ele>383</ele>
        <time>2021-10-02T11:52:07.573Z</time>
      </trkpt>
      <trkpt lat="45.59943" lon="5.35992">
        <ele>382</ele>
        <time>2021-10-02T11:52:06.573Z</time>
      </trkpt>
      <trkpt lat="45.59941" lon="5.35984">
        <ele>382</ele>
        <time>2021-10-02T11:52:05.573Z</time>
      </trkpt>
      <trkpt lat="45.5994" lon="5.35975">
        <ele>382</ele>
        <time>2021-10-02T11:52:04.573Z</time>
      </trkpt>
      <trkpt lat="45.59938" lon="5.35966">
        <ele>382</ele>
        <time>2021-10-02T11:52:03.573Z</time>
      </trkpt>
      <trkpt lat="45.59937" lon="5.35955">
        <ele>382</ele>
        <time>2021-10-02T11:52:02.572Z</time>
      </trkpt>
      <trkpt lat="45.59935" lon="5.35947">
        <ele>382</ele>
        <time>2021-10-02T11:52:01.573Z</time>
      </trkpt>
      <trkpt lat="45.59934" lon="5.3594">
        <ele>381</ele>
        <time>2021-10-02T11:52:00.573Z</time>
      </trkpt>
      <trkpt lat="45.59933" lon="5.35932">
        <ele>381</ele>
        <time>2021-10-02T11:51:59.572Z</time>
      </trkpt>
      <trkpt lat="45.59931" lon="5.35922">
        <ele>381</ele>
        <time>2021-10-02T11:51:58.573Z</time>
      </trkpt>
      <trkpt lat="45.5993" lon="5.35913">
        <ele>381</ele>
        <time>2021-10-02T11:51:57.573Z</time>
      </trkpt>
      <trkpt lat="45.59928" lon="5.35905">
        <ele>381</ele>
        <time>2021-10-02T11:51:56.572Z</time>
      </trkpt>
      <trkpt lat="45.59927" lon="5.35898">
        <ele>381</ele>
        <time>2021-10-02T11:51:55.573Z</time>
      </trkpt>
      <trkpt lat="45.59926" lon="5.35889">
        <ele>381</ele>
        <time>2021-10-02T11:51:54.573Z</time>
      </trkpt>
      <trkpt lat="45.59924" lon="5.3588">
        <ele>381</ele>
        <time>2021-10-02T11:51:53.573Z</time>
      </trkpt>
      <trkpt lat="45.59922" lon="5.3587">
        <ele>380</ele>
        <time>2021-10-02T11:51:52.573Z</time>
      </trkpt>
      <trkpt lat="45.59921" lon="5.35861">
        <ele>380</ele>
        <time>2021-10-02T11:51:51.572Z</time>
      </trkpt>
      <trkpt lat="45.59919" lon="5.35853">
        <ele>380</ele>
        <time>2021-10-02T11:51:50.573Z</time>
      </trkpt>
      <trkpt lat="45.59918" lon="5.35844">
        <ele>380</ele>
        <time>2021-10-02T11:51:49.572Z</time>
      </trkpt>
      <trkpt lat="45.59916" lon="5.35833">
        <ele>380</ele>
        <time>2021-10-02T11:51:48.573Z</time>
      </trkpt>
      <trkpt lat="45.59915" lon="5.35824">
        <ele>380</ele>
        <time>2021-10-02T11:51:47.572Z</time>
      </trkpt>
      <trkpt lat="45.59913" lon="5.35815">
        <ele>381</ele>
        <time>2021-10-02T11:51:46.573Z</time>
      </trkpt>
      <trkpt lat="45.59912" lon="5.35807">
        <ele>381</ele>
        <time>2021-10-02T11:51:45.572Z</time>
      </trkpt>
      <trkpt lat="45.59911" lon="5.35798">
        <ele>381</ele>
        <time>2021-10-02T11:51:44.573Z</time>
      </trkpt>
      <trkpt lat="45.59909" lon="5.35787">
        <ele>381</ele>
        <time>2021-10-02T11:51:43.573Z</time>
      </trkpt>
      <trkpt lat="45.59908" lon="5.35778">
        <ele>380</ele>
        <time>2021-10-02T11:51:42.572Z</time>
      </trkpt>
      <trkpt lat="45.59906" lon="5.3577">
        <ele>380</ele>
        <time>2021-10-02T11:51:41.573Z</time>
      </trkpt>
      <trkpt lat="45.59905" lon="5.35761">
        <ele>380</ele>
        <time>2021-10-02T11:51:40.572Z</time>
      </trkpt>
      <trkpt lat="45.59903" lon="5.35752">
        <ele>380</ele>
        <time>2021-10-02T11:51:39.573Z</time>
      </trkpt>
      <trkpt lat="45.59902" lon="5.35741">
        <ele>380</ele>
        <time>2021-10-02T11:51:38.573Z</time>
      </trkpt>
      <trkpt lat="45.599" lon="5.35732">
        <ele>380</ele>
        <time>2021-10-02T11:51:37.573Z</time>
      </trkpt>
      <trkpt lat="45.59899" lon="5.35725">
        <ele>379</ele>
        <time>2021-10-02T11:51:36.573Z</time>
      </trkpt>
      <trkpt lat="45.59898" lon="5.35717">
        <ele>379</ele>
        <time>2021-10-02T11:51:35.573Z</time>
      </trkpt>
      <trkpt lat="45.59897" lon="5.35708">
        <ele>379</ele>
        <time>2021-10-02T11:51:34.572Z</time>
      </trkpt>
      <trkpt lat="45.59896" lon="5.357">
        <ele>380</ele>
        <time>2021-10-02T11:51:33.573Z</time>
      </trkpt>
      <trkpt lat="45.59895" lon="5.35692">
        <ele>380</ele>
        <time>2021-10-02T11:51:32.573Z</time>
      </trkpt>
      <trkpt lat="45.59894" lon="5.35684">
        <ele>380</ele>
        <time>2021-10-02T11:51:31.572Z</time>
      </trkpt>
      <trkpt lat="45.59893" lon="5.35676">
        <ele>380</ele>
        <time>2021-10-02T11:51:30.573Z</time>
      </trkpt>
      <trkpt lat="45.59893" lon="5.35668">
        <ele>380</ele>
        <time>2021-10-02T11:51:29.573Z</time>
      </trkpt>
      <trkpt lat="45.59892" lon="5.3566">
        <ele>380</ele>
        <time>2021-10-02T11:51:28.572Z</time>
      </trkpt>
      <trkpt lat="45.59892" lon="5.35652">
        <ele>380</ele>
        <time>2021-10-02T11:51:27.573Z</time>
      </trkpt>
      <trkpt lat="45.59891" lon="5.35644">
        <ele>380</ele>
        <time>2021-10-02T11:51:26.573Z</time>
      </trkpt>
      <trkpt lat="45.5989" lon="5.35636">
        <ele>379</ele>
        <time>2021-10-02T11:51:25.573Z</time>
      </trkpt>
      <trkpt lat="45.59889" lon="5.35628">
        <ele>379</ele>
        <time>2021-10-02T11:51:24.572Z</time>
      </trkpt>
      <trkpt lat="45.59889" lon="5.3562">
        <ele>380</ele>
        <time>2021-10-02T11:51:23.573Z</time>
      </trkpt>
      <trkpt lat="45.59888" lon="5.35612">
        <ele>380</ele>
        <time>2021-10-02T11:51:22.573Z</time>
      </trkpt>
      <trkpt lat="45.59887" lon="5.35604">
        <ele>380</ele>
        <time>2021-10-02T11:51:21.572Z</time>
      </trkpt>
      <trkpt lat="45.59886" lon="5.35596">
        <ele>380</ele>
        <time>2021-10-02T11:51:20.572Z</time>
      </trkpt>
      <trkpt lat="45.59884" lon="5.35589">
        <ele>381</ele>
        <time>2021-10-02T11:51:19.573Z</time>
      </trkpt>
      <trkpt lat="45.59882" lon="5.35582">
        <ele>381</ele>
        <time>2021-10-02T11:51:18.572Z</time>
      </trkpt>
      <trkpt lat="45.5988" lon="5.35576">
        <ele>381</ele>
        <time>2021-10-02T11:51:17.572Z</time>
      </trkpt>
      <trkpt lat="45.59877" lon="5.35571">
        <ele>381</ele>
        <time>2021-10-02T11:51:16.573Z</time>
      </trkpt>
      <trkpt lat="45.59874" lon="5.35567">
        <ele>381</ele>
        <time>2021-10-02T11:51:15.573Z</time>
      </trkpt>
      <trkpt lat="45.59871" lon="5.35563">
        <ele>381</ele>
        <time>2021-10-02T11:51:14.573Z</time>
      </trkpt>
      <trkpt lat="45.59869" lon="5.3556">
        <ele>381</ele>
        <time>2021-10-02T11:51:13.573Z</time>
      </trkpt>
      <trkpt lat="45.59868" lon="5.35557">
        <ele>381</ele>
        <time>2021-10-02T11:51:12.573Z</time>
      </trkpt>
      <trkpt lat="45.59868" lon="5.35552">
        <ele>382</ele>
        <time>2021-10-02T11:51:11.573Z</time>
      </trkpt>
      <trkpt lat="45.59868" lon="5.35548">
        <ele>382</ele>
        <time>2021-10-02T11:51:10.572Z</time>
      </trkpt>
      <trkpt lat="45.59868" lon="5.35543">
        <ele>383</ele>
        <time>2021-10-02T11:51:09.572Z</time>
      </trkpt>
      <trkpt lat="45.59869" lon="5.35538">
        <ele>383</ele>
        <time>2021-10-02T11:51:08.573Z</time>
      </trkpt>
      <trkpt lat="45.5987" lon="5.35532">
        <ele>384</ele>
        <time>2021-10-02T11:51:07.573Z</time>
      </trkpt>
      <trkpt lat="45.59871" lon="5.35525">
        <ele>384</ele>
        <time>2021-10-02T11:51:06.573Z</time>
      </trkpt>
      <trkpt lat="45.59872" lon="5.35518">
        <ele>385</ele>
        <time>2021-10-02T11:51:05.573Z</time>
      </trkpt>
      <trkpt lat="45.59873" lon="5.3551">
        <ele>385</ele>
        <time>2021-10-02T11:51:04.573Z</time>
      </trkpt>
      <trkpt lat="45.59875" lon="5.35501">
        <ele>385</ele>
        <time>2021-10-02T11:51:03.572Z</time>
      </trkpt>
      <trkpt lat="45.59876" lon="5.35493">
        <ele>385</ele>
        <time>2021-10-02T11:51:02.572Z</time>
      </trkpt>
      <trkpt lat="45.59878" lon="5.35485">
        <ele>385</ele>
        <time>2021-10-02T11:51:01.573Z</time>
      </trkpt>
      <trkpt lat="45.59879" lon="5.35477">
        <ele>385</ele>
        <time>2021-10-02T11:51:00.573Z</time>
      </trkpt>
      <trkpt lat="45.59879" lon="5.35468">
        <ele>385</ele>
        <time>2021-10-02T11:50:59.572Z</time>
      </trkpt>
      <trkpt lat="45.59879" lon="5.35459">
        <ele>385</ele>
        <time>2021-10-02T11:50:58.572Z</time>
      </trkpt>
      <trkpt lat="45.59879" lon="5.35451">
        <ele>385</ele>
        <time>2021-10-02T11:50:57.573Z</time>
      </trkpt>
      <trkpt lat="45.59879" lon="5.35442">
        <ele>385</ele>
        <time>2021-10-02T11:50:56.573Z</time>
      </trkpt>
      <trkpt lat="45.59879" lon="5.35433">
        <ele>384</ele>
        <time>2021-10-02T11:50:55.573Z</time>
      </trkpt>
      <trkpt lat="45.59879" lon="5.35424">
        <ele>384</ele>
        <time>2021-10-02T11:50:54.572Z</time>
      </trkpt>
      <trkpt lat="45.59879" lon="5.35415">
        <ele>384</ele>
        <time>2021-10-02T11:50:53.573Z</time>
      </trkpt>
      <trkpt lat="45.59879" lon="5.35406">
        <ele>384</ele>
        <time>2021-10-02T11:50:52.573Z</time>
      </trkpt>
      <trkpt lat="45.5988" lon="5.35396">
        <ele>384</ele>
        <time>2021-10-02T11:50:51.572Z</time>
      </trkpt>
      <trkpt lat="45.5988" lon="5.35387">
        <ele>384</ele>
        <time>2021-10-02T11:50:50.572Z</time>
      </trkpt>
      <trkpt lat="45.59881" lon="5.35379">
        <ele>384</ele>
        <time>2021-10-02T11:50:49.573Z</time>
      </trkpt>
      <trkpt lat="45.59882" lon="5.3537">
        <ele>384</ele>
        <time>2021-10-02T11:50:48.573Z</time>
      </trkpt>
      <trkpt lat="45.59884" lon="5.35361">
        <ele>384</ele>
        <time>2021-10-02T11:50:47.572Z</time>
      </trkpt>
      <trkpt lat="45.59885" lon="5.35353">
        <ele>384</ele>
        <time>2021-10-02T11:50:46.573Z</time>
      </trkpt>
      <trkpt lat="45.59886" lon="5.35345">
        <ele>384</ele>
        <time>2021-10-02T11:50:45.572Z</time>
      </trkpt>
      <trkpt lat="45.59888" lon="5.35336">
        <ele>384</ele>
        <time>2021-10-02T11:50:44.573Z</time>
      </trkpt>
      <trkpt lat="45.5989" lon="5.35328">
        <ele>384</ele>
        <time>2021-10-02T11:50:43.573Z</time>
      </trkpt>
      <trkpt lat="45.59892" lon="5.3532">
        <ele>384</ele>
        <time>2021-10-02T11:50:42.573Z</time>
      </trkpt>
      <trkpt lat="45.59894" lon="5.35312">
        <ele>384</ele>
        <time>2021-10-02T11:50:41.572Z</time>
      </trkpt>
      <trkpt lat="45.59896" lon="5.35304">
        <ele>384</ele>
        <time>2021-10-02T11:50:40.572Z</time>
      </trkpt>
      <trkpt lat="45.59898" lon="5.35296">
        <ele>384</ele>
        <time>2021-10-02T11:50:39.573Z</time>
      </trkpt>
      <trkpt lat="45.599" lon="5.35288">
        <ele>384</ele>
        <time>2021-10-02T11:50:38.572Z</time>
      </trkpt>
      <trkpt lat="45.59902" lon="5.3528">
        <ele>384</ele>
        <time>2021-10-02T11:50:37.573Z</time>
      </trkpt>
      <trkpt lat="45.59904" lon="5.35272">
        <ele>384</ele>
        <time>2021-10-02T11:50:36.573Z</time>
      </trkpt>
      <trkpt lat="45.59907" lon="5.35265">
        <ele>384</ele>
        <time>2021-10-02T11:50:35.573Z</time>
      </trkpt>
      <trkpt lat="45.59909" lon="5.35257">
        <ele>383</ele>
        <time>2021-10-02T11:50:34.572Z</time>
      </trkpt>
      <trkpt lat="45.59911" lon="5.35249">
        <ele>383</ele>
        <time>2021-10-02T11:50:33.572Z</time>
      </trkpt>
      <trkpt lat="45.59913" lon="5.35242">
        <ele>382</ele>
        <time>2021-10-02T11:50:32.572Z</time>
      </trkpt>
      <trkpt lat="45.59915" lon="5.35235">
        <ele>382</ele>
        <time>2021-10-02T11:50:31.572Z</time>
      </trkpt>
      <trkpt lat="45.59917" lon="5.35229">
        <ele>382</ele>
        <time>2021-10-02T11:50:30.573Z</time>
      </trkpt>
      <trkpt lat="45.59918" lon="5.35222">
        <ele>382</ele>
        <time>2021-10-02T11:50:29.573Z</time>
      </trkpt>
      <trkpt lat="45.5992" lon="5.35215">
        <ele>382</ele>
        <time>2021-10-02T11:50:28.573Z</time>
      </trkpt>
      <trkpt lat="45.59922" lon="5.35209">
        <ele>382</ele>
        <time>2021-10-02T11:50:27.572Z</time>
      </trkpt>
      <trkpt lat="45.59923" lon="5.35202">
        <ele>382</ele>
        <time>2021-10-02T11:50:26.572Z</time>
      </trkpt>
      <trkpt lat="45.59925" lon="5.35195">
        <ele>382</ele>
        <time>2021-10-02T11:50:25.572Z</time>
      </trkpt>
      <trkpt lat="45.59926" lon="5.35189">
        <ele>382</ele>
        <time>2021-10-02T11:50:24.573Z</time>
      </trkpt>
      <trkpt lat="45.59926" lon="5.35183">
        <ele>382</ele>
        <time>2021-10-02T11:50:23.573Z</time>
      </trkpt>
      <trkpt lat="45.59927" lon="5.35176">
        <ele>382</ele>
        <time>2021-10-02T11:50:22.573Z</time>
      </trkpt>
      <trkpt lat="45.59929" lon="5.35169">
        <ele>382</ele>
        <time>2021-10-02T11:50:21.572Z</time>
      </trkpt>
      <trkpt lat="45.59929" lon="5.35162">
        <ele>382</ele>
        <time>2021-10-02T11:50:20.572Z</time>
      </trkpt>
      <trkpt lat="45.5993" lon="5.35155">
        <ele>382</ele>
        <time>2021-10-02T11:50:19.572Z</time>
      </trkpt>
      <trkpt lat="45.59931" lon="5.35149">
        <ele>382</ele>
        <time>2021-10-02T11:50:18.572Z</time>
      </trkpt>
      <trkpt lat="45.59932" lon="5.35142">
        <ele>382</ele>
        <time>2021-10-02T11:50:17.572Z</time>
      </trkpt>
      <trkpt lat="45.59933" lon="5.35136">
        <ele>382</ele>
        <time>2021-10-02T11:50:16.573Z</time>
      </trkpt>
      <trkpt lat="45.59935" lon="5.3513">
        <ele>382</ele>
        <time>2021-10-02T11:50:15.573Z</time>
      </trkpt>
      <trkpt lat="45.59936" lon="5.35124">
        <ele>383</ele>
        <time>2021-10-02T11:50:14.572Z</time>
      </trkpt>
      <trkpt lat="45.59937" lon="5.35117">
        <ele>383</ele>
        <time>2021-10-02T11:50:13.573Z</time>
      </trkpt>
      <trkpt lat="45.59939" lon="5.35111">
        <ele>383</ele>
        <time>2021-10-02T11:50:12.572Z</time>
      </trkpt>
      <trkpt lat="45.5994" lon="5.35104">
        <ele>383</ele>
        <time>2021-10-02T11:50:11.573Z</time>
      </trkpt>
      <trkpt lat="45.59941" lon="5.35097">
        <ele>383</ele>
        <time>2021-10-02T11:50:10.572Z</time>
      </trkpt>
      <trkpt lat="45.59943" lon="5.35091">
        <ele>383</ele>
        <time>2021-10-02T11:50:09.572Z</time>
      </trkpt>
      <trkpt lat="45.59945" lon="5.35084">
        <ele>383</ele>
        <time>2021-10-02T11:50:08.573Z</time>
      </trkpt>
      <trkpt lat="45.59947" lon="5.35077">
        <ele>382</ele>
        <time>2021-10-02T11:50:07.573Z</time>
      </trkpt>
      <trkpt lat="45.59948" lon="5.35071">
        <ele>383</ele>
        <time>2021-10-02T11:50:06.573Z</time>
      </trkpt>
      <trkpt lat="45.5995" lon="5.35064">
        <ele>383</ele>
        <time>2021-10-02T11:50:05.573Z</time>
      </trkpt>
      <trkpt lat="45.59952" lon="5.35058">
        <ele>383</ele>
        <time>2021-10-02T11:50:04.572Z</time>
      </trkpt>
      <trkpt lat="45.59955" lon="5.35051">
        <ele>383</ele>
        <time>2021-10-02T11:50:03.573Z</time>
      </trkpt>
      <trkpt lat="45.59957" lon="5.35045">
        <ele>383</ele>
        <time>2021-10-02T11:50:02.573Z</time>
      </trkpt>
      <trkpt lat="45.5996" lon="5.35038">
        <ele>383</ele>
        <time>2021-10-02T11:50:01.572Z</time>
      </trkpt>
      <trkpt lat="45.59962" lon="5.35031">
        <ele>384</ele>
        <time>2021-10-02T11:50:00.573Z</time>
      </trkpt>
      <trkpt lat="45.59965" lon="5.35025">
        <ele>384</ele>
        <time>2021-10-02T11:49:59.573Z</time>
      </trkpt>
      <trkpt lat="45.59968" lon="5.35018">
        <ele>384</ele>
        <time>2021-10-02T11:49:58.572Z</time>
      </trkpt>
      <trkpt lat="45.5997" lon="5.35011">
        <ele>385</ele>
        <time>2021-10-02T11:49:57.573Z</time>
      </trkpt>
      <trkpt lat="45.59973" lon="5.35004">
        <ele>385</ele>
        <time>2021-10-02T11:49:56.573Z</time>
      </trkpt>
      <trkpt lat="45.59976" lon="5.34997">
        <ele>385</ele>
        <time>2021-10-02T11:49:55.573Z</time>
      </trkpt>
      <trkpt lat="45.59979" lon="5.34991">
        <ele>385</ele>
        <time>2021-10-02T11:49:54.572Z</time>
      </trkpt>
      <trkpt lat="45.59981" lon="5.34984">
        <ele>385</ele>
        <time>2021-10-02T11:49:53.573Z</time>
      </trkpt>
      <trkpt lat="45.59984" lon="5.34978">
        <ele>385</ele>
        <time>2021-10-02T11:49:52.572Z</time>
      </trkpt>
      <trkpt lat="45.59987" lon="5.34972">
        <ele>385</ele>
        <time>2021-10-02T11:49:51.572Z</time>
      </trkpt>
      <trkpt lat="45.5999" lon="5.34966">
        <ele>385</ele>
        <time>2021-10-02T11:49:50.572Z</time>
      </trkpt>
      <trkpt lat="45.59992" lon="5.3496">
        <ele>385</ele>
        <time>2021-10-02T11:49:49.573Z</time>
      </trkpt>
      <trkpt lat="45.59995" lon="5.34954">
        <ele>385</ele>
        <time>2021-10-02T11:49:48.573Z</time>
      </trkpt>
      <trkpt lat="45.59998" lon="5.34948">
        <ele>385</ele>
        <time>2021-10-02T11:49:47.573Z</time>
      </trkpt>
      <trkpt lat="45.6" lon="5.34942">
        <ele>385</ele>
        <time>2021-10-02T11:49:46.572Z</time>
      </trkpt>
      <trkpt lat="45.60003" lon="5.34936">
        <ele>385</ele>
        <time>2021-10-02T11:49:45.572Z</time>
      </trkpt>
      <trkpt lat="45.60006" lon="5.3493">
        <ele>386</ele>
        <time>2021-10-02T11:49:44.573Z</time>
      </trkpt>
      <trkpt lat="45.60009" lon="5.34924">
        <ele>386</ele>
        <time>2021-10-02T11:49:43.572Z</time>
      </trkpt>
      <trkpt lat="45.60011" lon="5.34919">
        <ele>386</ele>
        <time>2021-10-02T11:49:42.572Z</time>
      </trkpt>
      <trkpt lat="45.60014" lon="5.34913">
        <ele>386</ele>
        <time>2021-10-02T11:49:41.573Z</time>
      </trkpt>
      <trkpt lat="45.60017" lon="5.34908">
        <ele>386</ele>
        <time>2021-10-02T11:49:40.572Z</time>
      </trkpt>
      <trkpt lat="45.6002" lon="5.34903">
        <ele>385</ele>
        <time>2021-10-02T11:49:39.573Z</time>
      </trkpt>
      <trkpt lat="45.60023" lon="5.34897">
        <ele>385</ele>
        <time>2021-10-02T11:49:38.573Z</time>
      </trkpt>
      <trkpt lat="45.60026" lon="5.34892">
        <ele>384</ele>
        <time>2021-10-02T11:49:37.573Z</time>
      </trkpt>
      <trkpt lat="45.60029" lon="5.34887">
        <ele>383</ele>
        <time>2021-10-02T11:49:36.573Z</time>
      </trkpt>
      <trkpt lat="45.60032" lon="5.34883">
        <ele>383</ele>
        <time>2021-10-02T11:49:35.572Z</time>
      </trkpt>
      <trkpt lat="45.60034" lon="5.34879">
        <ele>383</ele>
        <time>2021-10-02T11:49:34.572Z</time>
      </trkpt>
      <trkpt lat="45.60037" lon="5.34875">
        <ele>383</ele>
        <time>2021-10-02T11:49:33.572Z</time>
      </trkpt>
      <trkpt lat="45.60041" lon="5.34871">
        <ele>383</ele>
        <time>2021-10-02T11:49:32.573Z</time>
      </trkpt>
      <trkpt lat="45.60044" lon="5.34867">
        <ele>383</ele>
        <time>2021-10-02T11:49:31.573Z</time>
      </trkpt>
      <trkpt lat="45.60048" lon="5.34863">
        <ele>383</ele>
        <time>2021-10-02T11:49:30.573Z</time>
      </trkpt>
      <trkpt lat="45.60052" lon="5.34859">
        <ele>383</ele>
        <time>2021-10-02T11:49:29.573Z</time>
      </trkpt>
      <trkpt lat="45.60056" lon="5.34855">
        <ele>384</ele>
        <time>2021-10-02T11:49:28.573Z</time>
      </trkpt>
      <trkpt lat="45.60059" lon="5.34851">
        <ele>384</ele>
        <time>2021-10-02T11:49:27.573Z</time>
      </trkpt>
      <trkpt lat="45.60063" lon="5.34847">
        <ele>384</ele>
        <time>2021-10-02T11:49:26.573Z</time>
      </trkpt>
      <trkpt lat="45.60067" lon="5.34843">
        <ele>384</ele>
        <time>2021-10-02T11:49:25.573Z</time>
      </trkpt>
      <trkpt lat="45.60071" lon="5.34839">
        <ele>384</ele>
        <time>2021-10-02T11:49:24.573Z</time>
      </trkpt>
      <trkpt lat="45.60075" lon="5.34835">
        <ele>383</ele>
        <time>2021-10-02T11:49:23.573Z</time>
      </trkpt>
      <trkpt lat="45.60079" lon="5.34831">
        <ele>383</ele>
        <time>2021-10-02T11:49:22.573Z</time>
      </trkpt>
      <trkpt lat="45.60083" lon="5.34826">
        <ele>382</ele>
        <time>2021-10-02T11:49:21.573Z</time>
      </trkpt>
      <trkpt lat="45.60087" lon="5.34822">
        <ele>382</ele>
        <time>2021-10-02T11:49:20.573Z</time>
      </trkpt>
      <trkpt lat="45.60091" lon="5.34818">
        <ele>381</ele>
        <time>2021-10-02T11:49:19.572Z</time>
      </trkpt>
      <trkpt lat="45.60095" lon="5.34814">
        <ele>381</ele>
        <time>2021-10-02T11:49:18.572Z</time>
      </trkpt>
      <trkpt lat="45.60099" lon="5.3481">
        <ele>381</ele>
        <time>2021-10-02T11:49:17.573Z</time>
      </trkpt>
      <trkpt lat="45.60103" lon="5.34806">
        <ele>380</ele>
        <time>2021-10-02T11:49:16.573Z</time>
      </trkpt>
      <trkpt lat="45.60107" lon="5.34801">
        <ele>380</ele>
        <time>2021-10-02T11:49:15.573Z</time>
      </trkpt>
      <trkpt lat="45.60111" lon="5.34797">
        <ele>381</ele>
        <time>2021-10-02T11:49:14.573Z</time>
      </trkpt>
      <trkpt lat="45.60115" lon="5.34793">
        <ele>381</ele>
        <time>2021-10-02T11:49:13.573Z</time>
      </trkpt>
      <trkpt lat="45.60119" lon="5.34788">
        <ele>380</ele>
        <time>2021-10-02T11:49:12.573Z</time>
      </trkpt>
      <trkpt lat="45.60124" lon="5.34784">
        <ele>380</ele>
        <time>2021-10-02T11:49:11.573Z</time>
      </trkpt>
      <trkpt lat="45.6013" lon="5.34777">
        <ele>380</ele>
        <time>2021-10-02T11:49:10.573Z</time>
      </trkpt>
      <trkpt lat="45.60135" lon="5.34772">
        <ele>380</ele>
        <time>2021-10-02T11:49:09.573Z</time>
      </trkpt>
      <trkpt lat="45.60141" lon="5.34766">
        <ele>380</ele>
        <time>2021-10-02T11:49:08.572Z</time>
      </trkpt>
      <trkpt lat="45.60147" lon="5.34759">
        <ele>381</ele>
        <time>2021-10-02T11:49:07.572Z</time>
      </trkpt>
      <trkpt lat="45.60153" lon="5.34753">
        <ele>381</ele>
        <time>2021-10-02T11:49:06.573Z</time>
      </trkpt>
      <trkpt lat="45.60159" lon="5.34746">
        <ele>382</ele>
        <time>2021-10-02T11:49:05.573Z</time>
      </trkpt>
      <trkpt lat="45.60165" lon="5.34739">
        <ele>383</ele>
        <time>2021-10-02T11:49:04.573Z</time>
      </trkpt>
      <trkpt lat="45.60172" lon="5.34732">
        <ele>383</ele>
        <time>2021-10-02T11:49:03.572Z</time>
      </trkpt>
      <trkpt lat="45.60179" lon="5.34725">
        <ele>384</ele>
        <time>2021-10-02T11:49:02.573Z</time>
      </trkpt>
      <trkpt lat="45.60186" lon="5.34717">
        <ele>384</ele>
        <time>2021-10-02T11:49:01.573Z</time>
      </trkpt>
      <trkpt lat="45.60193" lon="5.34709">
        <ele>384</ele>
        <time>2021-10-02T11:49:00.573Z</time>
      </trkpt>
      <trkpt lat="45.602" lon="5.34701">
        <ele>385</ele>
        <time>2021-10-02T11:48:59.573Z</time>
      </trkpt>
      <trkpt lat="45.60208" lon="5.34693">
        <ele>385</ele>
        <time>2021-10-02T11:48:58.573Z</time>
      </trkpt>
      <trkpt lat="45.60214" lon="5.34684">
        <ele>386</ele>
        <time>2021-10-02T11:48:57.572Z</time>
      </trkpt>
      <trkpt lat="45.60221" lon="5.34676">
        <ele>387</ele>
        <time>2021-10-02T11:48:56.573Z</time>
      </trkpt>
      <trkpt lat="45.60228" lon="5.34668">
        <ele>387</ele>
        <time>2021-10-02T11:48:55.573Z</time>
      </trkpt>
      <trkpt lat="45.60235" lon="5.34659">
        <ele>388</ele>
        <time>2021-10-02T11:48:54.573Z</time>
      </trkpt>
      <trkpt lat="45.6024" lon="5.34652">
        <ele>388</ele>
        <time>2021-10-02T11:48:53.573Z</time>
      </trkpt>
      <trkpt lat="45.60247" lon="5.34642">
        <ele>388</ele>
        <time>2021-10-02T11:48:52.573Z</time>
      </trkpt>
      <trkpt lat="45.60254" lon="5.34634">
        <ele>389</ele>
        <time>2021-10-02T11:48:51.573Z</time>
      </trkpt>
      <trkpt lat="45.60259" lon="5.34626">
        <ele>389</ele>
        <time>2021-10-02T11:48:50.573Z</time>
      </trkpt>
      <trkpt lat="45.60265" lon="5.34618">
        <ele>388</ele>
        <time>2021-10-02T11:48:49.573Z</time>
      </trkpt>
      <trkpt lat="45.60271" lon="5.34611">
        <ele>388</ele>
        <time>2021-10-02T11:48:48.573Z</time>
      </trkpt>
      <trkpt lat="45.60276" lon="5.34604">
        <ele>388</ele>
        <time>2021-10-02T11:48:47.573Z</time>
      </trkpt>
      <trkpt lat="45.60281" lon="5.34597">
        <ele>387</ele>
        <time>2021-10-02T11:48:46.572Z</time>
      </trkpt>
      <trkpt lat="45.60286" lon="5.3459">
        <ele>387</ele>
        <time>2021-10-02T11:48:45.572Z</time>
      </trkpt>
      <trkpt lat="45.6029" lon="5.34585">
        <ele>387</ele>
        <time>2021-10-02T11:48:44.573Z</time>
      </trkpt>
      <trkpt lat="45.60295" lon="5.34577">
        <ele>387</ele>
        <time>2021-10-02T11:48:43.573Z</time>
      </trkpt>
      <trkpt lat="45.60299" lon="5.34572">
        <ele>387</ele>
        <time>2021-10-02T11:48:42.572Z</time>
      </trkpt>
      <trkpt lat="45.60302" lon="5.34566">
        <ele>386</ele>
        <time>2021-10-02T11:48:41.573Z</time>
      </trkpt>
      <trkpt lat="45.60306" lon="5.3456">
        <ele>386</ele>
        <time>2021-10-02T11:48:40.572Z</time>
      </trkpt>
      <trkpt lat="45.6031" lon="5.34555">
        <ele>386</ele>
        <time>2021-10-02T11:48:39.573Z</time>
      </trkpt>
      <trkpt lat="45.60314" lon="5.34549">
        <ele>386</ele>
        <time>2021-10-02T11:48:38.573Z</time>
      </trkpt>
      <trkpt lat="45.60317" lon="5.34544">
        <ele>387</ele>
        <time>2021-10-02T11:48:37.573Z</time>
      </trkpt>
      <trkpt lat="45.6032" lon="5.34538">
        <ele>386</ele>
        <time>2021-10-02T11:48:36.572Z</time>
      </trkpt>
      <trkpt lat="45.60323" lon="5.34532">
        <ele>387</ele>
        <time>2021-10-02T11:48:35.573Z</time>
      </trkpt>
      <trkpt lat="45.60325" lon="5.34525">
        <ele>387</ele>
        <time>2021-10-02T11:48:34.572Z</time>
      </trkpt>
      <trkpt lat="45.60328" lon="5.34518">
        <ele>387</ele>
        <time>2021-10-02T11:48:33.573Z</time>
      </trkpt>
      <trkpt lat="45.6033" lon="5.34512">
        <ele>387</ele>
        <time>2021-10-02T11:48:32.573Z</time>
      </trkpt>
      <trkpt lat="45.60332" lon="5.34505">
        <ele>387</ele>
        <time>2021-10-02T11:48:31.573Z</time>
      </trkpt>
      <trkpt lat="45.60335" lon="5.34498">
        <ele>387</ele>
        <time>2021-10-02T11:48:30.573Z</time>
      </trkpt>
      <trkpt lat="45.60337" lon="5.34491">
        <ele>388</ele>
        <time>2021-10-02T11:48:29.573Z</time>
      </trkpt>
      <trkpt lat="45.60339" lon="5.34484">
        <ele>388</ele>
        <time>2021-10-02T11:48:28.572Z</time>
      </trkpt>
      <trkpt lat="45.60341" lon="5.34476">
        <ele>388</ele>
        <time>2021-10-02T11:48:27.572Z</time>
      </trkpt>
      <trkpt lat="45.60344" lon="5.34469">
        <ele>388</ele>
        <time>2021-10-02T11:48:26.573Z</time>
      </trkpt>
      <trkpt lat="45.60346" lon="5.34461">
        <ele>387</ele>
        <time>2021-10-02T11:48:25.573Z</time>
      </trkpt>
      <trkpt lat="45.60349" lon="5.34454">
        <ele>387</ele>
        <time>2021-10-02T11:48:24.573Z</time>
      </trkpt>
      <trkpt lat="45.60351" lon="5.34446">
        <ele>386</ele>
        <time>2021-10-02T11:48:23.573Z</time>
      </trkpt>
      <trkpt lat="45.60354" lon="5.34438">
        <ele>386</ele>
        <time>2021-10-02T11:48:22.573Z</time>
      </trkpt>
      <trkpt lat="45.60356" lon="5.34431">
        <ele>386</ele>
        <time>2021-10-02T11:48:21.573Z</time>
      </trkpt>
      <trkpt lat="45.60359" lon="5.34423">
        <ele>386</ele>
        <time>2021-10-02T11:48:20.573Z</time>
      </trkpt>
      <trkpt lat="45.60362" lon="5.34415">
        <ele>387</ele>
        <time>2021-10-02T11:48:19.573Z</time>
      </trkpt>
      <trkpt lat="45.60364" lon="5.34407">
        <ele>388</ele>
        <time>2021-10-02T11:48:18.572Z</time>
      </trkpt>
      <trkpt lat="45.60366" lon="5.344">
        <ele>388</ele>
        <time>2021-10-02T11:48:17.572Z</time>
      </trkpt>
      <trkpt lat="45.60369" lon="5.34392">
        <ele>388</ele>
        <time>2021-10-02T11:48:16.573Z</time>
      </trkpt>
      <trkpt lat="45.60371" lon="5.34385">
        <ele>388</ele>
        <time>2021-10-02T11:48:15.573Z</time>
      </trkpt>
      <trkpt lat="45.60373" lon="5.34378">
        <ele>388</ele>
        <time>2021-10-02T11:48:14.573Z</time>
      </trkpt>
      <trkpt lat="45.60375" lon="5.3437">
        <ele>388</ele>
        <time>2021-10-02T11:48:13.573Z</time>
      </trkpt>
      <trkpt lat="45.60377" lon="5.34363">
        <ele>388</ele>
        <time>2021-10-02T11:48:12.573Z</time>
      </trkpt>
      <trkpt lat="45.6038" lon="5.34356">
        <ele>388</ele>
        <time>2021-10-02T11:48:11.573Z</time>
      </trkpt>
      <trkpt lat="45.60381" lon="5.34349">
        <ele>388</ele>
        <time>2021-10-02T11:48:10.573Z</time>
      </trkpt>
      <trkpt lat="45.60383" lon="5.34341">
        <ele>388</ele>
        <time>2021-10-02T11:48:09.573Z</time>
      </trkpt>
      <trkpt lat="45.60385" lon="5.34334">
        <ele>388</ele>
        <time>2021-10-02T11:48:08.573Z</time>
      </trkpt>
      <trkpt lat="45.60387" lon="5.34326">
        <ele>388</ele>
        <time>2021-10-02T11:48:07.572Z</time>
      </trkpt>
      <trkpt lat="45.60389" lon="5.34319">
        <ele>388</ele>
        <time>2021-10-02T11:48:06.573Z</time>
      </trkpt>
      <trkpt lat="45.60391" lon="5.34312">
        <ele>388</ele>
        <time>2021-10-02T11:48:05.573Z</time>
      </trkpt>
      <trkpt lat="45.60393" lon="5.34306">
        <ele>388</ele>
        <time>2021-10-02T11:48:04.572Z</time>
      </trkpt>
      <trkpt lat="45.60395" lon="5.34298">
        <ele>388</ele>
        <time>2021-10-02T11:48:03.573Z</time>
      </trkpt>
      <trkpt lat="45.60397" lon="5.3429">
        <ele>388</ele>
        <time>2021-10-02T11:48:02.573Z</time>
      </trkpt>
      <trkpt lat="45.60399" lon="5.34282">
        <ele>388</ele>
        <time>2021-10-02T11:48:01.572Z</time>
      </trkpt>
      <trkpt lat="45.60401" lon="5.34275">
        <ele>388</ele>
        <time>2021-10-02T11:48:00.572Z</time>
      </trkpt>
      <trkpt lat="45.60403" lon="5.34267">
        <ele>388</ele>
        <time>2021-10-02T11:47:59.572Z</time>
      </trkpt>
      <trkpt lat="45.60405" lon="5.34259">
        <ele>388</ele>
        <time>2021-10-02T11:47:58.573Z</time>
      </trkpt>
      <trkpt lat="45.60407" lon="5.34252">
        <ele>387</ele>
        <time>2021-10-02T11:47:57.573Z</time>
      </trkpt>
      <trkpt lat="45.60409" lon="5.34244">
        <ele>387</ele>
        <time>2021-10-02T11:47:56.573Z</time>
      </trkpt>
      <trkpt lat="45.60411" lon="5.34237">
        <ele>387</ele>
        <time>2021-10-02T11:47:55.573Z</time>
      </trkpt>
      <trkpt lat="45.60412" lon="5.34229">
        <ele>387</ele>
        <time>2021-10-02T11:47:54.573Z</time>
      </trkpt>
      <trkpt lat="45.60414" lon="5.34222">
        <ele>387</ele>
        <time>2021-10-02T11:47:53.573Z</time>
      </trkpt>
      <trkpt lat="45.60415" lon="5.34215">
        <ele>387</ele>
        <time>2021-10-02T11:47:52.572Z</time>
      </trkpt>
      <trkpt lat="45.60417" lon="5.34208">
        <ele>387</ele>
        <time>2021-10-02T11:47:51.573Z</time>
      </trkpt>
      <trkpt lat="45.60419" lon="5.34201">
        <ele>387</ele>
        <time>2021-10-02T11:47:50.572Z</time>
      </trkpt>
      <trkpt lat="45.60421" lon="5.34193">
        <ele>387</ele>
        <time>2021-10-02T11:47:49.573Z</time>
      </trkpt>
      <trkpt lat="45.60423" lon="5.34186">
        <ele>387</ele>
        <time>2021-10-02T11:47:48.573Z</time>
      </trkpt>
      <trkpt lat="45.60425" lon="5.34179">
        <ele>387</ele>
        <time>2021-10-02T11:47:47.573Z</time>
      </trkpt>
      <trkpt lat="45.60427" lon="5.34172">
        <ele>387</ele>
        <time>2021-10-02T11:47:46.573Z</time>
      </trkpt>
      <trkpt lat="45.60428" lon="5.34165">
        <ele>387</ele>
        <time>2021-10-02T11:47:45.573Z</time>
      </trkpt>
      <trkpt lat="45.60431" lon="5.34158">
        <ele>387</ele>
        <time>2021-10-02T11:47:44.573Z</time>
      </trkpt>
      <trkpt lat="45.60433" lon="5.3415">
        <ele>387</ele>
        <time>2021-10-02T11:47:43.573Z</time>
      </trkpt>
      <trkpt lat="45.60435" lon="5.34143">
        <ele>387</ele>
        <time>2021-10-02T11:47:42.573Z</time>
      </trkpt>
      <trkpt lat="45.60437" lon="5.34136">
        <ele>387</ele>
        <time>2021-10-02T11:47:41.573Z</time>
      </trkpt>
      <trkpt lat="45.60439" lon="5.34128">
        <ele>387</ele>
        <time>2021-10-02T11:47:40.573Z</time>
      </trkpt>
      <trkpt lat="45.6044" lon="5.34121">
        <ele>388</ele>
        <time>2021-10-02T11:47:39.572Z</time>
      </trkpt>
      <trkpt lat="45.60442" lon="5.34114">
        <ele>387</ele>
        <time>2021-10-02T11:47:38.573Z</time>
      </trkpt>
      <trkpt lat="45.60444" lon="5.34107">
        <ele>387</ele>
        <time>2021-10-02T11:47:37.573Z</time>
      </trkpt>
      <trkpt lat="45.60445" lon="5.341">
        <ele>387</ele>
        <time>2021-10-02T11:47:36.573Z</time>
      </trkpt>
      <trkpt lat="45.60446" lon="5.34093">
        <ele>387</ele>
        <time>2021-10-02T11:47:35.572Z</time>
      </trkpt>
      <trkpt lat="45.60447" lon="5.34086">
        <ele>386</ele>
        <time>2021-10-02T11:47:34.573Z</time>
      </trkpt>
      <trkpt lat="45.60449" lon="5.34079">
        <ele>386</ele>
        <time>2021-10-02T11:47:33.572Z</time>
      </trkpt>
      <trkpt lat="45.6045" lon="5.34073">
        <ele>385</ele>
        <time>2021-10-02T11:47:32.572Z</time>
      </trkpt>
      <trkpt lat="45.60452" lon="5.34066">
        <ele>385</ele>
        <time>2021-10-02T11:47:31.573Z</time>
      </trkpt>
      <trkpt lat="45.60454" lon="5.3406">
        <ele>385</ele>
        <time>2021-10-02T11:47:30.573Z</time>
      </trkpt>
      <trkpt lat="45.60455" lon="5.34053">
        <ele>385</ele>
        <time>2021-10-02T11:47:29.572Z</time>
      </trkpt>
      <trkpt lat="45.60457" lon="5.34047">
        <ele>385</ele>
        <time>2021-10-02T11:47:28.572Z</time>
      </trkpt>
      <trkpt lat="45.60459" lon="5.34041">
        <ele>385</ele>
        <time>2021-10-02T11:47:27.573Z</time>
      </trkpt>
      <trkpt lat="45.60461" lon="5.34035">
        <ele>385</ele>
        <time>2021-10-02T11:47:26.572Z</time>
      </trkpt>
      <trkpt lat="45.60463" lon="5.34029">
        <ele>384</ele>
        <time>2021-10-02T11:47:25.573Z</time>
      </trkpt>
      <trkpt lat="45.60464" lon="5.34023">
        <ele>384</ele>
        <time>2021-10-02T11:47:24.572Z</time>
      </trkpt>
      <trkpt lat="45.60466" lon="5.34018">
        <ele>384</ele>
        <time>2021-10-02T11:47:23.572Z</time>
      </trkpt>
      <trkpt lat="45.60468" lon="5.34012">
        <ele>384</ele>
        <time>2021-10-02T11:47:22.572Z</time>
      </trkpt>
      <trkpt lat="45.6047" lon="5.34006">
        <ele>384</ele>
        <time>2021-10-02T11:47:21.572Z</time>
      </trkpt>
      <trkpt lat="45.60472" lon="5.34">
        <ele>383</ele>
        <time>2021-10-02T11:47:20.572Z</time>
      </trkpt>
      <trkpt lat="45.60474" lon="5.33993">
        <ele>383</ele>
        <time>2021-10-02T11:47:19.573Z</time>
      </trkpt>
      <trkpt lat="45.60477" lon="5.33987">
        <ele>383</ele>
        <time>2021-10-02T11:47:18.572Z</time>
      </trkpt>
      <trkpt lat="45.60479" lon="5.33981">
        <ele>383</ele>
        <time>2021-10-02T11:47:17.573Z</time>
      </trkpt>
      <trkpt lat="45.60481" lon="5.33975">
        <ele>383</ele>
        <time>2021-10-02T11:47:16.572Z</time>
      </trkpt>
      <trkpt lat="45.60483" lon="5.33968">
        <ele>383</ele>
        <time>2021-10-02T11:47:15.572Z</time>
      </trkpt>
      <trkpt lat="45.60485" lon="5.33962">
        <ele>383</ele>
        <time>2021-10-02T11:47:14.572Z</time>
      </trkpt>
      <trkpt lat="45.60488" lon="5.33955">
        <ele>382</ele>
        <time>2021-10-02T11:47:13.572Z</time>
      </trkpt>
      <trkpt lat="45.6049" lon="5.33948">
        <ele>382</ele>
        <time>2021-10-02T11:47:12.572Z</time>
      </trkpt>
      <trkpt lat="45.60492" lon="5.33941">
        <ele>382</ele>
        <time>2021-10-02T11:47:11.573Z</time>
      </trkpt>
      <trkpt lat="45.60494" lon="5.33934">
        <ele>382</ele>
        <time>2021-10-02T11:47:10.573Z</time>
      </trkpt>
      <trkpt lat="45.60495" lon="5.33927">
        <ele>382</ele>
        <time>2021-10-02T11:47:09.573Z</time>
      </trkpt>
      <trkpt lat="45.60497" lon="5.33921">
        <ele>382</ele>
        <time>2021-10-02T11:47:08.573Z</time>
      </trkpt>
      <trkpt lat="45.605" lon="5.33915">
        <ele>382</ele>
        <time>2021-10-02T11:47:07.573Z</time>
      </trkpt>
      <trkpt lat="45.60503" lon="5.3391">
        <ele>382</ele>
        <time>2021-10-02T11:47:06.572Z</time>
      </trkpt>
      <trkpt lat="45.60505" lon="5.33904">
        <ele>381</ele>
        <time>2021-10-02T11:47:05.573Z</time>
      </trkpt>
      <trkpt lat="45.60508" lon="5.33898">
        <ele>381</ele>
        <time>2021-10-02T11:47:04.572Z</time>
      </trkpt>
      <trkpt lat="45.60511" lon="5.33892">
        <ele>381</ele>
        <time>2021-10-02T11:47:03.572Z</time>
      </trkpt>
      <trkpt lat="45.60513" lon="5.33887">
        <ele>381</ele>
        <time>2021-10-02T11:47:02.572Z</time>
      </trkpt>
      <trkpt lat="45.60516" lon="5.3388">
        <ele>381</ele>
        <time>2021-10-02T11:47:01.573Z</time>
      </trkpt>
      <trkpt lat="45.60518" lon="5.33873">
        <ele>380</ele>
        <time>2021-10-02T11:47:00.572Z</time>
      </trkpt>
      <trkpt lat="45.6052" lon="5.33867">
        <ele>380</ele>
        <time>2021-10-02T11:46:59.573Z</time>
      </trkpt>
      <trkpt lat="45.60522" lon="5.3386">
        <ele>379</ele>
        <time>2021-10-02T11:46:58.573Z</time>
      </trkpt>
      <trkpt lat="45.60523" lon="5.33853">
        <ele>379</ele>
        <time>2021-10-02T11:46:57.573Z</time>
      </trkpt>
      <trkpt lat="45.60524" lon="5.33846">
        <ele>379</ele>
        <time>2021-10-02T11:46:56.573Z</time>
      </trkpt>
      <trkpt lat="45.60525" lon="5.33839">
        <ele>378</ele>
        <time>2021-10-02T11:46:55.572Z</time>
      </trkpt>
      <trkpt lat="45.60525" lon="5.33832">
        <ele>378</ele>
        <time>2021-10-02T11:46:54.573Z</time>
      </trkpt>
      <trkpt lat="45.60526" lon="5.33825">
        <ele>378</ele>
        <time>2021-10-02T11:46:53.573Z</time>
      </trkpt>
      <trkpt lat="45.60527" lon="5.33817">
        <ele>378</ele>
        <time>2021-10-02T11:46:52.573Z</time>
      </trkpt>
      <trkpt lat="45.60528" lon="5.3381">
        <ele>378</ele>
        <time>2021-10-02T11:46:51.573Z</time>
      </trkpt>
      <trkpt lat="45.60529" lon="5.33802">
        <ele>378</ele>
        <time>2021-10-02T11:46:50.573Z</time>
      </trkpt>
      <trkpt lat="45.60529" lon="5.33795">
        <ele>378</ele>
        <time>2021-10-02T11:46:49.573Z</time>
      </trkpt>
      <trkpt lat="45.6053" lon="5.33787">
        <ele>378</ele>
        <time>2021-10-02T11:46:48.573Z</time>
      </trkpt>
      <trkpt lat="45.60531" lon="5.3378">
        <ele>377</ele>
        <time>2021-10-02T11:46:47.573Z</time>
      </trkpt>
      <trkpt lat="45.60532" lon="5.33773">
        <ele>377</ele>
        <time>2021-10-02T11:46:46.573Z</time>
      </trkpt>
      <trkpt lat="45.60533" lon="5.33766">
        <ele>377</ele>
        <time>2021-10-02T11:46:45.573Z</time>
      </trkpt>
      <trkpt lat="45.60534" lon="5.33759">
        <ele>377</ele>
        <time>2021-10-02T11:46:44.573Z</time>
      </trkpt>
      <trkpt lat="45.60535" lon="5.33752">
        <ele>377</ele>
        <time>2021-10-02T11:46:43.573Z</time>
      </trkpt>
      <trkpt lat="45.60537" lon="5.33746">
        <ele>377</ele>
        <time>2021-10-02T11:46:42.573Z</time>
      </trkpt>
      <trkpt lat="45.60539" lon="5.33738">
        <ele>377</ele>
        <time>2021-10-02T11:46:41.572Z</time>
      </trkpt>
      <trkpt lat="45.60541" lon="5.33731">
        <ele>377</ele>
        <time>2021-10-02T11:46:40.572Z</time>
      </trkpt>
      <trkpt lat="45.60543" lon="5.33723">
        <ele>377</ele>
        <time>2021-10-02T11:46:39.572Z</time>
      </trkpt>
      <trkpt lat="45.60545" lon="5.33715">
        <ele>377</ele>
        <time>2021-10-02T11:46:38.572Z</time>
      </trkpt>
      <trkpt lat="45.60547" lon="5.33707">
        <ele>377</ele>
        <time>2021-10-02T11:46:37.573Z</time>
      </trkpt>
      <trkpt lat="45.60549" lon="5.33699">
        <ele>377</ele>
        <time>2021-10-02T11:46:36.573Z</time>
      </trkpt>
      <trkpt lat="45.60552" lon="5.3369">
        <ele>377</ele>
        <time>2021-10-02T11:46:35.573Z</time>
      </trkpt>
      <trkpt lat="45.60554" lon="5.33681">
        <ele>377</ele>
        <time>2021-10-02T11:46:34.572Z</time>
      </trkpt>
      <trkpt lat="45.60557" lon="5.33672">
        <ele>377</ele>
        <time>2021-10-02T11:46:33.573Z</time>
      </trkpt>
      <trkpt lat="45.60559" lon="5.33663">
        <ele>377</ele>
        <time>2021-10-02T11:46:32.573Z</time>
      </trkpt>
      <trkpt lat="45.60561" lon="5.33654">
        <ele>378</ele>
        <time>2021-10-02T11:46:31.573Z</time>
      </trkpt>
      <trkpt lat="45.60564" lon="5.33645">
        <ele>378</ele>
        <time>2021-10-02T11:46:30.573Z</time>
      </trkpt>
      <trkpt lat="45.60566" lon="5.33636">
        <ele>378</ele>
        <time>2021-10-02T11:46:29.573Z</time>
      </trkpt>
      <trkpt lat="45.60568" lon="5.33628">
        <ele>378</ele>
        <time>2021-10-02T11:46:28.573Z</time>
      </trkpt>
      <trkpt lat="45.60571" lon="5.33619">
        <ele>378</ele>
        <time>2021-10-02T11:46:27.573Z</time>
      </trkpt>
      <trkpt lat="45.60573" lon="5.33611">
        <ele>378</ele>
        <time>2021-10-02T11:46:26.573Z</time>
      </trkpt>
      <trkpt lat="45.60576" lon="5.33604">
        <ele>378</ele>
        <time>2021-10-02T11:46:25.572Z</time>
      </trkpt>
      <trkpt lat="45.60579" lon="5.33596">
        <ele>378</ele>
        <time>2021-10-02T11:46:24.572Z</time>
      </trkpt>
      <trkpt lat="45.60581" lon="5.33589">
        <ele>379</ele>
        <time>2021-10-02T11:46:23.573Z</time>
      </trkpt>
      <trkpt lat="45.60584" lon="5.33581">
        <ele>379</ele>
        <time>2021-10-02T11:46:22.573Z</time>
      </trkpt>
      <trkpt lat="45.60587" lon="5.33574">
        <ele>379</ele>
        <time>2021-10-02T11:46:21.573Z</time>
      </trkpt>
      <trkpt lat="45.60591" lon="5.33568">
        <ele>379</ele>
        <time>2021-10-02T11:46:20.573Z</time>
      </trkpt>
      <trkpt lat="45.60594" lon="5.33562">
        <ele>380</ele>
        <time>2021-10-02T11:46:19.572Z</time>
      </trkpt>
      <trkpt lat="45.60598" lon="5.33556">
        <ele>380</ele>
        <time>2021-10-02T11:46:18.573Z</time>
      </trkpt>
      <trkpt lat="45.60602" lon="5.33551">
        <ele>380</ele>
        <time>2021-10-02T11:46:17.572Z</time>
      </trkpt>
      <trkpt lat="45.60605" lon="5.33546">
        <ele>380</ele>
        <time>2021-10-02T11:46:16.573Z</time>
      </trkpt>
      <trkpt lat="45.60609" lon="5.33542">
        <ele>379</ele>
        <time>2021-10-02T11:46:15.573Z</time>
      </trkpt>
      <trkpt lat="45.60612" lon="5.33538">
        <ele>379</ele>
        <time>2021-10-02T11:46:14.572Z</time>
      </trkpt>
      <trkpt lat="45.60616" lon="5.33534">
        <ele>379</ele>
        <time>2021-10-02T11:46:13.572Z</time>
      </trkpt>
      <trkpt lat="45.60619" lon="5.3353">
        <ele>379</ele>
        <time>2021-10-02T11:46:12.572Z</time>
      </trkpt>
      <trkpt lat="45.60622" lon="5.33526">
        <ele>380</ele>
        <time>2021-10-02T11:46:11.573Z</time>
      </trkpt>
      <trkpt lat="45.60625" lon="5.33523">
        <ele>380</ele>
        <time>2021-10-02T11:46:10.572Z</time>
      </trkpt>
      <trkpt lat="45.60628" lon="5.33519">
        <ele>380</ele>
        <time>2021-10-02T11:46:09.572Z</time>
      </trkpt>
      <trkpt lat="45.60631" lon="5.33515">
        <ele>380</ele>
        <time>2021-10-02T11:46:08.572Z</time>
      </trkpt>
      <trkpt lat="45.60635" lon="5.3351">
        <ele>380</ele>
        <time>2021-10-02T11:46:07.573Z</time>
      </trkpt>
      <trkpt lat="45.60637" lon="5.33506">
        <ele>380</ele>
        <time>2021-10-02T11:46:06.573Z</time>
      </trkpt>
      <trkpt lat="45.6064" lon="5.33502">
        <ele>380</ele>
        <time>2021-10-02T11:46:05.573Z</time>
      </trkpt>
      <trkpt lat="45.60644" lon="5.33498">
        <ele>380</ele>
        <time>2021-10-02T11:46:04.573Z</time>
      </trkpt>
      <trkpt lat="45.60647" lon="5.33494">
        <ele>380</ele>
        <time>2021-10-02T11:46:03.573Z</time>
      </trkpt>
      <trkpt lat="45.60651" lon="5.33491">
        <ele>380</ele>
        <time>2021-10-02T11:46:02.572Z</time>
      </trkpt>
      <trkpt lat="45.60654" lon="5.33487">
        <ele>379</ele>
        <time>2021-10-02T11:46:01.573Z</time>
      </trkpt>
      <trkpt lat="45.60657" lon="5.33484">
        <ele>379</ele>
        <time>2021-10-02T11:46:00.572Z</time>
      </trkpt>
      <trkpt lat="45.60661" lon="5.33481">
        <ele>379</ele>
        <time>2021-10-02T11:45:59.573Z</time>
      </trkpt>
      <trkpt lat="45.60665" lon="5.33478">
        <ele>379</ele>
        <time>2021-10-02T11:45:58.573Z</time>
      </trkpt>
      <trkpt lat="45.60668" lon="5.33476">
        <ele>380</ele>
        <time>2021-10-02T11:45:57.573Z</time>
      </trkpt>
      <trkpt lat="45.60672" lon="5.33474">
        <ele>380</ele>
        <time>2021-10-02T11:45:56.573Z</time>
      </trkpt>
      <trkpt lat="45.60675" lon="5.33471">
        <ele>379</ele>
        <time>2021-10-02T11:45:55.572Z</time>
      </trkpt>
      <trkpt lat="45.60679" lon="5.33469">
        <ele>379</ele>
        <time>2021-10-02T11:45:54.572Z</time>
      </trkpt>
      <trkpt lat="45.60683" lon="5.33467">
        <ele>380</ele>
        <time>2021-10-02T11:45:53.572Z</time>
      </trkpt>
      <trkpt lat="45.60686" lon="5.33465">
        <ele>380</ele>
        <time>2021-10-02T11:45:52.573Z</time>
      </trkpt>
      <trkpt lat="45.6069" lon="5.33463">
        <ele>380</ele>
        <time>2021-10-02T11:45:51.573Z</time>
      </trkpt>
      <trkpt lat="45.60693" lon="5.33461">
        <ele>380</ele>
        <time>2021-10-02T11:45:50.572Z</time>
      </trkpt>
      <trkpt lat="45.60696" lon="5.33459">
        <ele>379</ele>
        <time>2021-10-02T11:45:49.573Z</time>
      </trkpt>
      <trkpt lat="45.607" lon="5.33457">
        <ele>379</ele>
        <time>2021-10-02T11:45:48.573Z</time>
      </trkpt>
      <trkpt lat="45.60704" lon="5.33454">
        <ele>379</ele>
        <time>2021-10-02T11:45:47.572Z</time>
      </trkpt>
      <trkpt lat="45.60707" lon="5.33452">
        <ele>378</ele>
        <time>2021-10-02T11:45:46.572Z</time>
      </trkpt>
      <trkpt lat="45.60711" lon="5.3345">
        <ele>378</ele>
        <time>2021-10-02T11:45:45.572Z</time>
      </trkpt>
      <trkpt lat="45.60715" lon="5.33448">
        <ele>377</ele>
        <time>2021-10-02T11:45:44.572Z</time>
      </trkpt>
      <trkpt lat="45.60719" lon="5.33445">
        <ele>377</ele>
        <time>2021-10-02T11:45:43.572Z</time>
      </trkpt>
      <trkpt lat="45.60723" lon="5.33443">
        <ele>376</ele>
        <time>2021-10-02T11:45:42.572Z</time>
      </trkpt>
      <trkpt lat="45.60726" lon="5.3344">
        <ele>376</ele>
        <time>2021-10-02T11:45:41.572Z</time>
      </trkpt>
      <trkpt lat="45.6073" lon="5.33438">
        <ele>376</ele>
        <time>2021-10-02T11:45:40.572Z</time>
      </trkpt>
      <trkpt lat="45.60734" lon="5.33436">
        <ele>375</ele>
        <time>2021-10-02T11:45:39.572Z</time>
      </trkpt>
      <trkpt lat="45.60737" lon="5.33433">
        <ele>375</ele>
        <time>2021-10-02T11:45:38.573Z</time>
      </trkpt>
      <trkpt lat="45.60741" lon="5.33431">
        <ele>375</ele>
        <time>2021-10-02T11:45:37.572Z</time>
      </trkpt>
      <trkpt lat="45.60745" lon="5.33429">
        <ele>375</ele>
        <time>2021-10-02T11:45:36.573Z</time>
      </trkpt>
      <trkpt lat="45.60748" lon="5.33426">
        <ele>374</ele>
        <time>2021-10-02T11:45:35.573Z</time>
      </trkpt>
      <trkpt lat="45.60752" lon="5.33424">
        <ele>374</ele>
        <time>2021-10-02T11:45:34.573Z</time>
      </trkpt>
      <trkpt lat="45.60755" lon="5.33422">
        <ele>374</ele>
        <time>2021-10-02T11:45:33.573Z</time>
      </trkpt>
      <trkpt lat="45.60758" lon="5.3342">
        <ele>374</ele>
        <time>2021-10-02T11:45:32.573Z</time>
      </trkpt>
      <trkpt lat="45.60762" lon="5.33417">
        <ele>374</ele>
        <time>2021-10-02T11:45:31.573Z</time>
      </trkpt>
      <trkpt lat="45.60766" lon="5.33415">
        <ele>374</ele>
        <time>2021-10-02T11:45:30.572Z</time>
      </trkpt>
      <trkpt lat="45.60769" lon="5.33413">
        <ele>373</ele>
        <time>2021-10-02T11:45:29.573Z</time>
      </trkpt>
      <trkpt lat="45.60773" lon="5.33411">
        <ele>373</ele>
        <time>2021-10-02T11:45:28.573Z</time>
      </trkpt>
      <trkpt lat="45.60776" lon="5.33409">
        <ele>374</ele>
        <time>2021-10-02T11:45:27.573Z</time>
      </trkpt>
      <trkpt lat="45.6078" lon="5.33406">
        <ele>374</ele>
        <time>2021-10-02T11:45:26.572Z</time>
      </trkpt>
      <trkpt lat="45.60783" lon="5.33404">
        <ele>374</ele>
        <time>2021-10-02T11:45:25.573Z</time>
      </trkpt>
      <trkpt lat="45.60787" lon="5.33402">
        <ele>374</ele>
        <time>2021-10-02T11:45:24.572Z</time>
      </trkpt>
      <trkpt lat="45.60791" lon="5.33399">
        <ele>374</ele>
        <time>2021-10-02T11:45:23.572Z</time>
      </trkpt>
      <trkpt lat="45.60794" lon="5.33398">
        <ele>374</ele>
        <time>2021-10-02T11:45:22.573Z</time>
      </trkpt>
      <trkpt lat="45.60798" lon="5.33395">
        <ele>373</ele>
        <time>2021-10-02T11:45:21.573Z</time>
      </trkpt>
      <trkpt lat="45.60801" lon="5.33394">
        <ele>372</ele>
        <time>2021-10-02T11:45:20.573Z</time>
      </trkpt>
      <trkpt lat="45.60805" lon="5.33392">
        <ele>372</ele>
        <time>2021-10-02T11:45:19.572Z</time>
      </trkpt>
      <trkpt lat="45.60809" lon="5.3339">
        <ele>371</ele>
        <time>2021-10-02T11:45:18.573Z</time>
      </trkpt>
      <trkpt lat="45.60812" lon="5.33388">
        <ele>371</ele>
        <time>2021-10-02T11:45:17.573Z</time>
      </trkpt>
      <trkpt lat="45.60815" lon="5.33387">
        <ele>372</ele>
        <time>2021-10-02T11:45:16.573Z</time>
      </trkpt>
      <trkpt lat="45.60819" lon="5.33385">
        <ele>372</ele>
        <time>2021-10-02T11:45:15.572Z</time>
      </trkpt>
      <trkpt lat="45.60822" lon="5.33383">
        <ele>372</ele>
        <time>2021-10-02T11:45:14.573Z</time>
      </trkpt>
      <trkpt lat="45.60826" lon="5.33381">
        <ele>372</ele>
        <time>2021-10-02T11:45:13.573Z</time>
      </trkpt>
      <trkpt lat="45.6083" lon="5.33379">
        <ele>372</ele>
        <time>2021-10-02T11:45:12.573Z</time>
      </trkpt>
      <trkpt lat="45.60834" lon="5.33376">
        <ele>372</ele>
        <time>2021-10-02T11:45:11.573Z</time>
      </trkpt>
      <trkpt lat="45.60837" lon="5.33374">
        <ele>372</ele>
        <time>2021-10-02T11:45:10.573Z</time>
      </trkpt>
      <trkpt lat="45.60841" lon="5.33372">
        <ele>372</ele>
        <time>2021-10-02T11:45:09.573Z</time>
      </trkpt>
      <trkpt lat="45.60845" lon="5.33369">
        <ele>371</ele>
        <time>2021-10-02T11:45:08.572Z</time>
      </trkpt>
      <trkpt lat="45.60848" lon="5.33366">
        <ele>371</ele>
        <time>2021-10-02T11:45:07.573Z</time>
      </trkpt>
      <trkpt lat="45.60852" lon="5.33363">
        <ele>371</ele>
        <time>2021-10-02T11:45:06.572Z</time>
      </trkpt>
      <trkpt lat="45.60855" lon="5.33359">
        <ele>372</ele>
        <time>2021-10-02T11:45:05.573Z</time>
      </trkpt>
      <trkpt lat="45.60859" lon="5.33355">
        <ele>372</ele>
        <time>2021-10-02T11:45:04.573Z</time>
      </trkpt>
      <trkpt lat="45.60862" lon="5.33351">
        <ele>372</ele>
        <time>2021-10-02T11:45:03.573Z</time>
      </trkpt>
      <trkpt lat="45.60865" lon="5.33347">
        <ele>371</ele>
        <time>2021-10-02T11:45:02.573Z</time>
      </trkpt>
      <trkpt lat="45.60868" lon="5.33343">
        <ele>370</ele>
        <time>2021-10-02T11:45:01.573Z</time>
      </trkpt>
      <trkpt lat="45.60871" lon="5.33338">
        <ele>370</ele>
        <time>2021-10-02T11:45:00.573Z</time>
      </trkpt>
      <trkpt lat="45.60874" lon="5.33334">
        <ele>370</ele>
        <time>2021-10-02T11:44:59.573Z</time>
      </trkpt>
      <trkpt lat="45.60877" lon="5.3333">
        <ele>369</ele>
        <time>2021-10-02T11:44:58.573Z</time>
      </trkpt>
      <trkpt lat="45.6088" lon="5.33326">
        <ele>369</ele>
        <time>2021-10-02T11:44:57.573Z</time>
      </trkpt>
      <trkpt lat="45.60883" lon="5.33322">
        <ele>369</ele>
        <time>2021-10-02T11:44:56.573Z</time>
      </trkpt>
      <trkpt lat="45.60886" lon="5.33318">
        <ele>369</ele>
        <time>2021-10-02T11:44:55.572Z</time>
      </trkpt>
      <trkpt lat="45.60889" lon="5.33314">
        <ele>369</ele>
        <time>2021-10-02T11:44:54.573Z</time>
      </trkpt>
      <trkpt lat="45.60892" lon="5.3331">
        <ele>369</ele>
        <time>2021-10-02T11:44:53.573Z</time>
      </trkpt>
      <trkpt lat="45.60895" lon="5.33307">
        <ele>368</ele>
        <time>2021-10-02T11:44:52.572Z</time>
      </trkpt>
      <trkpt lat="45.60898" lon="5.33303">
        <ele>368</ele>
        <time>2021-10-02T11:44:51.572Z</time>
      </trkpt>
      <trkpt lat="45.60901" lon="5.333">
        <ele>368</ele>
        <time>2021-10-02T11:44:50.572Z</time>
      </trkpt>
      <trkpt lat="45.60904" lon="5.33297">
        <ele>368</ele>
        <time>2021-10-02T11:44:49.573Z</time>
      </trkpt>
      <trkpt lat="45.60907" lon="5.33294">
        <ele>368</ele>
        <time>2021-10-02T11:44:48.573Z</time>
      </trkpt>
      <trkpt lat="45.60911" lon="5.33291">
        <ele>368</ele>
        <time>2021-10-02T11:44:47.572Z</time>
      </trkpt>
      <trkpt lat="45.60914" lon="5.33289">
        <ele>367</ele>
        <time>2021-10-02T11:44:46.573Z</time>
      </trkpt>
      <trkpt lat="45.60918" lon="5.33286">
        <ele>367</ele>
        <time>2021-10-02T11:44:45.573Z</time>
      </trkpt>
      <trkpt lat="45.60922" lon="5.33284">
        <ele>367</ele>
        <time>2021-10-02T11:44:44.572Z</time>
      </trkpt>
      <trkpt lat="45.60926" lon="5.33282">
        <ele>366</ele>
        <time>2021-10-02T11:44:43.572Z</time>
      </trkpt>
      <trkpt lat="45.6093" lon="5.33279">
        <ele>366</ele>
        <time>2021-10-02T11:44:42.573Z</time>
      </trkpt>
      <trkpt lat="45.60935" lon="5.33277">
        <ele>366</ele>
        <time>2021-10-02T11:44:41.572Z</time>
      </trkpt>
      <trkpt lat="45.60939" lon="5.33275">
        <ele>366</ele>
        <time>2021-10-02T11:44:40.572Z</time>
      </trkpt>
      <trkpt lat="45.60943" lon="5.33274">
        <ele>366</ele>
        <time>2021-10-02T11:44:39.573Z</time>
      </trkpt>
      <trkpt lat="45.60948" lon="5.33272">
        <ele>366</ele>
        <time>2021-10-02T11:44:38.573Z</time>
      </trkpt>
      <trkpt lat="45.60953" lon="5.33269">
        <ele>366</ele>
        <time>2021-10-02T11:44:37.572Z</time>
      </trkpt>
      <trkpt lat="45.60958" lon="5.33267">
        <ele>366</ele>
        <time>2021-10-02T11:44:36.573Z</time>
      </trkpt>
      <trkpt lat="45.60962" lon="5.33264">
        <ele>366</ele>
        <time>2021-10-02T11:44:35.573Z</time>
      </trkpt>
      <trkpt lat="45.60967" lon="5.33262">
        <ele>366</ele>
        <time>2021-10-02T11:44:34.572Z</time>
      </trkpt>
      <trkpt lat="45.60971" lon="5.33259">
        <ele>366</ele>
        <time>2021-10-02T11:44:33.573Z</time>
      </trkpt>
      <trkpt lat="45.60975" lon="5.33256">
        <ele>366</ele>
        <time>2021-10-02T11:44:32.572Z</time>
      </trkpt>
      <trkpt lat="45.6098" lon="5.33253">
        <ele>366</ele>
        <time>2021-10-02T11:44:31.573Z</time>
      </trkpt>
      <trkpt lat="45.60984" lon="5.33249">
        <ele>366</ele>
        <time>2021-10-02T11:44:30.572Z</time>
      </trkpt>
      <trkpt lat="45.60988" lon="5.33245">
        <ele>366</ele>
        <time>2021-10-02T11:44:29.572Z</time>
      </trkpt>
      <trkpt lat="45.60992" lon="5.33241">
        <ele>366</ele>
        <time>2021-10-02T11:44:28.572Z</time>
      </trkpt>
      <trkpt lat="45.60995" lon="5.33237">
        <ele>366</ele>
        <time>2021-10-02T11:44:27.572Z</time>
      </trkpt>
      <trkpt lat="45.60999" lon="5.33233">
        <ele>366</ele>
        <time>2021-10-02T11:44:26.573Z</time>
      </trkpt>
      <trkpt lat="45.61002" lon="5.33228">
        <ele>366</ele>
        <time>2021-10-02T11:44:25.572Z</time>
      </trkpt>
      <trkpt lat="45.61006" lon="5.33224">
        <ele>365</ele>
        <time>2021-10-02T11:44:24.572Z</time>
      </trkpt>
      <trkpt lat="45.61009" lon="5.3322">
        <ele>365</ele>
        <time>2021-10-02T11:44:23.573Z</time>
      </trkpt>
      <trkpt lat="45.61012" lon="5.33215">
        <ele>364</ele>
        <time>2021-10-02T11:44:22.573Z</time>
      </trkpt>
      <trkpt lat="45.61016" lon="5.33211">
        <ele>364</ele>
        <time>2021-10-02T11:44:21.572Z</time>
      </trkpt>
      <trkpt lat="45.61019" lon="5.33206">
        <ele>364</ele>
        <time>2021-10-02T11:44:20.573Z</time>
      </trkpt>
      <trkpt lat="45.61023" lon="5.33202">
        <ele>364</ele>
        <time>2021-10-02T11:44:19.573Z</time>
      </trkpt>
      <trkpt lat="45.61026" lon="5.33198">
        <ele>364</ele>
        <time>2021-10-02T11:44:18.573Z</time>
      </trkpt>
      <trkpt lat="45.61029" lon="5.33193">
        <ele>364</ele>
        <time>2021-10-02T11:44:17.572Z</time>
      </trkpt>
      <trkpt lat="45.61032" lon="5.33189">
        <ele>363</ele>
        <time>2021-10-02T11:44:16.573Z</time>
      </trkpt>
      <trkpt lat="45.61035" lon="5.33185">
        <ele>363</ele>
        <time>2021-10-02T11:44:15.572Z</time>
      </trkpt>
      <trkpt lat="45.61038" lon="5.33181">
        <ele>363</ele>
        <time>2021-10-02T11:44:14.572Z</time>
      </trkpt>
      <trkpt lat="45.6104" lon="5.33177">
        <ele>363</ele>
        <time>2021-10-02T11:44:13.573Z</time>
      </trkpt>
      <trkpt lat="45.61043" lon="5.33173">
        <ele>363</ele>
        <time>2021-10-02T11:44:12.573Z</time>
      </trkpt>
      <trkpt lat="45.61046" lon="5.33169">
        <ele>363</ele>
        <time>2021-10-02T11:44:11.573Z</time>
      </trkpt>
      <trkpt lat="45.61049" lon="5.33165">
        <ele>363</ele>
        <time>2021-10-02T11:44:10.572Z</time>
      </trkpt>
      <trkpt lat="45.61052" lon="5.3316">
        <ele>363</ele>
        <time>2021-10-02T11:44:09.573Z</time>
      </trkpt>
      <trkpt lat="45.61055" lon="5.33155">
        <ele>363</ele>
        <time>2021-10-02T11:44:08.572Z</time>
      </trkpt>
      <trkpt lat="45.61058" lon="5.3315">
        <ele>363</ele>
        <time>2021-10-02T11:44:07.573Z</time>
      </trkpt>
      <trkpt lat="45.61061" lon="5.33146">
        <ele>364</ele>
        <time>2021-10-02T11:44:06.572Z</time>
      </trkpt>
      <trkpt lat="45.61064" lon="5.33141">
        <ele>364</ele>
        <time>2021-10-02T11:44:05.572Z</time>
      </trkpt>
      <trkpt lat="45.61067" lon="5.33136">
        <ele>364</ele>
        <time>2021-10-02T11:44:04.573Z</time>
      </trkpt>
      <trkpt lat="45.61071" lon="5.33131">
        <ele>364</ele>
        <time>2021-10-02T11:44:03.573Z</time>
      </trkpt>
      <trkpt lat="45.61074" lon="5.33126">
        <ele>364</ele>
        <time>2021-10-02T11:44:02.573Z</time>
      </trkpt>
      <trkpt lat="45.61077" lon="5.33121">
        <ele>364</ele>
        <time>2021-10-02T11:44:01.573Z</time>
      </trkpt>
      <trkpt lat="45.61081" lon="5.33116">
        <ele>363</ele>
        <time>2021-10-02T11:44:00.572Z</time>
      </trkpt>
      <trkpt lat="45.61084" lon="5.33111">
        <ele>363</ele>
        <time>2021-10-02T11:43:59.573Z</time>
      </trkpt>
      <trkpt lat="45.61087" lon="5.33105">
        <ele>363</ele>
        <time>2021-10-02T11:43:58.573Z</time>
      </trkpt>
      <trkpt lat="45.61091" lon="5.331">
        <ele>363</ele>
        <time>2021-10-02T11:43:57.573Z</time>
      </trkpt>
      <trkpt lat="45.61094" lon="5.33095">
        <ele>364</ele>
        <time>2021-10-02T11:43:56.573Z</time>
      </trkpt>
      <trkpt lat="45.61097" lon="5.33089">
        <ele>364</ele>
        <time>2021-10-02T11:43:55.572Z</time>
      </trkpt>
      <trkpt lat="45.61101" lon="5.33083">
        <ele>364</ele>
        <time>2021-10-02T11:43:54.573Z</time>
      </trkpt>
      <trkpt lat="45.61104" lon="5.33079">
        <ele>363</ele>
        <time>2021-10-02T11:43:53.572Z</time>
      </trkpt>
      <trkpt lat="45.61108" lon="5.33072">
        <ele>363</ele>
        <time>2021-10-02T11:43:52.572Z</time>
      </trkpt>
      <trkpt lat="45.61111" lon="5.33066">
        <ele>363</ele>
        <time>2021-10-02T11:43:51.573Z</time>
      </trkpt>
      <trkpt lat="45.61114" lon="5.3306">
        <ele>362</ele>
        <time>2021-10-02T11:43:50.573Z</time>
      </trkpt>
      <trkpt lat="45.61118" lon="5.33055">
        <ele>362</ele>
        <time>2021-10-02T11:43:49.572Z</time>
      </trkpt>
      <trkpt lat="45.61121" lon="5.33049">
        <ele>362</ele>
        <time>2021-10-02T11:43:48.573Z</time>
      </trkpt>
      <trkpt lat="45.61125" lon="5.33043">
        <ele>362</ele>
        <time>2021-10-02T11:43:47.573Z</time>
      </trkpt>
      <trkpt lat="45.61128" lon="5.33038">
        <ele>362</ele>
        <time>2021-10-02T11:43:46.573Z</time>
      </trkpt>
      <trkpt lat="45.61131" lon="5.33032">
        <ele>362</ele>
        <time>2021-10-02T11:43:45.572Z</time>
      </trkpt>
      <trkpt lat="45.61134" lon="5.33027">
        <ele>362</ele>
        <time>2021-10-02T11:43:44.572Z</time>
      </trkpt>
      <trkpt lat="45.61138" lon="5.33022">
        <ele>362</ele>
        <time>2021-10-02T11:43:43.573Z</time>
      </trkpt>
      <trkpt lat="45.61141" lon="5.33016">
        <ele>361</ele>
        <time>2021-10-02T11:43:42.573Z</time>
      </trkpt>
      <trkpt lat="45.61144" lon="5.33011">
        <ele>361</ele>
        <time>2021-10-02T11:43:41.572Z</time>
      </trkpt>
      <trkpt lat="45.61147" lon="5.33007">
        <ele>361</ele>
        <time>2021-10-02T11:43:40.572Z</time>
      </trkpt>
      <trkpt lat="45.6115" lon="5.33002">
        <ele>361</ele>
        <time>2021-10-02T11:43:39.573Z</time>
      </trkpt>
      <trkpt lat="45.61153" lon="5.32998">
        <ele>361</ele>
        <time>2021-10-02T11:43:38.573Z</time>
      </trkpt>
      <trkpt lat="45.61157" lon="5.32994">
        <ele>361</ele>
        <time>2021-10-02T11:43:37.572Z</time>
      </trkpt>
      <trkpt lat="45.6116" lon="5.32989">
        <ele>361</ele>
        <time>2021-10-02T11:43:36.573Z</time>
      </trkpt>
      <trkpt lat="45.61164" lon="5.32985">
        <ele>360</ele>
        <time>2021-10-02T11:43:35.572Z</time>
      </trkpt>
      <trkpt lat="45.61167" lon="5.32982">
        <ele>360</ele>
        <time>2021-10-02T11:43:34.573Z</time>
      </trkpt>
      <trkpt lat="45.61171" lon="5.32979">
        <ele>360</ele>
        <time>2021-10-02T11:43:33.572Z</time>
      </trkpt>
      <trkpt lat="45.61174" lon="5.32976">
        <ele>360</ele>
        <time>2021-10-02T11:43:32.573Z</time>
      </trkpt>
      <trkpt lat="45.61178" lon="5.32973">
        <ele>359</ele>
        <time>2021-10-02T11:43:31.572Z</time>
      </trkpt>
      <trkpt lat="45.61181" lon="5.32971">
        <ele>359</ele>
        <time>2021-10-02T11:43:30.573Z</time>
      </trkpt>
      <trkpt lat="45.61185" lon="5.32969">
        <ele>359</ele>
        <time>2021-10-02T11:43:29.573Z</time>
      </trkpt>
      <trkpt lat="45.61188" lon="5.32967">
        <ele>359</ele>
        <time>2021-10-02T11:43:28.573Z</time>
      </trkpt>
      <trkpt lat="45.61192" lon="5.32965">
        <ele>359</ele>
        <time>2021-10-02T11:43:27.573Z</time>
      </trkpt>
      <trkpt lat="45.61196" lon="5.32963">
        <ele>359</ele>
        <time>2021-10-02T11:43:26.573Z</time>
      </trkpt>
      <trkpt lat="45.61199" lon="5.32961">
        <ele>358</ele>
        <time>2021-10-02T11:43:25.572Z</time>
      </trkpt>
      <trkpt lat="45.61203" lon="5.32959">
        <ele>358</ele>
        <time>2021-10-02T11:43:24.573Z</time>
      </trkpt>
      <trkpt lat="45.61207" lon="5.32956">
        <ele>358</ele>
        <time>2021-10-02T11:43:23.573Z</time>
      </trkpt>
      <trkpt lat="45.6121" lon="5.32954">
        <ele>358</ele>
        <time>2021-10-02T11:43:22.573Z</time>
      </trkpt>
      <trkpt lat="45.61214" lon="5.32951">
        <ele>358</ele>
        <time>2021-10-02T11:43:21.573Z</time>
      </trkpt>
      <trkpt lat="45.61217" lon="5.32948">
        <ele>359</ele>
        <time>2021-10-02T11:43:20.572Z</time>
      </trkpt>
      <trkpt lat="45.61221" lon="5.32946">
        <ele>359</ele>
        <time>2021-10-02T11:43:19.573Z</time>
      </trkpt>
      <trkpt lat="45.61224" lon="5.32944">
        <ele>359</ele>
        <time>2021-10-02T11:43:18.573Z</time>
      </trkpt>
      <trkpt lat="45.61228" lon="5.32941">
        <ele>358</ele>
        <time>2021-10-02T11:43:17.573Z</time>
      </trkpt>
      <trkpt lat="45.61231" lon="5.32939">
        <ele>358</ele>
        <time>2021-10-02T11:43:16.573Z</time>
      </trkpt>
      <trkpt lat="45.61235" lon="5.32936">
        <ele>358</ele>
        <time>2021-10-02T11:43:15.572Z</time>
      </trkpt>
      <trkpt lat="45.61239" lon="5.32934">
        <ele>358</ele>
        <time>2021-10-02T11:43:14.573Z</time>
      </trkpt>
      <trkpt lat="45.61242" lon="5.32932">
        <ele>358</ele>
        <time>2021-10-02T11:43:13.573Z</time>
      </trkpt>
      <trkpt lat="45.61246" lon="5.32929">
        <ele>358</ele>
        <time>2021-10-02T11:43:12.572Z</time>
      </trkpt>
      <trkpt lat="45.61249" lon="5.32927">
        <ele>358</ele>
        <time>2021-10-02T11:43:11.573Z</time>
      </trkpt>
      <trkpt lat="45.61253" lon="5.32924">
        <ele>359</ele>
        <time>2021-10-02T11:43:10.572Z</time>
      </trkpt>
      <trkpt lat="45.61257" lon="5.32922">
        <ele>359</ele>
        <time>2021-10-02T11:43:09.573Z</time>
      </trkpt>
      <trkpt lat="45.6126" lon="5.32919">
        <ele>359</ele>
        <time>2021-10-02T11:43:08.573Z</time>
      </trkpt>
      <trkpt lat="45.61264" lon="5.32917">
        <ele>358</ele>
        <time>2021-10-02T11:43:07.573Z</time>
      </trkpt>
      <trkpt lat="45.61268" lon="5.32914">
        <ele>358</ele>
        <time>2021-10-02T11:43:06.573Z</time>
      </trkpt>
      <trkpt lat="45.61272" lon="5.32911">
        <ele>358</ele>
        <time>2021-10-02T11:43:05.572Z</time>
      </trkpt>
      <trkpt lat="45.61277" lon="5.32908">
        <ele>358</ele>
        <time>2021-10-02T11:43:04.572Z</time>
      </trkpt>
      <trkpt lat="45.61279" lon="5.32906">
        <ele>358</ele>
        <time>2021-10-02T11:43:03.573Z</time>
      </trkpt>
      <trkpt lat="45.61283" lon="5.32903">
        <ele>358</ele>
        <time>2021-10-02T11:43:02.572Z</time>
      </trkpt>
      <trkpt lat="45.61286" lon="5.329">
        <ele>358</ele>
        <time>2021-10-02T11:43:01.572Z</time>
      </trkpt>
      <trkpt lat="45.6129" lon="5.32897">
        <ele>357</ele>
        <time>2021-10-02T11:43:00.573Z</time>
      </trkpt>
      <trkpt lat="45.61294" lon="5.32894">
        <ele>357</ele>
        <time>2021-10-02T11:42:59.573Z</time>
      </trkpt>
      <trkpt lat="45.61297" lon="5.32891">
        <ele>357</ele>
        <time>2021-10-02T11:42:58.573Z</time>
      </trkpt>
      <trkpt lat="45.61301" lon="5.32888">
        <ele>357</ele>
        <time>2021-10-02T11:42:57.573Z</time>
      </trkpt>
      <trkpt lat="45.61305" lon="5.32885">
        <ele>357</ele>
        <time>2021-10-02T11:42:56.572Z</time>
      </trkpt>
      <trkpt lat="45.61308" lon="5.32882">
        <ele>357</ele>
        <time>2021-10-02T11:42:55.572Z</time>
      </trkpt>
      <trkpt lat="45.61312" lon="5.32879">
        <ele>357</ele>
        <time>2021-10-02T11:42:54.572Z</time>
      </trkpt>
      <trkpt lat="45.61315" lon="5.32876">
        <ele>357</ele>
        <time>2021-10-02T11:42:53.572Z</time>
      </trkpt>
      <trkpt lat="45.61319" lon="5.32874">
        <ele>356</ele>
        <time>2021-10-02T11:42:52.573Z</time>
      </trkpt>
      <trkpt lat="45.61322" lon="5.32871">
        <ele>356</ele>
        <time>2021-10-02T11:42:51.573Z</time>
      </trkpt>
      <trkpt lat="45.61327" lon="5.32868">
        <ele>356</ele>
        <time>2021-10-02T11:42:50.573Z</time>
      </trkpt>
      <trkpt lat="45.61331" lon="5.32867">
        <ele>356</ele>
        <time>2021-10-02T11:42:49.573Z</time>
      </trkpt>
      <trkpt lat="45.61335" lon="5.32864">
        <ele>356</ele>
        <time>2021-10-02T11:42:48.573Z</time>
      </trkpt>
      <trkpt lat="45.61339" lon="5.32862">
        <ele>356</ele>
        <time>2021-10-02T11:42:47.573Z</time>
      </trkpt>
      <trkpt lat="45.61343" lon="5.32861">
        <ele>356</ele>
        <time>2021-10-02T11:42:46.572Z</time>
      </trkpt>
      <trkpt lat="45.61348" lon="5.32859">
        <ele>355</ele>
        <time>2021-10-02T11:42:45.573Z</time>
      </trkpt>
      <trkpt lat="45.61352" lon="5.32857">
        <ele>355</ele>
        <time>2021-10-02T11:42:44.573Z</time>
      </trkpt>
      <trkpt lat="45.61356" lon="5.32856">
        <ele>355</ele>
        <time>2021-10-02T11:42:43.573Z</time>
      </trkpt>
      <trkpt lat="45.61361" lon="5.32854">
        <ele>354</ele>
        <time>2021-10-02T11:42:42.573Z</time>
      </trkpt>
      <trkpt lat="45.61365" lon="5.32852">
        <ele>354</ele>
        <time>2021-10-02T11:42:41.573Z</time>
      </trkpt>
      <trkpt lat="45.61369" lon="5.32851">
        <ele>353</ele>
        <time>2021-10-02T11:42:40.573Z</time>
      </trkpt>
      <trkpt lat="45.61373" lon="5.32849">
        <ele>353</ele>
        <time>2021-10-02T11:42:39.572Z</time>
      </trkpt>
      <trkpt lat="45.61377" lon="5.32847">
        <ele>352</ele>
        <time>2021-10-02T11:42:38.573Z</time>
      </trkpt>
      <trkpt lat="45.61382" lon="5.32845">
        <ele>351</ele>
        <time>2021-10-02T11:42:37.573Z</time>
      </trkpt>
      <trkpt lat="45.61386" lon="5.32843">
        <ele>351</ele>
        <time>2021-10-02T11:42:36.573Z</time>
      </trkpt>
      <trkpt lat="45.6139" lon="5.32841">
        <ele>351</ele>
        <time>2021-10-02T11:42:35.572Z</time>
      </trkpt>
      <trkpt lat="45.61394" lon="5.32839">
        <ele>351</ele>
        <time>2021-10-02T11:42:34.572Z</time>
      </trkpt>
      <trkpt lat="45.61398" lon="5.32836">
        <ele>352</ele>
        <time>2021-10-02T11:42:33.572Z</time>
      </trkpt>
      <trkpt lat="45.61402" lon="5.32834">
        <ele>353</ele>
        <time>2021-10-02T11:42:32.572Z</time>
      </trkpt>
      <trkpt lat="45.61406" lon="5.32831">
        <ele>352</ele>
        <time>2021-10-02T11:42:31.573Z</time>
      </trkpt>
      <trkpt lat="45.61411" lon="5.32828">
        <ele>352</ele>
        <time>2021-10-02T11:42:30.572Z</time>
      </trkpt>
      <trkpt lat="45.61415" lon="5.32825">
        <ele>352</ele>
        <time>2021-10-02T11:42:29.573Z</time>
      </trkpt>
      <trkpt lat="45.61418" lon="5.32821">
        <ele>352</ele>
        <time>2021-10-02T11:42:28.573Z</time>
      </trkpt>
      <trkpt lat="45.61422" lon="5.32818">
        <ele>352</ele>
        <time>2021-10-02T11:42:27.573Z</time>
      </trkpt>
      <trkpt lat="45.61426" lon="5.32814">
        <ele>352</ele>
        <time>2021-10-02T11:42:26.573Z</time>
      </trkpt>
      <trkpt lat="45.6143" lon="5.3281">
        <ele>351</ele>
        <time>2021-10-02T11:42:25.572Z</time>
      </trkpt>
      <trkpt lat="45.61434" lon="5.32806">
        <ele>351</ele>
        <time>2021-10-02T11:42:24.572Z</time>
      </trkpt>
      <trkpt lat="45.61438" lon="5.32802">
        <ele>351</ele>
        <time>2021-10-02T11:42:23.573Z</time>
      </trkpt>
      <trkpt lat="45.61443" lon="5.32797">
        <ele>350</ele>
        <time>2021-10-02T11:42:22.573Z</time>
      </trkpt>
      <trkpt lat="45.61446" lon="5.32793">
        <ele>350</ele>
        <time>2021-10-02T11:42:21.573Z</time>
      </trkpt>
      <trkpt lat="45.6145" lon="5.32788">
        <ele>350</ele>
        <time>2021-10-02T11:42:20.573Z</time>
      </trkpt>
      <trkpt lat="45.61454" lon="5.32783">
        <ele>350</ele>
        <time>2021-10-02T11:42:19.573Z</time>
      </trkpt>
      <trkpt lat="45.61458" lon="5.32779">
        <ele>350</ele>
        <time>2021-10-02T11:42:18.573Z</time>
      </trkpt>
      <trkpt lat="45.61462" lon="5.32774">
        <ele>350</ele>
        <time>2021-10-02T11:42:17.573Z</time>
      </trkpt>
      <trkpt lat="45.61467" lon="5.32769">
        <ele>349</ele>
        <time>2021-10-02T11:42:16.573Z</time>
      </trkpt>
      <trkpt lat="45.61471" lon="5.32764">
        <ele>349</ele>
        <time>2021-10-02T11:42:15.573Z</time>
      </trkpt>
      <trkpt lat="45.61475" lon="5.32759">
        <ele>350</ele>
        <time>2021-10-02T11:42:14.572Z</time>
      </trkpt>
      <trkpt lat="45.61479" lon="5.32755">
        <ele>350</ele>
        <time>2021-10-02T11:42:13.573Z</time>
      </trkpt>
      <trkpt lat="45.61483" lon="5.3275">
        <ele>350</ele>
        <time>2021-10-02T11:42:12.573Z</time>
      </trkpt>
      <trkpt lat="45.61488" lon="5.32745">
        <ele>350</ele>
        <time>2021-10-02T11:42:11.572Z</time>
      </trkpt>
      <trkpt lat="45.61493" lon="5.32741">
        <ele>350</ele>
        <time>2021-10-02T11:42:10.573Z</time>
      </trkpt>
      <trkpt lat="45.61497" lon="5.32737">
        <ele>350</ele>
        <time>2021-10-02T11:42:09.572Z</time>
      </trkpt>
      <trkpt lat="45.61502" lon="5.32733">
        <ele>350</ele>
        <time>2021-10-02T11:42:08.573Z</time>
      </trkpt>
      <trkpt lat="45.61509" lon="5.3273">
        <ele>351</ele>
        <time>2021-10-02T11:42:07.573Z</time>
      </trkpt>
      <trkpt lat="45.61513" lon="5.32727">
        <ele>351</ele>
        <time>2021-10-02T11:42:06.573Z</time>
      </trkpt>
      <trkpt lat="45.61518" lon="5.32725">
        <ele>351</ele>
        <time>2021-10-02T11:42:05.573Z</time>
      </trkpt>
      <trkpt lat="45.61523" lon="5.32722">
        <ele>351</ele>
        <time>2021-10-02T11:42:04.573Z</time>
      </trkpt>
      <trkpt lat="45.61529" lon="5.3272">
        <ele>351</ele>
        <time>2021-10-02T11:42:03.573Z</time>
      </trkpt>
      <trkpt lat="45.61534" lon="5.32718">
        <ele>351</ele>
        <time>2021-10-02T11:42:02.573Z</time>
      </trkpt>
      <trkpt lat="45.6154" lon="5.32716">
        <ele>351</ele>
        <time>2021-10-02T11:42:01.573Z</time>
      </trkpt>
      <trkpt lat="45.61546" lon="5.32714">
        <ele>351</ele>
        <time>2021-10-02T11:42:00.573Z</time>
      </trkpt>
      <trkpt lat="45.61552" lon="5.32712">
        <ele>352</ele>
        <time>2021-10-02T11:41:59.572Z</time>
      </trkpt>
      <trkpt lat="45.61557" lon="5.32709">
        <ele>352</ele>
        <time>2021-10-02T11:41:58.573Z</time>
      </trkpt>
      <trkpt lat="45.61563" lon="5.32707">
        <ele>351</ele>
        <time>2021-10-02T11:41:57.573Z</time>
      </trkpt>
      <trkpt lat="45.61569" lon="5.32704">
        <ele>351</ele>
        <time>2021-10-02T11:41:56.572Z</time>
      </trkpt>
      <trkpt lat="45.61575" lon="5.32701">
        <ele>351</ele>
        <time>2021-10-02T11:41:55.572Z</time>
      </trkpt>
      <trkpt lat="45.61581" lon="5.32697">
        <ele>351</ele>
        <time>2021-10-02T11:41:54.573Z</time>
      </trkpt>
      <trkpt lat="45.61586" lon="5.32693">
        <ele>352</ele>
        <time>2021-10-02T11:41:53.573Z</time>
      </trkpt>
      <trkpt lat="45.61592" lon="5.32689">
        <ele>352</ele>
        <time>2021-10-02T11:41:52.573Z</time>
      </trkpt>
      <trkpt lat="45.61597" lon="5.32684">
        <ele>352</ele>
        <time>2021-10-02T11:41:51.573Z</time>
      </trkpt>
      <trkpt lat="45.61602" lon="5.32679">
        <ele>351</ele>
        <time>2021-10-02T11:41:50.572Z</time>
      </trkpt>
      <trkpt lat="45.61607" lon="5.32674">
        <ele>351</ele>
        <time>2021-10-02T11:41:49.572Z</time>
      </trkpt>
      <trkpt lat="45.61613" lon="5.32669">
        <ele>351</ele>
        <time>2021-10-02T11:41:48.573Z</time>
      </trkpt>
      <trkpt lat="45.61617" lon="5.32664">
        <ele>351</ele>
        <time>2021-10-02T11:41:47.572Z</time>
      </trkpt>
      <trkpt lat="45.61622" lon="5.32658">
        <ele>351</ele>
        <time>2021-10-02T11:41:46.573Z</time>
      </trkpt>
      <trkpt lat="45.61626" lon="5.32653">
        <ele>351</ele>
        <time>2021-10-02T11:41:45.573Z</time>
      </trkpt>
      <trkpt lat="45.61631" lon="5.32647">
        <ele>351</ele>
        <time>2021-10-02T11:41:44.572Z</time>
      </trkpt>
      <trkpt lat="45.61635" lon="5.32641">
        <ele>350</ele>
        <time>2021-10-02T11:41:43.572Z</time>
      </trkpt>
      <trkpt lat="45.61638" lon="5.32636">
        <ele>350</ele>
        <time>2021-10-02T11:41:42.573Z</time>
      </trkpt>
      <trkpt lat="45.61642" lon="5.32631">
        <ele>350</ele>
        <time>2021-10-02T11:41:41.573Z</time>
      </trkpt>
      <trkpt lat="45.61647" lon="5.32625">
        <ele>350</ele>
        <time>2021-10-02T11:41:40.573Z</time>
      </trkpt>
      <trkpt lat="45.61652" lon="5.3262">
        <ele>350</ele>
        <time>2021-10-02T11:41:39.573Z</time>
      </trkpt>
      <trkpt lat="45.61656" lon="5.32614">
        <ele>350</ele>
        <time>2021-10-02T11:41:38.573Z</time>
      </trkpt>
      <trkpt lat="45.61662" lon="5.3261">
        <ele>350</ele>
        <time>2021-10-02T11:41:37.573Z</time>
      </trkpt>
      <trkpt lat="45.61667" lon="5.32605">
        <ele>349</ele>
        <time>2021-10-02T11:41:36.573Z</time>
      </trkpt>
      <trkpt lat="45.61672" lon="5.326">
        <ele>349</ele>
        <time>2021-10-02T11:41:35.572Z</time>
      </trkpt>
      <trkpt lat="45.61677" lon="5.32597">
        <ele>349</ele>
        <time>2021-10-02T11:41:34.573Z</time>
      </trkpt>
      <trkpt lat="45.61682" lon="5.32593">
        <ele>349</ele>
        <time>2021-10-02T11:41:33.573Z</time>
      </trkpt>
      <trkpt lat="45.61688" lon="5.3259">
        <ele>349</ele>
        <time>2021-10-02T11:41:32.573Z</time>
      </trkpt>
      <trkpt lat="45.61693" lon="5.32587">
        <ele>349</ele>
        <time>2021-10-02T11:41:31.572Z</time>
      </trkpt>
      <trkpt lat="45.61698" lon="5.32584">
        <ele>349</ele>
        <time>2021-10-02T11:41:30.573Z</time>
      </trkpt>
      <trkpt lat="45.61702" lon="5.32579">
        <ele>350</ele>
        <time>2021-10-02T11:41:29.573Z</time>
      </trkpt>
      <trkpt lat="45.61706" lon="5.32574">
        <ele>350</ele>
        <time>2021-10-02T11:41:28.573Z</time>
      </trkpt>
      <trkpt lat="45.6171" lon="5.32569">
        <ele>350</ele>
        <time>2021-10-02T11:41:27.573Z</time>
      </trkpt>
      <trkpt lat="45.61714" lon="5.32563">
        <ele>350</ele>
        <time>2021-10-02T11:41:26.573Z</time>
      </trkpt>
      <trkpt lat="45.61717" lon="5.32556">
        <ele>351</ele>
        <time>2021-10-02T11:41:25.573Z</time>
      </trkpt>
      <trkpt lat="45.61721" lon="5.3255">
        <ele>351</ele>
        <time>2021-10-02T11:41:24.572Z</time>
      </trkpt>
      <trkpt lat="45.61725" lon="5.32543">
        <ele>352</ele>
        <time>2021-10-02T11:41:23.573Z</time>
      </trkpt>
      <trkpt lat="45.61728" lon="5.32537">
        <ele>352</ele>
        <time>2021-10-02T11:41:22.573Z</time>
      </trkpt>
      <trkpt lat="45.61731" lon="5.3253">
        <ele>352</ele>
        <time>2021-10-02T11:41:21.573Z</time>
      </trkpt>
      <trkpt lat="45.61735" lon="5.32524">
        <ele>352</ele>
        <time>2021-10-02T11:41:20.573Z</time>
      </trkpt>
      <trkpt lat="45.61738" lon="5.32518">
        <ele>352</ele>
        <time>2021-10-02T11:41:19.572Z</time>
      </trkpt>
      <trkpt lat="45.61742" lon="5.32512">
        <ele>352</ele>
        <time>2021-10-02T11:41:18.572Z</time>
      </trkpt>
      <trkpt lat="45.61746" lon="5.32506">
        <ele>352</ele>
        <time>2021-10-02T11:41:17.572Z</time>
      </trkpt>
      <trkpt lat="45.61749" lon="5.325">
        <ele>352</ele>
        <time>2021-10-02T11:41:16.573Z</time>
      </trkpt>
      <trkpt lat="45.61753" lon="5.32495">
        <ele>352</ele>
        <time>2021-10-02T11:41:15.572Z</time>
      </trkpt>
      <trkpt lat="45.61757" lon="5.3249">
        <ele>352</ele>
        <time>2021-10-02T11:41:14.573Z</time>
      </trkpt>
      <trkpt lat="45.6176" lon="5.32485">
        <ele>351</ele>
        <time>2021-10-02T11:41:13.572Z</time>
      </trkpt>
      <trkpt lat="45.61763" lon="5.32479">
        <ele>351</ele>
        <time>2021-10-02T11:41:12.573Z</time>
      </trkpt>
      <trkpt lat="45.61765" lon="5.32474">
        <ele>351</ele>
        <time>2021-10-02T11:41:11.572Z</time>
      </trkpt>
      <trkpt lat="45.61766" lon="5.32468">
        <ele>351</ele>
        <time>2021-10-02T11:41:10.573Z</time>
      </trkpt>
      <trkpt lat="45.61767" lon="5.32462">
        <ele>351</ele>
        <time>2021-10-02T11:41:09.572Z</time>
      </trkpt>
      <trkpt lat="45.61768" lon="5.32456">
        <ele>350</ele>
        <time>2021-10-02T11:41:08.572Z</time>
      </trkpt>
      <trkpt lat="45.61768" lon="5.3245">
        <ele>350</ele>
        <time>2021-10-02T11:41:07.573Z</time>
      </trkpt>
      <trkpt lat="45.61767" lon="5.32443">
        <ele>350</ele>
        <time>2021-10-02T11:41:06.573Z</time>
      </trkpt>
      <trkpt lat="45.61766" lon="5.32437">
        <ele>350</ele>
        <time>2021-10-02T11:41:05.573Z</time>
      </trkpt>
      <trkpt lat="45.61765" lon="5.3243">
        <ele>350</ele>
        <time>2021-10-02T11:41:04.573Z</time>
      </trkpt>
      <trkpt lat="45.61763" lon="5.32423">
        <ele>349</ele>
        <time>2021-10-02T11:41:03.572Z</time>
      </trkpt>
      <trkpt lat="45.61762" lon="5.32416">
        <ele>349</ele>
        <time>2021-10-02T11:41:02.572Z</time>
      </trkpt>
      <trkpt lat="45.61762" lon="5.32409">
        <ele>349</ele>
        <time>2021-10-02T11:41:01.573Z</time>
      </trkpt>
      <trkpt lat="45.61761" lon="5.32402">
        <ele>349</ele>
        <time>2021-10-02T11:41:00.573Z</time>
      </trkpt>
      <trkpt lat="45.61761" lon="5.32395">
        <ele>349</ele>
        <time>2021-10-02T11:40:59.573Z</time>
      </trkpt>
      <trkpt lat="45.61761" lon="5.32387">
        <ele>349</ele>
        <time>2021-10-02T11:40:58.572Z</time>
      </trkpt>
      <trkpt lat="45.61761" lon="5.32379">
        <ele>349</ele>
        <time>2021-10-02T11:40:57.573Z</time>
      </trkpt>
      <trkpt lat="45.6176" lon="5.32372">
        <ele>349</ele>
        <time>2021-10-02T11:40:56.573Z</time>
      </trkpt>
      <trkpt lat="45.61758" lon="5.32364">
        <ele>349</ele>
        <time>2021-10-02T11:40:55.573Z</time>
      </trkpt>
      <trkpt lat="45.61757" lon="5.32357">
        <ele>349</ele>
        <time>2021-10-02T11:40:54.573Z</time>
      </trkpt>
      <trkpt lat="45.61755" lon="5.32348">
        <ele>349</ele>
        <time>2021-10-02T11:40:53.573Z</time>
      </trkpt>
      <trkpt lat="45.61753" lon="5.3234">
        <ele>349</ele>
        <time>2021-10-02T11:40:52.573Z</time>
      </trkpt>
      <trkpt lat="45.6175" lon="5.32331">
        <ele>349</ele>
        <time>2021-10-02T11:40:51.573Z</time>
      </trkpt>
      <trkpt lat="45.61747" lon="5.32321">
        <ele>350</ele>
        <time>2021-10-02T11:40:50.573Z</time>
      </trkpt>
      <trkpt lat="45.61744" lon="5.32311">
        <ele>350</ele>
        <time>2021-10-02T11:40:49.572Z</time>
      </trkpt>
      <trkpt lat="45.61742" lon="5.32299">
        <ele>350</ele>
        <time>2021-10-02T11:40:48.573Z</time>
      </trkpt>
      <trkpt lat="45.61741" lon="5.32287">
        <ele>351</ele>
        <time>2021-10-02T11:40:47.573Z</time>
      </trkpt>
      <trkpt lat="45.61741" lon="5.32273">
        <ele>351</ele>
        <time>2021-10-02T11:40:46.573Z</time>
      </trkpt>
      <trkpt lat="45.6174" lon="5.32258">
        <ele>352</ele>
        <time>2021-10-02T11:40:45.573Z</time>
      </trkpt>
      <trkpt lat="45.61739" lon="5.32244">
        <ele>352</ele>
        <time>2021-10-02T11:40:44.573Z</time>
      </trkpt>
      <trkpt lat="45.61737" lon="5.32228">
        <ele>353</ele>
        <time>2021-10-02T11:40:43.572Z</time>
      </trkpt>
      <trkpt lat="45.61734" lon="5.32213">
        <ele>354</ele>
        <time>2021-10-02T11:40:42.573Z</time>
      </trkpt>
      <trkpt lat="45.6173" lon="5.32198">
        <ele>355</ele>
        <time>2021-10-02T11:40:41.572Z</time>
      </trkpt>
      <trkpt lat="45.61725" lon="5.32183">
        <ele>355</ele>
        <time>2021-10-02T11:40:40.573Z</time>
      </trkpt>
      <trkpt lat="45.6172" lon="5.32167">
        <ele>356</ele>
        <time>2021-10-02T11:40:39.572Z</time>
      </trkpt>
      <trkpt lat="45.61716" lon="5.32152">
        <ele>356</ele>
        <time>2021-10-02T11:40:38.572Z</time>
      </trkpt>
      <trkpt lat="45.61711" lon="5.32136">
        <ele>357</ele>
        <time>2021-10-02T11:40:37.573Z</time>
      </trkpt>
      <trkpt lat="45.61705" lon="5.32121">
        <ele>358</ele>
        <time>2021-10-02T11:40:36.573Z</time>
      </trkpt>
      <trkpt lat="45.617" lon="5.32106">
        <ele>358</ele>
        <time>2021-10-02T11:40:35.573Z</time>
      </trkpt>
      <trkpt lat="45.61694" lon="5.32092">
        <ele>358</ele>
        <time>2021-10-02T11:40:34.573Z</time>
      </trkpt>
      <trkpt lat="45.61687" lon="5.32079">
        <ele>358</ele>
        <time>2021-10-02T11:40:33.573Z</time>
      </trkpt>
      <trkpt lat="45.6168" lon="5.32067">
        <ele>358</ele>
        <time>2021-10-02T11:40:32.572Z</time>
      </trkpt>
      <trkpt lat="45.61673" lon="5.32055">
        <ele>358</ele>
        <time>2021-10-02T11:40:31.573Z</time>
      </trkpt>
      <trkpt lat="45.61667" lon="5.32043">
        <ele>359</ele>
        <time>2021-10-02T11:40:30.573Z</time>
      </trkpt>
      <trkpt lat="45.6166" lon="5.32032">
        <ele>359</ele>
        <time>2021-10-02T11:40:29.573Z</time>
      </trkpt>
      <trkpt lat="45.61653" lon="5.3202">
        <ele>359</ele>
        <time>2021-10-02T11:40:28.573Z</time>
      </trkpt>
      <trkpt lat="45.61647" lon="5.32009">
        <ele>359</ele>
        <time>2021-10-02T11:40:27.573Z</time>
      </trkpt>
      <trkpt lat="45.6164" lon="5.31999">
        <ele>360</ele>
        <time>2021-10-02T11:40:26.573Z</time>
      </trkpt>
      <trkpt lat="45.61634" lon="5.31989">
        <ele>359</ele>
        <time>2021-10-02T11:40:25.573Z</time>
      </trkpt>
      <trkpt lat="45.61628" lon="5.3198">
        <ele>360</ele>
        <time>2021-10-02T11:40:24.573Z</time>
      </trkpt>
      <trkpt lat="45.61621" lon="5.31972">
        <ele>360</ele>
        <time>2021-10-02T11:40:23.573Z</time>
      </trkpt>
      <trkpt lat="45.61615" lon="5.31965">
        <ele>360</ele>
        <time>2021-10-02T11:40:22.572Z</time>
      </trkpt>
      <trkpt lat="45.61609" lon="5.31957">
        <ele>361</ele>
        <time>2021-10-02T11:40:21.572Z</time>
      </trkpt>
      <trkpt lat="45.61603" lon="5.31951">
        <ele>362</ele>
        <time>2021-10-02T11:40:20.573Z</time>
      </trkpt>
      <trkpt lat="45.61597" lon="5.31944">
        <ele>362</ele>
        <time>2021-10-02T11:40:19.573Z</time>
      </trkpt>
      <trkpt lat="45.61591" lon="5.31938">
        <ele>362</ele>
        <time>2021-10-02T11:40:18.573Z</time>
      </trkpt>
      <trkpt lat="45.61585" lon="5.31933">
        <ele>363</ele>
        <time>2021-10-02T11:40:17.573Z</time>
      </trkpt>
      <trkpt lat="45.6158" lon="5.31928">
        <ele>363</ele>
        <time>2021-10-02T11:40:16.573Z</time>
      </trkpt>
      <trkpt lat="45.61575" lon="5.31924">
        <ele>363</ele>
        <time>2021-10-02T11:40:15.573Z</time>
      </trkpt>
      <trkpt lat="45.6157" lon="5.31919">
        <ele>363</ele>
        <time>2021-10-02T11:40:14.573Z</time>
      </trkpt>
      <trkpt lat="45.61566" lon="5.31915">
        <ele>363</ele>
        <time>2021-10-02T11:40:13.572Z</time>
      </trkpt>
      <trkpt lat="45.61562" lon="5.31911">
        <ele>364</ele>
        <time>2021-10-02T11:40:12.573Z</time>
      </trkpt>
      <trkpt lat="45.61558" lon="5.31908">
        <ele>364</ele>
        <time>2021-10-02T11:40:11.572Z</time>
      </trkpt>
      <trkpt lat="45.61556" lon="5.31904">
        <ele>364</ele>
        <time>2021-10-02T11:40:10.572Z</time>
      </trkpt>
      <trkpt lat="45.61553" lon="5.31902">
        <ele>365</ele>
        <time>2021-10-02T11:40:09.573Z</time>
      </trkpt>
      <trkpt lat="45.61552" lon="5.319">
        <ele>365</ele>
        <time>2021-10-02T11:40:08.573Z</time>
      </trkpt>
      <trkpt lat="45.61552" lon="5.31898">
        <ele>364</ele>
        <time>2021-10-02T11:40:07.573Z</time>
      </trkpt>
      <trkpt lat="45.61551" lon="5.31896">
        <ele>364</ele>
        <time>2021-10-02T11:40:06.573Z</time>
      </trkpt>
      <trkpt lat="45.61552" lon="5.31895">
        <ele>364</ele>
        <time>2021-10-02T11:40:05.573Z</time>
      </trkpt>
      <trkpt lat="45.61552" lon="5.31894">
        <ele>364</ele>
        <time>2021-10-02T11:40:04.573Z</time>
      </trkpt>
      <trkpt lat="45.61552" lon="5.31893">
        <ele>364</ele>
        <time>2021-10-02T11:40:03.573Z</time>
      </trkpt>
      <trkpt lat="45.61552" lon="5.31891">
        <ele>364</ele>
        <time>2021-10-02T11:40:02.572Z</time>
      </trkpt>
      <trkpt lat="45.61553" lon="5.31888">
        <ele>364</ele>
        <time>2021-10-02T11:40:01.573Z</time>
      </trkpt>
      <trkpt lat="45.61553" lon="5.31883">
        <ele>364</ele>
        <time>2021-10-02T11:40:00.573Z</time>
      </trkpt>
      <trkpt lat="45.61553" lon="5.31879">
        <ele>364</ele>
        <time>2021-10-02T11:39:59.573Z</time>
      </trkpt>
      <trkpt lat="45.61554" lon="5.31873">
        <ele>364</ele>
        <time>2021-10-02T11:39:58.573Z</time>
      </trkpt>
      <trkpt lat="45.61554" lon="5.31867">
        <ele>364</ele>
        <time>2021-10-02T11:39:57.573Z</time>
      </trkpt>
      <trkpt lat="45.61555" lon="5.3186">
        <ele>364</ele>
        <time>2021-10-02T11:39:56.573Z</time>
      </trkpt>
      <trkpt lat="45.61555" lon="5.31853">
        <ele>364</ele>
        <time>2021-10-02T11:39:55.573Z</time>
      </trkpt>
      <trkpt lat="45.61555" lon="5.31846">
        <ele>364</ele>
        <time>2021-10-02T11:39:54.573Z</time>
      </trkpt>
      <trkpt lat="45.61555" lon="5.31839">
        <ele>364</ele>
        <time>2021-10-02T11:39:53.572Z</time>
      </trkpt>
      <trkpt lat="45.61555" lon="5.31832">
        <ele>363</ele>
        <time>2021-10-02T11:39:52.573Z</time>
      </trkpt>
      <trkpt lat="45.61556" lon="5.31825">
        <ele>363</ele>
        <time>2021-10-02T11:39:51.572Z</time>
      </trkpt>
      <trkpt lat="45.61556" lon="5.31818">
        <ele>363</ele>
        <time>2021-10-02T11:39:50.572Z</time>
      </trkpt>
      <trkpt lat="45.61556" lon="5.3181">
        <ele>364</ele>
        <time>2021-10-02T11:39:49.573Z</time>
      </trkpt>
      <trkpt lat="45.61556" lon="5.31803">
        <ele>364</ele>
        <time>2021-10-02T11:39:48.573Z</time>
      </trkpt>
      <trkpt lat="45.61556" lon="5.31796">
        <ele>364</ele>
        <time>2021-10-02T11:39:47.573Z</time>
      </trkpt>
      <trkpt lat="45.61556" lon="5.31789">
        <ele>364</ele>
        <time>2021-10-02T11:39:46.572Z</time>
      </trkpt>
      <trkpt lat="45.61555" lon="5.31782">
        <ele>364</ele>
        <time>2021-10-02T11:39:45.573Z</time>
      </trkpt>
      <trkpt lat="45.61555" lon="5.31774">
        <ele>365</ele>
        <time>2021-10-02T11:39:44.572Z</time>
      </trkpt>
      <trkpt lat="45.61555" lon="5.31767">
        <ele>365</ele>
        <time>2021-10-02T11:39:43.573Z</time>
      </trkpt>
      <trkpt lat="45.61555" lon="5.3176">
        <ele>365</ele>
        <time>2021-10-02T11:39:42.573Z</time>
      </trkpt>
      <trkpt lat="45.61555" lon="5.31753">
        <ele>365</ele>
        <time>2021-10-02T11:39:41.573Z</time>
      </trkpt>
      <trkpt lat="45.61555" lon="5.31746">
        <ele>365</ele>
        <time>2021-10-02T11:39:40.573Z</time>
      </trkpt>
      <trkpt lat="45.61554" lon="5.31739">
        <ele>365</ele>
        <time>2021-10-02T11:39:39.572Z</time>
      </trkpt>
      <trkpt lat="45.61554" lon="5.31731">
        <ele>365</ele>
        <time>2021-10-02T11:39:38.573Z</time>
      </trkpt>
      <trkpt lat="45.61554" lon="5.31724">
        <ele>366</ele>
        <time>2021-10-02T11:39:37.572Z</time>
      </trkpt>
      <trkpt lat="45.61554" lon="5.31718">
        <ele>366</ele>
        <time>2021-10-02T11:39:36.573Z</time>
      </trkpt>
      <trkpt lat="45.61554" lon="5.3171">
        <ele>366</ele>
        <time>2021-10-02T11:39:35.573Z</time>
      </trkpt>
      <trkpt lat="45.61553" lon="5.31704">
        <ele>366</ele>
        <time>2021-10-02T11:39:34.572Z</time>
      </trkpt>
      <trkpt lat="45.61553" lon="5.31697">
        <ele>366</ele>
        <time>2021-10-02T11:39:33.573Z</time>
      </trkpt>
      <trkpt lat="45.61553" lon="5.3169">
        <ele>366</ele>
        <time>2021-10-02T11:39:32.573Z</time>
      </trkpt>
      <trkpt lat="45.61553" lon="5.31683">
        <ele>366</ele>
        <time>2021-10-02T11:39:31.573Z</time>
      </trkpt>
      <trkpt lat="45.61553" lon="5.31676">
        <ele>365</ele>
        <time>2021-10-02T11:39:30.573Z</time>
      </trkpt>
      <trkpt lat="45.61554" lon="5.31668">
        <ele>365</ele>
        <time>2021-10-02T11:39:29.573Z</time>
      </trkpt>
      <trkpt lat="45.61554" lon="5.31661">
        <ele>365</ele>
        <time>2021-10-02T11:39:28.572Z</time>
      </trkpt>
      <trkpt lat="45.61554" lon="5.31654">
        <ele>364</ele>
        <time>2021-10-02T11:39:27.572Z</time>
      </trkpt>
      <trkpt lat="45.61553" lon="5.31647">
        <ele>364</ele>
        <time>2021-10-02T11:39:26.572Z</time>
      </trkpt>
      <trkpt lat="45.61553" lon="5.3164">
        <ele>364</ele>
        <time>2021-10-02T11:39:25.573Z</time>
      </trkpt>
      <trkpt lat="45.61553" lon="5.31633">
        <ele>363</ele>
        <time>2021-10-02T11:39:24.573Z</time>
      </trkpt>
      <trkpt lat="45.61553" lon="5.31626">
        <ele>363</ele>
        <time>2021-10-02T11:39:23.573Z</time>
      </trkpt>
      <trkpt lat="45.61553" lon="5.31619">
        <ele>364</ele>
        <time>2021-10-02T11:39:22.573Z</time>
      </trkpt>
      <trkpt lat="45.61552" lon="5.31612">
        <ele>364</ele>
        <time>2021-10-02T11:39:21.573Z</time>
      </trkpt>
      <trkpt lat="45.61552" lon="5.31605">
        <ele>364</ele>
        <time>2021-10-02T11:39:20.573Z</time>
      </trkpt>
      <trkpt lat="45.61552" lon="5.31599">
        <ele>364</ele>
        <time>2021-10-02T11:39:19.572Z</time>
      </trkpt>
      <trkpt lat="45.61552" lon="5.31592">
        <ele>363</ele>
        <time>2021-10-02T11:39:18.573Z</time>
      </trkpt>
      <trkpt lat="45.61552" lon="5.31585">
        <ele>362</ele>
        <time>2021-10-02T11:39:17.572Z</time>
      </trkpt>
      <trkpt lat="45.61551" lon="5.31579">
        <ele>362</ele>
        <time>2021-10-02T11:39:16.573Z</time>
      </trkpt>
      <trkpt lat="45.61552" lon="5.31572">
        <ele>363</ele>
        <time>2021-10-02T11:39:15.573Z</time>
      </trkpt>
      <trkpt lat="45.61552" lon="5.31566">
        <ele>363</ele>
        <time>2021-10-02T11:39:14.572Z</time>
      </trkpt>
      <trkpt lat="45.61552" lon="5.31559">
        <ele>363</ele>
        <time>2021-10-02T11:39:13.572Z</time>
      </trkpt>
      <trkpt lat="45.61552" lon="5.31552">
        <ele>363</ele>
        <time>2021-10-02T11:39:12.573Z</time>
      </trkpt>
      <trkpt lat="45.61552" lon="5.31546">
        <ele>363</ele>
        <time>2021-10-02T11:39:11.573Z</time>
      </trkpt>
      <trkpt lat="45.61552" lon="5.31539">
        <ele>363</ele>
        <time>2021-10-02T11:39:10.573Z</time>
      </trkpt>
      <trkpt lat="45.61552" lon="5.31532">
        <ele>363</ele>
        <time>2021-10-02T11:39:09.572Z</time>
      </trkpt>
      <trkpt lat="45.61552" lon="5.31526">
        <ele>363</ele>
        <time>2021-10-02T11:39:08.573Z</time>
      </trkpt>
      <trkpt lat="45.61552" lon="5.31519">
        <ele>363</ele>
        <time>2021-10-02T11:39:07.573Z</time>
      </trkpt>
      <trkpt lat="45.61553" lon="5.31513">
        <ele>363</ele>
        <time>2021-10-02T11:39:06.573Z</time>
      </trkpt>
      <trkpt lat="45.61553" lon="5.31507">
        <ele>363</ele>
        <time>2021-10-02T11:39:05.573Z</time>
      </trkpt>
      <trkpt lat="45.61554" lon="5.31502">
        <ele>363</ele>
        <time>2021-10-02T11:39:04.572Z</time>
      </trkpt>
      <trkpt lat="45.61554" lon="5.31496">
        <ele>363</ele>
        <time>2021-10-02T11:39:03.573Z</time>
      </trkpt>
      <trkpt lat="45.61555" lon="5.3149">
        <ele>363</ele>
        <time>2021-10-02T11:39:02.573Z</time>
      </trkpt>
      <trkpt lat="45.61556" lon="5.31484">
        <ele>363</ele>
        <time>2021-10-02T11:39:01.573Z</time>
      </trkpt>
      <trkpt lat="45.61557" lon="5.31478">
        <ele>364</ele>
        <time>2021-10-02T11:39:00.573Z</time>
      </trkpt>
      <trkpt lat="45.61558" lon="5.31472">
        <ele>364</ele>
        <time>2021-10-02T11:38:59.573Z</time>
      </trkpt>
      <trkpt lat="45.61559" lon="5.31466">
        <ele>364</ele>
        <time>2021-10-02T11:38:58.573Z</time>
      </trkpt>
      <trkpt lat="45.61559" lon="5.31461">
        <ele>364</ele>
        <time>2021-10-02T11:38:57.572Z</time>
      </trkpt>
      <trkpt lat="45.6156" lon="5.31455">
        <ele>364</ele>
        <time>2021-10-02T11:38:56.573Z</time>
      </trkpt>
      <trkpt lat="45.61561" lon="5.3145">
        <ele>364</ele>
        <time>2021-10-02T11:38:55.572Z</time>
      </trkpt>
      <trkpt lat="45.61562" lon="5.31444">
        <ele>364</ele>
        <time>2021-10-02T11:38:54.573Z</time>
      </trkpt>
      <trkpt lat="45.61563" lon="5.31438">
        <ele>363</ele>
        <time>2021-10-02T11:38:53.573Z</time>
      </trkpt>
      <trkpt lat="45.61564" lon="5.31432">
        <ele>363</ele>
        <time>2021-10-02T11:38:52.572Z</time>
      </trkpt>
      <trkpt lat="45.61565" lon="5.31426">
        <ele>362</ele>
        <time>2021-10-02T11:38:51.573Z</time>
      </trkpt>
      <trkpt lat="45.61566" lon="5.3142">
        <ele>362</ele>
        <time>2021-10-02T11:38:50.573Z</time>
      </trkpt>
      <trkpt lat="45.61566" lon="5.31415">
        <ele>362</ele>
        <time>2021-10-02T11:38:49.573Z</time>
      </trkpt>
      <trkpt lat="45.61567" lon="5.31409">
        <ele>361</ele>
        <time>2021-10-02T11:38:48.573Z</time>
      </trkpt>
      <trkpt lat="45.61567" lon="5.31403">
        <ele>361</ele>
        <time>2021-10-02T11:38:47.573Z</time>
      </trkpt>
      <trkpt lat="45.61568" lon="5.31397">
        <ele>361</ele>
        <time>2021-10-02T11:38:46.573Z</time>
      </trkpt>
      <trkpt lat="45.61568" lon="5.31391">
        <ele>361</ele>
        <time>2021-10-02T11:38:45.573Z</time>
      </trkpt>
      <trkpt lat="45.61569" lon="5.31385">
        <ele>361</ele>
        <time>2021-10-02T11:38:44.573Z</time>
      </trkpt>
      <trkpt lat="45.6157" lon="5.31378">
        <ele>361</ele>
        <time>2021-10-02T11:38:43.572Z</time>
      </trkpt>
      <trkpt lat="45.6157" lon="5.31372">
        <ele>361</ele>
        <time>2021-10-02T11:38:42.573Z</time>
      </trkpt>
      <trkpt lat="45.61571" lon="5.31365">
        <ele>360</ele>
        <time>2021-10-02T11:38:41.573Z</time>
      </trkpt>
      <trkpt lat="45.61572" lon="5.31359">
        <ele>360</ele>
        <time>2021-10-02T11:38:40.572Z</time>
      </trkpt>
      <trkpt lat="45.61572" lon="5.31353">
        <ele>359</ele>
        <time>2021-10-02T11:38:39.573Z</time>
      </trkpt>
      <trkpt lat="45.61573" lon="5.31347">
        <ele>359</ele>
        <time>2021-10-02T11:38:38.573Z</time>
      </trkpt>
      <trkpt lat="45.61574" lon="5.31341">
        <ele>359</ele>
        <time>2021-10-02T11:38:37.572Z</time>
      </trkpt>
      <trkpt lat="45.61574" lon="5.31335">
        <ele>359</ele>
        <time>2021-10-02T11:38:36.573Z</time>
      </trkpt>
      <trkpt lat="45.61575" lon="5.31328">
        <ele>359</ele>
        <time>2021-10-02T11:38:35.573Z</time>
      </trkpt>
      <trkpt lat="45.61575" lon="5.31322">
        <ele>359</ele>
        <time>2021-10-02T11:38:34.573Z</time>
      </trkpt>
      <trkpt lat="45.61576" lon="5.31316">
        <ele>359</ele>
        <time>2021-10-02T11:38:33.573Z</time>
      </trkpt>
      <trkpt lat="45.61577" lon="5.3131">
        <ele>359</ele>
        <time>2021-10-02T11:38:32.572Z</time>
      </trkpt>
      <trkpt lat="45.61577" lon="5.31303">
        <ele>359</ele>
        <time>2021-10-02T11:38:31.572Z</time>
      </trkpt>
      <trkpt lat="45.61578" lon="5.31296">
        <ele>359</ele>
        <time>2021-10-02T11:38:30.572Z</time>
      </trkpt>
      <trkpt lat="45.61579" lon="5.3129">
        <ele>358</ele>
        <time>2021-10-02T11:38:29.573Z</time>
      </trkpt>
      <trkpt lat="45.6158" lon="5.31283">
        <ele>358</ele>
        <time>2021-10-02T11:38:28.573Z</time>
      </trkpt>
      <trkpt lat="45.6158" lon="5.31276">
        <ele>357</ele>
        <time>2021-10-02T11:38:27.573Z</time>
      </trkpt>
      <trkpt lat="45.61581" lon="5.31269">
        <ele>357</ele>
        <time>2021-10-02T11:38:26.572Z</time>
      </trkpt>
      <trkpt lat="45.61582" lon="5.31263">
        <ele>357</ele>
        <time>2021-10-02T11:38:25.573Z</time>
      </trkpt>
      <trkpt lat="45.61583" lon="5.31256">
        <ele>356</ele>
        <time>2021-10-02T11:38:24.572Z</time>
      </trkpt>
      <trkpt lat="45.61584" lon="5.31249">
        <ele>357</ele>
        <time>2021-10-02T11:38:23.573Z</time>
      </trkpt>
      <trkpt lat="45.61585" lon="5.31242">
        <ele>357</ele>
        <time>2021-10-02T11:38:22.573Z</time>
      </trkpt>
      <trkpt lat="45.61586" lon="5.31235">
        <ele>357</ele>
        <time>2021-10-02T11:38:21.573Z</time>
      </trkpt>
      <trkpt lat="45.61587" lon="5.31228">
        <ele>358</ele>
        <time>2021-10-02T11:38:20.573Z</time>
      </trkpt>
      <trkpt lat="45.61588" lon="5.31221">
        <ele>358</ele>
        <time>2021-10-02T11:38:19.573Z</time>
      </trkpt>
      <trkpt lat="45.61589" lon="5.31215">
        <ele>358</ele>
        <time>2021-10-02T11:38:18.572Z</time>
      </trkpt>
      <trkpt lat="45.6159" lon="5.31208">
        <ele>358</ele>
        <time>2021-10-02T11:38:17.573Z</time>
      </trkpt>
      <trkpt lat="45.61591" lon="5.31201">
        <ele>358</ele>
        <time>2021-10-02T11:38:16.572Z</time>
      </trkpt>
      <trkpt lat="45.61592" lon="5.31194">
        <ele>358</ele>
        <time>2021-10-02T11:38:15.573Z</time>
      </trkpt>
      <trkpt lat="45.61593" lon="5.31187">
        <ele>357</ele>
        <time>2021-10-02T11:38:14.572Z</time>
      </trkpt>
      <trkpt lat="45.61593" lon="5.3118">
        <ele>357</ele>
        <time>2021-10-02T11:38:13.573Z</time>
      </trkpt>
      <trkpt lat="45.61594" lon="5.31173">
        <ele>357</ele>
        <time>2021-10-02T11:38:12.573Z</time>
      </trkpt>
      <trkpt lat="45.61595" lon="5.31166">
        <ele>356</ele>
        <time>2021-10-02T11:38:11.572Z</time>
      </trkpt>
      <trkpt lat="45.61596" lon="5.31159">
        <ele>356</ele>
        <time>2021-10-02T11:38:10.572Z</time>
      </trkpt>
      <trkpt lat="45.61597" lon="5.31152">
        <ele>356</ele>
        <time>2021-10-02T11:38:09.572Z</time>
      </trkpt>
      <trkpt lat="45.61598" lon="5.31145">
        <ele>356</ele>
        <time>2021-10-02T11:38:08.573Z</time>
      </trkpt>
      <trkpt lat="45.61599" lon="5.31139">
        <ele>356</ele>
        <time>2021-10-02T11:38:07.573Z</time>
      </trkpt>
      <trkpt lat="45.616" lon="5.31133">
        <ele>356</ele>
        <time>2021-10-02T11:38:06.573Z</time>
      </trkpt>
      <trkpt lat="45.616" lon="5.31127">
        <ele>356</ele>
        <time>2021-10-02T11:38:05.572Z</time>
      </trkpt>
      <trkpt lat="45.61601" lon="5.31121">
        <ele>356</ele>
        <time>2021-10-02T11:38:04.573Z</time>
      </trkpt>
      <trkpt lat="45.61602" lon="5.31115">
        <ele>356</ele>
        <time>2021-10-02T11:38:03.573Z</time>
      </trkpt>
      <trkpt lat="45.61603" lon="5.31109">
        <ele>355</ele>
        <time>2021-10-02T11:38:02.573Z</time>
      </trkpt>
      <trkpt lat="45.61604" lon="5.31103">
        <ele>355</ele>
        <time>2021-10-02T11:38:01.573Z</time>
      </trkpt>
      <trkpt lat="45.61605" lon="5.31097">
        <ele>355</ele>
        <time>2021-10-02T11:38:00.573Z</time>
      </trkpt>
      <trkpt lat="45.61606" lon="5.3109">
        <ele>355</ele>
        <time>2021-10-02T11:37:59.573Z</time>
      </trkpt>
      <trkpt lat="45.61607" lon="5.31083">
        <ele>355</ele>
        <time>2021-10-02T11:37:58.573Z</time>
      </trkpt>
      <trkpt lat="45.61608" lon="5.31077">
        <ele>355</ele>
        <time>2021-10-02T11:37:57.573Z</time>
      </trkpt>
      <trkpt lat="45.6161" lon="5.3107">
        <ele>355</ele>
        <time>2021-10-02T11:37:56.573Z</time>
      </trkpt>
      <trkpt lat="45.61611" lon="5.31063">
        <ele>355</ele>
        <time>2021-10-02T11:37:55.573Z</time>
      </trkpt>
      <trkpt lat="45.61612" lon="5.31056">
        <ele>355</ele>
        <time>2021-10-02T11:37:54.572Z</time>
      </trkpt>
      <trkpt lat="45.61613" lon="5.31049">
        <ele>355</ele>
        <time>2021-10-02T11:37:53.573Z</time>
      </trkpt>
      <trkpt lat="45.61614" lon="5.31041">
        <ele>355</ele>
        <time>2021-10-02T11:37:52.573Z</time>
      </trkpt>
      <trkpt lat="45.61616" lon="5.31034">
        <ele>355</ele>
        <time>2021-10-02T11:37:51.573Z</time>
      </trkpt>
      <trkpt lat="45.61617" lon="5.31026">
        <ele>355</ele>
        <time>2021-10-02T11:37:50.573Z</time>
      </trkpt>
      <trkpt lat="45.61618" lon="5.31018">
        <ele>355</ele>
        <time>2021-10-02T11:37:49.573Z</time>
      </trkpt>
      <trkpt lat="45.61619" lon="5.3101">
        <ele>355</ele>
        <time>2021-10-02T11:37:48.573Z</time>
      </trkpt>
      <trkpt lat="45.61621" lon="5.31001">
        <ele>355</ele>
        <time>2021-10-02T11:37:47.573Z</time>
      </trkpt>
      <trkpt lat="45.61622" lon="5.30993">
        <ele>355</ele>
        <time>2021-10-02T11:37:46.573Z</time>
      </trkpt>
      <trkpt lat="45.61623" lon="5.30984">
        <ele>355</ele>
        <time>2021-10-02T11:37:45.572Z</time>
      </trkpt>
      <trkpt lat="45.61624" lon="5.30976">
        <ele>355</ele>
        <time>2021-10-02T11:37:44.572Z</time>
      </trkpt>
      <trkpt lat="45.61625" lon="5.30967">
        <ele>356</ele>
        <time>2021-10-02T11:37:43.573Z</time>
      </trkpt>
      <trkpt lat="45.61626" lon="5.30958">
        <ele>356</ele>
        <time>2021-10-02T11:37:42.573Z</time>
      </trkpt>
      <trkpt lat="45.61628" lon="5.30949">
        <ele>356</ele>
        <time>2021-10-02T11:37:41.572Z</time>
      </trkpt>
      <trkpt lat="45.61629" lon="5.3094">
        <ele>356</ele>
        <time>2021-10-02T11:37:40.572Z</time>
      </trkpt>
      <trkpt lat="45.6163" lon="5.30931">
        <ele>356</ele>
        <time>2021-10-02T11:37:39.572Z</time>
      </trkpt>
      <trkpt lat="45.61631" lon="5.30921">
        <ele>357</ele>
        <time>2021-10-02T11:37:38.573Z</time>
      </trkpt>
      <trkpt lat="45.61633" lon="5.30912">
        <ele>357</ele>
        <time>2021-10-02T11:37:37.573Z</time>
      </trkpt>
      <trkpt lat="45.61634" lon="5.30902">
        <ele>357</ele>
        <time>2021-10-02T11:37:36.573Z</time>
      </trkpt>
      <trkpt lat="45.61636" lon="5.30892">
        <ele>358</ele>
        <time>2021-10-02T11:37:35.573Z</time>
      </trkpt>
      <trkpt lat="45.61637" lon="5.30882">
        <ele>359</ele>
        <time>2021-10-02T11:37:34.573Z</time>
      </trkpt>
      <trkpt lat="45.61638" lon="5.30873">
        <ele>360</ele>
        <time>2021-10-02T11:37:33.572Z</time>
      </trkpt>
      <trkpt lat="45.6164" lon="5.30864">
        <ele>360</ele>
        <time>2021-10-02T11:37:32.573Z</time>
      </trkpt>
      <trkpt lat="45.61641" lon="5.30854">
        <ele>361</ele>
        <time>2021-10-02T11:37:31.573Z</time>
      </trkpt>
      <trkpt lat="45.61642" lon="5.30845">
        <ele>362</ele>
        <time>2021-10-02T11:37:30.573Z</time>
      </trkpt>
      <trkpt lat="45.61644" lon="5.30835">
        <ele>362</ele>
        <time>2021-10-02T11:37:29.573Z</time>
      </trkpt>
      <trkpt lat="45.61645" lon="5.30824">
        <ele>362</ele>
        <time>2021-10-02T11:37:28.573Z</time>
      </trkpt>
      <trkpt lat="45.61646" lon="5.30814">
        <ele>362</ele>
        <time>2021-10-02T11:37:27.573Z</time>
      </trkpt>
      <trkpt lat="45.61648" lon="5.30804">
        <ele>362</ele>
        <time>2021-10-02T11:37:26.572Z</time>
      </trkpt>
      <trkpt lat="45.61649" lon="5.30793">
        <ele>363</ele>
        <time>2021-10-02T11:37:25.573Z</time>
      </trkpt>
      <trkpt lat="45.6165" lon="5.30783">
        <ele>363</ele>
        <time>2021-10-02T11:37:24.572Z</time>
      </trkpt>
      <trkpt lat="45.61652" lon="5.30772">
        <ele>363</ele>
        <time>2021-10-02T11:37:23.573Z</time>
      </trkpt>
      <trkpt lat="45.61654" lon="5.30762">
        <ele>363</ele>
        <time>2021-10-02T11:37:22.572Z</time>
      </trkpt>
      <trkpt lat="45.61655" lon="5.30751">
        <ele>364</ele>
        <time>2021-10-02T11:37:21.573Z</time>
      </trkpt>
      <trkpt lat="45.61657" lon="5.3074">
        <ele>364</ele>
        <time>2021-10-02T11:37:20.572Z</time>
      </trkpt>
      <trkpt lat="45.61659" lon="5.30728">
        <ele>365</ele>
        <time>2021-10-02T11:37:19.572Z</time>
      </trkpt>
      <trkpt lat="45.61662" lon="5.30717">
        <ele>365</ele>
        <time>2021-10-02T11:37:18.573Z</time>
      </trkpt>
      <trkpt lat="45.61664" lon="5.30705">
        <ele>366</ele>
        <time>2021-10-02T11:37:17.573Z</time>
      </trkpt>
      <trkpt lat="45.61667" lon="5.30693">
        <ele>366</ele>
        <time>2021-10-02T11:37:16.573Z</time>
      </trkpt>
      <trkpt lat="45.6167" lon="5.30682">
        <ele>366</ele>
        <time>2021-10-02T11:37:15.573Z</time>
      </trkpt>
      <trkpt lat="45.61672" lon="5.3067">
        <ele>367</ele>
        <time>2021-10-02T11:37:14.573Z</time>
      </trkpt>
      <trkpt lat="45.61675" lon="5.30659">
        <ele>367</ele>
        <time>2021-10-02T11:37:13.573Z</time>
      </trkpt>
      <trkpt lat="45.61677" lon="5.30648">
        <ele>368</ele>
        <time>2021-10-02T11:37:12.572Z</time>
      </trkpt>
      <trkpt lat="45.61679" lon="5.30637">
        <ele>368</ele>
        <time>2021-10-02T11:37:11.572Z</time>
      </trkpt>
      <trkpt lat="45.61681" lon="5.30626">
        <ele>368</ele>
        <time>2021-10-02T11:37:10.572Z</time>
      </trkpt>
      <trkpt lat="45.61683" lon="5.30615">
        <ele>369</ele>
        <time>2021-10-02T11:37:09.572Z</time>
      </trkpt>
      <trkpt lat="45.61685" lon="5.30605">
        <ele>369</ele>
        <time>2021-10-02T11:37:08.572Z</time>
      </trkpt>
      <trkpt lat="45.61687" lon="5.30594">
        <ele>369</ele>
        <time>2021-10-02T11:37:07.572Z</time>
      </trkpt>
      <trkpt lat="45.61689" lon="5.30584">
        <ele>370</ele>
        <time>2021-10-02T11:37:06.573Z</time>
      </trkpt>
      <trkpt lat="45.61691" lon="5.30574">
        <ele>370</ele>
        <time>2021-10-02T11:37:05.573Z</time>
      </trkpt>
      <trkpt lat="45.61692" lon="5.30564">
        <ele>370</ele>
        <time>2021-10-02T11:37:04.573Z</time>
      </trkpt>
      <trkpt lat="45.61694" lon="5.30554">
        <ele>370</ele>
        <time>2021-10-02T11:37:03.573Z</time>
      </trkpt>
      <trkpt lat="45.61695" lon="5.30544">
        <ele>370</ele>
        <time>2021-10-02T11:37:02.573Z</time>
      </trkpt>
      <trkpt lat="45.61696" lon="5.30534">
        <ele>370</ele>
        <time>2021-10-02T11:37:01.573Z</time>
      </trkpt>
      <trkpt lat="45.61697" lon="5.30524">
        <ele>370</ele>
        <time>2021-10-02T11:37:00.572Z</time>
      </trkpt>
      <trkpt lat="45.61699" lon="5.30515">
        <ele>370</ele>
        <time>2021-10-02T11:36:59.572Z</time>
      </trkpt>
      <trkpt lat="45.617" lon="5.30505">
        <ele>371</ele>
        <time>2021-10-02T11:36:58.573Z</time>
      </trkpt>
      <trkpt lat="45.61701" lon="5.30496">
        <ele>371</ele>
        <time>2021-10-02T11:36:57.573Z</time>
      </trkpt>
      <trkpt lat="45.61702" lon="5.30487">
        <ele>371</ele>
        <time>2021-10-02T11:36:56.573Z</time>
      </trkpt>
      <trkpt lat="45.61703" lon="5.30478">
        <ele>372</ele>
        <time>2021-10-02T11:36:55.573Z</time>
      </trkpt>
      <trkpt lat="45.61704" lon="5.30469">
        <ele>371</ele>
        <time>2021-10-02T11:36:54.572Z</time>
      </trkpt>
      <trkpt lat="45.61704" lon="5.30461">
        <ele>372</ele>
        <time>2021-10-02T11:36:53.572Z</time>
      </trkpt>
      <trkpt lat="45.61705" lon="5.30452">
        <ele>371</ele>
        <time>2021-10-02T11:36:52.573Z</time>
      </trkpt>
      <trkpt lat="45.61706" lon="5.30444">
        <ele>371</ele>
        <time>2021-10-02T11:36:51.573Z</time>
      </trkpt>
      <trkpt lat="45.61706" lon="5.30436">
        <ele>371</ele>
        <time>2021-10-02T11:36:50.572Z</time>
      </trkpt>
      <trkpt lat="45.61707" lon="5.30428">
        <ele>371</ele>
        <time>2021-10-02T11:36:49.572Z</time>
      </trkpt>
      <trkpt lat="45.61708" lon="5.30421">
        <ele>370</ele>
        <time>2021-10-02T11:36:48.573Z</time>
      </trkpt>
      <trkpt lat="45.61709" lon="5.30414">
        <ele>370</ele>
        <time>2021-10-02T11:36:47.572Z</time>
      </trkpt>
      <trkpt lat="45.6171" lon="5.30407">
        <ele>370</ele>
        <time>2021-10-02T11:36:46.572Z</time>
      </trkpt>
      <trkpt lat="45.61711" lon="5.304">
        <ele>371</ele>
        <time>2021-10-02T11:36:45.572Z</time>
      </trkpt>
      <trkpt lat="45.61711" lon="5.30393">
        <ele>371</ele>
        <time>2021-10-02T11:36:44.573Z</time>
      </trkpt>
      <trkpt lat="45.61712" lon="5.30387">
        <ele>372</ele>
        <time>2021-10-02T11:36:43.572Z</time>
      </trkpt>
      <trkpt lat="45.61712" lon="5.3038">
        <ele>372</ele>
        <time>2021-10-02T11:36:42.572Z</time>
      </trkpt>
      <trkpt lat="45.61712" lon="5.30373">
        <ele>372</ele>
        <time>2021-10-02T11:36:41.572Z</time>
      </trkpt>
      <trkpt lat="45.61713" lon="5.30366">
        <ele>372</ele>
        <time>2021-10-02T11:36:40.573Z</time>
      </trkpt>
      <trkpt lat="45.61713" lon="5.30358">
        <ele>373</ele>
        <time>2021-10-02T11:36:39.572Z</time>
      </trkpt>
      <trkpt lat="45.61713" lon="5.30351">
        <ele>373</ele>
        <time>2021-10-02T11:36:38.573Z</time>
      </trkpt>
      <trkpt lat="45.61713" lon="5.30344">
        <ele>373</ele>
        <time>2021-10-02T11:36:37.573Z</time>
      </trkpt>
      <trkpt lat="45.61713" lon="5.30337">
        <ele>372</ele>
        <time>2021-10-02T11:36:36.573Z</time>
      </trkpt>
      <trkpt lat="45.61713" lon="5.30329">
        <ele>372</ele>
        <time>2021-10-02T11:36:35.573Z</time>
      </trkpt>
      <trkpt lat="45.61713" lon="5.30322">
        <ele>372</ele>
        <time>2021-10-02T11:36:34.573Z</time>
      </trkpt>
      <trkpt lat="45.61713" lon="5.30314">
        <ele>372</ele>
        <time>2021-10-02T11:36:33.573Z</time>
      </trkpt>
      <trkpt lat="45.61712" lon="5.30305">
        <ele>373</ele>
        <time>2021-10-02T11:36:32.573Z</time>
      </trkpt>
      <trkpt lat="45.61712" lon="5.30297">
        <ele>373</ele>
        <time>2021-10-02T11:36:31.572Z</time>
      </trkpt>
      <trkpt lat="45.6171" lon="5.30288">
        <ele>373</ele>
        <time>2021-10-02T11:36:30.572Z</time>
      </trkpt>
      <trkpt lat="45.61709" lon="5.3028">
        <ele>374</ele>
        <time>2021-10-02T11:36:29.573Z</time>
      </trkpt>
      <trkpt lat="45.61708" lon="5.30272">
        <ele>374</ele>
        <time>2021-10-02T11:36:28.573Z</time>
      </trkpt>
      <trkpt lat="45.61706" lon="5.30264">
        <ele>375</ele>
        <time>2021-10-02T11:36:27.573Z</time>
      </trkpt>
      <trkpt lat="45.61705" lon="5.30256">
        <ele>375</ele>
        <time>2021-10-02T11:36:26.572Z</time>
      </trkpt>
      <trkpt lat="45.61703" lon="5.30249">
        <ele>375</ele>
        <time>2021-10-02T11:36:25.573Z</time>
      </trkpt>
      <trkpt lat="45.61702" lon="5.30241">
        <ele>375</ele>
        <time>2021-10-02T11:36:24.573Z</time>
      </trkpt>
      <trkpt lat="45.617" lon="5.30234">
        <ele>375</ele>
        <time>2021-10-02T11:36:23.573Z</time>
      </trkpt>
      <trkpt lat="45.61699" lon="5.30227">
        <ele>375</ele>
        <time>2021-10-02T11:36:22.573Z</time>
      </trkpt>
      <trkpt lat="45.61697" lon="5.3022">
        <ele>375</ele>
        <time>2021-10-02T11:36:21.572Z</time>
      </trkpt>
      <trkpt lat="45.61696" lon="5.30214">
        <ele>375</ele>
        <time>2021-10-02T11:36:20.572Z</time>
      </trkpt>
      <trkpt lat="45.61695" lon="5.30207">
        <ele>375</ele>
        <time>2021-10-02T11:36:19.572Z</time>
      </trkpt>
      <trkpt lat="45.61694" lon="5.30201">
        <ele>376</ele>
        <time>2021-10-02T11:36:18.573Z</time>
      </trkpt>
      <trkpt lat="45.61693" lon="5.30195">
        <ele>376</ele>
        <time>2021-10-02T11:36:17.573Z</time>
      </trkpt>
      <trkpt lat="45.61693" lon="5.30189">
        <ele>375</ele>
        <time>2021-10-02T11:36:16.573Z</time>
      </trkpt>
      <trkpt lat="45.61692" lon="5.30183">
        <ele>375</ele>
        <time>2021-10-02T11:36:15.573Z</time>
      </trkpt>
      <trkpt lat="45.61692" lon="5.30177">
        <ele>374</ele>
        <time>2021-10-02T11:36:14.573Z</time>
      </trkpt>
      <trkpt lat="45.61691" lon="5.30172">
        <ele>374</ele>
        <time>2021-10-02T11:36:13.573Z</time>
      </trkpt>
      <trkpt lat="45.6169" lon="5.30166">
        <ele>374</ele>
        <time>2021-10-02T11:36:12.573Z</time>
      </trkpt>
      <trkpt lat="45.6169" lon="5.30161">
        <ele>374</ele>
        <time>2021-10-02T11:36:11.573Z</time>
      </trkpt>
      <trkpt lat="45.6169" lon="5.30154">
        <ele>374</ele>
        <time>2021-10-02T11:36:10.572Z</time>
      </trkpt>
      <trkpt lat="45.61689" lon="5.30149">
        <ele>374</ele>
        <time>2021-10-02T11:36:09.572Z</time>
      </trkpt>
      <trkpt lat="45.61688" lon="5.30143">
        <ele>374</ele>
        <time>2021-10-02T11:36:08.573Z</time>
      </trkpt>
      <trkpt lat="45.61688" lon="5.30139">
        <ele>374</ele>
        <time>2021-10-02T11:36:07.572Z</time>
      </trkpt>
      <trkpt lat="45.61688" lon="5.30133">
        <ele>374</ele>
        <time>2021-10-02T11:36:06.573Z</time>
      </trkpt>
      <trkpt lat="45.61688" lon="5.30127">
        <ele>374</ele>
        <time>2021-10-02T11:36:05.572Z</time>
      </trkpt>
      <trkpt lat="45.61688" lon="5.30122">
        <ele>374</ele>
        <time>2021-10-02T11:36:04.573Z</time>
      </trkpt>
      <trkpt lat="45.61688" lon="5.30116">
        <ele>374</ele>
        <time>2021-10-02T11:36:03.573Z</time>
      </trkpt>
      <trkpt lat="45.61688" lon="5.30111">
        <ele>374</ele>
        <time>2021-10-02T11:36:02.573Z</time>
      </trkpt>
      <trkpt lat="45.61688" lon="5.30105">
        <ele>374</ele>
        <time>2021-10-02T11:36:01.573Z</time>
      </trkpt>
      <trkpt lat="45.61688" lon="5.30099">
        <ele>374</ele>
        <time>2021-10-02T11:36:00.572Z</time>
      </trkpt>
      <trkpt lat="45.61688" lon="5.30094">
        <ele>374</ele>
        <time>2021-10-02T11:35:59.573Z</time>
      </trkpt>
      <trkpt lat="45.61688" lon="5.30088">
        <ele>374</ele>
        <time>2021-10-02T11:35:58.573Z</time>
      </trkpt>
      <trkpt lat="45.61688" lon="5.30083">
        <ele>374</ele>
        <time>2021-10-02T11:35:57.573Z</time>
      </trkpt>
      <trkpt lat="45.61688" lon="5.30077">
        <ele>374</ele>
        <time>2021-10-02T11:35:56.572Z</time>
      </trkpt>
      <trkpt lat="45.61688" lon="5.30072">
        <ele>374</ele>
        <time>2021-10-02T11:35:55.572Z</time>
      </trkpt>
      <trkpt lat="45.61688" lon="5.30067">
        <ele>374</ele>
        <time>2021-10-02T11:35:54.573Z</time>
      </trkpt>
      <trkpt lat="45.61688" lon="5.30061">
        <ele>374</ele>
        <time>2021-10-02T11:35:53.573Z</time>
      </trkpt>
      <trkpt lat="45.61688" lon="5.30057">
        <ele>375</ele>
        <time>2021-10-02T11:35:52.573Z</time>
      </trkpt>
      <trkpt lat="45.61688" lon="5.30052">
        <ele>374</ele>
        <time>2021-10-02T11:35:51.573Z</time>
      </trkpt>
      <trkpt lat="45.61688" lon="5.30048">
        <ele>374</ele>
        <time>2021-10-02T11:35:50.573Z</time>
      </trkpt>
      <trkpt lat="45.61688" lon="5.30043">
        <ele>374</ele>
        <time>2021-10-02T11:35:49.572Z</time>
      </trkpt>
      <trkpt lat="45.61688" lon="5.30039">
        <ele>374</ele>
        <time>2021-10-02T11:35:48.572Z</time>
      </trkpt>
      <trkpt lat="45.61688" lon="5.30034">
        <ele>374</ele>
        <time>2021-10-02T11:35:47.572Z</time>
      </trkpt>
      <trkpt lat="45.61688" lon="5.3003">
        <ele>374</ele>
        <time>2021-10-02T11:35:46.573Z</time>
      </trkpt>
      <trkpt lat="45.61687" lon="5.30026">
        <ele>374</ele>
        <time>2021-10-02T11:35:45.572Z</time>
      </trkpt>
      <trkpt lat="45.61687" lon="5.30022">
        <ele>374</ele>
        <time>2021-10-02T11:35:44.572Z</time>
      </trkpt>
      <trkpt lat="45.61687" lon="5.30018">
        <ele>374</ele>
        <time>2021-10-02T11:35:43.573Z</time>
      </trkpt>
      <trkpt lat="45.61687" lon="5.30014">
        <ele>374</ele>
        <time>2021-10-02T11:35:42.573Z</time>
      </trkpt>
      <trkpt lat="45.61687" lon="5.3001">
        <ele>374</ele>
        <time>2021-10-02T11:35:41.573Z</time>
      </trkpt>
      <trkpt lat="45.61687" lon="5.30006">
        <ele>373</ele>
        <time>2021-10-02T11:35:40.573Z</time>
      </trkpt>
      <trkpt lat="45.61687" lon="5.30001">
        <ele>373</ele>
        <time>2021-10-02T11:35:39.572Z</time>
      </trkpt>
      <trkpt lat="45.61687" lon="5.29997">
        <ele>373</ele>
        <time>2021-10-02T11:35:38.573Z</time>
      </trkpt>
      <trkpt lat="45.61687" lon="5.29993">
        <ele>373</ele>
        <time>2021-10-02T11:35:37.572Z</time>
      </trkpt>
      <trkpt lat="45.61687" lon="5.29989">
        <ele>373</ele>
        <time>2021-10-02T11:35:36.573Z</time>
      </trkpt>
      <trkpt lat="45.61686" lon="5.29985">
        <ele>373</ele>
        <time>2021-10-02T11:35:35.572Z</time>
      </trkpt>
      <trkpt lat="45.61686" lon="5.29981">
        <ele>373</ele>
        <time>2021-10-02T11:35:34.572Z</time>
      </trkpt>
      <trkpt lat="45.61685" lon="5.29977">
        <ele>372</ele>
        <time>2021-10-02T11:35:33.573Z</time>
      </trkpt>
      <trkpt lat="45.61684" lon="5.29973">
        <ele>372</ele>
        <time>2021-10-02T11:35:32.573Z</time>
      </trkpt>
      <trkpt lat="45.61683" lon="5.29969">
        <ele>372</ele>
        <time>2021-10-02T11:35:31.572Z</time>
      </trkpt>
      <trkpt lat="45.61682" lon="5.29965">
        <ele>371</ele>
        <time>2021-10-02T11:35:30.572Z</time>
      </trkpt>
      <trkpt lat="45.6168" lon="5.29962">
        <ele>371</ele>
        <time>2021-10-02T11:35:29.573Z</time>
      </trkpt>
      <trkpt lat="45.61677" lon="5.29959">
        <ele>370</ele>
        <time>2021-10-02T11:35:28.573Z</time>
      </trkpt>
      <trkpt lat="45.61675" lon="5.29956">
        <ele>370</ele>
        <time>2021-10-02T11:35:27.573Z</time>
      </trkpt>
      <trkpt lat="45.61673" lon="5.29953">
        <ele>370</ele>
        <time>2021-10-02T11:35:26.572Z</time>
      </trkpt>
      <trkpt lat="45.6167" lon="5.29951">
        <ele>369</ele>
        <time>2021-10-02T11:35:25.572Z</time>
      </trkpt>
      <trkpt lat="45.61668" lon="5.29949">
        <ele>368</ele>
        <time>2021-10-02T11:35:24.573Z</time>
      </trkpt>
      <trkpt lat="45.61666" lon="5.29946">
        <ele>367</ele>
        <time>2021-10-02T11:35:23.573Z</time>
      </trkpt>
      <trkpt lat="45.61664" lon="5.29944">
        <ele>367</ele>
        <time>2021-10-02T11:35:22.572Z</time>
      </trkpt>
      <trkpt lat="45.61662" lon="5.29941">
        <ele>366</ele>
        <time>2021-10-02T11:35:21.573Z</time>
      </trkpt>
      <trkpt lat="45.6166" lon="5.29938">
        <ele>366</ele>
        <time>2021-10-02T11:35:20.573Z</time>
      </trkpt>
      <trkpt lat="45.61658" lon="5.29936">
        <ele>366</ele>
        <time>2021-10-02T11:35:19.573Z</time>
      </trkpt>
      <trkpt lat="45.61655" lon="5.29933">
        <ele>366</ele>
        <time>2021-10-02T11:35:18.573Z</time>
      </trkpt>
      <trkpt lat="45.61654" lon="5.2993">
        <ele>367</ele>
        <time>2021-10-02T11:35:17.573Z</time>
      </trkpt>
      <trkpt lat="45.61652" lon="5.29927">
        <ele>367</ele>
        <time>2021-10-02T11:35:16.573Z</time>
      </trkpt>
      <trkpt lat="45.61651" lon="5.29923">
        <ele>368</ele>
        <time>2021-10-02T11:35:15.573Z</time>
      </trkpt>
      <trkpt lat="45.61649" lon="5.2992">
        <ele>368</ele>
        <time>2021-10-02T11:35:14.573Z</time>
      </trkpt>
      <trkpt lat="45.61648" lon="5.29917">
        <ele>367</ele>
        <time>2021-10-02T11:35:13.572Z</time>
      </trkpt>
      <trkpt lat="45.61647" lon="5.29913">
        <ele>367</ele>
        <time>2021-10-02T11:35:12.573Z</time>
      </trkpt>
      <trkpt lat="45.61647" lon="5.2991">
        <ele>366</ele>
        <time>2021-10-02T11:35:11.573Z</time>
      </trkpt>
      <trkpt lat="45.61646" lon="5.29908">
        <ele>366</ele>
        <time>2021-10-02T11:35:10.573Z</time>
      </trkpt>
      <trkpt lat="45.61645" lon="5.29904">
        <ele>367</ele>
        <time>2021-10-02T11:35:09.573Z</time>
      </trkpt>
      <trkpt lat="45.61644" lon="5.29901">
        <ele>367</ele>
        <time>2021-10-02T11:35:08.573Z</time>
      </trkpt>
      <trkpt lat="45.61643" lon="5.29897">
        <ele>367</ele>
        <time>2021-10-02T11:35:07.572Z</time>
      </trkpt>
      <trkpt lat="45.61643" lon="5.29894">
        <ele>367</ele>
        <time>2021-10-02T11:35:06.573Z</time>
      </trkpt>
      <trkpt lat="45.61642" lon="5.2989">
        <ele>367</ele>
        <time>2021-10-02T11:35:05.573Z</time>
      </trkpt>
      <trkpt lat="45.61642" lon="5.29886">
        <ele>367</ele>
        <time>2021-10-02T11:35:04.573Z</time>
      </trkpt>
      <trkpt lat="45.61641" lon="5.29882">
        <ele>367</ele>
        <time>2021-10-02T11:35:03.572Z</time>
      </trkpt>
      <trkpt lat="45.61641" lon="5.29878">
        <ele>367</ele>
        <time>2021-10-02T11:35:02.572Z</time>
      </trkpt>
      <trkpt lat="45.61641" lon="5.29874">
        <ele>367</ele>
        <time>2021-10-02T11:35:01.572Z</time>
      </trkpt>
      <trkpt lat="45.61641" lon="5.2987">
        <ele>366</ele>
        <time>2021-10-02T11:35:00.573Z</time>
      </trkpt>
      <trkpt lat="45.61641" lon="5.29866">
        <ele>366</ele>
        <time>2021-10-02T11:34:59.572Z</time>
      </trkpt>
      <trkpt lat="45.61641" lon="5.29861">
        <ele>366</ele>
        <time>2021-10-02T11:34:58.573Z</time>
      </trkpt>
      <trkpt lat="45.61641" lon="5.29856">
        <ele>366</ele>
        <time>2021-10-02T11:34:57.572Z</time>
      </trkpt>
      <trkpt lat="45.61641" lon="5.29852">
        <ele>365</ele>
        <time>2021-10-02T11:34:56.573Z</time>
      </trkpt>
      <trkpt lat="45.61641" lon="5.29847">
        <ele>365</ele>
        <time>2021-10-02T11:34:55.573Z</time>
      </trkpt>
      <trkpt lat="45.61641" lon="5.29843">
        <ele>365</ele>
        <time>2021-10-02T11:34:54.573Z</time>
      </trkpt>
      <trkpt lat="45.61641" lon="5.29839">
        <ele>365</ele>
        <time>2021-10-02T11:34:53.573Z</time>
      </trkpt>
      <trkpt lat="45.61642" lon="5.29835">
        <ele>365</ele>
        <time>2021-10-02T11:34:52.573Z</time>
      </trkpt>
      <trkpt lat="45.61643" lon="5.29831">
        <ele>364</ele>
        <time>2021-10-02T11:34:51.573Z</time>
      </trkpt>
      <trkpt lat="45.61644" lon="5.29828">
        <ele>364</ele>
        <time>2021-10-02T11:34:50.573Z</time>
      </trkpt>
      <trkpt lat="45.61644" lon="5.29824">
        <ele>364</ele>
        <time>2021-10-02T11:34:49.573Z</time>
      </trkpt>
      <trkpt lat="45.61645" lon="5.29821">
        <ele>363</ele>
        <time>2021-10-02T11:34:48.573Z</time>
      </trkpt>
      <trkpt lat="45.61645" lon="5.29817">
        <ele>362</ele>
        <time>2021-10-02T11:34:47.573Z</time>
      </trkpt>
      <trkpt lat="45.61646" lon="5.29813">
        <ele>362</ele>
        <time>2021-10-02T11:34:46.573Z</time>
      </trkpt>
      <trkpt lat="45.61646" lon="5.29808">
        <ele>362</ele>
        <time>2021-10-02T11:34:45.572Z</time>
      </trkpt>
      <trkpt lat="45.61646" lon="5.29804">
        <ele>361</ele>
        <time>2021-10-02T11:34:44.573Z</time>
      </trkpt>
      <trkpt lat="45.61647" lon="5.298">
        <ele>361</ele>
        <time>2021-10-02T11:34:43.573Z</time>
      </trkpt>
      <trkpt lat="45.61647" lon="5.29796">
        <ele>361</ele>
        <time>2021-10-02T11:34:42.572Z</time>
      </trkpt>
      <trkpt lat="45.61648" lon="5.29792">
        <ele>360</ele>
        <time>2021-10-02T11:34:41.572Z</time>
      </trkpt>
      <trkpt lat="45.61648" lon="5.29788">
        <ele>360</ele>
        <time>2021-10-02T11:34:40.572Z</time>
      </trkpt>
      <trkpt lat="45.61649" lon="5.29784">
        <ele>360</ele>
        <time>2021-10-02T11:34:39.573Z</time>
      </trkpt>
      <trkpt lat="45.61649" lon="5.2978">
        <ele>360</ele>
        <time>2021-10-02T11:34:38.573Z</time>
      </trkpt>
      <trkpt lat="45.61649" lon="5.29776">
        <ele>360</ele>
        <time>2021-10-02T11:34:37.573Z</time>
      </trkpt>
      <trkpt lat="45.6165" lon="5.29771">
        <ele>359</ele>
        <time>2021-10-02T11:34:36.573Z</time>
      </trkpt>
      <trkpt lat="45.6165" lon="5.29767">
        <ele>358</ele>
        <time>2021-10-02T11:34:35.572Z</time>
      </trkpt>
      <trkpt lat="45.6165" lon="5.29763">
        <ele>358</ele>
        <time>2021-10-02T11:34:34.573Z</time>
      </trkpt>
      <trkpt lat="45.61651" lon="5.2976">
        <ele>357</ele>
        <time>2021-10-02T11:34:33.573Z</time>
      </trkpt>
      <trkpt lat="45.61651" lon="5.29756">
        <ele>357</ele>
        <time>2021-10-02T11:34:32.573Z</time>
      </trkpt>
      <trkpt lat="45.61651" lon="5.29752">
        <ele>357</ele>
        <time>2021-10-02T11:34:31.572Z</time>
      </trkpt>
      <trkpt lat="45.61652" lon="5.29748">
        <ele>357</ele>
        <time>2021-10-02T11:34:30.572Z</time>
      </trkpt>
      <trkpt lat="45.61652" lon="5.29744">
        <ele>357</ele>
        <time>2021-10-02T11:34:29.572Z</time>
      </trkpt>
      <trkpt lat="45.61652" lon="5.2974">
        <ele>357</ele>
        <time>2021-10-02T11:34:28.572Z</time>
      </trkpt>
      <trkpt lat="45.61652" lon="5.29737">
        <ele>357</ele>
        <time>2021-10-02T11:34:27.572Z</time>
      </trkpt>
      <trkpt lat="45.61652" lon="5.29733">
        <ele>357</ele>
        <time>2021-10-02T11:34:26.573Z</time>
      </trkpt>
      <trkpt lat="45.61653" lon="5.29729">
        <ele>356</ele>
        <time>2021-10-02T11:34:25.573Z</time>
      </trkpt>
      <trkpt lat="45.61653" lon="5.29725">
        <ele>356</ele>
        <time>2021-10-02T11:34:24.573Z</time>
      </trkpt>
      <trkpt lat="45.61653" lon="5.29722">
        <ele>356</ele>
        <time>2021-10-02T11:34:23.573Z</time>
      </trkpt>
      <trkpt lat="45.61653" lon="5.29718">
        <ele>356</ele>
        <time>2021-10-02T11:34:22.573Z</time>
      </trkpt>
      <trkpt lat="45.61653" lon="5.29715">
        <ele>356</ele>
        <time>2021-10-02T11:34:21.572Z</time>
      </trkpt>
      <trkpt lat="45.61654" lon="5.29711">
        <ele>355</ele>
        <time>2021-10-02T11:34:20.573Z</time>
      </trkpt>
      <trkpt lat="45.61654" lon="5.29708">
        <ele>355</ele>
        <time>2021-10-02T11:34:19.573Z</time>
      </trkpt>
      <trkpt lat="45.61654" lon="5.29704">
        <ele>355</ele>
        <time>2021-10-02T11:34:18.573Z</time>
      </trkpt>
      <trkpt lat="45.61654" lon="5.297">
        <ele>355</ele>
        <time>2021-10-02T11:34:17.573Z</time>
      </trkpt>
      <trkpt lat="45.61654" lon="5.29696">
        <ele>355</ele>
        <time>2021-10-02T11:34:16.573Z</time>
      </trkpt>
      <trkpt lat="45.61655" lon="5.29692">
        <ele>355</ele>
        <time>2021-10-02T11:34:15.572Z</time>
      </trkpt>
      <trkpt lat="45.61655" lon="5.29688">
        <ele>355</ele>
        <time>2021-10-02T11:34:14.572Z</time>
      </trkpt>
      <trkpt lat="45.61656" lon="5.29684">
        <ele>355</ele>
        <time>2021-10-02T11:34:13.573Z</time>
      </trkpt>
      <trkpt lat="45.61656" lon="5.2968">
        <ele>355</ele>
        <time>2021-10-02T11:34:12.573Z</time>
      </trkpt>
      <trkpt lat="45.61657" lon="5.29677">
        <ele>354</ele>
        <time>2021-10-02T11:34:11.572Z</time>
      </trkpt>
      <trkpt lat="45.61657" lon="5.29673">
        <ele>354</ele>
        <time>2021-10-02T11:34:10.573Z</time>
      </trkpt>
      <trkpt lat="45.61658" lon="5.29669">
        <ele>354</ele>
        <time>2021-10-02T11:34:09.573Z</time>
      </trkpt>
      <trkpt lat="45.61658" lon="5.29666">
        <ele>354</ele>
        <time>2021-10-02T11:34:08.572Z</time>
      </trkpt>
      <trkpt lat="45.61659" lon="5.29662">
        <ele>354</ele>
        <time>2021-10-02T11:34:07.573Z</time>
      </trkpt>
      <trkpt lat="45.61659" lon="5.29658">
        <ele>354</ele>
        <time>2021-10-02T11:34:06.573Z</time>
      </trkpt>
      <trkpt lat="45.6166" lon="5.29655">
        <ele>354</ele>
        <time>2021-10-02T11:34:05.573Z</time>
      </trkpt>
      <trkpt lat="45.61661" lon="5.29651">
        <ele>354</ele>
        <time>2021-10-02T11:34:04.573Z</time>
      </trkpt>
      <trkpt lat="45.61661" lon="5.29647">
        <ele>354</ele>
        <time>2021-10-02T11:34:03.572Z</time>
      </trkpt>
      <trkpt lat="45.61662" lon="5.29643">
        <ele>353</ele>
        <time>2021-10-02T11:34:02.573Z</time>
      </trkpt>
      <trkpt lat="45.61663" lon="5.29639">
        <ele>353</ele>
        <time>2021-10-02T11:34:01.573Z</time>
      </trkpt>
      <trkpt lat="45.61664" lon="5.29635">
        <ele>353</ele>
        <time>2021-10-02T11:34:00.573Z</time>
      </trkpt>
      <trkpt lat="45.61665" lon="5.29631">
        <ele>353</ele>
        <time>2021-10-02T11:33:59.573Z</time>
      </trkpt>
      <trkpt lat="45.61665" lon="5.29626">
        <ele>353</ele>
        <time>2021-10-02T11:33:58.572Z</time>
      </trkpt>
      <trkpt lat="45.61666" lon="5.29622">
        <ele>353</ele>
        <time>2021-10-02T11:33:57.573Z</time>
      </trkpt>
      <trkpt lat="45.61667" lon="5.29618">
        <ele>353</ele>
        <time>2021-10-02T11:33:56.573Z</time>
      </trkpt>
      <trkpt lat="45.61667" lon="5.29613">
        <ele>353</ele>
        <time>2021-10-02T11:33:55.573Z</time>
      </trkpt>
      <trkpt lat="45.61668" lon="5.29609">
        <ele>353</ele>
        <time>2021-10-02T11:33:54.573Z</time>
      </trkpt>
      <trkpt lat="45.61668" lon="5.29605">
        <ele>353</ele>
        <time>2021-10-02T11:33:53.572Z</time>
      </trkpt>
      <trkpt lat="45.61669" lon="5.296">
        <ele>353</ele>
        <time>2021-10-02T11:33:52.573Z</time>
      </trkpt>
      <trkpt lat="45.61669" lon="5.29597">
        <ele>353</ele>
        <time>2021-10-02T11:33:51.573Z</time>
      </trkpt>
      <trkpt lat="45.6167" lon="5.29593">
        <ele>353</ele>
        <time>2021-10-02T11:33:50.572Z</time>
      </trkpt>
      <trkpt lat="45.61671" lon="5.29589">
        <ele>352</ele>
        <time>2021-10-02T11:33:49.572Z</time>
      </trkpt>
      <trkpt lat="45.61671" lon="5.29585">
        <ele>352</ele>
        <time>2021-10-02T11:33:48.573Z</time>
      </trkpt>
      <trkpt lat="45.61672" lon="5.29581">
        <ele>351</ele>
        <time>2021-10-02T11:33:47.573Z</time>
      </trkpt>
      <trkpt lat="45.61673" lon="5.29577">
        <ele>351</ele>
        <time>2021-10-02T11:33:46.572Z</time>
      </trkpt>
      <trkpt lat="45.61674" lon="5.29573">
        <ele>351</ele>
        <time>2021-10-02T11:33:45.573Z</time>
      </trkpt>
      <trkpt lat="45.61675" lon="5.2957">
        <ele>351</ele>
        <time>2021-10-02T11:33:44.573Z</time>
      </trkpt>
      <trkpt lat="45.61675" lon="5.29566">
        <ele>350</ele>
        <time>2021-10-02T11:33:43.572Z</time>
      </trkpt>
      <trkpt lat="45.61676" lon="5.29563">
        <ele>350</ele>
        <time>2021-10-02T11:33:42.573Z</time>
      </trkpt>
      <trkpt lat="45.61677" lon="5.29559">
        <ele>350</ele>
        <time>2021-10-02T11:33:41.573Z</time>
      </trkpt>
      <trkpt lat="45.61678" lon="5.29555">
        <ele>349</ele>
        <time>2021-10-02T11:33:40.573Z</time>
      </trkpt>
      <trkpt lat="45.61679" lon="5.29551">
        <ele>349</ele>
        <time>2021-10-02T11:33:39.572Z</time>
      </trkpt>
      <trkpt lat="45.6168" lon="5.29547">
        <ele>349</ele>
        <time>2021-10-02T11:33:38.572Z</time>
      </trkpt>
      <trkpt lat="45.6168" lon="5.29543">
        <ele>348</ele>
        <time>2021-10-02T11:33:37.573Z</time>
      </trkpt>
      <trkpt lat="45.61681" lon="5.29539">
        <ele>348</ele>
        <time>2021-10-02T11:33:36.573Z</time>
      </trkpt>
      <trkpt lat="45.61682" lon="5.29535">
        <ele>348</ele>
        <time>2021-10-02T11:33:35.573Z</time>
      </trkpt>
      <trkpt lat="45.61683" lon="5.29531">
        <ele>348</ele>
        <time>2021-10-02T11:33:34.573Z</time>
      </trkpt>
      <trkpt lat="45.61684" lon="5.29527">
        <ele>348</ele>
        <time>2021-10-02T11:33:33.573Z</time>
      </trkpt>
      <trkpt lat="45.61684" lon="5.29523">
        <ele>348</ele>
        <time>2021-10-02T11:33:32.572Z</time>
      </trkpt>
      <trkpt lat="45.61685" lon="5.29519">
        <ele>348</ele>
        <time>2021-10-02T11:33:31.572Z</time>
      </trkpt>
      <trkpt lat="45.61686" lon="5.29515">
        <ele>348</ele>
        <time>2021-10-02T11:33:30.573Z</time>
      </trkpt>
      <trkpt lat="45.61686" lon="5.29512">
        <ele>348</ele>
        <time>2021-10-02T11:33:29.573Z</time>
      </trkpt>
      <trkpt lat="45.61687" lon="5.29508">
        <ele>349</ele>
        <time>2021-10-02T11:33:28.572Z</time>
      </trkpt>
      <trkpt lat="45.61687" lon="5.29504">
        <ele>348</ele>
        <time>2021-10-02T11:33:27.572Z</time>
      </trkpt>
      <trkpt lat="45.61688" lon="5.29501">
        <ele>348</ele>
        <time>2021-10-02T11:33:26.573Z</time>
      </trkpt>
      <trkpt lat="45.61688" lon="5.29497">
        <ele>348</ele>
        <time>2021-10-02T11:33:25.573Z</time>
      </trkpt>
      <trkpt lat="45.61688" lon="5.29493">
        <ele>348</ele>
        <time>2021-10-02T11:33:24.573Z</time>
      </trkpt>
      <trkpt lat="45.61689" lon="5.2949">
        <ele>348</ele>
        <time>2021-10-02T11:33:23.573Z</time>
      </trkpt>
      <trkpt lat="45.6169" lon="5.29486">
        <ele>348</ele>
        <time>2021-10-02T11:33:22.573Z</time>
      </trkpt>
      <trkpt lat="45.6169" lon="5.29482">
        <ele>348</ele>
        <time>2021-10-02T11:33:21.573Z</time>
      </trkpt>
      <trkpt lat="45.6169" lon="5.29478">
        <ele>348</ele>
        <time>2021-10-02T11:33:20.572Z</time>
      </trkpt>
      <trkpt lat="45.6169" lon="5.29475">
        <ele>347</ele>
        <time>2021-10-02T11:33:19.573Z</time>
      </trkpt>
      <trkpt lat="45.61691" lon="5.29471">
        <ele>347</ele>
        <time>2021-10-02T11:33:18.573Z</time>
      </trkpt>
      <trkpt lat="45.61691" lon="5.29467">
        <ele>346</ele>
        <time>2021-10-02T11:33:17.573Z</time>
      </trkpt>
      <trkpt lat="45.61691" lon="5.29463">
        <ele>345</ele>
        <time>2021-10-02T11:33:16.573Z</time>
      </trkpt>
      <trkpt lat="45.61691" lon="5.2946">
        <ele>345</ele>
        <time>2021-10-02T11:33:15.573Z</time>
      </trkpt>
      <trkpt lat="45.61692" lon="5.29456">
        <ele>344</ele>
        <time>2021-10-02T11:33:14.573Z</time>
      </trkpt>
      <trkpt lat="45.61692" lon="5.29452">
        <ele>344</ele>
        <time>2021-10-02T11:33:13.573Z</time>
      </trkpt>
      <trkpt lat="45.61692" lon="5.29449">
        <ele>344</ele>
        <time>2021-10-02T11:33:12.573Z</time>
      </trkpt>
      <trkpt lat="45.61692" lon="5.29445">
        <ele>344</ele>
        <time>2021-10-02T11:33:11.573Z</time>
      </trkpt>
      <trkpt lat="45.61692" lon="5.29441">
        <ele>344</ele>
        <time>2021-10-02T11:33:10.573Z</time>
      </trkpt>
      <trkpt lat="45.61692" lon="5.29437">
        <ele>344</ele>
        <time>2021-10-02T11:33:09.573Z</time>
      </trkpt>
      <trkpt lat="45.61693" lon="5.29433">
        <ele>344</ele>
        <time>2021-10-02T11:33:08.573Z</time>
      </trkpt>
      <trkpt lat="45.61693" lon="5.2943">
        <ele>344</ele>
        <time>2021-10-02T11:33:07.573Z</time>
      </trkpt>
      <trkpt lat="45.61693" lon="5.29426">
        <ele>343</ele>
        <time>2021-10-02T11:33:06.573Z</time>
      </trkpt>
      <trkpt lat="45.61693" lon="5.29423">
        <ele>343</ele>
        <time>2021-10-02T11:33:05.572Z</time>
      </trkpt>
      <trkpt lat="45.61693" lon="5.29419">
        <ele>343</ele>
        <time>2021-10-02T11:33:04.573Z</time>
      </trkpt>
      <trkpt lat="45.61694" lon="5.29416">
        <ele>343</ele>
        <time>2021-10-02T11:33:03.573Z</time>
      </trkpt>
      <trkpt lat="45.61694" lon="5.29412">
        <ele>342</ele>
        <time>2021-10-02T11:33:02.573Z</time>
      </trkpt>
      <trkpt lat="45.61694" lon="5.29409">
        <ele>342</ele>
        <time>2021-10-02T11:33:01.573Z</time>
      </trkpt>
      <trkpt lat="45.61694" lon="5.29405">
        <ele>341</ele>
        <time>2021-10-02T11:33:00.573Z</time>
      </trkpt>
      <trkpt lat="45.61694" lon="5.29402">
        <ele>341</ele>
        <time>2021-10-02T11:32:59.573Z</time>
      </trkpt>
      <trkpt lat="45.61695" lon="5.29398">
        <ele>341</ele>
        <time>2021-10-02T11:32:58.573Z</time>
      </trkpt>
      <trkpt lat="45.61695" lon="5.29395">
        <ele>340</ele>
        <time>2021-10-02T11:32:57.572Z</time>
      </trkpt>
      <trkpt lat="45.61695" lon="5.29391">
        <ele>340</ele>
        <time>2021-10-02T11:32:56.573Z</time>
      </trkpt>
      <trkpt lat="45.61696" lon="5.29387">
        <ele>339</ele>
        <time>2021-10-02T11:32:55.573Z</time>
      </trkpt>
      <trkpt lat="45.61696" lon="5.29383">
        <ele>339</ele>
        <time>2021-10-02T11:32:54.573Z</time>
      </trkpt>
      <trkpt lat="45.61697" lon="5.29379">
        <ele>339</ele>
        <time>2021-10-02T11:32:53.573Z</time>
      </trkpt>
      <trkpt lat="45.61697" lon="5.29376">
        <ele>339</ele>
        <time>2021-10-02T11:32:52.572Z</time>
      </trkpt>
      <trkpt lat="45.61698" lon="5.29372">
        <ele>339</ele>
        <time>2021-10-02T11:32:51.573Z</time>
      </trkpt>
      <trkpt lat="45.61698" lon="5.29368">
        <ele>339</ele>
        <time>2021-10-02T11:32:50.573Z</time>
      </trkpt>
      <trkpt lat="45.61699" lon="5.29364">
        <ele>339</ele>
        <time>2021-10-02T11:32:49.573Z</time>
      </trkpt>
      <trkpt lat="45.617" lon="5.2936">
        <ele>339</ele>
        <time>2021-10-02T11:32:48.573Z</time>
      </trkpt>
      <trkpt lat="45.61701" lon="5.29356">
        <ele>338</ele>
        <time>2021-10-02T11:32:47.572Z</time>
      </trkpt>
      <trkpt lat="45.61702" lon="5.29352">
        <ele>338</ele>
        <time>2021-10-02T11:32:46.572Z</time>
      </trkpt>
      <trkpt lat="45.61703" lon="5.29348">
        <ele>338</ele>
        <time>2021-10-02T11:32:45.573Z</time>
      </trkpt>
      <trkpt lat="45.61703" lon="5.29344">
        <ele>337</ele>
        <time>2021-10-02T11:32:44.573Z</time>
      </trkpt>
      <trkpt lat="45.61704" lon="5.2934">
        <ele>337</ele>
        <time>2021-10-02T11:32:43.573Z</time>
      </trkpt>
      <trkpt lat="45.61705" lon="5.29336">
        <ele>336</ele>
        <time>2021-10-02T11:32:42.573Z</time>
      </trkpt>
      <trkpt lat="45.61706" lon="5.29332">
        <ele>336</ele>
        <time>2021-10-02T11:32:41.573Z</time>
      </trkpt>
      <trkpt lat="45.61707" lon="5.29328">
        <ele>336</ele>
        <time>2021-10-02T11:32:40.573Z</time>
      </trkpt>
      <trkpt lat="45.61708" lon="5.29324">
        <ele>336</ele>
        <time>2021-10-02T11:32:39.572Z</time>
      </trkpt>
      <trkpt lat="45.61708" lon="5.29321">
        <ele>337</ele>
        <time>2021-10-02T11:32:38.573Z</time>
      </trkpt>
      <trkpt lat="45.61709" lon="5.29317">
        <ele>337</ele>
        <time>2021-10-02T11:32:37.572Z</time>
      </trkpt>
      <trkpt lat="45.6171" lon="5.29313">
        <ele>337</ele>
        <time>2021-10-02T11:32:36.573Z</time>
      </trkpt>
      <trkpt lat="45.61711" lon="5.29309">
        <ele>337</ele>
        <time>2021-10-02T11:32:35.572Z</time>
      </trkpt>
      <trkpt lat="45.61712" lon="5.29305">
        <ele>337</ele>
        <time>2021-10-02T11:32:34.573Z</time>
      </trkpt>
      <trkpt lat="45.61713" lon="5.29302">
        <ele>336</ele>
        <time>2021-10-02T11:32:33.573Z</time>
      </trkpt>
      <trkpt lat="45.61714" lon="5.29298">
        <ele>336</ele>
        <time>2021-10-02T11:32:32.573Z</time>
      </trkpt>
      <trkpt lat="45.61714" lon="5.29294">
        <ele>336</ele>
        <time>2021-10-02T11:32:31.572Z</time>
      </trkpt>
      <trkpt lat="45.61715" lon="5.2929">
        <ele>335</ele>
        <time>2021-10-02T11:32:30.573Z</time>
      </trkpt>
      <trkpt lat="45.61716" lon="5.29286">
        <ele>335</ele>
        <time>2021-10-02T11:32:29.573Z</time>
      </trkpt>
      <trkpt lat="45.61717" lon="5.29283">
        <ele>335</ele>
        <time>2021-10-02T11:32:28.572Z</time>
      </trkpt>
      <trkpt lat="45.61718" lon="5.29279">
        <ele>335</ele>
        <time>2021-10-02T11:32:27.573Z</time>
      </trkpt>
      <trkpt lat="45.61719" lon="5.29276">
        <ele>335</ele>
        <time>2021-10-02T11:32:26.572Z</time>
      </trkpt>
      <trkpt lat="45.6172" lon="5.29272">
        <ele>335</ele>
        <time>2021-10-02T11:32:25.573Z</time>
      </trkpt>
      <trkpt lat="45.61721" lon="5.29269">
        <ele>335</ele>
        <time>2021-10-02T11:32:24.572Z</time>
      </trkpt>
      <trkpt lat="45.61722" lon="5.29265">
        <ele>335</ele>
        <time>2021-10-02T11:32:23.572Z</time>
      </trkpt>
      <trkpt lat="45.61723" lon="5.29262">
        <ele>335</ele>
        <time>2021-10-02T11:32:22.572Z</time>
      </trkpt>
      <trkpt lat="45.61724" lon="5.29259">
        <ele>336</ele>
        <time>2021-10-02T11:32:21.573Z</time>
      </trkpt>
      <trkpt lat="45.61725" lon="5.29255">
        <ele>336</ele>
        <time>2021-10-02T11:32:20.572Z</time>
      </trkpt>
      <trkpt lat="45.61726" lon="5.29251">
        <ele>336</ele>
        <time>2021-10-02T11:32:19.573Z</time>
      </trkpt>
      <trkpt lat="45.61727" lon="5.29247">
        <ele>336</ele>
        <time>2021-10-02T11:32:18.572Z</time>
      </trkpt>
      <trkpt lat="45.61728" lon="5.29244">
        <ele>335</ele>
        <time>2021-10-02T11:32:17.573Z</time>
      </trkpt>
      <trkpt lat="45.61729" lon="5.2924">
        <ele>335</ele>
        <time>2021-10-02T11:32:16.572Z</time>
      </trkpt>
      <trkpt lat="45.6173" lon="5.29237">
        <ele>335</ele>
        <time>2021-10-02T11:32:15.573Z</time>
      </trkpt>
      <trkpt lat="45.61731" lon="5.29233">
        <ele>334</ele>
        <time>2021-10-02T11:32:14.573Z</time>
      </trkpt>
      <trkpt lat="45.61732" lon="5.2923">
        <ele>334</ele>
        <time>2021-10-02T11:32:13.573Z</time>
      </trkpt>
      <trkpt lat="45.61734" lon="5.29227">
        <ele>334</ele>
        <time>2021-10-02T11:32:12.572Z</time>
      </trkpt>
      <trkpt lat="45.61735" lon="5.29224">
        <ele>334</ele>
        <time>2021-10-02T11:32:11.572Z</time>
      </trkpt>
      <trkpt lat="45.61736" lon="5.29221">
        <ele>334</ele>
        <time>2021-10-02T11:32:10.573Z</time>
      </trkpt>
      <trkpt lat="45.61737" lon="5.29218">
        <ele>334</ele>
        <time>2021-10-02T11:32:09.573Z</time>
      </trkpt>
      <trkpt lat="45.61738" lon="5.29214">
        <ele>333</ele>
        <time>2021-10-02T11:32:08.573Z</time>
      </trkpt>
      <trkpt lat="45.6174" lon="5.29211">
        <ele>333</ele>
        <time>2021-10-02T11:32:07.573Z</time>
      </trkpt>
      <trkpt lat="45.61741" lon="5.29208">
        <ele>333</ele>
        <time>2021-10-02T11:32:06.573Z</time>
      </trkpt>
      <trkpt lat="45.61742" lon="5.29205">
        <ele>333</ele>
        <time>2021-10-02T11:32:05.572Z</time>
      </trkpt>
      <trkpt lat="45.61743" lon="5.29202">
        <ele>334</ele>
        <time>2021-10-02T11:32:04.572Z</time>
      </trkpt>
      <trkpt lat="45.61744" lon="5.29198">
        <ele>334</ele>
        <time>2021-10-02T11:32:03.573Z</time>
      </trkpt>
      <trkpt lat="45.61745" lon="5.29195">
        <ele>334</ele>
        <time>2021-10-02T11:32:02.573Z</time>
      </trkpt>
      <trkpt lat="45.61746" lon="5.29192">
        <ele>334</ele>
        <time>2021-10-02T11:32:01.572Z</time>
      </trkpt>
      <trkpt lat="45.61748" lon="5.29188">
        <ele>335</ele>
        <time>2021-10-02T11:32:00.572Z</time>
      </trkpt>
      <trkpt lat="45.61749" lon="5.29185">
        <ele>335</ele>
        <time>2021-10-02T11:31:59.573Z</time>
      </trkpt>
      <trkpt lat="45.6175" lon="5.29181">
        <ele>334</ele>
        <time>2021-10-02T11:31:58.573Z</time>
      </trkpt>
      <trkpt lat="45.61751" lon="5.29178">
        <ele>334</ele>
        <time>2021-10-02T11:31:57.573Z</time>
      </trkpt>
      <trkpt lat="45.61752" lon="5.29174">
        <ele>334</ele>
        <time>2021-10-02T11:31:56.572Z</time>
      </trkpt>
      <trkpt lat="45.61753" lon="5.2917">
        <ele>333</ele>
        <time>2021-10-02T11:31:55.573Z</time>
      </trkpt>
      <trkpt lat="45.61754" lon="5.29166">
        <ele>332</ele>
        <time>2021-10-02T11:31:54.573Z</time>
      </trkpt>
      <trkpt lat="45.61755" lon="5.29163">
        <ele>332</ele>
        <time>2021-10-02T11:31:53.573Z</time>
      </trkpt>
      <trkpt lat="45.61756" lon="5.29159">
        <ele>332</ele>
        <time>2021-10-02T11:31:52.573Z</time>
      </trkpt>
      <trkpt lat="45.61757" lon="5.29155">
        <ele>331</ele>
        <time>2021-10-02T11:31:51.573Z</time>
      </trkpt>
      <trkpt lat="45.61758" lon="5.29152">
        <ele>331</ele>
        <time>2021-10-02T11:31:50.573Z</time>
      </trkpt>
      <trkpt lat="45.61759" lon="5.29148">
        <ele>331</ele>
        <time>2021-10-02T11:31:49.572Z</time>
      </trkpt>
      <trkpt lat="45.61759" lon="5.29144">
        <ele>330</ele>
        <time>2021-10-02T11:31:48.573Z</time>
      </trkpt>
      <trkpt lat="45.6176" lon="5.29141">
        <ele>329</ele>
        <time>2021-10-02T11:31:47.573Z</time>
      </trkpt>
      <trkpt lat="45.6176" lon="5.29137">
        <ele>328</ele>
        <time>2021-10-02T11:31:46.572Z</time>
      </trkpt>
      <trkpt lat="45.61761" lon="5.29133">
        <ele>327</ele>
        <time>2021-10-02T11:31:45.572Z</time>
      </trkpt>
      <trkpt lat="45.61761" lon="5.29129">
        <ele>326</ele>
        <time>2021-10-02T11:31:44.572Z</time>
      </trkpt>
      <trkpt lat="45.61762" lon="5.29125">
        <ele>326</ele>
        <time>2021-10-02T11:31:43.573Z</time>
      </trkpt>
      <trkpt lat="45.61762" lon="5.29122">
        <ele>325</ele>
        <time>2021-10-02T11:31:42.573Z</time>
      </trkpt>
      <trkpt lat="45.61762" lon="5.29117">
        <ele>325</ele>
        <time>2021-10-02T11:31:41.572Z</time>
      </trkpt>
      <trkpt lat="45.61762" lon="5.29113">
        <ele>325</ele>
        <time>2021-10-02T11:31:40.572Z</time>
      </trkpt>
      <trkpt lat="45.61763" lon="5.29109">
        <ele>324</ele>
        <time>2021-10-02T11:31:39.572Z</time>
      </trkpt>
      <trkpt lat="45.61763" lon="5.29105">
        <ele>324</ele>
        <time>2021-10-02T11:31:38.573Z</time>
      </trkpt>
      <trkpt lat="45.61763" lon="5.29102">
        <ele>323</ele>
        <time>2021-10-02T11:31:37.572Z</time>
      </trkpt>
      <trkpt lat="45.61763" lon="5.29098">
        <ele>323</ele>
        <time>2021-10-02T11:31:36.573Z</time>
      </trkpt>
      <trkpt lat="45.61764" lon="5.29094">
        <ele>322</ele>
        <time>2021-10-02T11:31:35.573Z</time>
      </trkpt>
      <trkpt lat="45.61764" lon="5.29091">
        <ele>322</ele>
        <time>2021-10-02T11:31:34.573Z</time>
      </trkpt>
      <trkpt lat="45.61764" lon="5.29087">
        <ele>321</ele>
        <time>2021-10-02T11:31:33.572Z</time>
      </trkpt>
      <trkpt lat="45.61764" lon="5.29083">
        <ele>321</ele>
        <time>2021-10-02T11:31:32.572Z</time>
      </trkpt>
      <trkpt lat="45.61764" lon="5.29079">
        <ele>321</ele>
        <time>2021-10-02T11:31:31.573Z</time>
      </trkpt>
      <trkpt lat="45.61765" lon="5.29075">
        <ele>321</ele>
        <time>2021-10-02T11:31:30.573Z</time>
      </trkpt>
      <trkpt lat="45.61765" lon="5.29072">
        <ele>321</ele>
        <time>2021-10-02T11:31:29.573Z</time>
      </trkpt>
      <trkpt lat="45.61765" lon="5.29069">
        <ele>321</ele>
        <time>2021-10-02T11:31:28.572Z</time>
      </trkpt>
      <trkpt lat="45.61765" lon="5.29065">
        <ele>321</ele>
        <time>2021-10-02T11:31:27.573Z</time>
      </trkpt>
      <trkpt lat="45.61766" lon="5.29062">
        <ele>321</ele>
        <time>2021-10-02T11:31:26.572Z</time>
      </trkpt>
      <trkpt lat="45.61766" lon="5.29059">
        <ele>321</ele>
        <time>2021-10-02T11:31:25.573Z</time>
      </trkpt>
      <trkpt lat="45.61766" lon="5.29055">
        <ele>321</ele>
        <time>2021-10-02T11:31:24.573Z</time>
      </trkpt>
      <trkpt lat="45.61767" lon="5.29051">
        <ele>321</ele>
        <time>2021-10-02T11:31:23.573Z</time>
      </trkpt>
      <trkpt lat="45.61767" lon="5.29048">
        <ele>320</ele>
        <time>2021-10-02T11:31:22.573Z</time>
      </trkpt>
      <trkpt lat="45.61767" lon="5.29045">
        <ele>320</ele>
        <time>2021-10-02T11:31:21.573Z</time>
      </trkpt>
      <trkpt lat="45.61767" lon="5.29041">
        <ele>320</ele>
        <time>2021-10-02T11:31:20.572Z</time>
      </trkpt>
      <trkpt lat="45.61768" lon="5.29038">
        <ele>320</ele>
        <time>2021-10-02T11:31:19.572Z</time>
      </trkpt>
      <trkpt lat="45.61768" lon="5.29035">
        <ele>320</ele>
        <time>2021-10-02T11:31:18.573Z</time>
      </trkpt>
      <trkpt lat="45.61769" lon="5.29032">
        <ele>320</ele>
        <time>2021-10-02T11:31:17.572Z</time>
      </trkpt>
      <trkpt lat="45.61769" lon="5.29028">
        <ele>319</ele>
        <time>2021-10-02T11:31:16.573Z</time>
      </trkpt>
      <trkpt lat="45.6177" lon="5.29025">
        <ele>318</ele>
        <time>2021-10-02T11:31:15.572Z</time>
      </trkpt>
      <trkpt lat="45.6177" lon="5.29021">
        <ele>318</ele>
        <time>2021-10-02T11:31:14.573Z</time>
      </trkpt>
      <trkpt lat="45.6177" lon="5.29018">
        <ele>318</ele>
        <time>2021-10-02T11:31:13.572Z</time>
      </trkpt>
      <trkpt lat="45.6177" lon="5.29014">
        <ele>317</ele>
        <time>2021-10-02T11:31:12.572Z</time>
      </trkpt>
      <trkpt lat="45.61771" lon="5.29011">
        <ele>316</ele>
        <time>2021-10-02T11:31:11.572Z</time>
      </trkpt>
      <trkpt lat="45.61771" lon="5.29007">
        <ele>316</ele>
        <time>2021-10-02T11:31:10.573Z</time>
      </trkpt>
      <trkpt lat="45.61772" lon="5.29004">
        <ele>316</ele>
        <time>2021-10-02T11:31:09.573Z</time>
      </trkpt>
      <trkpt lat="45.61772" lon="5.29">
        <ele>316</ele>
        <time>2021-10-02T11:31:08.573Z</time>
      </trkpt>
      <trkpt lat="45.61772" lon="5.28996">
        <ele>316</ele>
        <time>2021-10-02T11:31:07.573Z</time>
      </trkpt>
      <trkpt lat="45.61773" lon="5.28992">
        <ele>315</ele>
        <time>2021-10-02T11:31:06.573Z</time>
      </trkpt>
      <trkpt lat="45.61773" lon="5.28989">
        <ele>315</ele>
        <time>2021-10-02T11:31:05.573Z</time>
      </trkpt>
      <trkpt lat="45.61774" lon="5.28985">
        <ele>315</ele>
        <time>2021-10-02T11:31:04.572Z</time>
      </trkpt>
      <trkpt lat="45.61775" lon="5.28982">
        <ele>315</ele>
        <time>2021-10-02T11:31:03.573Z</time>
      </trkpt>
      <trkpt lat="45.61775" lon="5.28978">
        <ele>315</ele>
        <time>2021-10-02T11:31:02.573Z</time>
      </trkpt>
      <trkpt lat="45.61776" lon="5.28975">
        <ele>315</ele>
        <time>2021-10-02T11:31:01.573Z</time>
      </trkpt>
      <trkpt lat="45.61776" lon="5.28971">
        <ele>315</ele>
        <time>2021-10-02T11:31:00.573Z</time>
      </trkpt>
      <trkpt lat="45.61777" lon="5.28967">
        <ele>315</ele>
        <time>2021-10-02T11:30:59.572Z</time>
      </trkpt>
      <trkpt lat="45.61777" lon="5.28964">
        <ele>315</ele>
        <time>2021-10-02T11:30:58.572Z</time>
      </trkpt>
      <trkpt lat="45.61778" lon="5.2896">
        <ele>315</ele>
        <time>2021-10-02T11:30:57.573Z</time>
      </trkpt>
      <trkpt lat="45.61778" lon="5.28956">
        <ele>314</ele>
        <time>2021-10-02T11:30:56.573Z</time>
      </trkpt>
      <trkpt lat="45.61779" lon="5.28953">
        <ele>314</ele>
        <time>2021-10-02T11:30:55.572Z</time>
      </trkpt>
      <trkpt lat="45.61779" lon="5.28949">
        <ele>314</ele>
        <time>2021-10-02T11:30:54.572Z</time>
      </trkpt>
      <trkpt lat="45.61779" lon="5.28945">
        <ele>313</ele>
        <time>2021-10-02T11:30:53.573Z</time>
      </trkpt>
      <trkpt lat="45.61779" lon="5.28941">
        <ele>313</ele>
        <time>2021-10-02T11:30:52.572Z</time>
      </trkpt>
      <trkpt lat="45.6178" lon="5.28938">
        <ele>313</ele>
        <time>2021-10-02T11:30:51.573Z</time>
      </trkpt>
      <trkpt lat="45.6178" lon="5.28934">
        <ele>313</ele>
        <time>2021-10-02T11:30:50.572Z</time>
      </trkpt>
      <trkpt lat="45.61779" lon="5.2893">
        <ele>312</ele>
        <time>2021-10-02T11:30:49.572Z</time>
      </trkpt>
      <trkpt lat="45.61779" lon="5.28926">
        <ele>311</ele>
        <time>2021-10-02T11:30:48.573Z</time>
      </trkpt>
      <trkpt lat="45.61778" lon="5.28923">
        <ele>310</ele>
        <time>2021-10-02T11:30:47.572Z</time>
      </trkpt>
      <trkpt lat="45.61777" lon="5.2892">
        <ele>310</ele>
        <time>2021-10-02T11:30:46.573Z</time>
      </trkpt>
      <trkpt lat="45.61776" lon="5.28917">
        <ele>310</ele>
        <time>2021-10-02T11:30:45.573Z</time>
      </trkpt>
      <trkpt lat="45.61775" lon="5.28913">
        <ele>309</ele>
        <time>2021-10-02T11:30:44.573Z</time>
      </trkpt>
      <trkpt lat="45.61775" lon="5.2891">
        <ele>309</ele>
        <time>2021-10-02T11:30:43.573Z</time>
      </trkpt>
      <trkpt lat="45.61774" lon="5.28907">
        <ele>309</ele>
        <time>2021-10-02T11:30:42.573Z</time>
      </trkpt>
      <trkpt lat="45.61773" lon="5.28904">
        <ele>309</ele>
        <time>2021-10-02T11:30:41.573Z</time>
      </trkpt>
      <trkpt lat="45.61772" lon="5.28901">
        <ele>309</ele>
        <time>2021-10-02T11:30:40.572Z</time>
      </trkpt>
      <trkpt lat="45.6177" lon="5.28898">
        <ele>308</ele>
        <time>2021-10-02T11:30:39.572Z</time>
      </trkpt>
      <trkpt lat="45.6177" lon="5.28895">
        <ele>308</ele>
        <time>2021-10-02T11:30:38.573Z</time>
      </trkpt>
      <trkpt lat="45.61769" lon="5.28892">
        <ele>308</ele>
        <time>2021-10-02T11:30:37.572Z</time>
      </trkpt>
      <trkpt lat="45.61768" lon="5.28889">
        <ele>308</ele>
        <time>2021-10-02T11:30:36.573Z</time>
      </trkpt>
      <trkpt lat="45.61767" lon="5.28886">
        <ele>308</ele>
        <time>2021-10-02T11:30:35.572Z</time>
      </trkpt>
      <trkpt lat="45.61766" lon="5.28883">
        <ele>308</ele>
        <time>2021-10-02T11:30:34.572Z</time>
      </trkpt>
      <trkpt lat="45.61765" lon="5.2888">
        <ele>308</ele>
        <time>2021-10-02T11:30:33.573Z</time>
      </trkpt>
      <trkpt lat="45.61764" lon="5.28877">
        <ele>308</ele>
        <time>2021-10-02T11:30:32.573Z</time>
      </trkpt>
      <trkpt lat="45.61763" lon="5.28875">
        <ele>307</ele>
        <time>2021-10-02T11:30:31.572Z</time>
      </trkpt>
      <trkpt lat="45.61762" lon="5.28872">
        <ele>307</ele>
        <time>2021-10-02T11:30:30.572Z</time>
      </trkpt>
      <trkpt lat="45.61761" lon="5.28869">
        <ele>307</ele>
        <time>2021-10-02T11:30:29.572Z</time>
      </trkpt>
      <trkpt lat="45.6176" lon="5.28866">
        <ele>307</ele>
        <time>2021-10-02T11:30:28.573Z</time>
      </trkpt>
      <trkpt lat="45.61759" lon="5.28863">
        <ele>306</ele>
        <time>2021-10-02T11:30:27.572Z</time>
      </trkpt>
      <trkpt lat="45.61758" lon="5.2886">
        <ele>306</ele>
        <time>2021-10-02T11:30:26.572Z</time>
      </trkpt>
      <trkpt lat="45.61758" lon="5.28857">
        <ele>306</ele>
        <time>2021-10-02T11:30:25.572Z</time>
      </trkpt>
      <trkpt lat="45.61757" lon="5.28854">
        <ele>306</ele>
        <time>2021-10-02T11:30:24.572Z</time>
      </trkpt>
      <trkpt lat="45.61756" lon="5.28851">
        <ele>306</ele>
        <time>2021-10-02T11:30:23.573Z</time>
      </trkpt>
      <trkpt lat="45.61755" lon="5.28848">
        <ele>306</ele>
        <time>2021-10-02T11:30:22.572Z</time>
      </trkpt>
      <trkpt lat="45.61754" lon="5.28845">
        <ele>305</ele>
        <time>2021-10-02T11:30:21.573Z</time>
      </trkpt>
      <trkpt lat="45.61753" lon="5.28842">
        <ele>305</ele>
        <time>2021-10-02T11:30:20.573Z</time>
      </trkpt>
      <trkpt lat="45.61752" lon="5.28838">
        <ele>305</ele>
        <time>2021-10-02T11:30:19.572Z</time>
      </trkpt>
      <trkpt lat="45.61751" lon="5.28835">
        <ele>304</ele>
        <time>2021-10-02T11:30:18.572Z</time>
      </trkpt>
      <trkpt lat="45.6175" lon="5.28832">
        <ele>304</ele>
        <time>2021-10-02T11:30:17.572Z</time>
      </trkpt>
      <trkpt lat="45.61749" lon="5.28828">
        <ele>304</ele>
        <time>2021-10-02T11:30:16.572Z</time>
      </trkpt>
      <trkpt lat="45.61747" lon="5.28825">
        <ele>304</ele>
        <time>2021-10-02T11:30:15.572Z</time>
      </trkpt>
      <trkpt lat="45.61746" lon="5.28821">
        <ele>304</ele>
        <time>2021-10-02T11:30:14.572Z</time>
      </trkpt>
      <trkpt lat="45.61745" lon="5.28818">
        <ele>303</ele>
        <time>2021-10-02T11:30:13.572Z</time>
      </trkpt>
      <trkpt lat="45.61744" lon="5.28814">
        <ele>303</ele>
        <time>2021-10-02T11:30:12.572Z</time>
      </trkpt>
      <trkpt lat="45.61744" lon="5.2881">
        <ele>303</ele>
        <time>2021-10-02T11:30:11.572Z</time>
      </trkpt>
      <trkpt lat="45.61743" lon="5.28807">
        <ele>303</ele>
        <time>2021-10-02T11:30:10.573Z</time>
      </trkpt>
      <trkpt lat="45.61742" lon="5.28803">
        <ele>303</ele>
        <time>2021-10-02T11:30:09.572Z</time>
      </trkpt>
      <trkpt lat="45.61741" lon="5.288">
        <ele>303</ele>
        <time>2021-10-02T11:30:08.572Z</time>
      </trkpt>
      <trkpt lat="45.6174" lon="5.28796">
        <ele>302</ele>
        <time>2021-10-02T11:30:07.572Z</time>
      </trkpt>
      <trkpt lat="45.61739" lon="5.28793">
        <ele>302</ele>
        <time>2021-10-02T11:30:06.572Z</time>
      </trkpt>
      <trkpt lat="45.61738" lon="5.28789">
        <ele>302</ele>
        <time>2021-10-02T11:30:05.573Z</time>
      </trkpt>
      <trkpt lat="45.61737" lon="5.28785">
        <ele>302</ele>
        <time>2021-10-02T11:30:04.573Z</time>
      </trkpt>
      <trkpt lat="45.61737" lon="5.28782">
        <ele>302</ele>
        <time>2021-10-02T11:30:03.572Z</time>
      </trkpt>
      <trkpt lat="45.61736" lon="5.28778">
        <ele>302</ele>
        <time>2021-10-02T11:30:02.572Z</time>
      </trkpt>
      <trkpt lat="45.61735" lon="5.28774">
        <ele>302</ele>
        <time>2021-10-02T11:30:01.572Z</time>
      </trkpt>
      <trkpt lat="45.61735" lon="5.28771">
        <ele>302</ele>
        <time>2021-10-02T11:30:00.573Z</time>
      </trkpt>
      <trkpt lat="45.61734" lon="5.28767">
        <ele>302</ele>
        <time>2021-10-02T11:29:59.572Z</time>
      </trkpt>
      <trkpt lat="45.61734" lon="5.28763">
        <ele>302</ele>
        <time>2021-10-02T11:29:58.573Z</time>
      </trkpt>
      <trkpt lat="45.61734" lon="5.28759">
        <ele>302</ele>
        <time>2021-10-02T11:29:57.572Z</time>
      </trkpt>
      <trkpt lat="45.61734" lon="5.28755">
        <ele>301</ele>
        <time>2021-10-02T11:29:56.572Z</time>
      </trkpt>
      <trkpt lat="45.61734" lon="5.28751">
        <ele>301</ele>
        <time>2021-10-02T11:29:55.573Z</time>
      </trkpt>
      <trkpt lat="45.61734" lon="5.28748">
        <ele>301</ele>
        <time>2021-10-02T11:29:54.573Z</time>
      </trkpt>
      <trkpt lat="45.61734" lon="5.28744">
        <ele>300</ele>
        <time>2021-10-02T11:29:53.572Z</time>
      </trkpt>
      <trkpt lat="45.61734" lon="5.2874">
        <ele>300</ele>
        <time>2021-10-02T11:29:52.572Z</time>
      </trkpt>
      <trkpt lat="45.61734" lon="5.28736">
        <ele>300</ele>
        <time>2021-10-02T11:29:51.573Z</time>
      </trkpt>
      <trkpt lat="45.61735" lon="5.28733">
        <ele>300</ele>
        <time>2021-10-02T11:29:50.572Z</time>
      </trkpt>
      <trkpt lat="45.61735" lon="5.28729">
        <ele>300</ele>
        <time>2021-10-02T11:29:49.573Z</time>
      </trkpt>
      <trkpt lat="45.61735" lon="5.28725">
        <ele>299</ele>
        <time>2021-10-02T11:29:48.572Z</time>
      </trkpt>
      <trkpt lat="45.61735" lon="5.28721">
        <ele>299</ele>
        <time>2021-10-02T11:29:47.573Z</time>
      </trkpt>
      <trkpt lat="45.61735" lon="5.28718">
        <ele>299</ele>
        <time>2021-10-02T11:29:46.572Z</time>
      </trkpt>
      <trkpt lat="45.61735" lon="5.28714">
        <ele>299</ele>
        <time>2021-10-02T11:29:45.572Z</time>
      </trkpt>
      <trkpt lat="45.61735" lon="5.28709">
        <ele>298</ele>
        <time>2021-10-02T11:29:44.572Z</time>
      </trkpt>
      <trkpt lat="45.61736" lon="5.28705">
        <ele>298</ele>
        <time>2021-10-02T11:29:43.572Z</time>
      </trkpt>
      <trkpt lat="45.61736" lon="5.28702">
        <ele>298</ele>
        <time>2021-10-02T11:29:42.573Z</time>
      </trkpt>
      <trkpt lat="45.61736" lon="5.28698">
        <ele>298</ele>
        <time>2021-10-02T11:29:41.572Z</time>
      </trkpt>
      <trkpt lat="45.61736" lon="5.28695">
        <ele>298</ele>
        <time>2021-10-02T11:29:40.573Z</time>
      </trkpt>
      <trkpt lat="45.61737" lon="5.28692">
        <ele>297</ele>
        <time>2021-10-02T11:29:39.573Z</time>
      </trkpt>
      <trkpt lat="45.61737" lon="5.28689">
        <ele>297</ele>
        <time>2021-10-02T11:29:38.573Z</time>
      </trkpt>
      <trkpt lat="45.61738" lon="5.28686">
        <ele>297</ele>
        <time>2021-10-02T11:29:37.572Z</time>
      </trkpt>
      <trkpt lat="45.61738" lon="5.28682">
        <ele>297</ele>
        <time>2021-10-02T11:29:36.572Z</time>
      </trkpt>
      <trkpt lat="45.61738" lon="5.28679">
        <ele>297</ele>
        <time>2021-10-02T11:29:35.573Z</time>
      </trkpt>
      <trkpt lat="45.61738" lon="5.28675">
        <ele>297</ele>
        <time>2021-10-02T11:29:34.573Z</time>
      </trkpt>
      <trkpt lat="45.61739" lon="5.28671">
        <ele>296</ele>
        <time>2021-10-02T11:29:33.572Z</time>
      </trkpt>
      <trkpt lat="45.61739" lon="5.28667">
        <ele>296</ele>
        <time>2021-10-02T11:29:32.572Z</time>
      </trkpt>
      <trkpt lat="45.61739" lon="5.28664">
        <ele>297</ele>
        <time>2021-10-02T11:29:31.573Z</time>
      </trkpt>
      <trkpt lat="45.61739" lon="5.2866">
        <ele>297</ele>
        <time>2021-10-02T11:29:30.572Z</time>
      </trkpt>
      <trkpt lat="45.61739" lon="5.28656">
        <ele>296</ele>
        <time>2021-10-02T11:29:29.573Z</time>
      </trkpt>
      <trkpt lat="45.61739" lon="5.28652">
        <ele>295</ele>
        <time>2021-10-02T11:29:28.572Z</time>
      </trkpt>
      <trkpt lat="45.61739" lon="5.28648">
        <ele>295</ele>
        <time>2021-10-02T11:29:27.573Z</time>
      </trkpt>
      <trkpt lat="45.6174" lon="5.28644">
        <ele>295</ele>
        <time>2021-10-02T11:29:26.573Z</time>
      </trkpt>
      <trkpt lat="45.6174" lon="5.2864">
        <ele>294</ele>
        <time>2021-10-02T11:29:25.573Z</time>
      </trkpt>
      <trkpt lat="45.6174" lon="5.28636">
        <ele>294</ele>
        <time>2021-10-02T11:29:24.572Z</time>
      </trkpt>
      <trkpt lat="45.6174" lon="5.28633">
        <ele>293</ele>
        <time>2021-10-02T11:29:23.572Z</time>
      </trkpt>
      <trkpt lat="45.6174" lon="5.28629">
        <ele>293</ele>
        <time>2021-10-02T11:29:22.572Z</time>
      </trkpt>
      <trkpt lat="45.61741" lon="5.28626">
        <ele>292</ele>
        <time>2021-10-02T11:29:21.572Z</time>
      </trkpt>
      <trkpt lat="45.61741" lon="5.28622">
        <ele>292</ele>
        <time>2021-10-02T11:29:20.572Z</time>
      </trkpt>
      <trkpt lat="45.61741" lon="5.28619">
        <ele>292</ele>
        <time>2021-10-02T11:29:19.572Z</time>
      </trkpt>
      <trkpt lat="45.61741" lon="5.28615">
        <ele>292</ele>
        <time>2021-10-02T11:29:18.572Z</time>
      </trkpt>
      <trkpt lat="45.61741" lon="5.28612">
        <ele>291</ele>
        <time>2021-10-02T11:29:17.573Z</time>
      </trkpt>
      <trkpt lat="45.61741" lon="5.28608">
        <ele>291</ele>
        <time>2021-10-02T11:29:16.572Z</time>
      </trkpt>
      <trkpt lat="45.61741" lon="5.28605">
        <ele>291</ele>
        <time>2021-10-02T11:29:15.573Z</time>
      </trkpt>
      <trkpt lat="45.61741" lon="5.28601">
        <ele>291</ele>
        <time>2021-10-02T11:29:14.573Z</time>
      </trkpt>
      <trkpt lat="45.61741" lon="5.28597">
        <ele>291</ele>
        <time>2021-10-02T11:29:13.573Z</time>
      </trkpt>
      <trkpt lat="45.61741" lon="5.28593">
        <ele>291</ele>
        <time>2021-10-02T11:29:12.572Z</time>
      </trkpt>
      <trkpt lat="45.61741" lon="5.2859">
        <ele>291</ele>
        <time>2021-10-02T11:29:11.572Z</time>
      </trkpt>
      <trkpt lat="45.61741" lon="5.28586">
        <ele>291</ele>
        <time>2021-10-02T11:29:10.572Z</time>
      </trkpt>
      <trkpt lat="45.61741" lon="5.28582">
        <ele>291</ele>
        <time>2021-10-02T11:29:09.573Z</time>
      </trkpt>
      <trkpt lat="45.61741" lon="5.28579">
        <ele>291</ele>
        <time>2021-10-02T11:29:08.572Z</time>
      </trkpt>
      <trkpt lat="45.61741" lon="5.28575">
        <ele>291</ele>
        <time>2021-10-02T11:29:07.572Z</time>
      </trkpt>
      <trkpt lat="45.61741" lon="5.28572">
        <ele>291</ele>
        <time>2021-10-02T11:29:06.573Z</time>
      </trkpt>
      <trkpt lat="45.61741" lon="5.28568">
        <ele>292</ele>
        <time>2021-10-02T11:29:05.572Z</time>
      </trkpt>
      <trkpt lat="45.61741" lon="5.28564">
        <ele>292</ele>
        <time>2021-10-02T11:29:04.572Z</time>
      </trkpt>
      <trkpt lat="45.61741" lon="5.2856">
        <ele>292</ele>
        <time>2021-10-02T11:29:03.573Z</time>
      </trkpt>
      <trkpt lat="45.61742" lon="5.28556">
        <ele>292</ele>
        <time>2021-10-02T11:29:02.573Z</time>
      </trkpt>
      <trkpt lat="45.61742" lon="5.28552">
        <ele>292</ele>
        <time>2021-10-02T11:29:01.573Z</time>
      </trkpt>
      <trkpt lat="45.61742" lon="5.28548">
        <ele>292</ele>
        <time>2021-10-02T11:29:00.572Z</time>
      </trkpt>
      <trkpt lat="45.61742" lon="5.28544">
        <ele>292</ele>
        <time>2021-10-02T11:28:59.572Z</time>
      </trkpt>
      <trkpt lat="45.61742" lon="5.2854">
        <ele>292</ele>
        <time>2021-10-02T11:28:58.573Z</time>
      </trkpt>
      <trkpt lat="45.61742" lon="5.28536">
        <ele>291</ele>
        <time>2021-10-02T11:28:57.573Z</time>
      </trkpt>
      <trkpt lat="45.61742" lon="5.28532">
        <ele>291</ele>
        <time>2021-10-02T11:28:56.573Z</time>
      </trkpt>
      <trkpt lat="45.61742" lon="5.28528">
        <ele>290</ele>
        <time>2021-10-02T11:28:55.573Z</time>
      </trkpt>
      <trkpt lat="45.61742" lon="5.28524">
        <ele>290</ele>
        <time>2021-10-02T11:28:54.573Z</time>
      </trkpt>
      <trkpt lat="45.61741" lon="5.2852">
        <ele>290</ele>
        <time>2021-10-02T11:28:53.573Z</time>
      </trkpt>
      <trkpt lat="45.61741" lon="5.28516">
        <ele>290</ele>
        <time>2021-10-02T11:28:52.573Z</time>
      </trkpt>
      <trkpt lat="45.6174" lon="5.28512">
        <ele>289</ele>
        <time>2021-10-02T11:28:51.572Z</time>
      </trkpt>
      <trkpt lat="45.6174" lon="5.28508">
        <ele>290</ele>
        <time>2021-10-02T11:28:50.573Z</time>
      </trkpt>
      <trkpt lat="45.61739" lon="5.28505">
        <ele>290</ele>
        <time>2021-10-02T11:28:49.573Z</time>
      </trkpt>
      <trkpt lat="45.61739" lon="5.28501">
        <ele>290</ele>
        <time>2021-10-02T11:28:48.573Z</time>
      </trkpt>
      <trkpt lat="45.61738" lon="5.28497">
        <ele>290</ele>
        <time>2021-10-02T11:28:47.572Z</time>
      </trkpt>
      <trkpt lat="45.61737" lon="5.28493">
        <ele>290</ele>
        <time>2021-10-02T11:28:46.572Z</time>
      </trkpt>
      <trkpt lat="45.61736" lon="5.28489">
        <ele>290</ele>
        <time>2021-10-02T11:28:45.573Z</time>
      </trkpt>
      <trkpt lat="45.61735" lon="5.28485">
        <ele>290</ele>
        <time>2021-10-02T11:28:44.573Z</time>
      </trkpt>
      <trkpt lat="45.61735" lon="5.28481">
        <ele>290</ele>
        <time>2021-10-02T11:28:43.572Z</time>
      </trkpt>
      <trkpt lat="45.61734" lon="5.28477">
        <ele>289</ele>
        <time>2021-10-02T11:28:42.573Z</time>
      </trkpt>
      <trkpt lat="45.61733" lon="5.28472">
        <ele>289</ele>
        <time>2021-10-02T11:28:41.572Z</time>
      </trkpt>
      <trkpt lat="45.61732" lon="5.28469">
        <ele>289</ele>
        <time>2021-10-02T11:28:40.572Z</time>
      </trkpt>
      <trkpt lat="45.61731" lon="5.28465">
        <ele>289</ele>
        <time>2021-10-02T11:28:39.572Z</time>
      </trkpt>
      <trkpt lat="45.6173" lon="5.28461">
        <ele>288</ele>
        <time>2021-10-02T11:28:38.573Z</time>
      </trkpt>
      <trkpt lat="45.6173" lon="5.28457">
        <ele>288</ele>
        <time>2021-10-02T11:28:37.573Z</time>
      </trkpt>
      <trkpt lat="45.61729" lon="5.28453">
        <ele>288</ele>
        <time>2021-10-02T11:28:36.573Z</time>
      </trkpt>
      <trkpt lat="45.61728" lon="5.2845">
        <ele>288</ele>
        <time>2021-10-02T11:28:35.572Z</time>
      </trkpt>
      <trkpt lat="45.61727" lon="5.28446">
        <ele>288</ele>
        <time>2021-10-02T11:28:34.572Z</time>
      </trkpt>
      <trkpt lat="45.61727" lon="5.28442">
        <ele>288</ele>
        <time>2021-10-02T11:28:33.573Z</time>
      </trkpt>
      <trkpt lat="45.61726" lon="5.28439">
        <ele>288</ele>
        <time>2021-10-02T11:28:32.572Z</time>
      </trkpt>
      <trkpt lat="45.61725" lon="5.28435">
        <ele>288</ele>
        <time>2021-10-02T11:28:31.573Z</time>
      </trkpt>
      <trkpt lat="45.61724" lon="5.28432">
        <ele>288</ele>
        <time>2021-10-02T11:28:30.573Z</time>
      </trkpt>
      <trkpt lat="45.61724" lon="5.28428">
        <ele>288</ele>
        <time>2021-10-02T11:28:29.572Z</time>
      </trkpt>
      <trkpt lat="45.61723" lon="5.28425">
        <ele>288</ele>
        <time>2021-10-02T11:28:28.573Z</time>
      </trkpt>
      <trkpt lat="45.61722" lon="5.28421">
        <ele>288</ele>
        <time>2021-10-02T11:28:27.573Z</time>
      </trkpt>
      <trkpt lat="45.61722" lon="5.28417">
        <ele>288</ele>
        <time>2021-10-02T11:28:26.573Z</time>
      </trkpt>
      <trkpt lat="45.61721" lon="5.28414">
        <ele>287</ele>
        <time>2021-10-02T11:28:25.573Z</time>
      </trkpt>
      <trkpt lat="45.6172" lon="5.2841">
        <ele>287</ele>
        <time>2021-10-02T11:28:24.572Z</time>
      </trkpt>
      <trkpt lat="45.6172" lon="5.28407">
        <ele>287</ele>
        <time>2021-10-02T11:28:23.573Z</time>
      </trkpt>
      <trkpt lat="45.61719" lon="5.28404">
        <ele>287</ele>
        <time>2021-10-02T11:28:22.572Z</time>
      </trkpt>
      <trkpt lat="45.61718" lon="5.284">
        <ele>287</ele>
        <time>2021-10-02T11:28:21.572Z</time>
      </trkpt>
      <trkpt lat="45.61717" lon="5.28397">
        <ele>287</ele>
        <time>2021-10-02T11:28:20.573Z</time>
      </trkpt>
      <trkpt lat="45.61716" lon="5.28394">
        <ele>287</ele>
        <time>2021-10-02T11:28:19.572Z</time>
      </trkpt>
      <trkpt lat="45.61716" lon="5.2839">
        <ele>287</ele>
        <time>2021-10-02T11:28:18.573Z</time>
      </trkpt>
      <trkpt lat="45.61714" lon="5.28387">
        <ele>287</ele>
        <time>2021-10-02T11:28:17.573Z</time>
      </trkpt>
      <trkpt lat="45.61714" lon="5.28384">
        <ele>286</ele>
        <time>2021-10-02T11:28:16.573Z</time>
      </trkpt>
      <trkpt lat="45.61712" lon="5.28381">
        <ele>286</ele>
        <time>2021-10-02T11:28:15.573Z</time>
      </trkpt>
      <trkpt lat="45.61711" lon="5.28377">
        <ele>285</ele>
        <time>2021-10-02T11:28:14.572Z</time>
      </trkpt>
      <trkpt lat="45.6171" lon="5.28374">
        <ele>284</ele>
        <time>2021-10-02T11:28:13.572Z</time>
      </trkpt>
      <trkpt lat="45.61709" lon="5.28371">
        <ele>284</ele>
        <time>2021-10-02T11:28:12.573Z</time>
      </trkpt>
      <trkpt lat="45.61708" lon="5.28368">
        <ele>284</ele>
        <time>2021-10-02T11:28:11.573Z</time>
      </trkpt>
      <trkpt lat="45.61707" lon="5.28365">
        <ele>283</ele>
        <time>2021-10-02T11:28:10.573Z</time>
      </trkpt>
      <trkpt lat="45.61706" lon="5.28361">
        <ele>282</ele>
        <time>2021-10-02T11:28:09.573Z</time>
      </trkpt>
      <trkpt lat="45.61705" lon="5.28358">
        <ele>282</ele>
        <time>2021-10-02T11:28:08.573Z</time>
      </trkpt>
      <trkpt lat="45.61704" lon="5.28355">
        <ele>282</ele>
        <time>2021-10-02T11:28:07.573Z</time>
      </trkpt>
      <trkpt lat="45.61703" lon="5.28353">
        <ele>282</ele>
        <time>2021-10-02T11:28:06.573Z</time>
      </trkpt>
      <trkpt lat="45.61702" lon="5.2835">
        <ele>281</ele>
        <time>2021-10-02T11:28:05.573Z</time>
      </trkpt>
      <trkpt lat="45.61701" lon="5.28347">
        <ele>281</ele>
        <time>2021-10-02T11:28:04.573Z</time>
      </trkpt>
      <trkpt lat="45.617" lon="5.28344">
        <ele>281</ele>
        <time>2021-10-02T11:28:03.573Z</time>
      </trkpt>
      <trkpt lat="45.617" lon="5.28341">
        <ele>281</ele>
        <time>2021-10-02T11:28:02.572Z</time>
      </trkpt>
      <trkpt lat="45.61699" lon="5.28339">
        <ele>280</ele>
        <time>2021-10-02T11:28:01.572Z</time>
      </trkpt>
      <trkpt lat="45.61698" lon="5.28336">
        <ele>279</ele>
        <time>2021-10-02T11:28:00.572Z</time>
      </trkpt>
      <trkpt lat="45.61697" lon="5.28333">
        <ele>279</ele>
        <time>2021-10-02T11:27:59.573Z</time>
      </trkpt>
      <trkpt lat="45.61696" lon="5.2833">
        <ele>279</ele>
        <time>2021-10-02T11:27:58.573Z</time>
      </trkpt>
      <trkpt lat="45.61694" lon="5.28328">
        <ele>279</ele>
        <time>2021-10-02T11:27:57.573Z</time>
      </trkpt>
      <trkpt lat="45.61693" lon="5.28325">
        <ele>279</ele>
        <time>2021-10-02T11:27:56.573Z</time>
      </trkpt>
      <trkpt lat="45.61692" lon="5.28322">
        <ele>279</ele>
        <time>2021-10-02T11:27:55.572Z</time>
      </trkpt>
      <trkpt lat="45.61691" lon="5.2832">
        <ele>278</ele>
        <time>2021-10-02T11:27:54.573Z</time>
      </trkpt>
      <trkpt lat="45.6169" lon="5.28317">
        <ele>277</ele>
        <time>2021-10-02T11:27:53.572Z</time>
      </trkpt>
      <trkpt lat="45.61689" lon="5.28314">
        <ele>276</ele>
        <time>2021-10-02T11:27:52.573Z</time>
      </trkpt>
      <trkpt lat="45.61688" lon="5.28311">
        <ele>276</ele>
        <time>2021-10-02T11:27:51.573Z</time>
      </trkpt>
      <trkpt lat="45.61687" lon="5.28309">
        <ele>276</ele>
        <time>2021-10-02T11:27:50.572Z</time>
      </trkpt>
      <trkpt lat="45.61685" lon="5.28306">
        <ele>276</ele>
        <time>2021-10-02T11:27:49.573Z</time>
      </trkpt>
      <trkpt lat="45.61684" lon="5.28303">
        <ele>275</ele>
        <time>2021-10-02T11:27:48.573Z</time>
      </trkpt>
      <trkpt lat="45.61683" lon="5.28301">
        <ele>275</ele>
        <time>2021-10-02T11:27:47.572Z</time>
      </trkpt>
      <trkpt lat="45.61682" lon="5.28298">
        <ele>274</ele>
        <time>2021-10-02T11:27:46.573Z</time>
      </trkpt>
      <trkpt lat="45.61681" lon="5.28295">
        <ele>273</ele>
        <time>2021-10-02T11:27:45.573Z</time>
      </trkpt>
      <trkpt lat="45.6168" lon="5.28292">
        <ele>273</ele>
        <time>2021-10-02T11:27:44.572Z</time>
      </trkpt>
      <trkpt lat="45.61679" lon="5.2829">
        <ele>274</ele>
        <time>2021-10-02T11:27:43.573Z</time>
      </trkpt>
      <trkpt lat="45.61678" lon="5.28287">
        <ele>274</ele>
        <time>2021-10-02T11:27:42.573Z</time>
      </trkpt>
      <trkpt lat="45.61677" lon="5.28284">
        <ele>274</ele>
        <time>2021-10-02T11:27:41.573Z</time>
      </trkpt>
      <trkpt lat="45.61676" lon="5.28281">
        <ele>274</ele>
        <time>2021-10-02T11:27:40.572Z</time>
      </trkpt>
      <trkpt lat="45.61675" lon="5.28279">
        <ele>274</ele>
        <time>2021-10-02T11:27:39.573Z</time>
      </trkpt>
      <trkpt lat="45.61673" lon="5.28276">
        <ele>274</ele>
        <time>2021-10-02T11:27:38.572Z</time>
      </trkpt>
      <trkpt lat="45.61672" lon="5.28273">
        <ele>274</ele>
        <time>2021-10-02T11:27:37.573Z</time>
      </trkpt>
      <trkpt lat="45.61671" lon="5.2827">
        <ele>274</ele>
        <time>2021-10-02T11:27:36.573Z</time>
      </trkpt>
      <trkpt lat="45.6167" lon="5.28267">
        <ele>274</ele>
        <time>2021-10-02T11:27:35.573Z</time>
      </trkpt>
      <trkpt lat="45.61669" lon="5.28264">
        <ele>274</ele>
        <time>2021-10-02T11:27:34.572Z</time>
      </trkpt>
      <trkpt lat="45.61669" lon="5.28261">
        <ele>274</ele>
        <time>2021-10-02T11:27:33.573Z</time>
      </trkpt>
      <trkpt lat="45.61668" lon="5.28259">
        <ele>274</ele>
        <time>2021-10-02T11:27:32.573Z</time>
      </trkpt>
      <trkpt lat="45.61667" lon="5.28256">
        <ele>274</ele>
        <time>2021-10-02T11:27:31.573Z</time>
      </trkpt>
      <trkpt lat="45.61665" lon="5.28253">
        <ele>273</ele>
        <time>2021-10-02T11:27:30.573Z</time>
      </trkpt>
      <trkpt lat="45.61664" lon="5.2825">
        <ele>273</ele>
        <time>2021-10-02T11:27:29.573Z</time>
      </trkpt>
      <trkpt lat="45.61663" lon="5.28247">
        <ele>272</ele>
        <time>2021-10-02T11:27:28.573Z</time>
      </trkpt>
      <trkpt lat="45.61662" lon="5.28245">
        <ele>272</ele>
        <time>2021-10-02T11:27:27.573Z</time>
      </trkpt>
      <trkpt lat="45.61661" lon="5.28242">
        <ele>272</ele>
        <time>2021-10-02T11:27:26.573Z</time>
      </trkpt>
      <trkpt lat="45.6166" lon="5.2824">
        <ele>272</ele>
        <time>2021-10-02T11:27:25.572Z</time>
      </trkpt>
      <trkpt lat="45.61659" lon="5.28237">
        <ele>272</ele>
        <time>2021-10-02T11:27:24.573Z</time>
      </trkpt>
      <trkpt lat="45.61657" lon="5.28234">
        <ele>272</ele>
        <time>2021-10-02T11:27:23.573Z</time>
      </trkpt>
      <trkpt lat="45.61656" lon="5.28232">
        <ele>272</ele>
        <time>2021-10-02T11:27:22.573Z</time>
      </trkpt>
      <trkpt lat="45.61655" lon="5.28229">
        <ele>272</ele>
        <time>2021-10-02T11:27:21.573Z</time>
      </trkpt>
      <trkpt lat="45.61654" lon="5.28226">
        <ele>272</ele>
        <time>2021-10-02T11:27:20.573Z</time>
      </trkpt>
      <trkpt lat="45.61653" lon="5.28223">
        <ele>273</ele>
        <time>2021-10-02T11:27:19.573Z</time>
      </trkpt>
      <trkpt lat="45.61652" lon="5.28221">
        <ele>273</ele>
        <time>2021-10-02T11:27:18.573Z</time>
      </trkpt>
      <trkpt lat="45.61651" lon="5.28218">
        <ele>272</ele>
        <time>2021-10-02T11:27:17.573Z</time>
      </trkpt>
      <trkpt lat="45.6165" lon="5.28216">
        <ele>271</ele>
        <time>2021-10-02T11:27:16.573Z</time>
      </trkpt>
      <trkpt lat="45.61649" lon="5.28213">
        <ele>271</ele>
        <time>2021-10-02T11:27:15.572Z</time>
      </trkpt>
      <trkpt lat="45.61647" lon="5.2821">
        <ele>271</ele>
        <time>2021-10-02T11:27:14.573Z</time>
      </trkpt>
      <trkpt lat="45.61646" lon="5.28208">
        <ele>270</ele>
        <time>2021-10-02T11:27:13.573Z</time>
      </trkpt>
      <trkpt lat="45.61646" lon="5.28205">
        <ele>269</ele>
        <time>2021-10-02T11:27:12.573Z</time>
      </trkpt>
      <trkpt lat="45.61645" lon="5.28201">
        <ele>269</ele>
        <time>2021-10-02T11:27:11.573Z</time>
      </trkpt>
      <trkpt lat="45.61645" lon="5.28198">
        <ele>269</ele>
        <time>2021-10-02T11:27:10.573Z</time>
      </trkpt>
      <trkpt lat="45.61644" lon="5.28195">
        <ele>269</ele>
        <time>2021-10-02T11:27:09.573Z</time>
      </trkpt>
      <trkpt lat="45.61644" lon="5.28192">
        <ele>268</ele>
        <time>2021-10-02T11:27:08.573Z</time>
      </trkpt>
      <trkpt lat="45.61644" lon="5.28189">
        <ele>268</ele>
        <time>2021-10-02T11:27:07.573Z</time>
      </trkpt>
      <trkpt lat="45.61644" lon="5.28186">
        <ele>267</ele>
        <time>2021-10-02T11:27:06.573Z</time>
      </trkpt>
      <trkpt lat="45.61644" lon="5.28183">
        <ele>267</ele>
        <time>2021-10-02T11:27:05.573Z</time>
      </trkpt>
      <trkpt lat="45.61644" lon="5.28181">
        <ele>266</ele>
        <time>2021-10-02T11:27:04.573Z</time>
      </trkpt>
      <trkpt lat="45.61644" lon="5.28177">
        <ele>265</ele>
        <time>2021-10-02T11:27:03.573Z</time>
      </trkpt>
      <trkpt lat="45.61645" lon="5.28174">
        <ele>265</ele>
        <time>2021-10-02T11:27:02.572Z</time>
      </trkpt>
      <trkpt lat="45.61645" lon="5.28171">
        <ele>264</ele>
        <time>2021-10-02T11:27:01.572Z</time>
      </trkpt>
      <trkpt lat="45.61645" lon="5.28169">
        <ele>264</ele>
        <time>2021-10-02T11:27:00.572Z</time>
      </trkpt>
      <trkpt lat="45.61646" lon="5.28165">
        <ele>264</ele>
        <time>2021-10-02T11:26:59.573Z</time>
      </trkpt>
      <trkpt lat="45.61646" lon="5.28163">
        <ele>263</ele>
        <time>2021-10-02T11:26:58.573Z</time>
      </trkpt>
      <trkpt lat="45.61647" lon="5.2816">
        <ele>262</ele>
        <time>2021-10-02T11:26:57.573Z</time>
      </trkpt>
      <trkpt lat="45.61647" lon="5.28158">
        <ele>262</ele>
        <time>2021-10-02T11:26:56.573Z</time>
      </trkpt>
      <trkpt lat="45.61648" lon="5.28155">
        <ele>262</ele>
        <time>2021-10-02T11:26:55.573Z</time>
      </trkpt>
      <trkpt lat="45.61648" lon="5.28152">
        <ele>262</ele>
        <time>2021-10-02T11:26:54.573Z</time>
      </trkpt>
      <trkpt lat="45.61649" lon="5.28149">
        <ele>262</ele>
        <time>2021-10-02T11:26:53.573Z</time>
      </trkpt>
      <trkpt lat="45.6165" lon="5.28146">
        <ele>261</ele>
        <time>2021-10-02T11:26:52.572Z</time>
      </trkpt>
      <trkpt lat="45.61651" lon="5.28144">
        <ele>261</ele>
        <time>2021-10-02T11:26:51.572Z</time>
      </trkpt>
      <trkpt lat="45.61651" lon="5.2814">
        <ele>261</ele>
        <time>2021-10-02T11:26:50.572Z</time>
      </trkpt>
      <trkpt lat="45.61652" lon="5.28137">
        <ele>261</ele>
        <time>2021-10-02T11:26:49.572Z</time>
      </trkpt>
      <trkpt lat="45.61653" lon="5.28134">
        <ele>261</ele>
        <time>2021-10-02T11:26:48.573Z</time>
      </trkpt>
      <trkpt lat="45.61653" lon="5.28131">
        <ele>261</ele>
        <time>2021-10-02T11:26:47.573Z</time>
      </trkpt>
      <trkpt lat="45.61654" lon="5.28127">
        <ele>261</ele>
        <time>2021-10-02T11:26:46.572Z</time>
      </trkpt>
      <trkpt lat="45.61655" lon="5.28124">
        <ele>261</ele>
        <time>2021-10-02T11:26:45.573Z</time>
      </trkpt>
      <trkpt lat="45.61655" lon="5.2812">
        <ele>261</ele>
        <time>2021-10-02T11:26:44.573Z</time>
      </trkpt>
      <trkpt lat="45.61655" lon="5.28117">
        <ele>261</ele>
        <time>2021-10-02T11:26:43.573Z</time>
      </trkpt>
      <trkpt lat="45.61655" lon="5.28114">
        <ele>261</ele>
        <time>2021-10-02T11:26:42.573Z</time>
      </trkpt>
      <trkpt lat="45.61655" lon="5.28111">
        <ele>261</ele>
        <time>2021-10-02T11:26:41.573Z</time>
      </trkpt>
      <trkpt lat="45.61655" lon="5.28107">
        <ele>261</ele>
        <time>2021-10-02T11:26:40.573Z</time>
      </trkpt>
      <trkpt lat="45.61655" lon="5.28104">
        <ele>260</ele>
        <time>2021-10-02T11:26:39.572Z</time>
      </trkpt>
      <trkpt lat="45.61656" lon="5.281">
        <ele>259</ele>
        <time>2021-10-02T11:26:38.572Z</time>
      </trkpt>
      <trkpt lat="45.61656" lon="5.28097">
        <ele>259</ele>
        <time>2021-10-02T11:26:37.573Z</time>
      </trkpt>
      <trkpt lat="45.61656" lon="5.28095">
        <ele>258</ele>
        <time>2021-10-02T11:26:36.573Z</time>
      </trkpt>
      <trkpt lat="45.61656" lon="5.28092">
        <ele>258</ele>
        <time>2021-10-02T11:26:35.573Z</time>
      </trkpt>
      <trkpt lat="45.61655" lon="5.28089">
        <ele>257</ele>
        <time>2021-10-02T11:26:34.573Z</time>
      </trkpt>
      <trkpt lat="45.61655" lon="5.28085">
        <ele>257</ele>
        <time>2021-10-02T11:26:33.573Z</time>
      </trkpt>
      <trkpt lat="45.61655" lon="5.28082">
        <ele>257</ele>
        <time>2021-10-02T11:26:32.573Z</time>
      </trkpt>
      <trkpt lat="45.61655" lon="5.28079">
        <ele>256</ele>
        <time>2021-10-02T11:26:31.572Z</time>
      </trkpt>
      <trkpt lat="45.61655" lon="5.28076">
        <ele>255</ele>
        <time>2021-10-02T11:26:30.573Z</time>
      </trkpt>
      <trkpt lat="45.61654" lon="5.28072">
        <ele>254</ele>
        <time>2021-10-02T11:26:29.573Z</time>
      </trkpt>
      <trkpt lat="45.61654" lon="5.28069">
        <ele>254</ele>
        <time>2021-10-02T11:26:28.572Z</time>
      </trkpt>
      <trkpt lat="45.61654" lon="5.28066">
        <ele>254</ele>
        <time>2021-10-02T11:26:27.573Z</time>
      </trkpt>
      <trkpt lat="45.61653" lon="5.28062">
        <ele>254</ele>
        <time>2021-10-02T11:26:26.573Z</time>
      </trkpt>
      <trkpt lat="45.61653" lon="5.28059">
        <ele>254</ele>
        <time>2021-10-02T11:26:25.573Z</time>
      </trkpt>
      <trkpt lat="45.61652" lon="5.28056">
        <ele>254</ele>
        <time>2021-10-02T11:26:24.573Z</time>
      </trkpt>
      <trkpt lat="45.61651" lon="5.28053">
        <ele>254</ele>
        <time>2021-10-02T11:26:23.573Z</time>
      </trkpt>
      <trkpt lat="45.61651" lon="5.28049">
        <ele>254</ele>
        <time>2021-10-02T11:26:22.573Z</time>
      </trkpt>
      <trkpt lat="45.6165" lon="5.28046">
        <ele>254</ele>
        <time>2021-10-02T11:26:21.573Z</time>
      </trkpt>
      <trkpt lat="45.6165" lon="5.28043">
        <ele>255</ele>
        <time>2021-10-02T11:26:20.573Z</time>
      </trkpt>
      <trkpt lat="45.61648" lon="5.2804">
        <ele>255</ele>
        <time>2021-10-02T11:26:19.573Z</time>
      </trkpt>
      <trkpt lat="45.61647" lon="5.28037">
        <ele>255</ele>
        <time>2021-10-02T11:26:18.573Z</time>
      </trkpt>
      <trkpt lat="45.61646" lon="5.28034">
        <ele>255</ele>
        <time>2021-10-02T11:26:17.573Z</time>
      </trkpt>
      <trkpt lat="45.61645" lon="5.28031">
        <ele>254</ele>
        <time>2021-10-02T11:26:16.572Z</time>
      </trkpt>
      <trkpt lat="45.61643" lon="5.28029">
        <ele>254</ele>
        <time>2021-10-02T11:26:15.573Z</time>
      </trkpt>
      <trkpt lat="45.61642" lon="5.28026">
        <ele>253</ele>
        <time>2021-10-02T11:26:14.573Z</time>
      </trkpt>
      <trkpt lat="45.6164" lon="5.28024">
        <ele>253</ele>
        <time>2021-10-02T11:26:13.573Z</time>
      </trkpt>
      <trkpt lat="45.61638" lon="5.28022">
        <ele>253</ele>
        <time>2021-10-02T11:26:12.573Z</time>
      </trkpt>
      <trkpt lat="45.61637" lon="5.2802">
        <ele>253</ele>
        <time>2021-10-02T11:26:11.573Z</time>
      </trkpt>
      <trkpt lat="45.61635" lon="5.28018">
        <ele>253</ele>
        <time>2021-10-02T11:26:10.573Z</time>
      </trkpt>
      <trkpt lat="45.61633" lon="5.28017">
        <ele>253</ele>
        <time>2021-10-02T11:26:09.573Z</time>
      </trkpt>
      <trkpt lat="45.61631" lon="5.28015">
        <ele>253</ele>
        <time>2021-10-02T11:26:08.573Z</time>
      </trkpt>
      <trkpt lat="45.61629" lon="5.28014">
        <ele>253</ele>
        <time>2021-10-02T11:26:07.572Z</time>
      </trkpt>
      <trkpt lat="45.61628" lon="5.28012">
        <ele>253</ele>
        <time>2021-10-02T11:26:06.573Z</time>
      </trkpt>
      <trkpt lat="45.61626" lon="5.2801">
        <ele>254</ele>
        <time>2021-10-02T11:26:05.573Z</time>
      </trkpt>
      <trkpt lat="45.61624" lon="5.28008">
        <ele>254</ele>
        <time>2021-10-02T11:26:04.573Z</time>
      </trkpt>
      <trkpt lat="45.61622" lon="5.28007">
        <ele>254</ele>
        <time>2021-10-02T11:26:03.573Z</time>
      </trkpt>
      <trkpt lat="45.6162" lon="5.28005">
        <ele>254</ele>
        <time>2021-10-02T11:26:02.572Z</time>
      </trkpt>
      <trkpt lat="45.61617" lon="5.28004">
        <ele>254</ele>
        <time>2021-10-02T11:26:01.573Z</time>
      </trkpt>
      <trkpt lat="45.61615" lon="5.28002">
        <ele>253</ele>
        <time>2021-10-02T11:26:00.573Z</time>
      </trkpt>
      <trkpt lat="45.61613" lon="5.28001">
        <ele>252</ele>
        <time>2021-10-02T11:25:59.572Z</time>
      </trkpt>
      <trkpt lat="45.61611" lon="5.28">
        <ele>252</ele>
        <time>2021-10-02T11:25:58.573Z</time>
      </trkpt>
      <trkpt lat="45.61609" lon="5.27999">
        <ele>252</ele>
        <time>2021-10-02T11:25:57.573Z</time>
      </trkpt>
      <trkpt lat="45.61606" lon="5.27998">
        <ele>252</ele>
        <time>2021-10-02T11:25:56.573Z</time>
      </trkpt>
      <trkpt lat="45.61604" lon="5.27998">
        <ele>251</ele>
        <time>2021-10-02T11:25:55.573Z</time>
      </trkpt>
      <trkpt lat="45.61602" lon="5.27997">
        <ele>251</ele>
        <time>2021-10-02T11:25:54.572Z</time>
      </trkpt>
      <trkpt lat="45.616" lon="5.27996">
        <ele>251</ele>
        <time>2021-10-02T11:25:53.573Z</time>
      </trkpt>
      <trkpt lat="45.61597" lon="5.27996">
        <ele>250</ele>
        <time>2021-10-02T11:25:52.573Z</time>
      </trkpt>
      <trkpt lat="45.61595" lon="5.27995">
        <ele>249</ele>
        <time>2021-10-02T11:25:51.573Z</time>
      </trkpt>
      <trkpt lat="45.61593" lon="5.27994">
        <ele>248</ele>
        <time>2021-10-02T11:25:50.573Z</time>
      </trkpt>
      <trkpt lat="45.61591" lon="5.27993">
        <ele>248</ele>
        <time>2021-10-02T11:25:49.572Z</time>
      </trkpt>
      <trkpt lat="45.61588" lon="5.27992">
        <ele>248</ele>
        <time>2021-10-02T11:25:48.573Z</time>
      </trkpt>
      <trkpt lat="45.61586" lon="5.27991">
        <ele>248</ele>
        <time>2021-10-02T11:25:47.573Z</time>
      </trkpt>
      <trkpt lat="45.61584" lon="5.2799">
        <ele>248</ele>
        <time>2021-10-02T11:25:46.572Z</time>
      </trkpt>
      <trkpt lat="45.61581" lon="5.27989">
        <ele>249</ele>
        <time>2021-10-02T11:25:45.573Z</time>
      </trkpt>
      <trkpt lat="45.61579" lon="5.27988">
        <ele>249</ele>
        <time>2021-10-02T11:25:44.573Z</time>
      </trkpt>
      <trkpt lat="45.61576" lon="5.27987">
        <ele>249</ele>
        <time>2021-10-02T11:25:43.573Z</time>
      </trkpt>
      <trkpt lat="45.61574" lon="5.27985">
        <ele>250</ele>
        <time>2021-10-02T11:25:42.573Z</time>
      </trkpt>
      <trkpt lat="45.61571" lon="5.27984">
        <ele>250</ele>
        <time>2021-10-02T11:25:41.573Z</time>
      </trkpt>
      <trkpt lat="45.61569" lon="5.27983">
        <ele>251</ele>
        <time>2021-10-02T11:25:40.572Z</time>
      </trkpt>
      <trkpt lat="45.61567" lon="5.27982">
        <ele>251</ele>
        <time>2021-10-02T11:25:39.573Z</time>
      </trkpt>
      <trkpt lat="45.61565" lon="5.2798">
        <ele>251</ele>
        <time>2021-10-02T11:25:38.572Z</time>
      </trkpt>
      <trkpt lat="45.61562" lon="5.27979">
        <ele>251</ele>
        <time>2021-10-02T11:25:37.573Z</time>
      </trkpt>
      <trkpt lat="45.6156" lon="5.27978">
        <ele>251</ele>
        <time>2021-10-02T11:25:36.573Z</time>
      </trkpt>
      <trkpt lat="45.61558" lon="5.27977">
        <ele>251</ele>
        <time>2021-10-02T11:25:35.572Z</time>
      </trkpt>
      <trkpt lat="45.61556" lon="5.27976">
        <ele>251</ele>
        <time>2021-10-02T11:25:34.573Z</time>
      </trkpt>
      <trkpt lat="45.61554" lon="5.27975">
        <ele>251</ele>
        <time>2021-10-02T11:25:33.573Z</time>
      </trkpt>
      <trkpt lat="45.61552" lon="5.27974">
        <ele>251</ele>
        <time>2021-10-02T11:25:32.573Z</time>
      </trkpt>
      <trkpt lat="45.6155" lon="5.27973">
        <ele>251</ele>
        <time>2021-10-02T11:25:31.573Z</time>
      </trkpt>
      <trkpt lat="45.61547" lon="5.27972">
        <ele>251</ele>
        <time>2021-10-02T11:25:30.572Z</time>
      </trkpt>
      <trkpt lat="45.61545" lon="5.27971">
        <ele>250</ele>
        <time>2021-10-02T11:25:29.572Z</time>
      </trkpt>
      <trkpt lat="45.61542" lon="5.2797">
        <ele>250</ele>
        <time>2021-10-02T11:25:28.572Z</time>
      </trkpt>
      <trkpt lat="45.6154" lon="5.27969">
        <ele>250</ele>
        <time>2021-10-02T11:25:27.573Z</time>
      </trkpt>
      <trkpt lat="45.61538" lon="5.27967">
        <ele>250</ele>
        <time>2021-10-02T11:25:26.573Z</time>
      </trkpt>
      <trkpt lat="45.61536" lon="5.27966">
        <ele>249</ele>
        <time>2021-10-02T11:25:25.572Z</time>
      </trkpt>
      <trkpt lat="45.61534" lon="5.27965">
        <ele>249</ele>
        <time>2021-10-02T11:25:24.573Z</time>
      </trkpt>
      <trkpt lat="45.61531" lon="5.27964">
        <ele>248</ele>
        <time>2021-10-02T11:25:23.573Z</time>
      </trkpt>
      <trkpt lat="45.61529" lon="5.27963">
        <ele>247</ele>
        <time>2021-10-02T11:25:22.573Z</time>
      </trkpt>
      <trkpt lat="45.61526" lon="5.27962">
        <ele>247</ele>
        <time>2021-10-02T11:25:21.573Z</time>
      </trkpt>
      <trkpt lat="45.61524" lon="5.2796">
        <ele>246</ele>
        <time>2021-10-02T11:25:20.572Z</time>
      </trkpt>
      <trkpt lat="45.61521" lon="5.27959">
        <ele>245</ele>
        <time>2021-10-02T11:25:19.572Z</time>
      </trkpt>
      <trkpt lat="45.61518" lon="5.27959">
        <ele>245</ele>
        <time>2021-10-02T11:25:18.573Z</time>
      </trkpt>
      <trkpt lat="45.61516" lon="5.27957">
        <ele>244</ele>
        <time>2021-10-02T11:25:17.573Z</time>
      </trkpt>
      <trkpt lat="45.61514" lon="5.27956">
        <ele>244</ele>
        <time>2021-10-02T11:25:16.572Z</time>
      </trkpt>
      <trkpt lat="45.61511" lon="5.27955">
        <ele>244</ele>
        <time>2021-10-02T11:25:15.572Z</time>
      </trkpt>
      <trkpt lat="45.61508" lon="5.27954">
        <ele>244</ele>
        <time>2021-10-02T11:25:14.573Z</time>
      </trkpt>
      <trkpt lat="45.61506" lon="5.27952">
        <ele>244</ele>
        <time>2021-10-02T11:25:13.573Z</time>
      </trkpt>
      <trkpt lat="45.61503" lon="5.27951">
        <ele>244</ele>
        <time>2021-10-02T11:25:12.573Z</time>
      </trkpt>
      <trkpt lat="45.61501" lon="5.2795">
        <ele>244</ele>
        <time>2021-10-02T11:25:11.572Z</time>
      </trkpt>
      <trkpt lat="45.61498" lon="5.2795">
        <ele>244</ele>
        <time>2021-10-02T11:25:10.573Z</time>
      </trkpt>
      <trkpt lat="45.61496" lon="5.27949">
        <ele>244</ele>
        <time>2021-10-02T11:25:09.572Z</time>
      </trkpt>
      <trkpt lat="45.61493" lon="5.27947">
        <ele>244</ele>
        <time>2021-10-02T11:25:08.572Z</time>
      </trkpt>
      <trkpt lat="45.6149" lon="5.27947">
        <ele>243</ele>
        <time>2021-10-02T11:25:07.573Z</time>
      </trkpt>
      <trkpt lat="45.61488" lon="5.27946">
        <ele>243</ele>
        <time>2021-10-02T11:25:06.573Z</time>
      </trkpt>
      <trkpt lat="45.61485" lon="5.27946">
        <ele>243</ele>
        <time>2021-10-02T11:25:05.572Z</time>
      </trkpt>
      <trkpt lat="45.61482" lon="5.27945">
        <ele>242</ele>
        <time>2021-10-02T11:25:04.572Z</time>
      </trkpt>
      <trkpt lat="45.6148" lon="5.27944">
        <ele>242</ele>
        <time>2021-10-02T11:25:03.572Z</time>
      </trkpt>
      <trkpt lat="45.61477" lon="5.27943">
        <ele>242</ele>
        <time>2021-10-02T11:25:02.573Z</time>
      </trkpt>
      <trkpt lat="45.61474" lon="5.27942">
        <ele>243</ele>
        <time>2021-10-02T11:25:01.573Z</time>
      </trkpt>
      <trkpt lat="45.61471" lon="5.27942">
        <ele>243</ele>
        <time>2021-10-02T11:25:00.572Z</time>
      </trkpt>
      <trkpt lat="45.61468" lon="5.27941">
        <ele>243</ele>
        <time>2021-10-02T11:24:59.572Z</time>
      </trkpt>
      <trkpt lat="45.61465" lon="5.2794">
        <ele>242</ele>
        <time>2021-10-02T11:24:58.573Z</time>
      </trkpt>
      <trkpt lat="45.61462" lon="5.27939">
        <ele>242</ele>
        <time>2021-10-02T11:24:57.572Z</time>
      </trkpt>
      <trkpt lat="45.6146" lon="5.27938">
        <ele>241</ele>
        <time>2021-10-02T11:24:56.572Z</time>
      </trkpt>
      <trkpt lat="45.61457" lon="5.27937">
        <ele>241</ele>
        <time>2021-10-02T11:24:55.572Z</time>
      </trkpt>
      <trkpt lat="45.61455" lon="5.27936">
        <ele>241</ele>
        <time>2021-10-02T11:24:54.572Z</time>
      </trkpt>
      <trkpt lat="45.61453" lon="5.27934">
        <ele>240</ele>
        <time>2021-10-02T11:24:53.573Z</time>
      </trkpt>
      <trkpt lat="45.61451" lon="5.27932">
        <ele>240</ele>
        <time>2021-10-02T11:24:52.573Z</time>
      </trkpt>
      <trkpt lat="45.61449" lon="5.2793">
        <ele>239</ele>
        <time>2021-10-02T11:24:51.573Z</time>
      </trkpt>
      <trkpt lat="45.61447" lon="5.27928">
        <ele>239</ele>
        <time>2021-10-02T11:24:50.572Z</time>
      </trkpt>
      <trkpt lat="45.61446" lon="5.27925">
        <ele>238</ele>
        <time>2021-10-02T11:24:49.573Z</time>
      </trkpt>
      <trkpt lat="45.61446" lon="5.27922">
        <ele>238</ele>
        <time>2021-10-02T11:24:48.573Z</time>
      </trkpt>
      <trkpt lat="45.61445" lon="5.27919">
        <ele>238</ele>
        <time>2021-10-02T11:24:47.573Z</time>
      </trkpt>
      <trkpt lat="45.61445" lon="5.27915">
        <ele>238</ele>
        <time>2021-10-02T11:24:46.573Z</time>
      </trkpt>
      <trkpt lat="45.61445" lon="5.27911">
        <ele>238</ele>
        <time>2021-10-02T11:24:45.573Z</time>
      </trkpt>
      <trkpt lat="45.61445" lon="5.27907">
        <ele>238</ele>
        <time>2021-10-02T11:24:44.573Z</time>
      </trkpt>
      <trkpt lat="45.61446" lon="5.27903">
        <ele>238</ele>
        <time>2021-10-02T11:24:43.572Z</time>
      </trkpt>
      <trkpt lat="45.61446" lon="5.27899">
        <ele>238</ele>
        <time>2021-10-02T11:24:42.573Z</time>
      </trkpt>
      <trkpt lat="45.61447" lon="5.27895">
        <ele>238</ele>
        <time>2021-10-02T11:24:41.572Z</time>
      </trkpt>
      <trkpt lat="45.61448" lon="5.2789">
        <ele>238</ele>
        <time>2021-10-02T11:24:40.573Z</time>
      </trkpt>
      <trkpt lat="45.61449" lon="5.27886">
        <ele>237</ele>
        <time>2021-10-02T11:24:39.573Z</time>
      </trkpt>
      <trkpt lat="45.61449" lon="5.27881">
        <ele>237</ele>
        <time>2021-10-02T11:24:38.573Z</time>
      </trkpt>
      <trkpt lat="45.6145" lon="5.27877">
        <ele>236</ele>
        <time>2021-10-02T11:24:37.573Z</time>
      </trkpt>
      <trkpt lat="45.61451" lon="5.27872">
        <ele>235</ele>
        <time>2021-10-02T11:24:36.573Z</time>
      </trkpt>
      <trkpt lat="45.61452" lon="5.27867">
        <ele>235</ele>
        <time>2021-10-02T11:24:35.572Z</time>
      </trkpt>
      <trkpt lat="45.61453" lon="5.27862">
        <ele>234</ele>
        <time>2021-10-02T11:24:34.573Z</time>
      </trkpt>
      <trkpt lat="45.61454" lon="5.27857">
        <ele>234</ele>
        <time>2021-10-02T11:24:33.572Z</time>
      </trkpt>
      <trkpt lat="45.61455" lon="5.27852">
        <ele>235</ele>
        <time>2021-10-02T11:24:32.573Z</time>
      </trkpt>
      <trkpt lat="45.61456" lon="5.27847">
        <ele>234</ele>
        <time>2021-10-02T11:24:31.573Z</time>
      </trkpt>
      <trkpt lat="45.61457" lon="5.27843">
        <ele>234</ele>
        <time>2021-10-02T11:24:30.573Z</time>
      </trkpt>
      <trkpt lat="45.61458" lon="5.27839">
        <ele>234</ele>
        <time>2021-10-02T11:24:29.573Z</time>
      </trkpt>
      <trkpt lat="45.61459" lon="5.27834">
        <ele>233</ele>
        <time>2021-10-02T11:24:28.573Z</time>
      </trkpt>
      <trkpt lat="45.6146" lon="5.2783">
        <ele>232</ele>
        <time>2021-10-02T11:24:27.573Z</time>
      </trkpt>
      <trkpt lat="45.61461" lon="5.27826">
        <ele>232</ele>
        <time>2021-10-02T11:24:26.573Z</time>
      </trkpt>
      <trkpt lat="45.61462" lon="5.27822">
        <ele>232</ele>
        <time>2021-10-02T11:24:25.573Z</time>
      </trkpt>
      <trkpt lat="45.61464" lon="5.27817">
        <ele>232</ele>
        <time>2021-10-02T11:24:24.573Z</time>
      </trkpt>
      <trkpt lat="45.61465" lon="5.27813">
        <ele>232</ele>
        <time>2021-10-02T11:24:23.573Z</time>
      </trkpt>
      <trkpt lat="45.61466" lon="5.27809">
        <ele>232</ele>
        <time>2021-10-02T11:24:22.572Z</time>
      </trkpt>
      <trkpt lat="45.61467" lon="5.27804">
        <ele>232</ele>
        <time>2021-10-02T11:24:21.573Z</time>
      </trkpt>
      <trkpt lat="45.61468" lon="5.278">
        <ele>232</ele>
        <time>2021-10-02T11:24:20.573Z</time>
      </trkpt>
      <trkpt lat="45.61469" lon="5.27796">
        <ele>233</ele>
        <time>2021-10-02T11:24:19.572Z</time>
      </trkpt>
      <trkpt lat="45.61471" lon="5.27792">
        <ele>233</ele>
        <time>2021-10-02T11:24:18.573Z</time>
      </trkpt>
      <trkpt lat="45.61472" lon="5.27787">
        <ele>233</ele>
        <time>2021-10-02T11:24:17.573Z</time>
      </trkpt>
      <trkpt lat="45.61473" lon="5.27783">
        <ele>232</ele>
        <time>2021-10-02T11:24:16.573Z</time>
      </trkpt>
      <trkpt lat="45.61474" lon="5.27779">
        <ele>232</ele>
        <time>2021-10-02T11:24:15.573Z</time>
      </trkpt>
      <trkpt lat="45.61476" lon="5.27774">
        <ele>232</ele>
        <time>2021-10-02T11:24:14.572Z</time>
      </trkpt>
      <trkpt lat="45.61478" lon="5.2777">
        <ele>232</ele>
        <time>2021-10-02T11:24:13.572Z</time>
      </trkpt>
      <trkpt lat="45.61479" lon="5.27765">
        <ele>232</ele>
        <time>2021-10-02T11:24:12.573Z</time>
      </trkpt>
      <trkpt lat="45.61481" lon="5.27761">
        <ele>232</ele>
        <time>2021-10-02T11:24:11.573Z</time>
      </trkpt>
      <trkpt lat="45.61483" lon="5.27757">
        <ele>233</ele>
        <time>2021-10-02T11:24:10.572Z</time>
      </trkpt>
      <trkpt lat="45.61485" lon="5.27753">
        <ele>233</ele>
        <time>2021-10-02T11:24:09.573Z</time>
      </trkpt>
      <trkpt lat="45.61487" lon="5.27748">
        <ele>233</ele>
        <time>2021-10-02T11:24:08.572Z</time>
      </trkpt>
      <trkpt lat="45.61489" lon="5.27744">
        <ele>233</ele>
        <time>2021-10-02T11:24:07.573Z</time>
      </trkpt>
      <trkpt lat="45.61491" lon="5.2774">
        <ele>233</ele>
        <time>2021-10-02T11:24:06.572Z</time>
      </trkpt>
      <trkpt lat="45.61492" lon="5.27736">
        <ele>233</ele>
        <time>2021-10-02T11:24:05.572Z</time>
      </trkpt>
      <trkpt lat="45.61494" lon="5.27731">
        <ele>233</ele>
        <time>2021-10-02T11:24:04.572Z</time>
      </trkpt>
      <trkpt lat="45.61495" lon="5.27727">
        <ele>233</ele>
        <time>2021-10-02T11:24:03.573Z</time>
      </trkpt>
      <trkpt lat="45.61496" lon="5.27724">
        <ele>233</ele>
        <time>2021-10-02T11:24:02.572Z</time>
      </trkpt>
      <trkpt lat="45.61497" lon="5.2772">
        <ele>233</ele>
        <time>2021-10-02T11:24:01.572Z</time>
      </trkpt>
      <trkpt lat="45.61498" lon="5.27716">
        <ele>233</ele>
        <time>2021-10-02T11:24:00.573Z</time>
      </trkpt>
      <trkpt lat="45.61499" lon="5.27712">
        <ele>233</ele>
        <time>2021-10-02T11:23:59.572Z</time>
      </trkpt>
      <trkpt lat="45.615" lon="5.27707">
        <ele>233</ele>
        <time>2021-10-02T11:23:58.572Z</time>
      </trkpt>
      <trkpt lat="45.61501" lon="5.27703">
        <ele>232</ele>
        <time>2021-10-02T11:23:57.572Z</time>
      </trkpt>
      <trkpt lat="45.61502" lon="5.27699">
        <ele>232</ele>
        <time>2021-10-02T11:23:56.572Z</time>
      </trkpt>
      <trkpt lat="45.61503" lon="5.27694">
        <ele>231</ele>
        <time>2021-10-02T11:23:55.573Z</time>
      </trkpt>
      <trkpt lat="45.61504" lon="5.2769">
        <ele>231</ele>
        <time>2021-10-02T11:23:54.573Z</time>
      </trkpt>
      <trkpt lat="45.61505" lon="5.27685">
        <ele>231</ele>
        <time>2021-10-02T11:23:53.573Z</time>
      </trkpt>
      <trkpt lat="45.61507" lon="5.27681">
        <ele>231</ele>
        <time>2021-10-02T11:23:52.572Z</time>
      </trkpt>
      <trkpt lat="45.61508" lon="5.27676">
        <ele>232</ele>
        <time>2021-10-02T11:23:51.572Z</time>
      </trkpt>
      <trkpt lat="45.61509" lon="5.27671">
        <ele>232</ele>
        <time>2021-10-02T11:23:50.572Z</time>
      </trkpt>
      <trkpt lat="45.6151" lon="5.27667">
        <ele>232</ele>
        <time>2021-10-02T11:23:49.572Z</time>
      </trkpt>
      <trkpt lat="45.61511" lon="5.27662">
        <ele>232</ele>
        <time>2021-10-02T11:23:48.573Z</time>
      </trkpt>
      <trkpt lat="45.61512" lon="5.27657">
        <ele>232</ele>
        <time>2021-10-02T11:23:47.572Z</time>
      </trkpt>
      <trkpt lat="45.61513" lon="5.27653">
        <ele>232</ele>
        <time>2021-10-02T11:23:46.573Z</time>
      </trkpt>
      <trkpt lat="45.61514" lon="5.27648">
        <ele>232</ele>
        <time>2021-10-02T11:23:45.573Z</time>
      </trkpt>
      <trkpt lat="45.61515" lon="5.27643">
        <ele>231</ele>
        <time>2021-10-02T11:23:44.573Z</time>
      </trkpt>
      <trkpt lat="45.61516" lon="5.27638">
        <ele>231</ele>
        <time>2021-10-02T11:23:43.573Z</time>
      </trkpt>
      <trkpt lat="45.61517" lon="5.27632">
        <ele>230</ele>
        <time>2021-10-02T11:23:42.573Z</time>
      </trkpt>
      <trkpt lat="45.61518" lon="5.27627">
        <ele>229</ele>
        <time>2021-10-02T11:23:41.573Z</time>
      </trkpt>
      <trkpt lat="45.61519" lon="5.27623">
        <ele>229</ele>
        <time>2021-10-02T11:23:40.573Z</time>
      </trkpt>
      <trkpt lat="45.6152" lon="5.27619">
        <ele>229</ele>
        <time>2021-10-02T11:23:39.573Z</time>
      </trkpt>
      <trkpt lat="45.61521" lon="5.27615">
        <ele>229</ele>
        <time>2021-10-02T11:23:38.573Z</time>
      </trkpt>
      <trkpt lat="45.61521" lon="5.27611">
        <ele>228</ele>
        <time>2021-10-02T11:23:37.573Z</time>
      </trkpt>
      <trkpt lat="45.61522" lon="5.27606">
        <ele>229</ele>
        <time>2021-10-02T11:23:36.573Z</time>
      </trkpt>
      <trkpt lat="45.61522" lon="5.27602">
        <ele>229</ele>
        <time>2021-10-02T11:23:35.573Z</time>
      </trkpt>
      <trkpt lat="45.61523" lon="5.27597">
        <ele>229</ele>
        <time>2021-10-02T11:23:34.573Z</time>
      </trkpt>
      <trkpt lat="45.61523" lon="5.27593">
        <ele>229</ele>
        <time>2021-10-02T11:23:33.572Z</time>
      </trkpt>
      <trkpt lat="45.61523" lon="5.27589">
        <ele>228</ele>
        <time>2021-10-02T11:23:32.573Z</time>
      </trkpt>
      <trkpt lat="45.61523" lon="5.27584">
        <ele>228</ele>
        <time>2021-10-02T11:23:31.573Z</time>
      </trkpt>
      <trkpt lat="45.61522" lon="5.27579">
        <ele>229</ele>
        <time>2021-10-02T11:23:30.573Z</time>
      </trkpt>
      <trkpt lat="45.61522" lon="5.27575">
        <ele>229</ele>
        <time>2021-10-02T11:23:29.572Z</time>
      </trkpt>
      <trkpt lat="45.61522" lon="5.2757">
        <ele>230</ele>
        <time>2021-10-02T11:23:28.572Z</time>
      </trkpt>
      <trkpt lat="45.61523" lon="5.27566">
        <ele>231</ele>
        <time>2021-10-02T11:23:27.573Z</time>
      </trkpt>
      <trkpt lat="45.61523" lon="5.27562">
        <ele>232</ele>
        <time>2021-10-02T11:23:26.572Z</time>
      </trkpt>
      <trkpt lat="45.61525" lon="5.27559">
        <ele>232</ele>
        <time>2021-10-02T11:23:25.573Z</time>
      </trkpt>
      <trkpt lat="45.61526" lon="5.27556">
        <ele>233</ele>
        <time>2021-10-02T11:23:24.572Z</time>
      </trkpt>
      <trkpt lat="45.61528" lon="5.27554">
        <ele>234</ele>
        <time>2021-10-02T11:23:23.573Z</time>
      </trkpt>
      <trkpt lat="45.61529" lon="5.27551">
        <ele>234</ele>
        <time>2021-10-02T11:23:22.573Z</time>
      </trkpt>
      <trkpt lat="45.6153" lon="5.27548">
        <ele>234</ele>
        <time>2021-10-02T11:23:21.573Z</time>
      </trkpt>
      <trkpt lat="45.61531" lon="5.27544">
        <ele>234</ele>
        <time>2021-10-02T11:23:20.572Z</time>
      </trkpt>
      <trkpt lat="45.61531" lon="5.27541">
        <ele>234</ele>
        <time>2021-10-02T11:23:19.572Z</time>
      </trkpt>
      <trkpt lat="45.61532" lon="5.27537">
        <ele>234</ele>
        <time>2021-10-02T11:23:18.573Z</time>
      </trkpt>
      <trkpt lat="45.61533" lon="5.27533">
        <ele>233</ele>
        <time>2021-10-02T11:23:17.573Z</time>
      </trkpt>
      <trkpt lat="45.61534" lon="5.27529">
        <ele>233</ele>
        <time>2021-10-02T11:23:16.573Z</time>
      </trkpt>
      <trkpt lat="45.61534" lon="5.27524">
        <ele>233</ele>
        <time>2021-10-02T11:23:15.573Z</time>
      </trkpt>
      <trkpt lat="45.61535" lon="5.27519">
        <ele>234</ele>
        <time>2021-10-02T11:23:14.573Z</time>
      </trkpt>
      <trkpt lat="45.61536" lon="5.27513">
        <ele>234</ele>
        <time>2021-10-02T11:23:13.572Z</time>
      </trkpt>
      <trkpt lat="45.61536" lon="5.27507">
        <ele>235</ele>
        <time>2021-10-02T11:23:12.573Z</time>
      </trkpt>
      <trkpt lat="45.61537" lon="5.275">
        <ele>235</ele>
        <time>2021-10-02T11:23:11.573Z</time>
      </trkpt>
      <trkpt lat="45.61538" lon="5.27494">
        <ele>236</ele>
        <time>2021-10-02T11:23:10.573Z</time>
      </trkpt>
      <trkpt lat="45.61538" lon="5.27488">
        <ele>236</ele>
        <time>2021-10-02T11:23:09.572Z</time>
      </trkpt>
      <trkpt lat="45.61537" lon="5.27483">
        <ele>237</ele>
        <time>2021-10-02T11:23:08.572Z</time>
      </trkpt>
      <trkpt lat="45.61535" lon="5.27478">
        <ele>237</ele>
        <time>2021-10-02T11:23:07.573Z</time>
      </trkpt>
      <trkpt lat="45.61531" lon="5.27474">
        <ele>237</ele>
        <time>2021-10-02T11:23:06.573Z</time>
      </trkpt>
      <trkpt lat="45.61527" lon="5.27471">
        <ele>237</ele>
        <time>2021-10-02T11:23:05.573Z</time>
      </trkpt>
      <trkpt lat="45.61522" lon="5.27469">
        <ele>237</ele>
        <time>2021-10-02T11:23:04.573Z</time>
      </trkpt>
      <trkpt lat="45.61518" lon="5.27467">
        <ele>237</ele>
        <time>2021-10-02T11:23:03.573Z</time>
      </trkpt>
      <trkpt lat="45.61514" lon="5.27466">
        <ele>238</ele>
        <time>2021-10-02T11:23:02.573Z</time>
      </trkpt>
      <trkpt lat="45.61509" lon="5.27465">
        <ele>238</ele>
        <time>2021-10-02T11:23:01.572Z</time>
      </trkpt>
      <trkpt lat="45.61506" lon="5.27464">
        <ele>238</ele>
        <time>2021-10-02T11:23:00.573Z</time>
      </trkpt>
      <trkpt lat="45.61504" lon="5.27464">
        <ele>238</ele>
        <time>2021-10-02T11:22:59.572Z</time>
      </trkpt>
      <trkpt lat="45.61502" lon="5.27464">
        <ele>238</ele>
        <time>2021-10-02T11:22:58.572Z</time>
      </trkpt>
      <trkpt lat="45.615" lon="5.27464">
        <ele>238</ele>
        <time>2021-10-02T11:22:57.573Z</time>
      </trkpt>
      <trkpt lat="45.61499" lon="5.27465">
        <ele>238</ele>
        <time>2021-10-02T11:22:56.573Z</time>
      </trkpt>
      <trkpt lat="45.61497" lon="5.27467">
        <ele>238</ele>
        <time>2021-10-02T11:22:47.570Z</time>
        <extensions>
          <visugpx:TrkExtension xmlns:visugpx="https://www.visugpx.com/editgpx/">
            <visugpx:node>2</visugpx:node>
            </visugpx:TrkExtension>
        </extensions>
      </trkpt>
    </trkseg>
  </trk>
</gpx>